<?xml version="1.0" encoding="UTF-8" standalone="no" ?>
<gpx xmlns="http://www.topografix.com/GPX/1/1" xmlns:xsi="http://www.w3.org/2001/XMLSchema-instance" xsi:schemaLocation="http://www.topografix.com/GPX/1/1 http://www.topografix.com/GPX/1/1/gpx.xsd" version="1.1" creator="VisuGPX - https://www.visugpx.com">
  <metadata>
    <name>Sortie ASV VTT 2017-02-05</name>
    <desc><![CDATA[Randonnée de 10 guerriers sur les chemins Solognot.

Assez humide mais caché du vent.]]></desc>
  </metadata>
  <trk>
    <name><![CDATA[Sortie ASV VTT 2017-02-05_1]]></name>
    <trkseg>
      <trkpt lat="47.80175" lon="2.1362">
        <ele>109</ele>
        <time>2017-02-05T07:48:07.944Z</time>
      </trkpt>
      <trkpt lat="47.80175" lon="2.1362">
        <ele>109</ele>
        <time>2017-02-05T07:48:08.933Z</time>
      </trkpt>
      <trkpt lat="47.80171" lon="2.13624">
        <ele>104</ele>
        <time>2017-02-05T07:48:09.946Z</time>
      </trkpt>
      <trkpt lat="47.80169" lon="2.13625">
        <ele>104</ele>
        <time>2017-02-05T07:48:10.941Z</time>
      </trkpt>
      <trkpt lat="47.80165" lon="2.13629">
        <ele>104</ele>
        <time>2017-02-05T07:48:11.978Z</time>
      </trkpt>
      <trkpt lat="47.80165" lon="2.13629">
        <ele>104</ele>
        <time>2017-02-05T07:48:12.941Z</time>
      </trkpt>
      <trkpt lat="47.80165" lon="2.13629">
        <ele>104</ele>
        <time>2017-02-05T07:48:13.951Z</time>
      </trkpt>
      <trkpt lat="47.80162" lon="2.13633">
        <ele>104</ele>
        <time>2017-02-05T07:48:14.952Z</time>
      </trkpt>
      <trkpt lat="47.80161" lon="2.13636">
        <ele>104</ele>
        <time>2017-02-05T07:48:15.940Z</time>
      </trkpt>
      <trkpt lat="47.80161" lon="2.13636">
        <ele>104</ele>
        <time>2017-02-05T07:48:16.950Z</time>
      </trkpt>
      <trkpt lat="47.80158" lon="2.13643">
        <ele>105</ele>
        <time>2017-02-05T07:48:17.936Z</time>
      </trkpt>
      <trkpt lat="47.80158" lon="2.13643">
        <ele>105</ele>
        <time>2017-02-05T07:48:18.947Z</time>
      </trkpt>
      <trkpt lat="47.80155" lon="2.1365">
        <ele>105</ele>
        <time>2017-02-05T07:48:19.945Z</time>
      </trkpt>
      <trkpt lat="47.80155" lon="2.1365">
        <ele>105</ele>
        <time>2017-02-05T07:48:20.952Z</time>
      </trkpt>
      <trkpt lat="47.80151" lon="2.13654">
        <ele>105</ele>
        <time>2017-02-05T07:48:21.938Z</time>
      </trkpt>
      <trkpt lat="47.80151" lon="2.13654">
        <ele>105</ele>
        <time>2017-02-05T07:48:22.948Z</time>
      </trkpt>
      <trkpt lat="47.80144" lon="2.13655">
        <ele>105</ele>
        <time>2017-02-05T07:48:23.934Z</time>
      </trkpt>
      <trkpt lat="47.80142" lon="2.13654">
        <ele>106</ele>
        <time>2017-02-05T07:48:24.935Z</time>
      </trkpt>
      <trkpt lat="47.80139" lon="2.13653">
        <ele>106</ele>
        <time>2017-02-05T07:48:25.978Z</time>
      </trkpt>
      <trkpt lat="47.80139" lon="2.13653">
        <ele>106</ele>
        <time>2017-02-05T07:48:26.939Z</time>
      </trkpt>
      <trkpt lat="47.80133" lon="2.13652">
        <ele>106</ele>
        <time>2017-02-05T07:48:27.956Z</time>
      </trkpt>
      <trkpt lat="47.80133" lon="2.13652">
        <ele>106</ele>
        <time>2017-02-05T07:48:28.929Z</time>
      </trkpt>
      <trkpt lat="47.80128" lon="2.13648">
        <ele>106</ele>
        <time>2017-02-05T07:48:29.940Z</time>
      </trkpt>
      <trkpt lat="47.80128" lon="2.13648">
        <ele>106</ele>
        <time>2017-02-05T07:48:30.948Z</time>
      </trkpt>
      <trkpt lat="47.80123" lon="2.13644">
        <ele>106</ele>
        <time>2017-02-05T07:48:31.934Z</time>
      </trkpt>
      <trkpt lat="47.80118" lon="2.1364">
        <ele>106</ele>
        <time>2017-02-05T07:48:32.956Z</time>
      </trkpt>
      <trkpt lat="47.80118" lon="2.1364">
        <ele>106</ele>
        <time>2017-02-05T07:48:33.949Z</time>
      </trkpt>
      <trkpt lat="47.80115" lon="2.13639">
        <ele>106</ele>
        <time>2017-02-05T07:48:34.934Z</time>
      </trkpt>
      <trkpt lat="47.80115" lon="2.13639">
        <ele>106</ele>
        <time>2017-02-05T07:48:35.941Z</time>
      </trkpt>
      <trkpt lat="47.8011" lon="2.13637">
        <ele>106</ele>
        <time>2017-02-05T07:48:36.944Z</time>
      </trkpt>
      <trkpt lat="47.8011" lon="2.13637">
        <ele>106</ele>
        <time>2017-02-05T07:48:37.950Z</time>
      </trkpt>
      <trkpt lat="47.80103" lon="2.13633">
        <ele>107</ele>
        <time>2017-02-05T07:48:38.981Z</time>
      </trkpt>
      <trkpt lat="47.80103" lon="2.13633">
        <ele>107</ele>
        <time>2017-02-05T07:48:39.936Z</time>
      </trkpt>
      <trkpt lat="47.80103" lon="2.13633">
        <ele>107</ele>
        <time>2017-02-05T07:48:40.944Z</time>
      </trkpt>
      <trkpt lat="47.80097" lon="2.13631">
        <ele>107</ele>
        <time>2017-02-05T07:48:41.948Z</time>
      </trkpt>
      <trkpt lat="47.80097" lon="2.13631">
        <ele>107</ele>
        <time>2017-02-05T07:48:42.941Z</time>
      </trkpt>
      <trkpt lat="47.80093" lon="2.13628">
        <ele>107</ele>
        <time>2017-02-05T07:48:43.948Z</time>
      </trkpt>
      <trkpt lat="47.80093" lon="2.13628">
        <ele>107</ele>
        <time>2017-02-05T07:48:44.928Z</time>
      </trkpt>
      <trkpt lat="47.8009" lon="2.13625">
        <ele>107</ele>
        <time>2017-02-05T07:48:45.951Z</time>
      </trkpt>
      <trkpt lat="47.80088" lon="2.13623">
        <ele>107</ele>
        <time>2017-02-05T07:48:46.950Z</time>
      </trkpt>
      <trkpt lat="47.80088" lon="2.13623">
        <ele>107</ele>
        <time>2017-02-05T07:48:47.979Z</time>
      </trkpt>
      <trkpt lat="47.80087" lon="2.13616">
        <ele>108</ele>
        <time>2017-02-05T07:48:48.935Z</time>
      </trkpt>
      <trkpt lat="47.80087" lon="2.13613">
        <ele>108</ele>
        <time>2017-02-05T07:48:49.954Z</time>
      </trkpt>
      <trkpt lat="47.80087" lon="2.13613">
        <ele>108</ele>
        <time>2017-02-05T07:48:50.937Z</time>
      </trkpt>
      <trkpt lat="47.80087" lon="2.13605">
        <ele>109</ele>
        <time>2017-02-05T07:48:51.956Z</time>
      </trkpt>
      <trkpt lat="47.80087" lon="2.13605">
        <ele>109</ele>
        <time>2017-02-05T07:48:52.929Z</time>
      </trkpt>
      <trkpt lat="47.80087" lon="2.13597">
        <ele>109</ele>
        <time>2017-02-05T07:48:53.980Z</time>
      </trkpt>
      <trkpt lat="47.80087" lon="2.13594">
        <ele>109</ele>
        <time>2017-02-05T07:48:54.934Z</time>
      </trkpt>
      <trkpt lat="47.80087" lon="2.1359">
        <ele>109</ele>
        <time>2017-02-05T07:48:55.935Z</time>
      </trkpt>
      <trkpt lat="47.80087" lon="2.1359">
        <ele>109</ele>
        <time>2017-02-05T07:48:56.941Z</time>
      </trkpt>
      <trkpt lat="47.80087" lon="2.13582">
        <ele>109</ele>
        <time>2017-02-05T07:48:57.937Z</time>
      </trkpt>
      <trkpt lat="47.80087" lon="2.13578">
        <ele>109</ele>
        <time>2017-02-05T07:48:58.980Z</time>
      </trkpt>
      <trkpt lat="47.80087" lon="2.13574">
        <ele>109</ele>
        <time>2017-02-05T07:48:59.935Z</time>
      </trkpt>
      <trkpt lat="47.80087" lon="2.13574">
        <ele>109</ele>
        <time>2017-02-05T07:49:00.956Z</time>
      </trkpt>
      <trkpt lat="47.80087" lon="2.13566">
        <ele>109</ele>
        <time>2017-02-05T07:49:01.936Z</time>
      </trkpt>
      <trkpt lat="47.80088" lon="2.13558">
        <ele>109</ele>
        <time>2017-02-05T07:49:02.980Z</time>
      </trkpt>
      <trkpt lat="47.80088" lon="2.13558">
        <ele>109</ele>
        <time>2017-02-05T07:49:03.937Z</time>
      </trkpt>
      <trkpt lat="47.80088" lon="2.13558">
        <ele>109</ele>
        <time>2017-02-05T07:49:04.949Z</time>
      </trkpt>
      <trkpt lat="47.80089" lon="2.1355">
        <ele>109</ele>
        <time>2017-02-05T07:49:05.941Z</time>
      </trkpt>
      <trkpt lat="47.80089" lon="2.1355">
        <ele>109</ele>
        <time>2017-02-05T07:49:06.948Z</time>
      </trkpt>
      <trkpt lat="47.8009" lon="2.13541">
        <ele>110</ele>
        <time>2017-02-05T07:49:07.947Z</time>
      </trkpt>
      <trkpt lat="47.8009" lon="2.13541">
        <ele>110</ele>
        <time>2017-02-05T07:49:08.935Z</time>
      </trkpt>
      <trkpt lat="47.80091" lon="2.13533">
        <ele>110</ele>
        <time>2017-02-05T07:49:09.945Z</time>
      </trkpt>
      <trkpt lat="47.80091" lon="2.13533">
        <ele>110</ele>
        <time>2017-02-05T07:49:10.949Z</time>
      </trkpt>
      <trkpt lat="47.8009" lon="2.13524">
        <ele>110</ele>
        <time>2017-02-05T07:49:11.932Z</time>
      </trkpt>
      <trkpt lat="47.8009" lon="2.13524">
        <ele>110</ele>
        <time>2017-02-05T07:49:12.949Z</time>
      </trkpt>
      <trkpt lat="47.80087" lon="2.13516">
        <ele>110</ele>
        <time>2017-02-05T07:49:13.933Z</time>
      </trkpt>
      <trkpt lat="47.80087" lon="2.13516">
        <ele>110</ele>
        <time>2017-02-05T07:49:14.952Z</time>
      </trkpt>
      <trkpt lat="47.80083" lon="2.13511">
        <ele>109</ele>
        <time>2017-02-05T07:49:15.935Z</time>
      </trkpt>
      <trkpt lat="47.80083" lon="2.13511">
        <ele>109</ele>
        <time>2017-02-05T07:49:16.944Z</time>
      </trkpt>
      <trkpt lat="47.80079" lon="2.13506">
        <ele>109</ele>
        <time>2017-02-05T07:49:17.929Z</time>
      </trkpt>
      <trkpt lat="47.80079" lon="2.13506">
        <ele>109</ele>
        <time>2017-02-05T07:49:18.935Z</time>
      </trkpt>
      <trkpt lat="47.80075" lon="2.13501">
        <ele>109</ele>
        <time>2017-02-05T07:49:19.944Z</time>
      </trkpt>
      <trkpt lat="47.80075" lon="2.13501">
        <ele>109</ele>
        <time>2017-02-05T07:49:20.948Z</time>
      </trkpt>
      <trkpt lat="47.80068" lon="2.13501">
        <ele>109</ele>
        <time>2017-02-05T07:49:21.931Z</time>
      </trkpt>
      <trkpt lat="47.80068" lon="2.13501">
        <ele>109</ele>
        <time>2017-02-05T07:49:22.934Z</time>
      </trkpt>
      <trkpt lat="47.80062" lon="2.13501">
        <ele>109</ele>
        <time>2017-02-05T07:49:23.941Z</time>
      </trkpt>
      <trkpt lat="47.80059" lon="2.13502">
        <ele>109</ele>
        <time>2017-02-05T07:49:24.935Z</time>
      </trkpt>
      <trkpt lat="47.80056" lon="2.13502">
        <ele>109</ele>
        <time>2017-02-05T07:49:25.954Z</time>
      </trkpt>
      <trkpt lat="47.80056" lon="2.13502">
        <ele>109</ele>
        <time>2017-02-05T07:49:26.938Z</time>
      </trkpt>
      <trkpt lat="47.80051" lon="2.13501">
        <ele>109</ele>
        <time>2017-02-05T07:49:27.954Z</time>
      </trkpt>
      <trkpt lat="47.80051" lon="2.13501">
        <ele>109</ele>
        <time>2017-02-05T07:49:28.928Z</time>
      </trkpt>
      <trkpt lat="47.80045" lon="2.13501">
        <ele>110</ele>
        <time>2017-02-05T07:49:29.960Z</time>
      </trkpt>
      <trkpt lat="47.80042" lon="2.13501">
        <ele>110</ele>
        <time>2017-02-05T07:49:30.935Z</time>
      </trkpt>
      <trkpt lat="47.80042" lon="2.13501">
        <ele>110</ele>
        <time>2017-02-05T07:49:31.940Z</time>
      </trkpt>
      <trkpt lat="47.80036" lon="2.13501">
        <ele>110</ele>
        <time>2017-02-05T07:49:32.955Z</time>
      </trkpt>
      <trkpt lat="47.80033" lon="2.13501">
        <ele>110</ele>
        <time>2017-02-05T07:49:33.931Z</time>
      </trkpt>
      <trkpt lat="47.80033" lon="2.13501">
        <ele>110</ele>
        <time>2017-02-05T07:49:34.934Z</time>
      </trkpt>
      <trkpt lat="47.80026" lon="2.13501">
        <ele>111</ele>
        <time>2017-02-05T07:49:35.934Z</time>
      </trkpt>
      <trkpt lat="47.80026" lon="2.13501">
        <ele>111</ele>
        <time>2017-02-05T07:49:36.940Z</time>
      </trkpt>
      <trkpt lat="47.80019" lon="2.13501">
        <ele>111</ele>
        <time>2017-02-05T07:49:37.946Z</time>
      </trkpt>
      <trkpt lat="47.80019" lon="2.13501">
        <ele>111</ele>
        <time>2017-02-05T07:49:38.949Z</time>
      </trkpt>
      <trkpt lat="47.80011" lon="2.13502">
        <ele>112</ele>
        <time>2017-02-05T07:49:39.949Z</time>
      </trkpt>
      <trkpt lat="47.80008" lon="2.13502">
        <ele>112</ele>
        <time>2017-02-05T07:49:40.935Z</time>
      </trkpt>
      <trkpt lat="47.80008" lon="2.13502">
        <ele>112</ele>
        <time>2017-02-05T07:49:41.940Z</time>
      </trkpt>
      <trkpt lat="47.8" lon="2.13502">
        <ele>112</ele>
        <time>2017-02-05T07:49:42.955Z</time>
      </trkpt>
      <trkpt lat="47.79997" lon="2.13501">
        <ele>112</ele>
        <time>2017-02-05T07:49:43.939Z</time>
      </trkpt>
      <trkpt lat="47.79997" lon="2.13501">
        <ele>112</ele>
        <time>2017-02-05T07:49:44.954Z</time>
      </trkpt>
      <trkpt lat="47.7999" lon="2.135">
        <ele>113</ele>
        <time>2017-02-05T07:49:45.950Z</time>
      </trkpt>
      <trkpt lat="47.7999" lon="2.135">
        <ele>113</ele>
        <time>2017-02-05T07:49:46.980Z</time>
      </trkpt>
      <trkpt lat="47.79982" lon="2.13501">
        <ele>113</ele>
        <time>2017-02-05T07:49:47.935Z</time>
      </trkpt>
      <trkpt lat="47.79982" lon="2.13501">
        <ele>113</ele>
        <time>2017-02-05T07:49:48.942Z</time>
      </trkpt>
      <trkpt lat="47.79974" lon="2.13502">
        <ele>114</ele>
        <time>2017-02-05T07:49:49.947Z</time>
      </trkpt>
      <trkpt lat="47.79974" lon="2.13502">
        <ele>114</ele>
        <time>2017-02-05T07:49:50.932Z</time>
      </trkpt>
      <trkpt lat="47.79967" lon="2.13502">
        <ele>115</ele>
        <time>2017-02-05T07:49:51.942Z</time>
      </trkpt>
      <trkpt lat="47.79967" lon="2.13502">
        <ele>115</ele>
        <time>2017-02-05T07:49:52.947Z</time>
      </trkpt>
      <trkpt lat="47.79959" lon="2.13504">
        <ele>116</ele>
        <time>2017-02-05T07:49:53.948Z</time>
      </trkpt>
      <trkpt lat="47.79959" lon="2.13504">
        <ele>116</ele>
        <time>2017-02-05T07:49:54.924Z</time>
      </trkpt>
      <trkpt lat="47.79951" lon="2.13506">
        <ele>116</ele>
        <time>2017-02-05T07:49:55.975Z</time>
      </trkpt>
      <trkpt lat="47.79951" lon="2.13506">
        <ele>116</ele>
        <time>2017-02-05T07:49:56.946Z</time>
      </trkpt>
      <trkpt lat="47.79944" lon="2.13508">
        <ele>116</ele>
        <time>2017-02-05T07:49:57.953Z</time>
      </trkpt>
      <trkpt lat="47.79944" lon="2.13508">
        <ele>116</ele>
        <time>2017-02-05T07:49:58.929Z</time>
      </trkpt>
      <trkpt lat="47.79936" lon="2.13511">
        <ele>115</ele>
        <time>2017-02-05T07:49:59.981Z</time>
      </trkpt>
      <trkpt lat="47.79933" lon="2.13512">
        <ele>115</ele>
        <time>2017-02-05T07:50:00.940Z</time>
      </trkpt>
      <trkpt lat="47.79928" lon="2.13514">
        <ele>116</ele>
        <time>2017-02-05T07:50:01.948Z</time>
      </trkpt>
      <trkpt lat="47.79928" lon="2.13514">
        <ele>116</ele>
        <time>2017-02-05T07:50:02.933Z</time>
      </trkpt>
      <trkpt lat="47.79921" lon="2.13517">
        <ele>116</ele>
        <time>2017-02-05T07:50:03.941Z</time>
      </trkpt>
      <trkpt lat="47.79917" lon="2.13518">
        <ele>116</ele>
        <time>2017-02-05T07:50:04.938Z</time>
      </trkpt>
      <trkpt lat="47.79917" lon="2.13518">
        <ele>116</ele>
        <time>2017-02-05T07:50:05.945Z</time>
      </trkpt>
      <trkpt lat="47.7991" lon="2.13522">
        <ele>116</ele>
        <time>2017-02-05T07:50:06.980Z</time>
      </trkpt>
      <trkpt lat="47.79906" lon="2.13523">
        <ele>116</ele>
        <time>2017-02-05T07:50:07.955Z</time>
      </trkpt>
      <trkpt lat="47.79902" lon="2.13526">
        <ele>116</ele>
        <time>2017-02-05T07:50:08.929Z</time>
      </trkpt>
      <trkpt lat="47.79902" lon="2.13526">
        <ele>116</ele>
        <time>2017-02-05T07:50:09.960Z</time>
      </trkpt>
      <trkpt lat="47.79895" lon="2.13529">
        <ele>116</ele>
        <time>2017-02-05T07:50:10.953Z</time>
      </trkpt>
      <trkpt lat="47.79895" lon="2.13529">
        <ele>116</ele>
        <time>2017-02-05T07:50:11.924Z</time>
      </trkpt>
      <trkpt lat="47.79888" lon="2.13533">
        <ele>116</ele>
        <time>2017-02-05T07:50:12.957Z</time>
      </trkpt>
      <trkpt lat="47.79885" lon="2.13536">
        <ele>116</ele>
        <time>2017-02-05T07:50:13.978Z</time>
      </trkpt>
      <trkpt lat="47.79885" lon="2.13536">
        <ele>116</ele>
        <time>2017-02-05T07:50:14.931Z</time>
      </trkpt>
      <trkpt lat="47.79878" lon="2.1354">
        <ele>116</ele>
        <time>2017-02-05T07:50:15.938Z</time>
      </trkpt>
      <trkpt lat="47.79878" lon="2.1354">
        <ele>116</ele>
        <time>2017-02-05T07:50:16.946Z</time>
      </trkpt>
      <trkpt lat="47.79872" lon="2.13545">
        <ele>116</ele>
        <time>2017-02-05T07:50:17.961Z</time>
      </trkpt>
      <trkpt lat="47.79869" lon="2.13547">
        <ele>116</ele>
        <time>2017-02-05T07:50:18.931Z</time>
      </trkpt>
      <trkpt lat="47.79869" lon="2.13547">
        <ele>116</ele>
        <time>2017-02-05T07:50:19.935Z</time>
      </trkpt>
      <trkpt lat="47.79862" lon="2.13552">
        <ele>116</ele>
        <time>2017-02-05T07:50:20.981Z</time>
      </trkpt>
      <trkpt lat="47.79859" lon="2.13555">
        <ele>116</ele>
        <time>2017-02-05T07:50:21.933Z</time>
      </trkpt>
      <trkpt lat="47.79859" lon="2.13555">
        <ele>116</ele>
        <time>2017-02-05T07:50:22.940Z</time>
      </trkpt>
      <trkpt lat="47.79852" lon="2.13559">
        <ele>117</ele>
        <time>2017-02-05T07:50:23.946Z</time>
      </trkpt>
      <trkpt lat="47.79849" lon="2.13561">
        <ele>117</ele>
        <time>2017-02-05T07:50:24.953Z</time>
      </trkpt>
      <trkpt lat="47.79849" lon="2.13561">
        <ele>117</ele>
        <time>2017-02-05T07:50:25.943Z</time>
      </trkpt>
      <trkpt lat="47.79842" lon="2.13565">
        <ele>117</ele>
        <time>2017-02-05T07:50:26.933Z</time>
      </trkpt>
      <trkpt lat="47.79842" lon="2.13565">
        <ele>117</ele>
        <time>2017-02-05T07:50:27.939Z</time>
      </trkpt>
      <trkpt lat="47.79834" lon="2.13566">
        <ele>117</ele>
        <time>2017-02-05T07:50:28.955Z</time>
      </trkpt>
      <trkpt lat="47.7983" lon="2.13567">
        <ele>118</ele>
        <time>2017-02-05T07:50:29.950Z</time>
      </trkpt>
      <trkpt lat="47.7983" lon="2.13567">
        <ele>118</ele>
        <time>2017-02-05T07:50:30.982Z</time>
      </trkpt>
      <trkpt lat="47.79823" lon="2.13567">
        <ele>118</ele>
        <time>2017-02-05T07:50:31.978Z</time>
      </trkpt>
      <trkpt lat="47.79823" lon="2.13567">
        <ele>118</ele>
        <time>2017-02-05T07:50:32.929Z</time>
      </trkpt>
      <trkpt lat="47.79816" lon="2.13566">
        <ele>118</ele>
        <time>2017-02-05T07:50:33.981Z</time>
      </trkpt>
      <trkpt lat="47.79812" lon="2.13565">
        <ele>118</ele>
        <time>2017-02-05T07:50:34.940Z</time>
      </trkpt>
      <trkpt lat="47.79812" lon="2.13565">
        <ele>118</ele>
        <time>2017-02-05T07:50:35.929Z</time>
      </trkpt>
      <trkpt lat="47.79806" lon="2.13564">
        <ele>119</ele>
        <time>2017-02-05T07:50:36.981Z</time>
      </trkpt>
      <trkpt lat="47.79803" lon="2.13562">
        <ele>119</ele>
        <time>2017-02-05T07:50:37.933Z</time>
      </trkpt>
      <trkpt lat="47.79803" lon="2.13562">
        <ele>119</ele>
        <time>2017-02-05T07:50:38.956Z</time>
      </trkpt>
      <trkpt lat="47.79796" lon="2.13558">
        <ele>119</ele>
        <time>2017-02-05T07:50:39.936Z</time>
      </trkpt>
      <trkpt lat="47.79796" lon="2.13558">
        <ele>119</ele>
        <time>2017-02-05T07:50:40.946Z</time>
      </trkpt>
      <trkpt lat="47.7979" lon="2.13555">
        <ele>120</ele>
        <time>2017-02-05T07:50:41.945Z</time>
      </trkpt>
      <trkpt lat="47.79787" lon="2.13553">
        <ele>120</ele>
        <time>2017-02-05T07:50:42.947Z</time>
      </trkpt>
      <trkpt lat="47.79787" lon="2.13553">
        <ele>120</ele>
        <time>2017-02-05T07:50:43.951Z</time>
      </trkpt>
      <trkpt lat="47.79782" lon="2.13549">
        <ele>121</ele>
        <time>2017-02-05T07:50:44.948Z</time>
      </trkpt>
      <trkpt lat="47.79778" lon="2.13546">
        <ele>122</ele>
        <time>2017-02-05T07:50:45.951Z</time>
      </trkpt>
      <trkpt lat="47.79778" lon="2.13546">
        <ele>122</ele>
        <time>2017-02-05T07:50:46.980Z</time>
      </trkpt>
      <trkpt lat="47.79771" lon="2.13542">
        <ele>122</ele>
        <time>2017-02-05T07:50:47.934Z</time>
      </trkpt>
      <trkpt lat="47.79771" lon="2.13542">
        <ele>122</ele>
        <time>2017-02-05T07:50:48.980Z</time>
      </trkpt>
      <trkpt lat="47.79764" lon="2.13539">
        <ele>122</ele>
        <time>2017-02-05T07:50:49.949Z</time>
      </trkpt>
      <trkpt lat="47.79764" lon="2.13539">
        <ele>122</ele>
        <time>2017-02-05T07:50:50.952Z</time>
      </trkpt>
      <trkpt lat="47.79757" lon="2.13535">
        <ele>123</ele>
        <time>2017-02-05T07:50:51.934Z</time>
      </trkpt>
      <trkpt lat="47.79757" lon="2.13535">
        <ele>123</ele>
        <time>2017-02-05T07:50:52.939Z</time>
      </trkpt>
      <trkpt lat="47.7975" lon="2.13531">
        <ele>123</ele>
        <time>2017-02-05T07:50:53.942Z</time>
      </trkpt>
      <trkpt lat="47.7975" lon="2.13531">
        <ele>123</ele>
        <time>2017-02-05T07:50:54.953Z</time>
      </trkpt>
      <trkpt lat="47.79744" lon="2.13526">
        <ele>123</ele>
        <time>2017-02-05T07:50:55.934Z</time>
      </trkpt>
      <trkpt lat="47.79744" lon="2.13526">
        <ele>123</ele>
        <time>2017-02-05T07:50:56.943Z</time>
      </trkpt>
      <trkpt lat="47.79737" lon="2.13522">
        <ele>123</ele>
        <time>2017-02-05T07:50:57.976Z</time>
      </trkpt>
      <trkpt lat="47.79737" lon="2.13522">
        <ele>123</ele>
        <time>2017-02-05T07:50:58.929Z</time>
      </trkpt>
      <trkpt lat="47.79731" lon="2.13518">
        <ele>123</ele>
        <time>2017-02-05T07:50:59.976Z</time>
      </trkpt>
      <trkpt lat="47.79731" lon="2.13518">
        <ele>123</ele>
        <time>2017-02-05T07:51:00.938Z</time>
      </trkpt>
      <trkpt lat="47.79724" lon="2.13515">
        <ele>123</ele>
        <time>2017-02-05T07:51:01.957Z</time>
      </trkpt>
      <trkpt lat="47.79724" lon="2.13515">
        <ele>123</ele>
        <time>2017-02-05T07:51:02.938Z</time>
      </trkpt>
      <trkpt lat="47.79718" lon="2.13512">
        <ele>123</ele>
        <time>2017-02-05T07:51:03.978Z</time>
      </trkpt>
      <trkpt lat="47.79718" lon="2.13512">
        <ele>123</ele>
        <time>2017-02-05T07:51:04.930Z</time>
      </trkpt>
      <trkpt lat="47.79712" lon="2.13508">
        <ele>123</ele>
        <time>2017-02-05T07:51:05.948Z</time>
      </trkpt>
      <trkpt lat="47.79708" lon="2.13506">
        <ele>123</ele>
        <time>2017-02-05T07:51:06.953Z</time>
      </trkpt>
      <trkpt lat="47.79705" lon="2.13504">
        <ele>124</ele>
        <time>2017-02-05T07:51:07.950Z</time>
      </trkpt>
      <trkpt lat="47.79705" lon="2.13504">
        <ele>124</ele>
        <time>2017-02-05T07:51:08.936Z</time>
      </trkpt>
      <trkpt lat="47.79698" lon="2.13501">
        <ele>124</ele>
        <time>2017-02-05T07:51:09.943Z</time>
      </trkpt>
      <trkpt lat="47.79698" lon="2.13501">
        <ele>124</ele>
        <time>2017-02-05T07:51:10.949Z</time>
      </trkpt>
      <trkpt lat="47.79692" lon="2.13497">
        <ele>124</ele>
        <time>2017-02-05T07:51:11.950Z</time>
      </trkpt>
      <trkpt lat="47.79692" lon="2.13497">
        <ele>124</ele>
        <time>2017-02-05T07:51:12.955Z</time>
      </trkpt>
      <trkpt lat="47.79686" lon="2.13493">
        <ele>124</ele>
        <time>2017-02-05T07:51:13.946Z</time>
      </trkpt>
      <trkpt lat="47.79686" lon="2.13493">
        <ele>124</ele>
        <time>2017-02-05T07:51:14.931Z</time>
      </trkpt>
      <trkpt lat="47.79679" lon="2.1349">
        <ele>125</ele>
        <time>2017-02-05T07:51:15.946Z</time>
      </trkpt>
      <trkpt lat="47.79679" lon="2.1349">
        <ele>125</ele>
        <time>2017-02-05T07:51:16.981Z</time>
      </trkpt>
      <trkpt lat="47.79673" lon="2.13487">
        <ele>125</ele>
        <time>2017-02-05T07:51:17.938Z</time>
      </trkpt>
      <trkpt lat="47.79673" lon="2.13487">
        <ele>125</ele>
        <time>2017-02-05T07:51:18.946Z</time>
      </trkpt>
      <trkpt lat="47.79666" lon="2.13484">
        <ele>125</ele>
        <time>2017-02-05T07:51:19.952Z</time>
      </trkpt>
      <trkpt lat="47.79666" lon="2.13484">
        <ele>125</ele>
        <time>2017-02-05T07:51:20.979Z</time>
      </trkpt>
      <trkpt lat="47.79661" lon="2.1348">
        <ele>126</ele>
        <time>2017-02-05T07:51:21.979Z</time>
      </trkpt>
      <trkpt lat="47.79661" lon="2.1348">
        <ele>126</ele>
        <time>2017-02-05T07:51:22.929Z</time>
      </trkpt>
      <trkpt lat="47.79655" lon="2.13476">
        <ele>126</ele>
        <time>2017-02-05T07:51:23.981Z</time>
      </trkpt>
      <trkpt lat="47.79652" lon="2.13473">
        <ele>126</ele>
        <time>2017-02-05T07:51:24.934Z</time>
      </trkpt>
      <trkpt lat="47.79652" lon="2.13473">
        <ele>126</ele>
        <time>2017-02-05T07:51:25.941Z</time>
      </trkpt>
      <trkpt lat="47.79646" lon="2.1347">
        <ele>126</ele>
        <time>2017-02-05T07:51:26.929Z</time>
      </trkpt>
      <trkpt lat="47.79641" lon="2.13469">
        <ele>126</ele>
        <time>2017-02-05T07:51:27.981Z</time>
      </trkpt>
      <trkpt lat="47.79641" lon="2.13469">
        <ele>126</ele>
        <time>2017-02-05T07:51:28.937Z</time>
      </trkpt>
      <trkpt lat="47.79641" lon="2.13469">
        <ele>126</ele>
        <time>2017-02-05T07:51:29.944Z</time>
      </trkpt>
      <trkpt lat="47.79635" lon="2.13466">
        <ele>126</ele>
        <time>2017-02-05T07:51:30.932Z</time>
      </trkpt>
      <trkpt lat="47.79633" lon="2.13465">
        <ele>126</ele>
        <time>2017-02-05T07:51:31.941Z</time>
      </trkpt>
      <trkpt lat="47.7963" lon="2.13463">
        <ele>126</ele>
        <time>2017-02-05T07:51:32.943Z</time>
      </trkpt>
      <trkpt lat="47.7963" lon="2.13463">
        <ele>126</ele>
        <time>2017-02-05T07:51:33.948Z</time>
      </trkpt>
      <trkpt lat="47.79625" lon="2.13461">
        <ele>126</ele>
        <time>2017-02-05T07:51:34.947Z</time>
      </trkpt>
      <trkpt lat="47.79622" lon="2.13459">
        <ele>126</ele>
        <time>2017-02-05T07:51:35.929Z</time>
      </trkpt>
      <trkpt lat="47.79622" lon="2.13459">
        <ele>126</ele>
        <time>2017-02-05T07:51:36.938Z</time>
      </trkpt>
      <trkpt lat="47.79617" lon="2.13457">
        <ele>126</ele>
        <time>2017-02-05T07:51:37.945Z</time>
      </trkpt>
      <trkpt lat="47.79617" lon="2.13457">
        <ele>126</ele>
        <time>2017-02-05T07:51:38.949Z</time>
      </trkpt>
      <trkpt lat="47.79612" lon="2.13454">
        <ele>126</ele>
        <time>2017-02-05T07:51:39.948Z</time>
      </trkpt>
      <trkpt lat="47.79612" lon="2.13454">
        <ele>126</ele>
        <time>2017-02-05T07:51:40.981Z</time>
      </trkpt>
      <trkpt lat="47.79607" lon="2.13451">
        <ele>126</ele>
        <time>2017-02-05T07:51:41.937Z</time>
      </trkpt>
      <trkpt lat="47.79607" lon="2.13451">
        <ele>126</ele>
        <time>2017-02-05T07:51:42.943Z</time>
      </trkpt>
      <trkpt lat="47.79601" lon="2.13448">
        <ele>126</ele>
        <time>2017-02-05T07:51:43.978Z</time>
      </trkpt>
      <trkpt lat="47.79601" lon="2.13448">
        <ele>126</ele>
        <time>2017-02-05T07:51:44.933Z</time>
      </trkpt>
      <trkpt lat="47.79595" lon="2.13445">
        <ele>126</ele>
        <time>2017-02-05T07:51:45.940Z</time>
      </trkpt>
      <trkpt lat="47.79595" lon="2.13445">
        <ele>126</ele>
        <time>2017-02-05T07:51:46.947Z</time>
      </trkpt>
      <trkpt lat="47.79588" lon="2.13442">
        <ele>126</ele>
        <time>2017-02-05T07:51:47.949Z</time>
      </trkpt>
      <trkpt lat="47.79585" lon="2.13441">
        <ele>126</ele>
        <time>2017-02-05T07:51:48.940Z</time>
      </trkpt>
      <trkpt lat="47.79585" lon="2.13441">
        <ele>126</ele>
        <time>2017-02-05T07:51:49.948Z</time>
      </trkpt>
      <trkpt lat="47.79579" lon="2.13437">
        <ele>126</ele>
        <time>2017-02-05T07:51:50.947Z</time>
      </trkpt>
      <trkpt lat="47.79576" lon="2.13436">
        <ele>126</ele>
        <time>2017-02-05T07:51:51.949Z</time>
      </trkpt>
      <trkpt lat="47.79576" lon="2.13436">
        <ele>126</ele>
        <time>2017-02-05T07:51:52.981Z</time>
      </trkpt>
      <trkpt lat="47.7957" lon="2.13433">
        <ele>126</ele>
        <time>2017-02-05T07:51:53.948Z</time>
      </trkpt>
      <trkpt lat="47.7957" lon="2.13433">
        <ele>126</ele>
        <time>2017-02-05T07:51:54.940Z</time>
      </trkpt>
      <trkpt lat="47.79564" lon="2.1343">
        <ele>127</ele>
        <time>2017-02-05T07:51:55.944Z</time>
      </trkpt>
      <trkpt lat="47.79564" lon="2.1343">
        <ele>127</ele>
        <time>2017-02-05T07:51:56.948Z</time>
      </trkpt>
      <trkpt lat="47.79558" lon="2.13427">
        <ele>127</ele>
        <time>2017-02-05T07:51:57.937Z</time>
      </trkpt>
      <trkpt lat="47.79555" lon="2.13425">
        <ele>127</ele>
        <time>2017-02-05T07:51:58.945Z</time>
      </trkpt>
      <trkpt lat="47.79555" lon="2.13425">
        <ele>127</ele>
        <time>2017-02-05T07:51:59.950Z</time>
      </trkpt>
      <trkpt lat="47.79548" lon="2.13422">
        <ele>126</ele>
        <time>2017-02-05T07:52:00.949Z</time>
      </trkpt>
      <trkpt lat="47.79545" lon="2.1342">
        <ele>126</ele>
        <time>2017-02-05T07:52:01.949Z</time>
      </trkpt>
      <trkpt lat="47.79545" lon="2.1342">
        <ele>126</ele>
        <time>2017-02-05T07:52:02.981Z</time>
      </trkpt>
      <trkpt lat="47.79538" lon="2.13417">
        <ele>127</ele>
        <time>2017-02-05T07:52:03.937Z</time>
      </trkpt>
      <trkpt lat="47.79538" lon="2.13417">
        <ele>127</ele>
        <time>2017-02-05T07:52:04.953Z</time>
      </trkpt>
      <trkpt lat="47.79532" lon="2.13414">
        <ele>127</ele>
        <time>2017-02-05T07:52:05.923Z</time>
      </trkpt>
      <trkpt lat="47.79532" lon="2.13414">
        <ele>127</ele>
        <time>2017-02-05T07:52:06.952Z</time>
      </trkpt>
      <trkpt lat="47.79525" lon="2.1341">
        <ele>127</ele>
        <time>2017-02-05T07:52:07.957Z</time>
      </trkpt>
      <trkpt lat="47.79525" lon="2.1341">
        <ele>127</ele>
        <time>2017-02-05T07:52:08.929Z</time>
      </trkpt>
      <trkpt lat="47.79518" lon="2.13406">
        <ele>126</ele>
        <time>2017-02-05T07:52:09.952Z</time>
      </trkpt>
      <trkpt lat="47.79514" lon="2.13404">
        <ele>126</ele>
        <time>2017-02-05T07:52:10.929Z</time>
      </trkpt>
      <trkpt lat="47.79514" lon="2.13404">
        <ele>126</ele>
        <time>2017-02-05T07:52:11.981Z</time>
      </trkpt>
      <trkpt lat="47.79507" lon="2.13401">
        <ele>126</ele>
        <time>2017-02-05T07:52:12.937Z</time>
      </trkpt>
      <trkpt lat="47.79503" lon="2.13399">
        <ele>126</ele>
        <time>2017-02-05T07:52:13.944Z</time>
      </trkpt>
      <trkpt lat="47.79503" lon="2.13399">
        <ele>126</ele>
        <time>2017-02-05T07:52:14.943Z</time>
      </trkpt>
      <trkpt lat="47.79495" lon="2.13395">
        <ele>126</ele>
        <time>2017-02-05T07:52:15.979Z</time>
      </trkpt>
      <trkpt lat="47.79495" lon="2.13395">
        <ele>126</ele>
        <time>2017-02-05T07:52:16.929Z</time>
      </trkpt>
      <trkpt lat="47.79488" lon="2.13392">
        <ele>126</ele>
        <time>2017-02-05T07:52:17.930Z</time>
      </trkpt>
      <trkpt lat="47.79488" lon="2.13392">
        <ele>126</ele>
        <time>2017-02-05T07:52:18.961Z</time>
      </trkpt>
      <trkpt lat="47.7948" lon="2.13388">
        <ele>126</ele>
        <time>2017-02-05T07:52:19.950Z</time>
      </trkpt>
      <trkpt lat="47.7948" lon="2.13388">
        <ele>126</ele>
        <time>2017-02-05T07:52:20.983Z</time>
      </trkpt>
      <trkpt lat="47.79473" lon="2.13384">
        <ele>126</ele>
        <time>2017-02-05T07:52:21.976Z</time>
      </trkpt>
      <trkpt lat="47.79473" lon="2.13384">
        <ele>126</ele>
        <time>2017-02-05T07:52:22.929Z</time>
      </trkpt>
      <trkpt lat="47.79465" lon="2.1338">
        <ele>125</ele>
        <time>2017-02-05T07:52:23.981Z</time>
      </trkpt>
      <trkpt lat="47.79461" lon="2.13378">
        <ele>126</ele>
        <time>2017-02-05T07:52:24.933Z</time>
      </trkpt>
      <trkpt lat="47.79457" lon="2.13376">
        <ele>126</ele>
        <time>2017-02-05T07:52:25.941Z</time>
      </trkpt>
      <trkpt lat="47.79457" lon="2.13376">
        <ele>126</ele>
        <time>2017-02-05T07:52:26.946Z</time>
      </trkpt>
      <trkpt lat="47.79449" lon="2.13372">
        <ele>126</ele>
        <time>2017-02-05T07:52:27.975Z</time>
      </trkpt>
      <trkpt lat="47.79449" lon="2.13372">
        <ele>126</ele>
        <time>2017-02-05T07:52:28.939Z</time>
      </trkpt>
      <trkpt lat="47.79441" lon="2.13368">
        <ele>127</ele>
        <time>2017-02-05T07:52:29.922Z</time>
      </trkpt>
      <trkpt lat="47.79441" lon="2.13368">
        <ele>127</ele>
        <time>2017-02-05T07:52:30.953Z</time>
      </trkpt>
      <trkpt lat="47.79433" lon="2.13364">
        <ele>127</ele>
        <time>2017-02-05T07:52:31.933Z</time>
      </trkpt>
      <trkpt lat="47.79433" lon="2.13364">
        <ele>127</ele>
        <time>2017-02-05T07:52:32.937Z</time>
      </trkpt>
      <trkpt lat="47.79425" lon="2.1336">
        <ele>127</ele>
        <time>2017-02-05T07:52:33.954Z</time>
      </trkpt>
      <trkpt lat="47.79425" lon="2.1336">
        <ele>127</ele>
        <time>2017-02-05T07:52:34.932Z</time>
      </trkpt>
      <trkpt lat="47.79418" lon="2.13356">
        <ele>127</ele>
        <time>2017-02-05T07:52:35.941Z</time>
      </trkpt>
      <trkpt lat="47.79414" lon="2.13353">
        <ele>127</ele>
        <time>2017-02-05T07:52:36.935Z</time>
      </trkpt>
      <trkpt lat="47.79414" lon="2.13353">
        <ele>127</ele>
        <time>2017-02-05T07:52:37.941Z</time>
      </trkpt>
      <trkpt lat="47.79406" lon="2.13349">
        <ele>127</ele>
        <time>2017-02-05T07:52:38.957Z</time>
      </trkpt>
      <trkpt lat="47.79402" lon="2.13347">
        <ele>127</ele>
        <time>2017-02-05T07:52:39.934Z</time>
      </trkpt>
      <trkpt lat="47.79402" lon="2.13347">
        <ele>127</ele>
        <time>2017-02-05T07:52:40.939Z</time>
      </trkpt>
      <trkpt lat="47.79393" lon="2.13344">
        <ele>127</ele>
        <time>2017-02-05T07:52:41.944Z</time>
      </trkpt>
      <trkpt lat="47.79393" lon="2.13344">
        <ele>127</ele>
        <time>2017-02-05T07:52:42.947Z</time>
      </trkpt>
      <trkpt lat="47.79384" lon="2.1334">
        <ele>128</ele>
        <time>2017-02-05T07:52:43.976Z</time>
      </trkpt>
      <trkpt lat="47.79384" lon="2.1334">
        <ele>128</ele>
        <time>2017-02-05T07:52:44.929Z</time>
      </trkpt>
      <trkpt lat="47.79376" lon="2.13335">
        <ele>129</ele>
        <time>2017-02-05T07:52:45.950Z</time>
      </trkpt>
      <trkpt lat="47.79372" lon="2.13333">
        <ele>129</ele>
        <time>2017-02-05T07:52:46.929Z</time>
      </trkpt>
      <trkpt lat="47.79372" lon="2.13333">
        <ele>129</ele>
        <time>2017-02-05T07:52:47.981Z</time>
      </trkpt>
      <trkpt lat="47.79363" lon="2.1333">
        <ele>129</ele>
        <time>2017-02-05T07:52:48.937Z</time>
      </trkpt>
      <trkpt lat="47.79359" lon="2.13328">
        <ele>129</ele>
        <time>2017-02-05T07:52:49.947Z</time>
      </trkpt>
      <trkpt lat="47.79359" lon="2.13328">
        <ele>129</ele>
        <time>2017-02-05T07:52:50.982Z</time>
      </trkpt>
      <trkpt lat="47.79351" lon="2.13323">
        <ele>129</ele>
        <time>2017-02-05T07:52:51.924Z</time>
      </trkpt>
      <trkpt lat="47.79351" lon="2.13323">
        <ele>129</ele>
        <time>2017-02-05T07:52:52.954Z</time>
      </trkpt>
      <trkpt lat="47.79342" lon="2.13318">
        <ele>128</ele>
        <time>2017-02-05T07:52:53.950Z</time>
      </trkpt>
      <trkpt lat="47.79342" lon="2.13318">
        <ele>128</ele>
        <time>2017-02-05T07:52:54.932Z</time>
      </trkpt>
      <trkpt lat="47.79333" lon="2.13313">
        <ele>128</ele>
        <time>2017-02-05T07:52:55.979Z</time>
      </trkpt>
      <trkpt lat="47.79333" lon="2.13313">
        <ele>128</ele>
        <time>2017-02-05T07:52:56.929Z</time>
      </trkpt>
      <trkpt lat="47.79319" lon="2.13306">
        <ele>128</ele>
        <time>2017-02-05T07:52:58.047Z</time>
      </trkpt>
      <trkpt lat="47.79319" lon="2.13306">
        <ele>128</ele>
        <time>2017-02-05T07:52:58.930Z</time>
      </trkpt>
      <trkpt lat="47.79319" lon="2.13306">
        <ele>128</ele>
        <time>2017-02-05T07:52:59.936Z</time>
      </trkpt>
      <trkpt lat="47.7931" lon="2.13302">
        <ele>128</ele>
        <time>2017-02-05T07:53:00.938Z</time>
      </trkpt>
      <trkpt lat="47.79305" lon="2.13299">
        <ele>128</ele>
        <time>2017-02-05T07:53:01.954Z</time>
      </trkpt>
      <trkpt lat="47.79305" lon="2.13299">
        <ele>128</ele>
        <time>2017-02-05T07:53:02.930Z</time>
      </trkpt>
      <trkpt lat="47.79296" lon="2.13295">
        <ele>128</ele>
        <time>2017-02-05T07:53:03.952Z</time>
      </trkpt>
      <trkpt lat="47.79291" lon="2.13292">
        <ele>129</ele>
        <time>2017-02-05T07:53:04.942Z</time>
      </trkpt>
      <trkpt lat="47.79287" lon="2.1329">
        <ele>129</ele>
        <time>2017-02-05T07:53:05.957Z</time>
      </trkpt>
      <trkpt lat="47.79287" lon="2.1329">
        <ele>129</ele>
        <time>2017-02-05T07:53:06.929Z</time>
      </trkpt>
      <trkpt lat="47.79278" lon="2.13286">
        <ele>130</ele>
        <time>2017-02-05T07:53:07.936Z</time>
      </trkpt>
      <trkpt lat="47.79273" lon="2.13284">
        <ele>130</ele>
        <time>2017-02-05T07:53:08.952Z</time>
      </trkpt>
      <trkpt lat="47.79269" lon="2.13281">
        <ele>130</ele>
        <time>2017-02-05T07:53:09.943Z</time>
      </trkpt>
      <trkpt lat="47.79269" lon="2.13281">
        <ele>130</ele>
        <time>2017-02-05T07:53:10.946Z</time>
      </trkpt>
      <trkpt lat="47.7926" lon="2.13277">
        <ele>131</ele>
        <time>2017-02-05T07:53:11.930Z</time>
      </trkpt>
      <trkpt lat="47.7926" lon="2.13277">
        <ele>131</ele>
        <time>2017-02-05T07:53:12.983Z</time>
      </trkpt>
      <trkpt lat="47.79251" lon="2.13273">
        <ele>131</ele>
        <time>2017-02-05T07:53:13.957Z</time>
      </trkpt>
      <trkpt lat="47.79251" lon="2.13273">
        <ele>131</ele>
        <time>2017-02-05T07:53:14.938Z</time>
      </trkpt>
      <trkpt lat="47.79242" lon="2.1327">
        <ele>130</ele>
        <time>2017-02-05T07:53:15.941Z</time>
      </trkpt>
      <trkpt lat="47.79242" lon="2.1327">
        <ele>130</ele>
        <time>2017-02-05T07:53:16.947Z</time>
      </trkpt>
      <trkpt lat="47.79233" lon="2.13267">
        <ele>130</ele>
        <time>2017-02-05T07:53:17.930Z</time>
      </trkpt>
      <trkpt lat="47.79233" lon="2.13267">
        <ele>130</ele>
        <time>2017-02-05T07:53:18.980Z</time>
      </trkpt>
      <trkpt lat="47.79224" lon="2.13263">
        <ele>129</ele>
        <time>2017-02-05T07:53:19.938Z</time>
      </trkpt>
      <trkpt lat="47.79224" lon="2.13263">
        <ele>129</ele>
        <time>2017-02-05T07:53:20.945Z</time>
      </trkpt>
      <trkpt lat="47.79214" lon="2.1326">
        <ele>128</ele>
        <time>2017-02-05T07:53:21.976Z</time>
      </trkpt>
      <trkpt lat="47.79214" lon="2.1326">
        <ele>128</ele>
        <time>2017-02-05T07:53:22.939Z</time>
      </trkpt>
      <trkpt lat="47.79205" lon="2.13258">
        <ele>128</ele>
        <time>2017-02-05T07:53:23.956Z</time>
      </trkpt>
      <trkpt lat="47.79205" lon="2.13258">
        <ele>128</ele>
        <time>2017-02-05T07:53:24.934Z</time>
      </trkpt>
      <trkpt lat="47.79196" lon="2.13256">
        <ele>127</ele>
        <time>2017-02-05T07:53:25.940Z</time>
      </trkpt>
      <trkpt lat="47.79196" lon="2.13256">
        <ele>127</ele>
        <time>2017-02-05T07:53:26.945Z</time>
      </trkpt>
      <trkpt lat="47.79186" lon="2.13254">
        <ele>127</ele>
        <time>2017-02-05T07:53:27.978Z</time>
      </trkpt>
      <trkpt lat="47.79186" lon="2.13254">
        <ele>127</ele>
        <time>2017-02-05T07:53:28.943Z</time>
      </trkpt>
      <trkpt lat="47.79177" lon="2.13253">
        <ele>127</ele>
        <time>2017-02-05T07:53:29.945Z</time>
      </trkpt>
      <trkpt lat="47.79177" lon="2.13253">
        <ele>127</ele>
        <time>2017-02-05T07:53:30.956Z</time>
      </trkpt>
      <trkpt lat="47.79167" lon="2.13251">
        <ele>126</ele>
        <time>2017-02-05T07:53:31.954Z</time>
      </trkpt>
      <trkpt lat="47.79167" lon="2.13251">
        <ele>126</ele>
        <time>2017-02-05T07:53:32.924Z</time>
      </trkpt>
      <trkpt lat="47.79158" lon="2.1325">
        <ele>126</ele>
        <time>2017-02-05T07:53:33.954Z</time>
      </trkpt>
      <trkpt lat="47.79153" lon="2.1325">
        <ele>126</ele>
        <time>2017-02-05T07:53:34.948Z</time>
      </trkpt>
      <trkpt lat="47.79153" lon="2.1325">
        <ele>126</ele>
        <time>2017-02-05T07:53:35.957Z</time>
      </trkpt>
      <trkpt lat="47.79143" lon="2.13249">
        <ele>126</ele>
        <time>2017-02-05T07:53:36.954Z</time>
      </trkpt>
      <trkpt lat="47.79138" lon="2.13249">
        <ele>126</ele>
        <time>2017-02-05T07:53:37.930Z</time>
      </trkpt>
      <trkpt lat="47.79138" lon="2.13249">
        <ele>126</ele>
        <time>2017-02-05T07:53:38.982Z</time>
      </trkpt>
      <trkpt lat="47.79129" lon="2.13249">
        <ele>126</ele>
        <time>2017-02-05T07:53:39.961Z</time>
      </trkpt>
      <trkpt lat="47.79125" lon="2.13249">
        <ele>126</ele>
        <time>2017-02-05T07:53:40.978Z</time>
      </trkpt>
      <trkpt lat="47.79125" lon="2.13249">
        <ele>126</ele>
        <time>2017-02-05T07:53:41.922Z</time>
      </trkpt>
      <trkpt lat="47.79115" lon="2.13248">
        <ele>125</ele>
        <time>2017-02-05T07:53:42.954Z</time>
      </trkpt>
      <trkpt lat="47.79111" lon="2.13248">
        <ele>125</ele>
        <time>2017-02-05T07:53:43.951Z</time>
      </trkpt>
      <trkpt lat="47.79111" lon="2.13248">
        <ele>125</ele>
        <time>2017-02-05T07:53:44.933Z</time>
      </trkpt>
      <trkpt lat="47.79101" lon="2.13248">
        <ele>125</ele>
        <time>2017-02-05T07:53:45.941Z</time>
      </trkpt>
      <trkpt lat="47.79101" lon="2.13248">
        <ele>125</ele>
        <time>2017-02-05T07:53:46.945Z</time>
      </trkpt>
      <trkpt lat="47.79091" lon="2.13248">
        <ele>125</ele>
        <time>2017-02-05T07:53:47.947Z</time>
      </trkpt>
      <trkpt lat="47.79086" lon="2.13248">
        <ele>124</ele>
        <time>2017-02-05T07:53:48.932Z</time>
      </trkpt>
      <trkpt lat="47.79086" lon="2.13248">
        <ele>124</ele>
        <time>2017-02-05T07:53:49.939Z</time>
      </trkpt>
      <trkpt lat="47.79077" lon="2.13248">
        <ele>124</ele>
        <time>2017-02-05T07:53:50.950Z</time>
      </trkpt>
      <trkpt lat="47.79072" lon="2.13248">
        <ele>124</ele>
        <time>2017-02-05T07:53:51.950Z</time>
      </trkpt>
      <trkpt lat="47.79062" lon="2.13248">
        <ele>123</ele>
        <time>2017-02-05T07:53:52.981Z</time>
      </trkpt>
      <trkpt lat="47.79062" lon="2.13248">
        <ele>123</ele>
        <time>2017-02-05T07:53:53.936Z</time>
      </trkpt>
      <trkpt lat="47.79062" lon="2.13248">
        <ele>123</ele>
        <time>2017-02-05T07:53:54.948Z</time>
      </trkpt>
      <trkpt lat="47.79052" lon="2.13248">
        <ele>123</ele>
        <time>2017-02-05T07:53:55.979Z</time>
      </trkpt>
      <trkpt lat="47.79052" lon="2.13248">
        <ele>123</ele>
        <time>2017-02-05T07:53:56.938Z</time>
      </trkpt>
      <trkpt lat="47.79042" lon="2.13248">
        <ele>123</ele>
        <time>2017-02-05T07:53:57.946Z</time>
      </trkpt>
      <trkpt lat="47.79042" lon="2.13248">
        <ele>123</ele>
        <time>2017-02-05T07:53:58.948Z</time>
      </trkpt>
      <trkpt lat="47.79031" lon="2.13249">
        <ele>122</ele>
        <time>2017-02-05T07:53:59.923Z</time>
      </trkpt>
      <trkpt lat="47.79031" lon="2.13249">
        <ele>122</ele>
        <time>2017-02-05T07:54:00.954Z</time>
      </trkpt>
      <trkpt lat="47.7902" lon="2.13249">
        <ele>122</ele>
        <time>2017-02-05T07:54:01.953Z</time>
      </trkpt>
      <trkpt lat="47.79015" lon="2.13249">
        <ele>122</ele>
        <time>2017-02-05T07:54:02.938Z</time>
      </trkpt>
      <trkpt lat="47.79015" lon="2.13249">
        <ele>122</ele>
        <time>2017-02-05T07:54:03.944Z</time>
      </trkpt>
      <trkpt lat="47.79004" lon="2.13249">
        <ele>122</ele>
        <time>2017-02-05T07:54:04.951Z</time>
      </trkpt>
      <trkpt lat="47.79004" lon="2.13249">
        <ele>122</ele>
        <time>2017-02-05T07:54:05.958Z</time>
      </trkpt>
      <trkpt lat="47.78993" lon="2.13249">
        <ele>122</ele>
        <time>2017-02-05T07:54:06.938Z</time>
      </trkpt>
      <trkpt lat="47.78988" lon="2.13249">
        <ele>122</ele>
        <time>2017-02-05T07:54:07.938Z</time>
      </trkpt>
      <trkpt lat="47.78988" lon="2.13249">
        <ele>122</ele>
        <time>2017-02-05T07:54:08.945Z</time>
      </trkpt>
      <trkpt lat="47.78977" lon="2.1325">
        <ele>123</ele>
        <time>2017-02-05T07:54:09.958Z</time>
      </trkpt>
      <trkpt lat="47.78972" lon="2.1325">
        <ele>123</ele>
        <time>2017-02-05T07:54:10.922Z</time>
      </trkpt>
      <trkpt lat="47.78972" lon="2.1325">
        <ele>123</ele>
        <time>2017-02-05T07:54:11.951Z</time>
      </trkpt>
      <trkpt lat="47.78961" lon="2.1325">
        <ele>124</ele>
        <time>2017-02-05T07:54:12.931Z</time>
      </trkpt>
      <trkpt lat="47.78956" lon="2.1325">
        <ele>124</ele>
        <time>2017-02-05T07:54:13.979Z</time>
      </trkpt>
      <trkpt lat="47.78956" lon="2.1325">
        <ele>124</ele>
        <time>2017-02-05T07:54:14.944Z</time>
      </trkpt>
      <trkpt lat="47.78946" lon="2.1325">
        <ele>124</ele>
        <time>2017-02-05T07:54:15.957Z</time>
      </trkpt>
      <trkpt lat="47.78946" lon="2.1325">
        <ele>124</ele>
        <time>2017-02-05T07:54:16.954Z</time>
      </trkpt>
      <trkpt lat="47.78936" lon="2.1325">
        <ele>124</ele>
        <time>2017-02-05T07:54:17.951Z</time>
      </trkpt>
      <trkpt lat="47.78936" lon="2.1325">
        <ele>124</ele>
        <time>2017-02-05T07:54:18.944Z</time>
      </trkpt>
      <trkpt lat="47.78925" lon="2.1325">
        <ele>124</ele>
        <time>2017-02-05T07:54:19.945Z</time>
      </trkpt>
      <trkpt lat="47.78925" lon="2.1325">
        <ele>124</ele>
        <time>2017-02-05T07:54:20.948Z</time>
      </trkpt>
      <trkpt lat="47.78915" lon="2.1325">
        <ele>124</ele>
        <time>2017-02-05T07:54:21.953Z</time>
      </trkpt>
      <trkpt lat="47.78915" lon="2.1325">
        <ele>124</ele>
        <time>2017-02-05T07:54:22.923Z</time>
      </trkpt>
      <trkpt lat="47.78905" lon="2.1325">
        <ele>123</ele>
        <time>2017-02-05T07:54:23.955Z</time>
      </trkpt>
      <trkpt lat="47.78905" lon="2.1325">
        <ele>123</ele>
        <time>2017-02-05T07:54:24.924Z</time>
      </trkpt>
      <trkpt lat="47.78895" lon="2.1325">
        <ele>123</ele>
        <time>2017-02-05T07:54:25.954Z</time>
      </trkpt>
      <trkpt lat="47.7889" lon="2.1325">
        <ele>123</ele>
        <time>2017-02-05T07:54:26.946Z</time>
      </trkpt>
      <trkpt lat="47.7889" lon="2.1325">
        <ele>123</ele>
        <time>2017-02-05T07:54:27.949Z</time>
      </trkpt>
      <trkpt lat="47.78881" lon="2.1325">
        <ele>123</ele>
        <time>2017-02-05T07:54:28.949Z</time>
      </trkpt>
      <trkpt lat="47.78881" lon="2.1325">
        <ele>123</ele>
        <time>2017-02-05T07:54:29.962Z</time>
      </trkpt>
      <trkpt lat="47.78871" lon="2.1325">
        <ele>123</ele>
        <time>2017-02-05T07:54:30.980Z</time>
      </trkpt>
      <trkpt lat="47.78871" lon="2.1325">
        <ele>123</ele>
        <time>2017-02-05T07:54:31.930Z</time>
      </trkpt>
      <trkpt lat="47.78862" lon="2.1325">
        <ele>124</ele>
        <time>2017-02-05T07:54:32.982Z</time>
      </trkpt>
      <trkpt lat="47.78857" lon="2.13251">
        <ele>124</ele>
        <time>2017-02-05T07:54:33.933Z</time>
      </trkpt>
      <trkpt lat="47.78857" lon="2.13251">
        <ele>124</ele>
        <time>2017-02-05T07:54:34.938Z</time>
      </trkpt>
      <trkpt lat="47.78848" lon="2.1325">
        <ele>125</ele>
        <time>2017-02-05T07:54:35.944Z</time>
      </trkpt>
      <trkpt lat="47.78843" lon="2.1325">
        <ele>125</ele>
        <time>2017-02-05T07:54:36.958Z</time>
      </trkpt>
      <trkpt lat="47.78843" lon="2.1325">
        <ele>125</ele>
        <time>2017-02-05T07:54:37.937Z</time>
      </trkpt>
      <trkpt lat="47.78834" lon="2.13251">
        <ele>125</ele>
        <time>2017-02-05T07:54:38.982Z</time>
      </trkpt>
      <trkpt lat="47.78829" lon="2.13251">
        <ele>125</ele>
        <time>2017-02-05T07:54:39.934Z</time>
      </trkpt>
      <trkpt lat="47.78829" lon="2.13251">
        <ele>125</ele>
        <time>2017-02-05T07:54:40.937Z</time>
      </trkpt>
      <trkpt lat="47.7882" lon="2.13251">
        <ele>125</ele>
        <time>2017-02-05T07:54:41.950Z</time>
      </trkpt>
      <trkpt lat="47.7882" lon="2.13251">
        <ele>125</ele>
        <time>2017-02-05T07:54:42.958Z</time>
      </trkpt>
      <trkpt lat="47.78811" lon="2.13251">
        <ele>125</ele>
        <time>2017-02-05T07:54:43.938Z</time>
      </trkpt>
      <trkpt lat="47.78811" lon="2.13251">
        <ele>125</ele>
        <time>2017-02-05T07:54:44.943Z</time>
      </trkpt>
      <trkpt lat="47.78802" lon="2.13251">
        <ele>125</ele>
        <time>2017-02-05T07:54:45.955Z</time>
      </trkpt>
      <trkpt lat="47.78802" lon="2.13251">
        <ele>125</ele>
        <time>2017-02-05T07:54:46.930Z</time>
      </trkpt>
      <trkpt lat="47.78792" lon="2.13251">
        <ele>125</ele>
        <time>2017-02-05T07:54:47.954Z</time>
      </trkpt>
      <trkpt lat="47.78792" lon="2.13251">
        <ele>125</ele>
        <time>2017-02-05T07:54:48.922Z</time>
      </trkpt>
      <trkpt lat="47.78783" lon="2.13251">
        <ele>126</ele>
        <time>2017-02-05T07:54:49.955Z</time>
      </trkpt>
      <trkpt lat="47.78783" lon="2.13251">
        <ele>126</ele>
        <time>2017-02-05T07:54:50.936Z</time>
      </trkpt>
      <trkpt lat="47.78774" lon="2.13251">
        <ele>126</ele>
        <time>2017-02-05T07:54:51.943Z</time>
      </trkpt>
      <trkpt lat="47.78774" lon="2.13251">
        <ele>126</ele>
        <time>2017-02-05T07:54:52.947Z</time>
      </trkpt>
      <trkpt lat="47.78764" lon="2.13251">
        <ele>126</ele>
        <time>2017-02-05T07:54:53.956Z</time>
      </trkpt>
      <trkpt lat="47.78764" lon="2.13251">
        <ele>126</ele>
        <time>2017-02-05T07:54:54.933Z</time>
      </trkpt>
      <trkpt lat="47.78755" lon="2.13251">
        <ele>126</ele>
        <time>2017-02-05T07:54:55.953Z</time>
      </trkpt>
      <trkpt lat="47.78755" lon="2.13251">
        <ele>126</ele>
        <time>2017-02-05T07:54:56.935Z</time>
      </trkpt>
      <trkpt lat="47.78746" lon="2.13251">
        <ele>126</ele>
        <time>2017-02-05T07:54:57.942Z</time>
      </trkpt>
      <trkpt lat="47.78746" lon="2.13251">
        <ele>126</ele>
        <time>2017-02-05T07:54:58.946Z</time>
      </trkpt>
      <trkpt lat="47.78736" lon="2.13251">
        <ele>127</ele>
        <time>2017-02-05T07:54:59.950Z</time>
      </trkpt>
      <trkpt lat="47.78731" lon="2.13251">
        <ele>127</ele>
        <time>2017-02-05T07:55:00.957Z</time>
      </trkpt>
      <trkpt lat="47.78726" lon="2.13251">
        <ele>127</ele>
        <time>2017-02-05T07:55:01.922Z</time>
      </trkpt>
      <trkpt lat="47.78726" lon="2.13251">
        <ele>127</ele>
        <time>2017-02-05T07:55:02.953Z</time>
      </trkpt>
      <trkpt lat="47.78717" lon="2.13251">
        <ele>127</ele>
        <time>2017-02-05T07:55:03.958Z</time>
      </trkpt>
      <trkpt lat="47.78717" lon="2.13251">
        <ele>127</ele>
        <time>2017-02-05T07:55:04.933Z</time>
      </trkpt>
      <trkpt lat="47.78707" lon="2.1325">
        <ele>127</ele>
        <time>2017-02-05T07:55:05.923Z</time>
      </trkpt>
      <trkpt lat="47.78707" lon="2.1325">
        <ele>127</ele>
        <time>2017-02-05T07:55:06.953Z</time>
      </trkpt>
      <trkpt lat="47.78697" lon="2.1325">
        <ele>127</ele>
        <time>2017-02-05T07:55:07.938Z</time>
      </trkpt>
      <trkpt lat="47.78697" lon="2.1325">
        <ele>127</ele>
        <time>2017-02-05T07:55:08.945Z</time>
      </trkpt>
      <trkpt lat="47.78688" lon="2.13251">
        <ele>127</ele>
        <time>2017-02-05T07:55:09.944Z</time>
      </trkpt>
      <trkpt lat="47.78688" lon="2.13251">
        <ele>127</ele>
        <time>2017-02-05T07:55:10.951Z</time>
      </trkpt>
      <trkpt lat="47.78678" lon="2.13251">
        <ele>127</ele>
        <time>2017-02-05T07:55:11.930Z</time>
      </trkpt>
      <trkpt lat="47.78678" lon="2.13251">
        <ele>127</ele>
        <time>2017-02-05T07:55:12.959Z</time>
      </trkpt>
      <trkpt lat="47.78669" lon="2.13251">
        <ele>127</ele>
        <time>2017-02-05T07:55:13.978Z</time>
      </trkpt>
      <trkpt lat="47.78669" lon="2.13251">
        <ele>127</ele>
        <time>2017-02-05T07:55:14.937Z</time>
      </trkpt>
      <trkpt lat="47.78659" lon="2.13251">
        <ele>127</ele>
        <time>2017-02-05T07:55:15.944Z</time>
      </trkpt>
      <trkpt lat="47.78659" lon="2.13251">
        <ele>127</ele>
        <time>2017-02-05T07:55:16.948Z</time>
      </trkpt>
      <trkpt lat="47.7865" lon="2.13251">
        <ele>127</ele>
        <time>2017-02-05T07:55:17.931Z</time>
      </trkpt>
      <trkpt lat="47.7865" lon="2.13251">
        <ele>127</ele>
        <time>2017-02-05T07:55:18.983Z</time>
      </trkpt>
      <trkpt lat="47.7864" lon="2.13251">
        <ele>128</ele>
        <time>2017-02-05T07:55:19.977Z</time>
      </trkpt>
      <trkpt lat="47.7864" lon="2.13251">
        <ele>128</ele>
        <time>2017-02-05T07:55:20.939Z</time>
      </trkpt>
      <trkpt lat="47.78631" lon="2.13251">
        <ele>128</ele>
        <time>2017-02-05T07:55:21.951Z</time>
      </trkpt>
      <trkpt lat="47.78631" lon="2.13251">
        <ele>128</ele>
        <time>2017-02-05T07:55:22.924Z</time>
      </trkpt>
      <trkpt lat="47.78621" lon="2.13251">
        <ele>128</ele>
        <time>2017-02-05T07:55:23.977Z</time>
      </trkpt>
      <trkpt lat="47.78621" lon="2.13251">
        <ele>128</ele>
        <time>2017-02-05T07:55:24.933Z</time>
      </trkpt>
      <trkpt lat="47.78612" lon="2.1325">
        <ele>128</ele>
        <time>2017-02-05T07:55:25.925Z</time>
      </trkpt>
      <trkpt lat="47.78612" lon="2.1325">
        <ele>128</ele>
        <time>2017-02-05T07:55:26.954Z</time>
      </trkpt>
      <trkpt lat="47.78602" lon="2.13249">
        <ele>128</ele>
        <time>2017-02-05T07:55:27.950Z</time>
      </trkpt>
      <trkpt lat="47.78598" lon="2.13249">
        <ele>128</ele>
        <time>2017-02-05T07:55:28.931Z</time>
      </trkpt>
      <trkpt lat="47.78598" lon="2.13249">
        <ele>128</ele>
        <time>2017-02-05T07:55:29.962Z</time>
      </trkpt>
      <trkpt lat="47.78588" lon="2.13248">
        <ele>128</ele>
        <time>2017-02-05T07:55:30.959Z</time>
      </trkpt>
      <trkpt lat="47.78588" lon="2.13248">
        <ele>128</ele>
        <time>2017-02-05T07:55:31.953Z</time>
      </trkpt>
      <trkpt lat="47.78579" lon="2.13246">
        <ele>129</ele>
        <time>2017-02-05T07:55:32.945Z</time>
      </trkpt>
      <trkpt lat="47.78575" lon="2.13245">
        <ele>129</ele>
        <time>2017-02-05T07:55:33.947Z</time>
      </trkpt>
      <trkpt lat="47.78575" lon="2.13245">
        <ele>129</ele>
        <time>2017-02-05T07:55:34.958Z</time>
      </trkpt>
      <trkpt lat="47.78566" lon="2.13244">
        <ele>128</ele>
        <time>2017-02-05T07:55:35.956Z</time>
      </trkpt>
      <trkpt lat="47.78566" lon="2.13244">
        <ele>128</ele>
        <time>2017-02-05T07:55:36.925Z</time>
      </trkpt>
      <trkpt lat="47.78557" lon="2.13243">
        <ele>129</ele>
        <time>2017-02-05T07:55:37.980Z</time>
      </trkpt>
      <trkpt lat="47.78557" lon="2.13243">
        <ele>129</ele>
        <time>2017-02-05T07:55:38.930Z</time>
      </trkpt>
      <trkpt lat="47.78548" lon="2.13241">
        <ele>129</ele>
        <time>2017-02-05T07:55:39.934Z</time>
      </trkpt>
      <trkpt lat="47.78543" lon="2.1324">
        <ele>129</ele>
        <time>2017-02-05T07:55:40.941Z</time>
      </trkpt>
      <trkpt lat="47.78539" lon="2.13239">
        <ele>129</ele>
        <time>2017-02-05T07:55:41.932Z</time>
      </trkpt>
      <trkpt lat="47.78539" lon="2.13239">
        <ele>129</ele>
        <time>2017-02-05T07:55:42.939Z</time>
      </trkpt>
      <trkpt lat="47.78531" lon="2.13238">
        <ele>129</ele>
        <time>2017-02-05T07:55:43.948Z</time>
      </trkpt>
      <trkpt lat="47.78531" lon="2.13238">
        <ele>129</ele>
        <time>2017-02-05T07:55:44.933Z</time>
      </trkpt>
      <trkpt lat="47.78522" lon="2.13236">
        <ele>130</ele>
        <time>2017-02-05T07:55:45.942Z</time>
      </trkpt>
      <trkpt lat="47.78522" lon="2.13236">
        <ele>130</ele>
        <time>2017-02-05T07:55:46.948Z</time>
      </trkpt>
      <trkpt lat="47.78513" lon="2.13235">
        <ele>130</ele>
        <time>2017-02-05T07:55:47.954Z</time>
      </trkpt>
      <trkpt lat="47.78508" lon="2.13235">
        <ele>130</ele>
        <time>2017-02-05T07:55:48.957Z</time>
      </trkpt>
      <trkpt lat="47.78508" lon="2.13235">
        <ele>130</ele>
        <time>2017-02-05T07:55:49.926Z</time>
      </trkpt>
      <trkpt lat="47.78499" lon="2.13233">
        <ele>130</ele>
        <time>2017-02-05T07:55:50.934Z</time>
      </trkpt>
      <trkpt lat="47.78495" lon="2.13232">
        <ele>130</ele>
        <time>2017-02-05T07:55:51.941Z</time>
      </trkpt>
      <trkpt lat="47.78495" lon="2.13232">
        <ele>130</ele>
        <time>2017-02-05T07:55:52.946Z</time>
      </trkpt>
      <trkpt lat="47.78486" lon="2.13231">
        <ele>131</ele>
        <time>2017-02-05T07:55:53.949Z</time>
      </trkpt>
      <trkpt lat="47.78482" lon="2.1323">
        <ele>131</ele>
        <time>2017-02-05T07:55:54.931Z</time>
      </trkpt>
      <trkpt lat="47.78482" lon="2.1323">
        <ele>131</ele>
        <time>2017-02-05T07:55:55.982Z</time>
      </trkpt>
      <trkpt lat="47.78473" lon="2.13229">
        <ele>131</ele>
        <time>2017-02-05T07:55:56.957Z</time>
      </trkpt>
      <trkpt lat="47.78473" lon="2.13229">
        <ele>131</ele>
        <time>2017-02-05T07:55:57.926Z</time>
      </trkpt>
      <trkpt lat="47.78465" lon="2.13228">
        <ele>131</ele>
        <time>2017-02-05T07:55:58.977Z</time>
      </trkpt>
      <trkpt lat="47.78465" lon="2.13228">
        <ele>131</ele>
        <time>2017-02-05T07:55:59.930Z</time>
      </trkpt>
      <trkpt lat="47.78456" lon="2.13227">
        <ele>132</ele>
        <time>2017-02-05T07:56:00.937Z</time>
      </trkpt>
      <trkpt lat="47.78452" lon="2.13226">
        <ele>132</ele>
        <time>2017-02-05T07:56:01.950Z</time>
      </trkpt>
      <trkpt lat="47.78452" lon="2.13226">
        <ele>132</ele>
        <time>2017-02-05T07:56:02.982Z</time>
      </trkpt>
      <trkpt lat="47.78444" lon="2.13225">
        <ele>132</ele>
        <time>2017-02-05T07:56:03.958Z</time>
      </trkpt>
      <trkpt lat="47.7844" lon="2.13224">
        <ele>132</ele>
        <time>2017-02-05T07:56:04.932Z</time>
      </trkpt>
      <trkpt lat="47.7844" lon="2.13224">
        <ele>132</ele>
        <time>2017-02-05T07:56:05.943Z</time>
      </trkpt>
      <trkpt lat="47.78431" lon="2.13223">
        <ele>132</ele>
        <time>2017-02-05T07:56:06.959Z</time>
      </trkpt>
      <trkpt lat="47.78427" lon="2.13222">
        <ele>132</ele>
        <time>2017-02-05T07:56:07.924Z</time>
      </trkpt>
      <trkpt lat="47.78427" lon="2.13222">
        <ele>132</ele>
        <time>2017-02-05T07:56:08.954Z</time>
      </trkpt>
      <trkpt lat="47.78419" lon="2.13221">
        <ele>133</ele>
        <time>2017-02-05T07:56:09.954Z</time>
      </trkpt>
      <trkpt lat="47.78419" lon="2.13221">
        <ele>133</ele>
        <time>2017-02-05T07:56:10.922Z</time>
      </trkpt>
      <trkpt lat="47.7841" lon="2.1322">
        <ele>133</ele>
        <time>2017-02-05T07:56:11.954Z</time>
      </trkpt>
      <trkpt lat="47.78406" lon="2.13219">
        <ele>133</ele>
        <time>2017-02-05T07:56:12.944Z</time>
      </trkpt>
      <trkpt lat="47.78402" lon="2.13218">
        <ele>133</ele>
        <time>2017-02-05T07:56:13.949Z</time>
      </trkpt>
      <trkpt lat="47.78402" lon="2.13218">
        <ele>133</ele>
        <time>2017-02-05T07:56:14.983Z</time>
      </trkpt>
      <trkpt lat="47.78393" lon="2.13217">
        <ele>133</ele>
        <time>2017-02-05T07:56:15.958Z</time>
      </trkpt>
      <trkpt lat="47.78393" lon="2.13217">
        <ele>133</ele>
        <time>2017-02-05T07:56:16.931Z</time>
      </trkpt>
      <trkpt lat="47.78385" lon="2.13215">
        <ele>133</ele>
        <time>2017-02-05T07:56:17.982Z</time>
      </trkpt>
      <trkpt lat="47.7838" lon="2.13215">
        <ele>134</ele>
        <time>2017-02-05T07:56:18.940Z</time>
      </trkpt>
      <trkpt lat="47.78376" lon="2.13214">
        <ele>133</ele>
        <time>2017-02-05T07:56:19.946Z</time>
      </trkpt>
      <trkpt lat="47.78376" lon="2.13214">
        <ele>133</ele>
        <time>2017-02-05T07:56:20.956Z</time>
      </trkpt>
      <trkpt lat="47.78367" lon="2.13213">
        <ele>134</ele>
        <time>2017-02-05T07:56:21.958Z</time>
      </trkpt>
      <trkpt lat="47.78367" lon="2.13213">
        <ele>134</ele>
        <time>2017-02-05T07:56:22.926Z</time>
      </trkpt>
      <trkpt lat="47.78358" lon="2.13211">
        <ele>134</ele>
        <time>2017-02-05T07:56:23.922Z</time>
      </trkpt>
      <trkpt lat="47.78358" lon="2.13211">
        <ele>134</ele>
        <time>2017-02-05T07:56:24.955Z</time>
      </trkpt>
      <trkpt lat="47.78349" lon="2.13209">
        <ele>134</ele>
        <time>2017-02-05T07:56:25.951Z</time>
      </trkpt>
      <trkpt lat="47.78349" lon="2.13209">
        <ele>134</ele>
        <time>2017-02-05T07:56:26.943Z</time>
      </trkpt>
      <trkpt lat="47.7834" lon="2.13208">
        <ele>134</ele>
        <time>2017-02-05T07:56:27.948Z</time>
      </trkpt>
      <trkpt lat="47.7834" lon="2.13208">
        <ele>134</ele>
        <time>2017-02-05T07:56:28.959Z</time>
      </trkpt>
      <trkpt lat="47.78332" lon="2.13207">
        <ele>134</ele>
        <time>2017-02-05T07:56:29.991Z</time>
      </trkpt>
      <trkpt lat="47.78327" lon="2.13206">
        <ele>134</ele>
        <time>2017-02-05T07:56:30.959Z</time>
      </trkpt>
      <trkpt lat="47.78327" lon="2.13206">
        <ele>134</ele>
        <time>2017-02-05T07:56:31.931Z</time>
      </trkpt>
      <trkpt lat="47.78318" lon="2.13205">
        <ele>134</ele>
        <time>2017-02-05T07:56:32.977Z</time>
      </trkpt>
      <trkpt lat="47.78318" lon="2.13205">
        <ele>134</ele>
        <time>2017-02-05T07:56:33.931Z</time>
      </trkpt>
      <trkpt lat="47.78309" lon="2.13203">
        <ele>134</ele>
        <time>2017-02-05T07:56:34.926Z</time>
      </trkpt>
      <trkpt lat="47.78305" lon="2.13202">
        <ele>134</ele>
        <time>2017-02-05T07:56:35.983Z</time>
      </trkpt>
      <trkpt lat="47.78301" lon="2.13201">
        <ele>134</ele>
        <time>2017-02-05T07:56:36.933Z</time>
      </trkpt>
      <trkpt lat="47.78301" lon="2.13201">
        <ele>134</ele>
        <time>2017-02-05T07:56:37.934Z</time>
      </trkpt>
      <trkpt lat="47.78292" lon="2.132">
        <ele>134</ele>
        <time>2017-02-05T07:56:38.940Z</time>
      </trkpt>
      <trkpt lat="47.78288" lon="2.13199">
        <ele>134</ele>
        <time>2017-02-05T07:56:39.947Z</time>
      </trkpt>
      <trkpt lat="47.78288" lon="2.13199">
        <ele>134</ele>
        <time>2017-02-05T07:56:40.934Z</time>
      </trkpt>
      <trkpt lat="47.78279" lon="2.13198">
        <ele>134</ele>
        <time>2017-02-05T07:56:41.941Z</time>
      </trkpt>
      <trkpt lat="47.78274" lon="2.13197">
        <ele>135</ele>
        <time>2017-02-05T07:56:42.955Z</time>
      </trkpt>
      <trkpt lat="47.78274" lon="2.13197">
        <ele>135</ele>
        <time>2017-02-05T07:56:43.925Z</time>
      </trkpt>
      <trkpt lat="47.78265" lon="2.13196">
        <ele>134</ele>
        <time>2017-02-05T07:56:44.932Z</time>
      </trkpt>
      <trkpt lat="47.78261" lon="2.13195">
        <ele>134</ele>
        <time>2017-02-05T07:56:45.924Z</time>
      </trkpt>
      <trkpt lat="47.78261" lon="2.13195">
        <ele>134</ele>
        <time>2017-02-05T07:56:46.953Z</time>
      </trkpt>
      <trkpt lat="47.78252" lon="2.13193">
        <ele>135</ele>
        <time>2017-02-05T07:56:47.933Z</time>
      </trkpt>
      <trkpt lat="47.78252" lon="2.13193">
        <ele>135</ele>
        <time>2017-02-05T07:56:48.937Z</time>
      </trkpt>
      <trkpt lat="47.78243" lon="2.13192">
        <ele>134</ele>
        <time>2017-02-05T07:56:49.943Z</time>
      </trkpt>
      <trkpt lat="47.78243" lon="2.13192">
        <ele>134</ele>
        <time>2017-02-05T07:56:50.951Z</time>
      </trkpt>
      <trkpt lat="47.78234" lon="2.13191">
        <ele>135</ele>
        <time>2017-02-05T07:56:51.932Z</time>
      </trkpt>
      <trkpt lat="47.78234" lon="2.13191">
        <ele>135</ele>
        <time>2017-02-05T07:56:52.983Z</time>
      </trkpt>
      <trkpt lat="47.78226" lon="2.13189">
        <ele>134</ele>
        <time>2017-02-05T07:56:53.959Z</time>
      </trkpt>
      <trkpt lat="47.78226" lon="2.13189">
        <ele>134</ele>
        <time>2017-02-05T07:56:54.933Z</time>
      </trkpt>
      <trkpt lat="47.78216" lon="2.13188">
        <ele>134</ele>
        <time>2017-02-05T07:56:55.924Z</time>
      </trkpt>
      <trkpt lat="47.78216" lon="2.13188">
        <ele>134</ele>
        <time>2017-02-05T07:56:56.952Z</time>
      </trkpt>
      <trkpt lat="47.78206" lon="2.13186">
        <ele>134</ele>
        <time>2017-02-05T07:56:57.933Z</time>
      </trkpt>
      <trkpt lat="47.78201" lon="2.13185">
        <ele>134</ele>
        <time>2017-02-05T07:56:58.940Z</time>
      </trkpt>
      <trkpt lat="47.78196" lon="2.13184">
        <ele>134</ele>
        <time>2017-02-05T07:56:59.948Z</time>
      </trkpt>
      <trkpt lat="47.78196" lon="2.13184">
        <ele>134</ele>
        <time>2017-02-05T07:57:00.924Z</time>
      </trkpt>
      <trkpt lat="47.78186" lon="2.13183">
        <ele>135</ele>
        <time>2017-02-05T07:57:01.957Z</time>
      </trkpt>
      <trkpt lat="47.7818" lon="2.13182">
        <ele>135</ele>
        <time>2017-02-05T07:57:02.924Z</time>
      </trkpt>
      <trkpt lat="47.7818" lon="2.13182">
        <ele>135</ele>
        <time>2017-02-05T07:57:03.953Z</time>
      </trkpt>
      <trkpt lat="47.78169" lon="2.1318">
        <ele>135</ele>
        <time>2017-02-05T07:57:04.936Z</time>
      </trkpt>
      <trkpt lat="47.78169" lon="2.1318">
        <ele>135</ele>
        <time>2017-02-05T07:57:05.941Z</time>
      </trkpt>
      <trkpt lat="47.78157" lon="2.13178">
        <ele>135</ele>
        <time>2017-02-05T07:57:06.945Z</time>
      </trkpt>
      <trkpt lat="47.78151" lon="2.13178">
        <ele>135</ele>
        <time>2017-02-05T07:57:07.936Z</time>
      </trkpt>
      <trkpt lat="47.78151" lon="2.13178">
        <ele>135</ele>
        <time>2017-02-05T07:57:08.941Z</time>
      </trkpt>
      <trkpt lat="47.78139" lon="2.13176">
        <ele>135</ele>
        <time>2017-02-05T07:57:09.932Z</time>
      </trkpt>
      <trkpt lat="47.78139" lon="2.13176">
        <ele>135</ele>
        <time>2017-02-05T07:57:10.982Z</time>
      </trkpt>
      <trkpt lat="47.78127" lon="2.13174">
        <ele>135</ele>
        <time>2017-02-05T07:57:11.957Z</time>
      </trkpt>
      <trkpt lat="47.78127" lon="2.13174">
        <ele>135</ele>
        <time>2017-02-05T07:57:12.924Z</time>
      </trkpt>
      <trkpt lat="47.78115" lon="2.13172">
        <ele>135</ele>
        <time>2017-02-05T07:57:13.958Z</time>
      </trkpt>
      <trkpt lat="47.78115" lon="2.13172">
        <ele>135</ele>
        <time>2017-02-05T07:57:14.931Z</time>
      </trkpt>
      <trkpt lat="47.78102" lon="2.1317">
        <ele>135</ele>
        <time>2017-02-05T07:57:15.983Z</time>
      </trkpt>
      <trkpt lat="47.78096" lon="2.13169">
        <ele>135</ele>
        <time>2017-02-05T07:57:16.946Z</time>
      </trkpt>
      <trkpt lat="47.78096" lon="2.13169">
        <ele>135</ele>
        <time>2017-02-05T07:57:17.948Z</time>
      </trkpt>
      <trkpt lat="47.78083" lon="2.13166">
        <ele>135</ele>
        <time>2017-02-05T07:57:18.951Z</time>
      </trkpt>
      <trkpt lat="47.78076" lon="2.13165">
        <ele>135</ele>
        <time>2017-02-05T07:57:19.947Z</time>
      </trkpt>
      <trkpt lat="47.78076" lon="2.13165">
        <ele>135</ele>
        <time>2017-02-05T07:57:20.958Z</time>
      </trkpt>
      <trkpt lat="47.78063" lon="2.13163">
        <ele>136</ele>
        <time>2017-02-05T07:57:21.925Z</time>
      </trkpt>
      <trkpt lat="47.78063" lon="2.13163">
        <ele>136</ele>
        <time>2017-02-05T07:57:22.954Z</time>
      </trkpt>
      <trkpt lat="47.7805" lon="2.13161">
        <ele>136</ele>
        <time>2017-02-05T07:57:23.932Z</time>
      </trkpt>
      <trkpt lat="47.7805" lon="2.13161">
        <ele>136</ele>
        <time>2017-02-05T07:57:24.933Z</time>
      </trkpt>
      <trkpt lat="47.78038" lon="2.13159">
        <ele>136</ele>
        <time>2017-02-05T07:57:25.931Z</time>
      </trkpt>
      <trkpt lat="47.78038" lon="2.13159">
        <ele>136</ele>
        <time>2017-02-05T07:57:26.959Z</time>
      </trkpt>
      <trkpt lat="47.78026" lon="2.13157">
        <ele>136</ele>
        <time>2017-02-05T07:57:27.959Z</time>
      </trkpt>
      <trkpt lat="47.78026" lon="2.13157">
        <ele>136</ele>
        <time>2017-02-05T07:57:28.926Z</time>
      </trkpt>
      <trkpt lat="47.78015" lon="2.13156">
        <ele>136</ele>
        <time>2017-02-05T07:57:29.979Z</time>
      </trkpt>
      <trkpt lat="47.78015" lon="2.13156">
        <ele>136</ele>
        <time>2017-02-05T07:57:30.950Z</time>
      </trkpt>
      <trkpt lat="47.78004" lon="2.13154">
        <ele>136</ele>
        <time>2017-02-05T07:57:31.931Z</time>
      </trkpt>
      <trkpt lat="47.78004" lon="2.13154">
        <ele>136</ele>
        <time>2017-02-05T07:57:32.983Z</time>
      </trkpt>
      <trkpt lat="47.77992" lon="2.13152">
        <ele>136</ele>
        <time>2017-02-05T07:57:33.959Z</time>
      </trkpt>
      <trkpt lat="47.77987" lon="2.13151">
        <ele>136</ele>
        <time>2017-02-05T07:57:34.941Z</time>
      </trkpt>
      <trkpt lat="47.77981" lon="2.1315">
        <ele>136</ele>
        <time>2017-02-05T07:57:35.945Z</time>
      </trkpt>
      <trkpt lat="47.77981" lon="2.1315">
        <ele>136</ele>
        <time>2017-02-05T07:57:36.948Z</time>
      </trkpt>
      <trkpt lat="47.7797" lon="2.13148">
        <ele>136</ele>
        <time>2017-02-05T07:57:37.951Z</time>
      </trkpt>
      <trkpt lat="47.7797" lon="2.13148">
        <ele>136</ele>
        <time>2017-02-05T07:57:38.963Z</time>
      </trkpt>
      <trkpt lat="47.77959" lon="2.13146">
        <ele>137</ele>
        <time>2017-02-05T07:57:39.961Z</time>
      </trkpt>
      <trkpt lat="47.77959" lon="2.13146">
        <ele>137</ele>
        <time>2017-02-05T07:57:40.931Z</time>
      </trkpt>
      <trkpt lat="47.77948" lon="2.13145">
        <ele>137</ele>
        <time>2017-02-05T07:57:41.956Z</time>
      </trkpt>
      <trkpt lat="47.77948" lon="2.13145">
        <ele>137</ele>
        <time>2017-02-05T07:57:42.939Z</time>
      </trkpt>
      <trkpt lat="47.77937" lon="2.13143">
        <ele>138</ele>
        <time>2017-02-05T07:57:43.947Z</time>
      </trkpt>
      <trkpt lat="47.77937" lon="2.13143">
        <ele>138</ele>
        <time>2017-02-05T07:57:44.957Z</time>
      </trkpt>
      <trkpt lat="47.77926" lon="2.13141">
        <ele>138</ele>
        <time>2017-02-05T07:57:45.935Z</time>
      </trkpt>
      <trkpt lat="47.77926" lon="2.13141">
        <ele>138</ele>
        <time>2017-02-05T07:57:46.944Z</time>
      </trkpt>
      <trkpt lat="47.77916" lon="2.13139">
        <ele>139</ele>
        <time>2017-02-05T07:57:47.957Z</time>
      </trkpt>
      <trkpt lat="47.77911" lon="2.13139">
        <ele>139</ele>
        <time>2017-02-05T07:57:48.931Z</time>
      </trkpt>
      <trkpt lat="47.77911" lon="2.13139">
        <ele>139</ele>
        <time>2017-02-05T07:57:49.995Z</time>
      </trkpt>
      <trkpt lat="47.77899" lon="2.13138">
        <ele>139</ele>
        <time>2017-02-05T07:57:50.931Z</time>
      </trkpt>
      <trkpt lat="47.77899" lon="2.13138">
        <ele>139</ele>
        <time>2017-02-05T07:57:51.983Z</time>
      </trkpt>
      <trkpt lat="47.77888" lon="2.13135">
        <ele>140</ele>
        <time>2017-02-05T07:57:52.980Z</time>
      </trkpt>
      <trkpt lat="47.77888" lon="2.13135">
        <ele>140</ele>
        <time>2017-02-05T07:57:53.931Z</time>
      </trkpt>
      <trkpt lat="47.77877" lon="2.13133">
        <ele>140</ele>
        <time>2017-02-05T07:57:54.931Z</time>
      </trkpt>
      <trkpt lat="47.77872" lon="2.13133">
        <ele>140</ele>
        <time>2017-02-05T07:57:55.922Z</time>
      </trkpt>
      <trkpt lat="47.77872" lon="2.13133">
        <ele>140</ele>
        <time>2017-02-05T07:57:56.950Z</time>
      </trkpt>
      <trkpt lat="47.77861" lon="2.13131">
        <ele>141</ele>
        <time>2017-02-05T07:57:57.959Z</time>
      </trkpt>
      <trkpt lat="47.77861" lon="2.13131">
        <ele>141</ele>
        <time>2017-02-05T07:57:58.926Z</time>
      </trkpt>
      <trkpt lat="47.7785" lon="2.13128">
        <ele>141</ele>
        <time>2017-02-05T07:57:59.931Z</time>
      </trkpt>
      <trkpt lat="47.7785" lon="2.13128">
        <ele>141</ele>
        <time>2017-02-05T07:58:00.922Z</time>
      </trkpt>
      <trkpt lat="47.7784" lon="2.13127">
        <ele>142</ele>
        <time>2017-02-05T07:58:01.950Z</time>
      </trkpt>
      <trkpt lat="47.7784" lon="2.13127">
        <ele>142</ele>
        <time>2017-02-05T07:58:02.963Z</time>
      </trkpt>
      <trkpt lat="47.7783" lon="2.13125">
        <ele>142</ele>
        <time>2017-02-05T07:58:03.933Z</time>
      </trkpt>
      <trkpt lat="47.7783" lon="2.13125">
        <ele>142</ele>
        <time>2017-02-05T07:58:04.946Z</time>
      </trkpt>
      <trkpt lat="47.7782" lon="2.13123">
        <ele>143</ele>
        <time>2017-02-05T07:58:05.949Z</time>
      </trkpt>
      <trkpt lat="47.7782" lon="2.13123">
        <ele>143</ele>
        <time>2017-02-05T07:58:06.959Z</time>
      </trkpt>
      <trkpt lat="47.7781" lon="2.13121">
        <ele>143</ele>
        <time>2017-02-05T07:58:07.940Z</time>
      </trkpt>
      <trkpt lat="47.7781" lon="2.13121">
        <ele>143</ele>
        <time>2017-02-05T07:58:08.946Z</time>
      </trkpt>
      <trkpt lat="47.77801" lon="2.1312">
        <ele>144</ele>
        <time>2017-02-05T07:58:09.946Z</time>
      </trkpt>
      <trkpt lat="47.77801" lon="2.1312">
        <ele>144</ele>
        <time>2017-02-05T07:58:10.983Z</time>
      </trkpt>
      <trkpt lat="47.77793" lon="2.13118">
        <ele>144</ele>
        <time>2017-02-05T07:58:11.959Z</time>
      </trkpt>
      <trkpt lat="47.77788" lon="2.13117">
        <ele>145</ele>
        <time>2017-02-05T07:58:12.935Z</time>
      </trkpt>
      <trkpt lat="47.77788" lon="2.13117">
        <ele>145</ele>
        <time>2017-02-05T07:58:13.940Z</time>
      </trkpt>
      <trkpt lat="47.77779" lon="2.13115">
        <ele>145</ele>
        <time>2017-02-05T07:58:14.945Z</time>
      </trkpt>
      <trkpt lat="47.77779" lon="2.13115">
        <ele>145</ele>
        <time>2017-02-05T07:58:15.948Z</time>
      </trkpt>
      <trkpt lat="47.77769" lon="2.13114">
        <ele>146</ele>
        <time>2017-02-05T07:58:16.942Z</time>
      </trkpt>
      <trkpt lat="47.77769" lon="2.13114">
        <ele>146</ele>
        <time>2017-02-05T07:58:17.947Z</time>
      </trkpt>
      <trkpt lat="47.77758" lon="2.13114">
        <ele>146</ele>
        <time>2017-02-05T07:58:18.949Z</time>
      </trkpt>
      <trkpt lat="47.77752" lon="2.13113">
        <ele>147</ele>
        <time>2017-02-05T07:58:19.959Z</time>
      </trkpt>
      <trkpt lat="47.77752" lon="2.13113">
        <ele>147</ele>
        <time>2017-02-05T07:58:20.957Z</time>
      </trkpt>
      <trkpt lat="47.77742" lon="2.13112">
        <ele>147</ele>
        <time>2017-02-05T07:58:21.924Z</time>
      </trkpt>
      <trkpt lat="47.77742" lon="2.13112">
        <ele>147</ele>
        <time>2017-02-05T07:58:22.953Z</time>
      </trkpt>
      <trkpt lat="47.77727" lon="2.1311">
        <ele>147</ele>
        <time>2017-02-05T07:58:23.951Z</time>
      </trkpt>
      <trkpt lat="47.77727" lon="2.1311">
        <ele>147</ele>
        <time>2017-02-05T07:58:24.926Z</time>
      </trkpt>
      <trkpt lat="47.77718" lon="2.13107">
        <ele>148</ele>
        <time>2017-02-05T07:58:25.924Z</time>
      </trkpt>
      <trkpt lat="47.77718" lon="2.13107">
        <ele>148</ele>
        <time>2017-02-05T07:58:26.953Z</time>
      </trkpt>
      <trkpt lat="47.77706" lon="2.1311">
        <ele>149</ele>
        <time>2017-02-05T07:58:27.953Z</time>
      </trkpt>
      <trkpt lat="47.77706" lon="2.1311">
        <ele>149</ele>
        <time>2017-02-05T07:58:28.935Z</time>
      </trkpt>
      <trkpt lat="47.77693" lon="2.13108">
        <ele>150</ele>
        <time>2017-02-05T07:58:29.957Z</time>
      </trkpt>
      <trkpt lat="47.77693" lon="2.13108">
        <ele>150</ele>
        <time>2017-02-05T07:58:30.926Z</time>
      </trkpt>
      <trkpt lat="47.77681" lon="2.13106">
        <ele>150</ele>
        <time>2017-02-05T07:58:31.922Z</time>
      </trkpt>
      <trkpt lat="47.77681" lon="2.13106">
        <ele>150</ele>
        <time>2017-02-05T07:58:32.952Z</time>
      </trkpt>
      <trkpt lat="47.77671" lon="2.13104">
        <ele>151</ele>
        <time>2017-02-05T07:58:33.952Z</time>
      </trkpt>
      <trkpt lat="47.77671" lon="2.13104">
        <ele>151</ele>
        <time>2017-02-05T07:58:34.933Z</time>
      </trkpt>
      <trkpt lat="47.77659" lon="2.13102">
        <ele>152</ele>
        <time>2017-02-05T07:58:35.940Z</time>
      </trkpt>
      <trkpt lat="47.77659" lon="2.13102">
        <ele>152</ele>
        <time>2017-02-05T07:58:36.946Z</time>
      </trkpt>
      <trkpt lat="47.77648" lon="2.131">
        <ele>152</ele>
        <time>2017-02-05T07:58:37.946Z</time>
      </trkpt>
      <trkpt lat="47.77648" lon="2.131">
        <ele>152</ele>
        <time>2017-02-05T07:58:38.948Z</time>
      </trkpt>
      <trkpt lat="47.77637" lon="2.13099">
        <ele>153</ele>
        <time>2017-02-05T07:58:39.959Z</time>
      </trkpt>
      <trkpt lat="47.77631" lon="2.13097">
        <ele>153</ele>
        <time>2017-02-05T07:58:40.936Z</time>
      </trkpt>
      <trkpt lat="47.77631" lon="2.13097">
        <ele>153</ele>
        <time>2017-02-05T07:58:41.939Z</time>
      </trkpt>
      <trkpt lat="47.7762" lon="2.13095">
        <ele>153</ele>
        <time>2017-02-05T07:58:42.955Z</time>
      </trkpt>
      <trkpt lat="47.7762" lon="2.13095">
        <ele>153</ele>
        <time>2017-02-05T07:58:43.951Z</time>
      </trkpt>
      <trkpt lat="47.77609" lon="2.13093">
        <ele>154</ele>
        <time>2017-02-05T07:58:44.931Z</time>
      </trkpt>
      <trkpt lat="47.77609" lon="2.13093">
        <ele>154</ele>
        <time>2017-02-05T07:58:45.925Z</time>
      </trkpt>
      <trkpt lat="47.77599" lon="2.1309">
        <ele>155</ele>
        <time>2017-02-05T07:58:46.959Z</time>
      </trkpt>
      <trkpt lat="47.77593" lon="2.13088">
        <ele>155</ele>
        <time>2017-02-05T07:58:47.934Z</time>
      </trkpt>
      <trkpt lat="47.77593" lon="2.13088">
        <ele>155</ele>
        <time>2017-02-05T07:58:48.938Z</time>
      </trkpt>
      <trkpt lat="47.77582" lon="2.13086">
        <ele>156</ele>
        <time>2017-02-05T07:58:49.942Z</time>
      </trkpt>
      <trkpt lat="47.77582" lon="2.13086">
        <ele>156</ele>
        <time>2017-02-05T07:58:50.946Z</time>
      </trkpt>
      <trkpt lat="47.7757" lon="2.13084">
        <ele>156</ele>
        <time>2017-02-05T07:58:51.946Z</time>
      </trkpt>
      <trkpt lat="47.7757" lon="2.13084">
        <ele>156</ele>
        <time>2017-02-05T07:58:52.948Z</time>
      </trkpt>
      <trkpt lat="47.77559" lon="2.13083">
        <ele>155</ele>
        <time>2017-02-05T07:58:53.944Z</time>
      </trkpt>
      <trkpt lat="47.77559" lon="2.13083">
        <ele>155</ele>
        <time>2017-02-05T07:58:54.948Z</time>
      </trkpt>
      <trkpt lat="47.77547" lon="2.13082">
        <ele>155</ele>
        <time>2017-02-05T07:58:55.951Z</time>
      </trkpt>
      <trkpt lat="47.77547" lon="2.13082">
        <ele>155</ele>
        <time>2017-02-05T07:58:56.984Z</time>
      </trkpt>
      <trkpt lat="47.77537" lon="2.13081">
        <ele>154</ele>
        <time>2017-02-05T07:58:57.959Z</time>
      </trkpt>
      <trkpt lat="47.77537" lon="2.13081">
        <ele>154</ele>
        <time>2017-02-05T07:58:58.938Z</time>
      </trkpt>
      <trkpt lat="47.77527" lon="2.1308">
        <ele>153</ele>
        <time>2017-02-05T07:58:59.943Z</time>
      </trkpt>
      <trkpt lat="47.77527" lon="2.1308">
        <ele>153</ele>
        <time>2017-02-05T07:59:00.952Z</time>
      </trkpt>
      <trkpt lat="47.77517" lon="2.13074">
        <ele>152</ele>
        <time>2017-02-05T07:59:01.952Z</time>
      </trkpt>
      <trkpt lat="47.77517" lon="2.13074">
        <ele>152</ele>
        <time>2017-02-05T07:59:02.963Z</time>
      </trkpt>
      <trkpt lat="47.77508" lon="2.13067">
        <ele>151</ele>
        <time>2017-02-05T07:59:03.946Z</time>
      </trkpt>
      <trkpt lat="47.77508" lon="2.13067">
        <ele>151</ele>
        <time>2017-02-05T07:59:04.961Z</time>
      </trkpt>
      <trkpt lat="47.77498" lon="2.13062">
        <ele>150</ele>
        <time>2017-02-05T07:59:05.972Z</time>
      </trkpt>
      <trkpt lat="47.77498" lon="2.13062">
        <ele>150</ele>
        <time>2017-02-05T07:59:06.931Z</time>
      </trkpt>
      <trkpt lat="47.7749" lon="2.13058">
        <ele>149</ele>
        <time>2017-02-05T07:59:07.936Z</time>
      </trkpt>
      <trkpt lat="47.7749" lon="2.13058">
        <ele>149</ele>
        <time>2017-02-05T07:59:08.940Z</time>
      </trkpt>
      <trkpt lat="47.7748" lon="2.13055">
        <ele>149</ele>
        <time>2017-02-05T07:59:09.957Z</time>
      </trkpt>
      <trkpt lat="47.7748" lon="2.13055">
        <ele>149</ele>
        <time>2017-02-05T07:59:10.926Z</time>
      </trkpt>
      <trkpt lat="47.77472" lon="2.13052">
        <ele>149</ele>
        <time>2017-02-05T07:59:11.955Z</time>
      </trkpt>
      <trkpt lat="47.77467" lon="2.13051">
        <ele>149</ele>
        <time>2017-02-05T07:59:12.953Z</time>
      </trkpt>
      <trkpt lat="47.77462" lon="2.1305">
        <ele>149</ele>
        <time>2017-02-05T07:59:13.933Z</time>
      </trkpt>
      <trkpt lat="47.77462" lon="2.1305">
        <ele>149</ele>
        <time>2017-02-05T07:59:14.936Z</time>
      </trkpt>
      <trkpt lat="47.77454" lon="2.13048">
        <ele>149</ele>
        <time>2017-02-05T07:59:15.942Z</time>
      </trkpt>
      <trkpt lat="47.77454" lon="2.13048">
        <ele>149</ele>
        <time>2017-02-05T07:59:16.946Z</time>
      </trkpt>
      <trkpt lat="47.77445" lon="2.13044">
        <ele>150</ele>
        <time>2017-02-05T07:59:17.959Z</time>
      </trkpt>
      <trkpt lat="47.77441" lon="2.13042">
        <ele>150</ele>
        <time>2017-02-05T07:59:18.933Z</time>
      </trkpt>
      <trkpt lat="47.77441" lon="2.13042">
        <ele>150</ele>
        <time>2017-02-05T07:59:19.964Z</time>
      </trkpt>
      <trkpt lat="47.77435" lon="2.13039">
        <ele>150</ele>
        <time>2017-02-05T07:59:20.953Z</time>
      </trkpt>
      <trkpt lat="47.77432" lon="2.13037">
        <ele>151</ele>
        <time>2017-02-05T07:59:21.940Z</time>
      </trkpt>
      <trkpt lat="47.77432" lon="2.13037">
        <ele>151</ele>
        <time>2017-02-05T07:59:22.948Z</time>
      </trkpt>
      <trkpt lat="47.77425" lon="2.13034">
        <ele>151</ele>
        <time>2017-02-05T07:59:23.952Z</time>
      </trkpt>
      <trkpt lat="47.77425" lon="2.13034">
        <ele>151</ele>
        <time>2017-02-05T07:59:24.933Z</time>
      </trkpt>
      <trkpt lat="47.77416" lon="2.1303">
        <ele>151</ele>
        <time>2017-02-05T07:59:25.940Z</time>
      </trkpt>
      <trkpt lat="47.77416" lon="2.1303">
        <ele>151</ele>
        <time>2017-02-05T07:59:26.947Z</time>
      </trkpt>
      <trkpt lat="47.77405" lon="2.13027">
        <ele>151</ele>
        <time>2017-02-05T07:59:27.924Z</time>
      </trkpt>
      <trkpt lat="47.77405" lon="2.13027">
        <ele>151</ele>
        <time>2017-02-05T07:59:28.954Z</time>
      </trkpt>
      <trkpt lat="47.77396" lon="2.13023">
        <ele>152</ele>
        <time>2017-02-05T07:59:29.957Z</time>
      </trkpt>
      <trkpt lat="47.77392" lon="2.13021">
        <ele>152</ele>
        <time>2017-02-05T07:59:30.959Z</time>
      </trkpt>
      <trkpt lat="47.77392" lon="2.13021">
        <ele>152</ele>
        <time>2017-02-05T07:59:31.931Z</time>
      </trkpt>
      <trkpt lat="47.77384" lon="2.13017">
        <ele>153</ele>
        <time>2017-02-05T07:59:32.984Z</time>
      </trkpt>
      <trkpt lat="47.7738" lon="2.13014">
        <ele>153</ele>
        <time>2017-02-05T07:59:33.934Z</time>
      </trkpt>
      <trkpt lat="47.7738" lon="2.13014">
        <ele>153</ele>
        <time>2017-02-05T07:59:34.932Z</time>
      </trkpt>
      <trkpt lat="47.77372" lon="2.13009">
        <ele>153</ele>
        <time>2017-02-05T07:59:35.926Z</time>
      </trkpt>
      <trkpt lat="47.77372" lon="2.13009">
        <ele>153</ele>
        <time>2017-02-05T07:59:36.954Z</time>
      </trkpt>
      <trkpt lat="47.77363" lon="2.13004">
        <ele>153</ele>
        <time>2017-02-05T07:59:37.957Z</time>
      </trkpt>
      <trkpt lat="47.77363" lon="2.13004">
        <ele>153</ele>
        <time>2017-02-05T07:59:38.926Z</time>
      </trkpt>
      <trkpt lat="47.77353" lon="2.12998">
        <ele>153</ele>
        <time>2017-02-05T07:59:39.955Z</time>
      </trkpt>
      <trkpt lat="47.77353" lon="2.12998">
        <ele>153</ele>
        <time>2017-02-05T07:59:40.940Z</time>
      </trkpt>
      <trkpt lat="47.77342" lon="2.12993">
        <ele>153</ele>
        <time>2017-02-05T07:59:41.951Z</time>
      </trkpt>
      <trkpt lat="47.77342" lon="2.12993">
        <ele>153</ele>
        <time>2017-02-05T07:59:42.984Z</time>
      </trkpt>
      <trkpt lat="47.77332" lon="2.12987">
        <ele>153</ele>
        <time>2017-02-05T07:59:43.925Z</time>
      </trkpt>
      <trkpt lat="47.77332" lon="2.12987">
        <ele>153</ele>
        <time>2017-02-05T07:59:44.937Z</time>
      </trkpt>
      <trkpt lat="47.77321" lon="2.12983">
        <ele>152</ele>
        <time>2017-02-05T07:59:45.943Z</time>
      </trkpt>
      <trkpt lat="47.77321" lon="2.12983">
        <ele>152</ele>
        <time>2017-02-05T07:59:46.958Z</time>
      </trkpt>
      <trkpt lat="47.7731" lon="2.12979">
        <ele>152</ele>
        <time>2017-02-05T07:59:47.936Z</time>
      </trkpt>
      <trkpt lat="47.7731" lon="2.12979">
        <ele>152</ele>
        <time>2017-02-05T07:59:48.941Z</time>
      </trkpt>
      <trkpt lat="47.77299" lon="2.12974">
        <ele>152</ele>
        <time>2017-02-05T07:59:49.957Z</time>
      </trkpt>
      <trkpt lat="47.77299" lon="2.12974">
        <ele>152</ele>
        <time>2017-02-05T07:59:50.926Z</time>
      </trkpt>
      <trkpt lat="47.77289" lon="2.12969">
        <ele>152</ele>
        <time>2017-02-05T07:59:51.924Z</time>
      </trkpt>
      <trkpt lat="47.77289" lon="2.12969">
        <ele>152</ele>
        <time>2017-02-05T07:59:52.954Z</time>
      </trkpt>
      <trkpt lat="47.77279" lon="2.12962">
        <ele>152</ele>
        <time>2017-02-05T07:59:53.934Z</time>
      </trkpt>
      <trkpt lat="47.77279" lon="2.12962">
        <ele>152</ele>
        <time>2017-02-05T07:59:54.938Z</time>
      </trkpt>
      <trkpt lat="47.77269" lon="2.12955">
        <ele>152</ele>
        <time>2017-02-05T07:59:55.947Z</time>
      </trkpt>
      <trkpt lat="47.77269" lon="2.12955">
        <ele>152</ele>
        <time>2017-02-05T07:59:56.948Z</time>
      </trkpt>
      <trkpt lat="47.77256" lon="2.12947">
        <ele>152</ele>
        <time>2017-02-05T07:59:57.933Z</time>
      </trkpt>
      <trkpt lat="47.77256" lon="2.12947">
        <ele>152</ele>
        <time>2017-02-05T07:59:58.980Z</time>
      </trkpt>
      <trkpt lat="47.77246" lon="2.1294">
        <ele>152</ele>
        <time>2017-02-05T07:59:59.958Z</time>
      </trkpt>
      <trkpt lat="47.77242" lon="2.12937">
        <ele>152</ele>
        <time>2017-02-05T08:00:00.961Z</time>
      </trkpt>
      <trkpt lat="47.77242" lon="2.12937">
        <ele>152</ele>
        <time>2017-02-05T08:00:01.932Z</time>
      </trkpt>
      <trkpt lat="47.77232" lon="2.1293">
        <ele>153</ele>
        <time>2017-02-05T08:00:02.960Z</time>
      </trkpt>
      <trkpt lat="47.77228" lon="2.12925">
        <ele>152</ele>
        <time>2017-02-05T08:00:03.934Z</time>
      </trkpt>
      <trkpt lat="47.77228" lon="2.12925">
        <ele>152</ele>
        <time>2017-02-05T08:00:04.936Z</time>
      </trkpt>
      <trkpt lat="47.77219" lon="2.12916">
        <ele>151</ele>
        <time>2017-02-05T08:00:05.947Z</time>
      </trkpt>
      <trkpt lat="47.77219" lon="2.12916">
        <ele>151</ele>
        <time>2017-02-05T08:00:06.956Z</time>
      </trkpt>
      <trkpt lat="47.77211" lon="2.12907">
        <ele>149</ele>
        <time>2017-02-05T08:00:07.944Z</time>
      </trkpt>
      <trkpt lat="47.77211" lon="2.12907">
        <ele>149</ele>
        <time>2017-02-05T08:00:08.948Z</time>
      </trkpt>
      <trkpt lat="47.77201" lon="2.12899">
        <ele>147</ele>
        <time>2017-02-05T08:00:09.958Z</time>
      </trkpt>
      <trkpt lat="47.77201" lon="2.12899">
        <ele>147</ele>
        <time>2017-02-05T08:00:10.937Z</time>
      </trkpt>
      <trkpt lat="47.77191" lon="2.12891">
        <ele>146</ele>
        <time>2017-02-05T08:00:11.942Z</time>
      </trkpt>
      <trkpt lat="47.77191" lon="2.12891">
        <ele>146</ele>
        <time>2017-02-05T08:00:12.947Z</time>
      </trkpt>
      <trkpt lat="47.77181" lon="2.12883">
        <ele>145</ele>
        <time>2017-02-05T08:00:13.963Z</time>
      </trkpt>
      <trkpt lat="47.77176" lon="2.12879">
        <ele>145</ele>
        <time>2017-02-05T08:00:14.942Z</time>
      </trkpt>
      <trkpt lat="47.77176" lon="2.12879">
        <ele>145</ele>
        <time>2017-02-05T08:00:15.948Z</time>
      </trkpt>
      <trkpt lat="47.77166" lon="2.12872">
        <ele>144</ele>
        <time>2017-02-05T08:00:16.956Z</time>
      </trkpt>
      <trkpt lat="47.77161" lon="2.12868">
        <ele>143</ele>
        <time>2017-02-05T08:00:17.958Z</time>
      </trkpt>
      <trkpt lat="47.77161" lon="2.12868">
        <ele>143</ele>
        <time>2017-02-05T08:00:18.927Z</time>
      </trkpt>
      <trkpt lat="47.77151" lon="2.1286">
        <ele>143</ele>
        <time>2017-02-05T08:00:19.957Z</time>
      </trkpt>
      <trkpt lat="47.77151" lon="2.1286">
        <ele>143</ele>
        <time>2017-02-05T08:00:20.926Z</time>
      </trkpt>
      <trkpt lat="47.77141" lon="2.12853">
        <ele>143</ele>
        <time>2017-02-05T08:00:21.933Z</time>
      </trkpt>
      <trkpt lat="47.77141" lon="2.12853">
        <ele>143</ele>
        <time>2017-02-05T08:00:22.943Z</time>
      </trkpt>
      <trkpt lat="47.77132" lon="2.12846">
        <ele>142</ele>
        <time>2017-02-05T08:00:23.951Z</time>
      </trkpt>
      <trkpt lat="47.77132" lon="2.12846">
        <ele>142</ele>
        <time>2017-02-05T08:00:24.948Z</time>
      </trkpt>
      <trkpt lat="47.77122" lon="2.12838">
        <ele>142</ele>
        <time>2017-02-05T08:00:25.924Z</time>
      </trkpt>
      <trkpt lat="47.77122" lon="2.12838">
        <ele>142</ele>
        <time>2017-02-05T08:00:26.955Z</time>
      </trkpt>
      <trkpt lat="47.77112" lon="2.12831">
        <ele>142</ele>
        <time>2017-02-05T08:00:27.958Z</time>
      </trkpt>
      <trkpt lat="47.77112" lon="2.12831">
        <ele>142</ele>
        <time>2017-02-05T08:00:28.939Z</time>
      </trkpt>
      <trkpt lat="47.77102" lon="2.12822">
        <ele>142</ele>
        <time>2017-02-05T08:00:29.953Z</time>
      </trkpt>
      <trkpt lat="47.77097" lon="2.12818">
        <ele>142</ele>
        <time>2017-02-05T08:00:30.949Z</time>
      </trkpt>
      <trkpt lat="47.77097" lon="2.12818">
        <ele>142</ele>
        <time>2017-02-05T08:00:32.004Z</time>
      </trkpt>
      <trkpt lat="47.77088" lon="2.12808">
        <ele>141</ele>
        <time>2017-02-05T08:00:32.931Z</time>
      </trkpt>
      <trkpt lat="47.77088" lon="2.12808">
        <ele>141</ele>
        <time>2017-02-05T08:00:33.953Z</time>
      </trkpt>
      <trkpt lat="47.7708" lon="2.12796">
        <ele>140</ele>
        <time>2017-02-05T08:00:34.941Z</time>
      </trkpt>
      <trkpt lat="47.77076" lon="2.12791">
        <ele>140</ele>
        <time>2017-02-05T08:00:35.952Z</time>
      </trkpt>
      <trkpt lat="47.77076" lon="2.12791">
        <ele>140</ele>
        <time>2017-02-05T08:00:36.941Z</time>
      </trkpt>
      <trkpt lat="47.77068" lon="2.12779">
        <ele>139</ele>
        <time>2017-02-05T08:00:37.944Z</time>
      </trkpt>
      <trkpt lat="47.77068" lon="2.12779">
        <ele>139</ele>
        <time>2017-02-05T08:00:38.934Z</time>
      </trkpt>
      <trkpt lat="47.77061" lon="2.12767">
        <ele>138</ele>
        <time>2017-02-05T08:00:39.955Z</time>
      </trkpt>
      <trkpt lat="47.77061" lon="2.12767">
        <ele>138</ele>
        <time>2017-02-05T08:00:40.945Z</time>
      </trkpt>
      <trkpt lat="47.77054" lon="2.12754">
        <ele>138</ele>
        <time>2017-02-05T08:00:41.936Z</time>
      </trkpt>
      <trkpt lat="47.77054" lon="2.12754">
        <ele>138</ele>
        <time>2017-02-05T08:00:42.957Z</time>
      </trkpt>
      <trkpt lat="47.77048" lon="2.12742">
        <ele>137</ele>
        <time>2017-02-05T08:00:43.924Z</time>
      </trkpt>
      <trkpt lat="47.77045" lon="2.12735">
        <ele>137</ele>
        <time>2017-02-05T08:00:44.930Z</time>
      </trkpt>
      <trkpt lat="47.77045" lon="2.12735">
        <ele>137</ele>
        <time>2017-02-05T08:00:45.936Z</time>
      </trkpt>
      <trkpt lat="47.77038" lon="2.12721">
        <ele>137</ele>
        <time>2017-02-05T08:00:46.955Z</time>
      </trkpt>
      <trkpt lat="47.77038" lon="2.12721">
        <ele>137</ele>
        <time>2017-02-05T08:00:47.959Z</time>
      </trkpt>
      <trkpt lat="47.77031" lon="2.12708">
        <ele>137</ele>
        <time>2017-02-05T08:00:48.959Z</time>
      </trkpt>
      <trkpt lat="47.77029" lon="2.12702">
        <ele>137</ele>
        <time>2017-02-05T08:00:49.943Z</time>
      </trkpt>
      <trkpt lat="47.77029" lon="2.12702">
        <ele>137</ele>
        <time>2017-02-05T08:00:50.951Z</time>
      </trkpt>
      <trkpt lat="47.77022" lon="2.1269">
        <ele>137</ele>
        <time>2017-02-05T08:00:51.959Z</time>
      </trkpt>
      <trkpt lat="47.77022" lon="2.1269">
        <ele>137</ele>
        <time>2017-02-05T08:00:52.932Z</time>
      </trkpt>
      <trkpt lat="47.77016" lon="2.12677">
        <ele>137</ele>
        <time>2017-02-05T08:00:53.923Z</time>
      </trkpt>
      <trkpt lat="47.77016" lon="2.12677">
        <ele>137</ele>
        <time>2017-02-05T08:00:54.950Z</time>
      </trkpt>
      <trkpt lat="47.7701" lon="2.12664">
        <ele>137</ele>
        <time>2017-02-05T08:00:55.956Z</time>
      </trkpt>
      <trkpt lat="47.77007" lon="2.12657">
        <ele>137</ele>
        <time>2017-02-05T08:00:56.932Z</time>
      </trkpt>
      <trkpt lat="47.77007" lon="2.12657">
        <ele>137</ele>
        <time>2017-02-05T08:00:57.984Z</time>
      </trkpt>
      <trkpt lat="47.76999" lon="2.12642">
        <ele>136</ele>
        <time>2017-02-05T08:00:58.927Z</time>
      </trkpt>
      <trkpt lat="47.76999" lon="2.12642">
        <ele>136</ele>
        <time>2017-02-05T08:00:59.956Z</time>
      </trkpt>
      <trkpt lat="47.76994" lon="2.12627">
        <ele>136</ele>
        <time>2017-02-05T08:01:00.952Z</time>
      </trkpt>
      <trkpt lat="47.7699" lon="2.1262">
        <ele>136</ele>
        <time>2017-02-05T08:01:01.951Z</time>
      </trkpt>
      <trkpt lat="47.7699" lon="2.1262">
        <ele>136</ele>
        <time>2017-02-05T08:01:02.922Z</time>
      </trkpt>
      <trkpt lat="47.76983" lon="2.12606">
        <ele>135</ele>
        <time>2017-02-05T08:01:03.951Z</time>
      </trkpt>
      <trkpt lat="47.7698" lon="2.126">
        <ele>135</ele>
        <time>2017-02-05T08:01:04.923Z</time>
      </trkpt>
      <trkpt lat="47.7698" lon="2.126">
        <ele>135</ele>
        <time>2017-02-05T08:01:05.954Z</time>
      </trkpt>
      <trkpt lat="47.76972" lon="2.12588">
        <ele>135</ele>
        <time>2017-02-05T08:01:06.957Z</time>
      </trkpt>
      <trkpt lat="47.76972" lon="2.12588">
        <ele>135</ele>
        <time>2017-02-05T08:01:07.927Z</time>
      </trkpt>
      <trkpt lat="47.76966" lon="2.12575">
        <ele>135</ele>
        <time>2017-02-05T08:01:08.922Z</time>
      </trkpt>
      <trkpt lat="47.76966" lon="2.12575">
        <ele>135</ele>
        <time>2017-02-05T08:01:09.950Z</time>
      </trkpt>
      <trkpt lat="47.76959" lon="2.12563">
        <ele>136</ele>
        <time>2017-02-05T08:01:10.948Z</time>
      </trkpt>
      <trkpt lat="47.76956" lon="2.12557">
        <ele>135</ele>
        <time>2017-02-05T08:01:11.951Z</time>
      </trkpt>
      <trkpt lat="47.76956" lon="2.12557">
        <ele>135</ele>
        <time>2017-02-05T08:01:12.957Z</time>
      </trkpt>
      <trkpt lat="47.76951" lon="2.12544">
        <ele>136</ele>
        <time>2017-02-05T08:01:13.941Z</time>
      </trkpt>
      <trkpt lat="47.76951" lon="2.12544">
        <ele>136</ele>
        <time>2017-02-05T08:01:14.947Z</time>
      </trkpt>
      <trkpt lat="47.76944" lon="2.12531">
        <ele>136</ele>
        <time>2017-02-05T08:01:15.939Z</time>
      </trkpt>
      <trkpt lat="47.76941" lon="2.12525">
        <ele>136</ele>
        <time>2017-02-05T08:01:16.945Z</time>
      </trkpt>
      <trkpt lat="47.76941" lon="2.12525">
        <ele>136</ele>
        <time>2017-02-05T08:01:17.953Z</time>
      </trkpt>
      <trkpt lat="47.76936" lon="2.1251">
        <ele>135</ele>
        <time>2017-02-05T08:01:18.951Z</time>
      </trkpt>
      <trkpt lat="47.76936" lon="2.1251">
        <ele>135</ele>
        <time>2017-02-05T08:01:19.957Z</time>
      </trkpt>
      <trkpt lat="47.76932" lon="2.12495">
        <ele>136</ele>
        <time>2017-02-05T08:01:20.952Z</time>
      </trkpt>
      <trkpt lat="47.76932" lon="2.12495">
        <ele>136</ele>
        <time>2017-02-05T08:01:21.924Z</time>
      </trkpt>
      <trkpt lat="47.76929" lon="2.12479">
        <ele>136</ele>
        <time>2017-02-05T08:01:22.923Z</time>
      </trkpt>
      <trkpt lat="47.76929" lon="2.12479">
        <ele>136</ele>
        <time>2017-02-05T08:01:23.954Z</time>
      </trkpt>
      <trkpt lat="47.76926" lon="2.12462">
        <ele>137</ele>
        <time>2017-02-05T08:01:24.953Z</time>
      </trkpt>
      <trkpt lat="47.76926" lon="2.12462">
        <ele>137</ele>
        <time>2017-02-05T08:01:25.981Z</time>
      </trkpt>
      <trkpt lat="47.76922" lon="2.12446">
        <ele>137</ele>
        <time>2017-02-05T08:01:26.959Z</time>
      </trkpt>
      <trkpt lat="47.76922" lon="2.12446">
        <ele>137</ele>
        <time>2017-02-05T08:01:27.933Z</time>
      </trkpt>
      <trkpt lat="47.76918" lon="2.12429">
        <ele>137</ele>
        <time>2017-02-05T08:01:28.925Z</time>
      </trkpt>
      <trkpt lat="47.76918" lon="2.12429">
        <ele>137</ele>
        <time>2017-02-05T08:01:29.952Z</time>
      </trkpt>
      <trkpt lat="47.76915" lon="2.12411">
        <ele>137</ele>
        <time>2017-02-05T08:01:30.950Z</time>
      </trkpt>
      <trkpt lat="47.76913" lon="2.12403">
        <ele>137</ele>
        <time>2017-02-05T08:01:31.957Z</time>
      </trkpt>
      <trkpt lat="47.76913" lon="2.12403">
        <ele>137</ele>
        <time>2017-02-05T08:01:32.932Z</time>
      </trkpt>
      <trkpt lat="47.76909" lon="2.12387">
        <ele>137</ele>
        <time>2017-02-05T08:01:33.923Z</time>
      </trkpt>
      <trkpt lat="47.76909" lon="2.12387">
        <ele>137</ele>
        <time>2017-02-05T08:01:34.935Z</time>
      </trkpt>
      <trkpt lat="47.76906" lon="2.12373">
        <ele>137</ele>
        <time>2017-02-05T08:01:35.941Z</time>
      </trkpt>
      <trkpt lat="47.76906" lon="2.12373">
        <ele>137</ele>
        <time>2017-02-05T08:01:36.945Z</time>
      </trkpt>
      <trkpt lat="47.76902" lon="2.12357">
        <ele>137</ele>
        <time>2017-02-05T08:01:37.952Z</time>
      </trkpt>
      <trkpt lat="47.76902" lon="2.12357">
        <ele>137</ele>
        <time>2017-02-05T08:01:38.958Z</time>
      </trkpt>
      <trkpt lat="47.76899" lon="2.12341">
        <ele>137</ele>
        <time>2017-02-05T08:01:39.956Z</time>
      </trkpt>
      <trkpt lat="47.76899" lon="2.12341">
        <ele>137</ele>
        <time>2017-02-05T08:01:40.960Z</time>
      </trkpt>
      <trkpt lat="47.76895" lon="2.12325">
        <ele>137</ele>
        <time>2017-02-05T08:01:41.958Z</time>
      </trkpt>
      <trkpt lat="47.76895" lon="2.12325">
        <ele>137</ele>
        <time>2017-02-05T08:01:42.932Z</time>
      </trkpt>
      <trkpt lat="47.76892" lon="2.12309">
        <ele>137</ele>
        <time>2017-02-05T08:01:43.925Z</time>
      </trkpt>
      <trkpt lat="47.76892" lon="2.12309">
        <ele>137</ele>
        <time>2017-02-05T08:01:44.952Z</time>
      </trkpt>
      <trkpt lat="47.76888" lon="2.12293">
        <ele>137</ele>
        <time>2017-02-05T08:01:45.953Z</time>
      </trkpt>
      <trkpt lat="47.76888" lon="2.12293">
        <ele>137</ele>
        <time>2017-02-05T08:01:46.985Z</time>
      </trkpt>
      <trkpt lat="47.76884" lon="2.12276">
        <ele>137</ele>
        <time>2017-02-05T08:01:47.960Z</time>
      </trkpt>
      <trkpt lat="47.76884" lon="2.12276">
        <ele>137</ele>
        <time>2017-02-05T08:01:48.932Z</time>
      </trkpt>
      <trkpt lat="47.76881" lon="2.1226">
        <ele>137</ele>
        <time>2017-02-05T08:01:49.923Z</time>
      </trkpt>
      <trkpt lat="47.76881" lon="2.1226">
        <ele>137</ele>
        <time>2017-02-05T08:01:50.951Z</time>
      </trkpt>
      <trkpt lat="47.76877" lon="2.12245">
        <ele>137</ele>
        <time>2017-02-05T08:01:51.928Z</time>
      </trkpt>
      <trkpt lat="47.76877" lon="2.12245">
        <ele>137</ele>
        <time>2017-02-05T08:01:52.981Z</time>
      </trkpt>
      <trkpt lat="47.76873" lon="2.12228">
        <ele>137</ele>
        <time>2017-02-05T08:01:53.959Z</time>
      </trkpt>
      <trkpt lat="47.76873" lon="2.12228">
        <ele>137</ele>
        <time>2017-02-05T08:01:54.934Z</time>
      </trkpt>
      <trkpt lat="47.76869" lon="2.12212">
        <ele>137</ele>
        <time>2017-02-05T08:01:55.923Z</time>
      </trkpt>
      <trkpt lat="47.76869" lon="2.12212">
        <ele>137</ele>
        <time>2017-02-05T08:01:56.950Z</time>
      </trkpt>
      <trkpt lat="47.76865" lon="2.12196">
        <ele>137</ele>
        <time>2017-02-05T08:01:57.955Z</time>
      </trkpt>
      <trkpt lat="47.76863" lon="2.12188">
        <ele>137</ele>
        <time>2017-02-05T08:01:58.937Z</time>
      </trkpt>
      <trkpt lat="47.76861" lon="2.1218">
        <ele>136</ele>
        <time>2017-02-05T08:01:59.940Z</time>
      </trkpt>
      <trkpt lat="47.76861" lon="2.1218">
        <ele>136</ele>
        <time>2017-02-05T08:02:00.954Z</time>
      </trkpt>
      <trkpt lat="47.76855" lon="2.12166">
        <ele>136</ele>
        <time>2017-02-05T08:02:01.954Z</time>
      </trkpt>
      <trkpt lat="47.76852" lon="2.12159">
        <ele>136</ele>
        <time>2017-02-05T08:02:02.927Z</time>
      </trkpt>
      <trkpt lat="47.76852" lon="2.12159">
        <ele>136</ele>
        <time>2017-02-05T08:02:03.955Z</time>
      </trkpt>
      <trkpt lat="47.76843" lon="2.12148">
        <ele>135</ele>
        <time>2017-02-05T08:02:04.937Z</time>
      </trkpt>
      <trkpt lat="47.76843" lon="2.12148">
        <ele>135</ele>
        <time>2017-02-05T08:02:05.958Z</time>
      </trkpt>
      <trkpt lat="47.76833" lon="2.12138">
        <ele>135</ele>
        <time>2017-02-05T08:02:06.923Z</time>
      </trkpt>
      <trkpt lat="47.76833" lon="2.12138">
        <ele>135</ele>
        <time>2017-02-05T08:02:07.939Z</time>
      </trkpt>
      <trkpt lat="47.76824" lon="2.12127">
        <ele>135</ele>
        <time>2017-02-05T08:02:08.945Z</time>
      </trkpt>
      <trkpt lat="47.7682" lon="2.12121">
        <ele>135</ele>
        <time>2017-02-05T08:02:09.950Z</time>
      </trkpt>
      <trkpt lat="47.7682" lon="2.12121">
        <ele>135</ele>
        <time>2017-02-05T08:02:10.957Z</time>
      </trkpt>
      <trkpt lat="47.76813" lon="2.12107">
        <ele>135</ele>
        <time>2017-02-05T08:02:11.950Z</time>
      </trkpt>
      <trkpt lat="47.76813" lon="2.12107">
        <ele>135</ele>
        <time>2017-02-05T08:02:12.957Z</time>
      </trkpt>
      <trkpt lat="47.76808" lon="2.12091">
        <ele>135</ele>
        <time>2017-02-05T08:02:13.956Z</time>
      </trkpt>
      <trkpt lat="47.76808" lon="2.12091">
        <ele>135</ele>
        <time>2017-02-05T08:02:14.960Z</time>
      </trkpt>
      <trkpt lat="47.76803" lon="2.12076">
        <ele>135</ele>
        <time>2017-02-05T08:02:15.936Z</time>
      </trkpt>
      <trkpt lat="47.76803" lon="2.12076">
        <ele>135</ele>
        <time>2017-02-05T08:02:16.940Z</time>
      </trkpt>
      <trkpt lat="47.76798" lon="2.12061">
        <ele>135</ele>
        <time>2017-02-05T08:02:17.944Z</time>
      </trkpt>
      <trkpt lat="47.76798" lon="2.12061">
        <ele>135</ele>
        <time>2017-02-05T08:02:18.951Z</time>
      </trkpt>
      <trkpt lat="47.76793" lon="2.12046">
        <ele>135</ele>
        <time>2017-02-05T08:02:19.957Z</time>
      </trkpt>
      <trkpt lat="47.76793" lon="2.12046">
        <ele>135</ele>
        <time>2017-02-05T08:02:20.947Z</time>
      </trkpt>
      <trkpt lat="47.76788" lon="2.1203">
        <ele>135</ele>
        <time>2017-02-05T08:02:21.954Z</time>
      </trkpt>
      <trkpt lat="47.76788" lon="2.1203">
        <ele>135</ele>
        <time>2017-02-05T08:02:22.932Z</time>
      </trkpt>
      <trkpt lat="47.76783" lon="2.12015">
        <ele>136</ele>
        <time>2017-02-05T08:02:23.922Z</time>
      </trkpt>
      <trkpt lat="47.76783" lon="2.12015">
        <ele>136</ele>
        <time>2017-02-05T08:02:24.934Z</time>
      </trkpt>
      <trkpt lat="47.76778" lon="2.11999">
        <ele>136</ele>
        <time>2017-02-05T08:02:25.940Z</time>
      </trkpt>
      <trkpt lat="47.76775" lon="2.11991">
        <ele>136</ele>
        <time>2017-02-05T08:02:26.954Z</time>
      </trkpt>
      <trkpt lat="47.76775" lon="2.11991">
        <ele>136</ele>
        <time>2017-02-05T08:02:27.960Z</time>
      </trkpt>
      <trkpt lat="47.76769" lon="2.11977">
        <ele>137</ele>
        <time>2017-02-05T08:02:28.926Z</time>
      </trkpt>
      <trkpt lat="47.76766" lon="2.1197">
        <ele>137</ele>
        <time>2017-02-05T08:02:29.932Z</time>
      </trkpt>
      <trkpt lat="47.76766" lon="2.1197">
        <ele>137</ele>
        <time>2017-02-05T08:02:30.927Z</time>
      </trkpt>
      <trkpt lat="47.7676" lon="2.11956">
        <ele>138</ele>
        <time>2017-02-05T08:02:31.960Z</time>
      </trkpt>
      <trkpt lat="47.7676" lon="2.11956">
        <ele>138</ele>
        <time>2017-02-05T08:02:32.933Z</time>
      </trkpt>
      <trkpt lat="47.76753" lon="2.11942">
        <ele>137</ele>
        <time>2017-02-05T08:02:33.926Z</time>
      </trkpt>
      <trkpt lat="47.76753" lon="2.11942">
        <ele>137</ele>
        <time>2017-02-05T08:02:34.955Z</time>
      </trkpt>
      <trkpt lat="47.76746" lon="2.11928">
        <ele>138</ele>
        <time>2017-02-05T08:02:35.955Z</time>
      </trkpt>
      <trkpt lat="47.76746" lon="2.11928">
        <ele>138</ele>
        <time>2017-02-05T08:02:36.958Z</time>
      </trkpt>
      <trkpt lat="47.76739" lon="2.11913">
        <ele>138</ele>
        <time>2017-02-05T08:02:37.943Z</time>
      </trkpt>
      <trkpt lat="47.76739" lon="2.11913">
        <ele>138</ele>
        <time>2017-02-05T08:02:38.951Z</time>
      </trkpt>
      <trkpt lat="47.76732" lon="2.11899">
        <ele>138</ele>
        <time>2017-02-05T08:02:39.954Z</time>
      </trkpt>
      <trkpt lat="47.76732" lon="2.11899">
        <ele>138</ele>
        <time>2017-02-05T08:02:40.938Z</time>
      </trkpt>
      <trkpt lat="47.76724" lon="2.11885">
        <ele>137</ele>
        <time>2017-02-05T08:02:41.945Z</time>
      </trkpt>
      <trkpt lat="47.76724" lon="2.11885">
        <ele>137</ele>
        <time>2017-02-05T08:02:42.953Z</time>
      </trkpt>
      <trkpt lat="47.76716" lon="2.11871">
        <ele>138</ele>
        <time>2017-02-05T08:02:43.950Z</time>
      </trkpt>
      <trkpt lat="47.76716" lon="2.11871">
        <ele>138</ele>
        <time>2017-02-05T08:02:44.956Z</time>
      </trkpt>
      <trkpt lat="47.76708" lon="2.11858">
        <ele>139</ele>
        <time>2017-02-05T08:02:45.934Z</time>
      </trkpt>
      <trkpt lat="47.76708" lon="2.11858">
        <ele>139</ele>
        <time>2017-02-05T08:02:46.963Z</time>
      </trkpt>
      <trkpt lat="47.76701" lon="2.11845">
        <ele>140</ele>
        <time>2017-02-05T08:02:47.948Z</time>
      </trkpt>
      <trkpt lat="47.76701" lon="2.11845">
        <ele>140</ele>
        <time>2017-02-05T08:02:48.944Z</time>
      </trkpt>
      <trkpt lat="47.76693" lon="2.11831">
        <ele>140</ele>
        <time>2017-02-05T08:02:49.951Z</time>
      </trkpt>
      <trkpt lat="47.76693" lon="2.11831">
        <ele>140</ele>
        <time>2017-02-05T08:02:50.957Z</time>
      </trkpt>
      <trkpt lat="47.76685" lon="2.11817">
        <ele>141</ele>
        <time>2017-02-05T08:02:51.954Z</time>
      </trkpt>
      <trkpt lat="47.76685" lon="2.11817">
        <ele>141</ele>
        <time>2017-02-05T08:02:52.933Z</time>
      </trkpt>
      <trkpt lat="47.76678" lon="2.11803">
        <ele>141</ele>
        <time>2017-02-05T08:02:53.924Z</time>
      </trkpt>
      <trkpt lat="47.76678" lon="2.11803">
        <ele>141</ele>
        <time>2017-02-05T08:02:54.927Z</time>
      </trkpt>
      <trkpt lat="47.76671" lon="2.11789">
        <ele>142</ele>
        <time>2017-02-05T08:02:55.925Z</time>
      </trkpt>
      <trkpt lat="47.76671" lon="2.11789">
        <ele>142</ele>
        <time>2017-02-05T08:02:56.953Z</time>
      </trkpt>
      <trkpt lat="47.76663" lon="2.11775">
        <ele>141</ele>
        <time>2017-02-05T08:02:57.953Z</time>
      </trkpt>
      <trkpt lat="47.76663" lon="2.11775">
        <ele>141</ele>
        <time>2017-02-05T08:02:58.927Z</time>
      </trkpt>
      <trkpt lat="47.76657" lon="2.1176">
        <ele>141</ele>
        <time>2017-02-05T08:02:59.959Z</time>
      </trkpt>
      <trkpt lat="47.76654" lon="2.11752">
        <ele>141</ele>
        <time>2017-02-05T08:03:00.933Z</time>
      </trkpt>
      <trkpt lat="47.76654" lon="2.11752">
        <ele>141</ele>
        <time>2017-02-05T08:03:01.985Z</time>
      </trkpt>
      <trkpt lat="47.76647" lon="2.11737">
        <ele>141</ele>
        <time>2017-02-05T08:03:02.961Z</time>
      </trkpt>
      <trkpt lat="47.76647" lon="2.11737">
        <ele>141</ele>
        <time>2017-02-05T08:03:03.925Z</time>
      </trkpt>
      <trkpt lat="47.76639" lon="2.11722">
        <ele>140</ele>
        <time>2017-02-05T08:03:04.937Z</time>
      </trkpt>
      <trkpt lat="47.76639" lon="2.11722">
        <ele>140</ele>
        <time>2017-02-05T08:03:05.938Z</time>
      </trkpt>
      <trkpt lat="47.76631" lon="2.11708">
        <ele>140</ele>
        <time>2017-02-05T08:03:06.943Z</time>
      </trkpt>
      <trkpt lat="47.76628" lon="2.11701">
        <ele>139</ele>
        <time>2017-02-05T08:03:07.948Z</time>
      </trkpt>
      <trkpt lat="47.76628" lon="2.11701">
        <ele>139</ele>
        <time>2017-02-05T08:03:08.956Z</time>
      </trkpt>
      <trkpt lat="47.76621" lon="2.11687">
        <ele>138</ele>
        <time>2017-02-05T08:03:09.957Z</time>
      </trkpt>
      <trkpt lat="47.76621" lon="2.11687">
        <ele>138</ele>
        <time>2017-02-05T08:03:10.984Z</time>
      </trkpt>
      <trkpt lat="47.76613" lon="2.11672">
        <ele>138</ele>
        <time>2017-02-05T08:03:11.960Z</time>
      </trkpt>
      <trkpt lat="47.76613" lon="2.11672">
        <ele>138</ele>
        <time>2017-02-05T08:03:12.933Z</time>
      </trkpt>
      <trkpt lat="47.76606" lon="2.11657">
        <ele>138</ele>
        <time>2017-02-05T08:03:13.923Z</time>
      </trkpt>
      <trkpt lat="47.76606" lon="2.11657">
        <ele>138</ele>
        <time>2017-02-05T08:03:14.952Z</time>
      </trkpt>
      <trkpt lat="47.76599" lon="2.11643">
        <ele>139</ele>
        <time>2017-02-05T08:03:15.950Z</time>
      </trkpt>
      <trkpt lat="47.76599" lon="2.11643">
        <ele>139</ele>
        <time>2017-02-05T08:03:16.955Z</time>
      </trkpt>
      <trkpt lat="47.76593" lon="2.11628">
        <ele>139</ele>
        <time>2017-02-05T08:03:17.928Z</time>
      </trkpt>
      <trkpt lat="47.76593" lon="2.11628">
        <ele>139</ele>
        <time>2017-02-05T08:03:18.955Z</time>
      </trkpt>
      <trkpt lat="47.76586" lon="2.11615">
        <ele>139</ele>
        <time>2017-02-05T08:03:19.925Z</time>
      </trkpt>
      <trkpt lat="47.76586" lon="2.11615">
        <ele>139</ele>
        <time>2017-02-05T08:03:20.953Z</time>
      </trkpt>
      <trkpt lat="47.76581" lon="2.116">
        <ele>139</ele>
        <time>2017-02-05T08:03:21.949Z</time>
      </trkpt>
      <trkpt lat="47.76578" lon="2.11593">
        <ele>139</ele>
        <time>2017-02-05T08:03:22.925Z</time>
      </trkpt>
      <trkpt lat="47.76578" lon="2.11593">
        <ele>139</ele>
        <time>2017-02-05T08:03:23.952Z</time>
      </trkpt>
      <trkpt lat="47.76574" lon="2.11578">
        <ele>139</ele>
        <time>2017-02-05T08:03:24.953Z</time>
      </trkpt>
      <trkpt lat="47.76574" lon="2.11578">
        <ele>139</ele>
        <time>2017-02-05T08:03:25.958Z</time>
      </trkpt>
      <trkpt lat="47.76571" lon="2.11563">
        <ele>139</ele>
        <time>2017-02-05T08:03:26.952Z</time>
      </trkpt>
      <trkpt lat="47.76571" lon="2.11563">
        <ele>139</ele>
        <time>2017-02-05T08:03:27.925Z</time>
      </trkpt>
      <trkpt lat="47.76568" lon="2.11549">
        <ele>138</ele>
        <time>2017-02-05T08:03:28.961Z</time>
      </trkpt>
      <trkpt lat="47.76566" lon="2.11541">
        <ele>139</ele>
        <time>2017-02-05T08:03:29.939Z</time>
      </trkpt>
      <trkpt lat="47.76564" lon="2.11533">
        <ele>139</ele>
        <time>2017-02-05T08:03:30.960Z</time>
      </trkpt>
      <trkpt lat="47.76564" lon="2.11533">
        <ele>139</ele>
        <time>2017-02-05T08:03:31.933Z</time>
      </trkpt>
      <trkpt lat="47.76561" lon="2.11516">
        <ele>138</ele>
        <time>2017-02-05T08:03:32.985Z</time>
      </trkpt>
      <trkpt lat="47.76558" lon="2.11508">
        <ele>138</ele>
        <time>2017-02-05T08:03:33.939Z</time>
      </trkpt>
      <trkpt lat="47.76558" lon="2.11508">
        <ele>138</ele>
        <time>2017-02-05T08:03:34.943Z</time>
      </trkpt>
      <trkpt lat="47.76555" lon="2.1149">
        <ele>138</ele>
        <time>2017-02-05T08:03:35.946Z</time>
      </trkpt>
      <trkpt lat="47.76555" lon="2.1149">
        <ele>138</ele>
        <time>2017-02-05T08:03:36.942Z</time>
      </trkpt>
      <trkpt lat="47.76552" lon="2.11473">
        <ele>137</ele>
        <time>2017-02-05T08:03:37.954Z</time>
      </trkpt>
      <trkpt lat="47.76551" lon="2.11464">
        <ele>137</ele>
        <time>2017-02-05T08:03:38.926Z</time>
      </trkpt>
      <trkpt lat="47.76551" lon="2.11464">
        <ele>137</ele>
        <time>2017-02-05T08:03:39.953Z</time>
      </trkpt>
      <trkpt lat="47.76546" lon="2.11446">
        <ele>137</ele>
        <time>2017-02-05T08:03:40.949Z</time>
      </trkpt>
      <trkpt lat="47.76544" lon="2.11437">
        <ele>137</ele>
        <time>2017-02-05T08:03:41.925Z</time>
      </trkpt>
      <trkpt lat="47.76544" lon="2.11437">
        <ele>137</ele>
        <time>2017-02-05T08:03:42.952Z</time>
      </trkpt>
      <trkpt lat="47.76541" lon="2.11419">
        <ele>137</ele>
        <time>2017-02-05T08:03:43.951Z</time>
      </trkpt>
      <trkpt lat="47.76541" lon="2.11419">
        <ele>137</ele>
        <time>2017-02-05T08:03:44.924Z</time>
      </trkpt>
      <trkpt lat="47.76535" lon="2.11401">
        <ele>137</ele>
        <time>2017-02-05T08:03:45.960Z</time>
      </trkpt>
      <trkpt lat="47.76534" lon="2.11392">
        <ele>136</ele>
        <time>2017-02-05T08:03:46.927Z</time>
      </trkpt>
      <trkpt lat="47.76534" lon="2.11392">
        <ele>136</ele>
        <time>2017-02-05T08:03:47.953Z</time>
      </trkpt>
      <trkpt lat="47.76531" lon="2.11373">
        <ele>136</ele>
        <time>2017-02-05T08:03:48.954Z</time>
      </trkpt>
      <trkpt lat="47.76531" lon="2.11373">
        <ele>136</ele>
        <time>2017-02-05T08:03:49.945Z</time>
      </trkpt>
      <trkpt lat="47.76528" lon="2.11355">
        <ele>136</ele>
        <time>2017-02-05T08:03:50.935Z</time>
      </trkpt>
      <trkpt lat="47.76526" lon="2.11346">
        <ele>136</ele>
        <time>2017-02-05T08:03:51.953Z</time>
      </trkpt>
      <trkpt lat="47.76526" lon="2.11346">
        <ele>136</ele>
        <time>2017-02-05T08:03:52.945Z</time>
      </trkpt>
      <trkpt lat="47.76521" lon="2.11327">
        <ele>135</ele>
        <time>2017-02-05T08:03:53.950Z</time>
      </trkpt>
      <trkpt lat="47.76521" lon="2.11327">
        <ele>135</ele>
        <time>2017-02-05T08:03:54.957Z</time>
      </trkpt>
      <trkpt lat="47.76517" lon="2.11308">
        <ele>134</ele>
        <time>2017-02-05T08:03:55.955Z</time>
      </trkpt>
      <trkpt lat="47.76517" lon="2.11308">
        <ele>134</ele>
        <time>2017-02-05T08:03:56.960Z</time>
      </trkpt>
      <trkpt lat="47.76513" lon="2.11289">
        <ele>134</ele>
        <time>2017-02-05T08:03:57.959Z</time>
      </trkpt>
      <trkpt lat="47.76513" lon="2.11289">
        <ele>134</ele>
        <time>2017-02-05T08:03:58.933Z</time>
      </trkpt>
      <trkpt lat="47.7651" lon="2.1127">
        <ele>133</ele>
        <time>2017-02-05T08:03:59.923Z</time>
      </trkpt>
      <trkpt lat="47.7651" lon="2.1127">
        <ele>133</ele>
        <time>2017-02-05T08:04:00.958Z</time>
      </trkpt>
      <trkpt lat="47.76506" lon="2.11251">
        <ele>132</ele>
        <time>2017-02-05T08:04:01.941Z</time>
      </trkpt>
      <trkpt lat="47.76506" lon="2.11251">
        <ele>132</ele>
        <time>2017-02-05T08:04:02.948Z</time>
      </trkpt>
      <trkpt lat="47.76502" lon="2.11232">
        <ele>132</ele>
        <time>2017-02-05T08:04:03.955Z</time>
      </trkpt>
      <trkpt lat="47.76502" lon="2.11232">
        <ele>132</ele>
        <time>2017-02-05T08:04:04.935Z</time>
      </trkpt>
      <trkpt lat="47.76499" lon="2.11214">
        <ele>131</ele>
        <time>2017-02-05T08:04:05.925Z</time>
      </trkpt>
      <trkpt lat="47.76499" lon="2.11214">
        <ele>131</ele>
        <time>2017-02-05T08:04:06.953Z</time>
      </trkpt>
      <trkpt lat="47.76494" lon="2.11196">
        <ele>131</ele>
        <time>2017-02-05T08:04:07.939Z</time>
      </trkpt>
      <trkpt lat="47.76492" lon="2.11187">
        <ele>131</ele>
        <time>2017-02-05T08:04:08.945Z</time>
      </trkpt>
      <trkpt lat="47.76492" lon="2.11187">
        <ele>131</ele>
        <time>2017-02-05T08:04:09.953Z</time>
      </trkpt>
      <trkpt lat="47.76488" lon="2.11169">
        <ele>131</ele>
        <time>2017-02-05T08:04:10.956Z</time>
      </trkpt>
      <trkpt lat="47.76488" lon="2.11169">
        <ele>131</ele>
        <time>2017-02-05T08:04:11.960Z</time>
      </trkpt>
      <trkpt lat="47.76485" lon="2.1115">
        <ele>131</ele>
        <time>2017-02-05T08:04:12.956Z</time>
      </trkpt>
      <trkpt lat="47.76485" lon="2.1115">
        <ele>131</ele>
        <time>2017-02-05T08:04:13.927Z</time>
      </trkpt>
      <trkpt lat="47.76481" lon="2.11132">
        <ele>130</ele>
        <time>2017-02-05T08:04:14.933Z</time>
      </trkpt>
      <trkpt lat="47.76479" lon="2.11123">
        <ele>130</ele>
        <time>2017-02-05T08:04:15.924Z</time>
      </trkpt>
      <trkpt lat="47.76479" lon="2.11123">
        <ele>130</ele>
        <time>2017-02-05T08:04:16.952Z</time>
      </trkpt>
      <trkpt lat="47.76475" lon="2.11105">
        <ele>130</ele>
        <time>2017-02-05T08:04:17.952Z</time>
      </trkpt>
      <trkpt lat="47.76475" lon="2.11105">
        <ele>130</ele>
        <time>2017-02-05T08:04:18.958Z</time>
      </trkpt>
      <trkpt lat="47.76472" lon="2.11088">
        <ele>130</ele>
        <time>2017-02-05T08:04:19.923Z</time>
      </trkpt>
      <trkpt lat="47.76472" lon="2.11088">
        <ele>130</ele>
        <time>2017-02-05T08:04:20.950Z</time>
      </trkpt>
      <trkpt lat="47.76468" lon="2.11071">
        <ele>130</ele>
        <time>2017-02-05T08:04:21.954Z</time>
      </trkpt>
      <trkpt lat="47.76468" lon="2.11071">
        <ele>130</ele>
        <time>2017-02-05T08:04:22.958Z</time>
      </trkpt>
      <trkpt lat="47.76465" lon="2.11056">
        <ele>129</ele>
        <time>2017-02-05T08:04:23.986Z</time>
      </trkpt>
      <trkpt lat="47.76463" lon="2.11049">
        <ele>129</ele>
        <time>2017-02-05T08:04:24.951Z</time>
      </trkpt>
      <trkpt lat="47.76463" lon="2.11049">
        <ele>129</ele>
        <time>2017-02-05T08:04:25.960Z</time>
      </trkpt>
      <trkpt lat="47.7646" lon="2.11035">
        <ele>129</ele>
        <time>2017-02-05T08:04:26.960Z</time>
      </trkpt>
      <trkpt lat="47.76458" lon="2.11029">
        <ele>129</ele>
        <time>2017-02-05T08:04:27.923Z</time>
      </trkpt>
      <trkpt lat="47.76458" lon="2.11029">
        <ele>129</ele>
        <time>2017-02-05T08:04:28.952Z</time>
      </trkpt>
      <trkpt lat="47.76457" lon="2.11016">
        <ele>128</ele>
        <time>2017-02-05T08:04:29.950Z</time>
      </trkpt>
      <trkpt lat="47.76456" lon="2.11009">
        <ele>128</ele>
        <time>2017-02-05T08:04:30.925Z</time>
      </trkpt>
      <trkpt lat="47.76456" lon="2.11009">
        <ele>128</ele>
        <time>2017-02-05T08:04:31.955Z</time>
      </trkpt>
      <trkpt lat="47.76453" lon="2.10995">
        <ele>127</ele>
        <time>2017-02-05T08:04:32.925Z</time>
      </trkpt>
      <trkpt lat="47.76453" lon="2.10995">
        <ele>127</ele>
        <time>2017-02-05T08:04:33.953Z</time>
      </trkpt>
      <trkpt lat="47.76449" lon="2.10978">
        <ele>126</ele>
        <time>2017-02-05T08:04:34.934Z</time>
      </trkpt>
      <trkpt lat="47.76449" lon="2.10978">
        <ele>126</ele>
        <time>2017-02-05T08:04:35.922Z</time>
      </trkpt>
      <trkpt lat="47.76448" lon="2.10965">
        <ele>125</ele>
        <time>2017-02-05T08:04:36.952Z</time>
      </trkpt>
      <trkpt lat="47.76447" lon="2.1096">
        <ele>124</ele>
        <time>2017-02-05T08:04:37.926Z</time>
      </trkpt>
      <trkpt lat="47.76447" lon="2.1096">
        <ele>124</ele>
        <time>2017-02-05T08:04:38.953Z</time>
      </trkpt>
      <trkpt lat="47.76444" lon="2.10952">
        <ele>123</ele>
        <time>2017-02-05T08:04:39.924Z</time>
      </trkpt>
      <trkpt lat="47.76444" lon="2.10952">
        <ele>123</ele>
        <time>2017-02-05T08:04:40.952Z</time>
      </trkpt>
      <trkpt lat="47.76443" lon="2.10946">
        <ele>122</ele>
        <time>2017-02-05T08:04:41.954Z</time>
      </trkpt>
      <trkpt lat="47.76443" lon="2.10943">
        <ele>122</ele>
        <time>2017-02-05T08:04:42.950Z</time>
      </trkpt>
      <trkpt lat="47.76443" lon="2.10941">
        <ele>121</ele>
        <time>2017-02-05T08:04:43.927Z</time>
      </trkpt>
      <trkpt lat="47.76443" lon="2.10941">
        <ele>121</ele>
        <time>2017-02-05T08:04:44.954Z</time>
      </trkpt>
      <trkpt lat="47.76442" lon="2.1094">
        <ele>122</ele>
        <time>2017-02-05T08:04:45.929Z</time>
      </trkpt>
      <trkpt lat="47.76442" lon="2.1094">
        <ele>122</ele>
        <time>2017-02-05T08:04:46.956Z</time>
      </trkpt>
      <trkpt lat="47.76442" lon="2.10939">
        <ele>123</ele>
        <time>2017-02-05T08:04:47.948Z</time>
      </trkpt>
      <trkpt lat="47.76442" lon="2.10939">
        <ele>123</ele>
        <time>2017-02-05T08:04:48.940Z</time>
      </trkpt>
      <trkpt lat="47.76434" lon="2.10929">
        <ele>130</ele>
        <time>2017-02-05T08:04:49.935Z</time>
      </trkpt>
      <trkpt lat="47.76434" lon="2.10929">
        <ele>130</ele>
        <time>2017-02-05T08:04:50.924Z</time>
      </trkpt>
      <trkpt lat="47.76428" lon="2.10935">
        <ele>130</ele>
        <time>2017-02-05T08:04:51.925Z</time>
      </trkpt>
      <trkpt lat="47.76428" lon="2.10935">
        <ele>130</ele>
        <time>2017-02-05T08:04:52.959Z</time>
      </trkpt>
      <trkpt lat="47.76423" lon="2.10941">
        <ele>130</ele>
        <time>2017-02-05T08:04:53.926Z</time>
      </trkpt>
      <trkpt lat="47.76423" lon="2.10941">
        <ele>130</ele>
        <time>2017-02-05T08:04:54.959Z</time>
      </trkpt>
      <trkpt lat="47.76418" lon="2.10946">
        <ele>130</ele>
        <time>2017-02-05T08:04:55.925Z</time>
      </trkpt>
      <trkpt lat="47.76418" lon="2.10946">
        <ele>130</ele>
        <time>2017-02-05T08:04:56.950Z</time>
      </trkpt>
      <trkpt lat="47.76412" lon="2.10952">
        <ele>130</ele>
        <time>2017-02-05T08:04:57.940Z</time>
      </trkpt>
      <trkpt lat="47.76412" lon="2.10952">
        <ele>130</ele>
        <time>2017-02-05T08:04:58.935Z</time>
      </trkpt>
      <trkpt lat="47.76405" lon="2.10957">
        <ele>131</ele>
        <time>2017-02-05T08:04:59.924Z</time>
      </trkpt>
      <trkpt lat="47.76405" lon="2.10957">
        <ele>131</ele>
        <time>2017-02-05T08:05:00.960Z</time>
      </trkpt>
      <trkpt lat="47.76398" lon="2.10964">
        <ele>131</ele>
        <time>2017-02-05T08:05:01.939Z</time>
      </trkpt>
      <trkpt lat="47.76398" lon="2.10964">
        <ele>131</ele>
        <time>2017-02-05T08:05:02.930Z</time>
      </trkpt>
      <trkpt lat="47.76392" lon="2.10971">
        <ele>131</ele>
        <time>2017-02-05T08:05:03.940Z</time>
      </trkpt>
      <trkpt lat="47.76392" lon="2.10971">
        <ele>131</ele>
        <time>2017-02-05T08:05:04.930Z</time>
      </trkpt>
      <trkpt lat="47.76385" lon="2.10978">
        <ele>131</ele>
        <time>2017-02-05T08:05:05.926Z</time>
      </trkpt>
      <trkpt lat="47.76385" lon="2.10978">
        <ele>131</ele>
        <time>2017-02-05T08:05:06.961Z</time>
      </trkpt>
      <trkpt lat="47.76378" lon="2.10986">
        <ele>132</ele>
        <time>2017-02-05T08:05:07.926Z</time>
      </trkpt>
      <trkpt lat="47.76378" lon="2.10986">
        <ele>132</ele>
        <time>2017-02-05T08:05:08.961Z</time>
      </trkpt>
      <trkpt lat="47.76372" lon="2.10992">
        <ele>131</ele>
        <time>2017-02-05T08:05:09.925Z</time>
      </trkpt>
      <trkpt lat="47.76372" lon="2.10992">
        <ele>131</ele>
        <time>2017-02-05T08:05:10.961Z</time>
      </trkpt>
      <trkpt lat="47.76366" lon="2.10999">
        <ele>130</ele>
        <time>2017-02-05T08:05:11.926Z</time>
      </trkpt>
      <trkpt lat="47.76366" lon="2.10999">
        <ele>130</ele>
        <time>2017-02-05T08:05:12.960Z</time>
      </trkpt>
      <trkpt lat="47.7636" lon="2.11005">
        <ele>130</ele>
        <time>2017-02-05T08:05:13.945Z</time>
      </trkpt>
      <trkpt lat="47.76357" lon="2.11008">
        <ele>130</ele>
        <time>2017-02-05T08:05:14.955Z</time>
      </trkpt>
      <trkpt lat="47.76355" lon="2.1101">
        <ele>130</ele>
        <time>2017-02-05T08:05:15.925Z</time>
      </trkpt>
      <trkpt lat="47.76355" lon="2.1101">
        <ele>130</ele>
        <time>2017-02-05T08:05:16.959Z</time>
      </trkpt>
      <trkpt lat="47.76351" lon="2.11015">
        <ele>129</ele>
        <time>2017-02-05T08:05:17.928Z</time>
      </trkpt>
      <trkpt lat="47.76351" lon="2.11015">
        <ele>129</ele>
        <time>2017-02-05T08:05:18.960Z</time>
      </trkpt>
      <trkpt lat="47.76347" lon="2.11019">
        <ele>129</ele>
        <time>2017-02-05T08:05:19.943Z</time>
      </trkpt>
      <trkpt lat="47.76347" lon="2.11019">
        <ele>129</ele>
        <time>2017-02-05T08:05:20.933Z</time>
      </trkpt>
      <trkpt lat="47.76343" lon="2.11024">
        <ele>129</ele>
        <time>2017-02-05T08:05:21.925Z</time>
      </trkpt>
      <trkpt lat="47.76343" lon="2.11024">
        <ele>129</ele>
        <time>2017-02-05T08:05:22.959Z</time>
      </trkpt>
      <trkpt lat="47.76338" lon="2.11029">
        <ele>129</ele>
        <time>2017-02-05T08:05:23.927Z</time>
      </trkpt>
      <trkpt lat="47.76338" lon="2.11029">
        <ele>129</ele>
        <time>2017-02-05T08:05:24.959Z</time>
      </trkpt>
      <trkpt lat="47.76332" lon="2.11036">
        <ele>128</ele>
        <time>2017-02-05T08:05:25.925Z</time>
      </trkpt>
      <trkpt lat="47.76332" lon="2.11036">
        <ele>128</ele>
        <time>2017-02-05T08:05:26.959Z</time>
      </trkpt>
      <trkpt lat="47.76325" lon="2.11042">
        <ele>128</ele>
        <time>2017-02-05T08:05:27.925Z</time>
      </trkpt>
      <trkpt lat="47.76325" lon="2.11042">
        <ele>128</ele>
        <time>2017-02-05T08:05:28.922Z</time>
      </trkpt>
      <trkpt lat="47.76319" lon="2.11049">
        <ele>127</ele>
        <time>2017-02-05T08:05:29.926Z</time>
      </trkpt>
      <trkpt lat="47.76319" lon="2.11049">
        <ele>127</ele>
        <time>2017-02-05T08:05:30.961Z</time>
      </trkpt>
      <trkpt lat="47.76312" lon="2.11056">
        <ele>127</ele>
        <time>2017-02-05T08:05:31.925Z</time>
      </trkpt>
      <trkpt lat="47.76312" lon="2.11056">
        <ele>127</ele>
        <time>2017-02-05T08:05:32.960Z</time>
      </trkpt>
      <trkpt lat="47.76305" lon="2.11064">
        <ele>127</ele>
        <time>2017-02-05T08:05:33.931Z</time>
      </trkpt>
      <trkpt lat="47.76301" lon="2.11068">
        <ele>127</ele>
        <time>2017-02-05T08:05:34.925Z</time>
      </trkpt>
      <trkpt lat="47.76301" lon="2.11068">
        <ele>127</ele>
        <time>2017-02-05T08:05:35.924Z</time>
      </trkpt>
      <trkpt lat="47.76292" lon="2.11077">
        <ele>126</ele>
        <time>2017-02-05T08:05:36.923Z</time>
      </trkpt>
      <trkpt lat="47.76288" lon="2.11082">
        <ele>126</ele>
        <time>2017-02-05T08:05:37.927Z</time>
      </trkpt>
      <trkpt lat="47.76288" lon="2.11082">
        <ele>126</ele>
        <time>2017-02-05T08:05:38.961Z</time>
      </trkpt>
      <trkpt lat="47.76278" lon="2.11091">
        <ele>126</ele>
        <time>2017-02-05T08:05:39.925Z</time>
      </trkpt>
      <trkpt lat="47.76273" lon="2.11097">
        <ele>126</ele>
        <time>2017-02-05T08:05:40.927Z</time>
      </trkpt>
      <trkpt lat="47.76273" lon="2.11097">
        <ele>126</ele>
        <time>2017-02-05T08:05:41.924Z</time>
      </trkpt>
      <trkpt lat="47.76262" lon="2.11108">
        <ele>125</ele>
        <time>2017-02-05T08:05:42.926Z</time>
      </trkpt>
      <trkpt lat="47.76257" lon="2.11113">
        <ele>125</ele>
        <time>2017-02-05T08:05:43.925Z</time>
      </trkpt>
      <trkpt lat="47.76257" lon="2.11113">
        <ele>125</ele>
        <time>2017-02-05T08:05:44.923Z</time>
      </trkpt>
      <trkpt lat="47.76245" lon="2.11125">
        <ele>125</ele>
        <time>2017-02-05T08:05:45.925Z</time>
      </trkpt>
      <trkpt lat="47.76245" lon="2.11125">
        <ele>125</ele>
        <time>2017-02-05T08:05:46.956Z</time>
      </trkpt>
      <trkpt lat="47.76234" lon="2.11139">
        <ele>125</ele>
        <time>2017-02-05T08:05:47.924Z</time>
      </trkpt>
      <trkpt lat="47.76234" lon="2.11139">
        <ele>125</ele>
        <time>2017-02-05T08:05:48.959Z</time>
      </trkpt>
      <trkpt lat="47.76222" lon="2.11151">
        <ele>125</ele>
        <time>2017-02-05T08:05:49.926Z</time>
      </trkpt>
      <trkpt lat="47.76222" lon="2.11151">
        <ele>125</ele>
        <time>2017-02-05T08:05:50.960Z</time>
      </trkpt>
      <trkpt lat="47.76212" lon="2.11161">
        <ele>125</ele>
        <time>2017-02-05T08:05:51.925Z</time>
      </trkpt>
      <trkpt lat="47.76206" lon="2.11167">
        <ele>125</ele>
        <time>2017-02-05T08:05:52.927Z</time>
      </trkpt>
      <trkpt lat="47.76201" lon="2.11172">
        <ele>125</ele>
        <time>2017-02-05T08:05:53.937Z</time>
      </trkpt>
      <trkpt lat="47.76196" lon="2.11177">
        <ele>125</ele>
        <time>2017-02-05T08:05:54.953Z</time>
      </trkpt>
      <trkpt lat="47.76196" lon="2.11177">
        <ele>125</ele>
        <time>2017-02-05T08:05:55.941Z</time>
      </trkpt>
      <trkpt lat="47.76187" lon="2.11188">
        <ele>125</ele>
        <time>2017-02-05T08:05:56.933Z</time>
      </trkpt>
      <trkpt lat="47.76182" lon="2.11193">
        <ele>125</ele>
        <time>2017-02-05T08:05:57.926Z</time>
      </trkpt>
      <trkpt lat="47.76182" lon="2.11193">
        <ele>125</ele>
        <time>2017-02-05T08:05:58.941Z</time>
      </trkpt>
      <trkpt lat="47.76172" lon="2.11203">
        <ele>124</ele>
        <time>2017-02-05T08:05:59.933Z</time>
      </trkpt>
      <trkpt lat="47.76172" lon="2.11203">
        <ele>124</ele>
        <time>2017-02-05T08:06:00.923Z</time>
      </trkpt>
      <trkpt lat="47.76164" lon="2.11213">
        <ele>124</ele>
        <time>2017-02-05T08:06:01.926Z</time>
      </trkpt>
      <trkpt lat="47.76164" lon="2.11213">
        <ele>124</ele>
        <time>2017-02-05T08:06:02.923Z</time>
      </trkpt>
      <trkpt lat="47.76154" lon="2.11223">
        <ele>123</ele>
        <time>2017-02-05T08:06:03.932Z</time>
      </trkpt>
      <trkpt lat="47.76149" lon="2.11228">
        <ele>123</ele>
        <time>2017-02-05T08:06:04.925Z</time>
      </trkpt>
      <trkpt lat="47.76145" lon="2.11232">
        <ele>123</ele>
        <time>2017-02-05T08:06:05.926Z</time>
      </trkpt>
      <trkpt lat="47.76145" lon="2.11232">
        <ele>123</ele>
        <time>2017-02-05T08:06:06.923Z</time>
      </trkpt>
      <trkpt lat="47.76136" lon="2.11242">
        <ele>122</ele>
        <time>2017-02-05T08:06:07.936Z</time>
      </trkpt>
      <trkpt lat="47.76136" lon="2.11242">
        <ele>122</ele>
        <time>2017-02-05T08:06:08.930Z</time>
      </trkpt>
      <trkpt lat="47.76128" lon="2.1125">
        <ele>122</ele>
        <time>2017-02-05T08:06:09.925Z</time>
      </trkpt>
      <trkpt lat="47.76128" lon="2.1125">
        <ele>122</ele>
        <time>2017-02-05T08:06:10.923Z</time>
      </trkpt>
      <trkpt lat="47.76121" lon="2.11259">
        <ele>121</ele>
        <time>2017-02-05T08:06:11.926Z</time>
      </trkpt>
      <trkpt lat="47.76121" lon="2.11259">
        <ele>121</ele>
        <time>2017-02-05T08:06:12.960Z</time>
      </trkpt>
      <trkpt lat="47.76113" lon="2.11267">
        <ele>121</ele>
        <time>2017-02-05T08:06:13.926Z</time>
      </trkpt>
      <trkpt lat="47.76113" lon="2.11267">
        <ele>121</ele>
        <time>2017-02-05T08:06:14.960Z</time>
      </trkpt>
      <trkpt lat="47.76105" lon="2.11274">
        <ele>121</ele>
        <time>2017-02-05T08:06:15.925Z</time>
      </trkpt>
      <trkpt lat="47.76105" lon="2.11274">
        <ele>121</ele>
        <time>2017-02-05T08:06:16.924Z</time>
      </trkpt>
      <trkpt lat="47.76094" lon="2.11277">
        <ele>121</ele>
        <time>2017-02-05T08:06:17.927Z</time>
      </trkpt>
      <trkpt lat="47.76094" lon="2.11277">
        <ele>121</ele>
        <time>2017-02-05T08:06:18.960Z</time>
      </trkpt>
      <trkpt lat="47.76085" lon="2.11276">
        <ele>121</ele>
        <time>2017-02-05T08:06:19.925Z</time>
      </trkpt>
      <trkpt lat="47.76085" lon="2.11276">
        <ele>121</ele>
        <time>2017-02-05T08:06:20.960Z</time>
      </trkpt>
      <trkpt lat="47.76075" lon="2.11273">
        <ele>121</ele>
        <time>2017-02-05T08:06:21.926Z</time>
      </trkpt>
      <trkpt lat="47.76075" lon="2.11273">
        <ele>121</ele>
        <time>2017-02-05T08:06:22.923Z</time>
      </trkpt>
      <trkpt lat="47.76065" lon="2.11269">
        <ele>121</ele>
        <time>2017-02-05T08:06:23.934Z</time>
      </trkpt>
      <trkpt lat="47.76061" lon="2.11268">
        <ele>122</ele>
        <time>2017-02-05T08:06:24.924Z</time>
      </trkpt>
      <trkpt lat="47.76061" lon="2.11268">
        <ele>122</ele>
        <time>2017-02-05T08:06:25.961Z</time>
      </trkpt>
      <trkpt lat="47.76051" lon="2.11264">
        <ele>122</ele>
        <time>2017-02-05T08:06:26.928Z</time>
      </trkpt>
      <trkpt lat="47.76051" lon="2.11264">
        <ele>122</ele>
        <time>2017-02-05T08:06:27.925Z</time>
      </trkpt>
      <trkpt lat="47.76042" lon="2.11261">
        <ele>123</ele>
        <time>2017-02-05T08:06:28.925Z</time>
      </trkpt>
      <trkpt lat="47.76037" lon="2.11259">
        <ele>123</ele>
        <time>2017-02-05T08:06:29.928Z</time>
      </trkpt>
      <trkpt lat="47.76037" lon="2.11259">
        <ele>123</ele>
        <time>2017-02-05T08:06:30.923Z</time>
      </trkpt>
      <trkpt lat="47.76027" lon="2.11255">
        <ele>124</ele>
        <time>2017-02-05T08:06:31.935Z</time>
      </trkpt>
      <trkpt lat="47.76027" lon="2.11255">
        <ele>124</ele>
        <time>2017-02-05T08:06:32.924Z</time>
      </trkpt>
      <trkpt lat="47.76017" lon="2.11252">
        <ele>124</ele>
        <time>2017-02-05T08:06:33.935Z</time>
      </trkpt>
      <trkpt lat="47.76013" lon="2.1125">
        <ele>125</ele>
        <time>2017-02-05T08:06:34.925Z</time>
      </trkpt>
      <trkpt lat="47.76008" lon="2.11248">
        <ele>125</ele>
        <time>2017-02-05T08:06:35.927Z</time>
      </trkpt>
      <trkpt lat="47.76008" lon="2.11248">
        <ele>125</ele>
        <time>2017-02-05T08:06:36.923Z</time>
      </trkpt>
      <trkpt lat="47.75998" lon="2.11245">
        <ele>125</ele>
        <time>2017-02-05T08:06:37.926Z</time>
      </trkpt>
      <trkpt lat="47.75998" lon="2.11245">
        <ele>125</ele>
        <time>2017-02-05T08:06:38.923Z</time>
      </trkpt>
      <trkpt lat="47.75988" lon="2.1124">
        <ele>126</ele>
        <time>2017-02-05T08:06:39.927Z</time>
      </trkpt>
      <trkpt lat="47.75988" lon="2.1124">
        <ele>126</ele>
        <time>2017-02-05T08:06:40.923Z</time>
      </trkpt>
      <trkpt lat="47.75979" lon="2.11236">
        <ele>127</ele>
        <time>2017-02-05T08:06:41.925Z</time>
      </trkpt>
      <trkpt lat="47.75979" lon="2.11236">
        <ele>127</ele>
        <time>2017-02-05T08:06:42.961Z</time>
      </trkpt>
      <trkpt lat="47.75967" lon="2.11233">
        <ele>127</ele>
        <time>2017-02-05T08:06:43.936Z</time>
      </trkpt>
      <trkpt lat="47.75967" lon="2.11233">
        <ele>127</ele>
        <time>2017-02-05T08:06:44.927Z</time>
      </trkpt>
      <trkpt lat="47.75956" lon="2.11229">
        <ele>128</ele>
        <time>2017-02-05T08:06:45.925Z</time>
      </trkpt>
      <trkpt lat="47.75951" lon="2.11228">
        <ele>128</ele>
        <time>2017-02-05T08:06:46.927Z</time>
      </trkpt>
      <trkpt lat="47.75951" lon="2.11228">
        <ele>128</ele>
        <time>2017-02-05T08:06:47.961Z</time>
      </trkpt>
      <trkpt lat="47.7594" lon="2.11224">
        <ele>128</ele>
        <time>2017-02-05T08:06:48.925Z</time>
      </trkpt>
      <trkpt lat="47.75934" lon="2.11222">
        <ele>128</ele>
        <time>2017-02-05T08:06:49.926Z</time>
      </trkpt>
      <trkpt lat="47.75934" lon="2.11222">
        <ele>128</ele>
        <time>2017-02-05T08:06:50.923Z</time>
      </trkpt>
      <trkpt lat="47.75922" lon="2.11219">
        <ele>129</ele>
        <time>2017-02-05T08:06:51.926Z</time>
      </trkpt>
      <trkpt lat="47.75922" lon="2.11219">
        <ele>129</ele>
        <time>2017-02-05T08:06:52.923Z</time>
      </trkpt>
      <trkpt lat="47.75911" lon="2.11216">
        <ele>129</ele>
        <time>2017-02-05T08:06:53.936Z</time>
      </trkpt>
      <trkpt lat="47.75906" lon="2.11215">
        <ele>129</ele>
        <time>2017-02-05T08:06:54.927Z</time>
      </trkpt>
      <trkpt lat="47.75906" lon="2.11215">
        <ele>129</ele>
        <time>2017-02-05T08:06:55.961Z</time>
      </trkpt>
      <trkpt lat="47.75896" lon="2.11211">
        <ele>130</ele>
        <time>2017-02-05T08:06:56.926Z</time>
      </trkpt>
      <trkpt lat="47.75896" lon="2.11211">
        <ele>130</ele>
        <time>2017-02-05T08:06:57.960Z</time>
      </trkpt>
      <trkpt lat="47.75887" lon="2.11208">
        <ele>130</ele>
        <time>2017-02-05T08:06:58.925Z</time>
      </trkpt>
      <trkpt lat="47.75882" lon="2.11206">
        <ele>130</ele>
        <time>2017-02-05T08:06:59.927Z</time>
      </trkpt>
      <trkpt lat="47.75882" lon="2.11206">
        <ele>130</ele>
        <time>2017-02-05T08:07:00.923Z</time>
      </trkpt>
      <trkpt lat="47.75873" lon="2.11203">
        <ele>130</ele>
        <time>2017-02-05T08:07:01.929Z</time>
      </trkpt>
      <trkpt lat="47.75873" lon="2.11203">
        <ele>130</ele>
        <time>2017-02-05T08:07:02.924Z</time>
      </trkpt>
      <trkpt lat="47.75864" lon="2.11199">
        <ele>131</ele>
        <time>2017-02-05T08:07:03.927Z</time>
      </trkpt>
      <trkpt lat="47.75864" lon="2.11199">
        <ele>131</ele>
        <time>2017-02-05T08:07:04.923Z</time>
      </trkpt>
      <trkpt lat="47.75854" lon="2.11195">
        <ele>131</ele>
        <time>2017-02-05T08:07:05.927Z</time>
      </trkpt>
      <trkpt lat="47.75854" lon="2.11195">
        <ele>131</ele>
        <time>2017-02-05T08:07:06.923Z</time>
      </trkpt>
      <trkpt lat="47.75843" lon="2.11191">
        <ele>132</ele>
        <time>2017-02-05T08:07:07.925Z</time>
      </trkpt>
      <trkpt lat="47.75837" lon="2.1119">
        <ele>132</ele>
        <time>2017-02-05T08:07:08.925Z</time>
      </trkpt>
      <trkpt lat="47.75837" lon="2.1119">
        <ele>132</ele>
        <time>2017-02-05T08:07:09.922Z</time>
      </trkpt>
      <trkpt lat="47.75827" lon="2.11186">
        <ele>132</ele>
        <time>2017-02-05T08:07:10.924Z</time>
      </trkpt>
      <trkpt lat="47.75822" lon="2.11185">
        <ele>133</ele>
        <time>2017-02-05T08:07:11.929Z</time>
      </trkpt>
      <trkpt lat="47.75822" lon="2.11185">
        <ele>133</ele>
        <time>2017-02-05T08:07:12.960Z</time>
      </trkpt>
      <trkpt lat="47.75811" lon="2.11182">
        <ele>133</ele>
        <time>2017-02-05T08:07:13.926Z</time>
      </trkpt>
      <trkpt lat="47.75811" lon="2.11182">
        <ele>133</ele>
        <time>2017-02-05T08:07:14.961Z</time>
      </trkpt>
      <trkpt lat="47.75801" lon="2.11179">
        <ele>133</ele>
        <time>2017-02-05T08:07:15.926Z</time>
      </trkpt>
      <trkpt lat="47.75801" lon="2.11179">
        <ele>133</ele>
        <time>2017-02-05T08:07:16.961Z</time>
      </trkpt>
      <trkpt lat="47.75791" lon="2.11175">
        <ele>133</ele>
        <time>2017-02-05T08:07:17.948Z</time>
      </trkpt>
      <trkpt lat="47.75791" lon="2.11175">
        <ele>133</ele>
        <time>2017-02-05T08:07:18.942Z</time>
      </trkpt>
      <trkpt lat="47.7578" lon="2.11171">
        <ele>134</ele>
        <time>2017-02-05T08:07:19.924Z</time>
      </trkpt>
      <trkpt lat="47.7578" lon="2.11171">
        <ele>134</ele>
        <time>2017-02-05T08:07:20.961Z</time>
      </trkpt>
      <trkpt lat="47.75767" lon="2.11167">
        <ele>134</ele>
        <time>2017-02-05T08:07:21.926Z</time>
      </trkpt>
      <trkpt lat="47.75762" lon="2.11165">
        <ele>134</ele>
        <time>2017-02-05T08:07:22.927Z</time>
      </trkpt>
      <trkpt lat="47.75762" lon="2.11165">
        <ele>134</ele>
        <time>2017-02-05T08:07:23.932Z</time>
      </trkpt>
      <trkpt lat="47.75751" lon="2.11162">
        <ele>134</ele>
        <time>2017-02-05T08:07:24.926Z</time>
      </trkpt>
      <trkpt lat="47.75751" lon="2.11162">
        <ele>134</ele>
        <time>2017-02-05T08:07:25.962Z</time>
      </trkpt>
      <trkpt lat="47.7574" lon="2.11159">
        <ele>134</ele>
        <time>2017-02-05T08:07:26.925Z</time>
      </trkpt>
      <trkpt lat="47.7574" lon="2.11159">
        <ele>134</ele>
        <time>2017-02-05T08:07:27.958Z</time>
      </trkpt>
      <trkpt lat="47.7573" lon="2.11156">
        <ele>134</ele>
        <time>2017-02-05T08:07:28.925Z</time>
      </trkpt>
      <trkpt lat="47.75725" lon="2.11154">
        <ele>133</ele>
        <time>2017-02-05T08:07:29.932Z</time>
      </trkpt>
      <trkpt lat="47.75725" lon="2.11154">
        <ele>133</ele>
        <time>2017-02-05T08:07:30.922Z</time>
      </trkpt>
      <trkpt lat="47.75714" lon="2.11152">
        <ele>133</ele>
        <time>2017-02-05T08:07:31.927Z</time>
      </trkpt>
      <trkpt lat="47.75714" lon="2.11152">
        <ele>133</ele>
        <time>2017-02-05T08:07:32.924Z</time>
      </trkpt>
      <trkpt lat="47.75705" lon="2.11148">
        <ele>133</ele>
        <time>2017-02-05T08:07:33.933Z</time>
      </trkpt>
      <trkpt lat="47.75705" lon="2.11148">
        <ele>133</ele>
        <time>2017-02-05T08:07:34.922Z</time>
      </trkpt>
      <trkpt lat="47.75695" lon="2.11145">
        <ele>133</ele>
        <time>2017-02-05T08:07:35.925Z</time>
      </trkpt>
      <trkpt lat="47.7569" lon="2.11144">
        <ele>133</ele>
        <time>2017-02-05T08:07:36.927Z</time>
      </trkpt>
      <trkpt lat="47.7569" lon="2.11144">
        <ele>133</ele>
        <time>2017-02-05T08:07:37.942Z</time>
      </trkpt>
      <trkpt lat="47.75681" lon="2.1114">
        <ele>134</ele>
        <time>2017-02-05T08:07:38.925Z</time>
      </trkpt>
      <trkpt lat="47.75681" lon="2.1114">
        <ele>134</ele>
        <time>2017-02-05T08:07:39.960Z</time>
      </trkpt>
      <trkpt lat="47.75672" lon="2.11137">
        <ele>133</ele>
        <time>2017-02-05T08:07:40.925Z</time>
      </trkpt>
      <trkpt lat="47.75668" lon="2.11136">
        <ele>133</ele>
        <time>2017-02-05T08:07:41.926Z</time>
      </trkpt>
      <trkpt lat="47.75668" lon="2.11136">
        <ele>133</ele>
        <time>2017-02-05T08:07:42.924Z</time>
      </trkpt>
      <trkpt lat="47.7566" lon="2.11133">
        <ele>133</ele>
        <time>2017-02-05T08:07:43.932Z</time>
      </trkpt>
      <trkpt lat="47.75656" lon="2.11131">
        <ele>133</ele>
        <time>2017-02-05T08:07:44.926Z</time>
      </trkpt>
      <trkpt lat="47.75656" lon="2.11131">
        <ele>133</ele>
        <time>2017-02-05T08:07:45.928Z</time>
      </trkpt>
      <trkpt lat="47.75647" lon="2.11129">
        <ele>132</ele>
        <time>2017-02-05T08:07:46.927Z</time>
      </trkpt>
      <trkpt lat="47.75643" lon="2.11127">
        <ele>132</ele>
        <time>2017-02-05T08:07:47.927Z</time>
      </trkpt>
      <trkpt lat="47.75643" lon="2.11127">
        <ele>132</ele>
        <time>2017-02-05T08:07:48.961Z</time>
      </trkpt>
      <trkpt lat="47.75635" lon="2.11125">
        <ele>132</ele>
        <time>2017-02-05T08:07:49.927Z</time>
      </trkpt>
      <trkpt lat="47.75635" lon="2.11125">
        <ele>132</ele>
        <time>2017-02-05T08:07:50.923Z</time>
      </trkpt>
      <trkpt lat="47.75625" lon="2.11123">
        <ele>132</ele>
        <time>2017-02-05T08:07:51.926Z</time>
      </trkpt>
      <trkpt lat="47.75622" lon="2.11122">
        <ele>132</ele>
        <time>2017-02-05T08:07:52.927Z</time>
      </trkpt>
      <trkpt lat="47.75618" lon="2.1112">
        <ele>132</ele>
        <time>2017-02-05T08:07:53.934Z</time>
      </trkpt>
      <trkpt lat="47.75618" lon="2.1112">
        <ele>132</ele>
        <time>2017-02-05T08:07:54.923Z</time>
      </trkpt>
      <trkpt lat="47.7561" lon="2.11118">
        <ele>132</ele>
        <time>2017-02-05T08:07:55.926Z</time>
      </trkpt>
      <trkpt lat="47.7561" lon="2.11118">
        <ele>132</ele>
        <time>2017-02-05T08:07:56.932Z</time>
      </trkpt>
      <trkpt lat="47.75601" lon="2.11116">
        <ele>132</ele>
        <time>2017-02-05T08:07:57.926Z</time>
      </trkpt>
      <trkpt lat="47.75601" lon="2.11116">
        <ele>132</ele>
        <time>2017-02-05T08:07:58.925Z</time>
      </trkpt>
      <trkpt lat="47.75593" lon="2.11112">
        <ele>132</ele>
        <time>2017-02-05T08:07:59.925Z</time>
      </trkpt>
      <trkpt lat="47.75593" lon="2.11112">
        <ele>132</ele>
        <time>2017-02-05T08:08:00.961Z</time>
      </trkpt>
      <trkpt lat="47.75584" lon="2.11108">
        <ele>132</ele>
        <time>2017-02-05T08:08:01.927Z</time>
      </trkpt>
      <trkpt lat="47.7558" lon="2.11107">
        <ele>132</ele>
        <time>2017-02-05T08:08:02.926Z</time>
      </trkpt>
      <trkpt lat="47.7558" lon="2.11107">
        <ele>132</ele>
        <time>2017-02-05T08:08:03.935Z</time>
      </trkpt>
      <trkpt lat="47.75571" lon="2.11105">
        <ele>132</ele>
        <time>2017-02-05T08:08:04.927Z</time>
      </trkpt>
      <trkpt lat="47.75571" lon="2.11105">
        <ele>132</ele>
        <time>2017-02-05T08:08:05.924Z</time>
      </trkpt>
      <trkpt lat="47.75563" lon="2.11102">
        <ele>132</ele>
        <time>2017-02-05T08:08:06.927Z</time>
      </trkpt>
      <trkpt lat="47.75559" lon="2.11101">
        <ele>132</ele>
        <time>2017-02-05T08:08:07.926Z</time>
      </trkpt>
      <trkpt lat="47.75559" lon="2.11101">
        <ele>132</ele>
        <time>2017-02-05T08:08:08.924Z</time>
      </trkpt>
      <trkpt lat="47.75549" lon="2.11099">
        <ele>132</ele>
        <time>2017-02-05T08:08:09.928Z</time>
      </trkpt>
      <trkpt lat="47.75549" lon="2.11099">
        <ele>132</ele>
        <time>2017-02-05T08:08:10.961Z</time>
      </trkpt>
      <trkpt lat="47.75541" lon="2.11096">
        <ele>132</ele>
        <time>2017-02-05T08:08:11.927Z</time>
      </trkpt>
      <trkpt lat="47.75537" lon="2.11095">
        <ele>132</ele>
        <time>2017-02-05T08:08:12.927Z</time>
      </trkpt>
      <trkpt lat="47.75537" lon="2.11095">
        <ele>132</ele>
        <time>2017-02-05T08:08:13.935Z</time>
      </trkpt>
      <trkpt lat="47.75529" lon="2.11092">
        <ele>132</ele>
        <time>2017-02-05T08:08:14.927Z</time>
      </trkpt>
      <trkpt lat="47.75525" lon="2.11091">
        <ele>133</ele>
        <time>2017-02-05T08:08:15.927Z</time>
      </trkpt>
      <trkpt lat="47.75525" lon="2.11091">
        <ele>133</ele>
        <time>2017-02-05T08:08:16.923Z</time>
      </trkpt>
      <trkpt lat="47.75516" lon="2.11087">
        <ele>133</ele>
        <time>2017-02-05T08:08:17.928Z</time>
      </trkpt>
      <trkpt lat="47.75516" lon="2.11087">
        <ele>133</ele>
        <time>2017-02-05T08:08:18.946Z</time>
      </trkpt>
      <trkpt lat="47.75507" lon="2.11084">
        <ele>134</ele>
        <time>2017-02-05T08:08:19.937Z</time>
      </trkpt>
      <trkpt lat="47.75507" lon="2.11084">
        <ele>134</ele>
        <time>2017-02-05T08:08:20.926Z</time>
      </trkpt>
      <trkpt lat="47.75496" lon="2.11081">
        <ele>134</ele>
        <time>2017-02-05T08:08:21.927Z</time>
      </trkpt>
      <trkpt lat="47.75496" lon="2.11081">
        <ele>134</ele>
        <time>2017-02-05T08:08:22.924Z</time>
      </trkpt>
      <trkpt lat="47.75486" lon="2.11078">
        <ele>134</ele>
        <time>2017-02-05T08:08:23.929Z</time>
      </trkpt>
      <trkpt lat="47.75486" lon="2.11078">
        <ele>134</ele>
        <time>2017-02-05T08:08:24.923Z</time>
      </trkpt>
      <trkpt lat="47.75477" lon="2.11075">
        <ele>134</ele>
        <time>2017-02-05T08:08:25.927Z</time>
      </trkpt>
      <trkpt lat="47.75477" lon="2.11075">
        <ele>134</ele>
        <time>2017-02-05T08:08:26.924Z</time>
      </trkpt>
      <trkpt lat="47.75468" lon="2.11073">
        <ele>135</ele>
        <time>2017-02-05T08:08:27.927Z</time>
      </trkpt>
      <trkpt lat="47.75468" lon="2.11073">
        <ele>135</ele>
        <time>2017-02-05T08:08:28.960Z</time>
      </trkpt>
      <trkpt lat="47.75457" lon="2.1107">
        <ele>135</ele>
        <time>2017-02-05T08:08:29.927Z</time>
      </trkpt>
      <trkpt lat="47.75457" lon="2.1107">
        <ele>135</ele>
        <time>2017-02-05T08:08:30.931Z</time>
      </trkpt>
      <trkpt lat="47.75449" lon="2.11067">
        <ele>136</ele>
        <time>2017-02-05T08:08:31.924Z</time>
      </trkpt>
      <trkpt lat="47.75444" lon="2.11065">
        <ele>136</ele>
        <time>2017-02-05T08:08:32.927Z</time>
      </trkpt>
      <trkpt lat="47.75444" lon="2.11065">
        <ele>136</ele>
        <time>2017-02-05T08:08:33.941Z</time>
      </trkpt>
      <trkpt lat="47.75435" lon="2.11062">
        <ele>136</ele>
        <time>2017-02-05T08:08:34.932Z</time>
      </trkpt>
      <trkpt lat="47.7543" lon="2.1106">
        <ele>136</ele>
        <time>2017-02-05T08:08:35.924Z</time>
      </trkpt>
      <trkpt lat="47.7543" lon="2.1106">
        <ele>136</ele>
        <time>2017-02-05T08:08:36.961Z</time>
      </trkpt>
      <trkpt lat="47.75422" lon="2.11056">
        <ele>137</ele>
        <time>2017-02-05T08:08:37.927Z</time>
      </trkpt>
      <trkpt lat="47.75422" lon="2.11056">
        <ele>137</ele>
        <time>2017-02-05T08:08:38.961Z</time>
      </trkpt>
      <trkpt lat="47.75413" lon="2.11054">
        <ele>137</ele>
        <time>2017-02-05T08:08:39.935Z</time>
      </trkpt>
      <trkpt lat="47.75413" lon="2.11054">
        <ele>137</ele>
        <time>2017-02-05T08:08:40.925Z</time>
      </trkpt>
      <trkpt lat="47.75404" lon="2.11051">
        <ele>138</ele>
        <time>2017-02-05T08:08:41.927Z</time>
      </trkpt>
      <trkpt lat="47.75404" lon="2.11051">
        <ele>138</ele>
        <time>2017-02-05T08:08:42.924Z</time>
      </trkpt>
      <trkpt lat="47.75396" lon="2.11048">
        <ele>138</ele>
        <time>2017-02-05T08:08:43.939Z</time>
      </trkpt>
      <trkpt lat="47.75392" lon="2.11046">
        <ele>139</ele>
        <time>2017-02-05T08:08:44.929Z</time>
      </trkpt>
      <trkpt lat="47.75388" lon="2.11044">
        <ele>139</ele>
        <time>2017-02-05T08:08:45.927Z</time>
      </trkpt>
      <trkpt lat="47.75388" lon="2.11044">
        <ele>139</ele>
        <time>2017-02-05T08:08:46.923Z</time>
      </trkpt>
      <trkpt lat="47.75378" lon="2.11042">
        <ele>139</ele>
        <time>2017-02-05T08:08:47.927Z</time>
      </trkpt>
      <trkpt lat="47.75378" lon="2.11042">
        <ele>139</ele>
        <time>2017-02-05T08:08:48.961Z</time>
      </trkpt>
      <trkpt lat="47.75369" lon="2.11039">
        <ele>140</ele>
        <time>2017-02-05T08:08:49.927Z</time>
      </trkpt>
      <trkpt lat="47.75369" lon="2.11039">
        <ele>140</ele>
        <time>2017-02-05T08:08:50.924Z</time>
      </trkpt>
      <trkpt lat="47.7536" lon="2.11035">
        <ele>140</ele>
        <time>2017-02-05T08:08:51.924Z</time>
      </trkpt>
      <trkpt lat="47.7536" lon="2.11035">
        <ele>140</ele>
        <time>2017-02-05T08:08:52.923Z</time>
      </trkpt>
      <trkpt lat="47.75352" lon="2.11032">
        <ele>141</ele>
        <time>2017-02-05T08:08:53.928Z</time>
      </trkpt>
      <trkpt lat="47.75352" lon="2.11032">
        <ele>141</ele>
        <time>2017-02-05T08:08:54.924Z</time>
      </trkpt>
      <trkpt lat="47.75342" lon="2.1103">
        <ele>141</ele>
        <time>2017-02-05T08:08:55.924Z</time>
      </trkpt>
      <trkpt lat="47.75342" lon="2.1103">
        <ele>141</ele>
        <time>2017-02-05T08:08:56.924Z</time>
      </trkpt>
      <trkpt lat="47.75331" lon="2.11027">
        <ele>141</ele>
        <time>2017-02-05T08:08:57.927Z</time>
      </trkpt>
      <trkpt lat="47.75331" lon="2.11027">
        <ele>141</ele>
        <time>2017-02-05T08:08:58.962Z</time>
      </trkpt>
      <trkpt lat="47.75322" lon="2.11023">
        <ele>141</ele>
        <time>2017-02-05T08:08:59.928Z</time>
      </trkpt>
      <trkpt lat="47.75322" lon="2.11023">
        <ele>141</ele>
        <time>2017-02-05T08:09:00.924Z</time>
      </trkpt>
      <trkpt lat="47.75313" lon="2.1102">
        <ele>141</ele>
        <time>2017-02-05T08:09:01.927Z</time>
      </trkpt>
      <trkpt lat="47.75313" lon="2.1102">
        <ele>141</ele>
        <time>2017-02-05T08:09:02.925Z</time>
      </trkpt>
      <trkpt lat="47.75305" lon="2.11016">
        <ele>142</ele>
        <time>2017-02-05T08:09:03.935Z</time>
      </trkpt>
      <trkpt lat="47.75301" lon="2.11015">
        <ele>142</ele>
        <time>2017-02-05T08:09:04.928Z</time>
      </trkpt>
      <trkpt lat="47.75296" lon="2.11013">
        <ele>142</ele>
        <time>2017-02-05T08:09:05.925Z</time>
      </trkpt>
      <trkpt lat="47.75296" lon="2.11013">
        <ele>142</ele>
        <time>2017-02-05T08:09:06.924Z</time>
      </trkpt>
      <trkpt lat="47.75288" lon="2.1101">
        <ele>142</ele>
        <time>2017-02-05T08:09:07.943Z</time>
      </trkpt>
      <trkpt lat="47.75288" lon="2.1101">
        <ele>142</ele>
        <time>2017-02-05T08:09:08.926Z</time>
      </trkpt>
      <trkpt lat="47.7528" lon="2.11007">
        <ele>142</ele>
        <time>2017-02-05T08:09:09.928Z</time>
      </trkpt>
      <trkpt lat="47.7528" lon="2.11007">
        <ele>142</ele>
        <time>2017-02-05T08:09:10.924Z</time>
      </trkpt>
      <trkpt lat="47.75273" lon="2.11004">
        <ele>143</ele>
        <time>2017-02-05T08:09:11.928Z</time>
      </trkpt>
      <trkpt lat="47.75273" lon="2.11004">
        <ele>143</ele>
        <time>2017-02-05T08:09:12.924Z</time>
      </trkpt>
      <trkpt lat="47.75265" lon="2.11003">
        <ele>143</ele>
        <time>2017-02-05T08:09:13.927Z</time>
      </trkpt>
      <trkpt lat="47.75265" lon="2.11003">
        <ele>143</ele>
        <time>2017-02-05T08:09:14.923Z</time>
      </trkpt>
      <trkpt lat="47.75258" lon="2.11004">
        <ele>143</ele>
        <time>2017-02-05T08:09:15.927Z</time>
      </trkpt>
      <trkpt lat="47.75258" lon="2.11004">
        <ele>143</ele>
        <time>2017-02-05T08:09:16.924Z</time>
      </trkpt>
      <trkpt lat="47.7525" lon="2.11014">
        <ele>143</ele>
        <time>2017-02-05T08:09:17.928Z</time>
      </trkpt>
      <trkpt lat="47.7525" lon="2.11014">
        <ele>143</ele>
        <time>2017-02-05T08:09:18.923Z</time>
      </trkpt>
      <trkpt lat="47.75245" lon="2.11026">
        <ele>143</ele>
        <time>2017-02-05T08:09:19.927Z</time>
      </trkpt>
      <trkpt lat="47.75245" lon="2.11026">
        <ele>143</ele>
        <time>2017-02-05T08:09:20.924Z</time>
      </trkpt>
      <trkpt lat="47.75241" lon="2.1104">
        <ele>143</ele>
        <time>2017-02-05T08:09:21.924Z</time>
      </trkpt>
      <trkpt lat="47.75241" lon="2.1104">
        <ele>143</ele>
        <time>2017-02-05T08:09:22.924Z</time>
      </trkpt>
      <trkpt lat="47.75236" lon="2.11055">
        <ele>143</ele>
        <time>2017-02-05T08:09:23.933Z</time>
      </trkpt>
      <trkpt lat="47.75236" lon="2.11055">
        <ele>143</ele>
        <time>2017-02-05T08:09:24.924Z</time>
      </trkpt>
      <trkpt lat="47.75232" lon="2.11068">
        <ele>143</ele>
        <time>2017-02-05T08:09:25.924Z</time>
      </trkpt>
      <trkpt lat="47.75232" lon="2.11068">
        <ele>143</ele>
        <time>2017-02-05T08:09:26.924Z</time>
      </trkpt>
      <trkpt lat="47.75226" lon="2.11081">
        <ele>142</ele>
        <time>2017-02-05T08:09:27.926Z</time>
      </trkpt>
      <trkpt lat="47.75226" lon="2.11081">
        <ele>142</ele>
        <time>2017-02-05T08:09:28.922Z</time>
      </trkpt>
      <trkpt lat="47.75221" lon="2.11095">
        <ele>142</ele>
        <time>2017-02-05T08:09:29.924Z</time>
      </trkpt>
      <trkpt lat="47.75221" lon="2.11095">
        <ele>142</ele>
        <time>2017-02-05T08:09:30.925Z</time>
      </trkpt>
      <trkpt lat="47.75217" lon="2.11108">
        <ele>141</ele>
        <time>2017-02-05T08:09:31.927Z</time>
      </trkpt>
      <trkpt lat="47.75217" lon="2.11108">
        <ele>141</ele>
        <time>2017-02-05T08:09:32.922Z</time>
      </trkpt>
      <trkpt lat="47.75215" lon="2.11122">
        <ele>141</ele>
        <time>2017-02-05T08:09:33.928Z</time>
      </trkpt>
      <trkpt lat="47.75213" lon="2.11129">
        <ele>140</ele>
        <time>2017-02-05T08:09:34.925Z</time>
      </trkpt>
      <trkpt lat="47.75213" lon="2.11136">
        <ele>140</ele>
        <time>2017-02-05T08:09:35.928Z</time>
      </trkpt>
      <trkpt lat="47.75213" lon="2.11136">
        <ele>140</ele>
        <time>2017-02-05T08:09:36.923Z</time>
      </trkpt>
      <trkpt lat="47.75212" lon="2.1115">
        <ele>139</ele>
        <time>2017-02-05T08:09:37.924Z</time>
      </trkpt>
      <trkpt lat="47.75212" lon="2.1115">
        <ele>139</ele>
        <time>2017-02-05T08:09:38.961Z</time>
      </trkpt>
      <trkpt lat="47.75215" lon="2.11163">
        <ele>139</ele>
        <time>2017-02-05T08:09:39.941Z</time>
      </trkpt>
      <trkpt lat="47.75215" lon="2.11163">
        <ele>139</ele>
        <time>2017-02-05T08:09:40.930Z</time>
      </trkpt>
      <trkpt lat="47.75217" lon="2.11176">
        <ele>138</ele>
        <time>2017-02-05T08:09:41.928Z</time>
      </trkpt>
      <trkpt lat="47.75217" lon="2.11176">
        <ele>138</ele>
        <time>2017-02-05T08:09:42.924Z</time>
      </trkpt>
      <trkpt lat="47.75221" lon="2.11189">
        <ele>137</ele>
        <time>2017-02-05T08:09:43.936Z</time>
      </trkpt>
      <trkpt lat="47.75221" lon="2.11189">
        <ele>137</ele>
        <time>2017-02-05T08:09:44.925Z</time>
      </trkpt>
      <trkpt lat="47.75223" lon="2.11202">
        <ele>137</ele>
        <time>2017-02-05T08:09:45.927Z</time>
      </trkpt>
      <trkpt lat="47.75223" lon="2.11208">
        <ele>137</ele>
        <time>2017-02-05T08:09:46.928Z</time>
      </trkpt>
      <trkpt lat="47.75223" lon="2.11208">
        <ele>137</ele>
        <time>2017-02-05T08:09:47.927Z</time>
      </trkpt>
      <trkpt lat="47.75226" lon="2.11221">
        <ele>138</ele>
        <time>2017-02-05T08:09:48.927Z</time>
      </trkpt>
      <trkpt lat="47.75227" lon="2.11227">
        <ele>138</ele>
        <time>2017-02-05T08:09:49.927Z</time>
      </trkpt>
      <trkpt lat="47.75227" lon="2.11227">
        <ele>138</ele>
        <time>2017-02-05T08:09:50.922Z</time>
      </trkpt>
      <trkpt lat="47.75231" lon="2.1124">
        <ele>138</ele>
        <time>2017-02-05T08:09:51.926Z</time>
      </trkpt>
      <trkpt lat="47.75231" lon="2.1124">
        <ele>138</ele>
        <time>2017-02-05T08:09:52.924Z</time>
      </trkpt>
      <trkpt lat="47.75234" lon="2.11254">
        <ele>139</ele>
        <time>2017-02-05T08:09:53.935Z</time>
      </trkpt>
      <trkpt lat="47.75234" lon="2.11254">
        <ele>139</ele>
        <time>2017-02-05T08:09:54.925Z</time>
      </trkpt>
      <trkpt lat="47.75238" lon="2.11268">
        <ele>138</ele>
        <time>2017-02-05T08:09:55.928Z</time>
      </trkpt>
      <trkpt lat="47.75238" lon="2.11268">
        <ele>138</ele>
        <time>2017-02-05T08:09:56.925Z</time>
      </trkpt>
      <trkpt lat="47.75243" lon="2.11281">
        <ele>138</ele>
        <time>2017-02-05T08:09:57.927Z</time>
      </trkpt>
      <trkpt lat="47.75243" lon="2.11281">
        <ele>138</ele>
        <time>2017-02-05T08:09:58.932Z</time>
      </trkpt>
      <trkpt lat="47.75248" lon="2.11296">
        <ele>138</ele>
        <time>2017-02-05T08:09:59.928Z</time>
      </trkpt>
      <trkpt lat="47.75248" lon="2.11296">
        <ele>138</ele>
        <time>2017-02-05T08:10:00.962Z</time>
      </trkpt>
      <trkpt lat="47.75253" lon="2.11309">
        <ele>138</ele>
        <time>2017-02-05T08:10:01.927Z</time>
      </trkpt>
      <trkpt lat="47.75253" lon="2.11309">
        <ele>138</ele>
        <time>2017-02-05T08:10:02.924Z</time>
      </trkpt>
      <trkpt lat="47.75258" lon="2.11322">
        <ele>138</ele>
        <time>2017-02-05T08:10:03.935Z</time>
      </trkpt>
      <trkpt lat="47.75259" lon="2.11329">
        <ele>138</ele>
        <time>2017-02-05T08:10:04.925Z</time>
      </trkpt>
      <trkpt lat="47.75261" lon="2.11335">
        <ele>138</ele>
        <time>2017-02-05T08:10:05.927Z</time>
      </trkpt>
      <trkpt lat="47.75261" lon="2.11335">
        <ele>138</ele>
        <time>2017-02-05T08:10:06.924Z</time>
      </trkpt>
      <trkpt lat="47.75264" lon="2.11349">
        <ele>138</ele>
        <time>2017-02-05T08:10:07.933Z</time>
      </trkpt>
      <trkpt lat="47.75264" lon="2.11349">
        <ele>138</ele>
        <time>2017-02-05T08:10:08.942Z</time>
      </trkpt>
      <trkpt lat="47.7527" lon="2.11363">
        <ele>138</ele>
        <time>2017-02-05T08:10:09.947Z</time>
      </trkpt>
      <trkpt lat="47.75272" lon="2.11369">
        <ele>137</ele>
        <time>2017-02-05T08:10:10.938Z</time>
      </trkpt>
      <trkpt lat="47.75274" lon="2.11376">
        <ele>137</ele>
        <time>2017-02-05T08:10:11.928Z</time>
      </trkpt>
      <trkpt lat="47.75274" lon="2.11376">
        <ele>137</ele>
        <time>2017-02-05T08:10:12.925Z</time>
      </trkpt>
      <trkpt lat="47.75278" lon="2.11388">
        <ele>137</ele>
        <time>2017-02-05T08:10:13.927Z</time>
      </trkpt>
      <trkpt lat="47.75278" lon="2.11388">
        <ele>137</ele>
        <time>2017-02-05T08:10:14.923Z</time>
      </trkpt>
      <trkpt lat="47.75281" lon="2.11401">
        <ele>137</ele>
        <time>2017-02-05T08:10:15.926Z</time>
      </trkpt>
      <trkpt lat="47.75281" lon="2.11401">
        <ele>137</ele>
        <time>2017-02-05T08:10:16.924Z</time>
      </trkpt>
      <trkpt lat="47.75284" lon="2.11413">
        <ele>137</ele>
        <time>2017-02-05T08:10:17.927Z</time>
      </trkpt>
      <trkpt lat="47.75284" lon="2.11413">
        <ele>137</ele>
        <time>2017-02-05T08:10:18.924Z</time>
      </trkpt>
      <trkpt lat="47.75282" lon="2.11425">
        <ele>137</ele>
        <time>2017-02-05T08:10:19.924Z</time>
      </trkpt>
      <trkpt lat="47.7528" lon="2.1143">
        <ele>137</ele>
        <time>2017-02-05T08:10:20.927Z</time>
      </trkpt>
      <trkpt lat="47.7528" lon="2.1143">
        <ele>137</ele>
        <time>2017-02-05T08:10:21.922Z</time>
      </trkpt>
      <trkpt lat="47.75275" lon="2.11435">
        <ele>137</ele>
        <time>2017-02-05T08:10:22.929Z</time>
      </trkpt>
      <trkpt lat="47.75275" lon="2.11435">
        <ele>137</ele>
        <time>2017-02-05T08:10:23.944Z</time>
      </trkpt>
      <trkpt lat="47.75268" lon="2.11436">
        <ele>137</ele>
        <time>2017-02-05T08:10:24.933Z</time>
      </trkpt>
      <trkpt lat="47.75265" lon="2.11437">
        <ele>137</ele>
        <time>2017-02-05T08:10:25.930Z</time>
      </trkpt>
      <trkpt lat="47.75265" lon="2.11437">
        <ele>137</ele>
        <time>2017-02-05T08:10:26.923Z</time>
      </trkpt>
      <trkpt lat="47.7526" lon="2.1144">
        <ele>138</ele>
        <time>2017-02-05T08:10:27.924Z</time>
      </trkpt>
      <trkpt lat="47.7526" lon="2.1144">
        <ele>138</ele>
        <time>2017-02-05T08:10:28.961Z</time>
      </trkpt>
      <trkpt lat="47.75251" lon="2.11443">
        <ele>138</ele>
        <time>2017-02-05T08:10:29.949Z</time>
      </trkpt>
      <trkpt lat="47.75249" lon="2.11445">
        <ele>138</ele>
        <time>2017-02-05T08:10:30.927Z</time>
      </trkpt>
      <trkpt lat="47.75246" lon="2.11447">
        <ele>138</ele>
        <time>2017-02-05T08:10:31.925Z</time>
      </trkpt>
      <trkpt lat="47.75246" lon="2.11447">
        <ele>138</ele>
        <time>2017-02-05T08:10:32.924Z</time>
      </trkpt>
      <trkpt lat="47.75239" lon="2.11449">
        <ele>139</ele>
        <time>2017-02-05T08:10:33.928Z</time>
      </trkpt>
      <trkpt lat="47.75235" lon="2.1145">
        <ele>139</ele>
        <time>2017-02-05T08:10:34.927Z</time>
      </trkpt>
      <trkpt lat="47.75235" lon="2.1145">
        <ele>139</ele>
        <time>2017-02-05T08:10:35.925Z</time>
      </trkpt>
      <trkpt lat="47.75226" lon="2.11453">
        <ele>139</ele>
        <time>2017-02-05T08:10:36.927Z</time>
      </trkpt>
      <trkpt lat="47.75222" lon="2.11454">
        <ele>139</ele>
        <time>2017-02-05T08:10:37.928Z</time>
      </trkpt>
      <trkpt lat="47.75222" lon="2.11454">
        <ele>139</ele>
        <time>2017-02-05T08:10:38.924Z</time>
      </trkpt>
      <trkpt lat="47.75212" lon="2.11458">
        <ele>139</ele>
        <time>2017-02-05T08:10:39.924Z</time>
      </trkpt>
      <trkpt lat="47.75208" lon="2.11459">
        <ele>139</ele>
        <time>2017-02-05T08:10:40.927Z</time>
      </trkpt>
      <trkpt lat="47.75203" lon="2.1146">
        <ele>139</ele>
        <time>2017-02-05T08:10:41.928Z</time>
      </trkpt>
      <trkpt lat="47.75198" lon="2.1146">
        <ele>139</ele>
        <time>2017-02-05T08:10:42.929Z</time>
      </trkpt>
      <trkpt lat="47.75198" lon="2.1146">
        <ele>139</ele>
        <time>2017-02-05T08:10:43.937Z</time>
      </trkpt>
      <trkpt lat="47.75188" lon="2.11459">
        <ele>139</ele>
        <time>2017-02-05T08:10:44.927Z</time>
      </trkpt>
      <trkpt lat="47.75188" lon="2.11459">
        <ele>139</ele>
        <time>2017-02-05T08:10:45.962Z</time>
      </trkpt>
      <trkpt lat="47.75179" lon="2.11459">
        <ele>139</ele>
        <time>2017-02-05T08:10:46.926Z</time>
      </trkpt>
      <trkpt lat="47.75174" lon="2.1146">
        <ele>139</ele>
        <time>2017-02-05T08:10:47.928Z</time>
      </trkpt>
      <trkpt lat="47.75174" lon="2.1146">
        <ele>139</ele>
        <time>2017-02-05T08:10:48.961Z</time>
      </trkpt>
      <trkpt lat="47.75166" lon="2.11461">
        <ele>139</ele>
        <time>2017-02-05T08:10:49.948Z</time>
      </trkpt>
      <trkpt lat="47.75161" lon="2.11462">
        <ele>139</ele>
        <time>2017-02-05T08:10:50.938Z</time>
      </trkpt>
      <trkpt lat="47.75157" lon="2.11462">
        <ele>140</ele>
        <time>2017-02-05T08:10:51.928Z</time>
      </trkpt>
      <trkpt lat="47.75157" lon="2.11462">
        <ele>140</ele>
        <time>2017-02-05T08:10:52.950Z</time>
      </trkpt>
      <trkpt lat="47.75148" lon="2.11461">
        <ele>140</ele>
        <time>2017-02-05T08:10:53.928Z</time>
      </trkpt>
      <trkpt lat="47.75148" lon="2.11461">
        <ele>140</ele>
        <time>2017-02-05T08:10:54.924Z</time>
      </trkpt>
      <trkpt lat="47.7514" lon="2.11463">
        <ele>140</ele>
        <time>2017-02-05T08:10:55.928Z</time>
      </trkpt>
      <trkpt lat="47.7514" lon="2.11463">
        <ele>140</ele>
        <time>2017-02-05T08:10:56.924Z</time>
      </trkpt>
      <trkpt lat="47.7513" lon="2.11463">
        <ele>140</ele>
        <time>2017-02-05T08:10:57.928Z</time>
      </trkpt>
      <trkpt lat="47.7513" lon="2.11463">
        <ele>140</ele>
        <time>2017-02-05T08:10:58.931Z</time>
      </trkpt>
      <trkpt lat="47.75119" lon="2.11463">
        <ele>140</ele>
        <time>2017-02-05T08:10:59.956Z</time>
      </trkpt>
      <trkpt lat="47.75114" lon="2.11463">
        <ele>141</ele>
        <time>2017-02-05T08:11:00.932Z</time>
      </trkpt>
      <trkpt lat="47.75109" lon="2.11463">
        <ele>141</ele>
        <time>2017-02-05T08:11:01.925Z</time>
      </trkpt>
      <trkpt lat="47.75109" lon="2.11463">
        <ele>141</ele>
        <time>2017-02-05T08:11:02.924Z</time>
      </trkpt>
      <trkpt lat="47.75101" lon="2.11465">
        <ele>141</ele>
        <time>2017-02-05T08:11:03.932Z</time>
      </trkpt>
      <trkpt lat="47.75096" lon="2.11465">
        <ele>141</ele>
        <time>2017-02-05T08:11:04.928Z</time>
      </trkpt>
      <trkpt lat="47.75096" lon="2.11465">
        <ele>141</ele>
        <time>2017-02-05T08:11:05.923Z</time>
      </trkpt>
      <trkpt lat="47.75087" lon="2.11465">
        <ele>141</ele>
        <time>2017-02-05T08:11:06.926Z</time>
      </trkpt>
      <trkpt lat="47.75082" lon="2.11465">
        <ele>142</ele>
        <time>2017-02-05T08:11:07.927Z</time>
      </trkpt>
      <trkpt lat="47.75082" lon="2.11465">
        <ele>142</ele>
        <time>2017-02-05T08:11:08.925Z</time>
      </trkpt>
      <trkpt lat="47.75072" lon="2.11465">
        <ele>142</ele>
        <time>2017-02-05T08:11:09.960Z</time>
      </trkpt>
      <trkpt lat="47.75067" lon="2.11465">
        <ele>142</ele>
        <time>2017-02-05T08:11:10.926Z</time>
      </trkpt>
      <trkpt lat="47.75063" lon="2.11465">
        <ele>142</ele>
        <time>2017-02-05T08:11:11.929Z</time>
      </trkpt>
      <trkpt lat="47.75063" lon="2.11465">
        <ele>142</ele>
        <time>2017-02-05T08:11:12.924Z</time>
      </trkpt>
      <trkpt lat="47.75053" lon="2.11465">
        <ele>142</ele>
        <time>2017-02-05T08:11:13.938Z</time>
      </trkpt>
      <trkpt lat="47.75053" lon="2.11465">
        <ele>142</ele>
        <time>2017-02-05T08:11:14.927Z</time>
      </trkpt>
      <trkpt lat="47.75043" lon="2.11463">
        <ele>143</ele>
        <time>2017-02-05T08:11:15.927Z</time>
      </trkpt>
      <trkpt lat="47.75043" lon="2.11463">
        <ele>143</ele>
        <time>2017-02-05T08:11:16.925Z</time>
      </trkpt>
      <trkpt lat="47.75034" lon="2.1146">
        <ele>143</ele>
        <time>2017-02-05T08:11:17.928Z</time>
      </trkpt>
      <trkpt lat="47.75034" lon="2.1146">
        <ele>143</ele>
        <time>2017-02-05T08:11:18.922Z</time>
      </trkpt>
      <trkpt lat="47.75024" lon="2.11455">
        <ele>143</ele>
        <time>2017-02-05T08:11:19.939Z</time>
      </trkpt>
      <trkpt lat="47.7502" lon="2.11453">
        <ele>143</ele>
        <time>2017-02-05T08:11:20.929Z</time>
      </trkpt>
      <trkpt lat="47.7502" lon="2.11453">
        <ele>143</ele>
        <time>2017-02-05T08:11:21.924Z</time>
      </trkpt>
      <trkpt lat="47.75011" lon="2.11448">
        <ele>144</ele>
        <time>2017-02-05T08:11:22.924Z</time>
      </trkpt>
      <trkpt lat="47.75011" lon="2.11448">
        <ele>144</ele>
        <time>2017-02-05T08:11:23.932Z</time>
      </trkpt>
      <trkpt lat="47.75002" lon="2.11444">
        <ele>145</ele>
        <time>2017-02-05T08:11:24.927Z</time>
      </trkpt>
      <trkpt lat="47.74997" lon="2.11443">
        <ele>145</ele>
        <time>2017-02-05T08:11:25.924Z</time>
      </trkpt>
      <trkpt lat="47.74997" lon="2.11443">
        <ele>145</ele>
        <time>2017-02-05T08:11:26.924Z</time>
      </trkpt>
      <trkpt lat="47.74988" lon="2.11439">
        <ele>145</ele>
        <time>2017-02-05T08:11:27.927Z</time>
      </trkpt>
      <trkpt lat="47.74988" lon="2.11439">
        <ele>145</ele>
        <time>2017-02-05T08:11:28.929Z</time>
      </trkpt>
      <trkpt lat="47.7498" lon="2.11434">
        <ele>146</ele>
        <time>2017-02-05T08:11:29.928Z</time>
      </trkpt>
      <trkpt lat="47.7498" lon="2.11434">
        <ele>146</ele>
        <time>2017-02-05T08:11:30.926Z</time>
      </trkpt>
      <trkpt lat="47.7497" lon="2.1143">
        <ele>146</ele>
        <time>2017-02-05T08:11:31.927Z</time>
      </trkpt>
      <trkpt lat="47.7497" lon="2.1143">
        <ele>146</ele>
        <time>2017-02-05T08:11:32.925Z</time>
      </trkpt>
      <trkpt lat="47.7496" lon="2.11425">
        <ele>147</ele>
        <time>2017-02-05T08:11:33.937Z</time>
      </trkpt>
      <trkpt lat="47.7496" lon="2.11425">
        <ele>147</ele>
        <time>2017-02-05T08:11:34.927Z</time>
      </trkpt>
      <trkpt lat="47.74952" lon="2.11421">
        <ele>147</ele>
        <time>2017-02-05T08:11:35.929Z</time>
      </trkpt>
      <trkpt lat="47.74952" lon="2.11421">
        <ele>147</ele>
        <time>2017-02-05T08:11:36.925Z</time>
      </trkpt>
      <trkpt lat="47.74943" lon="2.11417">
        <ele>147</ele>
        <time>2017-02-05T08:11:37.928Z</time>
      </trkpt>
      <trkpt lat="47.74943" lon="2.11417">
        <ele>147</ele>
        <time>2017-02-05T08:11:38.929Z</time>
      </trkpt>
      <trkpt lat="47.74934" lon="2.11411">
        <ele>147</ele>
        <time>2017-02-05T08:11:39.928Z</time>
      </trkpt>
      <trkpt lat="47.7493" lon="2.11408">
        <ele>148</ele>
        <time>2017-02-05T08:11:40.928Z</time>
      </trkpt>
      <trkpt lat="47.74926" lon="2.11405">
        <ele>148</ele>
        <time>2017-02-05T08:11:41.928Z</time>
      </trkpt>
      <trkpt lat="47.74926" lon="2.11405">
        <ele>148</ele>
        <time>2017-02-05T08:11:42.922Z</time>
      </trkpt>
      <trkpt lat="47.74918" lon="2.114">
        <ele>148</ele>
        <time>2017-02-05T08:11:43.933Z</time>
      </trkpt>
      <trkpt lat="47.74913" lon="2.11397">
        <ele>148</ele>
        <time>2017-02-05T08:11:44.927Z</time>
      </trkpt>
      <trkpt lat="47.74913" lon="2.11397">
        <ele>148</ele>
        <time>2017-02-05T08:11:45.925Z</time>
      </trkpt>
      <trkpt lat="47.74905" lon="2.11392">
        <ele>148</ele>
        <time>2017-02-05T08:11:46.925Z</time>
      </trkpt>
      <trkpt lat="47.749" lon="2.11389">
        <ele>148</ele>
        <time>2017-02-05T08:11:47.928Z</time>
      </trkpt>
      <trkpt lat="47.749" lon="2.11389">
        <ele>148</ele>
        <time>2017-02-05T08:11:48.961Z</time>
      </trkpt>
      <trkpt lat="47.7489" lon="2.11387">
        <ele>148</ele>
        <time>2017-02-05T08:11:49.925Z</time>
      </trkpt>
      <trkpt lat="47.7489" lon="2.11387">
        <ele>148</ele>
        <time>2017-02-05T08:11:50.961Z</time>
      </trkpt>
      <trkpt lat="47.7488" lon="2.11385">
        <ele>148</ele>
        <time>2017-02-05T08:11:51.925Z</time>
      </trkpt>
      <trkpt lat="47.7488" lon="2.11385">
        <ele>148</ele>
        <time>2017-02-05T08:11:52.924Z</time>
      </trkpt>
      <trkpt lat="47.74869" lon="2.11382">
        <ele>148</ele>
        <time>2017-02-05T08:11:53.928Z</time>
      </trkpt>
      <trkpt lat="47.74863" lon="2.11381">
        <ele>148</ele>
        <time>2017-02-05T08:11:54.925Z</time>
      </trkpt>
      <trkpt lat="47.74863" lon="2.11381">
        <ele>148</ele>
        <time>2017-02-05T08:11:55.959Z</time>
      </trkpt>
      <trkpt lat="47.74851" lon="2.11382">
        <ele>148</ele>
        <time>2017-02-05T08:11:56.927Z</time>
      </trkpt>
      <trkpt lat="47.74845" lon="2.11383">
        <ele>148</ele>
        <time>2017-02-05T08:11:57.929Z</time>
      </trkpt>
      <trkpt lat="47.74845" lon="2.11383">
        <ele>148</ele>
        <time>2017-02-05T08:11:58.931Z</time>
      </trkpt>
      <trkpt lat="47.74831" lon="2.11384">
        <ele>148</ele>
        <time>2017-02-05T08:11:59.929Z</time>
      </trkpt>
      <trkpt lat="47.74831" lon="2.11384">
        <ele>148</ele>
        <time>2017-02-05T08:12:00.930Z</time>
      </trkpt>
      <trkpt lat="47.74823" lon="2.11386">
        <ele>145</ele>
        <time>2017-02-05T08:12:01.928Z</time>
      </trkpt>
      <trkpt lat="47.74823" lon="2.11386">
        <ele>145</ele>
        <time>2017-02-05T08:12:02.925Z</time>
      </trkpt>
      <trkpt lat="47.74812" lon="2.11386">
        <ele>144</ele>
        <time>2017-02-05T08:12:03.936Z</time>
      </trkpt>
      <trkpt lat="47.74812" lon="2.11386">
        <ele>144</ele>
        <time>2017-02-05T08:12:04.927Z</time>
      </trkpt>
      <trkpt lat="47.748" lon="2.11387">
        <ele>144</ele>
        <time>2017-02-05T08:12:05.930Z</time>
      </trkpt>
      <trkpt lat="47.74795" lon="2.11387">
        <ele>144</ele>
        <time>2017-02-05T08:12:06.929Z</time>
      </trkpt>
      <trkpt lat="47.74795" lon="2.11387">
        <ele>144</ele>
        <time>2017-02-05T08:12:07.926Z</time>
      </trkpt>
      <trkpt lat="47.74784" lon="2.11389">
        <ele>143</ele>
        <time>2017-02-05T08:12:08.939Z</time>
      </trkpt>
      <trkpt lat="47.74778" lon="2.1139">
        <ele>142</ele>
        <time>2017-02-05T08:12:09.931Z</time>
      </trkpt>
      <trkpt lat="47.74773" lon="2.1139">
        <ele>142</ele>
        <time>2017-02-05T08:12:10.930Z</time>
      </trkpt>
      <trkpt lat="47.74767" lon="2.11391">
        <ele>141</ele>
        <time>2017-02-05T08:12:11.930Z</time>
      </trkpt>
      <trkpt lat="47.74767" lon="2.11391">
        <ele>141</ele>
        <time>2017-02-05T08:12:12.924Z</time>
      </trkpt>
      <trkpt lat="47.74757" lon="2.11392">
        <ele>141</ele>
        <time>2017-02-05T08:12:13.928Z</time>
      </trkpt>
      <trkpt lat="47.74753" lon="2.11393">
        <ele>140</ele>
        <time>2017-02-05T08:12:14.930Z</time>
      </trkpt>
      <trkpt lat="47.74753" lon="2.11393">
        <ele>140</ele>
        <time>2017-02-05T08:12:15.927Z</time>
      </trkpt>
      <trkpt lat="47.74742" lon="2.11394">
        <ele>139</ele>
        <time>2017-02-05T08:12:16.930Z</time>
      </trkpt>
      <trkpt lat="47.74737" lon="2.11395">
        <ele>139</ele>
        <time>2017-02-05T08:12:17.931Z</time>
      </trkpt>
      <trkpt lat="47.74737" lon="2.11395">
        <ele>139</ele>
        <time>2017-02-05T08:12:18.925Z</time>
      </trkpt>
      <trkpt lat="47.74726" lon="2.11397">
        <ele>138</ele>
        <time>2017-02-05T08:12:19.930Z</time>
      </trkpt>
      <trkpt lat="47.74726" lon="2.11397">
        <ele>138</ele>
        <time>2017-02-05T08:12:20.924Z</time>
      </trkpt>
      <trkpt lat="47.74715" lon="2.11399">
        <ele>137</ele>
        <time>2017-02-05T08:12:21.929Z</time>
      </trkpt>
      <trkpt lat="47.7471" lon="2.11398">
        <ele>137</ele>
        <time>2017-02-05T08:12:22.930Z</time>
      </trkpt>
      <trkpt lat="47.7471" lon="2.11398">
        <ele>137</ele>
        <time>2017-02-05T08:12:23.935Z</time>
      </trkpt>
      <trkpt lat="47.74699" lon="2.11399">
        <ele>136</ele>
        <time>2017-02-05T08:12:24.929Z</time>
      </trkpt>
      <trkpt lat="47.74693" lon="2.11399">
        <ele>136</ele>
        <time>2017-02-05T08:12:25.928Z</time>
      </trkpt>
      <trkpt lat="47.74693" lon="2.11399">
        <ele>136</ele>
        <time>2017-02-05T08:12:26.927Z</time>
      </trkpt>
      <trkpt lat="47.74682" lon="2.11396">
        <ele>136</ele>
        <time>2017-02-05T08:12:27.927Z</time>
      </trkpt>
      <trkpt lat="47.74682" lon="2.11396">
        <ele>136</ele>
        <time>2017-02-05T08:12:28.925Z</time>
      </trkpt>
      <trkpt lat="47.74671" lon="2.11392">
        <ele>137</ele>
        <time>2017-02-05T08:12:29.936Z</time>
      </trkpt>
      <trkpt lat="47.74671" lon="2.11392">
        <ele>137</ele>
        <time>2017-02-05T08:12:30.927Z</time>
      </trkpt>
      <trkpt lat="47.74658" lon="2.11391">
        <ele>137</ele>
        <time>2017-02-05T08:12:31.928Z</time>
      </trkpt>
      <trkpt lat="47.74658" lon="2.11391">
        <ele>137</ele>
        <time>2017-02-05T08:12:32.925Z</time>
      </trkpt>
      <trkpt lat="47.74647" lon="2.11389">
        <ele>137</ele>
        <time>2017-02-05T08:12:33.943Z</time>
      </trkpt>
      <trkpt lat="47.74647" lon="2.11389">
        <ele>137</ele>
        <time>2017-02-05T08:12:34.935Z</time>
      </trkpt>
      <trkpt lat="47.74636" lon="2.11387">
        <ele>137</ele>
        <time>2017-02-05T08:12:35.928Z</time>
      </trkpt>
      <trkpt lat="47.74636" lon="2.11387">
        <ele>137</ele>
        <time>2017-02-05T08:12:36.927Z</time>
      </trkpt>
      <trkpt lat="47.74624" lon="2.11385">
        <ele>137</ele>
        <time>2017-02-05T08:12:37.929Z</time>
      </trkpt>
      <trkpt lat="47.74624" lon="2.11385">
        <ele>137</ele>
        <time>2017-02-05T08:12:38.924Z</time>
      </trkpt>
      <trkpt lat="47.74615" lon="2.11382">
        <ele>137</ele>
        <time>2017-02-05T08:12:39.930Z</time>
      </trkpt>
      <trkpt lat="47.74615" lon="2.11382">
        <ele>137</ele>
        <time>2017-02-05T08:12:40.923Z</time>
      </trkpt>
      <trkpt lat="47.74605" lon="2.1138">
        <ele>136</ele>
        <time>2017-02-05T08:12:41.930Z</time>
      </trkpt>
      <trkpt lat="47.74605" lon="2.1138">
        <ele>136</ele>
        <time>2017-02-05T08:12:42.927Z</time>
      </trkpt>
      <trkpt lat="47.74593" lon="2.11377">
        <ele>135</ele>
        <time>2017-02-05T08:12:43.929Z</time>
      </trkpt>
      <trkpt lat="47.74588" lon="2.11375">
        <ele>135</ele>
        <time>2017-02-05T08:12:44.930Z</time>
      </trkpt>
      <trkpt lat="47.74588" lon="2.11375">
        <ele>135</ele>
        <time>2017-02-05T08:12:45.927Z</time>
      </trkpt>
      <trkpt lat="47.74577" lon="2.11372">
        <ele>134</ele>
        <time>2017-02-05T08:12:46.930Z</time>
      </trkpt>
      <trkpt lat="47.74577" lon="2.11372">
        <ele>134</ele>
        <time>2017-02-05T08:12:47.928Z</time>
      </trkpt>
      <trkpt lat="47.74566" lon="2.1137">
        <ele>134</ele>
        <time>2017-02-05T08:12:48.927Z</time>
      </trkpt>
      <trkpt lat="47.7456" lon="2.11369">
        <ele>133</ele>
        <time>2017-02-05T08:12:49.929Z</time>
      </trkpt>
      <trkpt lat="47.7456" lon="2.11369">
        <ele>133</ele>
        <time>2017-02-05T08:12:50.962Z</time>
      </trkpt>
      <trkpt lat="47.74549" lon="2.11366">
        <ele>132</ele>
        <time>2017-02-05T08:12:51.928Z</time>
      </trkpt>
      <trkpt lat="47.74544" lon="2.11365">
        <ele>132</ele>
        <time>2017-02-05T08:12:52.928Z</time>
      </trkpt>
      <trkpt lat="47.74544" lon="2.11365">
        <ele>132</ele>
        <time>2017-02-05T08:12:53.936Z</time>
      </trkpt>
      <trkpt lat="47.74534" lon="2.11362">
        <ele>132</ele>
        <time>2017-02-05T08:12:54.930Z</time>
      </trkpt>
      <trkpt lat="47.74534" lon="2.11362">
        <ele>132</ele>
        <time>2017-02-05T08:12:55.924Z</time>
      </trkpt>
      <trkpt lat="47.74523" lon="2.1136">
        <ele>132</ele>
        <time>2017-02-05T08:12:56.928Z</time>
      </trkpt>
      <trkpt lat="47.74518" lon="2.11359">
        <ele>131</ele>
        <time>2017-02-05T08:12:57.930Z</time>
      </trkpt>
      <trkpt lat="47.74518" lon="2.11359">
        <ele>131</ele>
        <time>2017-02-05T08:12:58.928Z</time>
      </trkpt>
      <trkpt lat="47.74509" lon="2.11357">
        <ele>131</ele>
        <time>2017-02-05T08:12:59.930Z</time>
      </trkpt>
      <trkpt lat="47.74509" lon="2.11357">
        <ele>131</ele>
        <time>2017-02-05T08:13:00.961Z</time>
      </trkpt>
      <trkpt lat="47.74499" lon="2.11354">
        <ele>131</ele>
        <time>2017-02-05T08:13:01.928Z</time>
      </trkpt>
      <trkpt lat="47.74499" lon="2.11354">
        <ele>131</ele>
        <time>2017-02-05T08:13:02.923Z</time>
      </trkpt>
      <trkpt lat="47.74489" lon="2.11352">
        <ele>130</ele>
        <time>2017-02-05T08:13:03.930Z</time>
      </trkpt>
      <trkpt lat="47.74483" lon="2.11351">
        <ele>130</ele>
        <time>2017-02-05T08:13:04.928Z</time>
      </trkpt>
      <trkpt lat="47.74478" lon="2.1135">
        <ele>130</ele>
        <time>2017-02-05T08:13:05.930Z</time>
      </trkpt>
      <trkpt lat="47.74478" lon="2.1135">
        <ele>130</ele>
        <time>2017-02-05T08:13:06.927Z</time>
      </trkpt>
      <trkpt lat="47.74468" lon="2.11349">
        <ele>130</ele>
        <time>2017-02-05T08:13:07.939Z</time>
      </trkpt>
      <trkpt lat="47.74468" lon="2.11349">
        <ele>130</ele>
        <time>2017-02-05T08:13:08.927Z</time>
      </trkpt>
      <trkpt lat="47.74457" lon="2.11347">
        <ele>130</ele>
        <time>2017-02-05T08:13:09.929Z</time>
      </trkpt>
      <trkpt lat="47.74457" lon="2.11347">
        <ele>130</ele>
        <time>2017-02-05T08:13:10.929Z</time>
      </trkpt>
      <trkpt lat="47.74447" lon="2.11346">
        <ele>130</ele>
        <time>2017-02-05T08:13:11.931Z</time>
      </trkpt>
      <trkpt lat="47.74447" lon="2.11346">
        <ele>130</ele>
        <time>2017-02-05T08:13:12.926Z</time>
      </trkpt>
      <trkpt lat="47.74437" lon="2.11343">
        <ele>129</ele>
        <time>2017-02-05T08:13:13.936Z</time>
      </trkpt>
      <trkpt lat="47.74432" lon="2.11341">
        <ele>129</ele>
        <time>2017-02-05T08:13:14.930Z</time>
      </trkpt>
      <trkpt lat="47.74432" lon="2.11341">
        <ele>129</ele>
        <time>2017-02-05T08:13:15.928Z</time>
      </trkpt>
      <trkpt lat="47.74422" lon="2.11339">
        <ele>129</ele>
        <time>2017-02-05T08:13:16.931Z</time>
      </trkpt>
      <trkpt lat="47.74422" lon="2.11339">
        <ele>129</ele>
        <time>2017-02-05T08:13:17.925Z</time>
      </trkpt>
      <trkpt lat="47.74411" lon="2.11337">
        <ele>129</ele>
        <time>2017-02-05T08:13:18.940Z</time>
      </trkpt>
      <trkpt lat="47.74405" lon="2.11337">
        <ele>129</ele>
        <time>2017-02-05T08:13:19.934Z</time>
      </trkpt>
      <trkpt lat="47.744" lon="2.11337">
        <ele>129</ele>
        <time>2017-02-05T08:13:20.930Z</time>
      </trkpt>
      <trkpt lat="47.744" lon="2.11337">
        <ele>129</ele>
        <time>2017-02-05T08:13:21.927Z</time>
      </trkpt>
      <trkpt lat="47.74389" lon="2.1134">
        <ele>130</ele>
        <time>2017-02-05T08:13:22.930Z</time>
      </trkpt>
      <trkpt lat="47.74389" lon="2.1134">
        <ele>130</ele>
        <time>2017-02-05T08:13:23.928Z</time>
      </trkpt>
      <trkpt lat="47.7438" lon="2.11347">
        <ele>130</ele>
        <time>2017-02-05T08:13:24.927Z</time>
      </trkpt>
      <trkpt lat="47.7438" lon="2.11347">
        <ele>130</ele>
        <time>2017-02-05T08:13:25.924Z</time>
      </trkpt>
      <trkpt lat="47.7437" lon="2.11356">
        <ele>129</ele>
        <time>2017-02-05T08:13:26.929Z</time>
      </trkpt>
      <trkpt lat="47.74366" lon="2.1136">
        <ele>129</ele>
        <time>2017-02-05T08:13:27.931Z</time>
      </trkpt>
      <trkpt lat="47.74366" lon="2.1136">
        <ele>129</ele>
        <time>2017-02-05T08:13:28.925Z</time>
      </trkpt>
      <trkpt lat="47.74356" lon="2.11367">
        <ele>129</ele>
        <time>2017-02-05T08:13:29.947Z</time>
      </trkpt>
      <trkpt lat="47.74356" lon="2.11367">
        <ele>129</ele>
        <time>2017-02-05T08:13:30.939Z</time>
      </trkpt>
      <trkpt lat="47.74347" lon="2.11374">
        <ele>128</ele>
        <time>2017-02-05T08:13:31.930Z</time>
      </trkpt>
      <trkpt lat="47.74347" lon="2.11374">
        <ele>128</ele>
        <time>2017-02-05T08:13:32.924Z</time>
      </trkpt>
      <trkpt lat="47.74337" lon="2.11382">
        <ele>128</ele>
        <time>2017-02-05T08:13:33.929Z</time>
      </trkpt>
      <trkpt lat="47.74333" lon="2.11386">
        <ele>128</ele>
        <time>2017-02-05T08:13:34.931Z</time>
      </trkpt>
      <trkpt lat="47.74333" lon="2.11386">
        <ele>128</ele>
        <time>2017-02-05T08:13:35.928Z</time>
      </trkpt>
      <trkpt lat="47.74325" lon="2.11397">
        <ele>127</ele>
        <time>2017-02-05T08:13:36.928Z</time>
      </trkpt>
      <trkpt lat="47.74325" lon="2.11397">
        <ele>127</ele>
        <time>2017-02-05T08:13:37.927Z</time>
      </trkpt>
      <trkpt lat="47.74316" lon="2.11408">
        <ele>127</ele>
        <time>2017-02-05T08:13:38.931Z</time>
      </trkpt>
      <trkpt lat="47.74313" lon="2.11414">
        <ele>127</ele>
        <time>2017-02-05T08:13:39.932Z</time>
      </trkpt>
      <trkpt lat="47.74313" lon="2.11414">
        <ele>127</ele>
        <time>2017-02-05T08:13:40.925Z</time>
      </trkpt>
      <trkpt lat="47.74305" lon="2.11425">
        <ele>127</ele>
        <time>2017-02-05T08:13:41.945Z</time>
      </trkpt>
      <trkpt lat="47.74301" lon="2.11431">
        <ele>127</ele>
        <time>2017-02-05T08:13:42.937Z</time>
      </trkpt>
      <trkpt lat="47.74301" lon="2.11431">
        <ele>127</ele>
        <time>2017-02-05T08:13:43.927Z</time>
      </trkpt>
      <trkpt lat="47.74294" lon="2.11442">
        <ele>126</ele>
        <time>2017-02-05T08:13:44.930Z</time>
      </trkpt>
      <trkpt lat="47.74294" lon="2.11442">
        <ele>126</ele>
        <time>2017-02-05T08:13:45.924Z</time>
      </trkpt>
      <trkpt lat="47.74286" lon="2.11454">
        <ele>126</ele>
        <time>2017-02-05T08:13:46.930Z</time>
      </trkpt>
      <trkpt lat="47.74286" lon="2.11454">
        <ele>126</ele>
        <time>2017-02-05T08:13:47.925Z</time>
      </trkpt>
      <trkpt lat="47.74279" lon="2.11466">
        <ele>126</ele>
        <time>2017-02-05T08:13:48.928Z</time>
      </trkpt>
      <trkpt lat="47.74275" lon="2.11472">
        <ele>126</ele>
        <time>2017-02-05T08:13:49.929Z</time>
      </trkpt>
      <trkpt lat="47.74275" lon="2.11472">
        <ele>126</ele>
        <time>2017-02-05T08:13:50.923Z</time>
      </trkpt>
      <trkpt lat="47.74268" lon="2.11484">
        <ele>127</ele>
        <time>2017-02-05T08:13:51.930Z</time>
      </trkpt>
      <trkpt lat="47.74268" lon="2.11484">
        <ele>127</ele>
        <time>2017-02-05T08:13:52.938Z</time>
      </trkpt>
      <trkpt lat="47.74262" lon="2.11496">
        <ele>127</ele>
        <time>2017-02-05T08:13:53.932Z</time>
      </trkpt>
      <trkpt lat="47.74258" lon="2.11502">
        <ele>127</ele>
        <time>2017-02-05T08:13:54.928Z</time>
      </trkpt>
      <trkpt lat="47.74258" lon="2.11502">
        <ele>127</ele>
        <time>2017-02-05T08:13:55.924Z</time>
      </trkpt>
      <trkpt lat="47.74251" lon="2.11515">
        <ele>127</ele>
        <time>2017-02-05T08:13:56.927Z</time>
      </trkpt>
      <trkpt lat="47.74251" lon="2.11515">
        <ele>127</ele>
        <time>2017-02-05T08:13:57.927Z</time>
      </trkpt>
      <trkpt lat="47.74244" lon="2.11527">
        <ele>127</ele>
        <time>2017-02-05T08:13:58.929Z</time>
      </trkpt>
      <trkpt lat="47.74241" lon="2.11533">
        <ele>127</ele>
        <time>2017-02-05T08:13:59.931Z</time>
      </trkpt>
      <trkpt lat="47.74237" lon="2.11539">
        <ele>127</ele>
        <time>2017-02-05T08:14:00.929Z</time>
      </trkpt>
      <trkpt lat="47.74237" lon="2.11539">
        <ele>127</ele>
        <time>2017-02-05T08:14:01.926Z</time>
      </trkpt>
      <trkpt lat="47.7423" lon="2.11549">
        <ele>127</ele>
        <time>2017-02-05T08:14:02.930Z</time>
      </trkpt>
      <trkpt lat="47.7423" lon="2.11549">
        <ele>127</ele>
        <time>2017-02-05T08:14:03.936Z</time>
      </trkpt>
      <trkpt lat="47.74223" lon="2.1156">
        <ele>127</ele>
        <time>2017-02-05T08:14:04.930Z</time>
      </trkpt>
      <trkpt lat="47.7422" lon="2.11565">
        <ele>127</ele>
        <time>2017-02-05T08:14:05.930Z</time>
      </trkpt>
      <trkpt lat="47.7422" lon="2.11565">
        <ele>127</ele>
        <time>2017-02-05T08:14:06.924Z</time>
      </trkpt>
      <trkpt lat="47.74211" lon="2.11574">
        <ele>127</ele>
        <time>2017-02-05T08:14:07.930Z</time>
      </trkpt>
      <trkpt lat="47.74211" lon="2.11574">
        <ele>127</ele>
        <time>2017-02-05T08:14:08.925Z</time>
      </trkpt>
      <trkpt lat="47.74203" lon="2.11583">
        <ele>127</ele>
        <time>2017-02-05T08:14:09.932Z</time>
      </trkpt>
      <trkpt lat="47.74198" lon="2.11588">
        <ele>127</ele>
        <time>2017-02-05T08:14:10.932Z</time>
      </trkpt>
      <trkpt lat="47.74198" lon="2.11588">
        <ele>127</ele>
        <time>2017-02-05T08:14:11.927Z</time>
      </trkpt>
      <trkpt lat="47.7419" lon="2.11598">
        <ele>127</ele>
        <time>2017-02-05T08:14:12.930Z</time>
      </trkpt>
      <trkpt lat="47.7419" lon="2.11598">
        <ele>127</ele>
        <time>2017-02-05T08:14:13.945Z</time>
      </trkpt>
      <trkpt lat="47.74182" lon="2.11607">
        <ele>127</ele>
        <time>2017-02-05T08:14:14.936Z</time>
      </trkpt>
      <trkpt lat="47.74182" lon="2.11607">
        <ele>127</ele>
        <time>2017-02-05T08:14:15.928Z</time>
      </trkpt>
      <trkpt lat="47.74174" lon="2.11618">
        <ele>126</ele>
        <time>2017-02-05T08:14:16.929Z</time>
      </trkpt>
      <trkpt lat="47.74171" lon="2.11624">
        <ele>127</ele>
        <time>2017-02-05T08:14:17.930Z</time>
      </trkpt>
      <trkpt lat="47.74167" lon="2.11631">
        <ele>126</ele>
        <time>2017-02-05T08:14:18.930Z</time>
      </trkpt>
      <trkpt lat="47.74167" lon="2.11631">
        <ele>126</ele>
        <time>2017-02-05T08:14:19.927Z</time>
      </trkpt>
      <trkpt lat="47.7416" lon="2.11644">
        <ele>126</ele>
        <time>2017-02-05T08:14:20.929Z</time>
      </trkpt>
      <trkpt lat="47.7416" lon="2.11644">
        <ele>126</ele>
        <time>2017-02-05T08:14:21.923Z</time>
      </trkpt>
      <trkpt lat="47.74156" lon="2.11659">
        <ele>126</ele>
        <time>2017-02-05T08:14:22.930Z</time>
      </trkpt>
      <trkpt lat="47.74156" lon="2.11659">
        <ele>126</ele>
        <time>2017-02-05T08:14:23.939Z</time>
      </trkpt>
      <trkpt lat="47.74152" lon="2.11673">
        <ele>125</ele>
        <time>2017-02-05T08:14:24.930Z</time>
      </trkpt>
      <trkpt lat="47.74152" lon="2.11673">
        <ele>125</ele>
        <time>2017-02-05T08:14:25.924Z</time>
      </trkpt>
      <trkpt lat="47.74148" lon="2.11688">
        <ele>125</ele>
        <time>2017-02-05T08:14:26.930Z</time>
      </trkpt>
      <trkpt lat="47.74147" lon="2.11695">
        <ele>125</ele>
        <time>2017-02-05T08:14:27.929Z</time>
      </trkpt>
      <trkpt lat="47.74146" lon="2.11702">
        <ele>124</ele>
        <time>2017-02-05T08:14:28.931Z</time>
      </trkpt>
      <trkpt lat="47.74146" lon="2.11702">
        <ele>124</ele>
        <time>2017-02-05T08:14:29.941Z</time>
      </trkpt>
      <trkpt lat="47.74145" lon="2.11715">
        <ele>123</ele>
        <time>2017-02-05T08:14:30.932Z</time>
      </trkpt>
      <trkpt lat="47.74145" lon="2.11715">
        <ele>123</ele>
        <time>2017-02-05T08:14:31.924Z</time>
      </trkpt>
      <trkpt lat="47.74143" lon="2.11727">
        <ele>121</ele>
        <time>2017-02-05T08:14:32.931Z</time>
      </trkpt>
      <trkpt lat="47.74143" lon="2.11727">
        <ele>121</ele>
        <time>2017-02-05T08:14:33.938Z</time>
      </trkpt>
      <trkpt lat="47.74141" lon="2.11739">
        <ele>120</ele>
        <time>2017-02-05T08:14:34.931Z</time>
      </trkpt>
      <trkpt lat="47.74141" lon="2.11739">
        <ele>120</ele>
        <time>2017-02-05T08:14:35.929Z</time>
      </trkpt>
      <trkpt lat="47.74139" lon="2.1175">
        <ele>119</ele>
        <time>2017-02-05T08:14:36.931Z</time>
      </trkpt>
      <trkpt lat="47.74139" lon="2.1175">
        <ele>119</ele>
        <time>2017-02-05T08:14:37.928Z</time>
      </trkpt>
      <trkpt lat="47.74136" lon="2.11755">
        <ele>120</ele>
        <time>2017-02-05T08:14:38.930Z</time>
      </trkpt>
      <trkpt lat="47.74131" lon="2.11756">
        <ele>120</ele>
        <time>2017-02-05T08:14:39.929Z</time>
      </trkpt>
      <trkpt lat="47.74131" lon="2.11756">
        <ele>120</ele>
        <time>2017-02-05T08:14:40.928Z</time>
      </trkpt>
      <trkpt lat="47.74124" lon="2.11757">
        <ele>120</ele>
        <time>2017-02-05T08:14:41.931Z</time>
      </trkpt>
      <trkpt lat="47.7412" lon="2.11758">
        <ele>120</ele>
        <time>2017-02-05T08:14:42.930Z</time>
      </trkpt>
      <trkpt lat="47.7412" lon="2.11758">
        <ele>120</ele>
        <time>2017-02-05T08:14:43.945Z</time>
      </trkpt>
      <trkpt lat="47.74113" lon="2.1176">
        <ele>120</ele>
        <time>2017-02-05T08:14:44.935Z</time>
      </trkpt>
      <trkpt lat="47.74109" lon="2.1176">
        <ele>120</ele>
        <time>2017-02-05T08:14:45.930Z</time>
      </trkpt>
      <trkpt lat="47.74109" lon="2.1176">
        <ele>120</ele>
        <time>2017-02-05T08:14:46.925Z</time>
      </trkpt>
      <trkpt lat="47.741" lon="2.11761">
        <ele>121</ele>
        <time>2017-02-05T08:14:47.930Z</time>
      </trkpt>
      <trkpt lat="47.74093" lon="2.11762">
        <ele>121</ele>
        <time>2017-02-05T08:14:48.930Z</time>
      </trkpt>
      <trkpt lat="47.74093" lon="2.11762">
        <ele>121</ele>
        <time>2017-02-05T08:14:49.927Z</time>
      </trkpt>
      <trkpt lat="47.74082" lon="2.11763">
        <ele>122</ele>
        <time>2017-02-05T08:14:50.927Z</time>
      </trkpt>
      <trkpt lat="47.74082" lon="2.11763">
        <ele>122</ele>
        <time>2017-02-05T08:14:51.959Z</time>
      </trkpt>
      <trkpt lat="47.74071" lon="2.11765">
        <ele>122</ele>
        <time>2017-02-05T08:14:52.929Z</time>
      </trkpt>
      <trkpt lat="47.74071" lon="2.11765">
        <ele>122</ele>
        <time>2017-02-05T08:14:53.945Z</time>
      </trkpt>
      <trkpt lat="47.74061" lon="2.11765">
        <ele>122</ele>
        <time>2017-02-05T08:14:54.939Z</time>
      </trkpt>
      <trkpt lat="47.74061" lon="2.11765">
        <ele>122</ele>
        <time>2017-02-05T08:14:55.931Z</time>
      </trkpt>
      <trkpt lat="47.74051" lon="2.11764">
        <ele>122</ele>
        <time>2017-02-05T08:14:56.929Z</time>
      </trkpt>
      <trkpt lat="47.74046" lon="2.11762">
        <ele>122</ele>
        <time>2017-02-05T08:14:57.940Z</time>
      </trkpt>
      <trkpt lat="47.74046" lon="2.11762">
        <ele>122</ele>
        <time>2017-02-05T08:14:58.932Z</time>
      </trkpt>
      <trkpt lat="47.74034" lon="2.11757">
        <ele>122</ele>
        <time>2017-02-05T08:14:59.931Z</time>
      </trkpt>
      <trkpt lat="47.74034" lon="2.11757">
        <ele>122</ele>
        <time>2017-02-05T08:15:00.928Z</time>
      </trkpt>
      <trkpt lat="47.74023" lon="2.11754">
        <ele>122</ele>
        <time>2017-02-05T08:15:01.925Z</time>
      </trkpt>
      <trkpt lat="47.74017" lon="2.11753">
        <ele>122</ele>
        <time>2017-02-05T08:15:02.931Z</time>
      </trkpt>
      <trkpt lat="47.74017" lon="2.11753">
        <ele>122</ele>
        <time>2017-02-05T08:15:03.945Z</time>
      </trkpt>
      <trkpt lat="47.74004" lon="2.11752">
        <ele>123</ele>
        <time>2017-02-05T08:15:04.936Z</time>
      </trkpt>
      <trkpt lat="47.74004" lon="2.11752">
        <ele>123</ele>
        <time>2017-02-05T08:15:05.928Z</time>
      </trkpt>
      <trkpt lat="47.73993" lon="2.11754">
        <ele>123</ele>
        <time>2017-02-05T08:15:06.930Z</time>
      </trkpt>
      <trkpt lat="47.73993" lon="2.11754">
        <ele>123</ele>
        <time>2017-02-05T08:15:07.936Z</time>
      </trkpt>
      <trkpt lat="47.73985" lon="2.11761">
        <ele>123</ele>
        <time>2017-02-05T08:15:08.929Z</time>
      </trkpt>
      <trkpt lat="47.73985" lon="2.11761">
        <ele>123</ele>
        <time>2017-02-05T08:15:09.927Z</time>
      </trkpt>
      <trkpt lat="47.73979" lon="2.11773">
        <ele>124</ele>
        <time>2017-02-05T08:15:10.930Z</time>
      </trkpt>
      <trkpt lat="47.73979" lon="2.11773">
        <ele>124</ele>
        <time>2017-02-05T08:15:11.934Z</time>
      </trkpt>
      <trkpt lat="47.73974" lon="2.11787">
        <ele>124</ele>
        <time>2017-02-05T08:15:12.930Z</time>
      </trkpt>
      <trkpt lat="47.73974" lon="2.11787">
        <ele>124</ele>
        <time>2017-02-05T08:15:13.927Z</time>
      </trkpt>
      <trkpt lat="47.73969" lon="2.11799">
        <ele>124</ele>
        <time>2017-02-05T08:15:14.930Z</time>
      </trkpt>
      <trkpt lat="47.73969" lon="2.11799">
        <ele>124</ele>
        <time>2017-02-05T08:15:15.925Z</time>
      </trkpt>
      <trkpt lat="47.73967" lon="2.11815">
        <ele>124</ele>
        <time>2017-02-05T08:15:16.930Z</time>
      </trkpt>
      <trkpt lat="47.73967" lon="2.11815">
        <ele>124</ele>
        <time>2017-02-05T08:15:17.928Z</time>
      </trkpt>
      <trkpt lat="47.73965" lon="2.1183">
        <ele>124</ele>
        <time>2017-02-05T08:15:18.926Z</time>
      </trkpt>
      <trkpt lat="47.73964" lon="2.11838">
        <ele>123</ele>
        <time>2017-02-05T08:15:19.927Z</time>
      </trkpt>
      <trkpt lat="47.73964" lon="2.11838">
        <ele>123</ele>
        <time>2017-02-05T08:15:20.925Z</time>
      </trkpt>
      <trkpt lat="47.73963" lon="2.11853">
        <ele>123</ele>
        <time>2017-02-05T08:15:21.930Z</time>
      </trkpt>
      <trkpt lat="47.73963" lon="2.11853">
        <ele>123</ele>
        <time>2017-02-05T08:15:22.928Z</time>
      </trkpt>
      <trkpt lat="47.73963" lon="2.11865">
        <ele>123</ele>
        <time>2017-02-05T08:15:23.937Z</time>
      </trkpt>
      <trkpt lat="47.73964" lon="2.11871">
        <ele>123</ele>
        <time>2017-02-05T08:15:24.930Z</time>
      </trkpt>
      <trkpt lat="47.73964" lon="2.11871">
        <ele>123</ele>
        <time>2017-02-05T08:15:25.927Z</time>
      </trkpt>
      <trkpt lat="47.73964" lon="2.11883">
        <ele>123</ele>
        <time>2017-02-05T08:15:26.930Z</time>
      </trkpt>
      <trkpt lat="47.73964" lon="2.11883">
        <ele>123</ele>
        <time>2017-02-05T08:15:27.927Z</time>
      </trkpt>
      <trkpt lat="47.73966" lon="2.11899">
        <ele>123</ele>
        <time>2017-02-05T08:15:28.929Z</time>
      </trkpt>
      <trkpt lat="47.73967" lon="2.11907">
        <ele>123</ele>
        <time>2017-02-05T08:15:29.943Z</time>
      </trkpt>
      <trkpt lat="47.73967" lon="2.11907">
        <ele>123</ele>
        <time>2017-02-05T08:15:30.934Z</time>
      </trkpt>
      <trkpt lat="47.73966" lon="2.11923">
        <ele>123</ele>
        <time>2017-02-05T08:15:31.928Z</time>
      </trkpt>
      <trkpt lat="47.73966" lon="2.11923">
        <ele>123</ele>
        <time>2017-02-05T08:15:32.926Z</time>
      </trkpt>
      <trkpt lat="47.73966" lon="2.11938">
        <ele>123</ele>
        <time>2017-02-05T08:15:33.936Z</time>
      </trkpt>
      <trkpt lat="47.73966" lon="2.11938">
        <ele>123</ele>
        <time>2017-02-05T08:15:34.929Z</time>
      </trkpt>
      <trkpt lat="47.73966" lon="2.11956">
        <ele>123</ele>
        <time>2017-02-05T08:15:35.929Z</time>
      </trkpt>
      <trkpt lat="47.73966" lon="2.11956">
        <ele>123</ele>
        <time>2017-02-05T08:15:36.933Z</time>
      </trkpt>
      <trkpt lat="47.73966" lon="2.11971">
        <ele>124</ele>
        <time>2017-02-05T08:15:37.929Z</time>
      </trkpt>
      <trkpt lat="47.73964" lon="2.1198">
        <ele>123</ele>
        <time>2017-02-05T08:15:38.931Z</time>
      </trkpt>
      <trkpt lat="47.73961" lon="2.11987">
        <ele>124</ele>
        <time>2017-02-05T08:15:39.931Z</time>
      </trkpt>
      <trkpt lat="47.73961" lon="2.11987">
        <ele>124</ele>
        <time>2017-02-05T08:15:40.926Z</time>
      </trkpt>
      <trkpt lat="47.73957" lon="2.12004">
        <ele>124</ele>
        <time>2017-02-05T08:15:41.932Z</time>
      </trkpt>
      <trkpt lat="47.73955" lon="2.12012">
        <ele>123</ele>
        <time>2017-02-05T08:15:42.930Z</time>
      </trkpt>
      <trkpt lat="47.73955" lon="2.12012">
        <ele>123</ele>
        <time>2017-02-05T08:15:43.945Z</time>
      </trkpt>
      <trkpt lat="47.73953" lon="2.12028">
        <ele>123</ele>
        <time>2017-02-05T08:15:44.936Z</time>
      </trkpt>
      <trkpt lat="47.73951" lon="2.12037">
        <ele>123</ele>
        <time>2017-02-05T08:15:45.930Z</time>
      </trkpt>
      <trkpt lat="47.73951" lon="2.12037">
        <ele>123</ele>
        <time>2017-02-05T08:15:46.928Z</time>
      </trkpt>
      <trkpt lat="47.73949" lon="2.12054">
        <ele>123</ele>
        <time>2017-02-05T08:15:47.931Z</time>
      </trkpt>
      <trkpt lat="47.73949" lon="2.12054">
        <ele>123</ele>
        <time>2017-02-05T08:15:48.924Z</time>
      </trkpt>
      <trkpt lat="47.73948" lon="2.12071">
        <ele>123</ele>
        <time>2017-02-05T08:15:49.930Z</time>
      </trkpt>
      <trkpt lat="47.73947" lon="2.1208">
        <ele>123</ele>
        <time>2017-02-05T08:15:50.930Z</time>
      </trkpt>
      <trkpt lat="47.73947" lon="2.1208">
        <ele>123</ele>
        <time>2017-02-05T08:15:51.928Z</time>
      </trkpt>
      <trkpt lat="47.73946" lon="2.12097">
        <ele>122</ele>
        <time>2017-02-05T08:15:52.940Z</time>
      </trkpt>
      <trkpt lat="47.73946" lon="2.12105">
        <ele>122</ele>
        <time>2017-02-05T08:15:53.939Z</time>
      </trkpt>
      <trkpt lat="47.73946" lon="2.12105">
        <ele>122</ele>
        <time>2017-02-05T08:15:54.930Z</time>
      </trkpt>
      <trkpt lat="47.73947" lon="2.12122">
        <ele>121</ele>
        <time>2017-02-05T08:15:55.930Z</time>
      </trkpt>
      <trkpt lat="47.73947" lon="2.12131">
        <ele>121</ele>
        <time>2017-02-05T08:15:56.930Z</time>
      </trkpt>
      <trkpt lat="47.73947" lon="2.12131">
        <ele>121</ele>
        <time>2017-02-05T08:15:57.928Z</time>
      </trkpt>
      <trkpt lat="47.73948" lon="2.12147">
        <ele>120</ele>
        <time>2017-02-05T08:15:58.932Z</time>
      </trkpt>
      <trkpt lat="47.73948" lon="2.12147">
        <ele>120</ele>
        <time>2017-02-05T08:15:59.929Z</time>
      </trkpt>
      <trkpt lat="47.73947" lon="2.12162">
        <ele>120</ele>
        <time>2017-02-05T08:16:00.931Z</time>
      </trkpt>
      <trkpt lat="47.73947" lon="2.12162">
        <ele>120</ele>
        <time>2017-02-05T08:16:01.926Z</time>
      </trkpt>
      <trkpt lat="47.73942" lon="2.12178">
        <ele>120</ele>
        <time>2017-02-05T08:16:02.928Z</time>
      </trkpt>
      <trkpt lat="47.73942" lon="2.12178">
        <ele>120</ele>
        <time>2017-02-05T08:16:03.939Z</time>
      </trkpt>
      <trkpt lat="47.73937" lon="2.1219">
        <ele>120</ele>
        <time>2017-02-05T08:16:04.931Z</time>
      </trkpt>
      <trkpt lat="47.73937" lon="2.1219">
        <ele>120</ele>
        <time>2017-02-05T08:16:05.928Z</time>
      </trkpt>
      <trkpt lat="47.7393" lon="2.12201">
        <ele>120</ele>
        <time>2017-02-05T08:16:06.930Z</time>
      </trkpt>
      <trkpt lat="47.7393" lon="2.12201">
        <ele>120</ele>
        <time>2017-02-05T08:16:07.927Z</time>
      </trkpt>
      <trkpt lat="47.73923" lon="2.12212">
        <ele>120</ele>
        <time>2017-02-05T08:16:08.928Z</time>
      </trkpt>
      <trkpt lat="47.7392" lon="2.12217">
        <ele>120</ele>
        <time>2017-02-05T08:16:09.930Z</time>
      </trkpt>
      <trkpt lat="47.7392" lon="2.12217">
        <ele>120</ele>
        <time>2017-02-05T08:16:10.928Z</time>
      </trkpt>
      <trkpt lat="47.73915" lon="2.12231">
        <ele>121</ele>
        <time>2017-02-05T08:16:11.929Z</time>
      </trkpt>
      <trkpt lat="47.73915" lon="2.12231">
        <ele>121</ele>
        <time>2017-02-05T08:16:12.927Z</time>
      </trkpt>
      <trkpt lat="47.73906" lon="2.12245">
        <ele>121</ele>
        <time>2017-02-05T08:16:13.935Z</time>
      </trkpt>
      <trkpt lat="47.73901" lon="2.1225">
        <ele>121</ele>
        <time>2017-02-05T08:16:14.930Z</time>
      </trkpt>
      <trkpt lat="47.73901" lon="2.1225">
        <ele>121</ele>
        <time>2017-02-05T08:16:15.928Z</time>
      </trkpt>
      <trkpt lat="47.73894" lon="2.1226">
        <ele>122</ele>
        <time>2017-02-05T08:16:16.930Z</time>
      </trkpt>
      <trkpt lat="47.73894" lon="2.1226">
        <ele>122</ele>
        <time>2017-02-05T08:16:17.928Z</time>
      </trkpt>
      <trkpt lat="47.73887" lon="2.1227">
        <ele>123</ele>
        <time>2017-02-05T08:16:18.929Z</time>
      </trkpt>
      <trkpt lat="47.73884" lon="2.12275">
        <ele>123</ele>
        <time>2017-02-05T08:16:19.930Z</time>
      </trkpt>
      <trkpt lat="47.73884" lon="2.12275">
        <ele>123</ele>
        <time>2017-02-05T08:16:20.927Z</time>
      </trkpt>
      <trkpt lat="47.73877" lon="2.12286">
        <ele>123</ele>
        <time>2017-02-05T08:16:21.930Z</time>
      </trkpt>
      <trkpt lat="47.73877" lon="2.12286">
        <ele>123</ele>
        <time>2017-02-05T08:16:22.926Z</time>
      </trkpt>
      <trkpt lat="47.7387" lon="2.12298">
        <ele>123</ele>
        <time>2017-02-05T08:16:23.942Z</time>
      </trkpt>
      <trkpt lat="47.73868" lon="2.12304">
        <ele>124</ele>
        <time>2017-02-05T08:16:24.932Z</time>
      </trkpt>
      <trkpt lat="47.73868" lon="2.12304">
        <ele>124</ele>
        <time>2017-02-05T08:16:25.927Z</time>
      </trkpt>
      <trkpt lat="47.73862" lon="2.12315">
        <ele>124</ele>
        <time>2017-02-05T08:16:26.930Z</time>
      </trkpt>
      <trkpt lat="47.73862" lon="2.12315">
        <ele>124</ele>
        <time>2017-02-05T08:16:27.928Z</time>
      </trkpt>
      <trkpt lat="47.73858" lon="2.12328">
        <ele>124</ele>
        <time>2017-02-05T08:16:28.928Z</time>
      </trkpt>
      <trkpt lat="47.73856" lon="2.12336">
        <ele>124</ele>
        <time>2017-02-05T08:16:29.957Z</time>
      </trkpt>
      <trkpt lat="47.73856" lon="2.12336">
        <ele>124</ele>
        <time>2017-02-05T08:16:30.945Z</time>
      </trkpt>
      <trkpt lat="47.73853" lon="2.12351">
        <ele>125</ele>
        <time>2017-02-05T08:16:31.937Z</time>
      </trkpt>
      <trkpt lat="47.73853" lon="2.12351">
        <ele>125</ele>
        <time>2017-02-05T08:16:32.927Z</time>
      </trkpt>
      <trkpt lat="47.73852" lon="2.12367">
        <ele>125</ele>
        <time>2017-02-05T08:16:33.936Z</time>
      </trkpt>
      <trkpt lat="47.73852" lon="2.12367">
        <ele>125</ele>
        <time>2017-02-05T08:16:34.928Z</time>
      </trkpt>
      <trkpt lat="47.73852" lon="2.12382">
        <ele>126</ele>
        <time>2017-02-05T08:16:35.931Z</time>
      </trkpt>
      <trkpt lat="47.73852" lon="2.12382">
        <ele>126</ele>
        <time>2017-02-05T08:16:36.927Z</time>
      </trkpt>
      <trkpt lat="47.73852" lon="2.12398">
        <ele>125</ele>
        <time>2017-02-05T08:16:37.930Z</time>
      </trkpt>
      <trkpt lat="47.73852" lon="2.12398">
        <ele>125</ele>
        <time>2017-02-05T08:16:38.924Z</time>
      </trkpt>
      <trkpt lat="47.73851" lon="2.12414">
        <ele>124</ele>
        <time>2017-02-05T08:16:39.928Z</time>
      </trkpt>
      <trkpt lat="47.73851" lon="2.12414">
        <ele>124</ele>
        <time>2017-02-05T08:16:40.928Z</time>
      </trkpt>
      <trkpt lat="47.7385" lon="2.1243">
        <ele>123</ele>
        <time>2017-02-05T08:16:41.931Z</time>
      </trkpt>
      <trkpt lat="47.7385" lon="2.1243">
        <ele>123</ele>
        <time>2017-02-05T08:16:42.923Z</time>
      </trkpt>
      <trkpt lat="47.73848" lon="2.12446">
        <ele>121</ele>
        <time>2017-02-05T08:16:43.930Z</time>
      </trkpt>
      <trkpt lat="47.73847" lon="2.12454">
        <ele>121</ele>
        <time>2017-02-05T08:16:44.930Z</time>
      </trkpt>
      <trkpt lat="47.73847" lon="2.12454">
        <ele>121</ele>
        <time>2017-02-05T08:16:45.927Z</time>
      </trkpt>
      <trkpt lat="47.73844" lon="2.12471">
        <ele>121</ele>
        <time>2017-02-05T08:16:46.929Z</time>
      </trkpt>
      <trkpt lat="47.73844" lon="2.12471">
        <ele>121</ele>
        <time>2017-02-05T08:16:47.928Z</time>
      </trkpt>
      <trkpt lat="47.73841" lon="2.12487">
        <ele>122</ele>
        <time>2017-02-05T08:16:48.929Z</time>
      </trkpt>
      <trkpt lat="47.73841" lon="2.12487">
        <ele>122</ele>
        <time>2017-02-05T08:16:49.927Z</time>
      </trkpt>
      <trkpt lat="47.73838" lon="2.12503">
        <ele>123</ele>
        <time>2017-02-05T08:16:50.928Z</time>
      </trkpt>
      <trkpt lat="47.73838" lon="2.12503">
        <ele>123</ele>
        <time>2017-02-05T08:16:51.928Z</time>
      </trkpt>
      <trkpt lat="47.73837" lon="2.12519">
        <ele>123</ele>
        <time>2017-02-05T08:16:52.922Z</time>
      </trkpt>
      <trkpt lat="47.73836" lon="2.12527">
        <ele>123</ele>
        <time>2017-02-05T08:16:53.931Z</time>
      </trkpt>
      <trkpt lat="47.73836" lon="2.12527">
        <ele>123</ele>
        <time>2017-02-05T08:16:54.928Z</time>
      </trkpt>
      <trkpt lat="47.73835" lon="2.12542">
        <ele>123</ele>
        <time>2017-02-05T08:16:55.932Z</time>
      </trkpt>
      <trkpt lat="47.73835" lon="2.12542">
        <ele>123</ele>
        <time>2017-02-05T08:16:56.926Z</time>
      </trkpt>
      <trkpt lat="47.73832" lon="2.12557">
        <ele>123</ele>
        <time>2017-02-05T08:16:57.945Z</time>
      </trkpt>
      <trkpt lat="47.73832" lon="2.12557">
        <ele>123</ele>
        <time>2017-02-05T08:16:58.957Z</time>
      </trkpt>
      <trkpt lat="47.73828" lon="2.12573">
        <ele>123</ele>
        <time>2017-02-05T08:16:59.946Z</time>
      </trkpt>
      <trkpt lat="47.73828" lon="2.12573">
        <ele>123</ele>
        <time>2017-02-05T08:17:00.935Z</time>
      </trkpt>
      <trkpt lat="47.73827" lon="2.12588">
        <ele>123</ele>
        <time>2017-02-05T08:17:01.930Z</time>
      </trkpt>
      <trkpt lat="47.73827" lon="2.12588">
        <ele>123</ele>
        <time>2017-02-05T08:17:02.923Z</time>
      </trkpt>
      <trkpt lat="47.73826" lon="2.12604">
        <ele>123</ele>
        <time>2017-02-05T08:17:03.929Z</time>
      </trkpt>
      <trkpt lat="47.73826" lon="2.12604">
        <ele>123</ele>
        <time>2017-02-05T08:17:04.927Z</time>
      </trkpt>
      <trkpt lat="47.73823" lon="2.12619">
        <ele>123</ele>
        <time>2017-02-05T08:17:05.932Z</time>
      </trkpt>
      <trkpt lat="47.73823" lon="2.12619">
        <ele>123</ele>
        <time>2017-02-05T08:17:06.927Z</time>
      </trkpt>
      <trkpt lat="47.7382" lon="2.12633">
        <ele>123</ele>
        <time>2017-02-05T08:17:07.930Z</time>
      </trkpt>
      <trkpt lat="47.73818" lon="2.1264">
        <ele>123</ele>
        <time>2017-02-05T08:17:08.930Z</time>
      </trkpt>
      <trkpt lat="47.73818" lon="2.1264">
        <ele>123</ele>
        <time>2017-02-05T08:17:09.927Z</time>
      </trkpt>
      <trkpt lat="47.73815" lon="2.12653">
        <ele>123</ele>
        <time>2017-02-05T08:17:10.931Z</time>
      </trkpt>
      <trkpt lat="47.73815" lon="2.12653">
        <ele>123</ele>
        <time>2017-02-05T08:17:11.926Z</time>
      </trkpt>
      <trkpt lat="47.73812" lon="2.12666">
        <ele>123</ele>
        <time>2017-02-05T08:17:12.930Z</time>
      </trkpt>
      <trkpt lat="47.73812" lon="2.12666">
        <ele>123</ele>
        <time>2017-02-05T08:17:13.936Z</time>
      </trkpt>
      <trkpt lat="47.73809" lon="2.1268">
        <ele>124</ele>
        <time>2017-02-05T08:17:14.930Z</time>
      </trkpt>
      <trkpt lat="47.73807" lon="2.12687">
        <ele>124</ele>
        <time>2017-02-05T08:17:15.931Z</time>
      </trkpt>
      <trkpt lat="47.73807" lon="2.12687">
        <ele>124</ele>
        <time>2017-02-05T08:17:16.927Z</time>
      </trkpt>
      <trkpt lat="47.73803" lon="2.12701">
        <ele>124</ele>
        <time>2017-02-05T08:17:17.931Z</time>
      </trkpt>
      <trkpt lat="47.73803" lon="2.12701">
        <ele>124</ele>
        <time>2017-02-05T08:17:18.939Z</time>
      </trkpt>
      <trkpt lat="47.738" lon="2.12713">
        <ele>124</ele>
        <time>2017-02-05T08:17:19.931Z</time>
      </trkpt>
      <trkpt lat="47.738" lon="2.12713">
        <ele>124</ele>
        <time>2017-02-05T08:17:20.928Z</time>
      </trkpt>
      <trkpt lat="47.73798" lon="2.12726">
        <ele>125</ele>
        <time>2017-02-05T08:17:21.930Z</time>
      </trkpt>
      <trkpt lat="47.73798" lon="2.12726">
        <ele>125</ele>
        <time>2017-02-05T08:17:22.928Z</time>
      </trkpt>
      <trkpt lat="47.73797" lon="2.12738">
        <ele>125</ele>
        <time>2017-02-05T08:17:23.940Z</time>
      </trkpt>
      <trkpt lat="47.73797" lon="2.12738">
        <ele>125</ele>
        <time>2017-02-05T08:17:24.930Z</time>
      </trkpt>
      <trkpt lat="47.73794" lon="2.12752">
        <ele>125</ele>
        <time>2017-02-05T08:17:25.932Z</time>
      </trkpt>
      <trkpt lat="47.73794" lon="2.12752">
        <ele>125</ele>
        <time>2017-02-05T08:17:26.929Z</time>
      </trkpt>
      <trkpt lat="47.7379" lon="2.12765">
        <ele>126</ele>
        <time>2017-02-05T08:17:27.927Z</time>
      </trkpt>
      <trkpt lat="47.73789" lon="2.12772">
        <ele>126</ele>
        <time>2017-02-05T08:17:28.930Z</time>
      </trkpt>
      <trkpt lat="47.73789" lon="2.12772">
        <ele>126</ele>
        <time>2017-02-05T08:17:29.941Z</time>
      </trkpt>
      <trkpt lat="47.73786" lon="2.12786">
        <ele>126</ele>
        <time>2017-02-05T08:17:30.932Z</time>
      </trkpt>
      <trkpt lat="47.73786" lon="2.12786">
        <ele>126</ele>
        <time>2017-02-05T08:17:31.926Z</time>
      </trkpt>
      <trkpt lat="47.73785" lon="2.12799">
        <ele>126</ele>
        <time>2017-02-05T08:17:32.931Z</time>
      </trkpt>
      <trkpt lat="47.73785" lon="2.12799">
        <ele>126</ele>
        <time>2017-02-05T08:17:33.928Z</time>
      </trkpt>
      <trkpt lat="47.73782" lon="2.12813">
        <ele>126</ele>
        <time>2017-02-05T08:17:34.930Z</time>
      </trkpt>
      <trkpt lat="47.7378" lon="2.1282">
        <ele>126</ele>
        <time>2017-02-05T08:17:35.931Z</time>
      </trkpt>
      <trkpt lat="47.7378" lon="2.1282">
        <ele>126</ele>
        <time>2017-02-05T08:17:36.927Z</time>
      </trkpt>
      <trkpt lat="47.73776" lon="2.12833">
        <ele>126</ele>
        <time>2017-02-05T08:17:37.931Z</time>
      </trkpt>
      <trkpt lat="47.73776" lon="2.12833">
        <ele>126</ele>
        <time>2017-02-05T08:17:38.924Z</time>
      </trkpt>
      <trkpt lat="47.73772" lon="2.12846">
        <ele>126</ele>
        <time>2017-02-05T08:17:39.929Z</time>
      </trkpt>
      <trkpt lat="47.73771" lon="2.12852">
        <ele>126</ele>
        <time>2017-02-05T08:17:40.931Z</time>
      </trkpt>
      <trkpt lat="47.73771" lon="2.12852">
        <ele>126</ele>
        <time>2017-02-05T08:17:41.928Z</time>
      </trkpt>
      <trkpt lat="47.73768" lon="2.12866">
        <ele>126</ele>
        <time>2017-02-05T08:17:42.930Z</time>
      </trkpt>
      <trkpt lat="47.73768" lon="2.12866">
        <ele>126</ele>
        <time>2017-02-05T08:17:43.950Z</time>
      </trkpt>
      <trkpt lat="47.73765" lon="2.1288">
        <ele>126</ele>
        <time>2017-02-05T08:17:44.940Z</time>
      </trkpt>
      <trkpt lat="47.73764" lon="2.12886">
        <ele>126</ele>
        <time>2017-02-05T08:17:45.930Z</time>
      </trkpt>
      <trkpt lat="47.73764" lon="2.12886">
        <ele>126</ele>
        <time>2017-02-05T08:17:46.925Z</time>
      </trkpt>
      <trkpt lat="47.73762" lon="2.12899">
        <ele>127</ele>
        <time>2017-02-05T08:17:47.931Z</time>
      </trkpt>
      <trkpt lat="47.73762" lon="2.12899">
        <ele>127</ele>
        <time>2017-02-05T08:17:48.927Z</time>
      </trkpt>
      <trkpt lat="47.7376" lon="2.12912">
        <ele>127</ele>
        <time>2017-02-05T08:17:49.928Z</time>
      </trkpt>
      <trkpt lat="47.7376" lon="2.12912">
        <ele>127</ele>
        <time>2017-02-05T08:17:50.926Z</time>
      </trkpt>
      <trkpt lat="47.73758" lon="2.12927">
        <ele>127</ele>
        <time>2017-02-05T08:17:51.931Z</time>
      </trkpt>
      <trkpt lat="47.73758" lon="2.12927">
        <ele>127</ele>
        <time>2017-02-05T08:17:52.928Z</time>
      </trkpt>
      <trkpt lat="47.73756" lon="2.12943">
        <ele>127</ele>
        <time>2017-02-05T08:17:53.935Z</time>
      </trkpt>
      <trkpt lat="47.73756" lon="2.12943">
        <ele>127</ele>
        <time>2017-02-05T08:17:54.927Z</time>
      </trkpt>
      <trkpt lat="47.73754" lon="2.12958">
        <ele>127</ele>
        <time>2017-02-05T08:17:55.930Z</time>
      </trkpt>
      <trkpt lat="47.73754" lon="2.12958">
        <ele>127</ele>
        <time>2017-02-05T08:17:56.928Z</time>
      </trkpt>
      <trkpt lat="47.73752" lon="2.12974">
        <ele>126</ele>
        <time>2017-02-05T08:17:57.930Z</time>
      </trkpt>
      <trkpt lat="47.73752" lon="2.12974">
        <ele>126</ele>
        <time>2017-02-05T08:17:58.932Z</time>
      </trkpt>
      <trkpt lat="47.7375" lon="2.1299">
        <ele>126</ele>
        <time>2017-02-05T08:17:59.932Z</time>
      </trkpt>
      <trkpt lat="47.7375" lon="2.1299">
        <ele>126</ele>
        <time>2017-02-05T08:18:00.925Z</time>
      </trkpt>
      <trkpt lat="47.73748" lon="2.13005">
        <ele>125</ele>
        <time>2017-02-05T08:18:01.931Z</time>
      </trkpt>
      <trkpt lat="47.73748" lon="2.13005">
        <ele>125</ele>
        <time>2017-02-05T08:18:02.928Z</time>
      </trkpt>
      <trkpt lat="47.73747" lon="2.13018">
        <ele>125</ele>
        <time>2017-02-05T08:18:03.943Z</time>
      </trkpt>
      <trkpt lat="47.73747" lon="2.13018">
        <ele>125</ele>
        <time>2017-02-05T08:18:04.936Z</time>
      </trkpt>
      <trkpt lat="47.73746" lon="2.13031">
        <ele>124</ele>
        <time>2017-02-05T08:18:05.932Z</time>
      </trkpt>
      <trkpt lat="47.73746" lon="2.13031">
        <ele>124</ele>
        <time>2017-02-05T08:18:06.928Z</time>
      </trkpt>
      <trkpt lat="47.73746" lon="2.13041">
        <ele>123</ele>
        <time>2017-02-05T08:18:07.941Z</time>
      </trkpt>
      <trkpt lat="47.73746" lon="2.13041">
        <ele>123</ele>
        <time>2017-02-05T08:18:08.929Z</time>
      </trkpt>
      <trkpt lat="47.73744" lon="2.13052">
        <ele>123</ele>
        <time>2017-02-05T08:18:09.932Z</time>
      </trkpt>
      <trkpt lat="47.73744" lon="2.13052">
        <ele>123</ele>
        <time>2017-02-05T08:18:10.926Z</time>
      </trkpt>
      <trkpt lat="47.73744" lon="2.13064">
        <ele>123</ele>
        <time>2017-02-05T08:18:11.931Z</time>
      </trkpt>
      <trkpt lat="47.73744" lon="2.13064">
        <ele>123</ele>
        <time>2017-02-05T08:18:12.926Z</time>
      </trkpt>
      <trkpt lat="47.73742" lon="2.13074">
        <ele>123</ele>
        <time>2017-02-05T08:18:13.934Z</time>
      </trkpt>
      <trkpt lat="47.73741" lon="2.1308">
        <ele>123</ele>
        <time>2017-02-05T08:18:14.931Z</time>
      </trkpt>
      <trkpt lat="47.73741" lon="2.1308">
        <ele>123</ele>
        <time>2017-02-05T08:18:15.925Z</time>
      </trkpt>
      <trkpt lat="47.73738" lon="2.13091">
        <ele>123</ele>
        <time>2017-02-05T08:18:16.927Z</time>
      </trkpt>
      <trkpt lat="47.73736" lon="2.13096">
        <ele>123</ele>
        <time>2017-02-05T08:18:17.932Z</time>
      </trkpt>
      <trkpt lat="47.73736" lon="2.13096">
        <ele>123</ele>
        <time>2017-02-05T08:18:18.929Z</time>
      </trkpt>
      <trkpt lat="47.73735" lon="2.13104">
        <ele>124</ele>
        <time>2017-02-05T08:18:19.932Z</time>
      </trkpt>
      <trkpt lat="47.73735" lon="2.13104">
        <ele>124</ele>
        <time>2017-02-05T08:18:20.926Z</time>
      </trkpt>
      <trkpt lat="47.73734" lon="2.13109">
        <ele>125</ele>
        <time>2017-02-05T08:18:21.931Z</time>
      </trkpt>
      <trkpt lat="47.73734" lon="2.13109">
        <ele>125</ele>
        <time>2017-02-05T08:18:22.929Z</time>
      </trkpt>
      <trkpt lat="47.73734" lon="2.1311">
        <ele>125</ele>
        <time>2017-02-05T08:18:23.937Z</time>
      </trkpt>
      <trkpt lat="47.73734" lon="2.1311">
        <ele>125</ele>
        <time>2017-02-05T08:18:24.928Z</time>
      </trkpt>
      <trkpt lat="47.7372" lon="2.13117">
        <ele>130</ele>
        <time>2017-02-05T08:18:25.923Z</time>
      </trkpt>
      <trkpt lat="47.73718" lon="2.13117">
        <ele>130</ele>
        <time>2017-02-05T08:18:26.953Z</time>
      </trkpt>
      <trkpt lat="47.73718" lon="2.13117">
        <ele>130</ele>
        <time>2017-02-05T08:18:27.950Z</time>
      </trkpt>
      <trkpt lat="47.73713" lon="2.13115">
        <ele>130</ele>
        <time>2017-02-05T08:18:28.951Z</time>
      </trkpt>
      <trkpt lat="47.7371" lon="2.13114">
        <ele>130</ele>
        <time>2017-02-05T08:18:29.954Z</time>
      </trkpt>
      <trkpt lat="47.7371" lon="2.13114">
        <ele>130</ele>
        <time>2017-02-05T08:18:30.951Z</time>
      </trkpt>
      <trkpt lat="47.73703" lon="2.13112">
        <ele>130</ele>
        <time>2017-02-05T08:18:31.925Z</time>
      </trkpt>
      <trkpt lat="47.73703" lon="2.13112">
        <ele>130</ele>
        <time>2017-02-05T08:18:32.930Z</time>
      </trkpt>
      <trkpt lat="47.73698" lon="2.13109">
        <ele>130</ele>
        <time>2017-02-05T08:18:33.961Z</time>
      </trkpt>
      <trkpt lat="47.73698" lon="2.13109">
        <ele>130</ele>
        <time>2017-02-05T08:18:34.955Z</time>
      </trkpt>
      <trkpt lat="47.73692" lon="2.13106">
        <ele>130</ele>
        <time>2017-02-05T08:18:35.955Z</time>
      </trkpt>
      <trkpt lat="47.73692" lon="2.13106">
        <ele>130</ele>
        <time>2017-02-05T08:18:36.953Z</time>
      </trkpt>
      <trkpt lat="47.73686" lon="2.13104">
        <ele>131</ele>
        <time>2017-02-05T08:18:37.954Z</time>
      </trkpt>
      <trkpt lat="47.73686" lon="2.13104">
        <ele>131</ele>
        <time>2017-02-05T08:18:38.951Z</time>
      </trkpt>
      <trkpt lat="47.7368" lon="2.13101">
        <ele>131</ele>
        <time>2017-02-05T08:18:39.953Z</time>
      </trkpt>
      <trkpt lat="47.7368" lon="2.13101">
        <ele>131</ele>
        <time>2017-02-05T08:18:40.951Z</time>
      </trkpt>
      <trkpt lat="47.73674" lon="2.13099">
        <ele>131</ele>
        <time>2017-02-05T08:18:41.956Z</time>
      </trkpt>
      <trkpt lat="47.73674" lon="2.13099">
        <ele>131</ele>
        <time>2017-02-05T08:18:42.950Z</time>
      </trkpt>
      <trkpt lat="47.73667" lon="2.13097">
        <ele>132</ele>
        <time>2017-02-05T08:18:43.954Z</time>
      </trkpt>
      <trkpt lat="47.73667" lon="2.13097">
        <ele>132</ele>
        <time>2017-02-05T08:18:44.952Z</time>
      </trkpt>
      <trkpt lat="47.73661" lon="2.13094">
        <ele>132</ele>
        <time>2017-02-05T08:18:45.955Z</time>
      </trkpt>
      <trkpt lat="47.73657" lon="2.13093">
        <ele>132</ele>
        <time>2017-02-05T08:18:46.954Z</time>
      </trkpt>
      <trkpt lat="47.73657" lon="2.13093">
        <ele>132</ele>
        <time>2017-02-05T08:18:47.952Z</time>
      </trkpt>
      <trkpt lat="47.73651" lon="2.1309">
        <ele>132</ele>
        <time>2017-02-05T08:18:48.954Z</time>
      </trkpt>
      <trkpt lat="47.73648" lon="2.13089">
        <ele>133</ele>
        <time>2017-02-05T08:18:49.955Z</time>
      </trkpt>
      <trkpt lat="47.73648" lon="2.13089">
        <ele>133</ele>
        <time>2017-02-05T08:18:50.952Z</time>
      </trkpt>
      <trkpt lat="47.73641" lon="2.13086">
        <ele>133</ele>
        <time>2017-02-05T08:18:51.953Z</time>
      </trkpt>
      <trkpt lat="47.73641" lon="2.13086">
        <ele>133</ele>
        <time>2017-02-05T08:18:52.926Z</time>
      </trkpt>
      <trkpt lat="47.73634" lon="2.13084">
        <ele>133</ele>
        <time>2017-02-05T08:18:53.957Z</time>
      </trkpt>
      <trkpt lat="47.73634" lon="2.13084">
        <ele>133</ele>
        <time>2017-02-05T08:18:54.951Z</time>
      </trkpt>
      <trkpt lat="47.73628" lon="2.13081">
        <ele>133</ele>
        <time>2017-02-05T08:18:55.955Z</time>
      </trkpt>
      <trkpt lat="47.73628" lon="2.13081">
        <ele>133</ele>
        <time>2017-02-05T08:18:56.951Z</time>
      </trkpt>
      <trkpt lat="47.7362" lon="2.13077">
        <ele>132</ele>
        <time>2017-02-05T08:18:57.954Z</time>
      </trkpt>
      <trkpt lat="47.7362" lon="2.13077">
        <ele>132</ele>
        <time>2017-02-05T08:18:58.951Z</time>
      </trkpt>
      <trkpt lat="47.73614" lon="2.13074">
        <ele>132</ele>
        <time>2017-02-05T08:18:59.956Z</time>
      </trkpt>
      <trkpt lat="47.73614" lon="2.13074">
        <ele>132</ele>
        <time>2017-02-05T08:19:00.950Z</time>
      </trkpt>
      <trkpt lat="47.73607" lon="2.13072">
        <ele>132</ele>
        <time>2017-02-05T08:19:01.955Z</time>
      </trkpt>
      <trkpt lat="47.73607" lon="2.13072">
        <ele>132</ele>
        <time>2017-02-05T08:19:02.952Z</time>
      </trkpt>
      <trkpt lat="47.73601" lon="2.1307">
        <ele>132</ele>
        <time>2017-02-05T08:19:03.954Z</time>
      </trkpt>
      <trkpt lat="47.73601" lon="2.1307">
        <ele>132</ele>
        <time>2017-02-05T08:19:04.949Z</time>
      </trkpt>
      <trkpt lat="47.73595" lon="2.13068">
        <ele>132</ele>
        <time>2017-02-05T08:19:05.955Z</time>
      </trkpt>
      <trkpt lat="47.73595" lon="2.13068">
        <ele>132</ele>
        <time>2017-02-05T08:19:06.951Z</time>
      </trkpt>
      <trkpt lat="47.73588" lon="2.13065">
        <ele>132</ele>
        <time>2017-02-05T08:19:07.926Z</time>
      </trkpt>
      <trkpt lat="47.73588" lon="2.13065">
        <ele>132</ele>
        <time>2017-02-05T08:19:08.954Z</time>
      </trkpt>
      <trkpt lat="47.73582" lon="2.13062">
        <ele>132</ele>
        <time>2017-02-05T08:19:09.954Z</time>
      </trkpt>
      <trkpt lat="47.73582" lon="2.13062">
        <ele>132</ele>
        <time>2017-02-05T08:19:10.951Z</time>
      </trkpt>
      <trkpt lat="47.73576" lon="2.1306">
        <ele>132</ele>
        <time>2017-02-05T08:19:11.956Z</time>
      </trkpt>
      <trkpt lat="47.73576" lon="2.1306">
        <ele>132</ele>
        <time>2017-02-05T08:19:12.951Z</time>
      </trkpt>
      <trkpt lat="47.7357" lon="2.13057">
        <ele>133</ele>
        <time>2017-02-05T08:19:13.955Z</time>
      </trkpt>
      <trkpt lat="47.7357" lon="2.13057">
        <ele>133</ele>
        <time>2017-02-05T08:19:14.952Z</time>
      </trkpt>
      <trkpt lat="47.73563" lon="2.13054">
        <ele>133</ele>
        <time>2017-02-05T08:19:15.954Z</time>
      </trkpt>
      <trkpt lat="47.73559" lon="2.13052">
        <ele>133</ele>
        <time>2017-02-05T08:19:16.954Z</time>
      </trkpt>
      <trkpt lat="47.73555" lon="2.13051">
        <ele>133</ele>
        <time>2017-02-05T08:19:17.955Z</time>
      </trkpt>
      <trkpt lat="47.73555" lon="2.13051">
        <ele>133</ele>
        <time>2017-02-05T08:19:18.952Z</time>
      </trkpt>
      <trkpt lat="47.73548" lon="2.13048">
        <ele>133</ele>
        <time>2017-02-05T08:19:19.954Z</time>
      </trkpt>
      <trkpt lat="47.73548" lon="2.13048">
        <ele>133</ele>
        <time>2017-02-05T08:19:20.951Z</time>
      </trkpt>
      <trkpt lat="47.73539" lon="2.13045">
        <ele>133</ele>
        <time>2017-02-05T08:19:21.953Z</time>
      </trkpt>
      <trkpt lat="47.73539" lon="2.13045">
        <ele>133</ele>
        <time>2017-02-05T08:19:22.951Z</time>
      </trkpt>
      <trkpt lat="47.7353" lon="2.13041">
        <ele>133</ele>
        <time>2017-02-05T08:19:23.955Z</time>
      </trkpt>
      <trkpt lat="47.7353" lon="2.13041">
        <ele>133</ele>
        <time>2017-02-05T08:19:24.952Z</time>
      </trkpt>
      <trkpt lat="47.73522" lon="2.13038">
        <ele>134</ele>
        <time>2017-02-05T08:19:25.955Z</time>
      </trkpt>
      <trkpt lat="47.73522" lon="2.13038">
        <ele>134</ele>
        <time>2017-02-05T08:19:26.952Z</time>
      </trkpt>
      <trkpt lat="47.73512" lon="2.13035">
        <ele>133</ele>
        <time>2017-02-05T08:19:27.927Z</time>
      </trkpt>
      <trkpt lat="47.73512" lon="2.13035">
        <ele>133</ele>
        <time>2017-02-05T08:19:28.957Z</time>
      </trkpt>
      <trkpt lat="47.73504" lon="2.13032">
        <ele>133</ele>
        <time>2017-02-05T08:19:29.924Z</time>
      </trkpt>
      <trkpt lat="47.73504" lon="2.13032">
        <ele>133</ele>
        <time>2017-02-05T08:19:30.952Z</time>
      </trkpt>
      <trkpt lat="47.73496" lon="2.1303">
        <ele>133</ele>
        <time>2017-02-05T08:19:31.956Z</time>
      </trkpt>
      <trkpt lat="47.73496" lon="2.1303">
        <ele>133</ele>
        <time>2017-02-05T08:19:32.952Z</time>
      </trkpt>
      <trkpt lat="47.73488" lon="2.13027">
        <ele>134</ele>
        <time>2017-02-05T08:19:33.954Z</time>
      </trkpt>
      <trkpt lat="47.73488" lon="2.13027">
        <ele>134</ele>
        <time>2017-02-05T08:19:34.951Z</time>
      </trkpt>
      <trkpt lat="47.73481" lon="2.13023">
        <ele>134</ele>
        <time>2017-02-05T08:19:35.956Z</time>
      </trkpt>
      <trkpt lat="47.73481" lon="2.13023">
        <ele>134</ele>
        <time>2017-02-05T08:19:36.951Z</time>
      </trkpt>
      <trkpt lat="47.73474" lon="2.1302">
        <ele>134</ele>
        <time>2017-02-05T08:19:37.954Z</time>
      </trkpt>
      <trkpt lat="47.73474" lon="2.1302">
        <ele>134</ele>
        <time>2017-02-05T08:19:38.951Z</time>
      </trkpt>
      <trkpt lat="47.73466" lon="2.13017">
        <ele>134</ele>
        <time>2017-02-05T08:19:39.954Z</time>
      </trkpt>
      <trkpt lat="47.73462" lon="2.13015">
        <ele>135</ele>
        <time>2017-02-05T08:19:40.953Z</time>
      </trkpt>
      <trkpt lat="47.73458" lon="2.13014">
        <ele>135</ele>
        <time>2017-02-05T08:19:41.955Z</time>
      </trkpt>
      <trkpt lat="47.73458" lon="2.13014">
        <ele>135</ele>
        <time>2017-02-05T08:19:42.935Z</time>
      </trkpt>
      <trkpt lat="47.73451" lon="2.13011">
        <ele>135</ele>
        <time>2017-02-05T08:19:43.925Z</time>
      </trkpt>
      <trkpt lat="47.73451" lon="2.13011">
        <ele>135</ele>
        <time>2017-02-05T08:19:44.956Z</time>
      </trkpt>
      <trkpt lat="47.73443" lon="2.13008">
        <ele>136</ele>
        <time>2017-02-05T08:19:45.925Z</time>
      </trkpt>
      <trkpt lat="47.73443" lon="2.13008">
        <ele>136</ele>
        <time>2017-02-05T08:19:46.958Z</time>
      </trkpt>
      <trkpt lat="47.73435" lon="2.13006">
        <ele>136</ele>
        <time>2017-02-05T08:19:47.953Z</time>
      </trkpt>
      <trkpt lat="47.73435" lon="2.13006">
        <ele>136</ele>
        <time>2017-02-05T08:19:48.949Z</time>
      </trkpt>
      <trkpt lat="47.73427" lon="2.13003">
        <ele>137</ele>
        <time>2017-02-05T08:19:49.956Z</time>
      </trkpt>
      <trkpt lat="47.73427" lon="2.13003">
        <ele>137</ele>
        <time>2017-02-05T08:19:50.951Z</time>
      </trkpt>
      <trkpt lat="47.7342" lon="2.13002">
        <ele>137</ele>
        <time>2017-02-05T08:19:51.952Z</time>
      </trkpt>
      <trkpt lat="47.7342" lon="2.13002">
        <ele>137</ele>
        <time>2017-02-05T08:19:52.952Z</time>
      </trkpt>
      <trkpt lat="47.73411" lon="2.13">
        <ele>137</ele>
        <time>2017-02-05T08:19:53.945Z</time>
      </trkpt>
      <trkpt lat="47.73411" lon="2.13">
        <ele>137</ele>
        <time>2017-02-05T08:19:54.950Z</time>
      </trkpt>
      <trkpt lat="47.73402" lon="2.12998">
        <ele>138</ele>
        <time>2017-02-05T08:19:55.956Z</time>
      </trkpt>
      <trkpt lat="47.73402" lon="2.12998">
        <ele>138</ele>
        <time>2017-02-05T08:19:56.952Z</time>
      </trkpt>
      <trkpt lat="47.73393" lon="2.12996">
        <ele>138</ele>
        <time>2017-02-05T08:19:57.955Z</time>
      </trkpt>
      <trkpt lat="47.73388" lon="2.12993">
        <ele>139</ele>
        <time>2017-02-05T08:19:58.952Z</time>
      </trkpt>
      <trkpt lat="47.73383" lon="2.12992">
        <ele>139</ele>
        <time>2017-02-05T08:19:59.957Z</time>
      </trkpt>
      <trkpt lat="47.73383" lon="2.12992">
        <ele>139</ele>
        <time>2017-02-05T08:20:00.952Z</time>
      </trkpt>
      <trkpt lat="47.73373" lon="2.12988">
        <ele>140</ele>
        <time>2017-02-05T08:20:01.955Z</time>
      </trkpt>
      <trkpt lat="47.73373" lon="2.12988">
        <ele>140</ele>
        <time>2017-02-05T08:20:02.952Z</time>
      </trkpt>
      <trkpt lat="47.73365" lon="2.12986">
        <ele>140</ele>
        <time>2017-02-05T08:20:03.954Z</time>
      </trkpt>
      <trkpt lat="47.73361" lon="2.12985">
        <ele>140</ele>
        <time>2017-02-05T08:20:04.955Z</time>
      </trkpt>
      <trkpt lat="47.73361" lon="2.12985">
        <ele>140</ele>
        <time>2017-02-05T08:20:05.953Z</time>
      </trkpt>
      <trkpt lat="47.73353" lon="2.12984">
        <ele>141</ele>
        <time>2017-02-05T08:20:06.955Z</time>
      </trkpt>
      <trkpt lat="47.73353" lon="2.12984">
        <ele>141</ele>
        <time>2017-02-05T08:20:07.949Z</time>
      </trkpt>
      <trkpt lat="47.73345" lon="2.12982">
        <ele>141</ele>
        <time>2017-02-05T08:20:08.955Z</time>
      </trkpt>
      <trkpt lat="47.73345" lon="2.12982">
        <ele>141</ele>
        <time>2017-02-05T08:20:09.952Z</time>
      </trkpt>
      <trkpt lat="47.73339" lon="2.12981">
        <ele>142</ele>
        <time>2017-02-05T08:20:10.955Z</time>
      </trkpt>
      <trkpt lat="47.73335" lon="2.1298">
        <ele>142</ele>
        <time>2017-02-05T08:20:11.954Z</time>
      </trkpt>
      <trkpt lat="47.73335" lon="2.1298">
        <ele>142</ele>
        <time>2017-02-05T08:20:12.952Z</time>
      </trkpt>
      <trkpt lat="47.73326" lon="2.12978">
        <ele>143</ele>
        <time>2017-02-05T08:20:13.952Z</time>
      </trkpt>
      <trkpt lat="47.73326" lon="2.12978">
        <ele>143</ele>
        <time>2017-02-05T08:20:14.953Z</time>
      </trkpt>
      <trkpt lat="47.73317" lon="2.12976">
        <ele>144</ele>
        <time>2017-02-05T08:20:15.954Z</time>
      </trkpt>
      <trkpt lat="47.73317" lon="2.12976">
        <ele>144</ele>
        <time>2017-02-05T08:20:16.952Z</time>
      </trkpt>
      <trkpt lat="47.73309" lon="2.12974">
        <ele>145</ele>
        <time>2017-02-05T08:20:17.955Z</time>
      </trkpt>
      <trkpt lat="47.73309" lon="2.12974">
        <ele>145</ele>
        <time>2017-02-05T08:20:18.952Z</time>
      </trkpt>
      <trkpt lat="47.733" lon="2.1297">
        <ele>146</ele>
        <time>2017-02-05T08:20:19.953Z</time>
      </trkpt>
      <trkpt lat="47.73296" lon="2.12969">
        <ele>147</ele>
        <time>2017-02-05T08:20:20.955Z</time>
      </trkpt>
      <trkpt lat="47.73293" lon="2.12967">
        <ele>148</ele>
        <time>2017-02-05T08:20:21.955Z</time>
      </trkpt>
      <trkpt lat="47.73293" lon="2.12967">
        <ele>148</ele>
        <time>2017-02-05T08:20:22.953Z</time>
      </trkpt>
      <trkpt lat="47.73285" lon="2.12964">
        <ele>148</ele>
        <time>2017-02-05T08:20:23.957Z</time>
      </trkpt>
      <trkpt lat="47.73285" lon="2.12964">
        <ele>148</ele>
        <time>2017-02-05T08:20:24.953Z</time>
      </trkpt>
      <trkpt lat="47.73276" lon="2.12961">
        <ele>149</ele>
        <time>2017-02-05T08:20:25.953Z</time>
      </trkpt>
      <trkpt lat="47.73276" lon="2.12961">
        <ele>149</ele>
        <time>2017-02-05T08:20:26.953Z</time>
      </trkpt>
      <trkpt lat="47.73267" lon="2.12958">
        <ele>150</ele>
        <time>2017-02-05T08:20:27.955Z</time>
      </trkpt>
      <trkpt lat="47.73263" lon="2.12956">
        <ele>151</ele>
        <time>2017-02-05T08:20:28.955Z</time>
      </trkpt>
      <trkpt lat="47.73263" lon="2.12956">
        <ele>151</ele>
        <time>2017-02-05T08:20:29.922Z</time>
      </trkpt>
      <trkpt lat="47.73254" lon="2.12953">
        <ele>152</ele>
        <time>2017-02-05T08:20:30.955Z</time>
      </trkpt>
      <trkpt lat="47.73249" lon="2.12951">
        <ele>152</ele>
        <time>2017-02-05T08:20:31.952Z</time>
      </trkpt>
      <trkpt lat="47.73249" lon="2.12951">
        <ele>152</ele>
        <time>2017-02-05T08:20:32.953Z</time>
      </trkpt>
      <trkpt lat="47.7324" lon="2.12947">
        <ele>153</ele>
        <time>2017-02-05T08:20:33.955Z</time>
      </trkpt>
      <trkpt lat="47.7324" lon="2.12947">
        <ele>153</ele>
        <time>2017-02-05T08:20:34.952Z</time>
      </trkpt>
      <trkpt lat="47.73232" lon="2.12943">
        <ele>153</ele>
        <time>2017-02-05T08:20:35.956Z</time>
      </trkpt>
      <trkpt lat="47.73232" lon="2.12943">
        <ele>153</ele>
        <time>2017-02-05T08:20:36.952Z</time>
      </trkpt>
      <trkpt lat="47.73225" lon="2.1294">
        <ele>153</ele>
        <time>2017-02-05T08:20:37.952Z</time>
      </trkpt>
      <trkpt lat="47.73225" lon="2.1294">
        <ele>153</ele>
        <time>2017-02-05T08:20:38.953Z</time>
      </trkpt>
      <trkpt lat="47.73216" lon="2.12936">
        <ele>154</ele>
        <time>2017-02-05T08:20:39.928Z</time>
      </trkpt>
      <trkpt lat="47.73212" lon="2.12935">
        <ele>154</ele>
        <time>2017-02-05T08:20:40.960Z</time>
      </trkpt>
      <trkpt lat="47.73208" lon="2.12933">
        <ele>154</ele>
        <time>2017-02-05T08:20:41.957Z</time>
      </trkpt>
      <trkpt lat="47.73208" lon="2.12933">
        <ele>154</ele>
        <time>2017-02-05T08:20:42.953Z</time>
      </trkpt>
      <trkpt lat="47.732" lon="2.12929">
        <ele>154</ele>
        <time>2017-02-05T08:20:43.956Z</time>
      </trkpt>
      <trkpt lat="47.732" lon="2.12929">
        <ele>154</ele>
        <time>2017-02-05T08:20:44.953Z</time>
      </trkpt>
      <trkpt lat="47.73191" lon="2.12924">
        <ele>154</ele>
        <time>2017-02-05T08:20:45.955Z</time>
      </trkpt>
      <trkpt lat="47.73186" lon="2.12921">
        <ele>155</ele>
        <time>2017-02-05T08:20:46.955Z</time>
      </trkpt>
      <trkpt lat="47.73182" lon="2.12919">
        <ele>155</ele>
        <time>2017-02-05T08:20:47.923Z</time>
      </trkpt>
      <trkpt lat="47.73182" lon="2.12919">
        <ele>155</ele>
        <time>2017-02-05T08:20:48.953Z</time>
      </trkpt>
      <trkpt lat="47.73173" lon="2.12915">
        <ele>155</ele>
        <time>2017-02-05T08:20:49.954Z</time>
      </trkpt>
      <trkpt lat="47.73169" lon="2.12913">
        <ele>156</ele>
        <time>2017-02-05T08:20:50.955Z</time>
      </trkpt>
      <trkpt lat="47.73169" lon="2.12913">
        <ele>156</ele>
        <time>2017-02-05T08:20:51.950Z</time>
      </trkpt>
      <trkpt lat="47.73161" lon="2.12909">
        <ele>156</ele>
        <time>2017-02-05T08:20:52.946Z</time>
      </trkpt>
      <trkpt lat="47.73157" lon="2.12907">
        <ele>156</ele>
        <time>2017-02-05T08:20:53.957Z</time>
      </trkpt>
      <trkpt lat="47.73157" lon="2.12907">
        <ele>156</ele>
        <time>2017-02-05T08:20:54.954Z</time>
      </trkpt>
      <trkpt lat="47.73147" lon="2.12903">
        <ele>157</ele>
        <time>2017-02-05T08:20:55.957Z</time>
      </trkpt>
      <trkpt lat="47.73147" lon="2.12903">
        <ele>157</ele>
        <time>2017-02-05T08:20:56.953Z</time>
      </trkpt>
      <trkpt lat="47.73138" lon="2.12901">
        <ele>158</ele>
        <time>2017-02-05T08:20:57.955Z</time>
      </trkpt>
      <trkpt lat="47.73133" lon="2.12899">
        <ele>158</ele>
        <time>2017-02-05T08:20:58.955Z</time>
      </trkpt>
      <trkpt lat="47.73129" lon="2.12898">
        <ele>159</ele>
        <time>2017-02-05T08:20:59.955Z</time>
      </trkpt>
      <trkpt lat="47.73129" lon="2.12898">
        <ele>159</ele>
        <time>2017-02-05T08:21:00.955Z</time>
      </trkpt>
      <trkpt lat="47.7312" lon="2.12898">
        <ele>159</ele>
        <time>2017-02-05T08:21:01.956Z</time>
      </trkpt>
      <trkpt lat="47.7312" lon="2.12898">
        <ele>159</ele>
        <time>2017-02-05T08:21:02.952Z</time>
      </trkpt>
      <trkpt lat="47.7311" lon="2.12901">
        <ele>159</ele>
        <time>2017-02-05T08:21:03.955Z</time>
      </trkpt>
      <trkpt lat="47.73105" lon="2.12903">
        <ele>160</ele>
        <time>2017-02-05T08:21:04.954Z</time>
      </trkpt>
      <trkpt lat="47.731" lon="2.12905">
        <ele>160</ele>
        <time>2017-02-05T08:21:05.957Z</time>
      </trkpt>
      <trkpt lat="47.731" lon="2.12905">
        <ele>160</ele>
        <time>2017-02-05T08:21:06.953Z</time>
      </trkpt>
      <trkpt lat="47.73091" lon="2.12908">
        <ele>160</ele>
        <time>2017-02-05T08:21:07.926Z</time>
      </trkpt>
      <trkpt lat="47.73091" lon="2.12908">
        <ele>160</ele>
        <time>2017-02-05T08:21:08.955Z</time>
      </trkpt>
      <trkpt lat="47.73082" lon="2.12911">
        <ele>161</ele>
        <time>2017-02-05T08:21:09.955Z</time>
      </trkpt>
      <trkpt lat="47.73082" lon="2.12911">
        <ele>161</ele>
        <time>2017-02-05T08:21:10.952Z</time>
      </trkpt>
      <trkpt lat="47.73073" lon="2.12915">
        <ele>161</ele>
        <time>2017-02-05T08:21:11.957Z</time>
      </trkpt>
      <trkpt lat="47.73073" lon="2.12915">
        <ele>161</ele>
        <time>2017-02-05T08:21:12.953Z</time>
      </trkpt>
      <trkpt lat="47.73064" lon="2.12919">
        <ele>161</ele>
        <time>2017-02-05T08:21:13.957Z</time>
      </trkpt>
      <trkpt lat="47.73064" lon="2.12919">
        <ele>161</ele>
        <time>2017-02-05T08:21:14.953Z</time>
      </trkpt>
      <trkpt lat="47.73056" lon="2.12923">
        <ele>161</ele>
        <time>2017-02-05T08:21:15.955Z</time>
      </trkpt>
      <trkpt lat="47.73056" lon="2.12923">
        <ele>161</ele>
        <time>2017-02-05T08:21:16.952Z</time>
      </trkpt>
      <trkpt lat="47.73048" lon="2.12927">
        <ele>161</ele>
        <time>2017-02-05T08:21:17.955Z</time>
      </trkpt>
      <trkpt lat="47.73043" lon="2.12929">
        <ele>161</ele>
        <time>2017-02-05T08:21:18.957Z</time>
      </trkpt>
      <trkpt lat="47.73039" lon="2.12931">
        <ele>161</ele>
        <time>2017-02-05T08:21:19.956Z</time>
      </trkpt>
      <trkpt lat="47.73039" lon="2.12931">
        <ele>161</ele>
        <time>2017-02-05T08:21:20.958Z</time>
      </trkpt>
      <trkpt lat="47.7303" lon="2.12935">
        <ele>161</ele>
        <time>2017-02-05T08:21:21.956Z</time>
      </trkpt>
      <trkpt lat="47.73026" lon="2.12937">
        <ele>161</ele>
        <time>2017-02-05T08:21:22.956Z</time>
      </trkpt>
      <trkpt lat="47.73026" lon="2.12937">
        <ele>161</ele>
        <time>2017-02-05T08:21:23.955Z</time>
      </trkpt>
      <trkpt lat="47.73016" lon="2.12942">
        <ele>161</ele>
        <time>2017-02-05T08:21:24.955Z</time>
      </trkpt>
      <trkpt lat="47.73011" lon="2.12945">
        <ele>161</ele>
        <time>2017-02-05T08:21:25.955Z</time>
      </trkpt>
      <trkpt lat="47.73011" lon="2.12945">
        <ele>161</ele>
        <time>2017-02-05T08:21:26.953Z</time>
      </trkpt>
      <trkpt lat="47.73003" lon="2.12949">
        <ele>161</ele>
        <time>2017-02-05T08:21:27.956Z</time>
      </trkpt>
      <trkpt lat="47.72998" lon="2.12951">
        <ele>161</ele>
        <time>2017-02-05T08:21:28.955Z</time>
      </trkpt>
      <trkpt lat="47.72993" lon="2.12952">
        <ele>160</ele>
        <time>2017-02-05T08:21:29.927Z</time>
      </trkpt>
      <trkpt lat="47.72993" lon="2.12952">
        <ele>160</ele>
        <time>2017-02-05T08:21:30.958Z</time>
      </trkpt>
      <trkpt lat="47.7298" lon="2.12948">
        <ele>159</ele>
        <time>2017-02-05T08:21:31.953Z</time>
      </trkpt>
      <trkpt lat="47.7298" lon="2.12948">
        <ele>159</ele>
        <time>2017-02-05T08:21:32.953Z</time>
      </trkpt>
      <trkpt lat="47.72974" lon="2.12935">
        <ele>158</ele>
        <time>2017-02-05T08:21:33.955Z</time>
      </trkpt>
      <trkpt lat="47.72971" lon="2.12928">
        <ele>157</ele>
        <time>2017-02-05T08:21:34.953Z</time>
      </trkpt>
      <trkpt lat="47.72971" lon="2.12928">
        <ele>157</ele>
        <time>2017-02-05T08:21:35.955Z</time>
      </trkpt>
      <trkpt lat="47.72966" lon="2.12915">
        <ele>156</ele>
        <time>2017-02-05T08:21:36.955Z</time>
      </trkpt>
      <trkpt lat="47.72964" lon="2.12909">
        <ele>156</ele>
        <time>2017-02-05T08:21:37.955Z</time>
      </trkpt>
      <trkpt lat="47.72964" lon="2.12909">
        <ele>156</ele>
        <time>2017-02-05T08:21:38.949Z</time>
      </trkpt>
      <trkpt lat="47.72959" lon="2.12896">
        <ele>154</ele>
        <time>2017-02-05T08:21:39.955Z</time>
      </trkpt>
      <trkpt lat="47.72959" lon="2.12896">
        <ele>154</ele>
        <time>2017-02-05T08:21:40.952Z</time>
      </trkpt>
      <trkpt lat="47.72955" lon="2.12883">
        <ele>154</ele>
        <time>2017-02-05T08:21:41.957Z</time>
      </trkpt>
      <trkpt lat="47.72955" lon="2.12883">
        <ele>154</ele>
        <time>2017-02-05T08:21:42.951Z</time>
      </trkpt>
      <trkpt lat="47.72952" lon="2.12869">
        <ele>152</ele>
        <time>2017-02-05T08:21:43.955Z</time>
      </trkpt>
      <trkpt lat="47.72952" lon="2.12869">
        <ele>152</ele>
        <time>2017-02-05T08:21:44.953Z</time>
      </trkpt>
      <trkpt lat="47.72948" lon="2.12856">
        <ele>151</ele>
        <time>2017-02-05T08:21:45.955Z</time>
      </trkpt>
      <trkpt lat="47.72947" lon="2.1285">
        <ele>151</ele>
        <time>2017-02-05T08:21:46.957Z</time>
      </trkpt>
      <trkpt lat="47.72947" lon="2.1285">
        <ele>151</ele>
        <time>2017-02-05T08:21:47.959Z</time>
      </trkpt>
      <trkpt lat="47.72943" lon="2.12837">
        <ele>150</ele>
        <time>2017-02-05T08:21:48.955Z</time>
      </trkpt>
      <trkpt lat="47.72943" lon="2.12837">
        <ele>150</ele>
        <time>2017-02-05T08:21:49.950Z</time>
      </trkpt>
      <trkpt lat="47.7294" lon="2.12824">
        <ele>148</ele>
        <time>2017-02-05T08:21:50.954Z</time>
      </trkpt>
      <trkpt lat="47.72938" lon="2.12818">
        <ele>147</ele>
        <time>2017-02-05T08:21:51.955Z</time>
      </trkpt>
      <trkpt lat="47.72938" lon="2.12818">
        <ele>147</ele>
        <time>2017-02-05T08:21:52.953Z</time>
      </trkpt>
      <trkpt lat="47.72933" lon="2.12806">
        <ele>145</ele>
        <time>2017-02-05T08:21:53.957Z</time>
      </trkpt>
      <trkpt lat="47.72933" lon="2.12806">
        <ele>145</ele>
        <time>2017-02-05T08:21:54.953Z</time>
      </trkpt>
      <trkpt lat="47.72931" lon="2.12792">
        <ele>144</ele>
        <time>2017-02-05T08:21:55.955Z</time>
      </trkpt>
      <trkpt lat="47.72931" lon="2.12792">
        <ele>144</ele>
        <time>2017-02-05T08:21:56.954Z</time>
      </trkpt>
      <trkpt lat="47.72929" lon="2.12779">
        <ele>143</ele>
        <time>2017-02-05T08:21:57.955Z</time>
      </trkpt>
      <trkpt lat="47.72928" lon="2.12772">
        <ele>143</ele>
        <time>2017-02-05T08:21:58.957Z</time>
      </trkpt>
      <trkpt lat="47.72928" lon="2.12765">
        <ele>143</ele>
        <time>2017-02-05T08:21:59.954Z</time>
      </trkpt>
      <trkpt lat="47.72928" lon="2.12765">
        <ele>143</ele>
        <time>2017-02-05T08:22:00.949Z</time>
      </trkpt>
      <trkpt lat="47.72927" lon="2.12751">
        <ele>142</ele>
        <time>2017-02-05T08:22:01.955Z</time>
      </trkpt>
      <trkpt lat="47.72927" lon="2.12751">
        <ele>142</ele>
        <time>2017-02-05T08:22:02.953Z</time>
      </trkpt>
      <trkpt lat="47.72927" lon="2.12736">
        <ele>141</ele>
        <time>2017-02-05T08:22:03.955Z</time>
      </trkpt>
      <trkpt lat="47.72927" lon="2.12736">
        <ele>141</ele>
        <time>2017-02-05T08:22:04.950Z</time>
      </trkpt>
      <trkpt lat="47.72927" lon="2.12722">
        <ele>141</ele>
        <time>2017-02-05T08:22:05.924Z</time>
      </trkpt>
      <trkpt lat="47.72927" lon="2.12722">
        <ele>141</ele>
        <time>2017-02-05T08:22:06.955Z</time>
      </trkpt>
      <trkpt lat="47.72925" lon="2.12708">
        <ele>141</ele>
        <time>2017-02-05T08:22:07.956Z</time>
      </trkpt>
      <trkpt lat="47.72925" lon="2.12708">
        <ele>141</ele>
        <time>2017-02-05T08:22:08.951Z</time>
      </trkpt>
      <trkpt lat="47.72925" lon="2.12693">
        <ele>140</ele>
        <time>2017-02-05T08:22:09.955Z</time>
      </trkpt>
      <trkpt lat="47.72925" lon="2.12693">
        <ele>140</ele>
        <time>2017-02-05T08:22:10.950Z</time>
      </trkpt>
      <trkpt lat="47.72925" lon="2.12677">
        <ele>141</ele>
        <time>2017-02-05T08:22:11.956Z</time>
      </trkpt>
      <trkpt lat="47.72925" lon="2.12677">
        <ele>141</ele>
        <time>2017-02-05T08:22:12.952Z</time>
      </trkpt>
      <trkpt lat="47.72924" lon="2.12664">
        <ele>141</ele>
        <time>2017-02-05T08:22:13.953Z</time>
      </trkpt>
      <trkpt lat="47.72924" lon="2.12664">
        <ele>141</ele>
        <time>2017-02-05T08:22:14.954Z</time>
      </trkpt>
      <trkpt lat="47.72924" lon="2.12649">
        <ele>141</ele>
        <time>2017-02-05T08:22:15.955Z</time>
      </trkpt>
      <trkpt lat="47.72924" lon="2.12649">
        <ele>141</ele>
        <time>2017-02-05T08:22:16.951Z</time>
      </trkpt>
      <trkpt lat="47.72924" lon="2.12636">
        <ele>141</ele>
        <time>2017-02-05T08:22:17.958Z</time>
      </trkpt>
      <trkpt lat="47.72923" lon="2.12629">
        <ele>141</ele>
        <time>2017-02-05T08:22:18.958Z</time>
      </trkpt>
      <trkpt lat="47.72923" lon="2.12629">
        <ele>141</ele>
        <time>2017-02-05T08:22:19.953Z</time>
      </trkpt>
      <trkpt lat="47.72923" lon="2.12615">
        <ele>141</ele>
        <time>2017-02-05T08:22:20.947Z</time>
      </trkpt>
      <trkpt lat="47.72922" lon="2.12608">
        <ele>142</ele>
        <time>2017-02-05T08:22:21.955Z</time>
      </trkpt>
      <trkpt lat="47.72922" lon="2.12608">
        <ele>142</ele>
        <time>2017-02-05T08:22:22.952Z</time>
      </trkpt>
      <trkpt lat="47.72921" lon="2.12594">
        <ele>142</ele>
        <time>2017-02-05T08:22:23.957Z</time>
      </trkpt>
      <trkpt lat="47.72921" lon="2.12587">
        <ele>142</ele>
        <time>2017-02-05T08:22:24.957Z</time>
      </trkpt>
      <trkpt lat="47.72921" lon="2.12587">
        <ele>142</ele>
        <time>2017-02-05T08:22:25.952Z</time>
      </trkpt>
      <trkpt lat="47.7292" lon="2.12572">
        <ele>142</ele>
        <time>2017-02-05T08:22:26.955Z</time>
      </trkpt>
      <trkpt lat="47.7292" lon="2.12572">
        <ele>142</ele>
        <time>2017-02-05T08:22:27.950Z</time>
      </trkpt>
      <trkpt lat="47.72919" lon="2.12558">
        <ele>143</ele>
        <time>2017-02-05T08:22:28.953Z</time>
      </trkpt>
      <trkpt lat="47.72919" lon="2.12558">
        <ele>143</ele>
        <time>2017-02-05T08:22:29.930Z</time>
      </trkpt>
      <trkpt lat="47.72917" lon="2.12544">
        <ele>143</ele>
        <time>2017-02-05T08:22:30.923Z</time>
      </trkpt>
      <trkpt lat="47.72915" lon="2.12538">
        <ele>143</ele>
        <time>2017-02-05T08:22:31.956Z</time>
      </trkpt>
      <trkpt lat="47.72915" lon="2.12538">
        <ele>143</ele>
        <time>2017-02-05T08:22:32.951Z</time>
      </trkpt>
      <trkpt lat="47.72914" lon="2.12524">
        <ele>143</ele>
        <time>2017-02-05T08:22:33.955Z</time>
      </trkpt>
      <trkpt lat="47.72914" lon="2.12524">
        <ele>143</ele>
        <time>2017-02-05T08:22:34.955Z</time>
      </trkpt>
      <trkpt lat="47.72915" lon="2.12506">
        <ele>143</ele>
        <time>2017-02-05T08:22:35.958Z</time>
      </trkpt>
      <trkpt lat="47.72916" lon="2.12498">
        <ele>143</ele>
        <time>2017-02-05T08:22:36.961Z</time>
      </trkpt>
      <trkpt lat="47.72916" lon="2.12498">
        <ele>143</ele>
        <time>2017-02-05T08:22:37.953Z</time>
      </trkpt>
      <trkpt lat="47.72915" lon="2.12485">
        <ele>142</ele>
        <time>2017-02-05T08:22:38.955Z</time>
      </trkpt>
      <trkpt lat="47.72915" lon="2.12485">
        <ele>142</ele>
        <time>2017-02-05T08:22:39.953Z</time>
      </trkpt>
      <trkpt lat="47.72915" lon="2.1247">
        <ele>142</ele>
        <time>2017-02-05T08:22:40.955Z</time>
      </trkpt>
      <trkpt lat="47.72914" lon="2.12463">
        <ele>142</ele>
        <time>2017-02-05T08:22:41.956Z</time>
      </trkpt>
      <trkpt lat="47.72914" lon="2.12463">
        <ele>142</ele>
        <time>2017-02-05T08:22:42.953Z</time>
      </trkpt>
      <trkpt lat="47.72914" lon="2.12449">
        <ele>141</ele>
        <time>2017-02-05T08:22:43.956Z</time>
      </trkpt>
      <trkpt lat="47.72914" lon="2.12449">
        <ele>141</ele>
        <time>2017-02-05T08:22:44.952Z</time>
      </trkpt>
      <trkpt lat="47.72914" lon="2.12435">
        <ele>140</ele>
        <time>2017-02-05T08:22:45.957Z</time>
      </trkpt>
      <trkpt lat="47.72914" lon="2.12435">
        <ele>140</ele>
        <time>2017-02-05T08:22:46.954Z</time>
      </trkpt>
      <trkpt lat="47.72912" lon="2.12421">
        <ele>139</ele>
        <time>2017-02-05T08:22:47.959Z</time>
      </trkpt>
      <trkpt lat="47.72912" lon="2.12421">
        <ele>139</ele>
        <time>2017-02-05T08:22:48.952Z</time>
      </trkpt>
      <trkpt lat="47.7291" lon="2.12406">
        <ele>138</ele>
        <time>2017-02-05T08:22:49.956Z</time>
      </trkpt>
      <trkpt lat="47.7291" lon="2.12406">
        <ele>138</ele>
        <time>2017-02-05T08:22:50.953Z</time>
      </trkpt>
      <trkpt lat="47.72908" lon="2.12391">
        <ele>138</ele>
        <time>2017-02-05T08:22:51.955Z</time>
      </trkpt>
      <trkpt lat="47.72908" lon="2.12391">
        <ele>138</ele>
        <time>2017-02-05T08:22:52.951Z</time>
      </trkpt>
      <trkpt lat="47.72903" lon="2.12378">
        <ele>139</ele>
        <time>2017-02-05T08:22:53.957Z</time>
      </trkpt>
      <trkpt lat="47.72903" lon="2.12378">
        <ele>139</ele>
        <time>2017-02-05T08:22:54.951Z</time>
      </trkpt>
      <trkpt lat="47.72898" lon="2.12366">
        <ele>140</ele>
        <time>2017-02-05T08:22:55.955Z</time>
      </trkpt>
      <trkpt lat="47.72898" lon="2.12366">
        <ele>140</ele>
        <time>2017-02-05T08:22:56.954Z</time>
      </trkpt>
      <trkpt lat="47.72893" lon="2.12354">
        <ele>140</ele>
        <time>2017-02-05T08:22:57.960Z</time>
      </trkpt>
      <trkpt lat="47.72893" lon="2.12354">
        <ele>140</ele>
        <time>2017-02-05T08:22:58.954Z</time>
      </trkpt>
      <trkpt lat="47.72887" lon="2.12343">
        <ele>139</ele>
        <time>2017-02-05T08:22:59.956Z</time>
      </trkpt>
      <trkpt lat="47.72887" lon="2.12343">
        <ele>139</ele>
        <time>2017-02-05T08:23:00.953Z</time>
      </trkpt>
      <trkpt lat="47.72882" lon="2.12332">
        <ele>139</ele>
        <time>2017-02-05T08:23:01.956Z</time>
      </trkpt>
      <trkpt lat="47.72882" lon="2.12332">
        <ele>139</ele>
        <time>2017-02-05T08:23:02.953Z</time>
      </trkpt>
      <trkpt lat="47.72877" lon="2.1232">
        <ele>139</ele>
        <time>2017-02-05T08:23:03.956Z</time>
      </trkpt>
      <trkpt lat="47.72877" lon="2.1232">
        <ele>139</ele>
        <time>2017-02-05T08:23:04.953Z</time>
      </trkpt>
      <trkpt lat="47.72873" lon="2.12308">
        <ele>138</ele>
        <time>2017-02-05T08:23:05.957Z</time>
      </trkpt>
      <trkpt lat="47.72873" lon="2.12308">
        <ele>138</ele>
        <time>2017-02-05T08:23:06.953Z</time>
      </trkpt>
      <trkpt lat="47.72867" lon="2.12296">
        <ele>138</ele>
        <time>2017-02-05T08:23:07.935Z</time>
      </trkpt>
      <trkpt lat="47.72865" lon="2.1229">
        <ele>138</ele>
        <time>2017-02-05T08:23:08.961Z</time>
      </trkpt>
      <trkpt lat="47.72865" lon="2.1229">
        <ele>138</ele>
        <time>2017-02-05T08:23:09.955Z</time>
      </trkpt>
      <trkpt lat="47.72859" lon="2.1228">
        <ele>137</ele>
        <time>2017-02-05T08:23:10.957Z</time>
      </trkpt>
      <trkpt lat="47.72856" lon="2.12274">
        <ele>137</ele>
        <time>2017-02-05T08:23:11.955Z</time>
      </trkpt>
      <trkpt lat="47.72856" lon="2.12274">
        <ele>137</ele>
        <time>2017-02-05T08:23:12.954Z</time>
      </trkpt>
      <trkpt lat="47.72851" lon="2.12262">
        <ele>137</ele>
        <time>2017-02-05T08:23:13.958Z</time>
      </trkpt>
      <trkpt lat="47.72851" lon="2.12262">
        <ele>137</ele>
        <time>2017-02-05T08:23:14.954Z</time>
      </trkpt>
      <trkpt lat="47.72845" lon="2.1225">
        <ele>137</ele>
        <time>2017-02-05T08:23:15.955Z</time>
      </trkpt>
      <trkpt lat="47.72845" lon="2.1225">
        <ele>137</ele>
        <time>2017-02-05T08:23:16.953Z</time>
      </trkpt>
      <trkpt lat="47.7284" lon="2.12238">
        <ele>137</ele>
        <time>2017-02-05T08:23:17.929Z</time>
      </trkpt>
      <trkpt lat="47.7284" lon="2.12238">
        <ele>137</ele>
        <time>2017-02-05T08:23:18.958Z</time>
      </trkpt>
      <trkpt lat="47.72835" lon="2.12226">
        <ele>136</ele>
        <time>2017-02-05T08:23:19.926Z</time>
      </trkpt>
      <trkpt lat="47.72832" lon="2.1222">
        <ele>136</ele>
        <time>2017-02-05T08:23:20.958Z</time>
      </trkpt>
      <trkpt lat="47.72829" lon="2.12214">
        <ele>136</ele>
        <time>2017-02-05T08:23:21.961Z</time>
      </trkpt>
      <trkpt lat="47.72829" lon="2.12214">
        <ele>136</ele>
        <time>2017-02-05T08:23:22.954Z</time>
      </trkpt>
      <trkpt lat="47.72824" lon="2.12203">
        <ele>136</ele>
        <time>2017-02-05T08:23:23.954Z</time>
      </trkpt>
      <trkpt lat="47.72824" lon="2.12203">
        <ele>136</ele>
        <time>2017-02-05T08:23:24.954Z</time>
      </trkpt>
      <trkpt lat="47.72819" lon="2.12191">
        <ele>137</ele>
        <time>2017-02-05T08:23:25.956Z</time>
      </trkpt>
      <trkpt lat="47.72819" lon="2.12191">
        <ele>137</ele>
        <time>2017-02-05T08:23:26.950Z</time>
      </trkpt>
      <trkpt lat="47.72813" lon="2.12181">
        <ele>136</ele>
        <time>2017-02-05T08:23:27.955Z</time>
      </trkpt>
      <trkpt lat="47.7281" lon="2.12175">
        <ele>136</ele>
        <time>2017-02-05T08:23:28.955Z</time>
      </trkpt>
      <trkpt lat="47.72807" lon="2.12169">
        <ele>136</ele>
        <time>2017-02-05T08:23:29.926Z</time>
      </trkpt>
      <trkpt lat="47.72807" lon="2.12169">
        <ele>136</ele>
        <time>2017-02-05T08:23:30.958Z</time>
      </trkpt>
      <trkpt lat="47.72801" lon="2.12159">
        <ele>136</ele>
        <time>2017-02-05T08:23:31.956Z</time>
      </trkpt>
      <trkpt lat="47.72801" lon="2.12159">
        <ele>136</ele>
        <time>2017-02-05T08:23:32.953Z</time>
      </trkpt>
      <trkpt lat="47.72795" lon="2.12147">
        <ele>137</ele>
        <time>2017-02-05T08:23:33.955Z</time>
      </trkpt>
      <trkpt lat="47.72793" lon="2.12142">
        <ele>137</ele>
        <time>2017-02-05T08:23:34.956Z</time>
      </trkpt>
      <trkpt lat="47.7279" lon="2.12135">
        <ele>138</ele>
        <time>2017-02-05T08:23:35.958Z</time>
      </trkpt>
      <trkpt lat="47.7279" lon="2.12135">
        <ele>138</ele>
        <time>2017-02-05T08:23:36.954Z</time>
      </trkpt>
      <trkpt lat="47.72783" lon="2.12124">
        <ele>138</ele>
        <time>2017-02-05T08:23:37.955Z</time>
      </trkpt>
      <trkpt lat="47.7278" lon="2.12117">
        <ele>138</ele>
        <time>2017-02-05T08:23:38.957Z</time>
      </trkpt>
      <trkpt lat="47.72776" lon="2.12111">
        <ele>139</ele>
        <time>2017-02-05T08:23:39.958Z</time>
      </trkpt>
      <trkpt lat="47.72776" lon="2.12111">
        <ele>139</ele>
        <time>2017-02-05T08:23:40.954Z</time>
      </trkpt>
      <trkpt lat="47.7277" lon="2.12099">
        <ele>139</ele>
        <time>2017-02-05T08:23:41.958Z</time>
      </trkpt>
      <trkpt lat="47.7277" lon="2.12099">
        <ele>139</ele>
        <time>2017-02-05T08:23:42.952Z</time>
      </trkpt>
      <trkpt lat="47.72764" lon="2.12086">
        <ele>140</ele>
        <time>2017-02-05T08:23:43.957Z</time>
      </trkpt>
      <trkpt lat="47.72764" lon="2.12086">
        <ele>140</ele>
        <time>2017-02-05T08:23:44.954Z</time>
      </trkpt>
      <trkpt lat="47.72758" lon="2.12075">
        <ele>140</ele>
        <time>2017-02-05T08:23:45.955Z</time>
      </trkpt>
      <trkpt lat="47.72758" lon="2.12075">
        <ele>140</ele>
        <time>2017-02-05T08:23:46.951Z</time>
      </trkpt>
      <trkpt lat="47.72753" lon="2.12065">
        <ele>140</ele>
        <time>2017-02-05T08:23:47.955Z</time>
      </trkpt>
      <trkpt lat="47.72753" lon="2.12065">
        <ele>140</ele>
        <time>2017-02-05T08:23:48.953Z</time>
      </trkpt>
      <trkpt lat="47.72748" lon="2.12055">
        <ele>140</ele>
        <time>2017-02-05T08:23:49.955Z</time>
      </trkpt>
      <trkpt lat="47.72748" lon="2.12055">
        <ele>140</ele>
        <time>2017-02-05T08:23:50.951Z</time>
      </trkpt>
      <trkpt lat="47.72743" lon="2.12044">
        <ele>139</ele>
        <time>2017-02-05T08:23:51.955Z</time>
      </trkpt>
      <trkpt lat="47.7274" lon="2.12038">
        <ele>140</ele>
        <time>2017-02-05T08:23:52.960Z</time>
      </trkpt>
      <trkpt lat="47.72737" lon="2.12032">
        <ele>140</ele>
        <time>2017-02-05T08:23:53.957Z</time>
      </trkpt>
      <trkpt lat="47.72737" lon="2.12032">
        <ele>140</ele>
        <time>2017-02-05T08:23:54.954Z</time>
      </trkpt>
      <trkpt lat="47.72731" lon="2.1202">
        <ele>140</ele>
        <time>2017-02-05T08:23:55.955Z</time>
      </trkpt>
      <trkpt lat="47.72728" lon="2.12015">
        <ele>140</ele>
        <time>2017-02-05T08:23:56.956Z</time>
      </trkpt>
      <trkpt lat="47.72728" lon="2.12015">
        <ele>140</ele>
        <time>2017-02-05T08:23:57.953Z</time>
      </trkpt>
      <trkpt lat="47.72722" lon="2.12005">
        <ele>140</ele>
        <time>2017-02-05T08:23:58.955Z</time>
      </trkpt>
      <trkpt lat="47.72719" lon="2.11999">
        <ele>140</ele>
        <time>2017-02-05T08:23:59.954Z</time>
      </trkpt>
      <trkpt lat="47.72719" lon="2.11999">
        <ele>140</ele>
        <time>2017-02-05T08:24:00.951Z</time>
      </trkpt>
      <trkpt lat="47.72714" lon="2.11988">
        <ele>141</ele>
        <time>2017-02-05T08:24:01.955Z</time>
      </trkpt>
      <trkpt lat="47.72714" lon="2.11988">
        <ele>141</ele>
        <time>2017-02-05T08:24:02.953Z</time>
      </trkpt>
      <trkpt lat="47.72708" lon="2.11979">
        <ele>141</ele>
        <time>2017-02-05T08:24:03.955Z</time>
      </trkpt>
      <trkpt lat="47.72708" lon="2.11979">
        <ele>141</ele>
        <time>2017-02-05T08:24:04.951Z</time>
      </trkpt>
      <trkpt lat="47.72701" lon="2.11971">
        <ele>141</ele>
        <time>2017-02-05T08:24:05.954Z</time>
      </trkpt>
      <trkpt lat="47.72701" lon="2.11971">
        <ele>141</ele>
        <time>2017-02-05T08:24:06.954Z</time>
      </trkpt>
      <trkpt lat="47.72697" lon="2.11964">
        <ele>141</ele>
        <time>2017-02-05T08:24:07.926Z</time>
      </trkpt>
      <trkpt lat="47.72695" lon="2.11959">
        <ele>141</ele>
        <time>2017-02-05T08:24:08.958Z</time>
      </trkpt>
      <trkpt lat="47.72695" lon="2.11959">
        <ele>141</ele>
        <time>2017-02-05T08:24:09.952Z</time>
      </trkpt>
      <trkpt lat="47.72689" lon="2.11948">
        <ele>141</ele>
        <time>2017-02-05T08:24:10.957Z</time>
      </trkpt>
      <trkpt lat="47.72689" lon="2.11948">
        <ele>141</ele>
        <time>2017-02-05T08:24:11.953Z</time>
      </trkpt>
      <trkpt lat="47.72682" lon="2.11939">
        <ele>142</ele>
        <time>2017-02-05T08:24:12.957Z</time>
      </trkpt>
      <trkpt lat="47.72679" lon="2.11934">
        <ele>142</ele>
        <time>2017-02-05T08:24:13.956Z</time>
      </trkpt>
      <trkpt lat="47.72679" lon="2.11934">
        <ele>142</ele>
        <time>2017-02-05T08:24:14.954Z</time>
      </trkpt>
      <trkpt lat="47.72672" lon="2.11927">
        <ele>142</ele>
        <time>2017-02-05T08:24:15.955Z</time>
      </trkpt>
      <trkpt lat="47.72672" lon="2.11927">
        <ele>142</ele>
        <time>2017-02-05T08:24:16.954Z</time>
      </trkpt>
      <trkpt lat="47.72666" lon="2.11919">
        <ele>143</ele>
        <time>2017-02-05T08:24:17.954Z</time>
      </trkpt>
      <trkpt lat="47.72666" lon="2.11919">
        <ele>143</ele>
        <time>2017-02-05T08:24:18.954Z</time>
      </trkpt>
      <trkpt lat="47.72658" lon="2.11911">
        <ele>144</ele>
        <time>2017-02-05T08:24:19.956Z</time>
      </trkpt>
      <trkpt lat="47.72654" lon="2.11907">
        <ele>144</ele>
        <time>2017-02-05T08:24:20.957Z</time>
      </trkpt>
      <trkpt lat="47.72654" lon="2.11907">
        <ele>144</ele>
        <time>2017-02-05T08:24:21.951Z</time>
      </trkpt>
      <trkpt lat="47.72646" lon="2.11899">
        <ele>145</ele>
        <time>2017-02-05T08:24:22.956Z</time>
      </trkpt>
      <trkpt lat="47.72641" lon="2.11895">
        <ele>145</ele>
        <time>2017-02-05T08:24:23.959Z</time>
      </trkpt>
      <trkpt lat="47.72641" lon="2.11895">
        <ele>145</ele>
        <time>2017-02-05T08:24:24.953Z</time>
      </trkpt>
      <trkpt lat="47.72633" lon="2.11886">
        <ele>146</ele>
        <time>2017-02-05T08:24:25.956Z</time>
      </trkpt>
      <trkpt lat="47.72629" lon="2.11881">
        <ele>146</ele>
        <time>2017-02-05T08:24:26.956Z</time>
      </trkpt>
      <trkpt lat="47.72629" lon="2.11881">
        <ele>146</ele>
        <time>2017-02-05T08:24:27.953Z</time>
      </trkpt>
      <trkpt lat="47.72621" lon="2.11872">
        <ele>146</ele>
        <time>2017-02-05T08:24:28.955Z</time>
      </trkpt>
      <trkpt lat="47.72617" lon="2.11867">
        <ele>147</ele>
        <time>2017-02-05T08:24:29.959Z</time>
      </trkpt>
      <trkpt lat="47.72617" lon="2.11867">
        <ele>147</ele>
        <time>2017-02-05T08:24:30.954Z</time>
      </trkpt>
      <trkpt lat="47.72609" lon="2.11858">
        <ele>147</ele>
        <time>2017-02-05T08:24:31.956Z</time>
      </trkpt>
      <trkpt lat="47.72605" lon="2.11854">
        <ele>147</ele>
        <time>2017-02-05T08:24:32.957Z</time>
      </trkpt>
      <trkpt lat="47.72603" lon="2.11849">
        <ele>147</ele>
        <time>2017-02-05T08:24:33.958Z</time>
      </trkpt>
      <trkpt lat="47.72603" lon="2.11849">
        <ele>147</ele>
        <time>2017-02-05T08:24:34.955Z</time>
      </trkpt>
      <trkpt lat="47.72596" lon="2.11841">
        <ele>148</ele>
        <time>2017-02-05T08:24:35.959Z</time>
      </trkpt>
      <trkpt lat="47.72596" lon="2.11841">
        <ele>148</ele>
        <time>2017-02-05T08:24:36.954Z</time>
      </trkpt>
      <trkpt lat="47.72586" lon="2.11833">
        <ele>149</ele>
        <time>2017-02-05T08:24:37.929Z</time>
      </trkpt>
      <trkpt lat="47.72586" lon="2.11833">
        <ele>149</ele>
        <time>2017-02-05T08:24:38.960Z</time>
      </trkpt>
      <trkpt lat="47.72575" lon="2.11821">
        <ele>149</ele>
        <time>2017-02-05T08:24:39.957Z</time>
      </trkpt>
      <trkpt lat="47.72575" lon="2.11821">
        <ele>149</ele>
        <time>2017-02-05T08:24:40.951Z</time>
      </trkpt>
      <trkpt lat="47.72566" lon="2.11811">
        <ele>149</ele>
        <time>2017-02-05T08:24:41.958Z</time>
      </trkpt>
      <trkpt lat="47.72566" lon="2.11811">
        <ele>149</ele>
        <time>2017-02-05T08:24:42.954Z</time>
      </trkpt>
      <trkpt lat="47.72557" lon="2.11801">
        <ele>150</ele>
        <time>2017-02-05T08:24:43.958Z</time>
      </trkpt>
      <trkpt lat="47.72557" lon="2.11801">
        <ele>150</ele>
        <time>2017-02-05T08:24:44.953Z</time>
      </trkpt>
      <trkpt lat="47.72549" lon="2.11791">
        <ele>150</ele>
        <time>2017-02-05T08:24:45.958Z</time>
      </trkpt>
      <trkpt lat="47.72549" lon="2.11791">
        <ele>150</ele>
        <time>2017-02-05T08:24:46.954Z</time>
      </trkpt>
      <trkpt lat="47.72539" lon="2.11781">
        <ele>149</ele>
        <time>2017-02-05T08:24:47.957Z</time>
      </trkpt>
      <trkpt lat="47.72539" lon="2.11781">
        <ele>149</ele>
        <time>2017-02-05T08:24:48.951Z</time>
      </trkpt>
      <trkpt lat="47.72531" lon="2.11771">
        <ele>149</ele>
        <time>2017-02-05T08:24:49.957Z</time>
      </trkpt>
      <trkpt lat="47.72531" lon="2.11771">
        <ele>149</ele>
        <time>2017-02-05T08:24:50.954Z</time>
      </trkpt>
      <trkpt lat="47.72523" lon="2.11761">
        <ele>149</ele>
        <time>2017-02-05T08:24:51.955Z</time>
      </trkpt>
      <trkpt lat="47.72523" lon="2.11761">
        <ele>149</ele>
        <time>2017-02-05T08:24:52.924Z</time>
      </trkpt>
      <trkpt lat="47.72514" lon="2.11753">
        <ele>149</ele>
        <time>2017-02-05T08:24:53.957Z</time>
      </trkpt>
      <trkpt lat="47.72514" lon="2.11753">
        <ele>149</ele>
        <time>2017-02-05T08:24:54.952Z</time>
      </trkpt>
      <trkpt lat="47.72506" lon="2.11744">
        <ele>150</ele>
        <time>2017-02-05T08:24:55.956Z</time>
      </trkpt>
      <trkpt lat="47.72502" lon="2.11739">
        <ele>150</ele>
        <time>2017-02-05T08:24:56.958Z</time>
      </trkpt>
      <trkpt lat="47.72502" lon="2.11739">
        <ele>150</ele>
        <time>2017-02-05T08:24:57.954Z</time>
      </trkpt>
      <trkpt lat="47.72493" lon="2.1173">
        <ele>150</ele>
        <time>2017-02-05T08:24:58.956Z</time>
      </trkpt>
      <trkpt lat="47.72489" lon="2.11726">
        <ele>150</ele>
        <time>2017-02-05T08:24:59.958Z</time>
      </trkpt>
      <trkpt lat="47.72489" lon="2.11726">
        <ele>150</ele>
        <time>2017-02-05T08:25:00.954Z</time>
      </trkpt>
      <trkpt lat="47.72481" lon="2.11718">
        <ele>151</ele>
        <time>2017-02-05T08:25:01.957Z</time>
      </trkpt>
      <trkpt lat="47.72481" lon="2.11718">
        <ele>151</ele>
        <time>2017-02-05T08:25:02.954Z</time>
      </trkpt>
      <trkpt lat="47.72472" lon="2.11708">
        <ele>151</ele>
        <time>2017-02-05T08:25:03.958Z</time>
      </trkpt>
      <trkpt lat="47.72472" lon="2.11708">
        <ele>151</ele>
        <time>2017-02-05T08:25:04.955Z</time>
      </trkpt>
      <trkpt lat="47.72462" lon="2.11699">
        <ele>152</ele>
        <time>2017-02-05T08:25:05.959Z</time>
      </trkpt>
      <trkpt lat="47.72462" lon="2.11699">
        <ele>152</ele>
        <time>2017-02-05T08:25:06.954Z</time>
      </trkpt>
      <trkpt lat="47.72453" lon="2.1169">
        <ele>152</ele>
        <time>2017-02-05T08:25:07.957Z</time>
      </trkpt>
      <trkpt lat="47.72453" lon="2.1169">
        <ele>152</ele>
        <time>2017-02-05T08:25:08.955Z</time>
      </trkpt>
      <trkpt lat="47.72446" lon="2.11682">
        <ele>153</ele>
        <time>2017-02-05T08:25:09.957Z</time>
      </trkpt>
      <trkpt lat="47.72446" lon="2.11682">
        <ele>153</ele>
        <time>2017-02-05T08:25:10.954Z</time>
      </trkpt>
      <trkpt lat="47.72438" lon="2.11674">
        <ele>153</ele>
        <time>2017-02-05T08:25:11.959Z</time>
      </trkpt>
      <trkpt lat="47.72438" lon="2.11674">
        <ele>153</ele>
        <time>2017-02-05T08:25:12.954Z</time>
      </trkpt>
      <trkpt lat="47.7243" lon="2.11665">
        <ele>153</ele>
        <time>2017-02-05T08:25:13.958Z</time>
      </trkpt>
      <trkpt lat="47.7243" lon="2.11665">
        <ele>153</ele>
        <time>2017-02-05T08:25:14.954Z</time>
      </trkpt>
      <trkpt lat="47.72422" lon="2.11657">
        <ele>154</ele>
        <time>2017-02-05T08:25:15.956Z</time>
      </trkpt>
      <trkpt lat="47.72422" lon="2.11657">
        <ele>154</ele>
        <time>2017-02-05T08:25:16.954Z</time>
      </trkpt>
      <trkpt lat="47.72413" lon="2.11648">
        <ele>154</ele>
        <time>2017-02-05T08:25:17.926Z</time>
      </trkpt>
      <trkpt lat="47.72408" lon="2.11643">
        <ele>155</ele>
        <time>2017-02-05T08:25:18.957Z</time>
      </trkpt>
      <trkpt lat="47.72408" lon="2.11643">
        <ele>155</ele>
        <time>2017-02-05T08:25:19.951Z</time>
      </trkpt>
      <trkpt lat="47.72399" lon="2.11633">
        <ele>155</ele>
        <time>2017-02-05T08:25:20.956Z</time>
      </trkpt>
      <trkpt lat="47.72399" lon="2.11633">
        <ele>155</ele>
        <time>2017-02-05T08:25:21.951Z</time>
      </trkpt>
      <trkpt lat="47.72389" lon="2.11625">
        <ele>155</ele>
        <time>2017-02-05T08:25:22.955Z</time>
      </trkpt>
      <trkpt lat="47.72384" lon="2.1162">
        <ele>155</ele>
        <time>2017-02-05T08:25:23.959Z</time>
      </trkpt>
      <trkpt lat="47.72384" lon="2.1162">
        <ele>155</ele>
        <time>2017-02-05T08:25:24.954Z</time>
      </trkpt>
      <trkpt lat="47.72376" lon="2.11609">
        <ele>155</ele>
        <time>2017-02-05T08:25:25.955Z</time>
      </trkpt>
      <trkpt lat="47.72376" lon="2.11609">
        <ele>155</ele>
        <time>2017-02-05T08:25:26.952Z</time>
      </trkpt>
      <trkpt lat="47.72368" lon="2.11597">
        <ele>156</ele>
        <time>2017-02-05T08:25:27.955Z</time>
      </trkpt>
      <trkpt lat="47.72364" lon="2.11591">
        <ele>156</ele>
        <time>2017-02-05T08:25:28.957Z</time>
      </trkpt>
      <trkpt lat="47.72359" lon="2.11586">
        <ele>156</ele>
        <time>2017-02-05T08:25:29.959Z</time>
      </trkpt>
      <trkpt lat="47.72359" lon="2.11586">
        <ele>156</ele>
        <time>2017-02-05T08:25:30.954Z</time>
      </trkpt>
      <trkpt lat="47.7235" lon="2.11575">
        <ele>156</ele>
        <time>2017-02-05T08:25:31.955Z</time>
      </trkpt>
      <trkpt lat="47.7235" lon="2.11575">
        <ele>156</ele>
        <time>2017-02-05T08:25:32.926Z</time>
      </trkpt>
      <trkpt lat="47.72342" lon="2.11566">
        <ele>156</ele>
        <time>2017-02-05T08:25:33.957Z</time>
      </trkpt>
      <trkpt lat="47.72342" lon="2.11566">
        <ele>156</ele>
        <time>2017-02-05T08:25:34.952Z</time>
      </trkpt>
      <trkpt lat="47.72334" lon="2.11555">
        <ele>157</ele>
        <time>2017-02-05T08:25:35.958Z</time>
      </trkpt>
      <trkpt lat="47.72334" lon="2.11555">
        <ele>157</ele>
        <time>2017-02-05T08:25:36.954Z</time>
      </trkpt>
      <trkpt lat="47.72325" lon="2.11544">
        <ele>157</ele>
        <time>2017-02-05T08:25:37.957Z</time>
      </trkpt>
      <trkpt lat="47.72325" lon="2.11544">
        <ele>157</ele>
        <time>2017-02-05T08:25:38.951Z</time>
      </trkpt>
      <trkpt lat="47.72314" lon="2.11535">
        <ele>157</ele>
        <time>2017-02-05T08:25:39.957Z</time>
      </trkpt>
      <trkpt lat="47.72314" lon="2.11535">
        <ele>157</ele>
        <time>2017-02-05T08:25:40.954Z</time>
      </trkpt>
      <trkpt lat="47.72306" lon="2.11522">
        <ele>158</ele>
        <time>2017-02-05T08:25:41.959Z</time>
      </trkpt>
      <trkpt lat="47.72306" lon="2.11522">
        <ele>158</ele>
        <time>2017-02-05T08:25:42.953Z</time>
      </trkpt>
      <trkpt lat="47.72297" lon="2.11512">
        <ele>159</ele>
        <time>2017-02-05T08:25:43.929Z</time>
      </trkpt>
      <trkpt lat="47.72297" lon="2.11512">
        <ele>159</ele>
        <time>2017-02-05T08:25:44.960Z</time>
      </trkpt>
      <trkpt lat="47.72287" lon="2.11503">
        <ele>160</ele>
        <time>2017-02-05T08:25:45.955Z</time>
      </trkpt>
      <trkpt lat="47.72287" lon="2.11503">
        <ele>160</ele>
        <time>2017-02-05T08:25:46.952Z</time>
      </trkpt>
      <trkpt lat="47.72276" lon="2.11494">
        <ele>160</ele>
        <time>2017-02-05T08:25:47.957Z</time>
      </trkpt>
      <trkpt lat="47.72276" lon="2.11494">
        <ele>160</ele>
        <time>2017-02-05T08:25:48.954Z</time>
      </trkpt>
      <trkpt lat="47.72265" lon="2.11487">
        <ele>160</ele>
        <time>2017-02-05T08:25:49.960Z</time>
      </trkpt>
      <trkpt lat="47.7226" lon="2.11484">
        <ele>160</ele>
        <time>2017-02-05T08:25:50.957Z</time>
      </trkpt>
      <trkpt lat="47.7226" lon="2.11484">
        <ele>160</ele>
        <time>2017-02-05T08:25:51.954Z</time>
      </trkpt>
      <trkpt lat="47.72249" lon="2.1148">
        <ele>160</ele>
        <time>2017-02-05T08:25:52.958Z</time>
      </trkpt>
      <trkpt lat="47.72244" lon="2.11481">
        <ele>160</ele>
        <time>2017-02-05T08:25:53.926Z</time>
      </trkpt>
      <trkpt lat="47.72244" lon="2.11481">
        <ele>160</ele>
        <time>2017-02-05T08:25:54.957Z</time>
      </trkpt>
      <trkpt lat="47.72233" lon="2.11484">
        <ele>159</ele>
        <time>2017-02-05T08:25:55.956Z</time>
      </trkpt>
      <trkpt lat="47.72233" lon="2.11484">
        <ele>159</ele>
        <time>2017-02-05T08:25:56.955Z</time>
      </trkpt>
      <trkpt lat="47.72223" lon="2.11488">
        <ele>159</ele>
        <time>2017-02-05T08:25:57.958Z</time>
      </trkpt>
      <trkpt lat="47.72219" lon="2.11488">
        <ele>157</ele>
        <time>2017-02-05T08:25:58.958Z</time>
      </trkpt>
      <trkpt lat="47.72215" lon="2.11489">
        <ele>156</ele>
        <time>2017-02-05T08:25:59.957Z</time>
      </trkpt>
      <trkpt lat="47.72215" lon="2.11489">
        <ele>156</ele>
        <time>2017-02-05T08:26:00.955Z</time>
      </trkpt>
      <trkpt lat="47.72205" lon="2.11495">
        <ele>155</ele>
        <time>2017-02-05T08:26:01.959Z</time>
      </trkpt>
      <trkpt lat="47.72205" lon="2.11495">
        <ele>155</ele>
        <time>2017-02-05T08:26:02.953Z</time>
      </trkpt>
      <trkpt lat="47.72195" lon="2.11499">
        <ele>154</ele>
        <time>2017-02-05T08:26:03.956Z</time>
      </trkpt>
      <trkpt lat="47.72195" lon="2.11499">
        <ele>154</ele>
        <time>2017-02-05T08:26:04.954Z</time>
      </trkpt>
      <trkpt lat="47.72184" lon="2.11504">
        <ele>154</ele>
        <time>2017-02-05T08:26:05.958Z</time>
      </trkpt>
      <trkpt lat="47.72184" lon="2.11504">
        <ele>154</ele>
        <time>2017-02-05T08:26:06.955Z</time>
      </trkpt>
      <trkpt lat="47.72174" lon="2.11509">
        <ele>153</ele>
        <time>2017-02-05T08:26:07.957Z</time>
      </trkpt>
      <trkpt lat="47.72174" lon="2.11509">
        <ele>153</ele>
        <time>2017-02-05T08:26:08.955Z</time>
      </trkpt>
      <trkpt lat="47.72164" lon="2.11514">
        <ele>152</ele>
        <time>2017-02-05T08:26:09.957Z</time>
      </trkpt>
      <trkpt lat="47.72164" lon="2.11514">
        <ele>152</ele>
        <time>2017-02-05T08:26:10.954Z</time>
      </trkpt>
      <trkpt lat="47.72151" lon="2.1152">
        <ele>152</ele>
        <time>2017-02-05T08:26:11.958Z</time>
      </trkpt>
      <trkpt lat="47.72151" lon="2.1152">
        <ele>152</ele>
        <time>2017-02-05T08:26:12.952Z</time>
      </trkpt>
      <trkpt lat="47.72139" lon="2.11525">
        <ele>151</ele>
        <time>2017-02-05T08:26:13.957Z</time>
      </trkpt>
      <trkpt lat="47.72139" lon="2.11525">
        <ele>151</ele>
        <time>2017-02-05T08:26:14.954Z</time>
      </trkpt>
      <trkpt lat="47.72128" lon="2.11531">
        <ele>150</ele>
        <time>2017-02-05T08:26:15.954Z</time>
      </trkpt>
      <trkpt lat="47.72122" lon="2.11534">
        <ele>149</ele>
        <time>2017-02-05T08:26:16.957Z</time>
      </trkpt>
      <trkpt lat="47.72122" lon="2.11534">
        <ele>149</ele>
        <time>2017-02-05T08:26:17.955Z</time>
      </trkpt>
      <trkpt lat="47.7211" lon="2.1154">
        <ele>149</ele>
        <time>2017-02-05T08:26:18.957Z</time>
      </trkpt>
      <trkpt lat="47.72105" lon="2.11543">
        <ele>148</ele>
        <time>2017-02-05T08:26:19.957Z</time>
      </trkpt>
      <trkpt lat="47.72105" lon="2.11543">
        <ele>148</ele>
        <time>2017-02-05T08:26:20.954Z</time>
      </trkpt>
      <trkpt lat="47.72092" lon="2.11548">
        <ele>147</ele>
        <time>2017-02-05T08:26:21.956Z</time>
      </trkpt>
      <trkpt lat="47.72092" lon="2.11548">
        <ele>147</ele>
        <time>2017-02-05T08:26:22.952Z</time>
      </trkpt>
      <trkpt lat="47.72079" lon="2.11549">
        <ele>146</ele>
        <time>2017-02-05T08:26:23.958Z</time>
      </trkpt>
      <trkpt lat="47.72079" lon="2.11549">
        <ele>146</ele>
        <time>2017-02-05T08:26:24.954Z</time>
      </trkpt>
      <trkpt lat="47.72065" lon="2.11546">
        <ele>144</ele>
        <time>2017-02-05T08:26:25.957Z</time>
      </trkpt>
      <trkpt lat="47.72058" lon="2.11544">
        <ele>144</ele>
        <time>2017-02-05T08:26:26.958Z</time>
      </trkpt>
      <trkpt lat="47.72051" lon="2.1154">
        <ele>143</ele>
        <time>2017-02-05T08:26:27.958Z</time>
      </trkpt>
      <trkpt lat="47.72051" lon="2.1154">
        <ele>143</ele>
        <time>2017-02-05T08:26:28.955Z</time>
      </trkpt>
      <trkpt lat="47.72038" lon="2.11533">
        <ele>141</ele>
        <time>2017-02-05T08:26:29.927Z</time>
      </trkpt>
      <trkpt lat="47.72038" lon="2.11533">
        <ele>141</ele>
        <time>2017-02-05T08:26:30.958Z</time>
      </trkpt>
      <trkpt lat="47.72024" lon="2.11527">
        <ele>140</ele>
        <time>2017-02-05T08:26:31.959Z</time>
      </trkpt>
      <trkpt lat="47.72024" lon="2.11527">
        <ele>140</ele>
        <time>2017-02-05T08:26:32.955Z</time>
      </trkpt>
      <trkpt lat="47.72011" lon="2.11522">
        <ele>139</ele>
        <time>2017-02-05T08:26:33.956Z</time>
      </trkpt>
      <trkpt lat="47.72011" lon="2.11522">
        <ele>139</ele>
        <time>2017-02-05T08:26:34.951Z</time>
      </trkpt>
      <trkpt lat="47.71999" lon="2.11517">
        <ele>138</ele>
        <time>2017-02-05T08:26:35.957Z</time>
      </trkpt>
      <trkpt lat="47.71999" lon="2.11517">
        <ele>138</ele>
        <time>2017-02-05T08:26:36.954Z</time>
      </trkpt>
      <trkpt lat="47.71985" lon="2.11511">
        <ele>137</ele>
        <time>2017-02-05T08:26:37.924Z</time>
      </trkpt>
      <trkpt lat="47.71985" lon="2.11511">
        <ele>137</ele>
        <time>2017-02-05T08:26:38.956Z</time>
      </trkpt>
      <trkpt lat="47.71974" lon="2.11507">
        <ele>137</ele>
        <time>2017-02-05T08:26:39.956Z</time>
      </trkpt>
      <trkpt lat="47.71974" lon="2.11507">
        <ele>137</ele>
        <time>2017-02-05T08:26:40.954Z</time>
      </trkpt>
      <trkpt lat="47.71962" lon="2.11505">
        <ele>136</ele>
        <time>2017-02-05T08:26:41.958Z</time>
      </trkpt>
      <trkpt lat="47.71962" lon="2.11505">
        <ele>136</ele>
        <time>2017-02-05T08:26:42.953Z</time>
      </trkpt>
      <trkpt lat="47.7195" lon="2.115">
        <ele>135</ele>
        <time>2017-02-05T08:26:43.954Z</time>
      </trkpt>
      <trkpt lat="47.7195" lon="2.115">
        <ele>135</ele>
        <time>2017-02-05T08:26:44.954Z</time>
      </trkpt>
      <trkpt lat="47.71937" lon="2.11494">
        <ele>135</ele>
        <time>2017-02-05T08:26:45.954Z</time>
      </trkpt>
      <trkpt lat="47.7193" lon="2.1149">
        <ele>135</ele>
        <time>2017-02-05T08:26:46.957Z</time>
      </trkpt>
      <trkpt lat="47.7193" lon="2.1149">
        <ele>135</ele>
        <time>2017-02-05T08:26:47.956Z</time>
      </trkpt>
      <trkpt lat="47.71916" lon="2.11484">
        <ele>135</ele>
        <time>2017-02-05T08:26:48.956Z</time>
      </trkpt>
      <trkpt lat="47.71916" lon="2.11484">
        <ele>135</ele>
        <time>2017-02-05T08:26:49.951Z</time>
      </trkpt>
      <trkpt lat="47.71903" lon="2.11479">
        <ele>135</ele>
        <time>2017-02-05T08:26:50.954Z</time>
      </trkpt>
      <trkpt lat="47.71903" lon="2.11479">
        <ele>135</ele>
        <time>2017-02-05T08:26:51.953Z</time>
      </trkpt>
      <trkpt lat="47.7189" lon="2.11474">
        <ele>135</ele>
        <time>2017-02-05T08:26:52.936Z</time>
      </trkpt>
      <trkpt lat="47.71884" lon="2.11472">
        <ele>135</ele>
        <time>2017-02-05T08:26:53.925Z</time>
      </trkpt>
      <trkpt lat="47.71884" lon="2.11472">
        <ele>135</ele>
        <time>2017-02-05T08:26:54.957Z</time>
      </trkpt>
      <trkpt lat="47.71874" lon="2.11465">
        <ele>135</ele>
        <time>2017-02-05T08:26:55.958Z</time>
      </trkpt>
      <trkpt lat="47.71867" lon="2.11463">
        <ele>135</ele>
        <time>2017-02-05T08:26:56.958Z</time>
      </trkpt>
      <trkpt lat="47.71867" lon="2.11463">
        <ele>135</ele>
        <time>2017-02-05T08:26:57.955Z</time>
      </trkpt>
      <trkpt lat="47.71856" lon="2.11459">
        <ele>135</ele>
        <time>2017-02-05T08:26:58.959Z</time>
      </trkpt>
      <trkpt lat="47.7185" lon="2.11457">
        <ele>135</ele>
        <time>2017-02-05T08:26:59.959Z</time>
      </trkpt>
      <trkpt lat="47.7185" lon="2.11457">
        <ele>135</ele>
        <time>2017-02-05T08:27:00.955Z</time>
      </trkpt>
      <trkpt lat="47.7184" lon="2.11452">
        <ele>135</ele>
        <time>2017-02-05T08:27:01.957Z</time>
      </trkpt>
      <trkpt lat="47.7184" lon="2.11452">
        <ele>135</ele>
        <time>2017-02-05T08:27:02.952Z</time>
      </trkpt>
      <trkpt lat="47.71831" lon="2.11447">
        <ele>136</ele>
        <time>2017-02-05T08:27:03.932Z</time>
      </trkpt>
      <trkpt lat="47.71831" lon="2.11447">
        <ele>136</ele>
        <time>2017-02-05T08:27:04.938Z</time>
      </trkpt>
      <trkpt lat="47.71822" lon="2.11442">
        <ele>136</ele>
        <time>2017-02-05T08:27:05.927Z</time>
      </trkpt>
      <trkpt lat="47.71822" lon="2.11442">
        <ele>136</ele>
        <time>2017-02-05T08:27:06.959Z</time>
      </trkpt>
      <trkpt lat="47.71811" lon="2.11437">
        <ele>136</ele>
        <time>2017-02-05T08:27:07.927Z</time>
      </trkpt>
      <trkpt lat="47.71811" lon="2.11437">
        <ele>136</ele>
        <time>2017-02-05T08:27:08.956Z</time>
      </trkpt>
      <trkpt lat="47.71802" lon="2.11432">
        <ele>137</ele>
        <time>2017-02-05T08:27:09.957Z</time>
      </trkpt>
      <trkpt lat="47.71802" lon="2.11432">
        <ele>137</ele>
        <time>2017-02-05T08:27:10.954Z</time>
      </trkpt>
      <trkpt lat="47.71791" lon="2.11428">
        <ele>137</ele>
        <time>2017-02-05T08:27:11.958Z</time>
      </trkpt>
      <trkpt lat="47.71791" lon="2.11428">
        <ele>137</ele>
        <time>2017-02-05T08:27:12.953Z</time>
      </trkpt>
      <trkpt lat="47.71781" lon="2.11423">
        <ele>138</ele>
        <time>2017-02-05T08:27:13.925Z</time>
      </trkpt>
      <trkpt lat="47.71776" lon="2.1142">
        <ele>138</ele>
        <time>2017-02-05T08:27:14.958Z</time>
      </trkpt>
      <trkpt lat="47.71776" lon="2.1142">
        <ele>138</ele>
        <time>2017-02-05T08:27:15.952Z</time>
      </trkpt>
      <trkpt lat="47.71765" lon="2.11414">
        <ele>139</ele>
        <time>2017-02-05T08:27:16.954Z</time>
      </trkpt>
      <trkpt lat="47.71765" lon="2.11414">
        <ele>139</ele>
        <time>2017-02-05T08:27:17.959Z</time>
      </trkpt>
      <trkpt lat="47.71754" lon="2.11409">
        <ele>139</ele>
        <time>2017-02-05T08:27:18.954Z</time>
      </trkpt>
      <trkpt lat="47.71754" lon="2.11409">
        <ele>139</ele>
        <time>2017-02-05T08:27:19.952Z</time>
      </trkpt>
      <trkpt lat="47.71741" lon="2.11403">
        <ele>138</ele>
        <time>2017-02-05T08:27:20.959Z</time>
      </trkpt>
      <trkpt lat="47.71741" lon="2.11403">
        <ele>138</ele>
        <time>2017-02-05T08:27:21.955Z</time>
      </trkpt>
      <trkpt lat="47.7173" lon="2.11399">
        <ele>138</ele>
        <time>2017-02-05T08:27:22.955Z</time>
      </trkpt>
      <trkpt lat="47.7173" lon="2.11399">
        <ele>138</ele>
        <time>2017-02-05T08:27:23.956Z</time>
      </trkpt>
      <trkpt lat="47.71719" lon="2.11393">
        <ele>138</ele>
        <time>2017-02-05T08:27:24.958Z</time>
      </trkpt>
      <trkpt lat="47.71713" lon="2.1139">
        <ele>138</ele>
        <time>2017-02-05T08:27:25.955Z</time>
      </trkpt>
      <trkpt lat="47.71713" lon="2.1139">
        <ele>138</ele>
        <time>2017-02-05T08:27:26.954Z</time>
      </trkpt>
      <trkpt lat="47.71702" lon="2.11385">
        <ele>138</ele>
        <time>2017-02-05T08:27:27.954Z</time>
      </trkpt>
      <trkpt lat="47.71697" lon="2.11383">
        <ele>138</ele>
        <time>2017-02-05T08:27:28.957Z</time>
      </trkpt>
      <trkpt lat="47.71697" lon="2.11383">
        <ele>138</ele>
        <time>2017-02-05T08:27:29.948Z</time>
      </trkpt>
      <trkpt lat="47.71686" lon="2.11379">
        <ele>138</ele>
        <time>2017-02-05T08:27:30.954Z</time>
      </trkpt>
      <trkpt lat="47.71681" lon="2.11376">
        <ele>138</ele>
        <time>2017-02-05T08:27:31.957Z</time>
      </trkpt>
      <trkpt lat="47.71681" lon="2.11376">
        <ele>138</ele>
        <time>2017-02-05T08:27:32.956Z</time>
      </trkpt>
      <trkpt lat="47.71671" lon="2.11372">
        <ele>137</ele>
        <time>2017-02-05T08:27:33.957Z</time>
      </trkpt>
      <trkpt lat="47.71666" lon="2.11369">
        <ele>137</ele>
        <time>2017-02-05T08:27:34.958Z</time>
      </trkpt>
      <trkpt lat="47.7166" lon="2.11367">
        <ele>137</ele>
        <time>2017-02-05T08:27:35.958Z</time>
      </trkpt>
      <trkpt lat="47.7166" lon="2.11367">
        <ele>137</ele>
        <time>2017-02-05T08:27:36.952Z</time>
      </trkpt>
      <trkpt lat="47.7165" lon="2.11363">
        <ele>137</ele>
        <time>2017-02-05T08:27:37.958Z</time>
      </trkpt>
      <trkpt lat="47.71645" lon="2.1136">
        <ele>136</ele>
        <time>2017-02-05T08:27:38.954Z</time>
      </trkpt>
      <trkpt lat="47.71645" lon="2.1136">
        <ele>136</ele>
        <time>2017-02-05T08:27:39.954Z</time>
      </trkpt>
      <trkpt lat="47.71636" lon="2.11356">
        <ele>136</ele>
        <time>2017-02-05T08:27:40.958Z</time>
      </trkpt>
      <trkpt lat="47.71631" lon="2.11354">
        <ele>135</ele>
        <time>2017-02-05T08:27:41.957Z</time>
      </trkpt>
      <trkpt lat="47.71631" lon="2.11354">
        <ele>135</ele>
        <time>2017-02-05T08:27:42.956Z</time>
      </trkpt>
      <trkpt lat="47.71622" lon="2.1135">
        <ele>134</ele>
        <time>2017-02-05T08:27:43.955Z</time>
      </trkpt>
      <trkpt lat="47.71618" lon="2.11349">
        <ele>133</ele>
        <time>2017-02-05T08:27:44.958Z</time>
      </trkpt>
      <trkpt lat="47.71618" lon="2.11349">
        <ele>133</ele>
        <time>2017-02-05T08:27:45.954Z</time>
      </trkpt>
      <trkpt lat="47.71608" lon="2.11345">
        <ele>132</ele>
        <time>2017-02-05T08:27:46.958Z</time>
      </trkpt>
      <trkpt lat="47.71604" lon="2.11343">
        <ele>132</ele>
        <time>2017-02-05T08:27:47.959Z</time>
      </trkpt>
      <trkpt lat="47.71604" lon="2.11343">
        <ele>132</ele>
        <time>2017-02-05T08:27:48.952Z</time>
      </trkpt>
      <trkpt lat="47.71594" lon="2.11339">
        <ele>131</ele>
        <time>2017-02-05T08:27:49.959Z</time>
      </trkpt>
      <trkpt lat="47.71594" lon="2.11339">
        <ele>131</ele>
        <time>2017-02-05T08:27:50.955Z</time>
      </trkpt>
      <trkpt lat="47.71584" lon="2.11335">
        <ele>131</ele>
        <time>2017-02-05T08:27:51.959Z</time>
      </trkpt>
      <trkpt lat="47.71584" lon="2.11335">
        <ele>131</ele>
        <time>2017-02-05T08:27:52.923Z</time>
      </trkpt>
      <trkpt lat="47.71574" lon="2.11332">
        <ele>130</ele>
        <time>2017-02-05T08:27:53.955Z</time>
      </trkpt>
      <trkpt lat="47.71569" lon="2.1133">
        <ele>130</ele>
        <time>2017-02-05T08:27:54.961Z</time>
      </trkpt>
      <trkpt lat="47.71569" lon="2.1133">
        <ele>130</ele>
        <time>2017-02-05T08:27:55.955Z</time>
      </trkpt>
      <trkpt lat="47.7156" lon="2.11326">
        <ele>130</ele>
        <time>2017-02-05T08:27:56.955Z</time>
      </trkpt>
      <trkpt lat="47.7156" lon="2.11326">
        <ele>130</ele>
        <time>2017-02-05T08:27:57.923Z</time>
      </trkpt>
      <trkpt lat="47.71551" lon="2.11321">
        <ele>130</ele>
        <time>2017-02-05T08:27:58.958Z</time>
      </trkpt>
      <trkpt lat="47.71551" lon="2.11321">
        <ele>130</ele>
        <time>2017-02-05T08:27:59.953Z</time>
      </trkpt>
      <trkpt lat="47.71541" lon="2.11317">
        <ele>130</ele>
        <time>2017-02-05T08:28:00.954Z</time>
      </trkpt>
      <trkpt lat="47.71536" lon="2.11314">
        <ele>130</ele>
        <time>2017-02-05T08:28:01.958Z</time>
      </trkpt>
      <trkpt lat="47.71536" lon="2.11314">
        <ele>130</ele>
        <time>2017-02-05T08:28:02.954Z</time>
      </trkpt>
      <trkpt lat="47.71527" lon="2.11309">
        <ele>130</ele>
        <time>2017-02-05T08:28:03.961Z</time>
      </trkpt>
      <trkpt lat="47.71521" lon="2.11307">
        <ele>130</ele>
        <time>2017-02-05T08:28:04.957Z</time>
      </trkpt>
      <trkpt lat="47.71517" lon="2.11305">
        <ele>130</ele>
        <time>2017-02-05T08:28:05.960Z</time>
      </trkpt>
      <trkpt lat="47.71517" lon="2.11305">
        <ele>130</ele>
        <time>2017-02-05T08:28:06.959Z</time>
      </trkpt>
      <trkpt lat="47.71509" lon="2.113">
        <ele>129</ele>
        <time>2017-02-05T08:28:07.936Z</time>
      </trkpt>
      <trkpt lat="47.71505" lon="2.11298">
        <ele>129</ele>
        <time>2017-02-05T08:28:08.926Z</time>
      </trkpt>
      <trkpt lat="47.71505" lon="2.11298">
        <ele>129</ele>
        <time>2017-02-05T08:28:09.958Z</time>
      </trkpt>
      <trkpt lat="47.71495" lon="2.11293">
        <ele>129</ele>
        <time>2017-02-05T08:28:10.957Z</time>
      </trkpt>
      <trkpt lat="47.71491" lon="2.1129">
        <ele>129</ele>
        <time>2017-02-05T08:28:11.960Z</time>
      </trkpt>
      <trkpt lat="47.71491" lon="2.1129">
        <ele>129</ele>
        <time>2017-02-05T08:28:12.936Z</time>
      </trkpt>
      <trkpt lat="47.71481" lon="2.11285">
        <ele>129</ele>
        <time>2017-02-05T08:28:13.932Z</time>
      </trkpt>
      <trkpt lat="47.71477" lon="2.11283">
        <ele>130</ele>
        <time>2017-02-05T08:28:14.926Z</time>
      </trkpt>
      <trkpt lat="47.71477" lon="2.11283">
        <ele>130</ele>
        <time>2017-02-05T08:28:15.956Z</time>
      </trkpt>
      <trkpt lat="47.71467" lon="2.11277">
        <ele>130</ele>
        <time>2017-02-05T08:28:16.954Z</time>
      </trkpt>
      <trkpt lat="47.71461" lon="2.11275">
        <ele>130</ele>
        <time>2017-02-05T08:28:17.957Z</time>
      </trkpt>
      <trkpt lat="47.71461" lon="2.11275">
        <ele>130</ele>
        <time>2017-02-05T08:28:18.954Z</time>
      </trkpt>
      <trkpt lat="47.71451" lon="2.11273">
        <ele>129</ele>
        <time>2017-02-05T08:28:19.959Z</time>
      </trkpt>
      <trkpt lat="47.71451" lon="2.11273">
        <ele>129</ele>
        <time>2017-02-05T08:28:20.953Z</time>
      </trkpt>
      <trkpt lat="47.7144" lon="2.11268">
        <ele>129</ele>
        <time>2017-02-05T08:28:21.955Z</time>
      </trkpt>
      <trkpt lat="47.7144" lon="2.11268">
        <ele>129</ele>
        <time>2017-02-05T08:28:22.954Z</time>
      </trkpt>
      <trkpt lat="47.71431" lon="2.11262">
        <ele>129</ele>
        <time>2017-02-05T08:28:23.959Z</time>
      </trkpt>
      <trkpt lat="47.71431" lon="2.11262">
        <ele>129</ele>
        <time>2017-02-05T08:28:24.954Z</time>
      </trkpt>
      <trkpt lat="47.71421" lon="2.11258">
        <ele>129</ele>
        <time>2017-02-05T08:28:25.957Z</time>
      </trkpt>
      <trkpt lat="47.71421" lon="2.11258">
        <ele>129</ele>
        <time>2017-02-05T08:28:26.952Z</time>
      </trkpt>
      <trkpt lat="47.71411" lon="2.11253">
        <ele>129</ele>
        <time>2017-02-05T08:28:27.958Z</time>
      </trkpt>
      <trkpt lat="47.71411" lon="2.11253">
        <ele>129</ele>
        <time>2017-02-05T08:28:28.952Z</time>
      </trkpt>
      <trkpt lat="47.714" lon="2.11248">
        <ele>129</ele>
        <time>2017-02-05T08:28:29.960Z</time>
      </trkpt>
      <trkpt lat="47.714" lon="2.11248">
        <ele>129</ele>
        <time>2017-02-05T08:28:30.954Z</time>
      </trkpt>
      <trkpt lat="47.71389" lon="2.11244">
        <ele>129</ele>
        <time>2017-02-05T08:28:31.958Z</time>
      </trkpt>
      <trkpt lat="47.71389" lon="2.11244">
        <ele>129</ele>
        <time>2017-02-05T08:28:32.955Z</time>
      </trkpt>
      <trkpt lat="47.71379" lon="2.1124">
        <ele>129</ele>
        <time>2017-02-05T08:28:33.955Z</time>
      </trkpt>
      <trkpt lat="47.71379" lon="2.1124">
        <ele>129</ele>
        <time>2017-02-05T08:28:34.952Z</time>
      </trkpt>
      <trkpt lat="47.71369" lon="2.11236">
        <ele>128</ele>
        <time>2017-02-05T08:28:35.958Z</time>
      </trkpt>
      <trkpt lat="47.71369" lon="2.11236">
        <ele>128</ele>
        <time>2017-02-05T08:28:36.952Z</time>
      </trkpt>
      <trkpt lat="47.71358" lon="2.11232">
        <ele>129</ele>
        <time>2017-02-05T08:28:37.958Z</time>
      </trkpt>
      <trkpt lat="47.71353" lon="2.1123">
        <ele>129</ele>
        <time>2017-02-05T08:28:38.957Z</time>
      </trkpt>
      <trkpt lat="47.71353" lon="2.1123">
        <ele>129</ele>
        <time>2017-02-05T08:28:39.952Z</time>
      </trkpt>
      <trkpt lat="47.71342" lon="2.11225">
        <ele>130</ele>
        <time>2017-02-05T08:28:40.955Z</time>
      </trkpt>
      <trkpt lat="47.71336" lon="2.11222">
        <ele>130</ele>
        <time>2017-02-05T08:28:41.960Z</time>
      </trkpt>
      <trkpt lat="47.71336" lon="2.11222">
        <ele>130</ele>
        <time>2017-02-05T08:28:42.955Z</time>
      </trkpt>
      <trkpt lat="47.71328" lon="2.11217">
        <ele>130</ele>
        <time>2017-02-05T08:28:43.957Z</time>
      </trkpt>
      <trkpt lat="47.71323" lon="2.11214">
        <ele>131</ele>
        <time>2017-02-05T08:28:44.958Z</time>
      </trkpt>
      <trkpt lat="47.71323" lon="2.11214">
        <ele>131</ele>
        <time>2017-02-05T08:28:45.953Z</time>
      </trkpt>
      <trkpt lat="47.71314" lon="2.1121">
        <ele>131</ele>
        <time>2017-02-05T08:28:46.959Z</time>
      </trkpt>
      <trkpt lat="47.71309" lon="2.11208">
        <ele>132</ele>
        <time>2017-02-05T08:28:47.959Z</time>
      </trkpt>
      <trkpt lat="47.71309" lon="2.11208">
        <ele>132</ele>
        <time>2017-02-05T08:28:48.953Z</time>
      </trkpt>
      <trkpt lat="47.71299" lon="2.11205">
        <ele>132</ele>
        <time>2017-02-05T08:28:49.958Z</time>
      </trkpt>
      <trkpt lat="47.71299" lon="2.11205">
        <ele>132</ele>
        <time>2017-02-05T08:28:50.953Z</time>
      </trkpt>
      <trkpt lat="47.7129" lon="2.11203">
        <ele>133</ele>
        <time>2017-02-05T08:28:51.957Z</time>
      </trkpt>
      <trkpt lat="47.7129" lon="2.11203">
        <ele>133</ele>
        <time>2017-02-05T08:28:52.959Z</time>
      </trkpt>
      <trkpt lat="47.7128" lon="2.11199">
        <ele>133</ele>
        <time>2017-02-05T08:28:53.961Z</time>
      </trkpt>
      <trkpt lat="47.7128" lon="2.11199">
        <ele>133</ele>
        <time>2017-02-05T08:28:54.956Z</time>
      </trkpt>
      <trkpt lat="47.7127" lon="2.11194">
        <ele>133</ele>
        <time>2017-02-05T08:28:55.957Z</time>
      </trkpt>
      <trkpt lat="47.71265" lon="2.11192">
        <ele>134</ele>
        <time>2017-02-05T08:28:56.958Z</time>
      </trkpt>
      <trkpt lat="47.71265" lon="2.11192">
        <ele>134</ele>
        <time>2017-02-05T08:28:57.952Z</time>
      </trkpt>
      <trkpt lat="47.71254" lon="2.11186">
        <ele>133</ele>
        <time>2017-02-05T08:28:58.955Z</time>
      </trkpt>
      <trkpt lat="47.71248" lon="2.11184">
        <ele>133</ele>
        <time>2017-02-05T08:28:59.960Z</time>
      </trkpt>
      <trkpt lat="47.71248" lon="2.11184">
        <ele>133</ele>
        <time>2017-02-05T08:29:00.955Z</time>
      </trkpt>
      <trkpt lat="47.71239" lon="2.1118">
        <ele>132</ele>
        <time>2017-02-05T08:29:01.958Z</time>
      </trkpt>
      <trkpt lat="47.71239" lon="2.1118">
        <ele>132</ele>
        <time>2017-02-05T08:29:02.957Z</time>
      </trkpt>
      <trkpt lat="47.71231" lon="2.11178">
        <ele>131</ele>
        <time>2017-02-05T08:29:03.956Z</time>
      </trkpt>
      <trkpt lat="47.71231" lon="2.11178">
        <ele>131</ele>
        <time>2017-02-05T08:29:04.957Z</time>
      </trkpt>
      <trkpt lat="47.71221" lon="2.1118">
        <ele>130</ele>
        <time>2017-02-05T08:29:05.959Z</time>
      </trkpt>
      <trkpt lat="47.71221" lon="2.1118">
        <ele>130</ele>
        <time>2017-02-05T08:29:06.952Z</time>
      </trkpt>
      <trkpt lat="47.71212" lon="2.11184">
        <ele>129</ele>
        <time>2017-02-05T08:29:07.959Z</time>
      </trkpt>
      <trkpt lat="47.71212" lon="2.11184">
        <ele>129</ele>
        <time>2017-02-05T08:29:08.952Z</time>
      </trkpt>
      <trkpt lat="47.71203" lon="2.1119">
        <ele>126</ele>
        <time>2017-02-05T08:29:09.957Z</time>
      </trkpt>
      <trkpt lat="47.71199" lon="2.11194">
        <ele>126</ele>
        <time>2017-02-05T08:29:10.958Z</time>
      </trkpt>
      <trkpt lat="47.71199" lon="2.11194">
        <ele>126</ele>
        <time>2017-02-05T08:29:11.954Z</time>
      </trkpt>
      <trkpt lat="47.71191" lon="2.11205">
        <ele>124</ele>
        <time>2017-02-05T08:29:12.955Z</time>
      </trkpt>
      <trkpt lat="47.71189" lon="2.11211">
        <ele>124</ele>
        <time>2017-02-05T08:29:13.924Z</time>
      </trkpt>
      <trkpt lat="47.71189" lon="2.11211">
        <ele>124</ele>
        <time>2017-02-05T08:29:14.957Z</time>
      </trkpt>
      <trkpt lat="47.71185" lon="2.11224">
        <ele>122</ele>
        <time>2017-02-05T08:29:15.956Z</time>
      </trkpt>
      <trkpt lat="47.71185" lon="2.11224">
        <ele>122</ele>
        <time>2017-02-05T08:29:16.952Z</time>
      </trkpt>
      <trkpt lat="47.71181" lon="2.11238">
        <ele>122</ele>
        <time>2017-02-05T08:29:17.923Z</time>
      </trkpt>
      <trkpt lat="47.71181" lon="2.11238">
        <ele>122</ele>
        <time>2017-02-05T08:29:18.955Z</time>
      </trkpt>
      <trkpt lat="47.71178" lon="2.11253">
        <ele>121</ele>
        <time>2017-02-05T08:29:19.957Z</time>
      </trkpt>
      <trkpt lat="47.71178" lon="2.11253">
        <ele>121</ele>
        <time>2017-02-05T08:29:20.952Z</time>
      </trkpt>
      <trkpt lat="47.71175" lon="2.11266">
        <ele>120</ele>
        <time>2017-02-05T08:29:21.958Z</time>
      </trkpt>
      <trkpt lat="47.71175" lon="2.11266">
        <ele>120</ele>
        <time>2017-02-05T08:29:22.956Z</time>
      </trkpt>
      <trkpt lat="47.71172" lon="2.11281">
        <ele>120</ele>
        <time>2017-02-05T08:29:23.960Z</time>
      </trkpt>
      <trkpt lat="47.71172" lon="2.11281">
        <ele>120</ele>
        <time>2017-02-05T08:29:24.945Z</time>
      </trkpt>
      <trkpt lat="47.71169" lon="2.11297">
        <ele>119</ele>
        <time>2017-02-05T08:29:25.934Z</time>
      </trkpt>
      <trkpt lat="47.71169" lon="2.11297">
        <ele>119</ele>
        <time>2017-02-05T08:29:26.924Z</time>
      </trkpt>
      <trkpt lat="47.71166" lon="2.11311">
        <ele>119</ele>
        <time>2017-02-05T08:29:27.955Z</time>
      </trkpt>
      <trkpt lat="47.71165" lon="2.11318">
        <ele>119</ele>
        <time>2017-02-05T08:29:28.954Z</time>
      </trkpt>
      <trkpt lat="47.71165" lon="2.11318">
        <ele>119</ele>
        <time>2017-02-05T08:29:29.926Z</time>
      </trkpt>
      <trkpt lat="47.71164" lon="2.11333">
        <ele>119</ele>
        <time>2017-02-05T08:29:30.958Z</time>
      </trkpt>
      <trkpt lat="47.71163" lon="2.11341">
        <ele>119</ele>
        <time>2017-02-05T08:29:31.957Z</time>
      </trkpt>
      <trkpt lat="47.71163" lon="2.11341">
        <ele>119</ele>
        <time>2017-02-05T08:29:32.925Z</time>
      </trkpt>
      <trkpt lat="47.71161" lon="2.11356">
        <ele>118</ele>
        <time>2017-02-05T08:29:33.957Z</time>
      </trkpt>
      <trkpt lat="47.7116" lon="2.11363">
        <ele>118</ele>
        <time>2017-02-05T08:29:34.958Z</time>
      </trkpt>
      <trkpt lat="47.7116" lon="2.11363">
        <ele>118</ele>
        <time>2017-02-05T08:29:35.955Z</time>
      </trkpt>
      <trkpt lat="47.71158" lon="2.11378">
        <ele>118</ele>
        <time>2017-02-05T08:29:36.958Z</time>
      </trkpt>
      <trkpt lat="47.71156" lon="2.11386">
        <ele>118</ele>
        <time>2017-02-05T08:29:37.956Z</time>
      </trkpt>
      <trkpt lat="47.71156" lon="2.11386">
        <ele>118</ele>
        <time>2017-02-05T08:29:38.952Z</time>
      </trkpt>
      <trkpt lat="47.71154" lon="2.114">
        <ele>118</ele>
        <time>2017-02-05T08:29:39.957Z</time>
      </trkpt>
      <trkpt lat="47.71154" lon="2.114">
        <ele>118</ele>
        <time>2017-02-05T08:29:40.954Z</time>
      </trkpt>
      <trkpt lat="47.71152" lon="2.11412">
        <ele>118</ele>
        <time>2017-02-05T08:29:41.960Z</time>
      </trkpt>
      <trkpt lat="47.71152" lon="2.11412">
        <ele>118</ele>
        <time>2017-02-05T08:29:42.955Z</time>
      </trkpt>
      <trkpt lat="47.71149" lon="2.11423">
        <ele>117</ele>
        <time>2017-02-05T08:29:43.958Z</time>
      </trkpt>
      <trkpt lat="47.71149" lon="2.11423">
        <ele>117</ele>
        <time>2017-02-05T08:29:44.953Z</time>
      </trkpt>
      <trkpt lat="47.71146" lon="2.11433">
        <ele>117</ele>
        <time>2017-02-05T08:29:45.958Z</time>
      </trkpt>
      <trkpt lat="47.71146" lon="2.11433">
        <ele>117</ele>
        <time>2017-02-05T08:29:46.955Z</time>
      </trkpt>
      <trkpt lat="47.71142" lon="2.11444">
        <ele>117</ele>
        <time>2017-02-05T08:29:47.955Z</time>
      </trkpt>
      <trkpt lat="47.71142" lon="2.11444">
        <ele>117</ele>
        <time>2017-02-05T08:29:48.952Z</time>
      </trkpt>
      <trkpt lat="47.71141" lon="2.11461">
        <ele>118</ele>
        <time>2017-02-05T08:29:49.957Z</time>
      </trkpt>
      <trkpt lat="47.7114" lon="2.11467">
        <ele>118</ele>
        <time>2017-02-05T08:29:50.957Z</time>
      </trkpt>
      <trkpt lat="47.7114" lon="2.11467">
        <ele>118</ele>
        <time>2017-02-05T08:29:51.952Z</time>
      </trkpt>
      <trkpt lat="47.71139" lon="2.1148">
        <ele>118</ele>
        <time>2017-02-05T08:29:52.961Z</time>
      </trkpt>
      <trkpt lat="47.71138" lon="2.11486">
        <ele>118</ele>
        <time>2017-02-05T08:29:53.931Z</time>
      </trkpt>
      <trkpt lat="47.71138" lon="2.11486">
        <ele>118</ele>
        <time>2017-02-05T08:29:54.922Z</time>
      </trkpt>
      <trkpt lat="47.71137" lon="2.11498">
        <ele>118</ele>
        <time>2017-02-05T08:29:55.957Z</time>
      </trkpt>
      <trkpt lat="47.71137" lon="2.11505">
        <ele>118</ele>
        <time>2017-02-05T08:29:56.958Z</time>
      </trkpt>
      <trkpt lat="47.71137" lon="2.11505">
        <ele>118</ele>
        <time>2017-02-05T08:29:57.959Z</time>
      </trkpt>
      <trkpt lat="47.71136" lon="2.11522">
        <ele>117</ele>
        <time>2017-02-05T08:29:58.957Z</time>
      </trkpt>
      <trkpt lat="47.71137" lon="2.1153">
        <ele>117</ele>
        <time>2017-02-05T08:29:59.960Z</time>
      </trkpt>
      <trkpt lat="47.71137" lon="2.1153">
        <ele>117</ele>
        <time>2017-02-05T08:30:00.953Z</time>
      </trkpt>
      <trkpt lat="47.71135" lon="2.11548">
        <ele>117</ele>
        <time>2017-02-05T08:30:01.957Z</time>
      </trkpt>
      <trkpt lat="47.71135" lon="2.11548">
        <ele>117</ele>
        <time>2017-02-05T08:30:02.954Z</time>
      </trkpt>
      <trkpt lat="47.71133" lon="2.11567">
        <ele>117</ele>
        <time>2017-02-05T08:30:03.958Z</time>
      </trkpt>
      <trkpt lat="47.71133" lon="2.11567">
        <ele>117</ele>
        <time>2017-02-05T08:30:04.951Z</time>
      </trkpt>
      <trkpt lat="47.71129" lon="2.11585">
        <ele>116</ele>
        <time>2017-02-05T08:30:05.958Z</time>
      </trkpt>
      <trkpt lat="47.71129" lon="2.11585">
        <ele>116</ele>
        <time>2017-02-05T08:30:06.952Z</time>
      </trkpt>
      <trkpt lat="47.71126" lon="2.11601">
        <ele>116</ele>
        <time>2017-02-05T08:30:07.956Z</time>
      </trkpt>
      <trkpt lat="47.71126" lon="2.11601">
        <ele>116</ele>
        <time>2017-02-05T08:30:08.958Z</time>
      </trkpt>
      <trkpt lat="47.71123" lon="2.11618">
        <ele>116</ele>
        <time>2017-02-05T08:30:09.954Z</time>
      </trkpt>
      <trkpt lat="47.71123" lon="2.11618">
        <ele>116</ele>
        <time>2017-02-05T08:30:10.952Z</time>
      </trkpt>
      <trkpt lat="47.7112" lon="2.11634">
        <ele>116</ele>
        <time>2017-02-05T08:30:11.960Z</time>
      </trkpt>
      <trkpt lat="47.7112" lon="2.11634">
        <ele>116</ele>
        <time>2017-02-05T08:30:12.954Z</time>
      </trkpt>
      <trkpt lat="47.71117" lon="2.1165">
        <ele>116</ele>
        <time>2017-02-05T08:30:13.957Z</time>
      </trkpt>
      <trkpt lat="47.71117" lon="2.1165">
        <ele>116</ele>
        <time>2017-02-05T08:30:14.957Z</time>
      </trkpt>
      <trkpt lat="47.71112" lon="2.11665">
        <ele>116</ele>
        <time>2017-02-05T08:30:15.958Z</time>
      </trkpt>
      <trkpt lat="47.71112" lon="2.11665">
        <ele>116</ele>
        <time>2017-02-05T08:30:16.952Z</time>
      </trkpt>
      <trkpt lat="47.7111" lon="2.11678">
        <ele>116</ele>
        <time>2017-02-05T08:30:17.955Z</time>
      </trkpt>
      <trkpt lat="47.71109" lon="2.11685">
        <ele>116</ele>
        <time>2017-02-05T08:30:18.957Z</time>
      </trkpt>
      <trkpt lat="47.71109" lon="2.11685">
        <ele>116</ele>
        <time>2017-02-05T08:30:19.952Z</time>
      </trkpt>
      <trkpt lat="47.71105" lon="2.11699">
        <ele>116</ele>
        <time>2017-02-05T08:30:20.957Z</time>
      </trkpt>
      <trkpt lat="47.71105" lon="2.11699">
        <ele>116</ele>
        <time>2017-02-05T08:30:21.952Z</time>
      </trkpt>
      <trkpt lat="47.71102" lon="2.11712">
        <ele>116</ele>
        <time>2017-02-05T08:30:22.955Z</time>
      </trkpt>
      <trkpt lat="47.71101" lon="2.11719">
        <ele>116</ele>
        <time>2017-02-05T08:30:23.959Z</time>
      </trkpt>
      <trkpt lat="47.71101" lon="2.11719">
        <ele>116</ele>
        <time>2017-02-05T08:30:24.952Z</time>
      </trkpt>
      <trkpt lat="47.71099" lon="2.11733">
        <ele>116</ele>
        <time>2017-02-05T08:30:25.958Z</time>
      </trkpt>
      <trkpt lat="47.71099" lon="2.11733">
        <ele>116</ele>
        <time>2017-02-05T08:30:26.954Z</time>
      </trkpt>
      <trkpt lat="47.71095" lon="2.11749">
        <ele>116</ele>
        <time>2017-02-05T08:30:27.923Z</time>
      </trkpt>
      <trkpt lat="47.71095" lon="2.11749">
        <ele>116</ele>
        <time>2017-02-05T08:30:28.954Z</time>
      </trkpt>
      <trkpt lat="47.71092" lon="2.11765">
        <ele>116</ele>
        <time>2017-02-05T08:30:29.960Z</time>
      </trkpt>
      <trkpt lat="47.71092" lon="2.11765">
        <ele>116</ele>
        <time>2017-02-05T08:30:30.952Z</time>
      </trkpt>
      <trkpt lat="47.71089" lon="2.11781">
        <ele>115</ele>
        <time>2017-02-05T08:30:31.961Z</time>
      </trkpt>
      <trkpt lat="47.71089" lon="2.11781">
        <ele>115</ele>
        <time>2017-02-05T08:30:32.931Z</time>
      </trkpt>
      <trkpt lat="47.71086" lon="2.11797">
        <ele>115</ele>
        <time>2017-02-05T08:30:33.922Z</time>
      </trkpt>
      <trkpt lat="47.71085" lon="2.11805">
        <ele>115</ele>
        <time>2017-02-05T08:30:34.958Z</time>
      </trkpt>
      <trkpt lat="47.71083" lon="2.11813">
        <ele>114</ele>
        <time>2017-02-05T08:30:35.959Z</time>
      </trkpt>
      <trkpt lat="47.71083" lon="2.11813">
        <ele>114</ele>
        <time>2017-02-05T08:30:36.954Z</time>
      </trkpt>
      <trkpt lat="47.71081" lon="2.11828">
        <ele>114</ele>
        <time>2017-02-05T08:30:37.960Z</time>
      </trkpt>
      <trkpt lat="47.71081" lon="2.11828">
        <ele>114</ele>
        <time>2017-02-05T08:30:38.956Z</time>
      </trkpt>
      <trkpt lat="47.71078" lon="2.11843">
        <ele>114</ele>
        <time>2017-02-05T08:30:39.959Z</time>
      </trkpt>
      <trkpt lat="47.71078" lon="2.11843">
        <ele>114</ele>
        <time>2017-02-05T08:30:40.952Z</time>
      </trkpt>
      <trkpt lat="47.71075" lon="2.11858">
        <ele>115</ele>
        <time>2017-02-05T08:30:41.962Z</time>
      </trkpt>
      <trkpt lat="47.71075" lon="2.11858">
        <ele>115</ele>
        <time>2017-02-05T08:30:42.956Z</time>
      </trkpt>
      <trkpt lat="47.71072" lon="2.11874">
        <ele>115</ele>
        <time>2017-02-05T08:30:43.958Z</time>
      </trkpt>
      <trkpt lat="47.71072" lon="2.11874">
        <ele>115</ele>
        <time>2017-02-05T08:30:44.954Z</time>
      </trkpt>
      <trkpt lat="47.71069" lon="2.1189">
        <ele>116</ele>
        <time>2017-02-05T08:30:45.957Z</time>
      </trkpt>
      <trkpt lat="47.71069" lon="2.1189">
        <ele>116</ele>
        <time>2017-02-05T08:30:46.952Z</time>
      </trkpt>
      <trkpt lat="47.71066" lon="2.11905">
        <ele>116</ele>
        <time>2017-02-05T08:30:47.954Z</time>
      </trkpt>
      <trkpt lat="47.71065" lon="2.11912">
        <ele>116</ele>
        <time>2017-02-05T08:30:48.957Z</time>
      </trkpt>
      <trkpt lat="47.71063" lon="2.11919">
        <ele>116</ele>
        <time>2017-02-05T08:30:49.957Z</time>
      </trkpt>
      <trkpt lat="47.71063" lon="2.11919">
        <ele>116</ele>
        <time>2017-02-05T08:30:50.952Z</time>
      </trkpt>
      <trkpt lat="47.71059" lon="2.11933">
        <ele>115</ele>
        <time>2017-02-05T08:30:51.957Z</time>
      </trkpt>
      <trkpt lat="47.71059" lon="2.11933">
        <ele>115</ele>
        <time>2017-02-05T08:30:52.957Z</time>
      </trkpt>
      <trkpt lat="47.71056" lon="2.11948">
        <ele>115</ele>
        <time>2017-02-05T08:30:53.959Z</time>
      </trkpt>
      <trkpt lat="47.71056" lon="2.11948">
        <ele>115</ele>
        <time>2017-02-05T08:30:54.952Z</time>
      </trkpt>
      <trkpt lat="47.71054" lon="2.11963">
        <ele>115</ele>
        <time>2017-02-05T08:30:55.962Z</time>
      </trkpt>
      <trkpt lat="47.71052" lon="2.1197">
        <ele>115</ele>
        <time>2017-02-05T08:30:56.960Z</time>
      </trkpt>
      <trkpt lat="47.71052" lon="2.1197">
        <ele>115</ele>
        <time>2017-02-05T08:30:57.956Z</time>
      </trkpt>
      <trkpt lat="47.7105" lon="2.11984">
        <ele>116</ele>
        <time>2017-02-05T08:30:58.957Z</time>
      </trkpt>
      <trkpt lat="47.71049" lon="2.11992">
        <ele>116</ele>
        <time>2017-02-05T08:30:59.961Z</time>
      </trkpt>
      <trkpt lat="47.71049" lon="2.11992">
        <ele>116</ele>
        <time>2017-02-05T08:31:00.955Z</time>
      </trkpt>
      <trkpt lat="47.71046" lon="2.12006">
        <ele>115</ele>
        <time>2017-02-05T08:31:01.955Z</time>
      </trkpt>
      <trkpt lat="47.71046" lon="2.12006">
        <ele>115</ele>
        <time>2017-02-05T08:31:02.952Z</time>
      </trkpt>
      <trkpt lat="47.71044" lon="2.1202">
        <ele>115</ele>
        <time>2017-02-05T08:31:03.957Z</time>
      </trkpt>
      <trkpt lat="47.71044" lon="2.1202">
        <ele>115</ele>
        <time>2017-02-05T08:31:04.952Z</time>
      </trkpt>
      <trkpt lat="47.71041" lon="2.12034">
        <ele>115</ele>
        <time>2017-02-05T08:31:05.923Z</time>
      </trkpt>
      <trkpt lat="47.7104" lon="2.12041">
        <ele>115</ele>
        <time>2017-02-05T08:31:06.959Z</time>
      </trkpt>
      <trkpt lat="47.71038" lon="2.12049">
        <ele>115</ele>
        <time>2017-02-05T08:31:07.959Z</time>
      </trkpt>
      <trkpt lat="47.71038" lon="2.12049">
        <ele>115</ele>
        <time>2017-02-05T08:31:08.954Z</time>
      </trkpt>
      <trkpt lat="47.71035" lon="2.12063">
        <ele>114</ele>
        <time>2017-02-05T08:31:09.959Z</time>
      </trkpt>
      <trkpt lat="47.71035" lon="2.12063">
        <ele>114</ele>
        <time>2017-02-05T08:31:10.953Z</time>
      </trkpt>
      <trkpt lat="47.71032" lon="2.12079">
        <ele>114</ele>
        <time>2017-02-05T08:31:11.959Z</time>
      </trkpt>
      <trkpt lat="47.71032" lon="2.12079">
        <ele>114</ele>
        <time>2017-02-05T08:31:12.954Z</time>
      </trkpt>
      <trkpt lat="47.71029" lon="2.12096">
        <ele>114</ele>
        <time>2017-02-05T08:31:13.957Z</time>
      </trkpt>
      <trkpt lat="47.71029" lon="2.12096">
        <ele>114</ele>
        <time>2017-02-05T08:31:14.954Z</time>
      </trkpt>
      <trkpt lat="47.71027" lon="2.12112">
        <ele>114</ele>
        <time>2017-02-05T08:31:15.957Z</time>
      </trkpt>
      <trkpt lat="47.71025" lon="2.1212">
        <ele>114</ele>
        <time>2017-02-05T08:31:16.959Z</time>
      </trkpt>
      <trkpt lat="47.71025" lon="2.1212">
        <ele>114</ele>
        <time>2017-02-05T08:31:17.956Z</time>
      </trkpt>
      <trkpt lat="47.71023" lon="2.12136">
        <ele>113</ele>
        <time>2017-02-05T08:31:18.959Z</time>
      </trkpt>
      <trkpt lat="47.71022" lon="2.12144">
        <ele>113</ele>
        <time>2017-02-05T08:31:19.957Z</time>
      </trkpt>
      <trkpt lat="47.71022" lon="2.12144">
        <ele>113</ele>
        <time>2017-02-05T08:31:20.952Z</time>
      </trkpt>
      <trkpt lat="47.7102" lon="2.12159">
        <ele>112</ele>
        <time>2017-02-05T08:31:21.957Z</time>
      </trkpt>
      <trkpt lat="47.7102" lon="2.12159">
        <ele>112</ele>
        <time>2017-02-05T08:31:22.952Z</time>
      </trkpt>
      <trkpt lat="47.71019" lon="2.12174">
        <ele>112</ele>
        <time>2017-02-05T08:31:23.958Z</time>
      </trkpt>
      <trkpt lat="47.71019" lon="2.12174">
        <ele>112</ele>
        <time>2017-02-05T08:31:24.952Z</time>
      </trkpt>
      <trkpt lat="47.71017" lon="2.12188">
        <ele>111</ele>
        <time>2017-02-05T08:31:25.957Z</time>
      </trkpt>
      <trkpt lat="47.71017" lon="2.12194">
        <ele>111</ele>
        <time>2017-02-05T08:31:26.957Z</time>
      </trkpt>
      <trkpt lat="47.71017" lon="2.12194">
        <ele>111</ele>
        <time>2017-02-05T08:31:27.960Z</time>
      </trkpt>
      <trkpt lat="47.71015" lon="2.1221">
        <ele>111</ele>
        <time>2017-02-05T08:31:28.958Z</time>
      </trkpt>
      <trkpt lat="47.71013" lon="2.12217">
        <ele>110</ele>
        <time>2017-02-05T08:31:29.959Z</time>
      </trkpt>
      <trkpt lat="47.71013" lon="2.12217">
        <ele>110</ele>
        <time>2017-02-05T08:31:30.952Z</time>
      </trkpt>
      <trkpt lat="47.71012" lon="2.12233">
        <ele>110</ele>
        <time>2017-02-05T08:31:31.932Z</time>
      </trkpt>
      <trkpt lat="47.71012" lon="2.12233">
        <ele>110</ele>
        <time>2017-02-05T08:31:32.924Z</time>
      </trkpt>
      <trkpt lat="47.71013" lon="2.12248">
        <ele>109</ele>
        <time>2017-02-05T08:31:33.959Z</time>
      </trkpt>
      <trkpt lat="47.71013" lon="2.12256">
        <ele>109</ele>
        <time>2017-02-05T08:31:34.958Z</time>
      </trkpt>
      <trkpt lat="47.71013" lon="2.12256">
        <ele>109</ele>
        <time>2017-02-05T08:31:35.953Z</time>
      </trkpt>
      <trkpt lat="47.71012" lon="2.12272">
        <ele>109</ele>
        <time>2017-02-05T08:31:36.959Z</time>
      </trkpt>
      <trkpt lat="47.71012" lon="2.12272">
        <ele>109</ele>
        <time>2017-02-05T08:31:37.923Z</time>
      </trkpt>
      <trkpt lat="47.71011" lon="2.12288">
        <ele>108</ele>
        <time>2017-02-05T08:31:38.957Z</time>
      </trkpt>
      <trkpt lat="47.71011" lon="2.12288">
        <ele>108</ele>
        <time>2017-02-05T08:31:39.952Z</time>
      </trkpt>
      <trkpt lat="47.7101" lon="2.12306">
        <ele>108</ele>
        <time>2017-02-05T08:31:40.954Z</time>
      </trkpt>
      <trkpt lat="47.7101" lon="2.12314">
        <ele>108</ele>
        <time>2017-02-05T08:31:41.960Z</time>
      </trkpt>
      <trkpt lat="47.7101" lon="2.12314">
        <ele>108</ele>
        <time>2017-02-05T08:31:42.958Z</time>
      </trkpt>
      <trkpt lat="47.71009" lon="2.12331">
        <ele>108</ele>
        <time>2017-02-05T08:31:43.957Z</time>
      </trkpt>
      <trkpt lat="47.71009" lon="2.12331">
        <ele>108</ele>
        <time>2017-02-05T08:31:44.954Z</time>
      </trkpt>
      <trkpt lat="47.7101" lon="2.12346">
        <ele>108</ele>
        <time>2017-02-05T08:31:45.955Z</time>
      </trkpt>
      <trkpt lat="47.7101" lon="2.12354">
        <ele>108</ele>
        <time>2017-02-05T08:31:46.959Z</time>
      </trkpt>
      <trkpt lat="47.71011" lon="2.12362">
        <ele>108</ele>
        <time>2017-02-05T08:31:47.959Z</time>
      </trkpt>
      <trkpt lat="47.71011" lon="2.12362">
        <ele>108</ele>
        <time>2017-02-05T08:31:48.955Z</time>
      </trkpt>
      <trkpt lat="47.71012" lon="2.12377">
        <ele>108</ele>
        <time>2017-02-05T08:31:49.958Z</time>
      </trkpt>
      <trkpt lat="47.71012" lon="2.12385">
        <ele>108</ele>
        <time>2017-02-05T08:31:50.959Z</time>
      </trkpt>
      <trkpt lat="47.71012" lon="2.12385">
        <ele>108</ele>
        <time>2017-02-05T08:31:51.952Z</time>
      </trkpt>
      <trkpt lat="47.71011" lon="2.12402">
        <ele>108</ele>
        <time>2017-02-05T08:31:52.923Z</time>
      </trkpt>
      <trkpt lat="47.71011" lon="2.1241">
        <ele>109</ele>
        <time>2017-02-05T08:31:53.960Z</time>
      </trkpt>
      <trkpt lat="47.71011" lon="2.1241">
        <ele>109</ele>
        <time>2017-02-05T08:31:54.952Z</time>
      </trkpt>
      <trkpt lat="47.7101" lon="2.12427">
        <ele>109</ele>
        <time>2017-02-05T08:31:55.939Z</time>
      </trkpt>
      <trkpt lat="47.71009" lon="2.12435">
        <ele>110</ele>
        <time>2017-02-05T08:31:56.929Z</time>
      </trkpt>
      <trkpt lat="47.71009" lon="2.12435">
        <ele>110</ele>
        <time>2017-02-05T08:31:57.961Z</time>
      </trkpt>
      <trkpt lat="47.71009" lon="2.12449">
        <ele>110</ele>
        <time>2017-02-05T08:31:58.959Z</time>
      </trkpt>
      <trkpt lat="47.71009" lon="2.12455">
        <ele>111</ele>
        <time>2017-02-05T08:31:59.959Z</time>
      </trkpt>
      <trkpt lat="47.71009" lon="2.12455">
        <ele>111</ele>
        <time>2017-02-05T08:32:00.925Z</time>
      </trkpt>
      <trkpt lat="47.71009" lon="2.12468">
        <ele>111</ele>
        <time>2017-02-05T08:32:01.958Z</time>
      </trkpt>
      <trkpt lat="47.71009" lon="2.12468">
        <ele>111</ele>
        <time>2017-02-05T08:32:02.955Z</time>
      </trkpt>
      <trkpt lat="47.71008" lon="2.12481">
        <ele>111</ele>
        <time>2017-02-05T08:32:03.961Z</time>
      </trkpt>
      <trkpt lat="47.71008" lon="2.12481">
        <ele>111</ele>
        <time>2017-02-05T08:32:04.955Z</time>
      </trkpt>
      <trkpt lat="47.71008" lon="2.12493">
        <ele>111</ele>
        <time>2017-02-05T08:32:05.961Z</time>
      </trkpt>
      <trkpt lat="47.71008" lon="2.12498">
        <ele>111</ele>
        <time>2017-02-05T08:32:06.957Z</time>
      </trkpt>
      <trkpt lat="47.71008" lon="2.12498">
        <ele>111</ele>
        <time>2017-02-05T08:32:07.938Z</time>
      </trkpt>
      <trkpt lat="47.71008" lon="2.12508">
        <ele>111</ele>
        <time>2017-02-05T08:32:08.961Z</time>
      </trkpt>
      <trkpt lat="47.71008" lon="2.12508">
        <ele>111</ele>
        <time>2017-02-05T08:32:09.954Z</time>
      </trkpt>
      <trkpt lat="47.71008" lon="2.12518">
        <ele>112</ele>
        <time>2017-02-05T08:32:10.959Z</time>
      </trkpt>
      <trkpt lat="47.71008" lon="2.12522">
        <ele>112</ele>
        <time>2017-02-05T08:32:11.960Z</time>
      </trkpt>
      <trkpt lat="47.71008" lon="2.12522">
        <ele>112</ele>
        <time>2017-02-05T08:32:12.957Z</time>
      </trkpt>
      <trkpt lat="47.71007" lon="2.12528">
        <ele>111</ele>
        <time>2017-02-05T08:32:13.957Z</time>
      </trkpt>
      <trkpt lat="47.71007" lon="2.12528">
        <ele>111</ele>
        <time>2017-02-05T08:32:14.952Z</time>
      </trkpt>
      <trkpt lat="47.71007" lon="2.12534">
        <ele>111</ele>
        <time>2017-02-05T08:32:15.959Z</time>
      </trkpt>
      <trkpt lat="47.71007" lon="2.12534">
        <ele>111</ele>
        <time>2017-02-05T08:32:16.976Z</time>
      </trkpt>
      <trkpt lat="47.71007" lon="2.12536">
        <ele>111</ele>
        <time>2017-02-05T08:32:17.961Z</time>
      </trkpt>
      <trkpt lat="47.71007" lon="2.12536">
        <ele>111</ele>
        <time>2017-02-05T08:32:18.954Z</time>
      </trkpt>
      <trkpt lat="47.71007" lon="2.12537">
        <ele>111</ele>
        <time>2017-02-05T08:32:19.957Z</time>
      </trkpt>
      <trkpt lat="47.71007" lon="2.12537">
        <ele>111</ele>
        <time>2017-02-05T08:32:20.949Z</time>
      </trkpt>
      <trkpt lat="47.71005" lon="2.12551">
        <ele>120</ele>
        <time>2017-02-05T08:32:21.939Z</time>
      </trkpt>
      <trkpt lat="47.71005" lon="2.12551">
        <ele>120</ele>
        <time>2017-02-05T08:32:22.927Z</time>
      </trkpt>
      <trkpt lat="47.71004" lon="2.12559">
        <ele>120</ele>
        <time>2017-02-05T08:32:23.922Z</time>
      </trkpt>
      <trkpt lat="47.71004" lon="2.12559">
        <ele>120</ele>
        <time>2017-02-05T08:32:24.959Z</time>
      </trkpt>
      <trkpt lat="47.71005" lon="2.12564">
        <ele>120</ele>
        <time>2017-02-05T08:32:25.948Z</time>
      </trkpt>
      <trkpt lat="47.71006" lon="2.12565">
        <ele>120</ele>
        <time>2017-02-05T08:32:26.938Z</time>
      </trkpt>
      <trkpt lat="47.71006" lon="2.12565">
        <ele>120</ele>
        <time>2017-02-05T08:32:27.926Z</time>
      </trkpt>
      <trkpt lat="47.71006" lon="2.12565">
        <ele>120</ele>
        <time>2017-02-05T08:32:28.956Z</time>
      </trkpt>
      <trkpt lat="47.71006" lon="2.12565">
        <ele>120</ele>
        <time>2017-02-05T08:32:29.927Z</time>
      </trkpt>
      <trkpt lat="47.70993" lon="2.12564">
        <ele>126</ele>
        <time>2017-02-05T08:32:30.959Z</time>
      </trkpt>
      <trkpt lat="47.70993" lon="2.12564">
        <ele>126</ele>
        <time>2017-02-05T08:32:31.954Z</time>
      </trkpt>
      <trkpt lat="47.70995" lon="2.12561">
        <ele>126</ele>
        <time>2017-02-05T08:32:32.954Z</time>
      </trkpt>
      <trkpt lat="47.70995" lon="2.12561">
        <ele>126</ele>
        <time>2017-02-05T08:32:33.950Z</time>
      </trkpt>
      <trkpt lat="47.70996" lon="2.12557">
        <ele>126</ele>
        <time>2017-02-05T08:32:34.944Z</time>
      </trkpt>
      <trkpt lat="47.70996" lon="2.12557">
        <ele>126</ele>
        <time>2017-02-05T08:32:35.934Z</time>
      </trkpt>
      <trkpt lat="47.70997" lon="2.12553">
        <ele>126</ele>
        <time>2017-02-05T08:32:36.923Z</time>
      </trkpt>
      <trkpt lat="47.70997" lon="2.12553">
        <ele>126</ele>
        <time>2017-02-05T08:32:37.951Z</time>
      </trkpt>
      <trkpt lat="47.70999" lon="2.1255">
        <ele>126</ele>
        <time>2017-02-05T08:32:38.947Z</time>
      </trkpt>
      <trkpt lat="47.71" lon="2.12548">
        <ele>126</ele>
        <time>2017-02-05T08:32:39.934Z</time>
      </trkpt>
      <trkpt lat="47.71" lon="2.12548">
        <ele>126</ele>
        <time>2017-02-05T08:32:40.922Z</time>
      </trkpt>
      <trkpt lat="47.71" lon="2.12545">
        <ele>126</ele>
        <time>2017-02-05T08:32:41.923Z</time>
      </trkpt>
      <trkpt lat="47.71001" lon="2.12544">
        <ele>126</ele>
        <time>2017-02-05T08:32:42.951Z</time>
      </trkpt>
      <trkpt lat="47.71001" lon="2.12543">
        <ele>126</ele>
        <time>2017-02-05T08:32:43.944Z</time>
      </trkpt>
      <trkpt lat="47.71001" lon="2.12543">
        <ele>126</ele>
        <time>2017-02-05T08:32:44.961Z</time>
      </trkpt>
      <trkpt lat="47.71011" lon="2.12546">
        <ele>126</ele>
        <time>2017-02-05T08:32:45.928Z</time>
      </trkpt>
      <trkpt lat="47.71011" lon="2.12546">
        <ele>126</ele>
        <time>2017-02-05T08:32:46.924Z</time>
      </trkpt>
      <trkpt lat="47.71012" lon="2.12548">
        <ele>126</ele>
        <time>2017-02-05T08:32:47.942Z</time>
      </trkpt>
      <trkpt lat="47.71012" lon="2.12548">
        <ele>126</ele>
        <time>2017-02-05T08:32:48.939Z</time>
      </trkpt>
      <trkpt lat="47.71009" lon="2.12549">
        <ele>126</ele>
        <time>2017-02-05T08:32:49.935Z</time>
      </trkpt>
      <trkpt lat="47.71009" lon="2.12549">
        <ele>126</ele>
        <time>2017-02-05T08:32:50.930Z</time>
      </trkpt>
      <trkpt lat="47.71007" lon="2.12547">
        <ele>126</ele>
        <time>2017-02-05T08:32:51.929Z</time>
      </trkpt>
      <trkpt lat="47.71007" lon="2.12547">
        <ele>126</ele>
        <time>2017-02-05T08:32:52.926Z</time>
      </trkpt>
      <trkpt lat="47.71006" lon="2.12545">
        <ele>125</ele>
        <time>2017-02-05T08:32:53.930Z</time>
      </trkpt>
      <trkpt lat="47.71006" lon="2.12545">
        <ele>125</ele>
        <time>2017-02-05T08:32:54.927Z</time>
      </trkpt>
      <trkpt lat="47.71006" lon="2.12545">
        <ele>125</ele>
        <time>2017-02-05T08:32:55.956Z</time>
      </trkpt>
      <trkpt lat="47.71" lon="2.12546">
        <ele>130</ele>
        <time>2017-02-05T08:32:56.946Z</time>
      </trkpt>
      <trkpt lat="47.71" lon="2.12546">
        <ele>130</ele>
        <time>2017-02-05T08:32:57.934Z</time>
      </trkpt>
      <trkpt lat="47.71001" lon="2.12549">
        <ele>130</ele>
        <time>2017-02-05T08:32:58.936Z</time>
      </trkpt>
      <trkpt lat="47.71001" lon="2.12549">
        <ele>130</ele>
        <time>2017-02-05T08:32:59.933Z</time>
      </trkpt>
      <trkpt lat="47.71001" lon="2.12549">
        <ele>130</ele>
        <time>2017-02-05T08:33:00.931Z</time>
      </trkpt>
      <trkpt lat="47.71001" lon="2.12549">
        <ele>130</ele>
        <time>2017-02-05T08:33:01.923Z</time>
      </trkpt>
      <trkpt lat="47.71001" lon="2.12551">
        <ele>130</ele>
        <time>2017-02-05T08:33:02.941Z</time>
      </trkpt>
      <trkpt lat="47.71001" lon="2.12551">
        <ele>130</ele>
        <time>2017-02-05T08:33:03.930Z</time>
      </trkpt>
      <trkpt lat="47.70995" lon="2.12548">
        <ele>128</ele>
        <time>2017-02-05T08:33:04.960Z</time>
      </trkpt>
      <trkpt lat="47.70993" lon="2.12548">
        <ele>128</ele>
        <time>2017-02-05T08:33:05.923Z</time>
      </trkpt>
      <trkpt lat="47.70993" lon="2.12548">
        <ele>128</ele>
        <time>2017-02-05T08:33:06.925Z</time>
      </trkpt>
      <trkpt lat="47.70989" lon="2.12546">
        <ele>128</ele>
        <time>2017-02-05T08:33:07.932Z</time>
      </trkpt>
      <trkpt lat="47.70989" lon="2.12546">
        <ele>128</ele>
        <time>2017-02-05T08:33:08.946Z</time>
      </trkpt>
      <trkpt lat="47.70984" lon="2.12543">
        <ele>128</ele>
        <time>2017-02-05T08:33:09.939Z</time>
      </trkpt>
      <trkpt lat="47.70981" lon="2.12541">
        <ele>128</ele>
        <time>2017-02-05T08:33:10.930Z</time>
      </trkpt>
      <trkpt lat="47.70981" lon="2.12541">
        <ele>128</ele>
        <time>2017-02-05T08:33:11.958Z</time>
      </trkpt>
      <trkpt lat="47.70973" lon="2.12537">
        <ele>129</ele>
        <time>2017-02-05T08:33:12.936Z</time>
      </trkpt>
      <trkpt lat="47.70973" lon="2.12537">
        <ele>129</ele>
        <time>2017-02-05T08:33:13.924Z</time>
      </trkpt>
      <trkpt lat="47.70966" lon="2.12535">
        <ele>129</ele>
        <time>2017-02-05T08:33:14.960Z</time>
      </trkpt>
      <trkpt lat="47.70966" lon="2.12535">
        <ele>129</ele>
        <time>2017-02-05T08:33:15.928Z</time>
      </trkpt>
      <trkpt lat="47.70958" lon="2.12533">
        <ele>129</ele>
        <time>2017-02-05T08:33:16.958Z</time>
      </trkpt>
      <trkpt lat="47.70958" lon="2.12533">
        <ele>129</ele>
        <time>2017-02-05T08:33:17.959Z</time>
      </trkpt>
      <trkpt lat="47.70951" lon="2.12531">
        <ele>129</ele>
        <time>2017-02-05T08:33:18.926Z</time>
      </trkpt>
      <trkpt lat="47.70947" lon="2.12529">
        <ele>129</ele>
        <time>2017-02-05T08:33:19.925Z</time>
      </trkpt>
      <trkpt lat="47.70944" lon="2.12528">
        <ele>129</ele>
        <time>2017-02-05T08:33:20.958Z</time>
      </trkpt>
      <trkpt lat="47.70944" lon="2.12528">
        <ele>129</ele>
        <time>2017-02-05T08:33:21.961Z</time>
      </trkpt>
      <trkpt lat="47.70935" lon="2.12525">
        <ele>129</ele>
        <time>2017-02-05T08:33:22.928Z</time>
      </trkpt>
      <trkpt lat="47.70935" lon="2.12525">
        <ele>129</ele>
        <time>2017-02-05T08:33:23.956Z</time>
      </trkpt>
      <trkpt lat="47.70926" lon="2.12524">
        <ele>129</ele>
        <time>2017-02-05T08:33:24.937Z</time>
      </trkpt>
      <trkpt lat="47.70926" lon="2.12524">
        <ele>129</ele>
        <time>2017-02-05T08:33:25.925Z</time>
      </trkpt>
      <trkpt lat="47.70916" lon="2.12523">
        <ele>129</ele>
        <time>2017-02-05T08:33:26.958Z</time>
      </trkpt>
      <trkpt lat="47.70916" lon="2.12523">
        <ele>129</ele>
        <time>2017-02-05T08:33:27.958Z</time>
      </trkpt>
      <trkpt lat="47.70905" lon="2.12522">
        <ele>129</ele>
        <time>2017-02-05T08:33:28.925Z</time>
      </trkpt>
      <trkpt lat="47.70905" lon="2.12522">
        <ele>129</ele>
        <time>2017-02-05T08:33:29.954Z</time>
      </trkpt>
      <trkpt lat="47.70893" lon="2.12522">
        <ele>129</ele>
        <time>2017-02-05T08:33:30.959Z</time>
      </trkpt>
      <trkpt lat="47.70893" lon="2.12522">
        <ele>129</ele>
        <time>2017-02-05T08:33:31.957Z</time>
      </trkpt>
      <trkpt lat="47.70882" lon="2.12525">
        <ele>129</ele>
        <time>2017-02-05T08:33:32.959Z</time>
      </trkpt>
      <trkpt lat="47.70882" lon="2.12525">
        <ele>129</ele>
        <time>2017-02-05T08:33:33.927Z</time>
      </trkpt>
      <trkpt lat="47.70868" lon="2.12529">
        <ele>128</ele>
        <time>2017-02-05T08:33:34.959Z</time>
      </trkpt>
      <trkpt lat="47.70868" lon="2.12529">
        <ele>128</ele>
        <time>2017-02-05T08:33:35.928Z</time>
      </trkpt>
      <trkpt lat="47.70857" lon="2.12529">
        <ele>128</ele>
        <time>2017-02-05T08:33:36.931Z</time>
      </trkpt>
      <trkpt lat="47.70857" lon="2.12529">
        <ele>128</ele>
        <time>2017-02-05T08:33:37.960Z</time>
      </trkpt>
      <trkpt lat="47.70845" lon="2.12522">
        <ele>128</ele>
        <time>2017-02-05T08:33:38.926Z</time>
      </trkpt>
      <trkpt lat="47.7084" lon="2.12517">
        <ele>128</ele>
        <time>2017-02-05T08:33:39.957Z</time>
      </trkpt>
      <trkpt lat="47.70835" lon="2.12513">
        <ele>128</ele>
        <time>2017-02-05T08:33:40.935Z</time>
      </trkpt>
      <trkpt lat="47.70835" lon="2.12513">
        <ele>128</ele>
        <time>2017-02-05T08:33:41.922Z</time>
      </trkpt>
      <trkpt lat="47.70823" lon="2.12504">
        <ele>127</ele>
        <time>2017-02-05T08:33:42.956Z</time>
      </trkpt>
      <trkpt lat="47.70823" lon="2.12504">
        <ele>127</ele>
        <time>2017-02-05T08:33:43.957Z</time>
      </trkpt>
      <trkpt lat="47.70811" lon="2.12494">
        <ele>127</ele>
        <time>2017-02-05T08:33:44.959Z</time>
      </trkpt>
      <trkpt lat="47.70811" lon="2.12494">
        <ele>127</ele>
        <time>2017-02-05T08:33:45.924Z</time>
      </trkpt>
      <trkpt lat="47.70799" lon="2.12484">
        <ele>126</ele>
        <time>2017-02-05T08:33:46.951Z</time>
      </trkpt>
      <trkpt lat="47.70799" lon="2.12484">
        <ele>126</ele>
        <time>2017-02-05T08:33:47.939Z</time>
      </trkpt>
      <trkpt lat="47.70789" lon="2.12473">
        <ele>126</ele>
        <time>2017-02-05T08:33:48.931Z</time>
      </trkpt>
      <trkpt lat="47.70789" lon="2.12473">
        <ele>126</ele>
        <time>2017-02-05T08:33:49.958Z</time>
      </trkpt>
      <trkpt lat="47.70779" lon="2.12463">
        <ele>125</ele>
        <time>2017-02-05T08:33:50.926Z</time>
      </trkpt>
      <trkpt lat="47.70779" lon="2.12463">
        <ele>125</ele>
        <time>2017-02-05T08:33:51.954Z</time>
      </trkpt>
      <trkpt lat="47.7077" lon="2.12457">
        <ele>125</ele>
        <time>2017-02-05T08:33:52.959Z</time>
      </trkpt>
      <trkpt lat="47.7077" lon="2.12457">
        <ele>125</ele>
        <time>2017-02-05T08:33:53.959Z</time>
      </trkpt>
      <trkpt lat="47.70761" lon="2.12457">
        <ele>125</ele>
        <time>2017-02-05T08:33:54.942Z</time>
      </trkpt>
      <trkpt lat="47.70761" lon="2.12457">
        <ele>125</ele>
        <time>2017-02-05T08:33:55.942Z</time>
      </trkpt>
      <trkpt lat="47.70755" lon="2.12466">
        <ele>124</ele>
        <time>2017-02-05T08:33:56.937Z</time>
      </trkpt>
      <trkpt lat="47.70755" lon="2.12466">
        <ele>124</ele>
        <time>2017-02-05T08:33:57.958Z</time>
      </trkpt>
      <trkpt lat="47.70749" lon="2.12476">
        <ele>124</ele>
        <time>2017-02-05T08:33:58.939Z</time>
      </trkpt>
      <trkpt lat="47.70749" lon="2.12476">
        <ele>124</ele>
        <time>2017-02-05T08:33:59.927Z</time>
      </trkpt>
      <trkpt lat="47.70742" lon="2.12487">
        <ele>125</ele>
        <time>2017-02-05T08:34:00.934Z</time>
      </trkpt>
      <trkpt lat="47.70742" lon="2.12487">
        <ele>125</ele>
        <time>2017-02-05T08:34:01.922Z</time>
      </trkpt>
      <trkpt lat="47.70733" lon="2.12494">
        <ele>125</ele>
        <time>2017-02-05T08:34:02.952Z</time>
      </trkpt>
      <trkpt lat="47.70733" lon="2.12494">
        <ele>125</ele>
        <time>2017-02-05T08:34:03.940Z</time>
      </trkpt>
      <trkpt lat="47.70722" lon="2.12495">
        <ele>125</ele>
        <time>2017-02-05T08:34:04.938Z</time>
      </trkpt>
      <trkpt lat="47.70722" lon="2.12495">
        <ele>125</ele>
        <time>2017-02-05T08:34:05.929Z</time>
      </trkpt>
      <trkpt lat="47.70712" lon="2.12492">
        <ele>125</ele>
        <time>2017-02-05T08:34:06.959Z</time>
      </trkpt>
      <trkpt lat="47.70707" lon="2.12489">
        <ele>125</ele>
        <time>2017-02-05T08:34:07.958Z</time>
      </trkpt>
      <trkpt lat="47.70707" lon="2.12489">
        <ele>125</ele>
        <time>2017-02-05T08:34:08.929Z</time>
      </trkpt>
      <trkpt lat="47.70698" lon="2.12481">
        <ele>125</ele>
        <time>2017-02-05T08:34:09.925Z</time>
      </trkpt>
      <trkpt lat="47.70693" lon="2.12477">
        <ele>125</ele>
        <time>2017-02-05T08:34:10.955Z</time>
      </trkpt>
      <trkpt lat="47.70693" lon="2.12477">
        <ele>125</ele>
        <time>2017-02-05T08:34:11.957Z</time>
      </trkpt>
      <trkpt lat="47.70683" lon="2.12469">
        <ele>125</ele>
        <time>2017-02-05T08:34:12.959Z</time>
      </trkpt>
      <trkpt lat="47.70683" lon="2.12469">
        <ele>125</ele>
        <time>2017-02-05T08:34:13.926Z</time>
      </trkpt>
      <trkpt lat="47.70675" lon="2.12465">
        <ele>125</ele>
        <time>2017-02-05T08:34:14.955Z</time>
      </trkpt>
      <trkpt lat="47.70675" lon="2.12465">
        <ele>125</ele>
        <time>2017-02-05T08:34:15.958Z</time>
      </trkpt>
      <trkpt lat="47.70667" lon="2.12462">
        <ele>125</ele>
        <time>2017-02-05T08:34:16.926Z</time>
      </trkpt>
      <trkpt lat="47.70662" lon="2.1246">
        <ele>126</ele>
        <time>2017-02-05T08:34:17.936Z</time>
      </trkpt>
      <trkpt lat="47.70662" lon="2.1246">
        <ele>126</ele>
        <time>2017-02-05T08:34:18.926Z</time>
      </trkpt>
      <trkpt lat="47.70653" lon="2.12459">
        <ele>126</ele>
        <time>2017-02-05T08:34:19.923Z</time>
      </trkpt>
      <trkpt lat="47.70648" lon="2.12458">
        <ele>126</ele>
        <time>2017-02-05T08:34:20.955Z</time>
      </trkpt>
      <trkpt lat="47.70648" lon="2.12458">
        <ele>126</ele>
        <time>2017-02-05T08:34:21.959Z</time>
      </trkpt>
      <trkpt lat="47.70638" lon="2.12455">
        <ele>126</ele>
        <time>2017-02-05T08:34:22.927Z</time>
      </trkpt>
      <trkpt lat="47.70638" lon="2.12455">
        <ele>126</ele>
        <time>2017-02-05T08:34:23.956Z</time>
      </trkpt>
      <trkpt lat="47.70629" lon="2.12452">
        <ele>126</ele>
        <time>2017-02-05T08:34:24.959Z</time>
      </trkpt>
      <trkpt lat="47.70624" lon="2.1245">
        <ele>126</ele>
        <time>2017-02-05T08:34:25.956Z</time>
      </trkpt>
      <trkpt lat="47.70624" lon="2.1245">
        <ele>126</ele>
        <time>2017-02-05T08:34:26.929Z</time>
      </trkpt>
      <trkpt lat="47.70615" lon="2.12444">
        <ele>126</ele>
        <time>2017-02-05T08:34:27.923Z</time>
      </trkpt>
      <trkpt lat="47.70611" lon="2.12439">
        <ele>127</ele>
        <time>2017-02-05T08:34:28.922Z</time>
      </trkpt>
      <trkpt lat="47.70611" lon="2.12439">
        <ele>127</ele>
        <time>2017-02-05T08:34:29.935Z</time>
      </trkpt>
      <trkpt lat="47.70602" lon="2.1243">
        <ele>126</ele>
        <time>2017-02-05T08:34:30.931Z</time>
      </trkpt>
      <trkpt lat="47.70602" lon="2.1243">
        <ele>126</ele>
        <time>2017-02-05T08:34:31.959Z</time>
      </trkpt>
      <trkpt lat="47.70594" lon="2.12421">
        <ele>126</ele>
        <time>2017-02-05T08:34:32.933Z</time>
      </trkpt>
      <trkpt lat="47.70594" lon="2.12421">
        <ele>126</ele>
        <time>2017-02-05T08:34:33.961Z</time>
      </trkpt>
      <trkpt lat="47.70585" lon="2.12412">
        <ele>126</ele>
        <time>2017-02-05T08:34:34.935Z</time>
      </trkpt>
      <trkpt lat="47.70585" lon="2.12412">
        <ele>126</ele>
        <time>2017-02-05T08:34:35.924Z</time>
      </trkpt>
      <trkpt lat="47.70576" lon="2.12405">
        <ele>125</ele>
        <time>2017-02-05T08:34:36.953Z</time>
      </trkpt>
      <trkpt lat="47.70576" lon="2.12405">
        <ele>125</ele>
        <time>2017-02-05T08:34:37.941Z</time>
      </trkpt>
      <trkpt lat="47.7057" lon="2.124">
        <ele>124</ele>
        <time>2017-02-05T08:34:38.942Z</time>
      </trkpt>
      <trkpt lat="47.7057" lon="2.124">
        <ele>124</ele>
        <time>2017-02-05T08:34:39.930Z</time>
      </trkpt>
      <trkpt lat="47.70564" lon="2.12394">
        <ele>124</ele>
        <time>2017-02-05T08:34:40.922Z</time>
      </trkpt>
      <trkpt lat="47.7056" lon="2.12391">
        <ele>124</ele>
        <time>2017-02-05T08:34:41.952Z</time>
      </trkpt>
      <trkpt lat="47.7056" lon="2.12391">
        <ele>124</ele>
        <time>2017-02-05T08:34:42.940Z</time>
      </trkpt>
      <trkpt lat="47.70553" lon="2.12385">
        <ele>123</ele>
        <time>2017-02-05T08:34:43.930Z</time>
      </trkpt>
      <trkpt lat="47.70549" lon="2.12381">
        <ele>123</ele>
        <time>2017-02-05T08:34:44.926Z</time>
      </trkpt>
      <trkpt lat="47.70545" lon="2.12378">
        <ele>123</ele>
        <time>2017-02-05T08:34:45.923Z</time>
      </trkpt>
      <trkpt lat="47.70542" lon="2.12375">
        <ele>123</ele>
        <time>2017-02-05T08:34:46.958Z</time>
      </trkpt>
      <trkpt lat="47.70542" lon="2.12375">
        <ele>123</ele>
        <time>2017-02-05T08:34:47.923Z</time>
      </trkpt>
      <trkpt lat="47.70535" lon="2.12368">
        <ele>123</ele>
        <time>2017-02-05T08:34:48.927Z</time>
      </trkpt>
      <trkpt lat="47.7053" lon="2.12364">
        <ele>123</ele>
        <time>2017-02-05T08:34:49.957Z</time>
      </trkpt>
      <trkpt lat="47.7053" lon="2.12364">
        <ele>123</ele>
        <time>2017-02-05T08:34:50.958Z</time>
      </trkpt>
      <trkpt lat="47.7052" lon="2.12357">
        <ele>123</ele>
        <time>2017-02-05T08:34:51.941Z</time>
      </trkpt>
      <trkpt lat="47.70516" lon="2.12354">
        <ele>123</ele>
        <time>2017-02-05T08:34:52.932Z</time>
      </trkpt>
      <trkpt lat="47.70516" lon="2.12354">
        <ele>123</ele>
        <time>2017-02-05T08:34:53.957Z</time>
      </trkpt>
      <trkpt lat="47.70508" lon="2.1235">
        <ele>122</ele>
        <time>2017-02-05T08:34:54.937Z</time>
      </trkpt>
      <trkpt lat="47.70508" lon="2.1235">
        <ele>122</ele>
        <time>2017-02-05T08:34:55.926Z</time>
      </trkpt>
      <trkpt lat="47.70502" lon="2.12353">
        <ele>122</ele>
        <time>2017-02-05T08:34:56.961Z</time>
      </trkpt>
      <trkpt lat="47.70499" lon="2.12356">
        <ele>122</ele>
        <time>2017-02-05T08:34:57.930Z</time>
      </trkpt>
      <trkpt lat="47.70499" lon="2.12356">
        <ele>122</ele>
        <time>2017-02-05T08:34:58.960Z</time>
      </trkpt>
      <trkpt lat="47.70496" lon="2.12367">
        <ele>122</ele>
        <time>2017-02-05T08:34:59.937Z</time>
      </trkpt>
      <trkpt lat="47.70496" lon="2.12367">
        <ele>122</ele>
        <time>2017-02-05T08:35:00.925Z</time>
      </trkpt>
      <trkpt lat="47.70493" lon="2.12379">
        <ele>121</ele>
        <time>2017-02-05T08:35:01.926Z</time>
      </trkpt>
      <trkpt lat="47.70492" lon="2.12384">
        <ele>121</ele>
        <time>2017-02-05T08:35:02.957Z</time>
      </trkpt>
      <trkpt lat="47.70492" lon="2.12384">
        <ele>121</ele>
        <time>2017-02-05T08:35:03.958Z</time>
      </trkpt>
      <trkpt lat="47.70491" lon="2.12397">
        <ele>121</ele>
        <time>2017-02-05T08:35:04.927Z</time>
      </trkpt>
      <trkpt lat="47.70491" lon="2.12397">
        <ele>121</ele>
        <time>2017-02-05T08:35:05.957Z</time>
      </trkpt>
      <trkpt lat="47.70489" lon="2.1241">
        <ele>120</ele>
        <time>2017-02-05T08:35:06.953Z</time>
      </trkpt>
      <trkpt lat="47.70488" lon="2.12416">
        <ele>120</ele>
        <time>2017-02-05T08:35:07.953Z</time>
      </trkpt>
      <trkpt lat="47.70488" lon="2.12416">
        <ele>120</ele>
        <time>2017-02-05T08:35:08.955Z</time>
      </trkpt>
      <trkpt lat="47.70486" lon="2.12431">
        <ele>120</ele>
        <time>2017-02-05T08:35:09.960Z</time>
      </trkpt>
      <trkpt lat="47.70485" lon="2.12439">
        <ele>120</ele>
        <time>2017-02-05T08:35:10.936Z</time>
      </trkpt>
      <trkpt lat="47.70485" lon="2.12439">
        <ele>120</ele>
        <time>2017-02-05T08:35:11.924Z</time>
      </trkpt>
      <trkpt lat="47.70482" lon="2.12453">
        <ele>120</ele>
        <time>2017-02-05T08:35:12.961Z</time>
      </trkpt>
      <trkpt lat="47.70481" lon="2.1246">
        <ele>120</ele>
        <time>2017-02-05T08:35:13.929Z</time>
      </trkpt>
      <trkpt lat="47.70481" lon="2.1246">
        <ele>120</ele>
        <time>2017-02-05T08:35:14.957Z</time>
      </trkpt>
      <trkpt lat="47.7048" lon="2.12474">
        <ele>120</ele>
        <time>2017-02-05T08:35:15.924Z</time>
      </trkpt>
      <trkpt lat="47.70479" lon="2.12481">
        <ele>120</ele>
        <time>2017-02-05T08:35:16.959Z</time>
      </trkpt>
      <trkpt lat="47.70479" lon="2.12481">
        <ele>120</ele>
        <time>2017-02-05T08:35:17.959Z</time>
      </trkpt>
      <trkpt lat="47.70477" lon="2.12495">
        <ele>121</ele>
        <time>2017-02-05T08:35:18.941Z</time>
      </trkpt>
      <trkpt lat="47.70477" lon="2.12502">
        <ele>120</ele>
        <time>2017-02-05T08:35:19.940Z</time>
      </trkpt>
      <trkpt lat="47.70477" lon="2.12502">
        <ele>120</ele>
        <time>2017-02-05T08:35:20.930Z</time>
      </trkpt>
      <trkpt lat="47.70475" lon="2.12516">
        <ele>120</ele>
        <time>2017-02-05T08:35:21.960Z</time>
      </trkpt>
      <trkpt lat="47.70475" lon="2.12523">
        <ele>122</ele>
        <time>2017-02-05T08:35:22.927Z</time>
      </trkpt>
      <trkpt lat="47.70475" lon="2.12523">
        <ele>122</ele>
        <time>2017-02-05T08:35:23.956Z</time>
      </trkpt>
      <trkpt lat="47.70473" lon="2.12537">
        <ele>122</ele>
        <time>2017-02-05T08:35:24.960Z</time>
      </trkpt>
      <trkpt lat="47.70472" lon="2.12544">
        <ele>122</ele>
        <time>2017-02-05T08:35:25.934Z</time>
      </trkpt>
      <trkpt lat="47.70472" lon="2.12544">
        <ele>122</ele>
        <time>2017-02-05T08:35:26.961Z</time>
      </trkpt>
      <trkpt lat="47.70471" lon="2.12558">
        <ele>122</ele>
        <time>2017-02-05T08:35:27.922Z</time>
      </trkpt>
      <trkpt lat="47.70471" lon="2.12566">
        <ele>122</ele>
        <time>2017-02-05T08:35:28.952Z</time>
      </trkpt>
      <trkpt lat="47.70471" lon="2.12566">
        <ele>122</ele>
        <time>2017-02-05T08:35:29.940Z</time>
      </trkpt>
      <trkpt lat="47.70468" lon="2.1258">
        <ele>122</ele>
        <time>2017-02-05T08:35:30.936Z</time>
      </trkpt>
      <trkpt lat="47.70468" lon="2.1258">
        <ele>122</ele>
        <time>2017-02-05T08:35:31.941Z</time>
      </trkpt>
      <trkpt lat="47.70467" lon="2.12594">
        <ele>122</ele>
        <time>2017-02-05T08:35:32.932Z</time>
      </trkpt>
      <trkpt lat="47.70467" lon="2.12601">
        <ele>121</ele>
        <time>2017-02-05T08:35:33.931Z</time>
      </trkpt>
      <trkpt lat="47.70467" lon="2.12608">
        <ele>121</ele>
        <time>2017-02-05T08:35:34.962Z</time>
      </trkpt>
      <trkpt lat="47.70467" lon="2.12608">
        <ele>121</ele>
        <time>2017-02-05T08:35:35.930Z</time>
      </trkpt>
      <trkpt lat="47.70466" lon="2.12623">
        <ele>120</ele>
        <time>2017-02-05T08:35:36.960Z</time>
      </trkpt>
      <trkpt lat="47.70465" lon="2.1263">
        <ele>120</ele>
        <time>2017-02-05T08:35:37.933Z</time>
      </trkpt>
      <trkpt lat="47.70465" lon="2.1263">
        <ele>120</ele>
        <time>2017-02-05T08:35:38.962Z</time>
      </trkpt>
      <trkpt lat="47.70464" lon="2.12644">
        <ele>120</ele>
        <time>2017-02-05T08:35:39.930Z</time>
      </trkpt>
      <trkpt lat="47.70464" lon="2.12644">
        <ele>120</ele>
        <time>2017-02-05T08:35:40.959Z</time>
      </trkpt>
      <trkpt lat="47.70462" lon="2.1266">
        <ele>119</ele>
        <time>2017-02-05T08:35:41.944Z</time>
      </trkpt>
      <trkpt lat="47.70462" lon="2.1266">
        <ele>119</ele>
        <time>2017-02-05T08:35:42.932Z</time>
      </trkpt>
      <trkpt lat="47.7046" lon="2.12676">
        <ele>119</ele>
        <time>2017-02-05T08:35:43.924Z</time>
      </trkpt>
      <trkpt lat="47.7046" lon="2.12676">
        <ele>119</ele>
        <time>2017-02-05T08:35:44.953Z</time>
      </trkpt>
      <trkpt lat="47.70458" lon="2.12692">
        <ele>118</ele>
        <time>2017-02-05T08:35:45.958Z</time>
      </trkpt>
      <trkpt lat="47.70458" lon="2.12701">
        <ele>118</ele>
        <time>2017-02-05T08:35:46.947Z</time>
      </trkpt>
      <trkpt lat="47.70458" lon="2.12701">
        <ele>118</ele>
        <time>2017-02-05T08:35:47.935Z</time>
      </trkpt>
      <trkpt lat="47.70455" lon="2.12718">
        <ele>117</ele>
        <time>2017-02-05T08:35:48.928Z</time>
      </trkpt>
      <trkpt lat="47.70455" lon="2.12718">
        <ele>117</ele>
        <time>2017-02-05T08:35:49.959Z</time>
      </trkpt>
      <trkpt lat="47.70454" lon="2.12734">
        <ele>117</ele>
        <time>2017-02-05T08:35:50.926Z</time>
      </trkpt>
      <trkpt lat="47.70453" lon="2.12742">
        <ele>117</ele>
        <time>2017-02-05T08:35:51.959Z</time>
      </trkpt>
      <trkpt lat="47.70453" lon="2.12742">
        <ele>117</ele>
        <time>2017-02-05T08:35:52.925Z</time>
      </trkpt>
      <trkpt lat="47.70451" lon="2.12758">
        <ele>117</ele>
        <time>2017-02-05T08:35:53.960Z</time>
      </trkpt>
      <trkpt lat="47.70451" lon="2.12758">
        <ele>117</ele>
        <time>2017-02-05T08:35:54.925Z</time>
      </trkpt>
      <trkpt lat="47.7045" lon="2.12774">
        <ele>117</ele>
        <time>2017-02-05T08:35:55.922Z</time>
      </trkpt>
      <trkpt lat="47.70449" lon="2.12782">
        <ele>117</ele>
        <time>2017-02-05T08:35:56.952Z</time>
      </trkpt>
      <trkpt lat="47.70449" lon="2.12782">
        <ele>117</ele>
        <time>2017-02-05T08:35:57.940Z</time>
      </trkpt>
      <trkpt lat="47.70447" lon="2.12799">
        <ele>117</ele>
        <time>2017-02-05T08:35:58.924Z</time>
      </trkpt>
      <trkpt lat="47.70447" lon="2.12799">
        <ele>117</ele>
        <time>2017-02-05T08:35:59.953Z</time>
      </trkpt>
      <trkpt lat="47.70446" lon="2.12815">
        <ele>117</ele>
        <time>2017-02-05T08:36:00.947Z</time>
      </trkpt>
      <trkpt lat="47.70446" lon="2.12815">
        <ele>117</ele>
        <time>2017-02-05T08:36:01.935Z</time>
      </trkpt>
      <trkpt lat="47.70445" lon="2.12831">
        <ele>117</ele>
        <time>2017-02-05T08:36:02.925Z</time>
      </trkpt>
      <trkpt lat="47.70444" lon="2.12839">
        <ele>116</ele>
        <time>2017-02-05T08:36:03.962Z</time>
      </trkpt>
      <trkpt lat="47.70443" lon="2.12848">
        <ele>116</ele>
        <time>2017-02-05T08:36:04.931Z</time>
      </trkpt>
      <trkpt lat="47.70443" lon="2.12848">
        <ele>116</ele>
        <time>2017-02-05T08:36:05.924Z</time>
      </trkpt>
      <trkpt lat="47.70442" lon="2.12865">
        <ele>116</ele>
        <time>2017-02-05T08:36:06.958Z</time>
      </trkpt>
      <trkpt lat="47.70441" lon="2.12874">
        <ele>115</ele>
        <time>2017-02-05T08:36:07.933Z</time>
      </trkpt>
      <trkpt lat="47.7044" lon="2.12882">
        <ele>115</ele>
        <time>2017-02-05T08:36:08.940Z</time>
      </trkpt>
      <trkpt lat="47.7044" lon="2.12882">
        <ele>115</ele>
        <time>2017-02-05T08:36:09.932Z</time>
      </trkpt>
      <trkpt lat="47.70439" lon="2.129">
        <ele>115</ele>
        <time>2017-02-05T08:36:10.924Z</time>
      </trkpt>
      <trkpt lat="47.70439" lon="2.129">
        <ele>115</ele>
        <time>2017-02-05T08:36:11.923Z</time>
      </trkpt>
      <trkpt lat="47.70438" lon="2.12918">
        <ele>114</ele>
        <time>2017-02-05T08:36:12.955Z</time>
      </trkpt>
      <trkpt lat="47.70438" lon="2.12918">
        <ele>114</ele>
        <time>2017-02-05T08:36:13.958Z</time>
      </trkpt>
      <trkpt lat="47.70436" lon="2.12934">
        <ele>115</ele>
        <time>2017-02-05T08:36:14.939Z</time>
      </trkpt>
      <trkpt lat="47.70436" lon="2.12934">
        <ele>115</ele>
        <time>2017-02-05T08:36:15.928Z</time>
      </trkpt>
      <trkpt lat="47.70435" lon="2.12951">
        <ele>115</ele>
        <time>2017-02-05T08:36:16.961Z</time>
      </trkpt>
      <trkpt lat="47.70435" lon="2.12951">
        <ele>115</ele>
        <time>2017-02-05T08:36:17.940Z</time>
      </trkpt>
      <trkpt lat="47.70433" lon="2.12967">
        <ele>114</ele>
        <time>2017-02-05T08:36:18.938Z</time>
      </trkpt>
      <trkpt lat="47.70433" lon="2.12967">
        <ele>114</ele>
        <time>2017-02-05T08:36:19.927Z</time>
      </trkpt>
      <trkpt lat="47.70432" lon="2.12982">
        <ele>113</ele>
        <time>2017-02-05T08:36:20.959Z</time>
      </trkpt>
      <trkpt lat="47.70431" lon="2.1299">
        <ele>113</ele>
        <time>2017-02-05T08:36:21.946Z</time>
      </trkpt>
      <trkpt lat="47.70431" lon="2.1299">
        <ele>113</ele>
        <time>2017-02-05T08:36:22.933Z</time>
      </trkpt>
      <trkpt lat="47.70427" lon="2.13006">
        <ele>113</ele>
        <time>2017-02-05T08:36:23.924Z</time>
      </trkpt>
      <trkpt lat="47.70427" lon="2.13006">
        <ele>113</ele>
        <time>2017-02-05T08:36:24.953Z</time>
      </trkpt>
      <trkpt lat="47.70423" lon="2.13017">
        <ele>113</ele>
        <time>2017-02-05T08:36:25.950Z</time>
      </trkpt>
      <trkpt lat="47.70423" lon="2.13017">
        <ele>113</ele>
        <time>2017-02-05T08:36:26.937Z</time>
      </trkpt>
      <trkpt lat="47.70417" lon="2.13028">
        <ele>114</ele>
        <time>2017-02-05T08:36:27.928Z</time>
      </trkpt>
      <trkpt lat="47.70414" lon="2.13032">
        <ele>113</ele>
        <time>2017-02-05T08:36:28.961Z</time>
      </trkpt>
      <trkpt lat="47.70414" lon="2.13032">
        <ele>113</ele>
        <time>2017-02-05T08:36:29.928Z</time>
      </trkpt>
      <trkpt lat="47.70408" lon="2.1304">
        <ele>113</ele>
        <time>2017-02-05T08:36:30.958Z</time>
      </trkpt>
      <trkpt lat="47.70404" lon="2.13045">
        <ele>114</ele>
        <time>2017-02-05T08:36:31.952Z</time>
      </trkpt>
      <trkpt lat="47.70404" lon="2.13045">
        <ele>114</ele>
        <time>2017-02-05T08:36:32.940Z</time>
      </trkpt>
      <trkpt lat="47.70397" lon="2.13053">
        <ele>114</ele>
        <time>2017-02-05T08:36:33.930Z</time>
      </trkpt>
      <trkpt lat="47.70393" lon="2.13057">
        <ele>115</ele>
        <time>2017-02-05T08:36:34.933Z</time>
      </trkpt>
      <trkpt lat="47.70393" lon="2.13057">
        <ele>115</ele>
        <time>2017-02-05T08:36:35.923Z</time>
      </trkpt>
      <trkpt lat="47.70387" lon="2.13065">
        <ele>115</ele>
        <time>2017-02-05T08:36:36.922Z</time>
      </trkpt>
      <trkpt lat="47.70387" lon="2.13065">
        <ele>115</ele>
        <time>2017-02-05T08:36:37.952Z</time>
      </trkpt>
      <trkpt lat="47.7038" lon="2.13071">
        <ele>116</ele>
        <time>2017-02-05T08:36:38.942Z</time>
      </trkpt>
      <trkpt lat="47.7038" lon="2.13071">
        <ele>116</ele>
        <time>2017-02-05T08:36:39.930Z</time>
      </trkpt>
      <trkpt lat="47.70372" lon="2.13081">
        <ele>117</ele>
        <time>2017-02-05T08:36:40.959Z</time>
      </trkpt>
      <trkpt lat="47.70372" lon="2.13081">
        <ele>117</ele>
        <time>2017-02-05T08:36:41.926Z</time>
      </trkpt>
      <trkpt lat="47.70367" lon="2.13089">
        <ele>118</ele>
        <time>2017-02-05T08:36:42.931Z</time>
      </trkpt>
      <trkpt lat="47.70367" lon="2.13089">
        <ele>118</ele>
        <time>2017-02-05T08:36:43.959Z</time>
      </trkpt>
      <trkpt lat="47.70361" lon="2.13094">
        <ele>119</ele>
        <time>2017-02-05T08:36:44.945Z</time>
      </trkpt>
      <trkpt lat="47.70361" lon="2.13094">
        <ele>119</ele>
        <time>2017-02-05T08:36:45.933Z</time>
      </trkpt>
      <trkpt lat="47.70357" lon="2.131">
        <ele>119</ele>
        <time>2017-02-05T08:36:46.931Z</time>
      </trkpt>
      <trkpt lat="47.70357" lon="2.131">
        <ele>119</ele>
        <time>2017-02-05T08:36:47.960Z</time>
      </trkpt>
      <trkpt lat="47.70354" lon="2.13105">
        <ele>120</ele>
        <time>2017-02-05T08:36:48.927Z</time>
      </trkpt>
      <trkpt lat="47.70352" lon="2.13107">
        <ele>121</ele>
        <time>2017-02-05T08:36:49.959Z</time>
      </trkpt>
      <trkpt lat="47.70352" lon="2.13107">
        <ele>121</ele>
        <time>2017-02-05T08:36:50.925Z</time>
      </trkpt>
      <trkpt lat="47.7035" lon="2.13112">
        <ele>122</ele>
        <time>2017-02-05T08:36:51.924Z</time>
      </trkpt>
      <trkpt lat="47.70348" lon="2.13116">
        <ele>122</ele>
        <time>2017-02-05T08:36:52.956Z</time>
      </trkpt>
      <trkpt lat="47.70348" lon="2.13116">
        <ele>122</ele>
        <time>2017-02-05T08:36:53.958Z</time>
      </trkpt>
      <trkpt lat="47.70345" lon="2.13121">
        <ele>123</ele>
        <time>2017-02-05T08:36:54.940Z</time>
      </trkpt>
      <trkpt lat="47.70345" lon="2.13121">
        <ele>123</ele>
        <time>2017-02-05T08:36:55.931Z</time>
      </trkpt>
      <trkpt lat="47.7034" lon="2.13126">
        <ele>125</ele>
        <time>2017-02-05T08:36:56.946Z</time>
      </trkpt>
      <trkpt lat="47.70337" lon="2.1313">
        <ele>125</ele>
        <time>2017-02-05T08:36:57.935Z</time>
      </trkpt>
      <trkpt lat="47.70337" lon="2.1313">
        <ele>125</ele>
        <time>2017-02-05T08:36:58.924Z</time>
      </trkpt>
      <trkpt lat="47.70331" lon="2.13137">
        <ele>126</ele>
        <time>2017-02-05T08:36:59.956Z</time>
      </trkpt>
      <trkpt lat="47.70331" lon="2.13137">
        <ele>126</ele>
        <time>2017-02-05T08:37:00.959Z</time>
      </trkpt>
      <trkpt lat="47.70325" lon="2.13145">
        <ele>127</ele>
        <time>2017-02-05T08:37:01.940Z</time>
      </trkpt>
      <trkpt lat="47.70325" lon="2.13145">
        <ele>127</ele>
        <time>2017-02-05T08:37:02.928Z</time>
      </trkpt>
      <trkpt lat="47.70317" lon="2.13154">
        <ele>128</ele>
        <time>2017-02-05T08:37:03.928Z</time>
      </trkpt>
      <trkpt lat="47.70314" lon="2.13158">
        <ele>129</ele>
        <time>2017-02-05T08:37:04.922Z</time>
      </trkpt>
      <trkpt lat="47.70309" lon="2.13163">
        <ele>130</ele>
        <time>2017-02-05T08:37:05.952Z</time>
      </trkpt>
      <trkpt lat="47.70306" lon="2.13168">
        <ele>130</ele>
        <time>2017-02-05T08:37:06.927Z</time>
      </trkpt>
      <trkpt lat="47.70306" lon="2.13168">
        <ele>130</ele>
        <time>2017-02-05T08:37:07.940Z</time>
      </trkpt>
      <trkpt lat="47.70298" lon="2.13177">
        <ele>131</ele>
        <time>2017-02-05T08:37:08.925Z</time>
      </trkpt>
      <trkpt lat="47.70295" lon="2.13181">
        <ele>132</ele>
        <time>2017-02-05T08:37:09.954Z</time>
      </trkpt>
      <trkpt lat="47.70295" lon="2.13181">
        <ele>132</ele>
        <time>2017-02-05T08:37:10.923Z</time>
      </trkpt>
      <trkpt lat="47.70284" lon="2.13191">
        <ele>133</ele>
        <time>2017-02-05T08:37:11.923Z</time>
      </trkpt>
      <trkpt lat="47.70284" lon="2.13191">
        <ele>133</ele>
        <time>2017-02-05T08:37:12.957Z</time>
      </trkpt>
      <trkpt lat="47.70277" lon="2.13201">
        <ele>134</ele>
        <time>2017-02-05T08:37:13.961Z</time>
      </trkpt>
      <trkpt lat="47.70275" lon="2.13204">
        <ele>134</ele>
        <time>2017-02-05T08:37:14.933Z</time>
      </trkpt>
      <trkpt lat="47.70275" lon="2.13204">
        <ele>134</ele>
        <time>2017-02-05T08:37:15.961Z</time>
      </trkpt>
      <trkpt lat="47.70269" lon="2.1321">
        <ele>135</ele>
        <time>2017-02-05T08:37:16.933Z</time>
      </trkpt>
      <trkpt lat="47.70269" lon="2.1321">
        <ele>135</ele>
        <time>2017-02-05T08:37:17.961Z</time>
      </trkpt>
      <trkpt lat="47.70262" lon="2.13218">
        <ele>136</ele>
        <time>2017-02-05T08:37:18.934Z</time>
      </trkpt>
      <trkpt lat="47.70262" lon="2.13218">
        <ele>136</ele>
        <time>2017-02-05T08:37:19.922Z</time>
      </trkpt>
      <trkpt lat="47.70254" lon="2.13225">
        <ele>137</ele>
        <time>2017-02-05T08:37:20.953Z</time>
      </trkpt>
      <trkpt lat="47.70254" lon="2.13225">
        <ele>137</ele>
        <time>2017-02-05T08:37:21.942Z</time>
      </trkpt>
      <trkpt lat="47.70245" lon="2.13235">
        <ele>138</ele>
        <time>2017-02-05T08:37:22.933Z</time>
      </trkpt>
      <trkpt lat="47.70245" lon="2.13235">
        <ele>138</ele>
        <time>2017-02-05T08:37:23.961Z</time>
      </trkpt>
      <trkpt lat="47.70237" lon="2.13243">
        <ele>139</ele>
        <time>2017-02-05T08:37:24.935Z</time>
      </trkpt>
      <trkpt lat="47.70237" lon="2.13243">
        <ele>139</ele>
        <time>2017-02-05T08:37:25.923Z</time>
      </trkpt>
      <trkpt lat="47.7023" lon="2.1325">
        <ele>140</ele>
        <time>2017-02-05T08:37:26.952Z</time>
      </trkpt>
      <trkpt lat="47.7023" lon="2.1325">
        <ele>140</ele>
        <time>2017-02-05T08:37:27.939Z</time>
      </trkpt>
      <trkpt lat="47.70223" lon="2.13257">
        <ele>141</ele>
        <time>2017-02-05T08:37:28.941Z</time>
      </trkpt>
      <trkpt lat="47.70223" lon="2.13257">
        <ele>141</ele>
        <time>2017-02-05T08:37:29.928Z</time>
      </trkpt>
      <trkpt lat="47.70216" lon="2.13266">
        <ele>142</ele>
        <time>2017-02-05T08:37:30.930Z</time>
      </trkpt>
      <trkpt lat="47.70216" lon="2.13266">
        <ele>142</ele>
        <time>2017-02-05T08:37:31.924Z</time>
      </trkpt>
      <trkpt lat="47.7021" lon="2.13276">
        <ele>143</ele>
        <time>2017-02-05T08:37:32.955Z</time>
      </trkpt>
      <trkpt lat="47.7021" lon="2.13276">
        <ele>143</ele>
        <time>2017-02-05T08:37:33.958Z</time>
      </trkpt>
      <trkpt lat="47.70203" lon="2.13285">
        <ele>144</ele>
        <time>2017-02-05T08:37:34.926Z</time>
      </trkpt>
      <trkpt lat="47.70203" lon="2.13285">
        <ele>144</ele>
        <time>2017-02-05T08:37:35.959Z</time>
      </trkpt>
      <trkpt lat="47.70195" lon="2.13294">
        <ele>145</ele>
        <time>2017-02-05T08:37:36.927Z</time>
      </trkpt>
      <trkpt lat="47.70195" lon="2.13294">
        <ele>145</ele>
        <time>2017-02-05T08:37:37.956Z</time>
      </trkpt>
      <trkpt lat="47.70188" lon="2.13303">
        <ele>146</ele>
        <time>2017-02-05T08:37:38.937Z</time>
      </trkpt>
      <trkpt lat="47.70188" lon="2.13303">
        <ele>146</ele>
        <time>2017-02-05T08:37:39.925Z</time>
      </trkpt>
      <trkpt lat="47.70181" lon="2.13311">
        <ele>147</ele>
        <time>2017-02-05T08:37:40.960Z</time>
      </trkpt>
      <trkpt lat="47.70178" lon="2.13315">
        <ele>147</ele>
        <time>2017-02-05T08:37:41.956Z</time>
      </trkpt>
      <trkpt lat="47.70178" lon="2.13315">
        <ele>147</ele>
        <time>2017-02-05T08:37:42.958Z</time>
      </trkpt>
      <trkpt lat="47.70169" lon="2.13325">
        <ele>147</ele>
        <time>2017-02-05T08:37:43.926Z</time>
      </trkpt>
      <trkpt lat="47.70169" lon="2.13325">
        <ele>147</ele>
        <time>2017-02-05T08:37:44.957Z</time>
      </trkpt>
      <trkpt lat="47.70162" lon="2.13335">
        <ele>148</ele>
        <time>2017-02-05T08:37:45.961Z</time>
      </trkpt>
      <trkpt lat="47.70159" lon="2.1334">
        <ele>148</ele>
        <time>2017-02-05T08:37:46.928Z</time>
      </trkpt>
      <trkpt lat="47.70159" lon="2.1334">
        <ele>148</ele>
        <time>2017-02-05T08:37:47.957Z</time>
      </trkpt>
      <trkpt lat="47.70151" lon="2.13348">
        <ele>149</ele>
        <time>2017-02-05T08:37:48.935Z</time>
      </trkpt>
      <trkpt lat="47.70148" lon="2.13353">
        <ele>149</ele>
        <time>2017-02-05T08:37:49.932Z</time>
      </trkpt>
      <trkpt lat="47.70148" lon="2.13353">
        <ele>149</ele>
        <time>2017-02-05T08:37:50.960Z</time>
      </trkpt>
      <trkpt lat="47.70142" lon="2.13362">
        <ele>149</ele>
        <time>2017-02-05T08:37:51.922Z</time>
      </trkpt>
      <trkpt lat="47.70142" lon="2.13362">
        <ele>149</ele>
        <time>2017-02-05T08:37:52.952Z</time>
      </trkpt>
      <trkpt lat="47.70133" lon="2.1337">
        <ele>149</ele>
        <time>2017-02-05T08:37:53.954Z</time>
      </trkpt>
      <trkpt lat="47.70133" lon="2.1337">
        <ele>149</ele>
        <time>2017-02-05T08:37:54.960Z</time>
      </trkpt>
      <trkpt lat="47.70128" lon="2.13378">
        <ele>150</ele>
        <time>2017-02-05T08:37:55.946Z</time>
      </trkpt>
      <trkpt lat="47.70128" lon="2.13378">
        <ele>150</ele>
        <time>2017-02-05T08:37:56.940Z</time>
      </trkpt>
      <trkpt lat="47.70122" lon="2.13385">
        <ele>150</ele>
        <time>2017-02-05T08:37:57.929Z</time>
      </trkpt>
      <trkpt lat="47.70119" lon="2.13389">
        <ele>150</ele>
        <time>2017-02-05T08:37:58.931Z</time>
      </trkpt>
      <trkpt lat="47.70117" lon="2.13393">
        <ele>151</ele>
        <time>2017-02-05T08:37:59.931Z</time>
      </trkpt>
      <trkpt lat="47.70117" lon="2.13393">
        <ele>151</ele>
        <time>2017-02-05T08:38:00.960Z</time>
      </trkpt>
      <trkpt lat="47.70108" lon="2.13399">
        <ele>150</ele>
        <time>2017-02-05T08:38:01.956Z</time>
      </trkpt>
      <trkpt lat="47.70108" lon="2.13399">
        <ele>150</ele>
        <time>2017-02-05T08:38:02.958Z</time>
      </trkpt>
      <trkpt lat="47.70096" lon="2.13405">
        <ele>149</ele>
        <time>2017-02-05T08:38:03.941Z</time>
      </trkpt>
      <trkpt lat="47.70091" lon="2.13408">
        <ele>148</ele>
        <time>2017-02-05T08:38:04.932Z</time>
      </trkpt>
      <trkpt lat="47.70091" lon="2.13408">
        <ele>148</ele>
        <time>2017-02-05T08:38:05.961Z</time>
      </trkpt>
      <trkpt lat="47.70083" lon="2.13415">
        <ele>148</ele>
        <time>2017-02-05T08:38:06.929Z</time>
      </trkpt>
      <trkpt lat="47.70083" lon="2.13415">
        <ele>148</ele>
        <time>2017-02-05T08:38:07.934Z</time>
      </trkpt>
      <trkpt lat="47.70075" lon="2.13421">
        <ele>148</ele>
        <time>2017-02-05T08:38:08.938Z</time>
      </trkpt>
      <trkpt lat="47.7007" lon="2.13423">
        <ele>148</ele>
        <time>2017-02-05T08:38:09.923Z</time>
      </trkpt>
      <trkpt lat="47.7007" lon="2.13423">
        <ele>148</ele>
        <time>2017-02-05T08:38:10.953Z</time>
      </trkpt>
      <trkpt lat="47.70061" lon="2.13427">
        <ele>147</ele>
        <time>2017-02-05T08:38:11.942Z</time>
      </trkpt>
      <trkpt lat="47.70056" lon="2.13429">
        <ele>147</ele>
        <time>2017-02-05T08:38:12.935Z</time>
      </trkpt>
      <trkpt lat="47.70056" lon="2.13429">
        <ele>147</ele>
        <time>2017-02-05T08:38:13.923Z</time>
      </trkpt>
      <trkpt lat="47.70045" lon="2.13437">
        <ele>145</ele>
        <time>2017-02-05T08:38:14.953Z</time>
      </trkpt>
      <trkpt lat="47.70045" lon="2.13437">
        <ele>145</ele>
        <time>2017-02-05T08:38:15.954Z</time>
      </trkpt>
      <trkpt lat="47.70038" lon="2.13445">
        <ele>144</ele>
        <time>2017-02-05T08:38:16.945Z</time>
      </trkpt>
      <trkpt lat="47.70038" lon="2.13445">
        <ele>144</ele>
        <time>2017-02-05T08:38:17.932Z</time>
      </trkpt>
      <trkpt lat="47.70032" lon="2.1345">
        <ele>143</ele>
        <time>2017-02-05T08:38:18.927Z</time>
      </trkpt>
      <trkpt lat="47.70032" lon="2.1345">
        <ele>143</ele>
        <time>2017-02-05T08:38:19.956Z</time>
      </trkpt>
      <trkpt lat="47.70024" lon="2.13456">
        <ele>142</ele>
        <time>2017-02-05T08:38:20.961Z</time>
      </trkpt>
      <trkpt lat="47.70021" lon="2.1346">
        <ele>142</ele>
        <time>2017-02-05T08:38:21.947Z</time>
      </trkpt>
      <trkpt lat="47.70021" lon="2.1346">
        <ele>142</ele>
        <time>2017-02-05T08:38:22.934Z</time>
      </trkpt>
      <trkpt lat="47.70014" lon="2.13468">
        <ele>141</ele>
        <time>2017-02-05T08:38:23.945Z</time>
      </trkpt>
      <trkpt lat="47.70011" lon="2.13472">
        <ele>141</ele>
        <time>2017-02-05T08:38:24.946Z</time>
      </trkpt>
      <trkpt lat="47.70011" lon="2.13472">
        <ele>141</ele>
        <time>2017-02-05T08:38:25.933Z</time>
      </trkpt>
      <trkpt lat="47.70002" lon="2.1348">
        <ele>141</ele>
        <time>2017-02-05T08:38:26.925Z</time>
      </trkpt>
      <trkpt lat="47.69997" lon="2.13484">
        <ele>140</ele>
        <time>2017-02-05T08:38:27.953Z</time>
      </trkpt>
      <trkpt lat="47.69997" lon="2.13484">
        <ele>140</ele>
        <time>2017-02-05T08:38:28.940Z</time>
      </trkpt>
      <trkpt lat="47.69987" lon="2.13491">
        <ele>139</ele>
        <time>2017-02-05T08:38:29.930Z</time>
      </trkpt>
      <trkpt lat="47.69983" lon="2.13494">
        <ele>139</ele>
        <time>2017-02-05T08:38:30.932Z</time>
      </trkpt>
      <trkpt lat="47.69983" lon="2.13494">
        <ele>139</ele>
        <time>2017-02-05T08:38:31.960Z</time>
      </trkpt>
      <trkpt lat="47.69973" lon="2.13498">
        <ele>138</ele>
        <time>2017-02-05T08:38:32.934Z</time>
      </trkpt>
      <trkpt lat="47.69973" lon="2.13498">
        <ele>138</ele>
        <time>2017-02-05T08:38:33.922Z</time>
      </trkpt>
      <trkpt lat="47.69964" lon="2.13502">
        <ele>137</ele>
        <time>2017-02-05T08:38:34.953Z</time>
      </trkpt>
      <trkpt lat="47.69964" lon="2.13502">
        <ele>137</ele>
        <time>2017-02-05T08:38:35.942Z</time>
      </trkpt>
      <trkpt lat="47.69955" lon="2.13505">
        <ele>136</ele>
        <time>2017-02-05T08:38:36.931Z</time>
      </trkpt>
      <trkpt lat="47.69951" lon="2.13506">
        <ele>135</ele>
        <time>2017-02-05T08:38:37.930Z</time>
      </trkpt>
      <trkpt lat="47.69951" lon="2.13506">
        <ele>135</ele>
        <time>2017-02-05T08:38:38.958Z</time>
      </trkpt>
      <trkpt lat="47.69942" lon="2.13509">
        <ele>134</ele>
        <time>2017-02-05T08:38:39.941Z</time>
      </trkpt>
      <trkpt lat="47.69942" lon="2.13509">
        <ele>134</ele>
        <time>2017-02-05T08:38:40.929Z</time>
      </trkpt>
      <trkpt lat="47.69934" lon="2.13511">
        <ele>133</ele>
        <time>2017-02-05T08:38:41.930Z</time>
      </trkpt>
      <trkpt lat="47.6993" lon="2.13513">
        <ele>133</ele>
        <time>2017-02-05T08:38:42.929Z</time>
      </trkpt>
      <trkpt lat="47.6993" lon="2.13513">
        <ele>133</ele>
        <time>2017-02-05T08:38:43.956Z</time>
      </trkpt>
      <trkpt lat="47.69921" lon="2.13516">
        <ele>132</ele>
        <time>2017-02-05T08:38:44.927Z</time>
      </trkpt>
      <trkpt lat="47.69918" lon="2.13517">
        <ele>131</ele>
        <time>2017-02-05T08:38:45.925Z</time>
      </trkpt>
      <trkpt lat="47.69918" lon="2.13517">
        <ele>131</ele>
        <time>2017-02-05T08:38:46.958Z</time>
      </trkpt>
      <trkpt lat="47.6991" lon="2.13521">
        <ele>131</ele>
        <time>2017-02-05T08:38:47.940Z</time>
      </trkpt>
      <trkpt lat="47.69906" lon="2.13522">
        <ele>131</ele>
        <time>2017-02-05T08:38:48.935Z</time>
      </trkpt>
      <trkpt lat="47.69906" lon="2.13522">
        <ele>131</ele>
        <time>2017-02-05T08:38:49.923Z</time>
      </trkpt>
      <trkpt lat="47.69898" lon="2.13526">
        <ele>130</ele>
        <time>2017-02-05T08:38:50.939Z</time>
      </trkpt>
      <trkpt lat="47.69893" lon="2.13527">
        <ele>130</ele>
        <time>2017-02-05T08:38:51.938Z</time>
      </trkpt>
      <trkpt lat="47.69893" lon="2.13527">
        <ele>130</ele>
        <time>2017-02-05T08:38:52.926Z</time>
      </trkpt>
      <trkpt lat="47.69884" lon="2.13529">
        <ele>130</ele>
        <time>2017-02-05T08:38:53.962Z</time>
      </trkpt>
      <trkpt lat="47.69884" lon="2.13529">
        <ele>130</ele>
        <time>2017-02-05T08:38:54.928Z</time>
      </trkpt>
      <trkpt lat="47.69874" lon="2.13532">
        <ele>129</ele>
        <time>2017-02-05T08:38:55.954Z</time>
      </trkpt>
      <trkpt lat="47.69874" lon="2.13532">
        <ele>129</ele>
        <time>2017-02-05T08:38:56.960Z</time>
      </trkpt>
      <trkpt lat="47.69862" lon="2.13533">
        <ele>128</ele>
        <time>2017-02-05T08:38:57.927Z</time>
      </trkpt>
      <trkpt lat="47.69862" lon="2.13533">
        <ele>128</ele>
        <time>2017-02-05T08:38:58.956Z</time>
      </trkpt>
      <trkpt lat="47.69851" lon="2.13534">
        <ele>127</ele>
        <time>2017-02-05T08:38:59.960Z</time>
      </trkpt>
      <trkpt lat="47.69845" lon="2.13535">
        <ele>127</ele>
        <time>2017-02-05T08:39:00.928Z</time>
      </trkpt>
      <trkpt lat="47.69845" lon="2.13535">
        <ele>127</ele>
        <time>2017-02-05T08:39:01.960Z</time>
      </trkpt>
      <trkpt lat="47.69833" lon="2.13537">
        <ele>126</ele>
        <time>2017-02-05T08:39:02.930Z</time>
      </trkpt>
      <trkpt lat="47.69833" lon="2.13537">
        <ele>126</ele>
        <time>2017-02-05T08:39:03.959Z</time>
      </trkpt>
      <trkpt lat="47.69821" lon="2.13539">
        <ele>125</ele>
        <time>2017-02-05T08:39:04.927Z</time>
      </trkpt>
      <trkpt lat="47.69821" lon="2.13539">
        <ele>125</ele>
        <time>2017-02-05T08:39:05.957Z</time>
      </trkpt>
      <trkpt lat="47.69809" lon="2.13541">
        <ele>124</ele>
        <time>2017-02-05T08:39:06.937Z</time>
      </trkpt>
      <trkpt lat="47.69809" lon="2.13541">
        <ele>124</ele>
        <time>2017-02-05T08:39:07.953Z</time>
      </trkpt>
      <trkpt lat="47.69797" lon="2.13542">
        <ele>124</ele>
        <time>2017-02-05T08:39:08.939Z</time>
      </trkpt>
      <trkpt lat="47.69797" lon="2.13542">
        <ele>124</ele>
        <time>2017-02-05T08:39:09.927Z</time>
      </trkpt>
      <trkpt lat="47.69787" lon="2.13544">
        <ele>124</ele>
        <time>2017-02-05T08:39:10.925Z</time>
      </trkpt>
      <trkpt lat="47.69787" lon="2.13544">
        <ele>124</ele>
        <time>2017-02-05T08:39:11.957Z</time>
      </trkpt>
      <trkpt lat="47.69778" lon="2.13546">
        <ele>124</ele>
        <time>2017-02-05T08:39:12.935Z</time>
      </trkpt>
      <trkpt lat="47.69778" lon="2.13546">
        <ele>124</ele>
        <time>2017-02-05T08:39:13.923Z</time>
      </trkpt>
      <trkpt lat="47.6977" lon="2.13548">
        <ele>124</ele>
        <time>2017-02-05T08:39:14.953Z</time>
      </trkpt>
      <trkpt lat="47.6977" lon="2.13548">
        <ele>124</ele>
        <time>2017-02-05T08:39:15.954Z</time>
      </trkpt>
      <trkpt lat="47.69756" lon="2.13548">
        <ele>124</ele>
        <time>2017-02-05T08:39:16.944Z</time>
      </trkpt>
      <trkpt lat="47.69756" lon="2.13548">
        <ele>124</ele>
        <time>2017-02-05T08:39:17.933Z</time>
      </trkpt>
      <trkpt lat="47.69743" lon="2.1355">
        <ele>124</ele>
        <time>2017-02-05T08:39:18.928Z</time>
      </trkpt>
      <trkpt lat="47.69743" lon="2.1355">
        <ele>124</ele>
        <time>2017-02-05T08:39:19.960Z</time>
      </trkpt>
      <trkpt lat="47.69732" lon="2.13553">
        <ele>124</ele>
        <time>2017-02-05T08:39:20.962Z</time>
      </trkpt>
      <trkpt lat="47.69732" lon="2.13553">
        <ele>124</ele>
        <time>2017-02-05T08:39:21.936Z</time>
      </trkpt>
      <trkpt lat="47.69721" lon="2.13557">
        <ele>124</ele>
        <time>2017-02-05T08:39:22.934Z</time>
      </trkpt>
      <trkpt lat="47.69721" lon="2.13557">
        <ele>124</ele>
        <time>2017-02-05T08:39:23.962Z</time>
      </trkpt>
      <trkpt lat="47.6971" lon="2.13563">
        <ele>124</ele>
        <time>2017-02-05T08:39:24.934Z</time>
      </trkpt>
      <trkpt lat="47.6971" lon="2.13563">
        <ele>124</ele>
        <time>2017-02-05T08:39:25.961Z</time>
      </trkpt>
      <trkpt lat="47.69701" lon="2.13568">
        <ele>124</ele>
        <time>2017-02-05T08:39:26.935Z</time>
      </trkpt>
      <trkpt lat="47.69701" lon="2.13568">
        <ele>124</ele>
        <time>2017-02-05T08:39:27.922Z</time>
      </trkpt>
      <trkpt lat="47.6969" lon="2.13574">
        <ele>125</ele>
        <time>2017-02-05T08:39:28.953Z</time>
      </trkpt>
      <trkpt lat="47.6969" lon="2.13574">
        <ele>125</ele>
        <time>2017-02-05T08:39:29.930Z</time>
      </trkpt>
      <trkpt lat="47.69679" lon="2.13581">
        <ele>125</ele>
        <time>2017-02-05T08:39:30.960Z</time>
      </trkpt>
      <trkpt lat="47.69673" lon="2.13585">
        <ele>125</ele>
        <time>2017-02-05T08:39:31.928Z</time>
      </trkpt>
      <trkpt lat="47.69673" lon="2.13585">
        <ele>125</ele>
        <time>2017-02-05T08:39:32.961Z</time>
      </trkpt>
      <trkpt lat="47.69663" lon="2.13592">
        <ele>125</ele>
        <time>2017-02-05T08:39:33.931Z</time>
      </trkpt>
      <trkpt lat="47.69658" lon="2.13596">
        <ele>125</ele>
        <time>2017-02-05T08:39:34.923Z</time>
      </trkpt>
      <trkpt lat="47.69653" lon="2.13599">
        <ele>125</ele>
        <time>2017-02-05T08:39:35.925Z</time>
      </trkpt>
      <trkpt lat="47.69653" lon="2.13599">
        <ele>125</ele>
        <time>2017-02-05T08:39:36.954Z</time>
      </trkpt>
      <trkpt lat="47.69643" lon="2.13606">
        <ele>125</ele>
        <time>2017-02-05T08:39:37.943Z</time>
      </trkpt>
      <trkpt lat="47.69643" lon="2.13606">
        <ele>125</ele>
        <time>2017-02-05T08:39:38.930Z</time>
      </trkpt>
      <trkpt lat="47.69633" lon="2.13612">
        <ele>125</ele>
        <time>2017-02-05T08:39:39.961Z</time>
      </trkpt>
      <trkpt lat="47.69633" lon="2.13612">
        <ele>125</ele>
        <time>2017-02-05T08:39:40.941Z</time>
      </trkpt>
      <trkpt lat="47.69623" lon="2.13618">
        <ele>126</ele>
        <time>2017-02-05T08:39:41.939Z</time>
      </trkpt>
      <trkpt lat="47.69623" lon="2.13618">
        <ele>126</ele>
        <time>2017-02-05T08:39:42.928Z</time>
      </trkpt>
      <trkpt lat="47.69613" lon="2.13624">
        <ele>126</ele>
        <time>2017-02-05T08:39:43.960Z</time>
      </trkpt>
      <trkpt lat="47.69613" lon="2.13624">
        <ele>126</ele>
        <time>2017-02-05T08:39:44.926Z</time>
      </trkpt>
      <trkpt lat="47.69605" lon="2.13631">
        <ele>126</ele>
        <time>2017-02-05T08:39:45.931Z</time>
      </trkpt>
      <trkpt lat="47.696" lon="2.13634">
        <ele>127</ele>
        <time>2017-02-05T08:39:46.932Z</time>
      </trkpt>
      <trkpt lat="47.696" lon="2.13634">
        <ele>127</ele>
        <time>2017-02-05T08:39:47.960Z</time>
      </trkpt>
      <trkpt lat="47.69591" lon="2.1364">
        <ele>127</ele>
        <time>2017-02-05T08:39:48.958Z</time>
      </trkpt>
      <trkpt lat="47.69591" lon="2.1364">
        <ele>127</ele>
        <time>2017-02-05T08:39:49.922Z</time>
      </trkpt>
      <trkpt lat="47.69581" lon="2.13645">
        <ele>127</ele>
        <time>2017-02-05T08:39:50.947Z</time>
      </trkpt>
      <trkpt lat="47.69581" lon="2.13645">
        <ele>127</ele>
        <time>2017-02-05T08:39:51.934Z</time>
      </trkpt>
      <trkpt lat="47.6957" lon="2.1365">
        <ele>128</ele>
        <time>2017-02-05T08:39:52.934Z</time>
      </trkpt>
      <trkpt lat="47.6957" lon="2.1365">
        <ele>128</ele>
        <time>2017-02-05T08:39:53.961Z</time>
      </trkpt>
      <trkpt lat="47.69561" lon="2.13655">
        <ele>128</ele>
        <time>2017-02-05T08:39:54.934Z</time>
      </trkpt>
      <trkpt lat="47.69561" lon="2.13655">
        <ele>128</ele>
        <time>2017-02-05T08:39:55.922Z</time>
      </trkpt>
      <trkpt lat="47.69552" lon="2.1366">
        <ele>128</ele>
        <time>2017-02-05T08:39:56.956Z</time>
      </trkpt>
      <trkpt lat="47.69552" lon="2.1366">
        <ele>128</ele>
        <time>2017-02-05T08:39:57.958Z</time>
      </trkpt>
      <trkpt lat="47.69543" lon="2.13665">
        <ele>129</ele>
        <time>2017-02-05T08:39:58.941Z</time>
      </trkpt>
      <trkpt lat="47.69543" lon="2.13665">
        <ele>129</ele>
        <time>2017-02-05T08:39:59.930Z</time>
      </trkpt>
      <trkpt lat="47.69535" lon="2.13671">
        <ele>129</ele>
        <time>2017-02-05T08:40:00.954Z</time>
      </trkpt>
      <trkpt lat="47.6953" lon="2.13673">
        <ele>129</ele>
        <time>2017-02-05T08:40:01.943Z</time>
      </trkpt>
      <trkpt lat="47.69525" lon="2.13675">
        <ele>129</ele>
        <time>2017-02-05T08:40:02.942Z</time>
      </trkpt>
      <trkpt lat="47.69525" lon="2.13675">
        <ele>129</ele>
        <time>2017-02-05T08:40:03.930Z</time>
      </trkpt>
      <trkpt lat="47.69515" lon="2.1368">
        <ele>129</ele>
        <time>2017-02-05T08:40:04.922Z</time>
      </trkpt>
      <trkpt lat="47.69515" lon="2.1368">
        <ele>129</ele>
        <time>2017-02-05T08:40:05.954Z</time>
      </trkpt>
      <trkpt lat="47.69505" lon="2.13684">
        <ele>130</ele>
        <time>2017-02-05T08:40:06.943Z</time>
      </trkpt>
      <trkpt lat="47.69505" lon="2.13684">
        <ele>130</ele>
        <time>2017-02-05T08:40:07.936Z</time>
      </trkpt>
      <trkpt lat="47.69495" lon="2.13689">
        <ele>129</ele>
        <time>2017-02-05T08:40:08.934Z</time>
      </trkpt>
      <trkpt lat="47.6949" lon="2.13691">
        <ele>130</ele>
        <time>2017-02-05T08:40:09.946Z</time>
      </trkpt>
      <trkpt lat="47.69486" lon="2.13694">
        <ele>129</ele>
        <time>2017-02-05T08:40:10.944Z</time>
      </trkpt>
      <trkpt lat="47.69486" lon="2.13694">
        <ele>129</ele>
        <time>2017-02-05T08:40:11.957Z</time>
      </trkpt>
      <trkpt lat="47.69476" lon="2.13698">
        <ele>130</ele>
        <time>2017-02-05T08:40:12.936Z</time>
      </trkpt>
      <trkpt lat="47.69476" lon="2.13698">
        <ele>130</ele>
        <time>2017-02-05T08:40:13.924Z</time>
      </trkpt>
      <trkpt lat="47.69466" lon="2.13701">
        <ele>130</ele>
        <time>2017-02-05T08:40:14.959Z</time>
      </trkpt>
      <trkpt lat="47.69461" lon="2.13703">
        <ele>129</ele>
        <time>2017-02-05T08:40:15.953Z</time>
      </trkpt>
      <trkpt lat="47.69457" lon="2.13705">
        <ele>129</ele>
        <time>2017-02-05T08:40:16.944Z</time>
      </trkpt>
      <trkpt lat="47.69457" lon="2.13705">
        <ele>129</ele>
        <time>2017-02-05T08:40:17.935Z</time>
      </trkpt>
      <trkpt lat="47.69446" lon="2.1371">
        <ele>129</ele>
        <time>2017-02-05T08:40:18.923Z</time>
      </trkpt>
      <trkpt lat="47.69446" lon="2.1371">
        <ele>129</ele>
        <time>2017-02-05T08:40:19.962Z</time>
      </trkpt>
      <trkpt lat="47.69437" lon="2.13716">
        <ele>129</ele>
        <time>2017-02-05T08:40:20.934Z</time>
      </trkpt>
      <trkpt lat="47.69437" lon="2.13716">
        <ele>129</ele>
        <time>2017-02-05T08:40:21.923Z</time>
      </trkpt>
      <trkpt lat="47.69427" lon="2.13721">
        <ele>129</ele>
        <time>2017-02-05T08:40:22.923Z</time>
      </trkpt>
      <trkpt lat="47.69422" lon="2.13723">
        <ele>129</ele>
        <time>2017-02-05T08:40:23.954Z</time>
      </trkpt>
      <trkpt lat="47.69422" lon="2.13723">
        <ele>129</ele>
        <time>2017-02-05T08:40:24.942Z</time>
      </trkpt>
      <trkpt lat="47.69412" lon="2.13727">
        <ele>129</ele>
        <time>2017-02-05T08:40:25.953Z</time>
      </trkpt>
      <trkpt lat="47.69412" lon="2.13727">
        <ele>129</ele>
        <time>2017-02-05T08:40:26.941Z</time>
      </trkpt>
      <trkpt lat="47.69403" lon="2.13731">
        <ele>129</ele>
        <time>2017-02-05T08:40:27.931Z</time>
      </trkpt>
      <trkpt lat="47.69398" lon="2.13732">
        <ele>129</ele>
        <time>2017-02-05T08:40:28.933Z</time>
      </trkpt>
      <trkpt lat="47.69398" lon="2.13732">
        <ele>129</ele>
        <time>2017-02-05T08:40:29.961Z</time>
      </trkpt>
      <trkpt lat="47.69389" lon="2.13735">
        <ele>129</ele>
        <time>2017-02-05T08:40:30.926Z</time>
      </trkpt>
      <trkpt lat="47.69384" lon="2.13737">
        <ele>129</ele>
        <time>2017-02-05T08:40:31.955Z</time>
      </trkpt>
      <trkpt lat="47.69384" lon="2.13737">
        <ele>129</ele>
        <time>2017-02-05T08:40:32.960Z</time>
      </trkpt>
      <trkpt lat="47.69376" lon="2.1374">
        <ele>129</ele>
        <time>2017-02-05T08:40:33.927Z</time>
      </trkpt>
      <trkpt lat="47.69372" lon="2.13742">
        <ele>129</ele>
        <time>2017-02-05T08:40:34.928Z</time>
      </trkpt>
      <trkpt lat="47.69367" lon="2.13744">
        <ele>129</ele>
        <time>2017-02-05T08:40:35.957Z</time>
      </trkpt>
      <trkpt lat="47.69367" lon="2.13744">
        <ele>129</ele>
        <time>2017-02-05T08:40:36.924Z</time>
      </trkpt>
      <trkpt lat="47.69357" lon="2.13748">
        <ele>129</ele>
        <time>2017-02-05T08:40:37.953Z</time>
      </trkpt>
      <trkpt lat="47.69357" lon="2.13748">
        <ele>129</ele>
        <time>2017-02-05T08:40:38.944Z</time>
      </trkpt>
      <trkpt lat="47.69348" lon="2.13751">
        <ele>129</ele>
        <time>2017-02-05T08:40:39.932Z</time>
      </trkpt>
      <trkpt lat="47.69344" lon="2.13754">
        <ele>128</ele>
        <time>2017-02-05T08:40:40.937Z</time>
      </trkpt>
      <trkpt lat="47.69344" lon="2.13754">
        <ele>128</ele>
        <time>2017-02-05T08:40:41.925Z</time>
      </trkpt>
      <trkpt lat="47.69335" lon="2.13758">
        <ele>128</ele>
        <time>2017-02-05T08:40:42.922Z</time>
      </trkpt>
      <trkpt lat="47.69335" lon="2.13758">
        <ele>128</ele>
        <time>2017-02-05T08:40:43.953Z</time>
      </trkpt>
      <trkpt lat="47.69326" lon="2.13763">
        <ele>128</ele>
        <time>2017-02-05T08:40:44.953Z</time>
      </trkpt>
      <trkpt lat="47.69322" lon="2.13764">
        <ele>128</ele>
        <time>2017-02-05T08:40:45.946Z</time>
      </trkpt>
      <trkpt lat="47.69317" lon="2.13766">
        <ele>128</ele>
        <time>2017-02-05T08:40:46.933Z</time>
      </trkpt>
      <trkpt lat="47.69317" lon="2.13766">
        <ele>128</ele>
        <time>2017-02-05T08:40:47.929Z</time>
      </trkpt>
      <trkpt lat="47.69309" lon="2.1377">
        <ele>128</ele>
        <time>2017-02-05T08:40:48.931Z</time>
      </trkpt>
      <trkpt lat="47.69309" lon="2.1377">
        <ele>128</ele>
        <time>2017-02-05T08:40:49.930Z</time>
      </trkpt>
      <trkpt lat="47.69301" lon="2.13773">
        <ele>128</ele>
        <time>2017-02-05T08:40:50.926Z</time>
      </trkpt>
      <trkpt lat="47.69296" lon="2.13775">
        <ele>128</ele>
        <time>2017-02-05T08:40:51.929Z</time>
      </trkpt>
      <trkpt lat="47.69296" lon="2.13775">
        <ele>128</ele>
        <time>2017-02-05T08:40:52.959Z</time>
      </trkpt>
      <trkpt lat="47.69289" lon="2.13778">
        <ele>128</ele>
        <time>2017-02-05T08:40:53.943Z</time>
      </trkpt>
      <trkpt lat="47.69285" lon="2.1378">
        <ele>128</ele>
        <time>2017-02-05T08:40:54.934Z</time>
      </trkpt>
      <trkpt lat="47.69285" lon="2.1378">
        <ele>128</ele>
        <time>2017-02-05T08:40:55.923Z</time>
      </trkpt>
      <trkpt lat="47.69277" lon="2.13783">
        <ele>128</ele>
        <time>2017-02-05T08:40:56.930Z</time>
      </trkpt>
      <trkpt lat="47.69277" lon="2.13783">
        <ele>128</ele>
        <time>2017-02-05T08:40:57.959Z</time>
      </trkpt>
      <trkpt lat="47.69268" lon="2.13786">
        <ele>127</ele>
        <time>2017-02-05T08:40:58.940Z</time>
      </trkpt>
      <trkpt lat="47.69268" lon="2.13786">
        <ele>127</ele>
        <time>2017-02-05T08:40:59.928Z</time>
      </trkpt>
      <trkpt lat="47.69261" lon="2.1379">
        <ele>127</ele>
        <time>2017-02-05T08:41:00.922Z</time>
      </trkpt>
      <trkpt lat="47.69257" lon="2.13791">
        <ele>127</ele>
        <time>2017-02-05T08:41:01.954Z</time>
      </trkpt>
      <trkpt lat="47.69257" lon="2.13791">
        <ele>127</ele>
        <time>2017-02-05T08:41:02.941Z</time>
      </trkpt>
      <trkpt lat="47.6925" lon="2.13795">
        <ele>127</ele>
        <time>2017-02-05T08:41:03.935Z</time>
      </trkpt>
      <trkpt lat="47.69247" lon="2.13796">
        <ele>127</ele>
        <time>2017-02-05T08:41:04.935Z</time>
      </trkpt>
      <trkpt lat="47.69247" lon="2.13796">
        <ele>127</ele>
        <time>2017-02-05T08:41:05.923Z</time>
      </trkpt>
      <trkpt lat="47.69244" lon="2.13798">
        <ele>126</ele>
        <time>2017-02-05T08:41:06.960Z</time>
      </trkpt>
      <trkpt lat="47.69244" lon="2.13799">
        <ele>126</ele>
        <time>2017-02-05T08:41:07.934Z</time>
      </trkpt>
      <trkpt lat="47.69244" lon="2.13799">
        <ele>126</ele>
        <time>2017-02-05T08:41:08.954Z</time>
      </trkpt>
      <trkpt lat="47.69243" lon="2.13799">
        <ele>126</ele>
        <time>2017-02-05T08:41:09.952Z</time>
      </trkpt>
      <trkpt lat="47.69243" lon="2.13799">
        <ele>126</ele>
        <time>2017-02-05T08:41:10.976Z</time>
      </trkpt>
      <trkpt lat="47.69232" lon="2.13802">
        <ele>125</ele>
        <time>2017-02-05T08:41:11.925Z</time>
      </trkpt>
      <trkpt lat="47.6923" lon="2.13804">
        <ele>125</ele>
        <time>2017-02-05T08:41:12.974Z</time>
      </trkpt>
      <trkpt lat="47.6923" lon="2.13804">
        <ele>125</ele>
        <time>2017-02-05T08:41:13.977Z</time>
      </trkpt>
      <trkpt lat="47.69227" lon="2.13807">
        <ele>125</ele>
        <time>2017-02-05T08:41:14.924Z</time>
      </trkpt>
      <trkpt lat="47.69227" lon="2.13807">
        <ele>125</ele>
        <time>2017-02-05T08:41:15.952Z</time>
      </trkpt>
      <trkpt lat="47.69222" lon="2.1381">
        <ele>125</ele>
        <time>2017-02-05T08:41:16.925Z</time>
      </trkpt>
      <trkpt lat="47.69222" lon="2.1381">
        <ele>125</ele>
        <time>2017-02-05T08:41:17.952Z</time>
      </trkpt>
      <trkpt lat="47.69218" lon="2.13814">
        <ele>125</ele>
        <time>2017-02-05T08:41:18.970Z</time>
      </trkpt>
      <trkpt lat="47.69218" lon="2.13814">
        <ele>125</ele>
        <time>2017-02-05T08:41:19.975Z</time>
      </trkpt>
      <trkpt lat="47.69212" lon="2.13819">
        <ele>125</ele>
        <time>2017-02-05T08:41:20.949Z</time>
      </trkpt>
      <trkpt lat="47.69212" lon="2.13819">
        <ele>125</ele>
        <time>2017-02-05T08:41:21.938Z</time>
      </trkpt>
      <trkpt lat="47.69204" lon="2.13824">
        <ele>125</ele>
        <time>2017-02-05T08:41:22.970Z</time>
      </trkpt>
      <trkpt lat="47.69204" lon="2.13824">
        <ele>125</ele>
        <time>2017-02-05T08:41:23.977Z</time>
      </trkpt>
      <trkpt lat="47.69197" lon="2.13829">
        <ele>125</ele>
        <time>2017-02-05T08:41:24.926Z</time>
      </trkpt>
      <trkpt lat="47.69197" lon="2.13829">
        <ele>125</ele>
        <time>2017-02-05T08:41:25.941Z</time>
      </trkpt>
      <trkpt lat="47.69191" lon="2.13834">
        <ele>125</ele>
        <time>2017-02-05T08:41:26.951Z</time>
      </trkpt>
      <trkpt lat="47.69191" lon="2.13834">
        <ele>125</ele>
        <time>2017-02-05T08:41:27.928Z</time>
      </trkpt>
      <trkpt lat="47.69183" lon="2.13839">
        <ele>125</ele>
        <time>2017-02-05T08:41:28.946Z</time>
      </trkpt>
      <trkpt lat="47.69183" lon="2.13839">
        <ele>125</ele>
        <time>2017-02-05T08:41:29.945Z</time>
      </trkpt>
      <trkpt lat="47.69175" lon="2.13844">
        <ele>125</ele>
        <time>2017-02-05T08:41:30.947Z</time>
      </trkpt>
      <trkpt lat="47.69175" lon="2.13844">
        <ele>125</ele>
        <time>2017-02-05T08:41:31.977Z</time>
      </trkpt>
      <trkpt lat="47.69167" lon="2.13849">
        <ele>125</ele>
        <time>2017-02-05T08:41:32.924Z</time>
      </trkpt>
      <trkpt lat="47.69167" lon="2.13849">
        <ele>125</ele>
        <time>2017-02-05T08:41:33.977Z</time>
      </trkpt>
      <trkpt lat="47.69158" lon="2.13854">
        <ele>125</ele>
        <time>2017-02-05T08:41:34.926Z</time>
      </trkpt>
      <trkpt lat="47.69158" lon="2.13854">
        <ele>125</ele>
        <time>2017-02-05T08:41:35.976Z</time>
      </trkpt>
      <trkpt lat="47.6915" lon="2.1386">
        <ele>125</ele>
        <time>2017-02-05T08:41:36.926Z</time>
      </trkpt>
      <trkpt lat="47.6915" lon="2.1386">
        <ele>125</ele>
        <time>2017-02-05T08:41:37.977Z</time>
      </trkpt>
      <trkpt lat="47.69141" lon="2.13866">
        <ele>126</ele>
        <time>2017-02-05T08:41:38.925Z</time>
      </trkpt>
      <trkpt lat="47.69141" lon="2.13866">
        <ele>126</ele>
        <time>2017-02-05T08:41:39.978Z</time>
      </trkpt>
      <trkpt lat="47.69132" lon="2.13871">
        <ele>126</ele>
        <time>2017-02-05T08:41:40.952Z</time>
      </trkpt>
      <trkpt lat="47.69128" lon="2.13875">
        <ele>126</ele>
        <time>2017-02-05T08:41:41.950Z</time>
      </trkpt>
      <trkpt lat="47.69123" lon="2.13878">
        <ele>126</ele>
        <time>2017-02-05T08:41:42.928Z</time>
      </trkpt>
      <trkpt lat="47.69123" lon="2.13878">
        <ele>126</ele>
        <time>2017-02-05T08:41:43.929Z</time>
      </trkpt>
      <trkpt lat="47.69113" lon="2.13886">
        <ele>126</ele>
        <time>2017-02-05T08:41:44.949Z</time>
      </trkpt>
      <trkpt lat="47.69108" lon="2.13889">
        <ele>126</ele>
        <time>2017-02-05T08:41:45.936Z</time>
      </trkpt>
      <trkpt lat="47.69108" lon="2.13889">
        <ele>126</ele>
        <time>2017-02-05T08:41:46.945Z</time>
      </trkpt>
      <trkpt lat="47.69098" lon="2.13895">
        <ele>126</ele>
        <time>2017-02-05T08:41:47.947Z</time>
      </trkpt>
      <trkpt lat="47.69094" lon="2.13897">
        <ele>126</ele>
        <time>2017-02-05T08:41:48.950Z</time>
      </trkpt>
      <trkpt lat="47.69094" lon="2.13897">
        <ele>126</ele>
        <time>2017-02-05T08:41:49.956Z</time>
      </trkpt>
      <trkpt lat="47.69087" lon="2.13903">
        <ele>126</ele>
        <time>2017-02-05T08:41:50.956Z</time>
      </trkpt>
      <trkpt lat="47.69083" lon="2.13905">
        <ele>126</ele>
        <time>2017-02-05T08:41:51.929Z</time>
      </trkpt>
      <trkpt lat="47.69083" lon="2.13905">
        <ele>126</ele>
        <time>2017-02-05T08:41:52.930Z</time>
      </trkpt>
      <trkpt lat="47.69076" lon="2.1391">
        <ele>126</ele>
        <time>2017-02-05T08:41:53.977Z</time>
      </trkpt>
      <trkpt lat="47.69072" lon="2.13912">
        <ele>126</ele>
        <time>2017-02-05T08:41:54.926Z</time>
      </trkpt>
      <trkpt lat="47.69072" lon="2.13912">
        <ele>126</ele>
        <time>2017-02-05T08:41:55.927Z</time>
      </trkpt>
      <trkpt lat="47.69065" lon="2.13917">
        <ele>127</ele>
        <time>2017-02-05T08:41:56.932Z</time>
      </trkpt>
      <trkpt lat="47.69065" lon="2.13917">
        <ele>127</ele>
        <time>2017-02-05T08:41:57.933Z</time>
      </trkpt>
      <trkpt lat="47.69057" lon="2.13922">
        <ele>127</ele>
        <time>2017-02-05T08:41:58.944Z</time>
      </trkpt>
      <trkpt lat="47.69057" lon="2.13922">
        <ele>127</ele>
        <time>2017-02-05T08:41:59.977Z</time>
      </trkpt>
      <trkpt lat="47.6905" lon="2.13927">
        <ele>127</ele>
        <time>2017-02-05T08:42:00.926Z</time>
      </trkpt>
      <trkpt lat="47.6905" lon="2.13927">
        <ele>127</ele>
        <time>2017-02-05T08:42:01.976Z</time>
      </trkpt>
      <trkpt lat="47.69043" lon="2.1393">
        <ele>128</ele>
        <time>2017-02-05T08:42:02.925Z</time>
      </trkpt>
      <trkpt lat="47.69043" lon="2.1393">
        <ele>128</ele>
        <time>2017-02-05T08:42:03.923Z</time>
      </trkpt>
      <trkpt lat="47.69036" lon="2.13934">
        <ele>128</ele>
        <time>2017-02-05T08:42:04.974Z</time>
      </trkpt>
      <trkpt lat="47.69028" lon="2.13937">
        <ele>128</ele>
        <time>2017-02-05T08:42:05.977Z</time>
      </trkpt>
      <trkpt lat="47.69028" lon="2.13937">
        <ele>128</ele>
        <time>2017-02-05T08:42:06.930Z</time>
      </trkpt>
      <trkpt lat="47.69028" lon="2.13937">
        <ele>128</ele>
        <time>2017-02-05T08:42:07.951Z</time>
      </trkpt>
      <trkpt lat="47.69022" lon="2.13942">
        <ele>128</ele>
        <time>2017-02-05T08:42:08.925Z</time>
      </trkpt>
      <trkpt lat="47.69018" lon="2.13945">
        <ele>129</ele>
        <time>2017-02-05T08:42:09.925Z</time>
      </trkpt>
      <trkpt lat="47.69018" lon="2.13945">
        <ele>129</ele>
        <time>2017-02-05T08:42:10.955Z</time>
      </trkpt>
      <trkpt lat="47.69011" lon="2.1395">
        <ele>129</ele>
        <time>2017-02-05T08:42:11.952Z</time>
      </trkpt>
      <trkpt lat="47.69006" lon="2.13953">
        <ele>129</ele>
        <time>2017-02-05T08:42:12.926Z</time>
      </trkpt>
      <trkpt lat="47.69006" lon="2.13953">
        <ele>129</ele>
        <time>2017-02-05T08:42:13.977Z</time>
      </trkpt>
      <trkpt lat="47.68997" lon="2.13958">
        <ele>129</ele>
        <time>2017-02-05T08:42:14.929Z</time>
      </trkpt>
      <trkpt lat="47.68997" lon="2.13958">
        <ele>129</ele>
        <time>2017-02-05T08:42:15.930Z</time>
      </trkpt>
      <trkpt lat="47.68988" lon="2.13963">
        <ele>129</ele>
        <time>2017-02-05T08:42:16.947Z</time>
      </trkpt>
      <trkpt lat="47.68988" lon="2.13963">
        <ele>129</ele>
        <time>2017-02-05T08:42:17.977Z</time>
      </trkpt>
      <trkpt lat="47.6898" lon="2.13969">
        <ele>130</ele>
        <time>2017-02-05T08:42:18.930Z</time>
      </trkpt>
      <trkpt lat="47.6898" lon="2.13969">
        <ele>130</ele>
        <time>2017-02-05T08:42:19.932Z</time>
      </trkpt>
      <trkpt lat="47.68972" lon="2.13974">
        <ele>130</ele>
        <time>2017-02-05T08:42:20.955Z</time>
      </trkpt>
      <trkpt lat="47.68967" lon="2.13976">
        <ele>130</ele>
        <time>2017-02-05T08:42:21.942Z</time>
      </trkpt>
      <trkpt lat="47.68967" lon="2.13976">
        <ele>130</ele>
        <time>2017-02-05T08:42:22.976Z</time>
      </trkpt>
      <trkpt lat="47.68958" lon="2.1398">
        <ele>130</ele>
        <time>2017-02-05T08:42:23.925Z</time>
      </trkpt>
      <trkpt lat="47.68958" lon="2.1398">
        <ele>130</ele>
        <time>2017-02-05T08:42:24.973Z</time>
      </trkpt>
      <trkpt lat="47.68951" lon="2.13984">
        <ele>130</ele>
        <time>2017-02-05T08:42:25.925Z</time>
      </trkpt>
      <trkpt lat="47.68951" lon="2.13984">
        <ele>130</ele>
        <time>2017-02-05T08:42:26.976Z</time>
      </trkpt>
      <trkpt lat="47.68942" lon="2.13988">
        <ele>130</ele>
        <time>2017-02-05T08:42:27.928Z</time>
      </trkpt>
      <trkpt lat="47.68938" lon="2.1399">
        <ele>130</ele>
        <time>2017-02-05T08:42:28.974Z</time>
      </trkpt>
      <trkpt lat="47.68938" lon="2.1399">
        <ele>130</ele>
        <time>2017-02-05T08:42:29.977Z</time>
      </trkpt>
      <trkpt lat="47.68929" lon="2.13995">
        <ele>131</ele>
        <time>2017-02-05T08:42:30.928Z</time>
      </trkpt>
      <trkpt lat="47.68929" lon="2.13995">
        <ele>131</ele>
        <time>2017-02-05T08:42:31.940Z</time>
      </trkpt>
      <trkpt lat="47.68922" lon="2.13998">
        <ele>131</ele>
        <time>2017-02-05T08:42:32.931Z</time>
      </trkpt>
      <trkpt lat="47.68922" lon="2.13998">
        <ele>131</ele>
        <time>2017-02-05T08:42:33.932Z</time>
      </trkpt>
      <trkpt lat="47.68914" lon="2.14">
        <ele>131</ele>
        <time>2017-02-05T08:42:34.943Z</time>
      </trkpt>
      <trkpt lat="47.68914" lon="2.14">
        <ele>131</ele>
        <time>2017-02-05T08:42:35.977Z</time>
      </trkpt>
      <trkpt lat="47.68907" lon="2.14003">
        <ele>131</ele>
        <time>2017-02-05T08:42:36.927Z</time>
      </trkpt>
      <trkpt lat="47.68898" lon="2.14005">
        <ele>131</ele>
        <time>2017-02-05T08:42:37.977Z</time>
      </trkpt>
      <trkpt lat="47.68898" lon="2.14005">
        <ele>131</ele>
        <time>2017-02-05T08:42:38.929Z</time>
      </trkpt>
      <trkpt lat="47.68898" lon="2.14005">
        <ele>131</ele>
        <time>2017-02-05T08:42:39.931Z</time>
      </trkpt>
      <trkpt lat="47.6889" lon="2.14008">
        <ele>131</ele>
        <time>2017-02-05T08:42:40.950Z</time>
      </trkpt>
      <trkpt lat="47.68886" lon="2.1401">
        <ele>131</ele>
        <time>2017-02-05T08:42:41.928Z</time>
      </trkpt>
      <trkpt lat="47.68886" lon="2.1401">
        <ele>131</ele>
        <time>2017-02-05T08:42:42.977Z</time>
      </trkpt>
      <trkpt lat="47.68878" lon="2.14013">
        <ele>131</ele>
        <time>2017-02-05T08:42:43.925Z</time>
      </trkpt>
      <trkpt lat="47.68878" lon="2.14013">
        <ele>131</ele>
        <time>2017-02-05T08:42:44.953Z</time>
      </trkpt>
      <trkpt lat="47.68869" lon="2.14017">
        <ele>131</ele>
        <time>2017-02-05T08:42:45.952Z</time>
      </trkpt>
      <trkpt lat="47.68869" lon="2.14017">
        <ele>131</ele>
        <time>2017-02-05T08:42:46.977Z</time>
      </trkpt>
      <trkpt lat="47.68861" lon="2.14021">
        <ele>131</ele>
        <time>2017-02-05T08:42:47.925Z</time>
      </trkpt>
      <trkpt lat="47.68861" lon="2.14021">
        <ele>131</ele>
        <time>2017-02-05T08:42:48.987Z</time>
      </trkpt>
      <trkpt lat="47.68852" lon="2.14025">
        <ele>131</ele>
        <time>2017-02-05T08:42:49.971Z</time>
      </trkpt>
      <trkpt lat="47.68852" lon="2.14025">
        <ele>131</ele>
        <time>2017-02-05T08:42:50.928Z</time>
      </trkpt>
      <trkpt lat="47.68843" lon="2.14029">
        <ele>131</ele>
        <time>2017-02-05T08:42:51.932Z</time>
      </trkpt>
      <trkpt lat="47.68839" lon="2.14031">
        <ele>131</ele>
        <time>2017-02-05T08:42:52.948Z</time>
      </trkpt>
      <trkpt lat="47.68839" lon="2.14031">
        <ele>131</ele>
        <time>2017-02-05T08:42:53.976Z</time>
      </trkpt>
      <trkpt lat="47.68831" lon="2.14036">
        <ele>130</ele>
        <time>2017-02-05T08:42:54.926Z</time>
      </trkpt>
      <trkpt lat="47.68831" lon="2.14036">
        <ele>130</ele>
        <time>2017-02-05T08:42:55.976Z</time>
      </trkpt>
      <trkpt lat="47.68821" lon="2.14041">
        <ele>130</ele>
        <time>2017-02-05T08:42:56.973Z</time>
      </trkpt>
      <trkpt lat="47.68821" lon="2.14041">
        <ele>130</ele>
        <time>2017-02-05T08:42:57.940Z</time>
      </trkpt>
      <trkpt lat="47.68812" lon="2.14043">
        <ele>130</ele>
        <time>2017-02-05T08:42:58.944Z</time>
      </trkpt>
      <trkpt lat="47.68807" lon="2.14044">
        <ele>130</ele>
        <time>2017-02-05T08:42:59.949Z</time>
      </trkpt>
      <trkpt lat="47.68807" lon="2.14044">
        <ele>130</ele>
        <time>2017-02-05T08:43:00.940Z</time>
      </trkpt>
      <trkpt lat="47.68797" lon="2.14045">
        <ele>129</ele>
        <time>2017-02-05T08:43:01.944Z</time>
      </trkpt>
      <trkpt lat="47.68797" lon="2.14045">
        <ele>129</ele>
        <time>2017-02-05T08:43:02.977Z</time>
      </trkpt>
      <trkpt lat="47.68787" lon="2.14045">
        <ele>129</ele>
        <time>2017-02-05T08:43:03.923Z</time>
      </trkpt>
      <trkpt lat="47.68787" lon="2.14045">
        <ele>129</ele>
        <time>2017-02-05T08:43:04.951Z</time>
      </trkpt>
      <trkpt lat="47.68778" lon="2.14043">
        <ele>129</ele>
        <time>2017-02-05T08:43:05.978Z</time>
      </trkpt>
      <trkpt lat="47.68774" lon="2.14042">
        <ele>128</ele>
        <time>2017-02-05T08:43:06.926Z</time>
      </trkpt>
      <trkpt lat="47.68774" lon="2.14042">
        <ele>128</ele>
        <time>2017-02-05T08:43:07.950Z</time>
      </trkpt>
      <trkpt lat="47.68765" lon="2.14039">
        <ele>128</ele>
        <time>2017-02-05T08:43:08.936Z</time>
      </trkpt>
      <trkpt lat="47.68765" lon="2.14039">
        <ele>128</ele>
        <time>2017-02-05T08:43:09.958Z</time>
      </trkpt>
      <trkpt lat="47.68756" lon="2.14037">
        <ele>128</ele>
        <time>2017-02-05T08:43:10.941Z</time>
      </trkpt>
      <trkpt lat="47.68756" lon="2.14037">
        <ele>128</ele>
        <time>2017-02-05T08:43:11.938Z</time>
      </trkpt>
      <trkpt lat="47.68746" lon="2.14036">
        <ele>128</ele>
        <time>2017-02-05T08:43:12.950Z</time>
      </trkpt>
      <trkpt lat="47.68746" lon="2.14036">
        <ele>128</ele>
        <time>2017-02-05T08:43:13.940Z</time>
      </trkpt>
      <trkpt lat="47.68737" lon="2.14034">
        <ele>129</ele>
        <time>2017-02-05T08:43:14.945Z</time>
      </trkpt>
      <trkpt lat="47.68737" lon="2.14034">
        <ele>129</ele>
        <time>2017-02-05T08:43:15.977Z</time>
      </trkpt>
      <trkpt lat="47.68727" lon="2.14033">
        <ele>129</ele>
        <time>2017-02-05T08:43:16.945Z</time>
      </trkpt>
      <trkpt lat="47.68727" lon="2.14033">
        <ele>129</ele>
        <time>2017-02-05T08:43:17.977Z</time>
      </trkpt>
      <trkpt lat="47.68717" lon="2.14035">
        <ele>128</ele>
        <time>2017-02-05T08:43:18.927Z</time>
      </trkpt>
      <trkpt lat="47.68717" lon="2.14035">
        <ele>128</ele>
        <time>2017-02-05T08:43:19.977Z</time>
      </trkpt>
      <trkpt lat="47.68706" lon="2.14036">
        <ele>127</ele>
        <time>2017-02-05T08:43:20.926Z</time>
      </trkpt>
      <trkpt lat="47.68706" lon="2.14036">
        <ele>127</ele>
        <time>2017-02-05T08:43:21.978Z</time>
      </trkpt>
      <trkpt lat="47.68696" lon="2.14036">
        <ele>126</ele>
        <time>2017-02-05T08:43:22.927Z</time>
      </trkpt>
      <trkpt lat="47.68696" lon="2.14036">
        <ele>126</ele>
        <time>2017-02-05T08:43:23.978Z</time>
      </trkpt>
      <trkpt lat="47.68686" lon="2.14036">
        <ele>125</ele>
        <time>2017-02-05T08:43:24.952Z</time>
      </trkpt>
      <trkpt lat="47.68686" lon="2.14036">
        <ele>125</ele>
        <time>2017-02-05T08:43:25.976Z</time>
      </trkpt>
      <trkpt lat="47.68676" lon="2.14037">
        <ele>125</ele>
        <time>2017-02-05T08:43:26.974Z</time>
      </trkpt>
      <trkpt lat="47.68676" lon="2.14037">
        <ele>125</ele>
        <time>2017-02-05T08:43:27.928Z</time>
      </trkpt>
      <trkpt lat="47.68667" lon="2.14035">
        <ele>124</ele>
        <time>2017-02-05T08:43:28.975Z</time>
      </trkpt>
      <trkpt lat="47.68667" lon="2.14035">
        <ele>124</ele>
        <time>2017-02-05T08:43:29.978Z</time>
      </trkpt>
      <trkpt lat="47.68658" lon="2.14035">
        <ele>124</ele>
        <time>2017-02-05T08:43:30.932Z</time>
      </trkpt>
      <trkpt lat="47.68658" lon="2.14035">
        <ele>124</ele>
        <time>2017-02-05T08:43:31.939Z</time>
      </trkpt>
      <trkpt lat="47.68648" lon="2.14033">
        <ele>124</ele>
        <time>2017-02-05T08:43:32.944Z</time>
      </trkpt>
      <trkpt lat="47.68644" lon="2.14033">
        <ele>123</ele>
        <time>2017-02-05T08:43:33.945Z</time>
      </trkpt>
      <trkpt lat="47.68639" lon="2.14032">
        <ele>123</ele>
        <time>2017-02-05T08:43:34.952Z</time>
      </trkpt>
      <trkpt lat="47.68634" lon="2.14032">
        <ele>123</ele>
        <time>2017-02-05T08:43:35.976Z</time>
      </trkpt>
      <trkpt lat="47.68634" lon="2.14032">
        <ele>123</ele>
        <time>2017-02-05T08:43:36.978Z</time>
      </trkpt>
      <trkpt lat="47.68625" lon="2.14032">
        <ele>123</ele>
        <time>2017-02-05T08:43:37.952Z</time>
      </trkpt>
      <trkpt lat="47.68625" lon="2.14032">
        <ele>123</ele>
        <time>2017-02-05T08:43:38.927Z</time>
      </trkpt>
      <trkpt lat="47.68616" lon="2.14032">
        <ele>123</ele>
        <time>2017-02-05T08:43:39.980Z</time>
      </trkpt>
      <trkpt lat="47.68611" lon="2.14031">
        <ele>124</ele>
        <time>2017-02-05T08:43:40.934Z</time>
      </trkpt>
      <trkpt lat="47.68611" lon="2.14031">
        <ele>124</ele>
        <time>2017-02-05T08:43:41.944Z</time>
      </trkpt>
      <trkpt lat="47.68602" lon="2.14031">
        <ele>124</ele>
        <time>2017-02-05T08:43:42.949Z</time>
      </trkpt>
      <trkpt lat="47.68602" lon="2.14031">
        <ele>124</ele>
        <time>2017-02-05T08:43:43.978Z</time>
      </trkpt>
      <trkpt lat="47.68593" lon="2.1403">
        <ele>123</ele>
        <time>2017-02-05T08:43:44.974Z</time>
      </trkpt>
      <trkpt lat="47.68593" lon="2.1403">
        <ele>123</ele>
        <time>2017-02-05T08:43:45.978Z</time>
      </trkpt>
      <trkpt lat="47.68584" lon="2.14029">
        <ele>123</ele>
        <time>2017-02-05T08:43:46.975Z</time>
      </trkpt>
      <trkpt lat="47.68579" lon="2.14029">
        <ele>123</ele>
        <time>2017-02-05T08:43:47.926Z</time>
      </trkpt>
      <trkpt lat="47.68579" lon="2.14029">
        <ele>123</ele>
        <time>2017-02-05T08:43:48.977Z</time>
      </trkpt>
      <trkpt lat="47.6857" lon="2.1403">
        <ele>123</ele>
        <time>2017-02-05T08:43:49.927Z</time>
      </trkpt>
      <trkpt lat="47.6857" lon="2.1403">
        <ele>123</ele>
        <time>2017-02-05T08:43:50.976Z</time>
      </trkpt>
      <trkpt lat="47.6856" lon="2.1403">
        <ele>122</ele>
        <time>2017-02-05T08:43:51.926Z</time>
      </trkpt>
      <trkpt lat="47.68555" lon="2.14031">
        <ele>122</ele>
        <time>2017-02-05T08:43:52.973Z</time>
      </trkpt>
      <trkpt lat="47.68555" lon="2.14031">
        <ele>122</ele>
        <time>2017-02-05T08:43:53.977Z</time>
      </trkpt>
      <trkpt lat="47.68545" lon="2.14032">
        <ele>122</ele>
        <time>2017-02-05T08:43:54.952Z</time>
      </trkpt>
      <trkpt lat="47.68545" lon="2.14032">
        <ele>122</ele>
        <time>2017-02-05T08:43:55.977Z</time>
      </trkpt>
      <trkpt lat="47.68536" lon="2.14033">
        <ele>122</ele>
        <time>2017-02-05T08:43:56.926Z</time>
      </trkpt>
      <trkpt lat="47.68536" lon="2.14033">
        <ele>122</ele>
        <time>2017-02-05T08:43:57.940Z</time>
      </trkpt>
      <trkpt lat="47.68526" lon="2.14035">
        <ele>122</ele>
        <time>2017-02-05T08:43:58.943Z</time>
      </trkpt>
      <trkpt lat="47.68526" lon="2.14035">
        <ele>122</ele>
        <time>2017-02-05T08:43:59.952Z</time>
      </trkpt>
      <trkpt lat="47.68516" lon="2.14037">
        <ele>122</ele>
        <time>2017-02-05T08:44:00.975Z</time>
      </trkpt>
      <trkpt lat="47.68516" lon="2.14037">
        <ele>122</ele>
        <time>2017-02-05T08:44:01.976Z</time>
      </trkpt>
      <trkpt lat="47.68506" lon="2.14039">
        <ele>122</ele>
        <time>2017-02-05T08:44:02.977Z</time>
      </trkpt>
      <trkpt lat="47.685" lon="2.14039">
        <ele>122</ele>
        <time>2017-02-05T08:44:03.925Z</time>
      </trkpt>
      <trkpt lat="47.685" lon="2.14039">
        <ele>122</ele>
        <time>2017-02-05T08:44:04.953Z</time>
      </trkpt>
      <trkpt lat="47.6849" lon="2.1404">
        <ele>122</ele>
        <time>2017-02-05T08:44:05.974Z</time>
      </trkpt>
      <trkpt lat="47.6849" lon="2.1404">
        <ele>122</ele>
        <time>2017-02-05T08:44:06.976Z</time>
      </trkpt>
      <trkpt lat="47.6848" lon="2.14042">
        <ele>122</ele>
        <time>2017-02-05T08:44:07.950Z</time>
      </trkpt>
      <trkpt lat="47.6848" lon="2.14042">
        <ele>122</ele>
        <time>2017-02-05T08:44:08.936Z</time>
      </trkpt>
      <trkpt lat="47.6847" lon="2.14043">
        <ele>122</ele>
        <time>2017-02-05T08:44:09.926Z</time>
      </trkpt>
      <trkpt lat="47.68465" lon="2.14045">
        <ele>122</ele>
        <time>2017-02-05T08:44:10.975Z</time>
      </trkpt>
      <trkpt lat="47.68465" lon="2.14045">
        <ele>122</ele>
        <time>2017-02-05T08:44:11.975Z</time>
      </trkpt>
      <trkpt lat="47.68454" lon="2.14047">
        <ele>122</ele>
        <time>2017-02-05T08:44:12.927Z</time>
      </trkpt>
      <trkpt lat="47.68449" lon="2.14048">
        <ele>122</ele>
        <time>2017-02-05T08:44:13.972Z</time>
      </trkpt>
      <trkpt lat="47.68449" lon="2.14048">
        <ele>122</ele>
        <time>2017-02-05T08:44:14.930Z</time>
      </trkpt>
      <trkpt lat="47.68439" lon="2.14049">
        <ele>122</ele>
        <time>2017-02-05T08:44:15.937Z</time>
      </trkpt>
      <trkpt lat="47.68434" lon="2.1405">
        <ele>122</ele>
        <time>2017-02-05T08:44:16.943Z</time>
      </trkpt>
      <trkpt lat="47.68434" lon="2.1405">
        <ele>122</ele>
        <time>2017-02-05T08:44:17.949Z</time>
      </trkpt>
      <trkpt lat="47.68424" lon="2.14054">
        <ele>123</ele>
        <time>2017-02-05T08:44:18.926Z</time>
      </trkpt>
      <trkpt lat="47.68424" lon="2.14054">
        <ele>123</ele>
        <time>2017-02-05T08:44:19.977Z</time>
      </trkpt>
      <trkpt lat="47.68415" lon="2.14058">
        <ele>123</ele>
        <time>2017-02-05T08:44:20.936Z</time>
      </trkpt>
      <trkpt lat="47.68415" lon="2.14058">
        <ele>123</ele>
        <time>2017-02-05T08:44:21.940Z</time>
      </trkpt>
      <trkpt lat="47.68405" lon="2.14062">
        <ele>123</ele>
        <time>2017-02-05T08:44:22.948Z</time>
      </trkpt>
      <trkpt lat="47.68405" lon="2.14062">
        <ele>123</ele>
        <time>2017-02-05T08:44:23.977Z</time>
      </trkpt>
      <trkpt lat="47.68395" lon="2.14066">
        <ele>123</ele>
        <time>2017-02-05T08:44:24.927Z</time>
      </trkpt>
      <trkpt lat="47.68395" lon="2.14066">
        <ele>123</ele>
        <time>2017-02-05T08:44:25.977Z</time>
      </trkpt>
      <trkpt lat="47.68385" lon="2.14071">
        <ele>123</ele>
        <time>2017-02-05T08:44:26.928Z</time>
      </trkpt>
      <trkpt lat="47.6838" lon="2.14073">
        <ele>123</ele>
        <time>2017-02-05T08:44:27.979Z</time>
      </trkpt>
      <trkpt lat="47.68375" lon="2.14076">
        <ele>123</ele>
        <time>2017-02-05T08:44:28.926Z</time>
      </trkpt>
      <trkpt lat="47.68375" lon="2.14076">
        <ele>123</ele>
        <time>2017-02-05T08:44:29.956Z</time>
      </trkpt>
      <trkpt lat="47.68366" lon="2.14081">
        <ele>123</ele>
        <time>2017-02-05T08:44:30.970Z</time>
      </trkpt>
      <trkpt lat="47.68366" lon="2.14081">
        <ele>123</ele>
        <time>2017-02-05T08:44:31.992Z</time>
      </trkpt>
      <trkpt lat="47.68356" lon="2.14087">
        <ele>123</ele>
        <time>2017-02-05T08:44:32.974Z</time>
      </trkpt>
      <trkpt lat="47.68356" lon="2.14087">
        <ele>123</ele>
        <time>2017-02-05T08:44:33.978Z</time>
      </trkpt>
      <trkpt lat="47.68347" lon="2.14093">
        <ele>122</ele>
        <time>2017-02-05T08:44:34.953Z</time>
      </trkpt>
      <trkpt lat="47.68342" lon="2.14097">
        <ele>122</ele>
        <time>2017-02-05T08:44:35.927Z</time>
      </trkpt>
      <trkpt lat="47.68342" lon="2.14097">
        <ele>122</ele>
        <time>2017-02-05T08:44:36.974Z</time>
      </trkpt>
      <trkpt lat="47.68333" lon="2.14105">
        <ele>122</ele>
        <time>2017-02-05T08:44:37.930Z</time>
      </trkpt>
      <trkpt lat="47.68333" lon="2.14105">
        <ele>122</ele>
        <time>2017-02-05T08:44:38.933Z</time>
      </trkpt>
      <trkpt lat="47.68322" lon="2.14112">
        <ele>122</ele>
        <time>2017-02-05T08:44:39.939Z</time>
      </trkpt>
      <trkpt lat="47.68318" lon="2.14116">
        <ele>122</ele>
        <time>2017-02-05T08:44:40.946Z</time>
      </trkpt>
      <trkpt lat="47.68318" lon="2.14116">
        <ele>122</ele>
        <time>2017-02-05T08:44:41.939Z</time>
      </trkpt>
      <trkpt lat="47.68307" lon="2.14124">
        <ele>122</ele>
        <time>2017-02-05T08:44:42.947Z</time>
      </trkpt>
      <trkpt lat="47.68307" lon="2.14124">
        <ele>122</ele>
        <time>2017-02-05T08:44:43.976Z</time>
      </trkpt>
      <trkpt lat="47.68296" lon="2.14131">
        <ele>122</ele>
        <time>2017-02-05T08:44:44.926Z</time>
      </trkpt>
      <trkpt lat="47.68296" lon="2.14131">
        <ele>122</ele>
        <time>2017-02-05T08:44:45.954Z</time>
      </trkpt>
      <trkpt lat="47.68284" lon="2.14138">
        <ele>122</ele>
        <time>2017-02-05T08:44:46.926Z</time>
      </trkpt>
      <trkpt lat="47.68284" lon="2.14138">
        <ele>122</ele>
        <time>2017-02-05T08:44:47.977Z</time>
      </trkpt>
      <trkpt lat="47.68273" lon="2.14146">
        <ele>123</ele>
        <time>2017-02-05T08:44:48.927Z</time>
      </trkpt>
      <trkpt lat="47.68273" lon="2.14146">
        <ele>123</ele>
        <time>2017-02-05T08:44:49.957Z</time>
      </trkpt>
      <trkpt lat="47.68262" lon="2.14151">
        <ele>122</ele>
        <time>2017-02-05T08:44:50.948Z</time>
      </trkpt>
      <trkpt lat="47.68262" lon="2.14151">
        <ele>122</ele>
        <time>2017-02-05T08:44:51.979Z</time>
      </trkpt>
      <trkpt lat="47.68251" lon="2.14158">
        <ele>122</ele>
        <time>2017-02-05T08:44:52.974Z</time>
      </trkpt>
      <trkpt lat="47.68251" lon="2.14158">
        <ele>122</ele>
        <time>2017-02-05T08:44:53.978Z</time>
      </trkpt>
      <trkpt lat="47.68241" lon="2.14164">
        <ele>122</ele>
        <time>2017-02-05T08:44:54.953Z</time>
      </trkpt>
      <trkpt lat="47.68236" lon="2.14167">
        <ele>122</ele>
        <time>2017-02-05T08:44:55.929Z</time>
      </trkpt>
      <trkpt lat="47.68236" lon="2.14167">
        <ele>122</ele>
        <time>2017-02-05T08:44:56.936Z</time>
      </trkpt>
      <trkpt lat="47.68225" lon="2.14173">
        <ele>122</ele>
        <time>2017-02-05T08:44:57.939Z</time>
      </trkpt>
      <trkpt lat="47.6822" lon="2.14176">
        <ele>122</ele>
        <time>2017-02-05T08:44:58.948Z</time>
      </trkpt>
      <trkpt lat="47.6822" lon="2.14176">
        <ele>122</ele>
        <time>2017-02-05T08:44:59.957Z</time>
      </trkpt>
      <trkpt lat="47.68209" lon="2.14182">
        <ele>122</ele>
        <time>2017-02-05T08:45:00.965Z</time>
      </trkpt>
      <trkpt lat="47.68209" lon="2.14182">
        <ele>122</ele>
        <time>2017-02-05T08:45:01.977Z</time>
      </trkpt>
      <trkpt lat="47.68199" lon="2.14187">
        <ele>123</ele>
        <time>2017-02-05T08:45:02.952Z</time>
      </trkpt>
      <trkpt lat="47.68194" lon="2.1419">
        <ele>123</ele>
        <time>2017-02-05T08:45:03.947Z</time>
      </trkpt>
      <trkpt lat="47.68194" lon="2.1419">
        <ele>123</ele>
        <time>2017-02-05T08:45:04.975Z</time>
      </trkpt>
      <trkpt lat="47.68184" lon="2.14194">
        <ele>124</ele>
        <time>2017-02-05T08:45:05.926Z</time>
      </trkpt>
      <trkpt lat="47.68184" lon="2.14194">
        <ele>124</ele>
        <time>2017-02-05T08:45:06.977Z</time>
      </trkpt>
      <trkpt lat="47.68173" lon="2.14199">
        <ele>124</ele>
        <time>2017-02-05T08:45:07.950Z</time>
      </trkpt>
      <trkpt lat="47.68173" lon="2.14199">
        <ele>124</ele>
        <time>2017-02-05T08:45:08.946Z</time>
      </trkpt>
      <trkpt lat="47.68164" lon="2.14203">
        <ele>124</ele>
        <time>2017-02-05T08:45:09.926Z</time>
      </trkpt>
      <trkpt lat="47.68164" lon="2.14203">
        <ele>124</ele>
        <time>2017-02-05T08:45:10.974Z</time>
      </trkpt>
      <trkpt lat="47.68154" lon="2.14208">
        <ele>125</ele>
        <time>2017-02-05T08:45:11.927Z</time>
      </trkpt>
      <trkpt lat="47.68154" lon="2.14208">
        <ele>125</ele>
        <time>2017-02-05T08:45:12.957Z</time>
      </trkpt>
      <trkpt lat="47.68146" lon="2.14212">
        <ele>125</ele>
        <time>2017-02-05T08:45:13.974Z</time>
      </trkpt>
      <trkpt lat="47.68146" lon="2.14212">
        <ele>125</ele>
        <time>2017-02-05T08:45:14.929Z</time>
      </trkpt>
      <trkpt lat="47.68137" lon="2.14215">
        <ele>125</ele>
        <time>2017-02-05T08:45:15.937Z</time>
      </trkpt>
      <trkpt lat="47.68133" lon="2.14217">
        <ele>125</ele>
        <time>2017-02-05T08:45:16.945Z</time>
      </trkpt>
      <trkpt lat="47.68133" lon="2.14217">
        <ele>125</ele>
        <time>2017-02-05T08:45:17.949Z</time>
      </trkpt>
      <trkpt lat="47.68124" lon="2.14221">
        <ele>125</ele>
        <time>2017-02-05T08:45:18.945Z</time>
      </trkpt>
      <trkpt lat="47.68124" lon="2.14221">
        <ele>125</ele>
        <time>2017-02-05T08:45:19.952Z</time>
      </trkpt>
      <trkpt lat="47.68115" lon="2.14225">
        <ele>125</ele>
        <time>2017-02-05T08:45:20.926Z</time>
      </trkpt>
      <trkpt lat="47.68115" lon="2.14225">
        <ele>125</ele>
        <time>2017-02-05T08:45:21.954Z</time>
      </trkpt>
      <trkpt lat="47.68106" lon="2.14229">
        <ele>125</ele>
        <time>2017-02-05T08:45:22.954Z</time>
      </trkpt>
      <trkpt lat="47.68101" lon="2.14231">
        <ele>125</ele>
        <time>2017-02-05T08:45:23.976Z</time>
      </trkpt>
      <trkpt lat="47.68097" lon="2.14233">
        <ele>126</ele>
        <time>2017-02-05T08:45:24.928Z</time>
      </trkpt>
      <trkpt lat="47.68097" lon="2.14233">
        <ele>126</ele>
        <time>2017-02-05T08:45:25.977Z</time>
      </trkpt>
      <trkpt lat="47.68089" lon="2.14237">
        <ele>126</ele>
        <time>2017-02-05T08:45:26.929Z</time>
      </trkpt>
      <trkpt lat="47.68089" lon="2.14237">
        <ele>126</ele>
        <time>2017-02-05T08:45:27.933Z</time>
      </trkpt>
      <trkpt lat="47.68081" lon="2.14241">
        <ele>126</ele>
        <time>2017-02-05T08:45:28.939Z</time>
      </trkpt>
      <trkpt lat="47.68081" lon="2.14241">
        <ele>126</ele>
        <time>2017-02-05T08:45:29.946Z</time>
      </trkpt>
      <trkpt lat="47.68074" lon="2.14243">
        <ele>126</ele>
        <time>2017-02-05T08:45:30.974Z</time>
      </trkpt>
      <trkpt lat="47.68074" lon="2.14243">
        <ele>126</ele>
        <time>2017-02-05T08:45:31.929Z</time>
      </trkpt>
      <trkpt lat="47.68068" lon="2.14245">
        <ele>126</ele>
        <time>2017-02-05T08:45:32.946Z</time>
      </trkpt>
      <trkpt lat="47.68068" lon="2.14245">
        <ele>126</ele>
        <time>2017-02-05T08:45:33.979Z</time>
      </trkpt>
      <trkpt lat="47.68061" lon="2.14248">
        <ele>126</ele>
        <time>2017-02-05T08:45:34.975Z</time>
      </trkpt>
      <trkpt lat="47.68061" lon="2.14248">
        <ele>126</ele>
        <time>2017-02-05T08:45:35.975Z</time>
      </trkpt>
      <trkpt lat="47.68055" lon="2.14249">
        <ele>126</ele>
        <time>2017-02-05T08:45:36.952Z</time>
      </trkpt>
      <trkpt lat="47.68055" lon="2.14249">
        <ele>126</ele>
        <time>2017-02-05T08:45:37.976Z</time>
      </trkpt>
      <trkpt lat="47.6805" lon="2.14252">
        <ele>126</ele>
        <time>2017-02-05T08:45:38.926Z</time>
      </trkpt>
      <trkpt lat="47.6805" lon="2.14252">
        <ele>126</ele>
        <time>2017-02-05T08:45:39.954Z</time>
      </trkpt>
      <trkpt lat="47.68045" lon="2.14255">
        <ele>125</ele>
        <time>2017-02-05T08:45:40.946Z</time>
      </trkpt>
      <trkpt lat="47.68042" lon="2.14256">
        <ele>125</ele>
        <time>2017-02-05T08:45:41.947Z</time>
      </trkpt>
      <trkpt lat="47.68042" lon="2.14256">
        <ele>125</ele>
        <time>2017-02-05T08:45:42.953Z</time>
      </trkpt>
      <trkpt lat="47.68039" lon="2.14256">
        <ele>125</ele>
        <time>2017-02-05T08:45:43.925Z</time>
      </trkpt>
      <trkpt lat="47.68039" lon="2.14256">
        <ele>125</ele>
        <time>2017-02-05T08:45:44.953Z</time>
      </trkpt>
      <trkpt lat="47.68038" lon="2.14256">
        <ele>125</ele>
        <time>2017-02-05T08:45:45.976Z</time>
      </trkpt>
      <trkpt lat="47.68038" lon="2.14256">
        <ele>125</ele>
        <time>2017-02-05T08:45:46.956Z</time>
      </trkpt>
      <trkpt lat="47.68024" lon="2.14249">
        <ele>121</ele>
        <time>2017-02-05T08:45:47.949Z</time>
      </trkpt>
      <trkpt lat="47.68024" lon="2.14249">
        <ele>121</ele>
        <time>2017-02-05T08:45:48.943Z</time>
      </trkpt>
      <trkpt lat="47.6802" lon="2.14251">
        <ele>121</ele>
        <time>2017-02-05T08:45:49.942Z</time>
      </trkpt>
      <trkpt lat="47.6802" lon="2.14251">
        <ele>121</ele>
        <time>2017-02-05T08:45:50.922Z</time>
      </trkpt>
      <trkpt lat="47.68017" lon="2.14256">
        <ele>121</ele>
        <time>2017-02-05T08:45:51.945Z</time>
      </trkpt>
      <trkpt lat="47.68015" lon="2.14259">
        <ele>121</ele>
        <time>2017-02-05T08:45:52.946Z</time>
      </trkpt>
      <trkpt lat="47.68012" lon="2.14261">
        <ele>121</ele>
        <time>2017-02-05T08:45:53.950Z</time>
      </trkpt>
      <trkpt lat="47.68012" lon="2.14261">
        <ele>121</ele>
        <time>2017-02-05T08:45:54.943Z</time>
      </trkpt>
      <trkpt lat="47.68007" lon="2.14267">
        <ele>120</ele>
        <time>2017-02-05T08:45:55.945Z</time>
      </trkpt>
      <trkpt lat="47.68007" lon="2.14267">
        <ele>120</ele>
        <time>2017-02-05T08:45:56.952Z</time>
      </trkpt>
      <trkpt lat="47.68002" lon="2.14273">
        <ele>120</ele>
        <time>2017-02-05T08:45:57.944Z</time>
      </trkpt>
      <trkpt lat="47.67999" lon="2.14275">
        <ele>121</ele>
        <time>2017-02-05T08:45:58.946Z</time>
      </trkpt>
      <trkpt lat="47.67999" lon="2.14275">
        <ele>121</ele>
        <time>2017-02-05T08:45:59.943Z</time>
      </trkpt>
      <trkpt lat="47.67993" lon="2.14281">
        <ele>121</ele>
        <time>2017-02-05T08:46:00.946Z</time>
      </trkpt>
      <trkpt lat="47.67993" lon="2.14281">
        <ele>121</ele>
        <time>2017-02-05T08:46:01.934Z</time>
      </trkpt>
      <trkpt lat="47.67986" lon="2.14287">
        <ele>121</ele>
        <time>2017-02-05T08:46:02.944Z</time>
      </trkpt>
      <trkpt lat="47.67982" lon="2.14291">
        <ele>121</ele>
        <time>2017-02-05T08:46:03.945Z</time>
      </trkpt>
      <trkpt lat="47.67982" lon="2.14291">
        <ele>121</ele>
        <time>2017-02-05T08:46:04.942Z</time>
      </trkpt>
      <trkpt lat="47.67975" lon="2.14298">
        <ele>122</ele>
        <time>2017-02-05T08:46:05.943Z</time>
      </trkpt>
      <trkpt lat="47.67975" lon="2.14298">
        <ele>122</ele>
        <time>2017-02-05T08:46:06.938Z</time>
      </trkpt>
      <trkpt lat="47.67967" lon="2.14305">
        <ele>121</ele>
        <time>2017-02-05T08:46:07.943Z</time>
      </trkpt>
      <trkpt lat="47.67963" lon="2.14308">
        <ele>121</ele>
        <time>2017-02-05T08:46:08.954Z</time>
      </trkpt>
      <trkpt lat="47.67963" lon="2.14308">
        <ele>121</ele>
        <time>2017-02-05T08:46:09.943Z</time>
      </trkpt>
      <trkpt lat="47.67955" lon="2.14315">
        <ele>121</ele>
        <time>2017-02-05T08:46:10.944Z</time>
      </trkpt>
      <trkpt lat="47.67955" lon="2.14315">
        <ele>121</ele>
        <time>2017-02-05T08:46:11.938Z</time>
      </trkpt>
      <trkpt lat="47.67948" lon="2.14322">
        <ele>121</ele>
        <time>2017-02-05T08:46:12.945Z</time>
      </trkpt>
      <trkpt lat="47.67944" lon="2.14326">
        <ele>121</ele>
        <time>2017-02-05T08:46:13.945Z</time>
      </trkpt>
      <trkpt lat="47.67944" lon="2.14326">
        <ele>121</ele>
        <time>2017-02-05T08:46:14.942Z</time>
      </trkpt>
      <trkpt lat="47.67935" lon="2.14334">
        <ele>121</ele>
        <time>2017-02-05T08:46:15.945Z</time>
      </trkpt>
      <trkpt lat="47.67935" lon="2.14334">
        <ele>121</ele>
        <time>2017-02-05T08:46:16.930Z</time>
      </trkpt>
      <trkpt lat="47.67926" lon="2.14343">
        <ele>121</ele>
        <time>2017-02-05T08:46:17.958Z</time>
      </trkpt>
      <trkpt lat="47.67926" lon="2.14343">
        <ele>121</ele>
        <time>2017-02-05T08:46:18.947Z</time>
      </trkpt>
      <trkpt lat="47.67919" lon="2.14351">
        <ele>121</ele>
        <time>2017-02-05T08:46:19.945Z</time>
      </trkpt>
      <trkpt lat="47.67919" lon="2.14351">
        <ele>121</ele>
        <time>2017-02-05T08:46:20.943Z</time>
      </trkpt>
      <trkpt lat="47.67911" lon="2.14358">
        <ele>121</ele>
        <time>2017-02-05T08:46:21.955Z</time>
      </trkpt>
      <trkpt lat="47.67911" lon="2.14358">
        <ele>121</ele>
        <time>2017-02-05T08:46:22.943Z</time>
      </trkpt>
      <trkpt lat="47.67904" lon="2.14365">
        <ele>122</ele>
        <time>2017-02-05T08:46:23.946Z</time>
      </trkpt>
      <trkpt lat="47.67904" lon="2.14365">
        <ele>122</ele>
        <time>2017-02-05T08:46:24.943Z</time>
      </trkpt>
      <trkpt lat="47.67897" lon="2.14373">
        <ele>122</ele>
        <time>2017-02-05T08:46:25.945Z</time>
      </trkpt>
      <trkpt lat="47.67897" lon="2.14373">
        <ele>122</ele>
        <time>2017-02-05T08:46:26.939Z</time>
      </trkpt>
      <trkpt lat="47.67891" lon="2.14381">
        <ele>122</ele>
        <time>2017-02-05T08:46:27.944Z</time>
      </trkpt>
      <trkpt lat="47.67887" lon="2.14386">
        <ele>122</ele>
        <time>2017-02-05T08:46:28.945Z</time>
      </trkpt>
      <trkpt lat="47.67883" lon="2.1439">
        <ele>122</ele>
        <time>2017-02-05T08:46:29.945Z</time>
      </trkpt>
      <trkpt lat="47.67883" lon="2.1439">
        <ele>122</ele>
        <time>2017-02-05T08:46:30.939Z</time>
      </trkpt>
      <trkpt lat="47.67875" lon="2.144">
        <ele>122</ele>
        <time>2017-02-05T08:46:31.946Z</time>
      </trkpt>
      <trkpt lat="47.67875" lon="2.144">
        <ele>122</ele>
        <time>2017-02-05T08:46:32.943Z</time>
      </trkpt>
      <trkpt lat="47.67868" lon="2.14409">
        <ele>122</ele>
        <time>2017-02-05T08:46:33.944Z</time>
      </trkpt>
      <trkpt lat="47.67868" lon="2.14409">
        <ele>122</ele>
        <time>2017-02-05T08:46:34.939Z</time>
      </trkpt>
      <trkpt lat="47.67861" lon="2.14419">
        <ele>122</ele>
        <time>2017-02-05T08:46:35.943Z</time>
      </trkpt>
      <trkpt lat="47.67861" lon="2.14419">
        <ele>122</ele>
        <time>2017-02-05T08:46:36.943Z</time>
      </trkpt>
      <trkpt lat="47.67854" lon="2.14428">
        <ele>122</ele>
        <time>2017-02-05T08:46:37.944Z</time>
      </trkpt>
      <trkpt lat="47.6785" lon="2.14433">
        <ele>122</ele>
        <time>2017-02-05T08:46:38.944Z</time>
      </trkpt>
      <trkpt lat="47.67846" lon="2.14437">
        <ele>122</ele>
        <time>2017-02-05T08:46:39.942Z</time>
      </trkpt>
      <trkpt lat="47.67846" lon="2.14437">
        <ele>122</ele>
        <time>2017-02-05T08:46:40.943Z</time>
      </trkpt>
      <trkpt lat="47.67839" lon="2.14446">
        <ele>122</ele>
        <time>2017-02-05T08:46:41.944Z</time>
      </trkpt>
      <trkpt lat="47.67839" lon="2.14446">
        <ele>122</ele>
        <time>2017-02-05T08:46:42.942Z</time>
      </trkpt>
      <trkpt lat="47.67832" lon="2.14452">
        <ele>122</ele>
        <time>2017-02-05T08:46:43.944Z</time>
      </trkpt>
      <trkpt lat="47.67827" lon="2.14452">
        <ele>122</ele>
        <time>2017-02-05T08:46:44.946Z</time>
      </trkpt>
      <trkpt lat="47.67827" lon="2.14452">
        <ele>122</ele>
        <time>2017-02-05T08:46:45.943Z</time>
      </trkpt>
      <trkpt lat="47.67821" lon="2.14443">
        <ele>123</ele>
        <time>2017-02-05T08:46:46.946Z</time>
      </trkpt>
      <trkpt lat="47.6782" lon="2.14437">
        <ele>123</ele>
        <time>2017-02-05T08:46:47.944Z</time>
      </trkpt>
      <trkpt lat="47.6782" lon="2.14437">
        <ele>123</ele>
        <time>2017-02-05T08:46:48.943Z</time>
      </trkpt>
      <trkpt lat="47.67819" lon="2.14424">
        <ele>123</ele>
        <time>2017-02-05T08:46:49.946Z</time>
      </trkpt>
      <trkpt lat="47.67819" lon="2.14424">
        <ele>123</ele>
        <time>2017-02-05T08:46:50.943Z</time>
      </trkpt>
      <trkpt lat="47.67816" lon="2.14411">
        <ele>122</ele>
        <time>2017-02-05T08:46:51.945Z</time>
      </trkpt>
      <trkpt lat="47.67816" lon="2.14411">
        <ele>122</ele>
        <time>2017-02-05T08:46:52.942Z</time>
      </trkpt>
      <trkpt lat="47.67814" lon="2.14398">
        <ele>122</ele>
        <time>2017-02-05T08:46:53.944Z</time>
      </trkpt>
      <trkpt lat="47.67814" lon="2.14398">
        <ele>122</ele>
        <time>2017-02-05T08:46:54.939Z</time>
      </trkpt>
      <trkpt lat="47.67811" lon="2.14385">
        <ele>122</ele>
        <time>2017-02-05T08:46:55.961Z</time>
      </trkpt>
      <trkpt lat="47.67811" lon="2.14385">
        <ele>122</ele>
        <time>2017-02-05T08:46:56.951Z</time>
      </trkpt>
      <trkpt lat="47.67809" lon="2.14373">
        <ele>122</ele>
        <time>2017-02-05T08:46:57.944Z</time>
      </trkpt>
      <trkpt lat="47.67809" lon="2.14373">
        <ele>122</ele>
        <time>2017-02-05T08:46:58.943Z</time>
      </trkpt>
      <trkpt lat="47.67805" lon="2.14362">
        <ele>123</ele>
        <time>2017-02-05T08:46:59.946Z</time>
      </trkpt>
      <trkpt lat="47.67805" lon="2.14362">
        <ele>123</ele>
        <time>2017-02-05T08:47:00.942Z</time>
      </trkpt>
      <trkpt lat="47.67798" lon="2.14356">
        <ele>123</ele>
        <time>2017-02-05T08:47:01.946Z</time>
      </trkpt>
      <trkpt lat="47.67798" lon="2.14356">
        <ele>123</ele>
        <time>2017-02-05T08:47:02.943Z</time>
      </trkpt>
      <trkpt lat="47.67789" lon="2.14357">
        <ele>122</ele>
        <time>2017-02-05T08:47:03.944Z</time>
      </trkpt>
      <trkpt lat="47.67785" lon="2.14358">
        <ele>122</ele>
        <time>2017-02-05T08:47:04.942Z</time>
      </trkpt>
      <trkpt lat="47.67785" lon="2.14358">
        <ele>122</ele>
        <time>2017-02-05T08:47:05.941Z</time>
      </trkpt>
      <trkpt lat="47.67776" lon="2.14359">
        <ele>122</ele>
        <time>2017-02-05T08:47:06.945Z</time>
      </trkpt>
      <trkpt lat="47.67776" lon="2.14359">
        <ele>122</ele>
        <time>2017-02-05T08:47:07.981Z</time>
      </trkpt>
      <trkpt lat="47.67766" lon="2.1436">
        <ele>122</ele>
        <time>2017-02-05T08:47:08.956Z</time>
      </trkpt>
      <trkpt lat="47.67761" lon="2.1436">
        <ele>122</ele>
        <time>2017-02-05T08:47:09.924Z</time>
      </trkpt>
      <trkpt lat="47.67761" lon="2.1436">
        <ele>122</ele>
        <time>2017-02-05T08:47:10.949Z</time>
      </trkpt>
      <trkpt lat="47.67751" lon="2.1436">
        <ele>121</ele>
        <time>2017-02-05T08:47:11.951Z</time>
      </trkpt>
      <trkpt lat="47.67751" lon="2.1436">
        <ele>121</ele>
        <time>2017-02-05T08:47:12.942Z</time>
      </trkpt>
      <trkpt lat="47.67742" lon="2.1436">
        <ele>121</ele>
        <time>2017-02-05T08:47:13.948Z</time>
      </trkpt>
      <trkpt lat="47.67742" lon="2.1436">
        <ele>121</ele>
        <time>2017-02-05T08:47:14.949Z</time>
      </trkpt>
      <trkpt lat="47.67733" lon="2.1436">
        <ele>121</ele>
        <time>2017-02-05T08:47:15.953Z</time>
      </trkpt>
      <trkpt lat="47.67733" lon="2.1436">
        <ele>121</ele>
        <time>2017-02-05T08:47:16.961Z</time>
      </trkpt>
      <trkpt lat="47.67724" lon="2.1436">
        <ele>121</ele>
        <time>2017-02-05T08:47:17.961Z</time>
      </trkpt>
      <trkpt lat="47.67724" lon="2.1436">
        <ele>121</ele>
        <time>2017-02-05T08:47:18.934Z</time>
      </trkpt>
      <trkpt lat="47.67715" lon="2.14361">
        <ele>121</ele>
        <time>2017-02-05T08:47:19.943Z</time>
      </trkpt>
      <trkpt lat="47.67711" lon="2.14361">
        <ele>121</ele>
        <time>2017-02-05T08:47:20.948Z</time>
      </trkpt>
      <trkpt lat="47.67707" lon="2.14361">
        <ele>121</ele>
        <time>2017-02-05T08:47:21.944Z</time>
      </trkpt>
      <trkpt lat="47.67702" lon="2.14361">
        <ele>121</ele>
        <time>2017-02-05T08:47:22.949Z</time>
      </trkpt>
      <trkpt lat="47.67702" lon="2.14361">
        <ele>121</ele>
        <time>2017-02-05T08:47:23.946Z</time>
      </trkpt>
      <trkpt lat="47.67693" lon="2.1436">
        <ele>121</ele>
        <time>2017-02-05T08:47:24.946Z</time>
      </trkpt>
      <trkpt lat="47.67689" lon="2.14359">
        <ele>121</ele>
        <time>2017-02-05T08:47:25.946Z</time>
      </trkpt>
      <trkpt lat="47.67689" lon="2.14359">
        <ele>121</ele>
        <time>2017-02-05T08:47:26.943Z</time>
      </trkpt>
      <trkpt lat="47.6768" lon="2.14357">
        <ele>122</ele>
        <time>2017-02-05T08:47:27.947Z</time>
      </trkpt>
      <trkpt lat="47.6768" lon="2.14357">
        <ele>122</ele>
        <time>2017-02-05T08:47:28.947Z</time>
      </trkpt>
      <trkpt lat="47.67672" lon="2.14355">
        <ele>122</ele>
        <time>2017-02-05T08:47:29.948Z</time>
      </trkpt>
      <trkpt lat="47.67672" lon="2.14355">
        <ele>122</ele>
        <time>2017-02-05T08:47:30.946Z</time>
      </trkpt>
      <trkpt lat="47.67664" lon="2.14352">
        <ele>122</ele>
        <time>2017-02-05T08:47:31.949Z</time>
      </trkpt>
      <trkpt lat="47.67664" lon="2.14352">
        <ele>122</ele>
        <time>2017-02-05T08:47:32.945Z</time>
      </trkpt>
      <trkpt lat="47.67655" lon="2.14349">
        <ele>122</ele>
        <time>2017-02-05T08:47:33.947Z</time>
      </trkpt>
      <trkpt lat="47.67651" lon="2.14348">
        <ele>122</ele>
        <time>2017-02-05T08:47:34.949Z</time>
      </trkpt>
      <trkpt lat="47.67651" lon="2.14348">
        <ele>122</ele>
        <time>2017-02-05T08:47:35.947Z</time>
      </trkpt>
      <trkpt lat="47.67643" lon="2.14346">
        <ele>123</ele>
        <time>2017-02-05T08:47:36.947Z</time>
      </trkpt>
      <trkpt lat="47.67639" lon="2.14345">
        <ele>123</ele>
        <time>2017-02-05T08:47:37.958Z</time>
      </trkpt>
      <trkpt lat="47.67639" lon="2.14345">
        <ele>123</ele>
        <time>2017-02-05T08:47:38.958Z</time>
      </trkpt>
      <trkpt lat="47.6763" lon="2.14343">
        <ele>123</ele>
        <time>2017-02-05T08:47:39.958Z</time>
      </trkpt>
      <trkpt lat="47.6763" lon="2.14343">
        <ele>123</ele>
        <time>2017-02-05T08:47:40.955Z</time>
      </trkpt>
      <trkpt lat="47.67622" lon="2.1434">
        <ele>123</ele>
        <time>2017-02-05T08:47:41.952Z</time>
      </trkpt>
      <trkpt lat="47.67622" lon="2.1434">
        <ele>123</ele>
        <time>2017-02-05T08:47:42.949Z</time>
      </trkpt>
      <trkpt lat="47.67614" lon="2.14338">
        <ele>122</ele>
        <time>2017-02-05T08:47:43.948Z</time>
      </trkpt>
      <trkpt lat="47.67614" lon="2.14338">
        <ele>122</ele>
        <time>2017-02-05T08:47:44.946Z</time>
      </trkpt>
      <trkpt lat="47.67605" lon="2.14336">
        <ele>122</ele>
        <time>2017-02-05T08:47:45.947Z</time>
      </trkpt>
      <trkpt lat="47.67601" lon="2.14334">
        <ele>122</ele>
        <time>2017-02-05T08:47:46.946Z</time>
      </trkpt>
      <trkpt lat="47.67597" lon="2.14333">
        <ele>122</ele>
        <time>2017-02-05T08:47:47.953Z</time>
      </trkpt>
      <trkpt lat="47.67597" lon="2.14333">
        <ele>122</ele>
        <time>2017-02-05T08:47:48.947Z</time>
      </trkpt>
      <trkpt lat="47.67589" lon="2.14329">
        <ele>122</ele>
        <time>2017-02-05T08:47:49.946Z</time>
      </trkpt>
      <trkpt lat="47.67589" lon="2.14329">
        <ele>122</ele>
        <time>2017-02-05T08:47:50.946Z</time>
      </trkpt>
      <trkpt lat="47.67581" lon="2.14327">
        <ele>123</ele>
        <time>2017-02-05T08:47:51.946Z</time>
      </trkpt>
      <trkpt lat="47.67581" lon="2.14327">
        <ele>123</ele>
        <time>2017-02-05T08:47:52.937Z</time>
      </trkpt>
      <trkpt lat="47.67572" lon="2.14324">
        <ele>122</ele>
        <time>2017-02-05T08:47:53.945Z</time>
      </trkpt>
      <trkpt lat="47.67572" lon="2.14324">
        <ele>122</ele>
        <time>2017-02-05T08:47:54.942Z</time>
      </trkpt>
      <trkpt lat="47.67563" lon="2.14321">
        <ele>122</ele>
        <time>2017-02-05T08:47:55.948Z</time>
      </trkpt>
      <trkpt lat="47.67563" lon="2.14321">
        <ele>122</ele>
        <time>2017-02-05T08:47:56.934Z</time>
      </trkpt>
      <trkpt lat="47.67554" lon="2.14318">
        <ele>123</ele>
        <time>2017-02-05T08:47:57.946Z</time>
      </trkpt>
      <trkpt lat="47.67554" lon="2.14318">
        <ele>123</ele>
        <time>2017-02-05T08:47:58.942Z</time>
      </trkpt>
      <trkpt lat="47.67546" lon="2.14316">
        <ele>123</ele>
        <time>2017-02-05T08:47:59.946Z</time>
      </trkpt>
      <trkpt lat="47.67546" lon="2.14316">
        <ele>123</ele>
        <time>2017-02-05T08:48:00.945Z</time>
      </trkpt>
      <trkpt lat="47.67537" lon="2.14314">
        <ele>123</ele>
        <time>2017-02-05T08:48:01.951Z</time>
      </trkpt>
      <trkpt lat="47.67537" lon="2.14314">
        <ele>123</ele>
        <time>2017-02-05T08:48:02.944Z</time>
      </trkpt>
      <trkpt lat="47.67529" lon="2.14311">
        <ele>123</ele>
        <time>2017-02-05T08:48:03.945Z</time>
      </trkpt>
      <trkpt lat="47.67525" lon="2.1431">
        <ele>124</ele>
        <time>2017-02-05T08:48:04.938Z</time>
      </trkpt>
      <trkpt lat="47.67521" lon="2.14309">
        <ele>124</ele>
        <time>2017-02-05T08:48:05.945Z</time>
      </trkpt>
      <trkpt lat="47.67521" lon="2.14309">
        <ele>124</ele>
        <time>2017-02-05T08:48:06.952Z</time>
      </trkpt>
      <trkpt lat="47.67514" lon="2.14307">
        <ele>124</ele>
        <time>2017-02-05T08:48:07.957Z</time>
      </trkpt>
      <trkpt lat="47.6751" lon="2.14306">
        <ele>124</ele>
        <time>2017-02-05T08:48:08.951Z</time>
      </trkpt>
      <trkpt lat="47.6751" lon="2.14306">
        <ele>124</ele>
        <time>2017-02-05T08:48:09.946Z</time>
      </trkpt>
      <trkpt lat="47.67503" lon="2.14303">
        <ele>125</ele>
        <time>2017-02-05T08:48:10.947Z</time>
      </trkpt>
      <trkpt lat="47.67503" lon="2.14303">
        <ele>125</ele>
        <time>2017-02-05T08:48:11.947Z</time>
      </trkpt>
      <trkpt lat="47.67496" lon="2.143">
        <ele>126</ele>
        <time>2017-02-05T08:48:12.936Z</time>
      </trkpt>
      <trkpt lat="47.67493" lon="2.14299">
        <ele>126</ele>
        <time>2017-02-05T08:48:13.947Z</time>
      </trkpt>
      <trkpt lat="47.67493" lon="2.14299">
        <ele>126</ele>
        <time>2017-02-05T08:48:14.945Z</time>
      </trkpt>
      <trkpt lat="47.67485" lon="2.14298">
        <ele>127</ele>
        <time>2017-02-05T08:48:15.946Z</time>
      </trkpt>
      <trkpt lat="47.67485" lon="2.14298">
        <ele>127</ele>
        <time>2017-02-05T08:48:16.955Z</time>
      </trkpt>
      <trkpt lat="47.67478" lon="2.14299">
        <ele>127</ele>
        <time>2017-02-05T08:48:17.954Z</time>
      </trkpt>
      <trkpt lat="47.67478" lon="2.14299">
        <ele>127</ele>
        <time>2017-02-05T08:48:18.959Z</time>
      </trkpt>
      <trkpt lat="47.67471" lon="2.14297">
        <ele>128</ele>
        <time>2017-02-05T08:48:19.952Z</time>
      </trkpt>
      <trkpt lat="47.67471" lon="2.14297">
        <ele>128</ele>
        <time>2017-02-05T08:48:20.945Z</time>
      </trkpt>
      <trkpt lat="47.67463" lon="2.14294">
        <ele>128</ele>
        <time>2017-02-05T08:48:21.946Z</time>
      </trkpt>
      <trkpt lat="47.67463" lon="2.14294">
        <ele>128</ele>
        <time>2017-02-05T08:48:22.943Z</time>
      </trkpt>
      <trkpt lat="47.67455" lon="2.14292">
        <ele>129</ele>
        <time>2017-02-05T08:48:23.947Z</time>
      </trkpt>
      <trkpt lat="47.67455" lon="2.14292">
        <ele>129</ele>
        <time>2017-02-05T08:48:24.944Z</time>
      </trkpt>
      <trkpt lat="47.67446" lon="2.14291">
        <ele>129</ele>
        <time>2017-02-05T08:48:25.947Z</time>
      </trkpt>
      <trkpt lat="47.67446" lon="2.14291">
        <ele>129</ele>
        <time>2017-02-05T08:48:26.944Z</time>
      </trkpt>
      <trkpt lat="47.67437" lon="2.14288">
        <ele>130</ele>
        <time>2017-02-05T08:48:27.945Z</time>
      </trkpt>
      <trkpt lat="47.67433" lon="2.14287">
        <ele>130</ele>
        <time>2017-02-05T08:48:28.947Z</time>
      </trkpt>
      <trkpt lat="47.67433" lon="2.14287">
        <ele>130</ele>
        <time>2017-02-05T08:48:29.945Z</time>
      </trkpt>
      <trkpt lat="47.67425" lon="2.14284">
        <ele>131</ele>
        <time>2017-02-05T08:48:30.946Z</time>
      </trkpt>
      <trkpt lat="47.67421" lon="2.14281">
        <ele>131</ele>
        <time>2017-02-05T08:48:31.946Z</time>
      </trkpt>
      <trkpt lat="47.67421" lon="2.14281">
        <ele>131</ele>
        <time>2017-02-05T08:48:32.944Z</time>
      </trkpt>
      <trkpt lat="47.67411" lon="2.14278">
        <ele>131</ele>
        <time>2017-02-05T08:48:33.944Z</time>
      </trkpt>
      <trkpt lat="47.67411" lon="2.14278">
        <ele>131</ele>
        <time>2017-02-05T08:48:34.943Z</time>
      </trkpt>
      <trkpt lat="47.67401" lon="2.14276">
        <ele>132</ele>
        <time>2017-02-05T08:48:35.948Z</time>
      </trkpt>
      <trkpt lat="47.67401" lon="2.14276">
        <ele>132</ele>
        <time>2017-02-05T08:48:36.944Z</time>
      </trkpt>
      <trkpt lat="47.67393" lon="2.14274">
        <ele>132</ele>
        <time>2017-02-05T08:48:37.947Z</time>
      </trkpt>
      <trkpt lat="47.67393" lon="2.14274">
        <ele>132</ele>
        <time>2017-02-05T08:48:38.946Z</time>
      </trkpt>
      <trkpt lat="47.67384" lon="2.14272">
        <ele>132</ele>
        <time>2017-02-05T08:48:39.945Z</time>
      </trkpt>
      <trkpt lat="47.6738" lon="2.14271">
        <ele>131</ele>
        <time>2017-02-05T08:48:40.950Z</time>
      </trkpt>
      <trkpt lat="47.6738" lon="2.14271">
        <ele>131</ele>
        <time>2017-02-05T08:48:41.943Z</time>
      </trkpt>
      <trkpt lat="47.67371" lon="2.14268">
        <ele>131</ele>
        <time>2017-02-05T08:48:42.946Z</time>
      </trkpt>
      <trkpt lat="47.67366" lon="2.14267">
        <ele>131</ele>
        <time>2017-02-05T08:48:43.946Z</time>
      </trkpt>
      <trkpt lat="47.67366" lon="2.14267">
        <ele>131</ele>
        <time>2017-02-05T08:48:44.940Z</time>
      </trkpt>
      <trkpt lat="47.67357" lon="2.14264">
        <ele>131</ele>
        <time>2017-02-05T08:48:45.947Z</time>
      </trkpt>
      <trkpt lat="47.67352" lon="2.14263">
        <ele>131</ele>
        <time>2017-02-05T08:48:46.946Z</time>
      </trkpt>
      <trkpt lat="47.67347" lon="2.14262">
        <ele>131</ele>
        <time>2017-02-05T08:48:47.948Z</time>
      </trkpt>
      <trkpt lat="47.67347" lon="2.14262">
        <ele>131</ele>
        <time>2017-02-05T08:48:48.940Z</time>
      </trkpt>
      <trkpt lat="47.67337" lon="2.14259">
        <ele>130</ele>
        <time>2017-02-05T08:48:49.946Z</time>
      </trkpt>
      <trkpt lat="47.67337" lon="2.14259">
        <ele>130</ele>
        <time>2017-02-05T08:48:50.946Z</time>
      </trkpt>
      <trkpt lat="47.67328" lon="2.14255">
        <ele>130</ele>
        <time>2017-02-05T08:48:51.946Z</time>
      </trkpt>
      <trkpt lat="47.67328" lon="2.14255">
        <ele>130</ele>
        <time>2017-02-05T08:48:52.944Z</time>
      </trkpt>
      <trkpt lat="47.67318" lon="2.1425">
        <ele>129</ele>
        <time>2017-02-05T08:48:53.927Z</time>
      </trkpt>
      <trkpt lat="47.67314" lon="2.14248">
        <ele>129</ele>
        <time>2017-02-05T08:48:54.925Z</time>
      </trkpt>
      <trkpt lat="47.67309" lon="2.14245">
        <ele>129</ele>
        <time>2017-02-05T08:48:55.957Z</time>
      </trkpt>
      <trkpt lat="47.67309" lon="2.14245">
        <ele>129</ele>
        <time>2017-02-05T08:48:56.934Z</time>
      </trkpt>
      <trkpt lat="47.673" lon="2.1424">
        <ele>129</ele>
        <time>2017-02-05T08:48:57.944Z</time>
      </trkpt>
      <trkpt lat="47.673" lon="2.1424">
        <ele>129</ele>
        <time>2017-02-05T08:48:58.956Z</time>
      </trkpt>
      <trkpt lat="47.67291" lon="2.14235">
        <ele>128</ele>
        <time>2017-02-05T08:48:59.949Z</time>
      </trkpt>
      <trkpt lat="47.67286" lon="2.14232">
        <ele>128</ele>
        <time>2017-02-05T08:49:00.950Z</time>
      </trkpt>
      <trkpt lat="47.67286" lon="2.14232">
        <ele>128</ele>
        <time>2017-02-05T08:49:01.943Z</time>
      </trkpt>
      <trkpt lat="47.67277" lon="2.14227">
        <ele>128</ele>
        <time>2017-02-05T08:49:02.947Z</time>
      </trkpt>
      <trkpt lat="47.67277" lon="2.14227">
        <ele>128</ele>
        <time>2017-02-05T08:49:03.945Z</time>
      </trkpt>
      <trkpt lat="47.67269" lon="2.1422">
        <ele>128</ele>
        <time>2017-02-05T08:49:04.948Z</time>
      </trkpt>
      <trkpt lat="47.67265" lon="2.14217">
        <ele>128</ele>
        <time>2017-02-05T08:49:05.946Z</time>
      </trkpt>
      <trkpt lat="47.67265" lon="2.14217">
        <ele>128</ele>
        <time>2017-02-05T08:49:06.945Z</time>
      </trkpt>
      <trkpt lat="47.67258" lon="2.14212">
        <ele>129</ele>
        <time>2017-02-05T08:49:07.958Z</time>
      </trkpt>
      <trkpt lat="47.67258" lon="2.14212">
        <ele>129</ele>
        <time>2017-02-05T08:49:08.941Z</time>
      </trkpt>
      <trkpt lat="47.67251" lon="2.14207">
        <ele>129</ele>
        <time>2017-02-05T08:49:09.948Z</time>
      </trkpt>
      <trkpt lat="47.67248" lon="2.14205">
        <ele>129</ele>
        <time>2017-02-05T08:49:10.945Z</time>
      </trkpt>
      <trkpt lat="47.67245" lon="2.14203">
        <ele>129</ele>
        <time>2017-02-05T08:49:11.948Z</time>
      </trkpt>
      <trkpt lat="47.67245" lon="2.14203">
        <ele>129</ele>
        <time>2017-02-05T08:49:12.940Z</time>
      </trkpt>
      <trkpt lat="47.67239" lon="2.14199">
        <ele>130</ele>
        <time>2017-02-05T08:49:13.948Z</time>
      </trkpt>
      <trkpt lat="47.67239" lon="2.14199">
        <ele>130</ele>
        <time>2017-02-05T08:49:14.944Z</time>
      </trkpt>
      <trkpt lat="47.67233" lon="2.14196">
        <ele>131</ele>
        <time>2017-02-05T08:49:15.948Z</time>
      </trkpt>
      <trkpt lat="47.67233" lon="2.14196">
        <ele>131</ele>
        <time>2017-02-05T08:49:16.932Z</time>
      </trkpt>
      <trkpt lat="47.67228" lon="2.14192">
        <ele>131</ele>
        <time>2017-02-05T08:49:17.932Z</time>
      </trkpt>
      <trkpt lat="47.67228" lon="2.14192">
        <ele>131</ele>
        <time>2017-02-05T08:49:18.941Z</time>
      </trkpt>
      <trkpt lat="47.67222" lon="2.14189">
        <ele>132</ele>
        <time>2017-02-05T08:49:19.947Z</time>
      </trkpt>
      <trkpt lat="47.67222" lon="2.14189">
        <ele>132</ele>
        <time>2017-02-05T08:49:20.943Z</time>
      </trkpt>
      <trkpt lat="47.67216" lon="2.14185">
        <ele>133</ele>
        <time>2017-02-05T08:49:21.947Z</time>
      </trkpt>
      <trkpt lat="47.67216" lon="2.14185">
        <ele>133</ele>
        <time>2017-02-05T08:49:22.954Z</time>
      </trkpt>
      <trkpt lat="47.6721" lon="2.14182">
        <ele>133</ele>
        <time>2017-02-05T08:49:23.948Z</time>
      </trkpt>
      <trkpt lat="47.6721" lon="2.14182">
        <ele>133</ele>
        <time>2017-02-05T08:49:24.943Z</time>
      </trkpt>
      <trkpt lat="47.67203" lon="2.14178">
        <ele>134</ele>
        <time>2017-02-05T08:49:25.947Z</time>
      </trkpt>
      <trkpt lat="47.67203" lon="2.14178">
        <ele>134</ele>
        <time>2017-02-05T08:49:26.944Z</time>
      </trkpt>
      <trkpt lat="47.67197" lon="2.14174">
        <ele>135</ele>
        <time>2017-02-05T08:49:27.946Z</time>
      </trkpt>
      <trkpt lat="47.67197" lon="2.14174">
        <ele>135</ele>
        <time>2017-02-05T08:49:28.943Z</time>
      </trkpt>
      <trkpt lat="47.67191" lon="2.1417">
        <ele>135</ele>
        <time>2017-02-05T08:49:29.948Z</time>
      </trkpt>
      <trkpt lat="47.67191" lon="2.1417">
        <ele>135</ele>
        <time>2017-02-05T08:49:30.944Z</time>
      </trkpt>
      <trkpt lat="47.67183" lon="2.14167">
        <ele>135</ele>
        <time>2017-02-05T08:49:31.948Z</time>
      </trkpt>
      <trkpt lat="47.67183" lon="2.14167">
        <ele>135</ele>
        <time>2017-02-05T08:49:32.946Z</time>
      </trkpt>
      <trkpt lat="47.67176" lon="2.14164">
        <ele>136</ele>
        <time>2017-02-05T08:49:33.947Z</time>
      </trkpt>
      <trkpt lat="47.67172" lon="2.14164">
        <ele>136</ele>
        <time>2017-02-05T08:49:34.947Z</time>
      </trkpt>
      <trkpt lat="47.67169" lon="2.14162">
        <ele>136</ele>
        <time>2017-02-05T08:49:35.948Z</time>
      </trkpt>
      <trkpt lat="47.67169" lon="2.14162">
        <ele>136</ele>
        <time>2017-02-05T08:49:36.945Z</time>
      </trkpt>
      <trkpt lat="47.67161" lon="2.14161">
        <ele>137</ele>
        <time>2017-02-05T08:49:37.948Z</time>
      </trkpt>
      <trkpt lat="47.67161" lon="2.14161">
        <ele>137</ele>
        <time>2017-02-05T08:49:38.943Z</time>
      </trkpt>
      <trkpt lat="47.67153" lon="2.14159">
        <ele>136</ele>
        <time>2017-02-05T08:49:39.948Z</time>
      </trkpt>
      <trkpt lat="47.67148" lon="2.14158">
        <ele>136</ele>
        <time>2017-02-05T08:49:40.931Z</time>
      </trkpt>
      <trkpt lat="47.67148" lon="2.14158">
        <ele>136</ele>
        <time>2017-02-05T08:49:41.958Z</time>
      </trkpt>
      <trkpt lat="47.6714" lon="2.14157">
        <ele>137</ele>
        <time>2017-02-05T08:49:42.949Z</time>
      </trkpt>
      <trkpt lat="47.6714" lon="2.14157">
        <ele>137</ele>
        <time>2017-02-05T08:49:43.945Z</time>
      </trkpt>
      <trkpt lat="47.67133" lon="2.14157">
        <ele>137</ele>
        <time>2017-02-05T08:49:44.947Z</time>
      </trkpt>
      <trkpt lat="47.67133" lon="2.14157">
        <ele>137</ele>
        <time>2017-02-05T08:49:45.941Z</time>
      </trkpt>
      <trkpt lat="47.67125" lon="2.14157">
        <ele>138</ele>
        <time>2017-02-05T08:49:46.947Z</time>
      </trkpt>
      <trkpt lat="47.67125" lon="2.14157">
        <ele>138</ele>
        <time>2017-02-05T08:49:47.943Z</time>
      </trkpt>
      <trkpt lat="47.67117" lon="2.14159">
        <ele>138</ele>
        <time>2017-02-05T08:49:48.947Z</time>
      </trkpt>
      <trkpt lat="47.67112" lon="2.14159">
        <ele>139</ele>
        <time>2017-02-05T08:49:49.946Z</time>
      </trkpt>
      <trkpt lat="47.67112" lon="2.14159">
        <ele>139</ele>
        <time>2017-02-05T08:49:50.940Z</time>
      </trkpt>
      <trkpt lat="47.67104" lon="2.14162">
        <ele>139</ele>
        <time>2017-02-05T08:49:51.945Z</time>
      </trkpt>
      <trkpt lat="47.67099" lon="2.14163">
        <ele>139</ele>
        <time>2017-02-05T08:49:52.944Z</time>
      </trkpt>
      <trkpt lat="47.67099" lon="2.14163">
        <ele>139</ele>
        <time>2017-02-05T08:49:53.937Z</time>
      </trkpt>
      <trkpt lat="47.67091" lon="2.14165">
        <ele>140</ele>
        <time>2017-02-05T08:49:54.946Z</time>
      </trkpt>
      <trkpt lat="47.67087" lon="2.14166">
        <ele>140</ele>
        <time>2017-02-05T08:49:55.944Z</time>
      </trkpt>
      <trkpt lat="47.67087" lon="2.14166">
        <ele>140</ele>
        <time>2017-02-05T08:49:56.950Z</time>
      </trkpt>
      <trkpt lat="47.67077" lon="2.14167">
        <ele>139</ele>
        <time>2017-02-05T08:49:57.946Z</time>
      </trkpt>
      <trkpt lat="47.67077" lon="2.14167">
        <ele>139</ele>
        <time>2017-02-05T08:49:58.941Z</time>
      </trkpt>
      <trkpt lat="47.67067" lon="2.14168">
        <ele>139</ele>
        <time>2017-02-05T08:49:59.947Z</time>
      </trkpt>
      <trkpt lat="47.67067" lon="2.14168">
        <ele>139</ele>
        <time>2017-02-05T08:50:00.944Z</time>
      </trkpt>
      <trkpt lat="47.67058" lon="2.14169">
        <ele>139</ele>
        <time>2017-02-05T08:50:01.948Z</time>
      </trkpt>
      <trkpt lat="47.67058" lon="2.14169">
        <ele>139</ele>
        <time>2017-02-05T08:50:02.942Z</time>
      </trkpt>
      <trkpt lat="47.67049" lon="2.14169">
        <ele>139</ele>
        <time>2017-02-05T08:50:03.955Z</time>
      </trkpt>
      <trkpt lat="47.67044" lon="2.14169">
        <ele>139</ele>
        <time>2017-02-05T08:50:04.948Z</time>
      </trkpt>
      <trkpt lat="47.6704" lon="2.14171">
        <ele>139</ele>
        <time>2017-02-05T08:50:05.948Z</time>
      </trkpt>
      <trkpt lat="47.6704" lon="2.14171">
        <ele>139</ele>
        <time>2017-02-05T08:50:06.941Z</time>
      </trkpt>
      <trkpt lat="47.67032" lon="2.14173">
        <ele>139</ele>
        <time>2017-02-05T08:50:07.958Z</time>
      </trkpt>
      <trkpt lat="47.67032" lon="2.14173">
        <ele>139</ele>
        <time>2017-02-05T08:50:08.951Z</time>
      </trkpt>
      <trkpt lat="47.67023" lon="2.14177">
        <ele>138</ele>
        <time>2017-02-05T08:50:09.957Z</time>
      </trkpt>
      <trkpt lat="47.67023" lon="2.14177">
        <ele>138</ele>
        <time>2017-02-05T08:50:10.924Z</time>
      </trkpt>
      <trkpt lat="47.67014" lon="2.1418">
        <ele>138</ele>
        <time>2017-02-05T08:50:11.932Z</time>
      </trkpt>
      <trkpt lat="47.67009" lon="2.14182">
        <ele>138</ele>
        <time>2017-02-05T08:50:12.961Z</time>
      </trkpt>
      <trkpt lat="47.67004" lon="2.14184">
        <ele>137</ele>
        <time>2017-02-05T08:50:13.952Z</time>
      </trkpt>
      <trkpt lat="47.67004" lon="2.14184">
        <ele>137</ele>
        <time>2017-02-05T08:50:14.953Z</time>
      </trkpt>
      <trkpt lat="47.66994" lon="2.14188">
        <ele>137</ele>
        <time>2017-02-05T08:50:15.946Z</time>
      </trkpt>
      <trkpt lat="47.66994" lon="2.14188">
        <ele>137</ele>
        <time>2017-02-05T08:50:16.955Z</time>
      </trkpt>
      <trkpt lat="47.66984" lon="2.14191">
        <ele>136</ele>
        <time>2017-02-05T08:50:17.949Z</time>
      </trkpt>
      <trkpt lat="47.66984" lon="2.14191">
        <ele>136</ele>
        <time>2017-02-05T08:50:18.944Z</time>
      </trkpt>
      <trkpt lat="47.66975" lon="2.14195">
        <ele>136</ele>
        <time>2017-02-05T08:50:19.946Z</time>
      </trkpt>
      <trkpt lat="47.6697" lon="2.14198">
        <ele>136</ele>
        <time>2017-02-05T08:50:20.946Z</time>
      </trkpt>
      <trkpt lat="47.66966" lon="2.142">
        <ele>136</ele>
        <time>2017-02-05T08:50:21.948Z</time>
      </trkpt>
      <trkpt lat="47.66966" lon="2.142">
        <ele>136</ele>
        <time>2017-02-05T08:50:22.944Z</time>
      </trkpt>
      <trkpt lat="47.66957" lon="2.14205">
        <ele>136</ele>
        <time>2017-02-05T08:50:23.949Z</time>
      </trkpt>
      <trkpt lat="47.66957" lon="2.14205">
        <ele>136</ele>
        <time>2017-02-05T08:50:24.944Z</time>
      </trkpt>
      <trkpt lat="47.66947" lon="2.14209">
        <ele>136</ele>
        <time>2017-02-05T08:50:25.946Z</time>
      </trkpt>
      <trkpt lat="47.66947" lon="2.14209">
        <ele>136</ele>
        <time>2017-02-05T08:50:26.944Z</time>
      </trkpt>
      <trkpt lat="47.66937" lon="2.14213">
        <ele>135</ele>
        <time>2017-02-05T08:50:27.958Z</time>
      </trkpt>
      <trkpt lat="47.66937" lon="2.14213">
        <ele>135</ele>
        <time>2017-02-05T08:50:28.948Z</time>
      </trkpt>
      <trkpt lat="47.66929" lon="2.14219">
        <ele>135</ele>
        <time>2017-02-05T08:50:29.953Z</time>
      </trkpt>
      <trkpt lat="47.66929" lon="2.14219">
        <ele>135</ele>
        <time>2017-02-05T08:50:30.945Z</time>
      </trkpt>
      <trkpt lat="47.6692" lon="2.14223">
        <ele>135</ele>
        <time>2017-02-05T08:50:31.956Z</time>
      </trkpt>
      <trkpt lat="47.6692" lon="2.14223">
        <ele>135</ele>
        <time>2017-02-05T08:50:32.945Z</time>
      </trkpt>
      <trkpt lat="47.66911" lon="2.14227">
        <ele>135</ele>
        <time>2017-02-05T08:50:33.947Z</time>
      </trkpt>
      <trkpt lat="47.66906" lon="2.14228">
        <ele>135</ele>
        <time>2017-02-05T08:50:34.947Z</time>
      </trkpt>
      <trkpt lat="47.66902" lon="2.14229">
        <ele>135</ele>
        <time>2017-02-05T08:50:35.948Z</time>
      </trkpt>
      <trkpt lat="47.66902" lon="2.14229">
        <ele>135</ele>
        <time>2017-02-05T08:50:36.944Z</time>
      </trkpt>
      <trkpt lat="47.66892" lon="2.14231">
        <ele>135</ele>
        <time>2017-02-05T08:50:37.949Z</time>
      </trkpt>
      <trkpt lat="47.66892" lon="2.14231">
        <ele>135</ele>
        <time>2017-02-05T08:50:38.945Z</time>
      </trkpt>
      <trkpt lat="47.66883" lon="2.14231">
        <ele>135</ele>
        <time>2017-02-05T08:50:39.944Z</time>
      </trkpt>
      <trkpt lat="47.66883" lon="2.14231">
        <ele>135</ele>
        <time>2017-02-05T08:50:40.945Z</time>
      </trkpt>
      <trkpt lat="47.66873" lon="2.1423">
        <ele>135</ele>
        <time>2017-02-05T08:50:41.946Z</time>
      </trkpt>
      <trkpt lat="47.66873" lon="2.1423">
        <ele>135</ele>
        <time>2017-02-05T08:50:42.944Z</time>
      </trkpt>
      <trkpt lat="47.66865" lon="2.14228">
        <ele>135</ele>
        <time>2017-02-05T08:50:43.948Z</time>
      </trkpt>
      <trkpt lat="47.66865" lon="2.14228">
        <ele>135</ele>
        <time>2017-02-05T08:50:44.943Z</time>
      </trkpt>
      <trkpt lat="47.66856" lon="2.14225">
        <ele>135</ele>
        <time>2017-02-05T08:50:45.943Z</time>
      </trkpt>
      <trkpt lat="47.66852" lon="2.14224">
        <ele>135</ele>
        <time>2017-02-05T08:50:46.947Z</time>
      </trkpt>
      <trkpt lat="47.66852" lon="2.14224">
        <ele>135</ele>
        <time>2017-02-05T08:50:47.943Z</time>
      </trkpt>
      <trkpt lat="47.66843" lon="2.14222">
        <ele>136</ele>
        <time>2017-02-05T08:50:48.947Z</time>
      </trkpt>
      <trkpt lat="47.66839" lon="2.14221">
        <ele>136</ele>
        <time>2017-02-05T08:50:49.946Z</time>
      </trkpt>
      <trkpt lat="47.66839" lon="2.14221">
        <ele>136</ele>
        <time>2017-02-05T08:50:50.942Z</time>
      </trkpt>
      <trkpt lat="47.66831" lon="2.1422">
        <ele>136</ele>
        <time>2017-02-05T08:50:51.946Z</time>
      </trkpt>
      <trkpt lat="47.66831" lon="2.1422">
        <ele>136</ele>
        <time>2017-02-05T08:50:52.944Z</time>
      </trkpt>
      <trkpt lat="47.66823" lon="2.14219">
        <ele>136</ele>
        <time>2017-02-05T08:50:53.950Z</time>
      </trkpt>
      <trkpt lat="47.66823" lon="2.14219">
        <ele>136</ele>
        <time>2017-02-05T08:50:54.943Z</time>
      </trkpt>
      <trkpt lat="47.66813" lon="2.14219">
        <ele>136</ele>
        <time>2017-02-05T08:50:55.948Z</time>
      </trkpt>
      <trkpt lat="47.66813" lon="2.14219">
        <ele>136</ele>
        <time>2017-02-05T08:50:56.945Z</time>
      </trkpt>
      <trkpt lat="47.66804" lon="2.14221">
        <ele>137</ele>
        <time>2017-02-05T08:50:57.949Z</time>
      </trkpt>
      <trkpt lat="47.66804" lon="2.14221">
        <ele>137</ele>
        <time>2017-02-05T08:50:58.945Z</time>
      </trkpt>
      <trkpt lat="47.66795" lon="2.14225">
        <ele>137</ele>
        <time>2017-02-05T08:50:59.948Z</time>
      </trkpt>
      <trkpt lat="47.66795" lon="2.14225">
        <ele>137</ele>
        <time>2017-02-05T08:51:00.946Z</time>
      </trkpt>
      <trkpt lat="47.66788" lon="2.14231">
        <ele>137</ele>
        <time>2017-02-05T08:51:01.948Z</time>
      </trkpt>
      <trkpt lat="47.66788" lon="2.14231">
        <ele>137</ele>
        <time>2017-02-05T08:51:02.945Z</time>
      </trkpt>
      <trkpt lat="47.66782" lon="2.1424">
        <ele>138</ele>
        <time>2017-02-05T08:51:03.947Z</time>
      </trkpt>
      <trkpt lat="47.6678" lon="2.14243">
        <ele>138</ele>
        <time>2017-02-05T08:51:04.925Z</time>
      </trkpt>
      <trkpt lat="47.66777" lon="2.14248">
        <ele>137</ele>
        <time>2017-02-05T08:51:05.957Z</time>
      </trkpt>
      <trkpt lat="47.66773" lon="2.14253">
        <ele>137</ele>
        <time>2017-02-05T08:51:06.948Z</time>
      </trkpt>
      <trkpt lat="47.66773" lon="2.14253">
        <ele>137</ele>
        <time>2017-02-05T08:51:07.958Z</time>
      </trkpt>
      <trkpt lat="47.66769" lon="2.14261">
        <ele>137</ele>
        <time>2017-02-05T08:51:08.944Z</time>
      </trkpt>
      <trkpt lat="47.66769" lon="2.14261">
        <ele>137</ele>
        <time>2017-02-05T08:51:09.943Z</time>
      </trkpt>
      <trkpt lat="47.66763" lon="2.14271">
        <ele>137</ele>
        <time>2017-02-05T08:51:10.949Z</time>
      </trkpt>
      <trkpt lat="47.66763" lon="2.14271">
        <ele>137</ele>
        <time>2017-02-05T08:51:11.943Z</time>
      </trkpt>
      <trkpt lat="47.66758" lon="2.14279">
        <ele>137</ele>
        <time>2017-02-05T08:51:12.947Z</time>
      </trkpt>
      <trkpt lat="47.66758" lon="2.14279">
        <ele>137</ele>
        <time>2017-02-05T08:51:13.946Z</time>
      </trkpt>
      <trkpt lat="47.66753" lon="2.14287">
        <ele>137</ele>
        <time>2017-02-05T08:51:14.944Z</time>
      </trkpt>
      <trkpt lat="47.6675" lon="2.14292">
        <ele>137</ele>
        <time>2017-02-05T08:51:15.947Z</time>
      </trkpt>
      <trkpt lat="47.66745" lon="2.14298">
        <ele>137</ele>
        <time>2017-02-05T08:51:16.941Z</time>
      </trkpt>
      <trkpt lat="47.66745" lon="2.14298">
        <ele>137</ele>
        <time>2017-02-05T08:51:17.942Z</time>
      </trkpt>
      <trkpt lat="47.66737" lon="2.14307">
        <ele>137</ele>
        <time>2017-02-05T08:51:18.948Z</time>
      </trkpt>
      <trkpt lat="47.66732" lon="2.14312">
        <ele>137</ele>
        <time>2017-02-05T08:51:19.946Z</time>
      </trkpt>
      <trkpt lat="47.66732" lon="2.14312">
        <ele>137</ele>
        <time>2017-02-05T08:51:20.942Z</time>
      </trkpt>
      <trkpt lat="47.66724" lon="2.1432">
        <ele>137</ele>
        <time>2017-02-05T08:51:21.944Z</time>
      </trkpt>
      <trkpt lat="47.66724" lon="2.1432">
        <ele>137</ele>
        <time>2017-02-05T08:51:22.944Z</time>
      </trkpt>
      <trkpt lat="47.66716" lon="2.14327">
        <ele>137</ele>
        <time>2017-02-05T08:51:23.949Z</time>
      </trkpt>
      <trkpt lat="47.66716" lon="2.14327">
        <ele>137</ele>
        <time>2017-02-05T08:51:24.946Z</time>
      </trkpt>
      <trkpt lat="47.66708" lon="2.14333">
        <ele>137</ele>
        <time>2017-02-05T08:51:25.950Z</time>
      </trkpt>
      <trkpt lat="47.66708" lon="2.14333">
        <ele>137</ele>
        <time>2017-02-05T08:51:26.944Z</time>
      </trkpt>
      <trkpt lat="47.667" lon="2.14339">
        <ele>137</ele>
        <time>2017-02-05T08:51:27.948Z</time>
      </trkpt>
      <trkpt lat="47.667" lon="2.14339">
        <ele>137</ele>
        <time>2017-02-05T08:51:28.945Z</time>
      </trkpt>
      <trkpt lat="47.66692" lon="2.14346">
        <ele>136</ele>
        <time>2017-02-05T08:51:29.949Z</time>
      </trkpt>
      <trkpt lat="47.66692" lon="2.14346">
        <ele>136</ele>
        <time>2017-02-05T08:51:30.945Z</time>
      </trkpt>
      <trkpt lat="47.66684" lon="2.14352">
        <ele>136</ele>
        <time>2017-02-05T08:51:31.948Z</time>
      </trkpt>
      <trkpt lat="47.66684" lon="2.14352">
        <ele>136</ele>
        <time>2017-02-05T08:51:32.946Z</time>
      </trkpt>
      <trkpt lat="47.66676" lon="2.1436">
        <ele>136</ele>
        <time>2017-02-05T08:51:33.948Z</time>
      </trkpt>
      <trkpt lat="47.66676" lon="2.1436">
        <ele>136</ele>
        <time>2017-02-05T08:51:34.941Z</time>
      </trkpt>
      <trkpt lat="47.66668" lon="2.14368">
        <ele>135</ele>
        <time>2017-02-05T08:51:35.949Z</time>
      </trkpt>
      <trkpt lat="47.66668" lon="2.14368">
        <ele>135</ele>
        <time>2017-02-05T08:51:36.945Z</time>
      </trkpt>
      <trkpt lat="47.66659" lon="2.14375">
        <ele>135</ele>
        <time>2017-02-05T08:51:37.948Z</time>
      </trkpt>
      <trkpt lat="47.66659" lon="2.14375">
        <ele>135</ele>
        <time>2017-02-05T08:51:38.942Z</time>
      </trkpt>
      <trkpt lat="47.66651" lon="2.14381">
        <ele>135</ele>
        <time>2017-02-05T08:51:39.944Z</time>
      </trkpt>
      <trkpt lat="47.66651" lon="2.14381">
        <ele>135</ele>
        <time>2017-02-05T08:51:40.934Z</time>
      </trkpt>
      <trkpt lat="47.66642" lon="2.14387">
        <ele>135</ele>
        <time>2017-02-05T08:51:41.955Z</time>
      </trkpt>
      <trkpt lat="47.66642" lon="2.14387">
        <ele>135</ele>
        <time>2017-02-05T08:51:42.944Z</time>
      </trkpt>
      <trkpt lat="47.66634" lon="2.14392">
        <ele>134</ele>
        <time>2017-02-05T08:51:43.960Z</time>
      </trkpt>
      <trkpt lat="47.66634" lon="2.14392">
        <ele>134</ele>
        <time>2017-02-05T08:51:44.948Z</time>
      </trkpt>
      <trkpt lat="47.66626" lon="2.14397">
        <ele>134</ele>
        <time>2017-02-05T08:51:45.950Z</time>
      </trkpt>
      <trkpt lat="47.66626" lon="2.14397">
        <ele>134</ele>
        <time>2017-02-05T08:51:46.941Z</time>
      </trkpt>
      <trkpt lat="47.66617" lon="2.14401">
        <ele>135</ele>
        <time>2017-02-05T08:51:47.949Z</time>
      </trkpt>
      <trkpt lat="47.66617" lon="2.14401">
        <ele>135</ele>
        <time>2017-02-05T08:51:48.944Z</time>
      </trkpt>
      <trkpt lat="47.6661" lon="2.14406">
        <ele>136</ele>
        <time>2017-02-05T08:51:49.948Z</time>
      </trkpt>
      <trkpt lat="47.6661" lon="2.14406">
        <ele>136</ele>
        <time>2017-02-05T08:51:50.944Z</time>
      </trkpt>
      <trkpt lat="47.66602" lon="2.14411">
        <ele>136</ele>
        <time>2017-02-05T08:51:51.948Z</time>
      </trkpt>
      <trkpt lat="47.66602" lon="2.14411">
        <ele>136</ele>
        <time>2017-02-05T08:51:52.946Z</time>
      </trkpt>
      <trkpt lat="47.66596" lon="2.14414">
        <ele>136</ele>
        <time>2017-02-05T08:51:53.947Z</time>
      </trkpt>
      <trkpt lat="47.66596" lon="2.14414">
        <ele>136</ele>
        <time>2017-02-05T08:51:54.946Z</time>
      </trkpt>
      <trkpt lat="47.66589" lon="2.14416">
        <ele>137</ele>
        <time>2017-02-05T08:51:55.949Z</time>
      </trkpt>
      <trkpt lat="47.66589" lon="2.14416">
        <ele>137</ele>
        <time>2017-02-05T08:51:56.944Z</time>
      </trkpt>
      <trkpt lat="47.66581" lon="2.14416">
        <ele>138</ele>
        <time>2017-02-05T08:51:57.958Z</time>
      </trkpt>
      <trkpt lat="47.66581" lon="2.14416">
        <ele>138</ele>
        <time>2017-02-05T08:51:58.949Z</time>
      </trkpt>
      <trkpt lat="47.66575" lon="2.14415">
        <ele>139</ele>
        <time>2017-02-05T08:51:59.950Z</time>
      </trkpt>
      <trkpt lat="47.66575" lon="2.14415">
        <ele>139</ele>
        <time>2017-02-05T08:52:00.943Z</time>
      </trkpt>
      <trkpt lat="47.66569" lon="2.14413">
        <ele>139</ele>
        <time>2017-02-05T08:52:01.946Z</time>
      </trkpt>
      <trkpt lat="47.66569" lon="2.14413">
        <ele>139</ele>
        <time>2017-02-05T08:52:02.942Z</time>
      </trkpt>
      <trkpt lat="47.66563" lon="2.14412">
        <ele>140</ele>
        <time>2017-02-05T08:52:03.949Z</time>
      </trkpt>
      <trkpt lat="47.66563" lon="2.14412">
        <ele>140</ele>
        <time>2017-02-05T08:52:04.943Z</time>
      </trkpt>
      <trkpt lat="47.66557" lon="2.14412">
        <ele>140</ele>
        <time>2017-02-05T08:52:05.947Z</time>
      </trkpt>
      <trkpt lat="47.66557" lon="2.14412">
        <ele>140</ele>
        <time>2017-02-05T08:52:06.943Z</time>
      </trkpt>
      <trkpt lat="47.6655" lon="2.14412">
        <ele>141</ele>
        <time>2017-02-05T08:52:07.960Z</time>
      </trkpt>
      <trkpt lat="47.6655" lon="2.14412">
        <ele>141</ele>
        <time>2017-02-05T08:52:08.937Z</time>
      </trkpt>
      <trkpt lat="47.66547" lon="2.14412">
        <ele>141</ele>
        <time>2017-02-05T08:52:09.944Z</time>
      </trkpt>
      <trkpt lat="47.66545" lon="2.14413">
        <ele>142</ele>
        <time>2017-02-05T08:52:10.949Z</time>
      </trkpt>
      <trkpt lat="47.66542" lon="2.14413">
        <ele>141</ele>
        <time>2017-02-05T08:52:11.949Z</time>
      </trkpt>
      <trkpt lat="47.66542" lon="2.14413">
        <ele>141</ele>
        <time>2017-02-05T08:52:12.958Z</time>
      </trkpt>
      <trkpt lat="47.66539" lon="2.14417">
        <ele>141</ele>
        <time>2017-02-05T08:52:13.948Z</time>
      </trkpt>
      <trkpt lat="47.66538" lon="2.14419">
        <ele>142</ele>
        <time>2017-02-05T08:52:14.948Z</time>
      </trkpt>
      <trkpt lat="47.66538" lon="2.14419">
        <ele>142</ele>
        <time>2017-02-05T08:52:15.943Z</time>
      </trkpt>
      <trkpt lat="47.66537" lon="2.14422">
        <ele>142</ele>
        <time>2017-02-05T08:52:16.941Z</time>
      </trkpt>
      <trkpt lat="47.66537" lon="2.14423">
        <ele>142</ele>
        <time>2017-02-05T08:52:17.947Z</time>
      </trkpt>
      <trkpt lat="47.66537" lon="2.14423">
        <ele>142</ele>
        <time>2017-02-05T08:52:18.949Z</time>
      </trkpt>
      <trkpt lat="47.66536" lon="2.14427">
        <ele>142</ele>
        <time>2017-02-05T08:52:19.949Z</time>
      </trkpt>
      <trkpt lat="47.66536" lon="2.14429">
        <ele>142</ele>
        <time>2017-02-05T08:52:20.950Z</time>
      </trkpt>
      <trkpt lat="47.66536" lon="2.14429">
        <ele>142</ele>
        <time>2017-02-05T08:52:21.944Z</time>
      </trkpt>
      <trkpt lat="47.66535" lon="2.14431">
        <ele>141</ele>
        <time>2017-02-05T08:52:22.949Z</time>
      </trkpt>
      <trkpt lat="47.66535" lon="2.14431">
        <ele>141</ele>
        <time>2017-02-05T08:52:23.944Z</time>
      </trkpt>
      <trkpt lat="47.66534" lon="2.14432">
        <ele>141</ele>
        <time>2017-02-05T08:52:24.953Z</time>
      </trkpt>
      <trkpt lat="47.66534" lon="2.14432">
        <ele>141</ele>
        <time>2017-02-05T08:52:25.945Z</time>
      </trkpt>
      <trkpt lat="47.66527" lon="2.14435">
        <ele>141</ele>
        <time>2017-02-05T08:52:26.951Z</time>
      </trkpt>
      <trkpt lat="47.66527" lon="2.14435">
        <ele>141</ele>
        <time>2017-02-05T08:52:27.939Z</time>
      </trkpt>
      <trkpt lat="47.66525" lon="2.14432">
        <ele>141</ele>
        <time>2017-02-05T08:52:28.937Z</time>
      </trkpt>
      <trkpt lat="47.66525" lon="2.14432">
        <ele>141</ele>
        <time>2017-02-05T08:52:29.932Z</time>
      </trkpt>
      <trkpt lat="47.6652" lon="2.1443">
        <ele>141</ele>
        <time>2017-02-05T08:52:30.937Z</time>
      </trkpt>
      <trkpt lat="47.6652" lon="2.1443">
        <ele>141</ele>
        <time>2017-02-05T08:52:31.932Z</time>
      </trkpt>
      <trkpt lat="47.66513" lon="2.14429">
        <ele>141</ele>
        <time>2017-02-05T08:52:32.953Z</time>
      </trkpt>
      <trkpt lat="47.66513" lon="2.14429">
        <ele>141</ele>
        <time>2017-02-05T08:52:33.942Z</time>
      </trkpt>
      <trkpt lat="47.66504" lon="2.14429">
        <ele>141</ele>
        <time>2017-02-05T08:52:34.941Z</time>
      </trkpt>
      <trkpt lat="47.665" lon="2.14428">
        <ele>141</ele>
        <time>2017-02-05T08:52:35.938Z</time>
      </trkpt>
      <trkpt lat="47.665" lon="2.14428">
        <ele>141</ele>
        <time>2017-02-05T08:52:36.935Z</time>
      </trkpt>
      <trkpt lat="47.66492" lon="2.14428">
        <ele>140</ele>
        <time>2017-02-05T08:52:37.955Z</time>
      </trkpt>
      <trkpt lat="47.66488" lon="2.14427">
        <ele>140</ele>
        <time>2017-02-05T08:52:38.947Z</time>
      </trkpt>
      <trkpt lat="47.66488" lon="2.14427">
        <ele>140</ele>
        <time>2017-02-05T08:52:39.938Z</time>
      </trkpt>
      <trkpt lat="47.6648" lon="2.14426">
        <ele>140</ele>
        <time>2017-02-05T08:52:40.938Z</time>
      </trkpt>
      <trkpt lat="47.66476" lon="2.14425">
        <ele>140</ele>
        <time>2017-02-05T08:52:41.940Z</time>
      </trkpt>
      <trkpt lat="47.66476" lon="2.14425">
        <ele>140</ele>
        <time>2017-02-05T08:52:42.932Z</time>
      </trkpt>
      <trkpt lat="47.66468" lon="2.14423">
        <ele>139</ele>
        <time>2017-02-05T08:52:43.937Z</time>
      </trkpt>
      <trkpt lat="47.66468" lon="2.14423">
        <ele>139</ele>
        <time>2017-02-05T08:52:44.933Z</time>
      </trkpt>
      <trkpt lat="47.6646" lon="2.14422">
        <ele>139</ele>
        <time>2017-02-05T08:52:45.939Z</time>
      </trkpt>
      <trkpt lat="47.6646" lon="2.14422">
        <ele>139</ele>
        <time>2017-02-05T08:52:46.935Z</time>
      </trkpt>
      <trkpt lat="47.66452" lon="2.14419">
        <ele>139</ele>
        <time>2017-02-05T08:52:47.937Z</time>
      </trkpt>
      <trkpt lat="47.66452" lon="2.14419">
        <ele>139</ele>
        <time>2017-02-05T08:52:48.932Z</time>
      </trkpt>
      <trkpt lat="47.66444" lon="2.14417">
        <ele>139</ele>
        <time>2017-02-05T08:52:49.937Z</time>
      </trkpt>
      <trkpt lat="47.6644" lon="2.14416">
        <ele>139</ele>
        <time>2017-02-05T08:52:50.940Z</time>
      </trkpt>
      <trkpt lat="47.6644" lon="2.14416">
        <ele>139</ele>
        <time>2017-02-05T08:52:51.935Z</time>
      </trkpt>
      <trkpt lat="47.66432" lon="2.14414">
        <ele>139</ele>
        <time>2017-02-05T08:52:52.938Z</time>
      </trkpt>
      <trkpt lat="47.66432" lon="2.14414">
        <ele>139</ele>
        <time>2017-02-05T08:52:53.932Z</time>
      </trkpt>
      <trkpt lat="47.66424" lon="2.14412">
        <ele>139</ele>
        <time>2017-02-05T08:52:54.938Z</time>
      </trkpt>
      <trkpt lat="47.66424" lon="2.14412">
        <ele>139</ele>
        <time>2017-02-05T08:52:55.932Z</time>
      </trkpt>
      <trkpt lat="47.66415" lon="2.14411">
        <ele>139</ele>
        <time>2017-02-05T08:52:56.934Z</time>
      </trkpt>
      <trkpt lat="47.66411" lon="2.1441">
        <ele>139</ele>
        <time>2017-02-05T08:52:57.947Z</time>
      </trkpt>
      <trkpt lat="47.66411" lon="2.1441">
        <ele>139</ele>
        <time>2017-02-05T08:52:58.952Z</time>
      </trkpt>
      <trkpt lat="47.66402" lon="2.14408">
        <ele>139</ele>
        <time>2017-02-05T08:52:59.958Z</time>
      </trkpt>
      <trkpt lat="47.66398" lon="2.14407">
        <ele>139</ele>
        <time>2017-02-05T08:53:00.933Z</time>
      </trkpt>
      <trkpt lat="47.66398" lon="2.14407">
        <ele>139</ele>
        <time>2017-02-05T08:53:01.932Z</time>
      </trkpt>
      <trkpt lat="47.66391" lon="2.14405">
        <ele>139</ele>
        <time>2017-02-05T08:53:02.936Z</time>
      </trkpt>
      <trkpt lat="47.66391" lon="2.14405">
        <ele>139</ele>
        <time>2017-02-05T08:53:03.932Z</time>
      </trkpt>
      <trkpt lat="47.66383" lon="2.14403">
        <ele>139</ele>
        <time>2017-02-05T08:53:04.938Z</time>
      </trkpt>
      <trkpt lat="47.66379" lon="2.14401">
        <ele>139</ele>
        <time>2017-02-05T08:53:05.940Z</time>
      </trkpt>
      <trkpt lat="47.66379" lon="2.14401">
        <ele>139</ele>
        <time>2017-02-05T08:53:06.931Z</time>
      </trkpt>
      <trkpt lat="47.66372" lon="2.14399">
        <ele>139</ele>
        <time>2017-02-05T08:53:07.950Z</time>
      </trkpt>
      <trkpt lat="47.66369" lon="2.14399">
        <ele>139</ele>
        <time>2017-02-05T08:53:08.939Z</time>
      </trkpt>
      <trkpt lat="47.66369" lon="2.14399">
        <ele>139</ele>
        <time>2017-02-05T08:53:09.933Z</time>
      </trkpt>
      <trkpt lat="47.66362" lon="2.14398">
        <ele>139</ele>
        <time>2017-02-05T08:53:10.939Z</time>
      </trkpt>
      <trkpt lat="47.66362" lon="2.14398">
        <ele>139</ele>
        <time>2017-02-05T08:53:11.932Z</time>
      </trkpt>
      <trkpt lat="47.66354" lon="2.14396">
        <ele>138</ele>
        <time>2017-02-05T08:53:12.937Z</time>
      </trkpt>
      <trkpt lat="47.6635" lon="2.14396">
        <ele>138</ele>
        <time>2017-02-05T08:53:13.941Z</time>
      </trkpt>
      <trkpt lat="47.6635" lon="2.14396">
        <ele>138</ele>
        <time>2017-02-05T08:53:14.934Z</time>
      </trkpt>
      <trkpt lat="47.66344" lon="2.14395">
        <ele>138</ele>
        <time>2017-02-05T08:53:15.938Z</time>
      </trkpt>
      <trkpt lat="47.66344" lon="2.14395">
        <ele>138</ele>
        <time>2017-02-05T08:53:16.936Z</time>
      </trkpt>
      <trkpt lat="47.66338" lon="2.14395">
        <ele>139</ele>
        <time>2017-02-05T08:53:17.937Z</time>
      </trkpt>
      <trkpt lat="47.66334" lon="2.14395">
        <ele>139</ele>
        <time>2017-02-05T08:53:18.938Z</time>
      </trkpt>
      <trkpt lat="47.66334" lon="2.14395">
        <ele>139</ele>
        <time>2017-02-05T08:53:19.934Z</time>
      </trkpt>
      <trkpt lat="47.66328" lon="2.14395">
        <ele>138</ele>
        <time>2017-02-05T08:53:20.939Z</time>
      </trkpt>
      <trkpt lat="47.66328" lon="2.14395">
        <ele>138</ele>
        <time>2017-02-05T08:53:21.932Z</time>
      </trkpt>
      <trkpt lat="47.66322" lon="2.14394">
        <ele>139</ele>
        <time>2017-02-05T08:53:22.953Z</time>
      </trkpt>
      <trkpt lat="47.66322" lon="2.14394">
        <ele>139</ele>
        <time>2017-02-05T08:53:23.941Z</time>
      </trkpt>
      <trkpt lat="47.66315" lon="2.14394">
        <ele>139</ele>
        <time>2017-02-05T08:53:24.937Z</time>
      </trkpt>
      <trkpt lat="47.66312" lon="2.14395">
        <ele>139</ele>
        <time>2017-02-05T08:53:25.937Z</time>
      </trkpt>
      <trkpt lat="47.66309" lon="2.14394">
        <ele>139</ele>
        <time>2017-02-05T08:53:26.936Z</time>
      </trkpt>
      <trkpt lat="47.66309" lon="2.14394">
        <ele>139</ele>
        <time>2017-02-05T08:53:27.932Z</time>
      </trkpt>
      <trkpt lat="47.66303" lon="2.14389">
        <ele>141</ele>
        <time>2017-02-05T08:53:28.937Z</time>
      </trkpt>
      <trkpt lat="47.66303" lon="2.14389">
        <ele>141</ele>
        <time>2017-02-05T08:53:29.934Z</time>
      </trkpt>
      <trkpt lat="47.66297" lon="2.14388">
        <ele>141</ele>
        <time>2017-02-05T08:53:30.935Z</time>
      </trkpt>
      <trkpt lat="47.66294" lon="2.14387">
        <ele>141</ele>
        <time>2017-02-05T08:53:31.941Z</time>
      </trkpt>
      <trkpt lat="47.66294" lon="2.14387">
        <ele>141</ele>
        <time>2017-02-05T08:53:32.935Z</time>
      </trkpt>
      <trkpt lat="47.66288" lon="2.14386">
        <ele>141</ele>
        <time>2017-02-05T08:53:33.939Z</time>
      </trkpt>
      <trkpt lat="47.66284" lon="2.14385">
        <ele>141</ele>
        <time>2017-02-05T08:53:34.936Z</time>
      </trkpt>
      <trkpt lat="47.66284" lon="2.14385">
        <ele>141</ele>
        <time>2017-02-05T08:53:35.934Z</time>
      </trkpt>
      <trkpt lat="47.66277" lon="2.14382">
        <ele>141</ele>
        <time>2017-02-05T08:53:36.939Z</time>
      </trkpt>
      <trkpt lat="47.66273" lon="2.14381">
        <ele>141</ele>
        <time>2017-02-05T08:53:37.956Z</time>
      </trkpt>
      <trkpt lat="47.66269" lon="2.14381">
        <ele>141</ele>
        <time>2017-02-05T08:53:38.948Z</time>
      </trkpt>
      <trkpt lat="47.66269" lon="2.14381">
        <ele>141</ele>
        <time>2017-02-05T08:53:39.938Z</time>
      </trkpt>
      <trkpt lat="47.66261" lon="2.14379">
        <ele>142</ele>
        <time>2017-02-05T08:53:40.937Z</time>
      </trkpt>
      <trkpt lat="47.66257" lon="2.14378">
        <ele>142</ele>
        <time>2017-02-05T08:53:41.940Z</time>
      </trkpt>
      <trkpt lat="47.66257" lon="2.14378">
        <ele>142</ele>
        <time>2017-02-05T08:53:42.932Z</time>
      </trkpt>
      <trkpt lat="47.66249" lon="2.14377">
        <ele>142</ele>
        <time>2017-02-05T08:53:43.937Z</time>
      </trkpt>
      <trkpt lat="47.66245" lon="2.14377">
        <ele>142</ele>
        <time>2017-02-05T08:53:44.939Z</time>
      </trkpt>
      <trkpt lat="47.6624" lon="2.14376">
        <ele>143</ele>
        <time>2017-02-05T08:53:45.938Z</time>
      </trkpt>
      <trkpt lat="47.66235" lon="2.14375">
        <ele>143</ele>
        <time>2017-02-05T08:53:46.939Z</time>
      </trkpt>
      <trkpt lat="47.66235" lon="2.14375">
        <ele>143</ele>
        <time>2017-02-05T08:53:47.933Z</time>
      </trkpt>
      <trkpt lat="47.66226" lon="2.14373">
        <ele>143</ele>
        <time>2017-02-05T08:53:48.937Z</time>
      </trkpt>
      <trkpt lat="47.66226" lon="2.14373">
        <ele>143</ele>
        <time>2017-02-05T08:53:49.932Z</time>
      </trkpt>
      <trkpt lat="47.66218" lon="2.14371">
        <ele>143</ele>
        <time>2017-02-05T08:53:50.937Z</time>
      </trkpt>
      <trkpt lat="47.66218" lon="2.14371">
        <ele>143</ele>
        <time>2017-02-05T08:53:51.932Z</time>
      </trkpt>
      <trkpt lat="47.6621" lon="2.1437">
        <ele>143</ele>
        <time>2017-02-05T08:53:52.938Z</time>
      </trkpt>
      <trkpt lat="47.6621" lon="2.1437">
        <ele>143</ele>
        <time>2017-02-05T08:53:53.933Z</time>
      </trkpt>
      <trkpt lat="47.66202" lon="2.14369">
        <ele>143</ele>
        <time>2017-02-05T08:53:54.937Z</time>
      </trkpt>
      <trkpt lat="47.66198" lon="2.14368">
        <ele>143</ele>
        <time>2017-02-05T08:53:55.937Z</time>
      </trkpt>
      <trkpt lat="47.66194" lon="2.14368">
        <ele>143</ele>
        <time>2017-02-05T08:53:56.945Z</time>
      </trkpt>
      <trkpt lat="47.66194" lon="2.14368">
        <ele>143</ele>
        <time>2017-02-05T08:53:57.933Z</time>
      </trkpt>
      <trkpt lat="47.66187" lon="2.14366">
        <ele>143</ele>
        <time>2017-02-05T08:53:58.936Z</time>
      </trkpt>
      <trkpt lat="47.66187" lon="2.14366">
        <ele>143</ele>
        <time>2017-02-05T08:53:59.933Z</time>
      </trkpt>
      <trkpt lat="47.66181" lon="2.14364">
        <ele>142</ele>
        <time>2017-02-05T08:54:00.939Z</time>
      </trkpt>
      <trkpt lat="47.66181" lon="2.14364">
        <ele>142</ele>
        <time>2017-02-05T08:54:01.934Z</time>
      </trkpt>
      <trkpt lat="47.66176" lon="2.14363">
        <ele>142</ele>
        <time>2017-02-05T08:54:02.941Z</time>
      </trkpt>
      <trkpt lat="47.66176" lon="2.14363">
        <ele>142</ele>
        <time>2017-02-05T08:54:03.933Z</time>
      </trkpt>
      <trkpt lat="47.66173" lon="2.14364">
        <ele>142</ele>
        <time>2017-02-05T08:54:04.939Z</time>
      </trkpt>
      <trkpt lat="47.66173" lon="2.14364">
        <ele>142</ele>
        <time>2017-02-05T08:54:05.934Z</time>
      </trkpt>
      <trkpt lat="47.66171" lon="2.14367">
        <ele>142</ele>
        <time>2017-02-05T08:54:06.935Z</time>
      </trkpt>
      <trkpt lat="47.66171" lon="2.14367">
        <ele>142</ele>
        <time>2017-02-05T08:54:07.949Z</time>
      </trkpt>
      <trkpt lat="47.6617" lon="2.14371">
        <ele>142</ele>
        <time>2017-02-05T08:54:08.930Z</time>
      </trkpt>
      <trkpt lat="47.6617" lon="2.14371">
        <ele>142</ele>
        <time>2017-02-05T08:54:09.937Z</time>
      </trkpt>
      <trkpt lat="47.6617" lon="2.14376">
        <ele>142</ele>
        <time>2017-02-05T08:54:10.943Z</time>
      </trkpt>
      <trkpt lat="47.66171" lon="2.14379">
        <ele>142</ele>
        <time>2017-02-05T08:54:11.940Z</time>
      </trkpt>
      <trkpt lat="47.66171" lon="2.14379">
        <ele>142</ele>
        <time>2017-02-05T08:54:12.933Z</time>
      </trkpt>
      <trkpt lat="47.66172" lon="2.14387">
        <ele>142</ele>
        <time>2017-02-05T08:54:13.938Z</time>
      </trkpt>
      <trkpt lat="47.66173" lon="2.14391">
        <ele>142</ele>
        <time>2017-02-05T08:54:14.953Z</time>
      </trkpt>
      <trkpt lat="47.66173" lon="2.14391">
        <ele>142</ele>
        <time>2017-02-05T08:54:15.950Z</time>
      </trkpt>
      <trkpt lat="47.66173" lon="2.144">
        <ele>142</ele>
        <time>2017-02-05T08:54:16.939Z</time>
      </trkpt>
      <trkpt lat="47.66173" lon="2.144">
        <ele>142</ele>
        <time>2017-02-05T08:54:17.934Z</time>
      </trkpt>
      <trkpt lat="47.66174" lon="2.14408">
        <ele>142</ele>
        <time>2017-02-05T08:54:18.935Z</time>
      </trkpt>
      <trkpt lat="47.66175" lon="2.14413">
        <ele>142</ele>
        <time>2017-02-05T08:54:19.940Z</time>
      </trkpt>
      <trkpt lat="47.66175" lon="2.14413">
        <ele>142</ele>
        <time>2017-02-05T08:54:20.935Z</time>
      </trkpt>
      <trkpt lat="47.66175" lon="2.14422">
        <ele>143</ele>
        <time>2017-02-05T08:54:21.939Z</time>
      </trkpt>
      <trkpt lat="47.66176" lon="2.14427">
        <ele>143</ele>
        <time>2017-02-05T08:54:22.936Z</time>
      </trkpt>
      <trkpt lat="47.66176" lon="2.14427">
        <ele>143</ele>
        <time>2017-02-05T08:54:23.933Z</time>
      </trkpt>
      <trkpt lat="47.66177" lon="2.14438">
        <ele>143</ele>
        <time>2017-02-05T08:54:24.938Z</time>
      </trkpt>
      <trkpt lat="47.66177" lon="2.14438">
        <ele>143</ele>
        <time>2017-02-05T08:54:25.932Z</time>
      </trkpt>
      <trkpt lat="47.66179" lon="2.14447">
        <ele>143</ele>
        <time>2017-02-05T08:54:26.939Z</time>
      </trkpt>
      <trkpt lat="47.66179" lon="2.14447">
        <ele>143</ele>
        <time>2017-02-05T08:54:27.932Z</time>
      </trkpt>
      <trkpt lat="47.66178" lon="2.14459">
        <ele>144</ele>
        <time>2017-02-05T08:54:28.931Z</time>
      </trkpt>
      <trkpt lat="47.66178" lon="2.14465">
        <ele>144</ele>
        <time>2017-02-05T08:54:29.939Z</time>
      </trkpt>
      <trkpt lat="47.66178" lon="2.14465">
        <ele>144</ele>
        <time>2017-02-05T08:54:30.934Z</time>
      </trkpt>
      <trkpt lat="47.66179" lon="2.14476">
        <ele>145</ele>
        <time>2017-02-05T08:54:31.939Z</time>
      </trkpt>
      <trkpt lat="47.66179" lon="2.14483">
        <ele>145</ele>
        <time>2017-02-05T08:54:32.940Z</time>
      </trkpt>
      <trkpt lat="47.66179" lon="2.14483">
        <ele>145</ele>
        <time>2017-02-05T08:54:33.935Z</time>
      </trkpt>
      <trkpt lat="47.6618" lon="2.14496">
        <ele>146</ele>
        <time>2017-02-05T08:54:34.937Z</time>
      </trkpt>
      <trkpt lat="47.6618" lon="2.14502">
        <ele>146</ele>
        <time>2017-02-05T08:54:35.938Z</time>
      </trkpt>
      <trkpt lat="47.6618" lon="2.14502">
        <ele>146</ele>
        <time>2017-02-05T08:54:36.933Z</time>
      </trkpt>
      <trkpt lat="47.66181" lon="2.14514">
        <ele>147</ele>
        <time>2017-02-05T08:54:37.955Z</time>
      </trkpt>
      <trkpt lat="47.66182" lon="2.14519">
        <ele>147</ele>
        <time>2017-02-05T08:54:38.953Z</time>
      </trkpt>
      <trkpt lat="47.66182" lon="2.14519">
        <ele>147</ele>
        <time>2017-02-05T08:54:39.954Z</time>
      </trkpt>
      <trkpt lat="47.66184" lon="2.1453">
        <ele>148</ele>
        <time>2017-02-05T08:54:40.943Z</time>
      </trkpt>
      <trkpt lat="47.66185" lon="2.14535">
        <ele>148</ele>
        <time>2017-02-05T08:54:41.939Z</time>
      </trkpt>
      <trkpt lat="47.66185" lon="2.14535">
        <ele>148</ele>
        <time>2017-02-05T08:54:42.937Z</time>
      </trkpt>
      <trkpt lat="47.66186" lon="2.14547">
        <ele>149</ele>
        <time>2017-02-05T08:54:43.938Z</time>
      </trkpt>
      <trkpt lat="47.66186" lon="2.14553">
        <ele>149</ele>
        <time>2017-02-05T08:54:44.939Z</time>
      </trkpt>
      <trkpt lat="47.66186" lon="2.14553">
        <ele>149</ele>
        <time>2017-02-05T08:54:45.933Z</time>
      </trkpt>
      <trkpt lat="47.66187" lon="2.14565">
        <ele>150</ele>
        <time>2017-02-05T08:54:46.935Z</time>
      </trkpt>
      <trkpt lat="47.66187" lon="2.14565">
        <ele>150</ele>
        <time>2017-02-05T08:54:47.932Z</time>
      </trkpt>
      <trkpt lat="47.66185" lon="2.14578">
        <ele>151</ele>
        <time>2017-02-05T08:54:48.938Z</time>
      </trkpt>
      <trkpt lat="47.66185" lon="2.14578">
        <ele>151</ele>
        <time>2017-02-05T08:54:49.933Z</time>
      </trkpt>
      <trkpt lat="47.66184" lon="2.14592">
        <ele>151</ele>
        <time>2017-02-05T08:54:50.940Z</time>
      </trkpt>
      <trkpt lat="47.66184" lon="2.14592">
        <ele>151</ele>
        <time>2017-02-05T08:54:51.933Z</time>
      </trkpt>
      <trkpt lat="47.66182" lon="2.14606">
        <ele>150</ele>
        <time>2017-02-05T08:54:52.953Z</time>
      </trkpt>
      <trkpt lat="47.66182" lon="2.14606">
        <ele>150</ele>
        <time>2017-02-05T08:54:53.933Z</time>
      </trkpt>
      <trkpt lat="47.66182" lon="2.14619">
        <ele>150</ele>
        <time>2017-02-05T08:54:54.923Z</time>
      </trkpt>
      <trkpt lat="47.66182" lon="2.14619">
        <ele>150</ele>
        <time>2017-02-05T08:54:55.933Z</time>
      </trkpt>
      <trkpt lat="47.66181" lon="2.14629">
        <ele>149</ele>
        <time>2017-02-05T08:54:56.940Z</time>
      </trkpt>
      <trkpt lat="47.66181" lon="2.14629">
        <ele>149</ele>
        <time>2017-02-05T08:54:57.930Z</time>
      </trkpt>
      <trkpt lat="47.66177" lon="2.1464">
        <ele>149</ele>
        <time>2017-02-05T08:54:58.940Z</time>
      </trkpt>
      <trkpt lat="47.66177" lon="2.1464">
        <ele>149</ele>
        <time>2017-02-05T08:54:59.934Z</time>
      </trkpt>
      <trkpt lat="47.66174" lon="2.14647">
        <ele>149</ele>
        <time>2017-02-05T08:55:00.939Z</time>
      </trkpt>
      <trkpt lat="47.66174" lon="2.14647">
        <ele>149</ele>
        <time>2017-02-05T08:55:01.934Z</time>
      </trkpt>
      <trkpt lat="47.66176" lon="2.14654">
        <ele>149</ele>
        <time>2017-02-05T08:55:02.939Z</time>
      </trkpt>
      <trkpt lat="47.66176" lon="2.14654">
        <ele>149</ele>
        <time>2017-02-05T08:55:03.933Z</time>
      </trkpt>
      <trkpt lat="47.66177" lon="2.14662">
        <ele>149</ele>
        <time>2017-02-05T08:55:04.936Z</time>
      </trkpt>
      <trkpt lat="47.66176" lon="2.14667">
        <ele>149</ele>
        <time>2017-02-05T08:55:05.937Z</time>
      </trkpt>
      <trkpt lat="47.66176" lon="2.14667">
        <ele>149</ele>
        <time>2017-02-05T08:55:06.933Z</time>
      </trkpt>
      <trkpt lat="47.66176" lon="2.14677">
        <ele>149</ele>
        <time>2017-02-05T08:55:07.951Z</time>
      </trkpt>
      <trkpt lat="47.66176" lon="2.14682">
        <ele>149</ele>
        <time>2017-02-05T08:55:08.932Z</time>
      </trkpt>
      <trkpt lat="47.66176" lon="2.14682">
        <ele>149</ele>
        <time>2017-02-05T08:55:09.938Z</time>
      </trkpt>
      <trkpt lat="47.66174" lon="2.14691">
        <ele>147</ele>
        <time>2017-02-05T08:55:10.936Z</time>
      </trkpt>
      <trkpt lat="47.66173" lon="2.14695">
        <ele>147</ele>
        <time>2017-02-05T08:55:11.939Z</time>
      </trkpt>
      <trkpt lat="47.66173" lon="2.14695">
        <ele>147</ele>
        <time>2017-02-05T08:55:12.933Z</time>
      </trkpt>
      <trkpt lat="47.66172" lon="2.14704">
        <ele>146</ele>
        <time>2017-02-05T08:55:13.938Z</time>
      </trkpt>
      <trkpt lat="47.66172" lon="2.14704">
        <ele>146</ele>
        <time>2017-02-05T08:55:14.933Z</time>
      </trkpt>
      <trkpt lat="47.66171" lon="2.14714">
        <ele>145</ele>
        <time>2017-02-05T08:55:15.938Z</time>
      </trkpt>
      <trkpt lat="47.66171" lon="2.14714">
        <ele>145</ele>
        <time>2017-02-05T08:55:16.933Z</time>
      </trkpt>
      <trkpt lat="47.6617" lon="2.14724">
        <ele>145</ele>
        <time>2017-02-05T08:55:17.938Z</time>
      </trkpt>
      <trkpt lat="47.6617" lon="2.14724">
        <ele>145</ele>
        <time>2017-02-05T08:55:18.933Z</time>
      </trkpt>
      <trkpt lat="47.66169" lon="2.14734">
        <ele>144</ele>
        <time>2017-02-05T08:55:19.938Z</time>
      </trkpt>
      <trkpt lat="47.66169" lon="2.14738">
        <ele>144</ele>
        <time>2017-02-05T08:55:20.940Z</time>
      </trkpt>
      <trkpt lat="47.66169" lon="2.14738">
        <ele>144</ele>
        <time>2017-02-05T08:55:21.938Z</time>
      </trkpt>
      <trkpt lat="47.66168" lon="2.14748">
        <ele>144</ele>
        <time>2017-02-05T08:55:22.936Z</time>
      </trkpt>
      <trkpt lat="47.66168" lon="2.14748">
        <ele>144</ele>
        <time>2017-02-05T08:55:23.933Z</time>
      </trkpt>
      <trkpt lat="47.66167" lon="2.14757">
        <ele>143</ele>
        <time>2017-02-05T08:55:24.938Z</time>
      </trkpt>
      <trkpt lat="47.66167" lon="2.14762">
        <ele>143</ele>
        <time>2017-02-05T08:55:25.939Z</time>
      </trkpt>
      <trkpt lat="47.66167" lon="2.14767">
        <ele>143</ele>
        <time>2017-02-05T08:55:26.941Z</time>
      </trkpt>
      <trkpt lat="47.66167" lon="2.14767">
        <ele>143</ele>
        <time>2017-02-05T08:55:27.936Z</time>
      </trkpt>
      <trkpt lat="47.66167" lon="2.14777">
        <ele>143</ele>
        <time>2017-02-05T08:55:28.939Z</time>
      </trkpt>
      <trkpt lat="47.66167" lon="2.14777">
        <ele>143</ele>
        <time>2017-02-05T08:55:29.934Z</time>
      </trkpt>
      <trkpt lat="47.66166" lon="2.14787">
        <ele>142</ele>
        <time>2017-02-05T08:55:30.936Z</time>
      </trkpt>
      <trkpt lat="47.66166" lon="2.14787">
        <ele>142</ele>
        <time>2017-02-05T08:55:31.933Z</time>
      </trkpt>
      <trkpt lat="47.66166" lon="2.14796">
        <ele>142</ele>
        <time>2017-02-05T08:55:32.939Z</time>
      </trkpt>
      <trkpt lat="47.66166" lon="2.14796">
        <ele>142</ele>
        <time>2017-02-05T08:55:33.933Z</time>
      </trkpt>
      <trkpt lat="47.66166" lon="2.14806">
        <ele>141</ele>
        <time>2017-02-05T08:55:34.935Z</time>
      </trkpt>
      <trkpt lat="47.66166" lon="2.1481">
        <ele>141</ele>
        <time>2017-02-05T08:55:35.938Z</time>
      </trkpt>
      <trkpt lat="47.66166" lon="2.1481">
        <ele>141</ele>
        <time>2017-02-05T08:55:36.933Z</time>
      </trkpt>
      <trkpt lat="47.66165" lon="2.14819">
        <ele>141</ele>
        <time>2017-02-05T08:55:37.930Z</time>
      </trkpt>
      <trkpt lat="47.66165" lon="2.14824">
        <ele>141</ele>
        <time>2017-02-05T08:55:38.939Z</time>
      </trkpt>
      <trkpt lat="47.66165" lon="2.14824">
        <ele>141</ele>
        <time>2017-02-05T08:55:39.951Z</time>
      </trkpt>
      <trkpt lat="47.66165" lon="2.14834">
        <ele>141</ele>
        <time>2017-02-05T08:55:40.940Z</time>
      </trkpt>
      <trkpt lat="47.66165" lon="2.14839">
        <ele>141</ele>
        <time>2017-02-05T08:55:41.940Z</time>
      </trkpt>
      <trkpt lat="47.66165" lon="2.14839">
        <ele>141</ele>
        <time>2017-02-05T08:55:42.933Z</time>
      </trkpt>
      <trkpt lat="47.66166" lon="2.14848">
        <ele>140</ele>
        <time>2017-02-05T08:55:43.938Z</time>
      </trkpt>
      <trkpt lat="47.66166" lon="2.14848">
        <ele>140</ele>
        <time>2017-02-05T08:55:44.934Z</time>
      </trkpt>
      <trkpt lat="47.66167" lon="2.14857">
        <ele>140</ele>
        <time>2017-02-05T08:55:45.938Z</time>
      </trkpt>
      <trkpt lat="47.66167" lon="2.14857">
        <ele>140</ele>
        <time>2017-02-05T08:55:46.933Z</time>
      </trkpt>
      <trkpt lat="47.66167" lon="2.14866">
        <ele>139</ele>
        <time>2017-02-05T08:55:47.938Z</time>
      </trkpt>
      <trkpt lat="47.66167" lon="2.14866">
        <ele>139</ele>
        <time>2017-02-05T08:55:48.933Z</time>
      </trkpt>
      <trkpt lat="47.66168" lon="2.14876">
        <ele>139</ele>
        <time>2017-02-05T08:55:49.943Z</time>
      </trkpt>
      <trkpt lat="47.66168" lon="2.14881">
        <ele>139</ele>
        <time>2017-02-05T08:55:50.939Z</time>
      </trkpt>
      <trkpt lat="47.66168" lon="2.14881">
        <ele>139</ele>
        <time>2017-02-05T08:55:51.933Z</time>
      </trkpt>
      <trkpt lat="47.66168" lon="2.14892">
        <ele>139</ele>
        <time>2017-02-05T08:55:52.953Z</time>
      </trkpt>
      <trkpt lat="47.66168" lon="2.14892">
        <ele>139</ele>
        <time>2017-02-05T08:55:53.942Z</time>
      </trkpt>
      <trkpt lat="47.66169" lon="2.14903">
        <ele>139</ele>
        <time>2017-02-05T08:55:54.939Z</time>
      </trkpt>
      <trkpt lat="47.66169" lon="2.14903">
        <ele>139</ele>
        <time>2017-02-05T08:55:55.935Z</time>
      </trkpt>
      <trkpt lat="47.6617" lon="2.14914">
        <ele>138</ele>
        <time>2017-02-05T08:55:56.940Z</time>
      </trkpt>
      <trkpt lat="47.6617" lon="2.14914">
        <ele>138</ele>
        <time>2017-02-05T08:55:57.938Z</time>
      </trkpt>
      <trkpt lat="47.6617" lon="2.14925">
        <ele>138</ele>
        <time>2017-02-05T08:55:58.940Z</time>
      </trkpt>
      <trkpt lat="47.6617" lon="2.14925">
        <ele>138</ele>
        <time>2017-02-05T08:55:59.934Z</time>
      </trkpt>
      <trkpt lat="47.66171" lon="2.14934">
        <ele>138</ele>
        <time>2017-02-05T08:56:00.938Z</time>
      </trkpt>
      <trkpt lat="47.66171" lon="2.14934">
        <ele>138</ele>
        <time>2017-02-05T08:56:01.933Z</time>
      </trkpt>
      <trkpt lat="47.66171" lon="2.14944">
        <ele>138</ele>
        <time>2017-02-05T08:56:02.941Z</time>
      </trkpt>
      <trkpt lat="47.66171" lon="2.14944">
        <ele>138</ele>
        <time>2017-02-05T08:56:03.935Z</time>
      </trkpt>
      <trkpt lat="47.66172" lon="2.14956">
        <ele>137</ele>
        <time>2017-02-05T08:56:04.938Z</time>
      </trkpt>
      <trkpt lat="47.66172" lon="2.14962">
        <ele>137</ele>
        <time>2017-02-05T08:56:05.940Z</time>
      </trkpt>
      <trkpt lat="47.66172" lon="2.14962">
        <ele>137</ele>
        <time>2017-02-05T08:56:06.933Z</time>
      </trkpt>
      <trkpt lat="47.66172" lon="2.14974">
        <ele>137</ele>
        <time>2017-02-05T08:56:08.018Z</time>
      </trkpt>
      <trkpt lat="47.66172" lon="2.1498">
        <ele>137</ele>
        <time>2017-02-05T08:56:08.940Z</time>
      </trkpt>
      <trkpt lat="47.66172" lon="2.1498">
        <ele>137</ele>
        <time>2017-02-05T08:56:09.933Z</time>
      </trkpt>
      <trkpt lat="47.66173" lon="2.14992">
        <ele>137</ele>
        <time>2017-02-05T08:56:10.936Z</time>
      </trkpt>
      <trkpt lat="47.66173" lon="2.14997">
        <ele>137</ele>
        <time>2017-02-05T08:56:11.955Z</time>
      </trkpt>
      <trkpt lat="47.66173" lon="2.14997">
        <ele>137</ele>
        <time>2017-02-05T08:56:12.936Z</time>
      </trkpt>
      <trkpt lat="47.66175" lon="2.15009">
        <ele>137</ele>
        <time>2017-02-05T08:56:13.938Z</time>
      </trkpt>
      <trkpt lat="47.66175" lon="2.15014">
        <ele>137</ele>
        <time>2017-02-05T08:56:14.943Z</time>
      </trkpt>
      <trkpt lat="47.66175" lon="2.15014">
        <ele>137</ele>
        <time>2017-02-05T08:56:15.935Z</time>
      </trkpt>
      <trkpt lat="47.66175" lon="2.15026">
        <ele>137</ele>
        <time>2017-02-05T08:56:16.938Z</time>
      </trkpt>
      <trkpt lat="47.66175" lon="2.15026">
        <ele>137</ele>
        <time>2017-02-05T08:56:17.933Z</time>
      </trkpt>
      <trkpt lat="47.66177" lon="2.15039">
        <ele>136</ele>
        <time>2017-02-05T08:56:18.936Z</time>
      </trkpt>
      <trkpt lat="47.66178" lon="2.15045">
        <ele>136</ele>
        <time>2017-02-05T08:56:19.935Z</time>
      </trkpt>
      <trkpt lat="47.66179" lon="2.1505">
        <ele>136</ele>
        <time>2017-02-05T08:56:20.940Z</time>
      </trkpt>
      <trkpt lat="47.66179" lon="2.1505">
        <ele>136</ele>
        <time>2017-02-05T08:56:21.935Z</time>
      </trkpt>
      <trkpt lat="47.66181" lon="2.15062">
        <ele>136</ele>
        <time>2017-02-05T08:56:22.941Z</time>
      </trkpt>
      <trkpt lat="47.66181" lon="2.15062">
        <ele>136</ele>
        <time>2017-02-05T08:56:23.935Z</time>
      </trkpt>
      <trkpt lat="47.66183" lon="2.15073">
        <ele>136</ele>
        <time>2017-02-05T08:56:24.940Z</time>
      </trkpt>
      <trkpt lat="47.66183" lon="2.15073">
        <ele>136</ele>
        <time>2017-02-05T08:56:25.935Z</time>
      </trkpt>
      <trkpt lat="47.66184" lon="2.15085">
        <ele>136</ele>
        <time>2017-02-05T08:56:26.941Z</time>
      </trkpt>
      <trkpt lat="47.66184" lon="2.15085">
        <ele>136</ele>
        <time>2017-02-05T08:56:27.933Z</time>
      </trkpt>
      <trkpt lat="47.66185" lon="2.15097">
        <ele>136</ele>
        <time>2017-02-05T08:56:28.938Z</time>
      </trkpt>
      <trkpt lat="47.66185" lon="2.15097">
        <ele>136</ele>
        <time>2017-02-05T08:56:29.934Z</time>
      </trkpt>
      <trkpt lat="47.66186" lon="2.15109">
        <ele>136</ele>
        <time>2017-02-05T08:56:30.935Z</time>
      </trkpt>
      <trkpt lat="47.66186" lon="2.15116">
        <ele>136</ele>
        <time>2017-02-05T08:56:31.939Z</time>
      </trkpt>
      <trkpt lat="47.66187" lon="2.15123">
        <ele>136</ele>
        <time>2017-02-05T08:56:32.939Z</time>
      </trkpt>
      <trkpt lat="47.66187" lon="2.15123">
        <ele>136</ele>
        <time>2017-02-05T08:56:33.934Z</time>
      </trkpt>
      <trkpt lat="47.66188" lon="2.15136">
        <ele>136</ele>
        <time>2017-02-05T08:56:34.935Z</time>
      </trkpt>
      <trkpt lat="47.66189" lon="2.15142">
        <ele>136</ele>
        <time>2017-02-05T08:56:35.939Z</time>
      </trkpt>
      <trkpt lat="47.66189" lon="2.15142">
        <ele>136</ele>
        <time>2017-02-05T08:56:36.934Z</time>
      </trkpt>
      <trkpt lat="47.6619" lon="2.15154">
        <ele>135</ele>
        <time>2017-02-05T08:56:37.955Z</time>
      </trkpt>
      <trkpt lat="47.6619" lon="2.15154">
        <ele>135</ele>
        <time>2017-02-05T08:56:38.945Z</time>
      </trkpt>
      <trkpt lat="47.66191" lon="2.15166">
        <ele>135</ele>
        <time>2017-02-05T08:56:39.936Z</time>
      </trkpt>
      <trkpt lat="47.66191" lon="2.15172">
        <ele>135</ele>
        <time>2017-02-05T08:56:40.938Z</time>
      </trkpt>
      <trkpt lat="47.66191" lon="2.15172">
        <ele>135</ele>
        <time>2017-02-05T08:56:41.934Z</time>
      </trkpt>
      <trkpt lat="47.66193" lon="2.15182">
        <ele>135</ele>
        <time>2017-02-05T08:56:42.936Z</time>
      </trkpt>
      <trkpt lat="47.66193" lon="2.15182">
        <ele>135</ele>
        <time>2017-02-05T08:56:43.934Z</time>
      </trkpt>
      <trkpt lat="47.66195" lon="2.15193">
        <ele>134</ele>
        <time>2017-02-05T08:56:44.940Z</time>
      </trkpt>
      <trkpt lat="47.66196" lon="2.15199">
        <ele>134</ele>
        <time>2017-02-05T08:56:45.940Z</time>
      </trkpt>
      <trkpt lat="47.66196" lon="2.15199">
        <ele>134</ele>
        <time>2017-02-05T08:56:46.933Z</time>
      </trkpt>
      <trkpt lat="47.66198" lon="2.15209">
        <ele>134</ele>
        <time>2017-02-05T08:56:47.938Z</time>
      </trkpt>
      <trkpt lat="47.66198" lon="2.15209">
        <ele>134</ele>
        <time>2017-02-05T08:56:48.934Z</time>
      </trkpt>
      <trkpt lat="47.662" lon="2.15219">
        <ele>134</ele>
        <time>2017-02-05T08:56:49.940Z</time>
      </trkpt>
      <trkpt lat="47.662" lon="2.15219">
        <ele>134</ele>
        <time>2017-02-05T08:56:50.939Z</time>
      </trkpt>
      <trkpt lat="47.662" lon="2.1523">
        <ele>134</ele>
        <time>2017-02-05T08:56:51.939Z</time>
      </trkpt>
      <trkpt lat="47.662" lon="2.15235">
        <ele>134</ele>
        <time>2017-02-05T08:56:52.938Z</time>
      </trkpt>
      <trkpt lat="47.662" lon="2.15235">
        <ele>134</ele>
        <time>2017-02-05T08:56:53.936Z</time>
      </trkpt>
      <trkpt lat="47.66201" lon="2.15247">
        <ele>135</ele>
        <time>2017-02-05T08:56:54.939Z</time>
      </trkpt>
      <trkpt lat="47.66201" lon="2.15247">
        <ele>135</ele>
        <time>2017-02-05T08:56:55.934Z</time>
      </trkpt>
      <trkpt lat="47.66202" lon="2.15258">
        <ele>135</ele>
        <time>2017-02-05T08:56:56.940Z</time>
      </trkpt>
      <trkpt lat="47.66202" lon="2.15258">
        <ele>135</ele>
        <time>2017-02-05T08:56:57.948Z</time>
      </trkpt>
      <trkpt lat="47.66204" lon="2.1527">
        <ele>135</ele>
        <time>2017-02-05T08:56:58.938Z</time>
      </trkpt>
      <trkpt lat="47.66205" lon="2.15275">
        <ele>135</ele>
        <time>2017-02-05T08:56:59.943Z</time>
      </trkpt>
      <trkpt lat="47.66206" lon="2.15281">
        <ele>135</ele>
        <time>2017-02-05T08:57:00.939Z</time>
      </trkpt>
      <trkpt lat="47.66206" lon="2.15281">
        <ele>135</ele>
        <time>2017-02-05T08:57:01.941Z</time>
      </trkpt>
      <trkpt lat="47.66206" lon="2.15294">
        <ele>135</ele>
        <time>2017-02-05T08:57:02.941Z</time>
      </trkpt>
      <trkpt lat="47.66206" lon="2.15294">
        <ele>135</ele>
        <time>2017-02-05T08:57:03.934Z</time>
      </trkpt>
      <trkpt lat="47.66208" lon="2.15307">
        <ele>135</ele>
        <time>2017-02-05T08:57:04.938Z</time>
      </trkpt>
      <trkpt lat="47.66209" lon="2.15313">
        <ele>135</ele>
        <time>2017-02-05T08:57:05.939Z</time>
      </trkpt>
      <trkpt lat="47.66211" lon="2.15318">
        <ele>135</ele>
        <time>2017-02-05T08:57:06.939Z</time>
      </trkpt>
      <trkpt lat="47.66211" lon="2.15318">
        <ele>135</ele>
        <time>2017-02-05T08:57:07.950Z</time>
      </trkpt>
      <trkpt lat="47.66214" lon="2.15329">
        <ele>135</ele>
        <time>2017-02-05T08:57:08.940Z</time>
      </trkpt>
      <trkpt lat="47.66214" lon="2.15329">
        <ele>135</ele>
        <time>2017-02-05T08:57:09.933Z</time>
      </trkpt>
      <trkpt lat="47.66219" lon="2.15341">
        <ele>135</ele>
        <time>2017-02-05T08:57:10.936Z</time>
      </trkpt>
      <trkpt lat="47.6622" lon="2.15347">
        <ele>135</ele>
        <time>2017-02-05T08:57:11.941Z</time>
      </trkpt>
      <trkpt lat="47.6622" lon="2.15347">
        <ele>135</ele>
        <time>2017-02-05T08:57:12.934Z</time>
      </trkpt>
      <trkpt lat="47.66221" lon="2.15358">
        <ele>135</ele>
        <time>2017-02-05T08:57:13.939Z</time>
      </trkpt>
      <trkpt lat="47.66222" lon="2.15364">
        <ele>136</ele>
        <time>2017-02-05T08:57:14.941Z</time>
      </trkpt>
      <trkpt lat="47.66222" lon="2.15364">
        <ele>136</ele>
        <time>2017-02-05T08:57:15.934Z</time>
      </trkpt>
      <trkpt lat="47.66223" lon="2.15375">
        <ele>136</ele>
        <time>2017-02-05T08:57:16.939Z</time>
      </trkpt>
      <trkpt lat="47.66223" lon="2.15375">
        <ele>136</ele>
        <time>2017-02-05T08:57:17.935Z</time>
      </trkpt>
      <trkpt lat="47.66223" lon="2.15385">
        <ele>137</ele>
        <time>2017-02-05T08:57:18.940Z</time>
      </trkpt>
      <trkpt lat="47.66223" lon="2.15385">
        <ele>137</ele>
        <time>2017-02-05T08:57:19.935Z</time>
      </trkpt>
      <trkpt lat="47.66223" lon="2.15395">
        <ele>137</ele>
        <time>2017-02-05T08:57:20.942Z</time>
      </trkpt>
      <trkpt lat="47.66223" lon="2.15395">
        <ele>137</ele>
        <time>2017-02-05T08:57:21.935Z</time>
      </trkpt>
      <trkpt lat="47.66225" lon="2.15404">
        <ele>138</ele>
        <time>2017-02-05T08:57:22.936Z</time>
      </trkpt>
      <trkpt lat="47.66225" lon="2.15404">
        <ele>138</ele>
        <time>2017-02-05T08:57:23.936Z</time>
      </trkpt>
      <trkpt lat="47.66225" lon="2.15411">
        <ele>139</ele>
        <time>2017-02-05T08:57:24.939Z</time>
      </trkpt>
      <trkpt lat="47.66225" lon="2.15411">
        <ele>139</ele>
        <time>2017-02-05T08:57:25.934Z</time>
      </trkpt>
      <trkpt lat="47.66225" lon="2.15419">
        <ele>139</ele>
        <time>2017-02-05T08:57:26.940Z</time>
      </trkpt>
      <trkpt lat="47.66225" lon="2.15419">
        <ele>139</ele>
        <time>2017-02-05T08:57:27.934Z</time>
      </trkpt>
      <trkpt lat="47.66228" lon="2.15427">
        <ele>141</ele>
        <time>2017-02-05T08:57:28.936Z</time>
      </trkpt>
      <trkpt lat="47.66228" lon="2.15427">
        <ele>141</ele>
        <time>2017-02-05T08:57:29.933Z</time>
      </trkpt>
      <trkpt lat="47.66229" lon="2.15434">
        <ele>142</ele>
        <time>2017-02-05T08:57:30.939Z</time>
      </trkpt>
      <trkpt lat="47.66229" lon="2.15434">
        <ele>142</ele>
        <time>2017-02-05T08:57:31.953Z</time>
      </trkpt>
      <trkpt lat="47.66232" lon="2.15442">
        <ele>143</ele>
        <time>2017-02-05T08:57:32.940Z</time>
      </trkpt>
      <trkpt lat="47.66232" lon="2.15442">
        <ele>143</ele>
        <time>2017-02-05T08:57:33.934Z</time>
      </trkpt>
      <trkpt lat="47.66235" lon="2.15453">
        <ele>143</ele>
        <time>2017-02-05T08:57:34.939Z</time>
      </trkpt>
      <trkpt lat="47.66237" lon="2.15457">
        <ele>144</ele>
        <time>2017-02-05T08:57:35.939Z</time>
      </trkpt>
      <trkpt lat="47.66237" lon="2.15457">
        <ele>144</ele>
        <time>2017-02-05T08:57:36.934Z</time>
      </trkpt>
      <trkpt lat="47.66238" lon="2.15463">
        <ele>144</ele>
        <time>2017-02-05T08:57:37.935Z</time>
      </trkpt>
      <trkpt lat="47.66238" lon="2.15465">
        <ele>144</ele>
        <time>2017-02-05T08:57:38.951Z</time>
      </trkpt>
      <trkpt lat="47.66238" lon="2.15465">
        <ele>144</ele>
        <time>2017-02-05T08:57:39.939Z</time>
      </trkpt>
      <trkpt lat="47.66239" lon="2.1547">
        <ele>145</ele>
        <time>2017-02-05T08:57:40.938Z</time>
      </trkpt>
      <trkpt lat="47.66238" lon="2.15473">
        <ele>145</ele>
        <time>2017-02-05T08:57:41.938Z</time>
      </trkpt>
      <trkpt lat="47.66238" lon="2.15473">
        <ele>145</ele>
        <time>2017-02-05T08:57:42.933Z</time>
      </trkpt>
      <trkpt lat="47.66237" lon="2.15479">
        <ele>146</ele>
        <time>2017-02-05T08:57:43.939Z</time>
      </trkpt>
      <trkpt lat="47.66237" lon="2.15481">
        <ele>146</ele>
        <time>2017-02-05T08:57:44.942Z</time>
      </trkpt>
      <trkpt lat="47.66237" lon="2.15481">
        <ele>146</ele>
        <time>2017-02-05T08:57:45.935Z</time>
      </trkpt>
      <trkpt lat="47.66237" lon="2.15482">
        <ele>146</ele>
        <time>2017-02-05T08:57:46.940Z</time>
      </trkpt>
      <trkpt lat="47.66237" lon="2.15483">
        <ele>146</ele>
        <time>2017-02-05T08:57:47.940Z</time>
      </trkpt>
      <trkpt lat="47.66237" lon="2.15483">
        <ele>146</ele>
        <time>2017-02-05T08:57:48.924Z</time>
      </trkpt>
      <trkpt lat="47.66239" lon="2.1549">
        <ele>149</ele>
        <time>2017-02-05T08:57:49.923Z</time>
      </trkpt>
      <trkpt lat="47.66239" lon="2.15493">
        <ele>149</ele>
        <time>2017-02-05T08:57:50.924Z</time>
      </trkpt>
      <trkpt lat="47.66239" lon="2.15493">
        <ele>149</ele>
        <time>2017-02-05T08:57:51.958Z</time>
      </trkpt>
      <trkpt lat="47.66237" lon="2.15498">
        <ele>149</ele>
        <time>2017-02-05T08:57:52.923Z</time>
      </trkpt>
      <trkpt lat="47.66237" lon="2.15498">
        <ele>149</ele>
        <time>2017-02-05T08:57:53.958Z</time>
      </trkpt>
      <trkpt lat="47.66237" lon="2.15505">
        <ele>149</ele>
        <time>2017-02-05T08:57:54.922Z</time>
      </trkpt>
      <trkpt lat="47.66237" lon="2.15505">
        <ele>149</ele>
        <time>2017-02-05T08:57:55.922Z</time>
      </trkpt>
      <trkpt lat="47.66237" lon="2.15514">
        <ele>149</ele>
        <time>2017-02-05T08:57:56.923Z</time>
      </trkpt>
      <trkpt lat="47.66237" lon="2.15514">
        <ele>149</ele>
        <time>2017-02-05T08:57:57.958Z</time>
      </trkpt>
      <trkpt lat="47.66238" lon="2.15524">
        <ele>149</ele>
        <time>2017-02-05T08:57:58.922Z</time>
      </trkpt>
      <trkpt lat="47.66238" lon="2.15528">
        <ele>148</ele>
        <time>2017-02-05T08:57:59.925Z</time>
      </trkpt>
      <trkpt lat="47.66238" lon="2.15528">
        <ele>148</ele>
        <time>2017-02-05T08:58:00.959Z</time>
      </trkpt>
      <trkpt lat="47.66239" lon="2.15538">
        <ele>148</ele>
        <time>2017-02-05T08:58:01.923Z</time>
      </trkpt>
      <trkpt lat="47.66239" lon="2.15538">
        <ele>148</ele>
        <time>2017-02-05T08:58:02.958Z</time>
      </trkpt>
      <trkpt lat="47.66239" lon="2.15547">
        <ele>148</ele>
        <time>2017-02-05T08:58:03.937Z</time>
      </trkpt>
      <trkpt lat="47.66239" lon="2.15547">
        <ele>148</ele>
        <time>2017-02-05T08:58:04.925Z</time>
      </trkpt>
      <trkpt lat="47.66239" lon="2.15556">
        <ele>148</ele>
        <time>2017-02-05T08:58:05.924Z</time>
      </trkpt>
      <trkpt lat="47.66239" lon="2.15556">
        <ele>148</ele>
        <time>2017-02-05T08:58:06.922Z</time>
      </trkpt>
      <trkpt lat="47.66239" lon="2.15569">
        <ele>148</ele>
        <time>2017-02-05T08:58:07.938Z</time>
      </trkpt>
      <trkpt lat="47.66238" lon="2.15574">
        <ele>148</ele>
        <time>2017-02-05T08:58:08.923Z</time>
      </trkpt>
      <trkpt lat="47.66238" lon="2.15574">
        <ele>148</ele>
        <time>2017-02-05T08:58:09.957Z</time>
      </trkpt>
      <trkpt lat="47.66237" lon="2.15586">
        <ele>148</ele>
        <time>2017-02-05T08:58:10.923Z</time>
      </trkpt>
      <trkpt lat="47.66236" lon="2.15592">
        <ele>148</ele>
        <time>2017-02-05T08:58:11.962Z</time>
      </trkpt>
      <trkpt lat="47.66236" lon="2.15592">
        <ele>148</ele>
        <time>2017-02-05T08:58:12.959Z</time>
      </trkpt>
      <trkpt lat="47.66234" lon="2.15603">
        <ele>148</ele>
        <time>2017-02-05T08:58:13.923Z</time>
      </trkpt>
      <trkpt lat="47.66232" lon="2.1561">
        <ele>148</ele>
        <time>2017-02-05T08:58:14.924Z</time>
      </trkpt>
      <trkpt lat="47.66232" lon="2.1561">
        <ele>148</ele>
        <time>2017-02-05T08:58:15.922Z</time>
      </trkpt>
      <trkpt lat="47.6623" lon="2.15623">
        <ele>148</ele>
        <time>2017-02-05T08:58:16.924Z</time>
      </trkpt>
      <trkpt lat="47.6623" lon="2.15623">
        <ele>148</ele>
        <time>2017-02-05T08:58:17.923Z</time>
      </trkpt>
      <trkpt lat="47.66227" lon="2.15638">
        <ele>147</ele>
        <time>2017-02-05T08:58:18.923Z</time>
      </trkpt>
      <trkpt lat="47.66227" lon="2.15638">
        <ele>147</ele>
        <time>2017-02-05T08:58:19.959Z</time>
      </trkpt>
      <trkpt lat="47.66226" lon="2.15655">
        <ele>147</ele>
        <time>2017-02-05T08:58:20.925Z</time>
      </trkpt>
      <trkpt lat="47.66226" lon="2.15655">
        <ele>147</ele>
        <time>2017-02-05T08:58:21.958Z</time>
      </trkpt>
      <trkpt lat="47.66227" lon="2.15671">
        <ele>146</ele>
        <time>2017-02-05T08:58:22.924Z</time>
      </trkpt>
      <trkpt lat="47.66227" lon="2.15671">
        <ele>146</ele>
        <time>2017-02-05T08:58:23.962Z</time>
      </trkpt>
      <trkpt lat="47.66227" lon="2.15686">
        <ele>146</ele>
        <time>2017-02-05T08:58:24.923Z</time>
      </trkpt>
      <trkpt lat="47.66227" lon="2.15686">
        <ele>146</ele>
        <time>2017-02-05T08:58:25.959Z</time>
      </trkpt>
      <trkpt lat="47.6623" lon="2.15699">
        <ele>146</ele>
        <time>2017-02-05T08:58:26.923Z</time>
      </trkpt>
      <trkpt lat="47.6623" lon="2.15699">
        <ele>146</ele>
        <time>2017-02-05T08:58:27.961Z</time>
      </trkpt>
      <trkpt lat="47.66233" lon="2.15713">
        <ele>145</ele>
        <time>2017-02-05T08:58:28.922Z</time>
      </trkpt>
      <trkpt lat="47.66234" lon="2.1572">
        <ele>145</ele>
        <time>2017-02-05T08:58:29.927Z</time>
      </trkpt>
      <trkpt lat="47.66237" lon="2.15727">
        <ele>145</ele>
        <time>2017-02-05T08:58:30.925Z</time>
      </trkpt>
      <trkpt lat="47.66237" lon="2.15727">
        <ele>145</ele>
        <time>2017-02-05T08:58:31.958Z</time>
      </trkpt>
      <trkpt lat="47.6624" lon="2.15741">
        <ele>144</ele>
        <time>2017-02-05T08:58:32.923Z</time>
      </trkpt>
      <trkpt lat="47.6624" lon="2.15741">
        <ele>144</ele>
        <time>2017-02-05T08:58:33.959Z</time>
      </trkpt>
      <trkpt lat="47.66242" lon="2.15754">
        <ele>144</ele>
        <time>2017-02-05T08:58:34.928Z</time>
      </trkpt>
      <trkpt lat="47.66243" lon="2.15762">
        <ele>144</ele>
        <time>2017-02-05T08:58:35.925Z</time>
      </trkpt>
      <trkpt lat="47.66243" lon="2.15762">
        <ele>144</ele>
        <time>2017-02-05T08:58:36.961Z</time>
      </trkpt>
      <trkpt lat="47.66246" lon="2.15777">
        <ele>144</ele>
        <time>2017-02-05T08:58:37.961Z</time>
      </trkpt>
      <trkpt lat="47.66246" lon="2.15777">
        <ele>144</ele>
        <time>2017-02-05T08:58:38.961Z</time>
      </trkpt>
      <trkpt lat="47.66248" lon="2.15794">
        <ele>143</ele>
        <time>2017-02-05T08:58:39.954Z</time>
      </trkpt>
      <trkpt lat="47.6625" lon="2.15801">
        <ele>143</ele>
        <time>2017-02-05T08:58:40.923Z</time>
      </trkpt>
      <trkpt lat="47.66251" lon="2.15809">
        <ele>143</ele>
        <time>2017-02-05T08:58:41.926Z</time>
      </trkpt>
      <trkpt lat="47.66251" lon="2.15809">
        <ele>143</ele>
        <time>2017-02-05T08:58:42.961Z</time>
      </trkpt>
      <trkpt lat="47.66254" lon="2.15825">
        <ele>143</ele>
        <time>2017-02-05T08:58:43.925Z</time>
      </trkpt>
      <trkpt lat="47.66255" lon="2.15832">
        <ele>143</ele>
        <time>2017-02-05T08:58:44.924Z</time>
      </trkpt>
      <trkpt lat="47.66255" lon="2.15832">
        <ele>143</ele>
        <time>2017-02-05T08:58:45.922Z</time>
      </trkpt>
      <trkpt lat="47.66256" lon="2.15845">
        <ele>142</ele>
        <time>2017-02-05T08:58:46.954Z</time>
      </trkpt>
      <trkpt lat="47.66257" lon="2.1585">
        <ele>142</ele>
        <time>2017-02-05T08:58:47.924Z</time>
      </trkpt>
      <trkpt lat="47.66257" lon="2.1585">
        <ele>142</ele>
        <time>2017-02-05T08:58:48.958Z</time>
      </trkpt>
      <trkpt lat="47.66259" lon="2.15863">
        <ele>143</ele>
        <time>2017-02-05T08:58:49.923Z</time>
      </trkpt>
      <trkpt lat="47.66261" lon="2.15869">
        <ele>143</ele>
        <time>2017-02-05T08:58:50.924Z</time>
      </trkpt>
      <trkpt lat="47.66261" lon="2.15869">
        <ele>143</ele>
        <time>2017-02-05T08:58:51.935Z</time>
      </trkpt>
      <trkpt lat="47.66265" lon="2.15885">
        <ele>143</ele>
        <time>2017-02-05T08:58:52.923Z</time>
      </trkpt>
      <trkpt lat="47.66265" lon="2.15885">
        <ele>143</ele>
        <time>2017-02-05T08:58:53.960Z</time>
      </trkpt>
      <trkpt lat="47.66268" lon="2.15901">
        <ele>143</ele>
        <time>2017-02-05T08:58:54.948Z</time>
      </trkpt>
      <trkpt lat="47.66271" lon="2.15909">
        <ele>143</ele>
        <time>2017-02-05T08:58:55.960Z</time>
      </trkpt>
      <trkpt lat="47.66271" lon="2.15909">
        <ele>143</ele>
        <time>2017-02-05T08:58:56.959Z</time>
      </trkpt>
      <trkpt lat="47.66276" lon="2.15925">
        <ele>142</ele>
        <time>2017-02-05T08:58:57.925Z</time>
      </trkpt>
      <trkpt lat="47.66276" lon="2.15925">
        <ele>142</ele>
        <time>2017-02-05T08:58:58.922Z</time>
      </trkpt>
      <trkpt lat="47.6628" lon="2.1594">
        <ele>142</ele>
        <time>2017-02-05T08:58:59.926Z</time>
      </trkpt>
      <trkpt lat="47.6628" lon="2.1594">
        <ele>142</ele>
        <time>2017-02-05T08:59:00.922Z</time>
      </trkpt>
      <trkpt lat="47.66285" lon="2.15954">
        <ele>141</ele>
        <time>2017-02-05T08:59:01.924Z</time>
      </trkpt>
      <trkpt lat="47.66287" lon="2.15961">
        <ele>141</ele>
        <time>2017-02-05T08:59:02.924Z</time>
      </trkpt>
      <trkpt lat="47.66287" lon="2.15961">
        <ele>141</ele>
        <time>2017-02-05T08:59:03.922Z</time>
      </trkpt>
      <trkpt lat="47.66293" lon="2.15974">
        <ele>141</ele>
        <time>2017-02-05T08:59:04.923Z</time>
      </trkpt>
      <trkpt lat="47.66295" lon="2.1598">
        <ele>141</ele>
        <time>2017-02-05T08:59:05.925Z</time>
      </trkpt>
      <trkpt lat="47.66295" lon="2.1598">
        <ele>141</ele>
        <time>2017-02-05T08:59:06.961Z</time>
      </trkpt>
      <trkpt lat="47.66298" lon="2.15992">
        <ele>140</ele>
        <time>2017-02-05T08:59:07.946Z</time>
      </trkpt>
      <trkpt lat="47.66301" lon="2.16">
        <ele>140</ele>
        <time>2017-02-05T08:59:08.937Z</time>
      </trkpt>
      <trkpt lat="47.66303" lon="2.16007">
        <ele>140</ele>
        <time>2017-02-05T08:59:09.938Z</time>
      </trkpt>
      <trkpt lat="47.66303" lon="2.16007">
        <ele>140</ele>
        <time>2017-02-05T08:59:10.927Z</time>
      </trkpt>
      <trkpt lat="47.66307" lon="2.16021">
        <ele>139</ele>
        <time>2017-02-05T08:59:11.924Z</time>
      </trkpt>
      <trkpt lat="47.6631" lon="2.16028">
        <ele>139</ele>
        <time>2017-02-05T08:59:12.924Z</time>
      </trkpt>
      <trkpt lat="47.6631" lon="2.16028">
        <ele>139</ele>
        <time>2017-02-05T08:59:13.960Z</time>
      </trkpt>
      <trkpt lat="47.66316" lon="2.16042">
        <ele>138</ele>
        <time>2017-02-05T08:59:14.927Z</time>
      </trkpt>
      <trkpt lat="47.66316" lon="2.16042">
        <ele>138</ele>
        <time>2017-02-05T08:59:15.961Z</time>
      </trkpt>
      <trkpt lat="47.66322" lon="2.16057">
        <ele>138</ele>
        <time>2017-02-05T08:59:16.924Z</time>
      </trkpt>
      <trkpt lat="47.66325" lon="2.16064">
        <ele>138</ele>
        <time>2017-02-05T08:59:17.926Z</time>
      </trkpt>
      <trkpt lat="47.66325" lon="2.16064">
        <ele>138</ele>
        <time>2017-02-05T08:59:18.958Z</time>
      </trkpt>
      <trkpt lat="47.66331" lon="2.16079">
        <ele>137</ele>
        <time>2017-02-05T08:59:19.924Z</time>
      </trkpt>
      <trkpt lat="47.66331" lon="2.16079">
        <ele>137</ele>
        <time>2017-02-05T08:59:20.922Z</time>
      </trkpt>
      <trkpt lat="47.66339" lon="2.16093">
        <ele>137</ele>
        <time>2017-02-05T08:59:21.924Z</time>
      </trkpt>
      <trkpt lat="47.66339" lon="2.16093">
        <ele>137</ele>
        <time>2017-02-05T08:59:22.960Z</time>
      </trkpt>
      <trkpt lat="47.66348" lon="2.1611">
        <ele>136</ele>
        <time>2017-02-05T08:59:23.925Z</time>
      </trkpt>
      <trkpt lat="47.66348" lon="2.1611">
        <ele>136</ele>
        <time>2017-02-05T08:59:24.923Z</time>
      </trkpt>
      <trkpt lat="47.66353" lon="2.16127">
        <ele>136</ele>
        <time>2017-02-05T08:59:25.924Z</time>
      </trkpt>
      <trkpt lat="47.66353" lon="2.16127">
        <ele>136</ele>
        <time>2017-02-05T08:59:26.924Z</time>
      </trkpt>
      <trkpt lat="47.66357" lon="2.16142">
        <ele>135</ele>
        <time>2017-02-05T08:59:27.943Z</time>
      </trkpt>
      <trkpt lat="47.66357" lon="2.16142">
        <ele>135</ele>
        <time>2017-02-05T08:59:28.933Z</time>
      </trkpt>
      <trkpt lat="47.66359" lon="2.16156">
        <ele>135</ele>
        <time>2017-02-05T08:59:29.926Z</time>
      </trkpt>
      <trkpt lat="47.6636" lon="2.16163">
        <ele>135</ele>
        <time>2017-02-05T08:59:30.924Z</time>
      </trkpt>
      <trkpt lat="47.6636" lon="2.16163">
        <ele>135</ele>
        <time>2017-02-05T08:59:31.922Z</time>
      </trkpt>
      <trkpt lat="47.66361" lon="2.16177">
        <ele>136</ele>
        <time>2017-02-05T08:59:32.925Z</time>
      </trkpt>
      <trkpt lat="47.66361" lon="2.16184">
        <ele>136</ele>
        <time>2017-02-05T08:59:33.924Z</time>
      </trkpt>
      <trkpt lat="47.66361" lon="2.16192">
        <ele>136</ele>
        <time>2017-02-05T08:59:34.923Z</time>
      </trkpt>
      <trkpt lat="47.66361" lon="2.16192">
        <ele>136</ele>
        <time>2017-02-05T08:59:35.960Z</time>
      </trkpt>
      <trkpt lat="47.66358" lon="2.16208">
        <ele>136</ele>
        <time>2017-02-05T08:59:36.925Z</time>
      </trkpt>
      <trkpt lat="47.66355" lon="2.16216">
        <ele>136</ele>
        <time>2017-02-05T08:59:37.925Z</time>
      </trkpt>
      <trkpt lat="47.66355" lon="2.16216">
        <ele>136</ele>
        <time>2017-02-05T08:59:38.959Z</time>
      </trkpt>
      <trkpt lat="47.66352" lon="2.16231">
        <ele>136</ele>
        <time>2017-02-05T08:59:39.925Z</time>
      </trkpt>
      <trkpt lat="47.66351" lon="2.16239">
        <ele>136</ele>
        <time>2017-02-05T08:59:40.922Z</time>
      </trkpt>
      <trkpt lat="47.66351" lon="2.16239">
        <ele>136</ele>
        <time>2017-02-05T08:59:41.923Z</time>
      </trkpt>
      <trkpt lat="47.66347" lon="2.16252">
        <ele>136</ele>
        <time>2017-02-05T08:59:42.923Z</time>
      </trkpt>
      <trkpt lat="47.66344" lon="2.16258">
        <ele>136</ele>
        <time>2017-02-05T08:59:43.924Z</time>
      </trkpt>
      <trkpt lat="47.66342" lon="2.16265">
        <ele>136</ele>
        <time>2017-02-05T08:59:44.924Z</time>
      </trkpt>
      <trkpt lat="47.6634" lon="2.16272">
        <ele>136</ele>
        <time>2017-02-05T08:59:45.924Z</time>
      </trkpt>
      <trkpt lat="47.6634" lon="2.16272">
        <ele>136</ele>
        <time>2017-02-05T08:59:46.931Z</time>
      </trkpt>
      <trkpt lat="47.66336" lon="2.16288">
        <ele>136</ele>
        <time>2017-02-05T08:59:47.927Z</time>
      </trkpt>
      <trkpt lat="47.66336" lon="2.16288">
        <ele>136</ele>
        <time>2017-02-05T08:59:48.958Z</time>
      </trkpt>
      <trkpt lat="47.66331" lon="2.16303">
        <ele>136</ele>
        <time>2017-02-05T08:59:49.924Z</time>
      </trkpt>
      <trkpt lat="47.66331" lon="2.16303">
        <ele>136</ele>
        <time>2017-02-05T08:59:50.959Z</time>
      </trkpt>
      <trkpt lat="47.66328" lon="2.16317">
        <ele>136</ele>
        <time>2017-02-05T08:59:51.924Z</time>
      </trkpt>
      <trkpt lat="47.66326" lon="2.16325">
        <ele>137</ele>
        <time>2017-02-05T08:59:52.926Z</time>
      </trkpt>
      <trkpt lat="47.66324" lon="2.16333">
        <ele>137</ele>
        <time>2017-02-05T08:59:53.926Z</time>
      </trkpt>
      <trkpt lat="47.66324" lon="2.16333">
        <ele>137</ele>
        <time>2017-02-05T08:59:54.922Z</time>
      </trkpt>
      <trkpt lat="47.6632" lon="2.16346">
        <ele>137</ele>
        <time>2017-02-05T08:59:55.924Z</time>
      </trkpt>
      <trkpt lat="47.6632" lon="2.16351">
        <ele>137</ele>
        <time>2017-02-05T08:59:56.936Z</time>
      </trkpt>
      <trkpt lat="47.6632" lon="2.16351">
        <ele>137</ele>
        <time>2017-02-05T08:59:57.926Z</time>
      </trkpt>
      <trkpt lat="47.6632" lon="2.16361">
        <ele>137</ele>
        <time>2017-02-05T08:59:58.925Z</time>
      </trkpt>
      <trkpt lat="47.6632" lon="2.16361">
        <ele>137</ele>
        <time>2017-02-05T08:59:59.923Z</time>
      </trkpt>
      <trkpt lat="47.66324" lon="2.16367">
        <ele>136</ele>
        <time>2017-02-05T09:00:00.924Z</time>
      </trkpt>
      <trkpt lat="47.66328" lon="2.16369">
        <ele>136</ele>
        <time>2017-02-05T09:00:01.923Z</time>
      </trkpt>
      <trkpt lat="47.66328" lon="2.16369">
        <ele>136</ele>
        <time>2017-02-05T09:00:02.961Z</time>
      </trkpt>
      <trkpt lat="47.66335" lon="2.16373">
        <ele>136</ele>
        <time>2017-02-05T09:00:03.926Z</time>
      </trkpt>
      <trkpt lat="47.66335" lon="2.16373">
        <ele>136</ele>
        <time>2017-02-05T09:00:04.923Z</time>
      </trkpt>
      <trkpt lat="47.66343" lon="2.16374">
        <ele>137</ele>
        <time>2017-02-05T09:00:05.926Z</time>
      </trkpt>
      <trkpt lat="47.66343" lon="2.16374">
        <ele>137</ele>
        <time>2017-02-05T09:00:06.926Z</time>
      </trkpt>
      <trkpt lat="47.66352" lon="2.16374">
        <ele>136</ele>
        <time>2017-02-05T09:00:07.936Z</time>
      </trkpt>
      <trkpt lat="47.66352" lon="2.16374">
        <ele>136</ele>
        <time>2017-02-05T09:00:08.957Z</time>
      </trkpt>
      <trkpt lat="47.6636" lon="2.16376">
        <ele>137</ele>
        <time>2017-02-05T09:00:09.923Z</time>
      </trkpt>
      <trkpt lat="47.66364" lon="2.16376">
        <ele>137</ele>
        <time>2017-02-05T09:00:10.938Z</time>
      </trkpt>
      <trkpt lat="47.66364" lon="2.16376">
        <ele>137</ele>
        <time>2017-02-05T09:00:11.924Z</time>
      </trkpt>
      <trkpt lat="47.66372" lon="2.16377">
        <ele>137</ele>
        <time>2017-02-05T09:00:12.924Z</time>
      </trkpt>
      <trkpt lat="47.66372" lon="2.16377">
        <ele>137</ele>
        <time>2017-02-05T09:00:13.959Z</time>
      </trkpt>
      <trkpt lat="47.66381" lon="2.1638">
        <ele>136</ele>
        <time>2017-02-05T09:00:14.939Z</time>
      </trkpt>
      <trkpt lat="47.66381" lon="2.1638">
        <ele>136</ele>
        <time>2017-02-05T09:00:15.928Z</time>
      </trkpt>
      <trkpt lat="47.66389" lon="2.1638">
        <ele>136</ele>
        <time>2017-02-05T09:00:16.961Z</time>
      </trkpt>
      <trkpt lat="47.66389" lon="2.1638">
        <ele>136</ele>
        <time>2017-02-05T09:00:17.922Z</time>
      </trkpt>
      <trkpt lat="47.66398" lon="2.16379">
        <ele>135</ele>
        <time>2017-02-05T09:00:18.923Z</time>
      </trkpt>
      <trkpt lat="47.66402" lon="2.16377">
        <ele>135</ele>
        <time>2017-02-05T09:00:19.924Z</time>
      </trkpt>
      <trkpt lat="47.66402" lon="2.16377">
        <ele>135</ele>
        <time>2017-02-05T09:00:20.959Z</time>
      </trkpt>
      <trkpt lat="47.66411" lon="2.16373">
        <ele>134</ele>
        <time>2017-02-05T09:00:21.922Z</time>
      </trkpt>
      <trkpt lat="47.66411" lon="2.16373">
        <ele>134</ele>
        <time>2017-02-05T09:00:22.960Z</time>
      </trkpt>
      <trkpt lat="47.66422" lon="2.16368">
        <ele>134</ele>
        <time>2017-02-05T09:00:23.925Z</time>
      </trkpt>
      <trkpt lat="47.66428" lon="2.16366">
        <ele>134</ele>
        <time>2017-02-05T09:00:24.925Z</time>
      </trkpt>
      <trkpt lat="47.66428" lon="2.16366">
        <ele>134</ele>
        <time>2017-02-05T09:00:25.922Z</time>
      </trkpt>
      <trkpt lat="47.6644" lon="2.16361">
        <ele>135</ele>
        <time>2017-02-05T09:00:26.925Z</time>
      </trkpt>
      <trkpt lat="47.6644" lon="2.16361">
        <ele>135</ele>
        <time>2017-02-05T09:00:27.923Z</time>
      </trkpt>
      <trkpt lat="47.66451" lon="2.16357">
        <ele>134</ele>
        <time>2017-02-05T09:00:28.924Z</time>
      </trkpt>
      <trkpt lat="47.66456" lon="2.16356">
        <ele>134</ele>
        <time>2017-02-05T09:00:29.926Z</time>
      </trkpt>
      <trkpt lat="47.66456" lon="2.16356">
        <ele>134</ele>
        <time>2017-02-05T09:00:30.957Z</time>
      </trkpt>
      <trkpt lat="47.66464" lon="2.16355">
        <ele>134</ele>
        <time>2017-02-05T09:00:31.937Z</time>
      </trkpt>
      <trkpt lat="47.66469" lon="2.16355">
        <ele>134</ele>
        <time>2017-02-05T09:00:32.938Z</time>
      </trkpt>
      <trkpt lat="47.66469" lon="2.16355">
        <ele>134</ele>
        <time>2017-02-05T09:00:33.926Z</time>
      </trkpt>
      <trkpt lat="47.66479" lon="2.16354">
        <ele>133</ele>
        <time>2017-02-05T09:00:34.926Z</time>
      </trkpt>
      <trkpt lat="47.66482" lon="2.16353">
        <ele>133</ele>
        <time>2017-02-05T09:00:35.923Z</time>
      </trkpt>
      <trkpt lat="47.66487" lon="2.16352">
        <ele>133</ele>
        <time>2017-02-05T09:00:36.925Z</time>
      </trkpt>
      <trkpt lat="47.66487" lon="2.16352">
        <ele>133</ele>
        <time>2017-02-05T09:00:37.923Z</time>
      </trkpt>
      <trkpt lat="47.66497" lon="2.16351">
        <ele>132</ele>
        <time>2017-02-05T09:00:38.926Z</time>
      </trkpt>
      <trkpt lat="47.66497" lon="2.16351">
        <ele>132</ele>
        <time>2017-02-05T09:00:39.922Z</time>
      </trkpt>
      <trkpt lat="47.66507" lon="2.16351">
        <ele>132</ele>
        <time>2017-02-05T09:00:40.925Z</time>
      </trkpt>
      <trkpt lat="47.66513" lon="2.1635">
        <ele>132</ele>
        <time>2017-02-05T09:00:41.925Z</time>
      </trkpt>
      <trkpt lat="47.66518" lon="2.16349">
        <ele>133</ele>
        <time>2017-02-05T09:00:42.924Z</time>
      </trkpt>
      <trkpt lat="47.66518" lon="2.16349">
        <ele>133</ele>
        <time>2017-02-05T09:00:43.960Z</time>
      </trkpt>
      <trkpt lat="47.66527" lon="2.16344">
        <ele>133</ele>
        <time>2017-02-05T09:00:44.925Z</time>
      </trkpt>
      <trkpt lat="47.66527" lon="2.16344">
        <ele>133</ele>
        <time>2017-02-05T09:00:45.922Z</time>
      </trkpt>
      <trkpt lat="47.66536" lon="2.16339">
        <ele>134</ele>
        <time>2017-02-05T09:00:46.959Z</time>
      </trkpt>
      <trkpt lat="47.66541" lon="2.16337">
        <ele>134</ele>
        <time>2017-02-05T09:00:47.926Z</time>
      </trkpt>
      <trkpt lat="47.66547" lon="2.16335">
        <ele>134</ele>
        <time>2017-02-05T09:00:48.926Z</time>
      </trkpt>
      <trkpt lat="47.66547" lon="2.16335">
        <ele>134</ele>
        <time>2017-02-05T09:00:49.959Z</time>
      </trkpt>
      <trkpt lat="47.66557" lon="2.16333">
        <ele>135</ele>
        <time>2017-02-05T09:00:50.925Z</time>
      </trkpt>
      <trkpt lat="47.66562" lon="2.16331">
        <ele>135</ele>
        <time>2017-02-05T09:00:51.924Z</time>
      </trkpt>
      <trkpt lat="47.66566" lon="2.1633">
        <ele>135</ele>
        <time>2017-02-05T09:00:52.925Z</time>
      </trkpt>
      <trkpt lat="47.66566" lon="2.1633">
        <ele>135</ele>
        <time>2017-02-05T09:00:53.960Z</time>
      </trkpt>
      <trkpt lat="47.66576" lon="2.16327">
        <ele>135</ele>
        <time>2017-02-05T09:00:54.924Z</time>
      </trkpt>
      <trkpt lat="47.66576" lon="2.16327">
        <ele>135</ele>
        <time>2017-02-05T09:00:55.922Z</time>
      </trkpt>
      <trkpt lat="47.66588" lon="2.16323">
        <ele>135</ele>
        <time>2017-02-05T09:00:56.940Z</time>
      </trkpt>
      <trkpt lat="47.66594" lon="2.16321">
        <ele>134</ele>
        <time>2017-02-05T09:00:57.931Z</time>
      </trkpt>
      <trkpt lat="47.66594" lon="2.16321">
        <ele>134</ele>
        <time>2017-02-05T09:00:58.961Z</time>
      </trkpt>
      <trkpt lat="47.66606" lon="2.16318">
        <ele>134</ele>
        <time>2017-02-05T09:00:59.926Z</time>
      </trkpt>
      <trkpt lat="47.66611" lon="2.16318">
        <ele>134</ele>
        <time>2017-02-05T09:01:00.927Z</time>
      </trkpt>
      <trkpt lat="47.66611" lon="2.16318">
        <ele>134</ele>
        <time>2017-02-05T09:01:01.922Z</time>
      </trkpt>
      <trkpt lat="47.66623" lon="2.16318">
        <ele>135</ele>
        <time>2017-02-05T09:01:02.924Z</time>
      </trkpt>
      <trkpt lat="47.66623" lon="2.16318">
        <ele>135</ele>
        <time>2017-02-05T09:01:03.923Z</time>
      </trkpt>
      <trkpt lat="47.66633" lon="2.16316">
        <ele>134</ele>
        <time>2017-02-05T09:01:04.923Z</time>
      </trkpt>
      <trkpt lat="47.66633" lon="2.16316">
        <ele>134</ele>
        <time>2017-02-05T09:01:05.961Z</time>
      </trkpt>
      <trkpt lat="47.66645" lon="2.16317">
        <ele>133</ele>
        <time>2017-02-05T09:01:06.961Z</time>
      </trkpt>
      <trkpt lat="47.66645" lon="2.16317">
        <ele>133</ele>
        <time>2017-02-05T09:01:07.936Z</time>
      </trkpt>
      <trkpt lat="47.66657" lon="2.16318">
        <ele>132</ele>
        <time>2017-02-05T09:01:08.926Z</time>
      </trkpt>
      <trkpt lat="47.66657" lon="2.16318">
        <ele>132</ele>
        <time>2017-02-05T09:01:09.922Z</time>
      </trkpt>
      <trkpt lat="47.66668" lon="2.16319">
        <ele>132</ele>
        <time>2017-02-05T09:01:10.925Z</time>
      </trkpt>
      <trkpt lat="47.66668" lon="2.16319">
        <ele>132</ele>
        <time>2017-02-05T09:01:11.961Z</time>
      </trkpt>
      <trkpt lat="47.6668" lon="2.16322">
        <ele>133</ele>
        <time>2017-02-05T09:01:12.925Z</time>
      </trkpt>
      <trkpt lat="47.6668" lon="2.16322">
        <ele>133</ele>
        <time>2017-02-05T09:01:13.959Z</time>
      </trkpt>
      <trkpt lat="47.66691" lon="2.16326">
        <ele>132</ele>
        <time>2017-02-05T09:01:14.922Z</time>
      </trkpt>
      <trkpt lat="47.66696" lon="2.16327">
        <ele>133</ele>
        <time>2017-02-05T09:01:15.923Z</time>
      </trkpt>
      <trkpt lat="47.66696" lon="2.16327">
        <ele>133</ele>
        <time>2017-02-05T09:01:16.922Z</time>
      </trkpt>
      <trkpt lat="47.66708" lon="2.16329">
        <ele>134</ele>
        <time>2017-02-05T09:01:17.926Z</time>
      </trkpt>
      <trkpt lat="47.66708" lon="2.16329">
        <ele>134</ele>
        <time>2017-02-05T09:01:18.959Z</time>
      </trkpt>
      <trkpt lat="47.66718" lon="2.16332">
        <ele>133</ele>
        <time>2017-02-05T09:01:19.925Z</time>
      </trkpt>
      <trkpt lat="47.66718" lon="2.16332">
        <ele>133</ele>
        <time>2017-02-05T09:01:20.955Z</time>
      </trkpt>
      <trkpt lat="47.66728" lon="2.16334">
        <ele>133</ele>
        <time>2017-02-05T09:01:21.939Z</time>
      </trkpt>
      <trkpt lat="47.66733" lon="2.16335">
        <ele>132</ele>
        <time>2017-02-05T09:01:22.927Z</time>
      </trkpt>
      <trkpt lat="47.66737" lon="2.16335">
        <ele>133</ele>
        <time>2017-02-05T09:01:23.924Z</time>
      </trkpt>
      <trkpt lat="47.66737" lon="2.16335">
        <ele>133</ele>
        <time>2017-02-05T09:01:24.923Z</time>
      </trkpt>
      <trkpt lat="47.66748" lon="2.16337">
        <ele>133</ele>
        <time>2017-02-05T09:01:25.925Z</time>
      </trkpt>
      <trkpt lat="47.66748" lon="2.16337">
        <ele>133</ele>
        <time>2017-02-05T09:01:26.961Z</time>
      </trkpt>
      <trkpt lat="47.66761" lon="2.1634">
        <ele>132</ele>
        <time>2017-02-05T09:01:27.925Z</time>
      </trkpt>
      <trkpt lat="47.66761" lon="2.1634">
        <ele>132</ele>
        <time>2017-02-05T09:01:28.960Z</time>
      </trkpt>
      <trkpt lat="47.66773" lon="2.16339">
        <ele>132</ele>
        <time>2017-02-05T09:01:29.924Z</time>
      </trkpt>
      <trkpt lat="47.66773" lon="2.16339">
        <ele>132</ele>
        <time>2017-02-05T09:01:30.961Z</time>
      </trkpt>
      <trkpt lat="47.66786" lon="2.16337">
        <ele>133</ele>
        <time>2017-02-05T09:01:31.925Z</time>
      </trkpt>
      <trkpt lat="47.66786" lon="2.16337">
        <ele>133</ele>
        <time>2017-02-05T09:01:32.926Z</time>
      </trkpt>
      <trkpt lat="47.66799" lon="2.16336">
        <ele>134</ele>
        <time>2017-02-05T09:01:33.926Z</time>
      </trkpt>
      <trkpt lat="47.66805" lon="2.16336">
        <ele>134</ele>
        <time>2017-02-05T09:01:34.922Z</time>
      </trkpt>
      <trkpt lat="47.66812" lon="2.16336">
        <ele>134</ele>
        <time>2017-02-05T09:01:35.923Z</time>
      </trkpt>
      <trkpt lat="47.66812" lon="2.16336">
        <ele>134</ele>
        <time>2017-02-05T09:01:36.923Z</time>
      </trkpt>
      <trkpt lat="47.66825" lon="2.16333">
        <ele>133</ele>
        <time>2017-02-05T09:01:37.925Z</time>
      </trkpt>
      <trkpt lat="47.66832" lon="2.16332">
        <ele>133</ele>
        <time>2017-02-05T09:01:38.925Z</time>
      </trkpt>
      <trkpt lat="47.66838" lon="2.16331">
        <ele>133</ele>
        <time>2017-02-05T09:01:39.926Z</time>
      </trkpt>
      <trkpt lat="47.66838" lon="2.16331">
        <ele>133</ele>
        <time>2017-02-05T09:01:40.923Z</time>
      </trkpt>
      <trkpt lat="47.6685" lon="2.16329">
        <ele>132</ele>
        <time>2017-02-05T09:01:41.923Z</time>
      </trkpt>
      <trkpt lat="47.6685" lon="2.16329">
        <ele>132</ele>
        <time>2017-02-05T09:01:42.923Z</time>
      </trkpt>
      <trkpt lat="47.66861" lon="2.16326">
        <ele>130</ele>
        <time>2017-02-05T09:01:43.925Z</time>
      </trkpt>
      <trkpt lat="47.66861" lon="2.16326">
        <ele>130</ele>
        <time>2017-02-05T09:01:44.923Z</time>
      </trkpt>
      <trkpt lat="47.66873" lon="2.16323">
        <ele>129</ele>
        <time>2017-02-05T09:01:45.925Z</time>
      </trkpt>
      <trkpt lat="47.66873" lon="2.16323">
        <ele>129</ele>
        <time>2017-02-05T09:01:46.933Z</time>
      </trkpt>
      <trkpt lat="47.66884" lon="2.1632">
        <ele>128</ele>
        <time>2017-02-05T09:01:47.925Z</time>
      </trkpt>
      <trkpt lat="47.66884" lon="2.1632">
        <ele>128</ele>
        <time>2017-02-05T09:01:48.960Z</time>
      </trkpt>
      <trkpt lat="47.66895" lon="2.16317">
        <ele>128</ele>
        <time>2017-02-05T09:01:49.924Z</time>
      </trkpt>
      <trkpt lat="47.66895" lon="2.16317">
        <ele>128</ele>
        <time>2017-02-05T09:01:50.961Z</time>
      </trkpt>
      <trkpt lat="47.66907" lon="2.16316">
        <ele>128</ele>
        <time>2017-02-05T09:01:51.943Z</time>
      </trkpt>
      <trkpt lat="47.66913" lon="2.16315">
        <ele>129</ele>
        <time>2017-02-05T09:01:52.935Z</time>
      </trkpt>
      <trkpt lat="47.66913" lon="2.16315">
        <ele>129</ele>
        <time>2017-02-05T09:01:53.924Z</time>
      </trkpt>
      <trkpt lat="47.66925" lon="2.16314">
        <ele>129</ele>
        <time>2017-02-05T09:01:54.926Z</time>
      </trkpt>
      <trkpt lat="47.66925" lon="2.16314">
        <ele>129</ele>
        <time>2017-02-05T09:01:55.922Z</time>
      </trkpt>
      <trkpt lat="47.66937" lon="2.16312">
        <ele>129</ele>
        <time>2017-02-05T09:01:56.925Z</time>
      </trkpt>
      <trkpt lat="47.66944" lon="2.16311">
        <ele>130</ele>
        <time>2017-02-05T09:01:57.928Z</time>
      </trkpt>
      <trkpt lat="47.66944" lon="2.16311">
        <ele>130</ele>
        <time>2017-02-05T09:01:58.961Z</time>
      </trkpt>
      <trkpt lat="47.66957" lon="2.1631">
        <ele>131</ele>
        <time>2017-02-05T09:01:59.928Z</time>
      </trkpt>
      <trkpt lat="47.66964" lon="2.16309">
        <ele>131</ele>
        <time>2017-02-05T09:02:00.924Z</time>
      </trkpt>
      <trkpt lat="47.66971" lon="2.16309">
        <ele>132</ele>
        <time>2017-02-05T09:02:01.926Z</time>
      </trkpt>
      <trkpt lat="47.66971" lon="2.16309">
        <ele>132</ele>
        <time>2017-02-05T09:02:02.960Z</time>
      </trkpt>
      <trkpt lat="47.66984" lon="2.16309">
        <ele>133</ele>
        <time>2017-02-05T09:02:03.924Z</time>
      </trkpt>
      <trkpt lat="47.66984" lon="2.16309">
        <ele>133</ele>
        <time>2017-02-05T09:02:04.922Z</time>
      </trkpt>
      <trkpt lat="47.66996" lon="2.16309">
        <ele>133</ele>
        <time>2017-02-05T09:02:05.926Z</time>
      </trkpt>
      <trkpt lat="47.67002" lon="2.16309">
        <ele>134</ele>
        <time>2017-02-05T09:02:06.926Z</time>
      </trkpt>
      <trkpt lat="47.67002" lon="2.16309">
        <ele>134</ele>
        <time>2017-02-05T09:02:07.936Z</time>
      </trkpt>
      <trkpt lat="47.67015" lon="2.1631">
        <ele>135</ele>
        <time>2017-02-05T09:02:08.944Z</time>
      </trkpt>
      <trkpt lat="47.67021" lon="2.16309">
        <ele>136</ele>
        <time>2017-02-05T09:02:09.954Z</time>
      </trkpt>
      <trkpt lat="47.67027" lon="2.16307">
        <ele>136</ele>
        <time>2017-02-05T09:02:10.925Z</time>
      </trkpt>
      <trkpt lat="47.67027" lon="2.16307">
        <ele>136</ele>
        <time>2017-02-05T09:02:11.960Z</time>
      </trkpt>
      <trkpt lat="47.6704" lon="2.16307">
        <ele>137</ele>
        <time>2017-02-05T09:02:12.926Z</time>
      </trkpt>
      <trkpt lat="47.67046" lon="2.16306">
        <ele>137</ele>
        <time>2017-02-05T09:02:13.924Z</time>
      </trkpt>
      <trkpt lat="47.67046" lon="2.16306">
        <ele>137</ele>
        <time>2017-02-05T09:02:14.923Z</time>
      </trkpt>
      <trkpt lat="47.67057" lon="2.16304">
        <ele>137</ele>
        <time>2017-02-05T09:02:15.926Z</time>
      </trkpt>
      <trkpt lat="47.67062" lon="2.16304">
        <ele>137</ele>
        <time>2017-02-05T09:02:16.955Z</time>
      </trkpt>
      <trkpt lat="47.67062" lon="2.16304">
        <ele>137</ele>
        <time>2017-02-05T09:02:17.924Z</time>
      </trkpt>
      <trkpt lat="47.67073" lon="2.16303">
        <ele>138</ele>
        <time>2017-02-05T09:02:18.925Z</time>
      </trkpt>
      <trkpt lat="47.67079" lon="2.16302">
        <ele>139</ele>
        <time>2017-02-05T09:02:19.926Z</time>
      </trkpt>
      <trkpt lat="47.67084" lon="2.16301">
        <ele>139</ele>
        <time>2017-02-05T09:02:20.926Z</time>
      </trkpt>
      <trkpt lat="47.67084" lon="2.16301">
        <ele>139</ele>
        <time>2017-02-05T09:02:21.954Z</time>
      </trkpt>
      <trkpt lat="47.67095" lon="2.16302">
        <ele>140</ele>
        <time>2017-02-05T09:02:22.925Z</time>
      </trkpt>
      <trkpt lat="47.67095" lon="2.16302">
        <ele>140</ele>
        <time>2017-02-05T09:02:23.960Z</time>
      </trkpt>
      <trkpt lat="47.67107" lon="2.16303">
        <ele>139</ele>
        <time>2017-02-05T09:02:24.927Z</time>
      </trkpt>
      <trkpt lat="47.67112" lon="2.16302">
        <ele>139</ele>
        <time>2017-02-05T09:02:25.923Z</time>
      </trkpt>
      <trkpt lat="47.67118" lon="2.16302">
        <ele>139</ele>
        <time>2017-02-05T09:02:26.925Z</time>
      </trkpt>
      <trkpt lat="47.67118" lon="2.16302">
        <ele>139</ele>
        <time>2017-02-05T09:02:27.961Z</time>
      </trkpt>
      <trkpt lat="47.67133" lon="2.163">
        <ele>138</ele>
        <time>2017-02-05T09:02:28.925Z</time>
      </trkpt>
      <trkpt lat="47.67133" lon="2.163">
        <ele>138</ele>
        <time>2017-02-05T09:02:29.924Z</time>
      </trkpt>
      <trkpt lat="47.67145" lon="2.16298">
        <ele>137</ele>
        <time>2017-02-05T09:02:30.926Z</time>
      </trkpt>
      <trkpt lat="47.67145" lon="2.16298">
        <ele>137</ele>
        <time>2017-02-05T09:02:31.922Z</time>
      </trkpt>
      <trkpt lat="47.67156" lon="2.16299">
        <ele>136</ele>
        <time>2017-02-05T09:02:32.926Z</time>
      </trkpt>
      <trkpt lat="47.67161" lon="2.16298">
        <ele>136</ele>
        <time>2017-02-05T09:02:33.926Z</time>
      </trkpt>
      <trkpt lat="47.67161" lon="2.16298">
        <ele>136</ele>
        <time>2017-02-05T09:02:34.922Z</time>
      </trkpt>
      <trkpt lat="47.67172" lon="2.16296">
        <ele>134</ele>
        <time>2017-02-05T09:02:35.925Z</time>
      </trkpt>
      <trkpt lat="47.67178" lon="2.16295">
        <ele>134</ele>
        <time>2017-02-05T09:02:36.926Z</time>
      </trkpt>
      <trkpt lat="47.67178" lon="2.16295">
        <ele>134</ele>
        <time>2017-02-05T09:02:37.922Z</time>
      </trkpt>
      <trkpt lat="47.67189" lon="2.16293">
        <ele>132</ele>
        <time>2017-02-05T09:02:38.928Z</time>
      </trkpt>
      <trkpt lat="47.67189" lon="2.16293">
        <ele>132</ele>
        <time>2017-02-05T09:02:39.923Z</time>
      </trkpt>
      <trkpt lat="47.67201" lon="2.1629">
        <ele>131</ele>
        <time>2017-02-05T09:02:40.925Z</time>
      </trkpt>
      <trkpt lat="47.67206" lon="2.16288">
        <ele>131</ele>
        <time>2017-02-05T09:02:41.933Z</time>
      </trkpt>
      <trkpt lat="47.67206" lon="2.16288">
        <ele>131</ele>
        <time>2017-02-05T09:02:42.923Z</time>
      </trkpt>
      <trkpt lat="47.67218" lon="2.16286">
        <ele>131</ele>
        <time>2017-02-05T09:02:43.925Z</time>
      </trkpt>
      <trkpt lat="47.67218" lon="2.16286">
        <ele>131</ele>
        <time>2017-02-05T09:02:44.923Z</time>
      </trkpt>
      <trkpt lat="47.67229" lon="2.16283">
        <ele>132</ele>
        <time>2017-02-05T09:02:45.927Z</time>
      </trkpt>
      <trkpt lat="47.67229" lon="2.16283">
        <ele>132</ele>
        <time>2017-02-05T09:02:46.932Z</time>
      </trkpt>
      <trkpt lat="47.6724" lon="2.16281">
        <ele>133</ele>
        <time>2017-02-05T09:02:47.926Z</time>
      </trkpt>
      <trkpt lat="47.6724" lon="2.16281">
        <ele>133</ele>
        <time>2017-02-05T09:02:48.923Z</time>
      </trkpt>
      <trkpt lat="47.6725" lon="2.1628">
        <ele>133</ele>
        <time>2017-02-05T09:02:49.925Z</time>
      </trkpt>
      <trkpt lat="47.6725" lon="2.1628">
        <ele>133</ele>
        <time>2017-02-05T09:02:50.923Z</time>
      </trkpt>
      <trkpt lat="47.6726" lon="2.16279">
        <ele>134</ele>
        <time>2017-02-05T09:02:51.926Z</time>
      </trkpt>
      <trkpt lat="47.6726" lon="2.16279">
        <ele>134</ele>
        <time>2017-02-05T09:02:52.924Z</time>
      </trkpt>
      <trkpt lat="47.67269" lon="2.16277">
        <ele>136</ele>
        <time>2017-02-05T09:02:53.927Z</time>
      </trkpt>
      <trkpt lat="47.67269" lon="2.16277">
        <ele>136</ele>
        <time>2017-02-05T09:02:54.923Z</time>
      </trkpt>
      <trkpt lat="47.6728" lon="2.16275">
        <ele>136</ele>
        <time>2017-02-05T09:02:55.927Z</time>
      </trkpt>
      <trkpt lat="47.6728" lon="2.16275">
        <ele>136</ele>
        <time>2017-02-05T09:02:56.923Z</time>
      </trkpt>
      <trkpt lat="47.67291" lon="2.16271">
        <ele>135</ele>
        <time>2017-02-05T09:02:57.926Z</time>
      </trkpt>
      <trkpt lat="47.67297" lon="2.1627">
        <ele>135</ele>
        <time>2017-02-05T09:02:58.926Z</time>
      </trkpt>
      <trkpt lat="47.67297" lon="2.1627">
        <ele>135</ele>
        <time>2017-02-05T09:02:59.960Z</time>
      </trkpt>
      <trkpt lat="47.6731" lon="2.16265">
        <ele>134</ele>
        <time>2017-02-05T09:03:00.925Z</time>
      </trkpt>
      <trkpt lat="47.67316" lon="2.16264">
        <ele>133</ele>
        <time>2017-02-05T09:03:01.924Z</time>
      </trkpt>
      <trkpt lat="47.67316" lon="2.16264">
        <ele>133</ele>
        <time>2017-02-05T09:03:02.923Z</time>
      </trkpt>
      <trkpt lat="47.67328" lon="2.16261">
        <ele>133</ele>
        <time>2017-02-05T09:03:03.925Z</time>
      </trkpt>
      <trkpt lat="47.67328" lon="2.16261">
        <ele>133</ele>
        <time>2017-02-05T09:03:04.923Z</time>
      </trkpt>
      <trkpt lat="47.6734" lon="2.16259">
        <ele>134</ele>
        <time>2017-02-05T09:03:05.927Z</time>
      </trkpt>
      <trkpt lat="47.6734" lon="2.16259">
        <ele>134</ele>
        <time>2017-02-05T09:03:06.936Z</time>
      </trkpt>
      <trkpt lat="47.67352" lon="2.16257">
        <ele>135</ele>
        <time>2017-02-05T09:03:07.932Z</time>
      </trkpt>
      <trkpt lat="47.67352" lon="2.16257">
        <ele>135</ele>
        <time>2017-02-05T09:03:08.961Z</time>
      </trkpt>
      <trkpt lat="47.67365" lon="2.16255">
        <ele>135</ele>
        <time>2017-02-05T09:03:09.926Z</time>
      </trkpt>
      <trkpt lat="47.67365" lon="2.16255">
        <ele>135</ele>
        <time>2017-02-05T09:03:10.923Z</time>
      </trkpt>
      <trkpt lat="47.67376" lon="2.16254">
        <ele>137</ele>
        <time>2017-02-05T09:03:11.926Z</time>
      </trkpt>
      <trkpt lat="47.67376" lon="2.16254">
        <ele>137</ele>
        <time>2017-02-05T09:03:12.961Z</time>
      </trkpt>
      <trkpt lat="47.67389" lon="2.16251">
        <ele>134</ele>
        <time>2017-02-05T09:03:13.925Z</time>
      </trkpt>
      <trkpt lat="47.67389" lon="2.16251">
        <ele>134</ele>
        <time>2017-02-05T09:03:14.923Z</time>
      </trkpt>
      <trkpt lat="47.67402" lon="2.16249">
        <ele>132</ele>
        <time>2017-02-05T09:03:15.925Z</time>
      </trkpt>
      <trkpt lat="47.67407" lon="2.16248">
        <ele>132</ele>
        <time>2017-02-05T09:03:16.926Z</time>
      </trkpt>
      <trkpt lat="47.67407" lon="2.16248">
        <ele>132</ele>
        <time>2017-02-05T09:03:17.924Z</time>
      </trkpt>
      <trkpt lat="47.67416" lon="2.16246">
        <ele>132</ele>
        <time>2017-02-05T09:03:18.925Z</time>
      </trkpt>
      <trkpt lat="47.6742" lon="2.16245">
        <ele>132</ele>
        <time>2017-02-05T09:03:19.925Z</time>
      </trkpt>
      <trkpt lat="47.67423" lon="2.16244">
        <ele>133</ele>
        <time>2017-02-05T09:03:20.926Z</time>
      </trkpt>
      <trkpt lat="47.67423" lon="2.16244">
        <ele>133</ele>
        <time>2017-02-05T09:03:21.923Z</time>
      </trkpt>
      <trkpt lat="47.67429" lon="2.16243">
        <ele>132</ele>
        <time>2017-02-05T09:03:22.925Z</time>
      </trkpt>
      <trkpt lat="47.67429" lon="2.16243">
        <ele>132</ele>
        <time>2017-02-05T09:03:23.924Z</time>
      </trkpt>
      <trkpt lat="47.67433" lon="2.1624">
        <ele>133</ele>
        <time>2017-02-05T09:03:24.923Z</time>
      </trkpt>
      <trkpt lat="47.67435" lon="2.16238">
        <ele>133</ele>
        <time>2017-02-05T09:03:25.923Z</time>
      </trkpt>
      <trkpt lat="47.67435" lon="2.16238">
        <ele>133</ele>
        <time>2017-02-05T09:03:26.922Z</time>
      </trkpt>
      <trkpt lat="47.67437" lon="2.16234">
        <ele>132</ele>
        <time>2017-02-05T09:03:27.926Z</time>
      </trkpt>
      <trkpt lat="47.67437" lon="2.16234">
        <ele>132</ele>
        <time>2017-02-05T09:03:28.961Z</time>
      </trkpt>
      <trkpt lat="47.67439" lon="2.16234">
        <ele>133</ele>
        <time>2017-02-05T09:03:29.926Z</time>
      </trkpt>
      <trkpt lat="47.67439" lon="2.16234">
        <ele>133</ele>
        <time>2017-02-05T09:03:30.961Z</time>
      </trkpt>
      <trkpt lat="47.67439" lon="2.16235">
        <ele>133</ele>
        <time>2017-02-05T09:03:31.926Z</time>
      </trkpt>
      <trkpt lat="47.67449" lon="2.1623">
        <ele>127</ele>
        <time>2017-02-05T09:03:32.926Z</time>
      </trkpt>
      <trkpt lat="47.67449" lon="2.1623">
        <ele>127</ele>
        <time>2017-02-05T09:03:33.930Z</time>
      </trkpt>
      <trkpt lat="47.6745" lon="2.16224">
        <ele>127</ele>
        <time>2017-02-05T09:03:34.926Z</time>
      </trkpt>
      <trkpt lat="47.6745" lon="2.16224">
        <ele>127</ele>
        <time>2017-02-05T09:03:35.928Z</time>
      </trkpt>
      <trkpt lat="47.67451" lon="2.16216">
        <ele>127</ele>
        <time>2017-02-05T09:03:36.928Z</time>
      </trkpt>
      <trkpt lat="47.67451" lon="2.16216">
        <ele>127</ele>
        <time>2017-02-05T09:03:37.928Z</time>
      </trkpt>
      <trkpt lat="47.67454" lon="2.16209">
        <ele>127</ele>
        <time>2017-02-05T09:03:38.929Z</time>
      </trkpt>
      <trkpt lat="47.67455" lon="2.16205">
        <ele>127</ele>
        <time>2017-02-05T09:03:39.943Z</time>
      </trkpt>
      <trkpt lat="47.67455" lon="2.16205">
        <ele>127</ele>
        <time>2017-02-05T09:03:40.933Z</time>
      </trkpt>
      <trkpt lat="47.67458" lon="2.16198">
        <ele>127</ele>
        <time>2017-02-05T09:03:41.927Z</time>
      </trkpt>
      <trkpt lat="47.67458" lon="2.16198">
        <ele>127</ele>
        <time>2017-02-05T09:03:42.926Z</time>
      </trkpt>
      <trkpt lat="47.67461" lon="2.16191">
        <ele>126</ele>
        <time>2017-02-05T09:03:43.926Z</time>
      </trkpt>
      <trkpt lat="47.67463" lon="2.16187">
        <ele>126</ele>
        <time>2017-02-05T09:03:44.926Z</time>
      </trkpt>
      <trkpt lat="47.67463" lon="2.16187">
        <ele>126</ele>
        <time>2017-02-05T09:03:45.930Z</time>
      </trkpt>
      <trkpt lat="47.67466" lon="2.16178">
        <ele>126</ele>
        <time>2017-02-05T09:03:46.923Z</time>
      </trkpt>
      <trkpt lat="47.67466" lon="2.16178">
        <ele>126</ele>
        <time>2017-02-05T09:03:47.989Z</time>
      </trkpt>
      <trkpt lat="47.67468" lon="2.16168">
        <ele>126</ele>
        <time>2017-02-05T09:03:48.926Z</time>
      </trkpt>
      <trkpt lat="47.67468" lon="2.16168">
        <ele>126</ele>
        <time>2017-02-05T09:03:49.927Z</time>
      </trkpt>
      <trkpt lat="47.67469" lon="2.16157">
        <ele>126</ele>
        <time>2017-02-05T09:03:50.924Z</time>
      </trkpt>
      <trkpt lat="47.67469" lon="2.16157">
        <ele>126</ele>
        <time>2017-02-05T09:03:51.932Z</time>
      </trkpt>
      <trkpt lat="47.67469" lon="2.16148">
        <ele>126</ele>
        <time>2017-02-05T09:03:52.926Z</time>
      </trkpt>
      <trkpt lat="47.67469" lon="2.16148">
        <ele>126</ele>
        <time>2017-02-05T09:03:53.929Z</time>
      </trkpt>
      <trkpt lat="47.67468" lon="2.1614">
        <ele>126</ele>
        <time>2017-02-05T09:03:54.927Z</time>
      </trkpt>
      <trkpt lat="47.67468" lon="2.16135">
        <ele>126</ele>
        <time>2017-02-05T09:03:55.924Z</time>
      </trkpt>
      <trkpt lat="47.67468" lon="2.16135">
        <ele>126</ele>
        <time>2017-02-05T09:03:56.940Z</time>
      </trkpt>
      <trkpt lat="47.67466" lon="2.16121">
        <ele>127</ele>
        <time>2017-02-05T09:03:57.939Z</time>
      </trkpt>
      <trkpt lat="47.67466" lon="2.16121">
        <ele>127</ele>
        <time>2017-02-05T09:03:58.924Z</time>
      </trkpt>
      <trkpt lat="47.67466" lon="2.16121">
        <ele>127</ele>
        <time>2017-02-05T09:03:59.929Z</time>
      </trkpt>
      <trkpt lat="47.67465" lon="2.1611">
        <ele>127</ele>
        <time>2017-02-05T09:04:00.928Z</time>
      </trkpt>
      <trkpt lat="47.67465" lon="2.16105">
        <ele>127</ele>
        <time>2017-02-05T09:04:01.928Z</time>
      </trkpt>
      <trkpt lat="47.67465" lon="2.16101">
        <ele>127</ele>
        <time>2017-02-05T09:04:02.926Z</time>
      </trkpt>
      <trkpt lat="47.67465" lon="2.16101">
        <ele>127</ele>
        <time>2017-02-05T09:04:03.929Z</time>
      </trkpt>
      <trkpt lat="47.67466" lon="2.16094">
        <ele>128</ele>
        <time>2017-02-05T09:04:04.928Z</time>
      </trkpt>
      <trkpt lat="47.67465" lon="2.16088">
        <ele>128</ele>
        <time>2017-02-05T09:04:05.924Z</time>
      </trkpt>
      <trkpt lat="47.67465" lon="2.16088">
        <ele>128</ele>
        <time>2017-02-05T09:04:06.926Z</time>
      </trkpt>
      <trkpt lat="47.67464" lon="2.16081">
        <ele>128</ele>
        <time>2017-02-05T09:04:07.924Z</time>
      </trkpt>
      <trkpt lat="47.67463" lon="2.16076">
        <ele>128</ele>
        <time>2017-02-05T09:04:08.933Z</time>
      </trkpt>
      <trkpt lat="47.67463" lon="2.16072">
        <ele>129</ele>
        <time>2017-02-05T09:04:09.939Z</time>
      </trkpt>
      <trkpt lat="47.67463" lon="2.16072">
        <ele>129</ele>
        <time>2017-02-05T09:04:10.929Z</time>
      </trkpt>
      <trkpt lat="47.67463" lon="2.1607">
        <ele>129</ele>
        <time>2017-02-05T09:04:11.924Z</time>
      </trkpt>
      <trkpt lat="47.67463" lon="2.1607">
        <ele>129</ele>
        <time>2017-02-05T09:04:12.928Z</time>
      </trkpt>
      <trkpt lat="47.67463" lon="2.16065">
        <ele>130</ele>
        <time>2017-02-05T09:04:13.937Z</time>
      </trkpt>
      <trkpt lat="47.67463" lon="2.16065">
        <ele>130</ele>
        <time>2017-02-05T09:04:14.930Z</time>
      </trkpt>
      <trkpt lat="47.67464" lon="2.16061">
        <ele>130</ele>
        <time>2017-02-05T09:04:15.925Z</time>
      </trkpt>
      <trkpt lat="47.67464" lon="2.16061">
        <ele>130</ele>
        <time>2017-02-05T09:04:16.929Z</time>
      </trkpt>
      <trkpt lat="47.67466" lon="2.16058">
        <ele>130</ele>
        <time>2017-02-05T09:04:17.926Z</time>
      </trkpt>
      <trkpt lat="47.67466" lon="2.16058">
        <ele>130</ele>
        <time>2017-02-05T09:04:18.931Z</time>
      </trkpt>
      <trkpt lat="47.67467" lon="2.16055">
        <ele>130</ele>
        <time>2017-02-05T09:04:19.925Z</time>
      </trkpt>
      <trkpt lat="47.67467" lon="2.16055">
        <ele>130</ele>
        <time>2017-02-05T09:04:20.930Z</time>
      </trkpt>
      <trkpt lat="47.67469" lon="2.16053">
        <ele>130</ele>
        <time>2017-02-05T09:04:21.932Z</time>
      </trkpt>
      <trkpt lat="47.67469" lon="2.1605">
        <ele>130</ele>
        <time>2017-02-05T09:04:22.925Z</time>
      </trkpt>
      <trkpt lat="47.67469" lon="2.1605">
        <ele>130</ele>
        <time>2017-02-05T09:04:23.926Z</time>
      </trkpt>
      <trkpt lat="47.6747" lon="2.16041">
        <ele>130</ele>
        <time>2017-02-05T09:04:24.941Z</time>
      </trkpt>
      <trkpt lat="47.6747" lon="2.16041">
        <ele>130</ele>
        <time>2017-02-05T09:04:25.929Z</time>
      </trkpt>
      <trkpt lat="47.67471" lon="2.16038">
        <ele>130</ele>
        <time>2017-02-05T09:04:26.924Z</time>
      </trkpt>
      <trkpt lat="47.67471" lon="2.16038">
        <ele>130</ele>
        <time>2017-02-05T09:04:27.928Z</time>
      </trkpt>
      <trkpt lat="47.67472" lon="2.16029">
        <ele>129</ele>
        <time>2017-02-05T09:04:28.926Z</time>
      </trkpt>
      <trkpt lat="47.67473" lon="2.16026">
        <ele>129</ele>
        <time>2017-02-05T09:04:29.924Z</time>
      </trkpt>
      <trkpt lat="47.67473" lon="2.16026">
        <ele>129</ele>
        <time>2017-02-05T09:04:30.926Z</time>
      </trkpt>
      <trkpt lat="47.67474" lon="2.16017">
        <ele>129</ele>
        <time>2017-02-05T09:04:31.924Z</time>
      </trkpt>
      <trkpt lat="47.67474" lon="2.16017">
        <ele>129</ele>
        <time>2017-02-05T09:04:32.926Z</time>
      </trkpt>
      <trkpt lat="47.67475" lon="2.16006">
        <ele>129</ele>
        <time>2017-02-05T09:04:33.943Z</time>
      </trkpt>
      <trkpt lat="47.67475" lon="2.16006">
        <ele>129</ele>
        <time>2017-02-05T09:04:34.934Z</time>
      </trkpt>
      <trkpt lat="47.67476" lon="2.15988">
        <ele>129</ele>
        <time>2017-02-05T09:04:35.940Z</time>
      </trkpt>
      <trkpt lat="47.67476" lon="2.15988">
        <ele>129</ele>
        <time>2017-02-05T09:04:36.926Z</time>
      </trkpt>
      <trkpt lat="47.67476" lon="2.15988">
        <ele>129</ele>
        <time>2017-02-05T09:04:37.929Z</time>
      </trkpt>
      <trkpt lat="47.67478" lon="2.15978">
        <ele>129</ele>
        <time>2017-02-05T09:04:38.926Z</time>
      </trkpt>
      <trkpt lat="47.67478" lon="2.15978">
        <ele>129</ele>
        <time>2017-02-05T09:04:39.930Z</time>
      </trkpt>
      <trkpt lat="47.6748" lon="2.15966">
        <ele>129</ele>
        <time>2017-02-05T09:04:40.930Z</time>
      </trkpt>
      <trkpt lat="47.6748" lon="2.15961">
        <ele>129</ele>
        <time>2017-02-05T09:04:41.925Z</time>
      </trkpt>
      <trkpt lat="47.6748" lon="2.15961">
        <ele>129</ele>
        <time>2017-02-05T09:04:42.929Z</time>
      </trkpt>
      <trkpt lat="47.67479" lon="2.15949">
        <ele>129</ele>
        <time>2017-02-05T09:04:43.942Z</time>
      </trkpt>
      <trkpt lat="47.67479" lon="2.15949">
        <ele>129</ele>
        <time>2017-02-05T09:04:44.929Z</time>
      </trkpt>
      <trkpt lat="47.67477" lon="2.1593">
        <ele>128</ele>
        <time>2017-02-05T09:04:45.943Z</time>
      </trkpt>
      <trkpt lat="47.67477" lon="2.1593">
        <ele>128</ele>
        <time>2017-02-05T09:04:46.925Z</time>
      </trkpt>
      <trkpt lat="47.67477" lon="2.1593">
        <ele>128</ele>
        <time>2017-02-05T09:04:47.929Z</time>
      </trkpt>
      <trkpt lat="47.67472" lon="2.1591">
        <ele>128</ele>
        <time>2017-02-05T09:04:48.943Z</time>
      </trkpt>
      <trkpt lat="47.67472" lon="2.1591">
        <ele>128</ele>
        <time>2017-02-05T09:04:49.924Z</time>
      </trkpt>
      <trkpt lat="47.67472" lon="2.1591">
        <ele>128</ele>
        <time>2017-02-05T09:04:50.927Z</time>
      </trkpt>
      <trkpt lat="47.67469" lon="2.15896">
        <ele>128</ele>
        <time>2017-02-05T09:04:51.927Z</time>
      </trkpt>
      <trkpt lat="47.67469" lon="2.15896">
        <ele>128</ele>
        <time>2017-02-05T09:04:52.929Z</time>
      </trkpt>
      <trkpt lat="47.67467" lon="2.15885">
        <ele>127</ele>
        <time>2017-02-05T09:04:53.928Z</time>
      </trkpt>
      <trkpt lat="47.67466" lon="2.1588">
        <ele>127</ele>
        <time>2017-02-05T09:04:54.923Z</time>
      </trkpt>
      <trkpt lat="47.67466" lon="2.1588">
        <ele>127</ele>
        <time>2017-02-05T09:04:55.930Z</time>
      </trkpt>
      <trkpt lat="47.67464" lon="2.15868">
        <ele>126</ele>
        <time>2017-02-05T09:04:56.936Z</time>
      </trkpt>
      <trkpt lat="47.67464" lon="2.15868">
        <ele>126</ele>
        <time>2017-02-05T09:04:57.928Z</time>
      </trkpt>
      <trkpt lat="47.67461" lon="2.15855">
        <ele>125</ele>
        <time>2017-02-05T09:04:58.926Z</time>
      </trkpt>
      <trkpt lat="47.67461" lon="2.15855">
        <ele>125</ele>
        <time>2017-02-05T09:04:59.928Z</time>
      </trkpt>
      <trkpt lat="47.67456" lon="2.15836">
        <ele>124</ele>
        <time>2017-02-05T09:05:00.943Z</time>
      </trkpt>
      <trkpt lat="47.67456" lon="2.15836">
        <ele>124</ele>
        <time>2017-02-05T09:05:01.927Z</time>
      </trkpt>
      <trkpt lat="47.67456" lon="2.15836">
        <ele>124</ele>
        <time>2017-02-05T09:05:02.929Z</time>
      </trkpt>
      <trkpt lat="47.67452" lon="2.15822">
        <ele>123</ele>
        <time>2017-02-05T09:05:03.944Z</time>
      </trkpt>
      <trkpt lat="47.67452" lon="2.15822">
        <ele>123</ele>
        <time>2017-02-05T09:05:04.934Z</time>
      </trkpt>
      <trkpt lat="47.67448" lon="2.15809">
        <ele>123</ele>
        <time>2017-02-05T09:05:05.939Z</time>
      </trkpt>
      <trkpt lat="47.67448" lon="2.15809">
        <ele>123</ele>
        <time>2017-02-05T09:05:06.928Z</time>
      </trkpt>
      <trkpt lat="47.67442" lon="2.15789">
        <ele>122</ele>
        <time>2017-02-05T09:05:07.943Z</time>
      </trkpt>
      <trkpt lat="47.67442" lon="2.15789">
        <ele>122</ele>
        <time>2017-02-05T09:05:08.947Z</time>
      </trkpt>
      <trkpt lat="47.6744" lon="2.15779">
        <ele>121</ele>
        <time>2017-02-05T09:05:09.948Z</time>
      </trkpt>
      <trkpt lat="47.6744" lon="2.15779">
        <ele>121</ele>
        <time>2017-02-05T09:05:10.931Z</time>
      </trkpt>
      <trkpt lat="47.6744" lon="2.15779">
        <ele>121</ele>
        <time>2017-02-05T09:05:11.929Z</time>
      </trkpt>
      <trkpt lat="47.67436" lon="2.15767">
        <ele>121</ele>
        <time>2017-02-05T09:05:12.926Z</time>
      </trkpt>
      <trkpt lat="47.67434" lon="2.15762">
        <ele>121</ele>
        <time>2017-02-05T09:05:13.928Z</time>
      </trkpt>
      <trkpt lat="47.67434" lon="2.15762">
        <ele>121</ele>
        <time>2017-02-05T09:05:14.927Z</time>
      </trkpt>
      <trkpt lat="47.67431" lon="2.15751">
        <ele>121</ele>
        <time>2017-02-05T09:05:15.944Z</time>
      </trkpt>
      <trkpt lat="47.67431" lon="2.15751">
        <ele>121</ele>
        <time>2017-02-05T09:05:16.935Z</time>
      </trkpt>
      <trkpt lat="47.67428" lon="2.15741">
        <ele>120</ele>
        <time>2017-02-05T09:05:17.940Z</time>
      </trkpt>
      <trkpt lat="47.67428" lon="2.15741">
        <ele>120</ele>
        <time>2017-02-05T09:05:18.930Z</time>
      </trkpt>
      <trkpt lat="47.67426" lon="2.15729">
        <ele>120</ele>
        <time>2017-02-05T09:05:19.923Z</time>
      </trkpt>
      <trkpt lat="47.67426" lon="2.15729">
        <ele>120</ele>
        <time>2017-02-05T09:05:20.926Z</time>
      </trkpt>
      <trkpt lat="47.67423" lon="2.15718">
        <ele>120</ele>
        <time>2017-02-05T09:05:21.927Z</time>
      </trkpt>
      <trkpt lat="47.67423" lon="2.15718">
        <ele>120</ele>
        <time>2017-02-05T09:05:22.929Z</time>
      </trkpt>
      <trkpt lat="47.67421" lon="2.15707">
        <ele>119</ele>
        <time>2017-02-05T09:05:23.925Z</time>
      </trkpt>
      <trkpt lat="47.67421" lon="2.15707">
        <ele>119</ele>
        <time>2017-02-05T09:05:24.929Z</time>
      </trkpt>
      <trkpt lat="47.67419" lon="2.15695">
        <ele>119</ele>
        <time>2017-02-05T09:05:25.943Z</time>
      </trkpt>
      <trkpt lat="47.67419" lon="2.15695">
        <ele>119</ele>
        <time>2017-02-05T09:05:26.931Z</time>
      </trkpt>
      <trkpt lat="47.67417" lon="2.15686">
        <ele>118</ele>
        <time>2017-02-05T09:05:27.939Z</time>
      </trkpt>
      <trkpt lat="47.67417" lon="2.15686">
        <ele>118</ele>
        <time>2017-02-05T09:05:28.925Z</time>
      </trkpt>
      <trkpt lat="47.67414" lon="2.15676">
        <ele>118</ele>
        <time>2017-02-05T09:05:29.929Z</time>
      </trkpt>
      <trkpt lat="47.67413" lon="2.1567">
        <ele>118</ele>
        <time>2017-02-05T09:05:30.929Z</time>
      </trkpt>
      <trkpt lat="47.67411" lon="2.15665">
        <ele>118</ele>
        <time>2017-02-05T09:05:31.926Z</time>
      </trkpt>
      <trkpt lat="47.67411" lon="2.15665">
        <ele>118</ele>
        <time>2017-02-05T09:05:32.931Z</time>
      </trkpt>
      <trkpt lat="47.67409" lon="2.15654">
        <ele>118</ele>
        <time>2017-02-05T09:05:33.950Z</time>
      </trkpt>
      <trkpt lat="47.67406" lon="2.15643">
        <ele>118</ele>
        <time>2017-02-05T09:05:34.937Z</time>
      </trkpt>
      <trkpt lat="47.67406" lon="2.15643">
        <ele>118</ele>
        <time>2017-02-05T09:05:35.929Z</time>
      </trkpt>
      <trkpt lat="47.67405" lon="2.15636">
        <ele>118</ele>
        <time>2017-02-05T09:05:36.943Z</time>
      </trkpt>
      <trkpt lat="47.67403" lon="2.15623">
        <ele>118</ele>
        <time>2017-02-05T09:05:37.941Z</time>
      </trkpt>
      <trkpt lat="47.67403" lon="2.15623">
        <ele>118</ele>
        <time>2017-02-05T09:05:38.927Z</time>
      </trkpt>
      <trkpt lat="47.67403" lon="2.15623">
        <ele>118</ele>
        <time>2017-02-05T09:05:39.930Z</time>
      </trkpt>
      <trkpt lat="47.674" lon="2.15609">
        <ele>118</ele>
        <time>2017-02-05T09:05:40.928Z</time>
      </trkpt>
      <trkpt lat="47.67399" lon="2.15605">
        <ele>118</ele>
        <time>2017-02-05T09:05:41.933Z</time>
      </trkpt>
      <trkpt lat="47.67399" lon="2.15605">
        <ele>118</ele>
        <time>2017-02-05T09:05:42.927Z</time>
      </trkpt>
      <trkpt lat="47.67396" lon="2.15598">
        <ele>119</ele>
        <time>2017-02-05T09:05:43.927Z</time>
      </trkpt>
      <trkpt lat="47.67396" lon="2.15598">
        <ele>119</ele>
        <time>2017-02-05T09:05:44.929Z</time>
      </trkpt>
      <trkpt lat="47.67392" lon="2.15587">
        <ele>119</ele>
        <time>2017-02-05T09:05:45.931Z</time>
      </trkpt>
      <trkpt lat="47.67389" lon="2.15581">
        <ele>119</ele>
        <time>2017-02-05T09:05:46.925Z</time>
      </trkpt>
      <trkpt lat="47.67389" lon="2.15581">
        <ele>119</ele>
        <time>2017-02-05T09:05:47.928Z</time>
      </trkpt>
      <trkpt lat="47.67384" lon="2.1557">
        <ele>119</ele>
        <time>2017-02-05T09:05:48.929Z</time>
      </trkpt>
      <trkpt lat="47.67381" lon="2.15566">
        <ele>119</ele>
        <time>2017-02-05T09:05:49.926Z</time>
      </trkpt>
      <trkpt lat="47.67381" lon="2.15566">
        <ele>119</ele>
        <time>2017-02-05T09:05:50.927Z</time>
      </trkpt>
      <trkpt lat="47.67374" lon="2.15557">
        <ele>119</ele>
        <time>2017-02-05T09:05:51.932Z</time>
      </trkpt>
      <trkpt lat="47.67374" lon="2.15557">
        <ele>119</ele>
        <time>2017-02-05T09:05:52.930Z</time>
      </trkpt>
      <trkpt lat="47.67369" lon="2.15547">
        <ele>119</ele>
        <time>2017-02-05T09:05:53.948Z</time>
      </trkpt>
      <trkpt lat="47.67364" lon="2.15537">
        <ele>120</ele>
        <time>2017-02-05T09:05:54.937Z</time>
      </trkpt>
      <trkpt lat="47.67364" lon="2.15537">
        <ele>120</ele>
        <time>2017-02-05T09:05:55.927Z</time>
      </trkpt>
      <trkpt lat="47.67364" lon="2.15537">
        <ele>120</ele>
        <time>2017-02-05T09:05:56.943Z</time>
      </trkpt>
      <trkpt lat="47.67359" lon="2.15528">
        <ele>120</ele>
        <time>2017-02-05T09:05:57.947Z</time>
      </trkpt>
      <trkpt lat="47.67354" lon="2.1552">
        <ele>120</ele>
        <time>2017-02-05T09:05:58.937Z</time>
      </trkpt>
      <trkpt lat="47.67354" lon="2.1552">
        <ele>120</ele>
        <time>2017-02-05T09:05:59.930Z</time>
      </trkpt>
      <trkpt lat="47.67351" lon="2.15516">
        <ele>120</ele>
        <time>2017-02-05T09:06:00.926Z</time>
      </trkpt>
      <trkpt lat="47.67351" lon="2.15516">
        <ele>120</ele>
        <time>2017-02-05T09:06:01.927Z</time>
      </trkpt>
      <trkpt lat="47.67346" lon="2.15505">
        <ele>120</ele>
        <time>2017-02-05T09:06:02.925Z</time>
      </trkpt>
      <trkpt lat="47.67346" lon="2.15505">
        <ele>120</ele>
        <time>2017-02-05T09:06:03.930Z</time>
      </trkpt>
      <trkpt lat="47.67343" lon="2.15494">
        <ele>120</ele>
        <time>2017-02-05T09:06:04.924Z</time>
      </trkpt>
      <trkpt lat="47.67343" lon="2.15494">
        <ele>120</ele>
        <time>2017-02-05T09:06:05.929Z</time>
      </trkpt>
      <trkpt lat="47.67342" lon="2.15483">
        <ele>120</ele>
        <time>2017-02-05T09:06:06.926Z</time>
      </trkpt>
      <trkpt lat="47.67343" lon="2.15477">
        <ele>120</ele>
        <time>2017-02-05T09:06:07.961Z</time>
      </trkpt>
      <trkpt lat="47.67349" lon="2.15464">
        <ele>120</ele>
        <time>2017-02-05T09:06:08.959Z</time>
      </trkpt>
      <trkpt lat="47.67353" lon="2.1546">
        <ele>121</ele>
        <time>2017-02-05T09:06:09.925Z</time>
      </trkpt>
      <trkpt lat="47.67353" lon="2.1546">
        <ele>121</ele>
        <time>2017-02-05T09:06:10.931Z</time>
      </trkpt>
      <trkpt lat="47.67355" lon="2.15456">
        <ele>121</ele>
        <time>2017-02-05T09:06:11.925Z</time>
      </trkpt>
      <trkpt lat="47.67355" lon="2.15456">
        <ele>121</ele>
        <time>2017-02-05T09:06:12.931Z</time>
      </trkpt>
      <trkpt lat="47.67366" lon="2.15444">
        <ele>121</ele>
        <time>2017-02-05T09:06:13.948Z</time>
      </trkpt>
      <trkpt lat="47.67366" lon="2.15444">
        <ele>121</ele>
        <time>2017-02-05T09:06:14.946Z</time>
      </trkpt>
      <trkpt lat="47.67366" lon="2.15444">
        <ele>121</ele>
        <time>2017-02-05T09:06:15.934Z</time>
      </trkpt>
      <trkpt lat="47.67372" lon="2.15434">
        <ele>122</ele>
        <time>2017-02-05T09:06:16.944Z</time>
      </trkpt>
      <trkpt lat="47.67372" lon="2.15434">
        <ele>122</ele>
        <time>2017-02-05T09:06:17.934Z</time>
      </trkpt>
      <trkpt lat="47.67378" lon="2.15425">
        <ele>122</ele>
        <time>2017-02-05T09:06:18.926Z</time>
      </trkpt>
      <trkpt lat="47.67378" lon="2.15425">
        <ele>122</ele>
        <time>2017-02-05T09:06:19.927Z</time>
      </trkpt>
      <trkpt lat="47.67385" lon="2.15415">
        <ele>122</ele>
        <time>2017-02-05T09:06:20.926Z</time>
      </trkpt>
      <trkpt lat="47.67385" lon="2.15415">
        <ele>122</ele>
        <time>2017-02-05T09:06:21.930Z</time>
      </trkpt>
      <trkpt lat="47.67391" lon="2.15406">
        <ele>122</ele>
        <time>2017-02-05T09:06:22.929Z</time>
      </trkpt>
      <trkpt lat="47.67394" lon="2.15401">
        <ele>122</ele>
        <time>2017-02-05T09:06:23.930Z</time>
      </trkpt>
      <trkpt lat="47.67397" lon="2.15396">
        <ele>122</ele>
        <time>2017-02-05T09:06:24.960Z</time>
      </trkpt>
      <trkpt lat="47.67397" lon="2.15396">
        <ele>122</ele>
        <time>2017-02-05T09:06:25.927Z</time>
      </trkpt>
      <trkpt lat="47.67403" lon="2.15387">
        <ele>122</ele>
        <time>2017-02-05T09:06:26.947Z</time>
      </trkpt>
      <trkpt lat="47.67403" lon="2.15387">
        <ele>122</ele>
        <time>2017-02-05T09:06:27.936Z</time>
      </trkpt>
      <trkpt lat="47.67409" lon="2.15377">
        <ele>122</ele>
        <time>2017-02-05T09:06:28.927Z</time>
      </trkpt>
      <trkpt lat="47.67409" lon="2.15377">
        <ele>122</ele>
        <time>2017-02-05T09:06:29.929Z</time>
      </trkpt>
      <trkpt lat="47.67419" lon="2.15363">
        <ele>123</ele>
        <time>2017-02-05T09:06:30.944Z</time>
      </trkpt>
      <trkpt lat="47.67419" lon="2.15363">
        <ele>123</ele>
        <time>2017-02-05T09:06:31.926Z</time>
      </trkpt>
      <trkpt lat="47.67419" lon="2.15363">
        <ele>123</ele>
        <time>2017-02-05T09:06:32.928Z</time>
      </trkpt>
      <trkpt lat="47.67425" lon="2.15353">
        <ele>122</ele>
        <time>2017-02-05T09:06:33.928Z</time>
      </trkpt>
      <trkpt lat="47.67425" lon="2.15353">
        <ele>122</ele>
        <time>2017-02-05T09:06:34.939Z</time>
      </trkpt>
      <trkpt lat="47.67431" lon="2.15343">
        <ele>122</ele>
        <time>2017-02-05T09:06:35.932Z</time>
      </trkpt>
      <trkpt lat="47.67435" lon="2.15338">
        <ele>122</ele>
        <time>2017-02-05T09:06:36.926Z</time>
      </trkpt>
      <trkpt lat="47.67435" lon="2.15338">
        <ele>122</ele>
        <time>2017-02-05T09:06:37.930Z</time>
      </trkpt>
      <trkpt lat="47.67441" lon="2.15329">
        <ele>122</ele>
        <time>2017-02-05T09:06:38.948Z</time>
      </trkpt>
      <trkpt lat="47.67448" lon="2.15319">
        <ele>122</ele>
        <time>2017-02-05T09:06:39.940Z</time>
      </trkpt>
      <trkpt lat="47.67448" lon="2.15319">
        <ele>122</ele>
        <time>2017-02-05T09:06:40.932Z</time>
      </trkpt>
      <trkpt lat="47.67448" lon="2.15319">
        <ele>122</ele>
        <time>2017-02-05T09:06:41.930Z</time>
      </trkpt>
      <trkpt lat="47.67457" lon="2.15306">
        <ele>122</ele>
        <time>2017-02-05T09:06:42.944Z</time>
      </trkpt>
      <trkpt lat="47.67457" lon="2.15306">
        <ele>122</ele>
        <time>2017-02-05T09:06:43.929Z</time>
      </trkpt>
      <trkpt lat="47.67459" lon="2.15301">
        <ele>122</ele>
        <time>2017-02-05T09:06:44.942Z</time>
      </trkpt>
      <trkpt lat="47.67465" lon="2.15292">
        <ele>122</ele>
        <time>2017-02-05T09:06:45.938Z</time>
      </trkpt>
      <trkpt lat="47.67465" lon="2.15292">
        <ele>122</ele>
        <time>2017-02-05T09:06:46.927Z</time>
      </trkpt>
      <trkpt lat="47.67465" lon="2.15292">
        <ele>122</ele>
        <time>2017-02-05T09:06:47.926Z</time>
      </trkpt>
      <trkpt lat="47.67472" lon="2.15284">
        <ele>122</ele>
        <time>2017-02-05T09:06:48.943Z</time>
      </trkpt>
      <trkpt lat="47.67472" lon="2.15284">
        <ele>122</ele>
        <time>2017-02-05T09:06:49.933Z</time>
      </trkpt>
      <trkpt lat="47.67478" lon="2.15275">
        <ele>121</ele>
        <time>2017-02-05T09:06:50.927Z</time>
      </trkpt>
      <trkpt lat="47.67478" lon="2.15275">
        <ele>121</ele>
        <time>2017-02-05T09:06:51.929Z</time>
      </trkpt>
      <trkpt lat="47.67484" lon="2.15267">
        <ele>121</ele>
        <time>2017-02-05T09:06:52.946Z</time>
      </trkpt>
      <trkpt lat="47.67487" lon="2.15262">
        <ele>121</ele>
        <time>2017-02-05T09:06:53.959Z</time>
      </trkpt>
      <trkpt lat="47.67487" lon="2.15262">
        <ele>121</ele>
        <time>2017-02-05T09:06:54.926Z</time>
      </trkpt>
      <trkpt lat="47.67493" lon="2.15252">
        <ele>121</ele>
        <time>2017-02-05T09:06:55.926Z</time>
      </trkpt>
      <trkpt lat="47.67493" lon="2.15252">
        <ele>121</ele>
        <time>2017-02-05T09:06:56.935Z</time>
      </trkpt>
      <trkpt lat="47.67498" lon="2.15242">
        <ele>121</ele>
        <time>2017-02-05T09:06:57.924Z</time>
      </trkpt>
      <trkpt lat="47.67498" lon="2.15242">
        <ele>121</ele>
        <time>2017-02-05T09:06:58.926Z</time>
      </trkpt>
      <trkpt lat="47.67506" lon="2.15224">
        <ele>121</ele>
        <time>2017-02-05T09:06:59.944Z</time>
      </trkpt>
      <trkpt lat="47.67506" lon="2.15224">
        <ele>121</ele>
        <time>2017-02-05T09:07:00.927Z</time>
      </trkpt>
      <trkpt lat="47.67506" lon="2.15224">
        <ele>121</ele>
        <time>2017-02-05T09:07:01.926Z</time>
      </trkpt>
      <trkpt lat="47.67514" lon="2.15205">
        <ele>121</ele>
        <time>2017-02-05T09:07:02.944Z</time>
      </trkpt>
      <trkpt lat="47.67514" lon="2.15205">
        <ele>121</ele>
        <time>2017-02-05T09:07:03.928Z</time>
      </trkpt>
      <trkpt lat="47.67514" lon="2.15205">
        <ele>121</ele>
        <time>2017-02-05T09:07:04.927Z</time>
      </trkpt>
      <trkpt lat="47.67519" lon="2.15193">
        <ele>121</ele>
        <time>2017-02-05T09:07:05.926Z</time>
      </trkpt>
      <trkpt lat="47.67519" lon="2.15193">
        <ele>121</ele>
        <time>2017-02-05T09:07:06.927Z</time>
      </trkpt>
      <trkpt lat="47.67524" lon="2.15181">
        <ele>121</ele>
        <time>2017-02-05T09:07:07.944Z</time>
      </trkpt>
      <trkpt lat="47.67528" lon="2.15168">
        <ele>121</ele>
        <time>2017-02-05T09:07:08.927Z</time>
      </trkpt>
      <trkpt lat="47.67531" lon="2.15163">
        <ele>121</ele>
        <time>2017-02-05T09:07:09.934Z</time>
      </trkpt>
      <trkpt lat="47.67533" lon="2.15156">
        <ele>121</ele>
        <time>2017-02-05T09:07:10.952Z</time>
      </trkpt>
      <trkpt lat="47.67533" lon="2.15156">
        <ele>121</ele>
        <time>2017-02-05T09:07:11.928Z</time>
      </trkpt>
      <trkpt lat="47.67533" lon="2.15156">
        <ele>121</ele>
        <time>2017-02-05T09:07:12.929Z</time>
      </trkpt>
      <trkpt lat="47.67539" lon="2.15145">
        <ele>121</ele>
        <time>2017-02-05T09:07:13.922Z</time>
      </trkpt>
      <trkpt lat="47.67539" lon="2.15145">
        <ele>121</ele>
        <time>2017-02-05T09:07:14.928Z</time>
      </trkpt>
      <trkpt lat="47.67544" lon="2.15135">
        <ele>121</ele>
        <time>2017-02-05T09:07:15.944Z</time>
      </trkpt>
      <trkpt lat="47.67544" lon="2.15135">
        <ele>121</ele>
        <time>2017-02-05T09:07:16.926Z</time>
      </trkpt>
      <trkpt lat="47.67549" lon="2.15127">
        <ele>121</ele>
        <time>2017-02-05T09:07:17.944Z</time>
      </trkpt>
      <trkpt lat="47.67549" lon="2.15127">
        <ele>121</ele>
        <time>2017-02-05T09:07:18.934Z</time>
      </trkpt>
      <trkpt lat="47.67555" lon="2.15121">
        <ele>121</ele>
        <time>2017-02-05T09:07:19.939Z</time>
      </trkpt>
      <trkpt lat="47.67555" lon="2.15121">
        <ele>121</ele>
        <time>2017-02-05T09:07:20.929Z</time>
      </trkpt>
      <trkpt lat="47.67561" lon="2.15115">
        <ele>121</ele>
        <time>2017-02-05T09:07:21.925Z</time>
      </trkpt>
      <trkpt lat="47.67561" lon="2.15115">
        <ele>121</ele>
        <time>2017-02-05T09:07:22.928Z</time>
      </trkpt>
      <trkpt lat="47.67568" lon="2.15107">
        <ele>121</ele>
        <time>2017-02-05T09:07:23.926Z</time>
      </trkpt>
      <trkpt lat="47.67568" lon="2.15107">
        <ele>121</ele>
        <time>2017-02-05T09:07:24.929Z</time>
      </trkpt>
      <trkpt lat="47.67575" lon="2.15098">
        <ele>120</ele>
        <time>2017-02-05T09:07:25.926Z</time>
      </trkpt>
      <trkpt lat="47.67575" lon="2.15098">
        <ele>120</ele>
        <time>2017-02-05T09:07:26.929Z</time>
      </trkpt>
      <trkpt lat="47.67583" lon="2.1509">
        <ele>120</ele>
        <time>2017-02-05T09:07:27.926Z</time>
      </trkpt>
      <trkpt lat="47.67583" lon="2.1509">
        <ele>120</ele>
        <time>2017-02-05T09:07:28.929Z</time>
      </trkpt>
      <trkpt lat="47.67591" lon="2.15082">
        <ele>120</ele>
        <time>2017-02-05T09:07:29.928Z</time>
      </trkpt>
      <trkpt lat="47.67595" lon="2.15078">
        <ele>120</ele>
        <time>2017-02-05T09:07:30.926Z</time>
      </trkpt>
      <trkpt lat="47.67595" lon="2.15078">
        <ele>120</ele>
        <time>2017-02-05T09:07:31.926Z</time>
      </trkpt>
      <trkpt lat="47.67603" lon="2.1507">
        <ele>120</ele>
        <time>2017-02-05T09:07:32.937Z</time>
      </trkpt>
      <trkpt lat="47.67603" lon="2.1507">
        <ele>120</ele>
        <time>2017-02-05T09:07:33.928Z</time>
      </trkpt>
      <trkpt lat="47.67614" lon="2.15058">
        <ele>120</ele>
        <time>2017-02-05T09:07:34.938Z</time>
      </trkpt>
      <trkpt lat="47.67614" lon="2.15058">
        <ele>120</ele>
        <time>2017-02-05T09:07:35.930Z</time>
      </trkpt>
      <trkpt lat="47.67618" lon="2.15055">
        <ele>120</ele>
        <time>2017-02-05T09:07:36.928Z</time>
      </trkpt>
      <trkpt lat="47.67618" lon="2.15055">
        <ele>120</ele>
        <time>2017-02-05T09:07:37.930Z</time>
      </trkpt>
      <trkpt lat="47.67626" lon="2.15049">
        <ele>120</ele>
        <time>2017-02-05T09:07:38.927Z</time>
      </trkpt>
      <trkpt lat="47.6763" lon="2.15047">
        <ele>120</ele>
        <time>2017-02-05T09:07:39.929Z</time>
      </trkpt>
      <trkpt lat="47.6763" lon="2.15047">
        <ele>120</ele>
        <time>2017-02-05T09:07:40.929Z</time>
      </trkpt>
      <trkpt lat="47.67638" lon="2.15044">
        <ele>120</ele>
        <time>2017-02-05T09:07:41.930Z</time>
      </trkpt>
      <trkpt lat="47.67642" lon="2.15043">
        <ele>120</ele>
        <time>2017-02-05T09:07:42.924Z</time>
      </trkpt>
      <trkpt lat="47.67642" lon="2.15043">
        <ele>120</ele>
        <time>2017-02-05T09:07:43.929Z</time>
      </trkpt>
      <trkpt lat="47.6765" lon="2.15038">
        <ele>120</ele>
        <time>2017-02-05T09:07:44.926Z</time>
      </trkpt>
      <trkpt lat="47.6765" lon="2.15038">
        <ele>120</ele>
        <time>2017-02-05T09:07:45.930Z</time>
      </trkpt>
      <trkpt lat="47.67659" lon="2.15035">
        <ele>120</ele>
        <time>2017-02-05T09:07:46.926Z</time>
      </trkpt>
      <trkpt lat="47.67664" lon="2.15033">
        <ele>120</ele>
        <time>2017-02-05T09:07:47.944Z</time>
      </trkpt>
      <trkpt lat="47.67664" lon="2.15033">
        <ele>120</ele>
        <time>2017-02-05T09:07:48.933Z</time>
      </trkpt>
      <trkpt lat="47.67678" lon="2.15028">
        <ele>120</ele>
        <time>2017-02-05T09:07:49.938Z</time>
      </trkpt>
      <trkpt lat="47.67678" lon="2.15028">
        <ele>120</ele>
        <time>2017-02-05T09:07:50.968Z</time>
      </trkpt>
      <trkpt lat="47.67678" lon="2.15028">
        <ele>120</ele>
        <time>2017-02-05T09:07:51.930Z</time>
      </trkpt>
      <trkpt lat="47.67688" lon="2.15023">
        <ele>121</ele>
        <time>2017-02-05T09:07:52.944Z</time>
      </trkpt>
      <trkpt lat="47.67697" lon="2.15019">
        <ele>121</ele>
        <time>2017-02-05T09:07:53.933Z</time>
      </trkpt>
      <trkpt lat="47.67697" lon="2.15019">
        <ele>121</ele>
        <time>2017-02-05T09:07:54.929Z</time>
      </trkpt>
      <trkpt lat="47.67702" lon="2.15016">
        <ele>121</ele>
        <time>2017-02-05T09:07:55.943Z</time>
      </trkpt>
      <trkpt lat="47.67702" lon="2.15016">
        <ele>121</ele>
        <time>2017-02-05T09:07:56.965Z</time>
      </trkpt>
      <trkpt lat="47.67711" lon="2.15012">
        <ele>121</ele>
        <time>2017-02-05T09:07:57.942Z</time>
      </trkpt>
      <trkpt lat="47.67719" lon="2.15005">
        <ele>121</ele>
        <time>2017-02-05T09:07:58.943Z</time>
      </trkpt>
      <trkpt lat="47.67719" lon="2.15005">
        <ele>121</ele>
        <time>2017-02-05T09:07:59.929Z</time>
      </trkpt>
      <trkpt lat="47.67723" lon="2.15001">
        <ele>121</ele>
        <time>2017-02-05T09:08:00.943Z</time>
      </trkpt>
      <trkpt lat="47.67723" lon="2.15001">
        <ele>121</ele>
        <time>2017-02-05T09:08:01.932Z</time>
      </trkpt>
      <trkpt lat="47.67731" lon="2.14992">
        <ele>121</ele>
        <time>2017-02-05T09:08:02.939Z</time>
      </trkpt>
      <trkpt lat="47.67731" lon="2.14992">
        <ele>121</ele>
        <time>2017-02-05T09:08:03.931Z</time>
      </trkpt>
      <trkpt lat="47.67736" lon="2.14982">
        <ele>121</ele>
        <time>2017-02-05T09:08:04.944Z</time>
      </trkpt>
      <trkpt lat="47.67736" lon="2.14982">
        <ele>121</ele>
        <time>2017-02-05T09:08:05.935Z</time>
      </trkpt>
      <trkpt lat="47.67744" lon="2.14971">
        <ele>121</ele>
        <time>2017-02-05T09:08:06.941Z</time>
      </trkpt>
      <trkpt lat="47.67744" lon="2.14971">
        <ele>121</ele>
        <time>2017-02-05T09:08:07.955Z</time>
      </trkpt>
      <trkpt lat="47.67748" lon="2.14969">
        <ele>121</ele>
        <time>2017-02-05T09:08:08.932Z</time>
      </trkpt>
      <trkpt lat="47.67749" lon="2.14967">
        <ele>121</ele>
        <time>2017-02-05T09:08:09.940Z</time>
      </trkpt>
      <trkpt lat="47.67749" lon="2.14967">
        <ele>121</ele>
        <time>2017-02-05T09:08:10.927Z</time>
      </trkpt>
      <trkpt lat="47.67749" lon="2.14967">
        <ele>121</ele>
        <time>2017-02-05T09:08:11.928Z</time>
      </trkpt>
      <trkpt lat="47.67748" lon="2.14964">
        <ele>122</ele>
        <time>2017-02-05T09:08:12.927Z</time>
      </trkpt>
      <trkpt lat="47.67748" lon="2.14964">
        <ele>122</ele>
        <time>2017-02-05T09:08:13.927Z</time>
      </trkpt>
      <trkpt lat="47.67746" lon="2.14964">
        <ele>122</ele>
        <time>2017-02-05T09:08:14.929Z</time>
      </trkpt>
      <trkpt lat="47.67746" lon="2.14964">
        <ele>122</ele>
        <time>2017-02-05T09:08:15.928Z</time>
      </trkpt>
      <trkpt lat="47.67746" lon="2.14964">
        <ele>122</ele>
        <time>2017-02-05T09:08:16.951Z</time>
      </trkpt>
      <trkpt lat="47.67748" lon="2.14958">
        <ele>123</ele>
        <time>2017-02-05T09:08:17.943Z</time>
      </trkpt>
      <trkpt lat="47.67748" lon="2.14958">
        <ele>123</ele>
        <time>2017-02-05T09:08:18.940Z</time>
      </trkpt>
      <trkpt lat="47.67748" lon="2.1495">
        <ele>122</ele>
        <time>2017-02-05T09:08:19.942Z</time>
      </trkpt>
      <trkpt lat="47.67747" lon="2.14945">
        <ele>122</ele>
        <time>2017-02-05T09:08:20.959Z</time>
      </trkpt>
      <trkpt lat="47.67747" lon="2.14945">
        <ele>122</ele>
        <time>2017-02-05T09:08:21.961Z</time>
      </trkpt>
      <trkpt lat="47.67746" lon="2.14936">
        <ele>122</ele>
        <time>2017-02-05T09:08:22.950Z</time>
      </trkpt>
      <trkpt lat="47.67745" lon="2.14932">
        <ele>122</ele>
        <time>2017-02-05T09:08:23.944Z</time>
      </trkpt>
      <trkpt lat="47.67745" lon="2.14932">
        <ele>122</ele>
        <time>2017-02-05T09:08:24.937Z</time>
      </trkpt>
      <trkpt lat="47.67744" lon="2.14922">
        <ele>122</ele>
        <time>2017-02-05T09:08:25.943Z</time>
      </trkpt>
      <trkpt lat="47.67744" lon="2.14922">
        <ele>122</ele>
        <time>2017-02-05T09:08:26.940Z</time>
      </trkpt>
      <trkpt lat="47.67746" lon="2.14915">
        <ele>122</ele>
        <time>2017-02-05T09:08:27.943Z</time>
      </trkpt>
      <trkpt lat="47.67746" lon="2.14915">
        <ele>122</ele>
        <time>2017-02-05T09:08:28.938Z</time>
      </trkpt>
      <trkpt lat="47.6775" lon="2.14911">
        <ele>121</ele>
        <time>2017-02-05T09:08:29.958Z</time>
      </trkpt>
      <trkpt lat="47.6775" lon="2.14911">
        <ele>121</ele>
        <time>2017-02-05T09:08:30.946Z</time>
      </trkpt>
      <trkpt lat="47.67757" lon="2.14912">
        <ele>121</ele>
        <time>2017-02-05T09:08:31.942Z</time>
      </trkpt>
      <trkpt lat="47.67761" lon="2.14913">
        <ele>120</ele>
        <time>2017-02-05T09:08:32.943Z</time>
      </trkpt>
      <trkpt lat="47.67764" lon="2.14914">
        <ele>120</ele>
        <time>2017-02-05T09:08:33.942Z</time>
      </trkpt>
      <trkpt lat="47.67764" lon="2.14914">
        <ele>120</ele>
        <time>2017-02-05T09:08:34.951Z</time>
      </trkpt>
      <trkpt lat="47.6777" lon="2.14915">
        <ele>120</ele>
        <time>2017-02-05T09:08:35.944Z</time>
      </trkpt>
      <trkpt lat="47.6777" lon="2.14915">
        <ele>120</ele>
        <time>2017-02-05T09:08:36.942Z</time>
      </trkpt>
      <trkpt lat="47.67777" lon="2.14916">
        <ele>120</ele>
        <time>2017-02-05T09:08:37.940Z</time>
      </trkpt>
      <trkpt lat="47.67777" lon="2.14916">
        <ele>120</ele>
        <time>2017-02-05T09:08:38.940Z</time>
      </trkpt>
      <trkpt lat="47.67785" lon="2.14918">
        <ele>119</ele>
        <time>2017-02-05T09:08:39.943Z</time>
      </trkpt>
      <trkpt lat="47.67785" lon="2.14918">
        <ele>119</ele>
        <time>2017-02-05T09:08:40.940Z</time>
      </trkpt>
      <trkpt lat="47.67792" lon="2.1492">
        <ele>120</ele>
        <time>2017-02-05T09:08:41.943Z</time>
      </trkpt>
      <trkpt lat="47.67792" lon="2.1492">
        <ele>120</ele>
        <time>2017-02-05T09:08:42.936Z</time>
      </trkpt>
      <trkpt lat="47.67799" lon="2.14922">
        <ele>119</ele>
        <time>2017-02-05T09:08:43.939Z</time>
      </trkpt>
      <trkpt lat="47.67799" lon="2.14922">
        <ele>119</ele>
        <time>2017-02-05T09:08:44.940Z</time>
      </trkpt>
      <trkpt lat="47.67807" lon="2.14923">
        <ele>120</ele>
        <time>2017-02-05T09:08:45.942Z</time>
      </trkpt>
      <trkpt lat="47.67807" lon="2.14923">
        <ele>120</ele>
        <time>2017-02-05T09:08:46.939Z</time>
      </trkpt>
      <trkpt lat="47.67814" lon="2.14925">
        <ele>120</ele>
        <time>2017-02-05T09:08:47.945Z</time>
      </trkpt>
      <trkpt lat="47.67814" lon="2.14925">
        <ele>120</ele>
        <time>2017-02-05T09:08:48.942Z</time>
      </trkpt>
      <trkpt lat="47.67822" lon="2.14928">
        <ele>119</ele>
        <time>2017-02-05T09:08:49.942Z</time>
      </trkpt>
      <trkpt lat="47.67822" lon="2.14928">
        <ele>119</ele>
        <time>2017-02-05T09:08:50.940Z</time>
      </trkpt>
      <trkpt lat="47.67829" lon="2.14931">
        <ele>119</ele>
        <time>2017-02-05T09:08:51.947Z</time>
      </trkpt>
      <trkpt lat="47.67833" lon="2.14933">
        <ele>119</ele>
        <time>2017-02-05T09:08:52.943Z</time>
      </trkpt>
      <trkpt lat="47.67836" lon="2.14933">
        <ele>120</ele>
        <time>2017-02-05T09:08:53.942Z</time>
      </trkpt>
      <trkpt lat="47.67836" lon="2.14933">
        <ele>120</ele>
        <time>2017-02-05T09:08:54.940Z</time>
      </trkpt>
      <trkpt lat="47.67844" lon="2.14937">
        <ele>121</ele>
        <time>2017-02-05T09:08:55.943Z</time>
      </trkpt>
      <trkpt lat="47.67844" lon="2.14937">
        <ele>121</ele>
        <time>2017-02-05T09:08:56.937Z</time>
      </trkpt>
      <trkpt lat="47.6785" lon="2.1494">
        <ele>122</ele>
        <time>2017-02-05T09:08:57.943Z</time>
      </trkpt>
      <trkpt lat="47.6785" lon="2.1494">
        <ele>122</ele>
        <time>2017-02-05T09:08:58.942Z</time>
      </trkpt>
      <trkpt lat="47.67858" lon="2.14945">
        <ele>122</ele>
        <time>2017-02-05T09:08:59.945Z</time>
      </trkpt>
      <trkpt lat="47.67858" lon="2.14945">
        <ele>122</ele>
        <time>2017-02-05T09:09:00.937Z</time>
      </trkpt>
      <trkpt lat="47.67864" lon="2.14951">
        <ele>122</ele>
        <time>2017-02-05T09:09:01.940Z</time>
      </trkpt>
      <trkpt lat="47.67864" lon="2.14951">
        <ele>122</ele>
        <time>2017-02-05T09:09:02.941Z</time>
      </trkpt>
      <trkpt lat="47.67872" lon="2.14955">
        <ele>122</ele>
        <time>2017-02-05T09:09:03.944Z</time>
      </trkpt>
      <trkpt lat="47.67872" lon="2.14955">
        <ele>122</ele>
        <time>2017-02-05T09:09:04.938Z</time>
      </trkpt>
      <trkpt lat="47.67878" lon="2.1496">
        <ele>123</ele>
        <time>2017-02-05T09:09:05.946Z</time>
      </trkpt>
      <trkpt lat="47.67878" lon="2.1496">
        <ele>123</ele>
        <time>2017-02-05T09:09:06.941Z</time>
      </trkpt>
      <trkpt lat="47.67885" lon="2.14964">
        <ele>124</ele>
        <time>2017-02-05T09:09:07.961Z</time>
      </trkpt>
      <trkpt lat="47.67885" lon="2.14964">
        <ele>124</ele>
        <time>2017-02-05T09:09:08.932Z</time>
      </trkpt>
      <trkpt lat="47.67892" lon="2.14967">
        <ele>124</ele>
        <time>2017-02-05T09:09:09.952Z</time>
      </trkpt>
      <trkpt lat="47.67892" lon="2.14967">
        <ele>124</ele>
        <time>2017-02-05T09:09:10.941Z</time>
      </trkpt>
      <trkpt lat="47.679" lon="2.14972">
        <ele>125</ele>
        <time>2017-02-05T09:09:11.943Z</time>
      </trkpt>
      <trkpt lat="47.679" lon="2.14972">
        <ele>125</ele>
        <time>2017-02-05T09:09:12.938Z</time>
      </trkpt>
      <trkpt lat="47.67907" lon="2.14976">
        <ele>125</ele>
        <time>2017-02-05T09:09:13.940Z</time>
      </trkpt>
      <trkpt lat="47.67907" lon="2.14976">
        <ele>125</ele>
        <time>2017-02-05T09:09:14.939Z</time>
      </trkpt>
      <trkpt lat="47.67915" lon="2.1498">
        <ele>125</ele>
        <time>2017-02-05T09:09:15.943Z</time>
      </trkpt>
      <trkpt lat="47.67915" lon="2.1498">
        <ele>125</ele>
        <time>2017-02-05T09:09:16.940Z</time>
      </trkpt>
      <trkpt lat="47.67922" lon="2.14984">
        <ele>125</ele>
        <time>2017-02-05T09:09:17.945Z</time>
      </trkpt>
      <trkpt lat="47.67922" lon="2.14984">
        <ele>125</ele>
        <time>2017-02-05T09:09:18.953Z</time>
      </trkpt>
      <trkpt lat="47.67929" lon="2.14988">
        <ele>126</ele>
        <time>2017-02-05T09:09:19.943Z</time>
      </trkpt>
      <trkpt lat="47.67929" lon="2.14988">
        <ele>126</ele>
        <time>2017-02-05T09:09:20.938Z</time>
      </trkpt>
      <trkpt lat="47.67936" lon="2.14993">
        <ele>126</ele>
        <time>2017-02-05T09:09:21.943Z</time>
      </trkpt>
      <trkpt lat="47.67936" lon="2.14993">
        <ele>126</ele>
        <time>2017-02-05T09:09:22.940Z</time>
      </trkpt>
      <trkpt lat="47.67943" lon="2.14997">
        <ele>127</ele>
        <time>2017-02-05T09:09:23.941Z</time>
      </trkpt>
      <trkpt lat="47.67943" lon="2.14997">
        <ele>127</ele>
        <time>2017-02-05T09:09:24.937Z</time>
      </trkpt>
      <trkpt lat="47.6795" lon="2.15002">
        <ele>127</ele>
        <time>2017-02-05T09:09:25.941Z</time>
      </trkpt>
      <trkpt lat="47.6795" lon="2.15002">
        <ele>127</ele>
        <time>2017-02-05T09:09:26.938Z</time>
      </trkpt>
      <trkpt lat="47.67957" lon="2.15007">
        <ele>128</ele>
        <time>2017-02-05T09:09:27.942Z</time>
      </trkpt>
      <trkpt lat="47.67957" lon="2.15007">
        <ele>128</ele>
        <time>2017-02-05T09:09:28.938Z</time>
      </trkpt>
      <trkpt lat="47.67964" lon="2.15011">
        <ele>128</ele>
        <time>2017-02-05T09:09:29.944Z</time>
      </trkpt>
      <trkpt lat="47.67964" lon="2.15011">
        <ele>128</ele>
        <time>2017-02-05T09:09:30.942Z</time>
      </trkpt>
      <trkpt lat="47.6797" lon="2.15016">
        <ele>127</ele>
        <time>2017-02-05T09:09:31.943Z</time>
      </trkpt>
      <trkpt lat="47.6797" lon="2.15016">
        <ele>127</ele>
        <time>2017-02-05T09:09:32.938Z</time>
      </trkpt>
      <trkpt lat="47.67977" lon="2.1502">
        <ele>127</ele>
        <time>2017-02-05T09:09:33.945Z</time>
      </trkpt>
      <trkpt lat="47.67977" lon="2.1502">
        <ele>127</ele>
        <time>2017-02-05T09:09:34.958Z</time>
      </trkpt>
      <trkpt lat="47.67984" lon="2.15024">
        <ele>127</ele>
        <time>2017-02-05T09:09:35.947Z</time>
      </trkpt>
      <trkpt lat="47.67984" lon="2.15024">
        <ele>127</ele>
        <time>2017-02-05T09:09:36.941Z</time>
      </trkpt>
      <trkpt lat="47.6799" lon="2.1503">
        <ele>127</ele>
        <time>2017-02-05T09:09:37.942Z</time>
      </trkpt>
      <trkpt lat="47.6799" lon="2.1503">
        <ele>127</ele>
        <time>2017-02-05T09:09:38.938Z</time>
      </trkpt>
      <trkpt lat="47.67996" lon="2.15037">
        <ele>127</ele>
        <time>2017-02-05T09:09:39.943Z</time>
      </trkpt>
      <trkpt lat="47.67996" lon="2.15037">
        <ele>127</ele>
        <time>2017-02-05T09:09:40.941Z</time>
      </trkpt>
      <trkpt lat="47.68002" lon="2.15045">
        <ele>127</ele>
        <time>2017-02-05T09:09:41.944Z</time>
      </trkpt>
      <trkpt lat="47.68002" lon="2.15045">
        <ele>127</ele>
        <time>2017-02-05T09:09:42.940Z</time>
      </trkpt>
      <trkpt lat="47.68008" lon="2.15053">
        <ele>127</ele>
        <time>2017-02-05T09:09:43.942Z</time>
      </trkpt>
      <trkpt lat="47.68008" lon="2.15053">
        <ele>127</ele>
        <time>2017-02-05T09:09:44.940Z</time>
      </trkpt>
      <trkpt lat="47.68014" lon="2.15061">
        <ele>126</ele>
        <time>2017-02-05T09:09:45.943Z</time>
      </trkpt>
      <trkpt lat="47.68014" lon="2.15061">
        <ele>126</ele>
        <time>2017-02-05T09:09:46.940Z</time>
      </trkpt>
      <trkpt lat="47.6802" lon="2.1507">
        <ele>126</ele>
        <time>2017-02-05T09:09:47.945Z</time>
      </trkpt>
      <trkpt lat="47.6802" lon="2.1507">
        <ele>126</ele>
        <time>2017-02-05T09:09:48.941Z</time>
      </trkpt>
      <trkpt lat="47.68026" lon="2.15079">
        <ele>127</ele>
        <time>2017-02-05T09:09:49.939Z</time>
      </trkpt>
      <trkpt lat="47.68026" lon="2.15079">
        <ele>127</ele>
        <time>2017-02-05T09:09:50.939Z</time>
      </trkpt>
      <trkpt lat="47.68033" lon="2.15087">
        <ele>127</ele>
        <time>2017-02-05T09:09:51.942Z</time>
      </trkpt>
      <trkpt lat="47.68036" lon="2.15092">
        <ele>127</ele>
        <time>2017-02-05T09:09:52.939Z</time>
      </trkpt>
      <trkpt lat="47.68036" lon="2.15092">
        <ele>127</ele>
        <time>2017-02-05T09:09:53.941Z</time>
      </trkpt>
      <trkpt lat="47.68043" lon="2.151">
        <ele>127</ele>
        <time>2017-02-05T09:09:54.935Z</time>
      </trkpt>
      <trkpt lat="47.68046" lon="2.15104">
        <ele>127</ele>
        <time>2017-02-05T09:09:55.942Z</time>
      </trkpt>
      <trkpt lat="47.68046" lon="2.15104">
        <ele>127</ele>
        <time>2017-02-05T09:09:56.936Z</time>
      </trkpt>
      <trkpt lat="47.68053" lon="2.15113">
        <ele>128</ele>
        <time>2017-02-05T09:09:57.942Z</time>
      </trkpt>
      <trkpt lat="47.68053" lon="2.15113">
        <ele>128</ele>
        <time>2017-02-05T09:09:58.940Z</time>
      </trkpt>
      <trkpt lat="47.6806" lon="2.15122">
        <ele>128</ele>
        <time>2017-02-05T09:09:59.945Z</time>
      </trkpt>
      <trkpt lat="47.6806" lon="2.15122">
        <ele>128</ele>
        <time>2017-02-05T09:10:00.938Z</time>
      </trkpt>
      <trkpt lat="47.68066" lon="2.15133">
        <ele>128</ele>
        <time>2017-02-05T09:10:01.940Z</time>
      </trkpt>
      <trkpt lat="47.68066" lon="2.15133">
        <ele>128</ele>
        <time>2017-02-05T09:10:02.941Z</time>
      </trkpt>
      <trkpt lat="47.68073" lon="2.15144">
        <ele>128</ele>
        <time>2017-02-05T09:10:03.942Z</time>
      </trkpt>
      <trkpt lat="47.68076" lon="2.15149">
        <ele>128</ele>
        <time>2017-02-05T09:10:04.927Z</time>
      </trkpt>
      <trkpt lat="47.68076" lon="2.15149">
        <ele>128</ele>
        <time>2017-02-05T09:10:05.956Z</time>
      </trkpt>
      <trkpt lat="47.68083" lon="2.1516">
        <ele>128</ele>
        <time>2017-02-05T09:10:06.947Z</time>
      </trkpt>
      <trkpt lat="47.68087" lon="2.15166">
        <ele>128</ele>
        <time>2017-02-05T09:10:07.957Z</time>
      </trkpt>
      <trkpt lat="47.68087" lon="2.15166">
        <ele>128</ele>
        <time>2017-02-05T09:10:08.959Z</time>
      </trkpt>
      <trkpt lat="47.68093" lon="2.15177">
        <ele>128</ele>
        <time>2017-02-05T09:10:09.940Z</time>
      </trkpt>
      <trkpt lat="47.68093" lon="2.15177">
        <ele>128</ele>
        <time>2017-02-05T09:10:10.952Z</time>
      </trkpt>
      <trkpt lat="47.681" lon="2.15189">
        <ele>128</ele>
        <time>2017-02-05T09:10:11.943Z</time>
      </trkpt>
      <trkpt lat="47.681" lon="2.15189">
        <ele>128</ele>
        <time>2017-02-05T09:10:12.940Z</time>
      </trkpt>
      <trkpt lat="47.68106" lon="2.15199">
        <ele>128</ele>
        <time>2017-02-05T09:10:13.942Z</time>
      </trkpt>
      <trkpt lat="47.68106" lon="2.15199">
        <ele>128</ele>
        <time>2017-02-05T09:10:14.939Z</time>
      </trkpt>
      <trkpt lat="47.68112" lon="2.15209">
        <ele>128</ele>
        <time>2017-02-05T09:10:15.943Z</time>
      </trkpt>
      <trkpt lat="47.68112" lon="2.15209">
        <ele>128</ele>
        <time>2017-02-05T09:10:16.940Z</time>
      </trkpt>
      <trkpt lat="47.68119" lon="2.1522">
        <ele>128</ele>
        <time>2017-02-05T09:10:17.943Z</time>
      </trkpt>
      <trkpt lat="47.68119" lon="2.1522">
        <ele>128</ele>
        <time>2017-02-05T09:10:18.941Z</time>
      </trkpt>
      <trkpt lat="47.68125" lon="2.15232">
        <ele>128</ele>
        <time>2017-02-05T09:10:19.939Z</time>
      </trkpt>
      <trkpt lat="47.68125" lon="2.15232">
        <ele>128</ele>
        <time>2017-02-05T09:10:20.939Z</time>
      </trkpt>
      <trkpt lat="47.68131" lon="2.15244">
        <ele>128</ele>
        <time>2017-02-05T09:10:21.942Z</time>
      </trkpt>
      <trkpt lat="47.68131" lon="2.15244">
        <ele>128</ele>
        <time>2017-02-05T09:10:22.940Z</time>
      </trkpt>
      <trkpt lat="47.68137" lon="2.15257">
        <ele>128</ele>
        <time>2017-02-05T09:10:23.943Z</time>
      </trkpt>
      <trkpt lat="47.68137" lon="2.15257">
        <ele>128</ele>
        <time>2017-02-05T09:10:24.940Z</time>
      </trkpt>
      <trkpt lat="47.68143" lon="2.1527">
        <ele>128</ele>
        <time>2017-02-05T09:10:25.943Z</time>
      </trkpt>
      <trkpt lat="47.68146" lon="2.15276">
        <ele>128</ele>
        <time>2017-02-05T09:10:26.951Z</time>
      </trkpt>
      <trkpt lat="47.68146" lon="2.15276">
        <ele>128</ele>
        <time>2017-02-05T09:10:27.940Z</time>
      </trkpt>
      <trkpt lat="47.68152" lon="2.15289">
        <ele>128</ele>
        <time>2017-02-05T09:10:28.958Z</time>
      </trkpt>
      <trkpt lat="47.68155" lon="2.15296">
        <ele>128</ele>
        <time>2017-02-05T09:10:29.945Z</time>
      </trkpt>
      <trkpt lat="47.68155" lon="2.15296">
        <ele>128</ele>
        <time>2017-02-05T09:10:30.940Z</time>
      </trkpt>
      <trkpt lat="47.6816" lon="2.15309">
        <ele>128</ele>
        <time>2017-02-05T09:10:31.942Z</time>
      </trkpt>
      <trkpt lat="47.68163" lon="2.15316">
        <ele>128</ele>
        <time>2017-02-05T09:10:32.942Z</time>
      </trkpt>
      <trkpt lat="47.68163" lon="2.15316">
        <ele>128</ele>
        <time>2017-02-05T09:10:33.944Z</time>
      </trkpt>
      <trkpt lat="47.68167" lon="2.15329">
        <ele>128</ele>
        <time>2017-02-05T09:10:34.962Z</time>
      </trkpt>
      <trkpt lat="47.6817" lon="2.15335">
        <ele>128</ele>
        <time>2017-02-05T09:10:35.952Z</time>
      </trkpt>
      <trkpt lat="47.6817" lon="2.15335">
        <ele>128</ele>
        <time>2017-02-05T09:10:36.942Z</time>
      </trkpt>
      <trkpt lat="47.68175" lon="2.15347">
        <ele>128</ele>
        <time>2017-02-05T09:10:37.943Z</time>
      </trkpt>
      <trkpt lat="47.68175" lon="2.15347">
        <ele>128</ele>
        <time>2017-02-05T09:10:38.954Z</time>
      </trkpt>
      <trkpt lat="47.68181" lon="2.1536">
        <ele>128</ele>
        <time>2017-02-05T09:10:39.943Z</time>
      </trkpt>
      <trkpt lat="47.68181" lon="2.1536">
        <ele>128</ele>
        <time>2017-02-05T09:10:40.940Z</time>
      </trkpt>
      <trkpt lat="47.68187" lon="2.15373">
        <ele>128</ele>
        <time>2017-02-05T09:10:41.940Z</time>
      </trkpt>
      <trkpt lat="47.68187" lon="2.15373">
        <ele>128</ele>
        <time>2017-02-05T09:10:42.944Z</time>
      </trkpt>
      <trkpt lat="47.68194" lon="2.15387">
        <ele>127</ele>
        <time>2017-02-05T09:10:43.943Z</time>
      </trkpt>
      <trkpt lat="47.68194" lon="2.15387">
        <ele>127</ele>
        <time>2017-02-05T09:10:44.940Z</time>
      </trkpt>
      <trkpt lat="47.682" lon="2.15399">
        <ele>127</ele>
        <time>2017-02-05T09:10:45.942Z</time>
      </trkpt>
      <trkpt lat="47.682" lon="2.15399">
        <ele>127</ele>
        <time>2017-02-05T09:10:46.937Z</time>
      </trkpt>
      <trkpt lat="47.68207" lon="2.15412">
        <ele>128</ele>
        <time>2017-02-05T09:10:47.943Z</time>
      </trkpt>
      <trkpt lat="47.68207" lon="2.15412">
        <ele>128</ele>
        <time>2017-02-05T09:10:48.941Z</time>
      </trkpt>
      <trkpt lat="47.68214" lon="2.15424">
        <ele>128</ele>
        <time>2017-02-05T09:10:49.942Z</time>
      </trkpt>
      <trkpt lat="47.68214" lon="2.15424">
        <ele>128</ele>
        <time>2017-02-05T09:10:50.937Z</time>
      </trkpt>
      <trkpt lat="47.68222" lon="2.15436">
        <ele>128</ele>
        <time>2017-02-05T09:10:51.942Z</time>
      </trkpt>
      <trkpt lat="47.68222" lon="2.15436">
        <ele>128</ele>
        <time>2017-02-05T09:10:52.940Z</time>
      </trkpt>
      <trkpt lat="47.6823" lon="2.15448">
        <ele>128</ele>
        <time>2017-02-05T09:10:53.944Z</time>
      </trkpt>
      <trkpt lat="47.6823" lon="2.15448">
        <ele>128</ele>
        <time>2017-02-05T09:10:54.938Z</time>
      </trkpt>
      <trkpt lat="47.68238" lon="2.15459">
        <ele>128</ele>
        <time>2017-02-05T09:10:55.943Z</time>
      </trkpt>
      <trkpt lat="47.68238" lon="2.15459">
        <ele>128</ele>
        <time>2017-02-05T09:10:56.939Z</time>
      </trkpt>
      <trkpt lat="47.68246" lon="2.15471">
        <ele>128</ele>
        <time>2017-02-05T09:10:57.943Z</time>
      </trkpt>
      <trkpt lat="47.68246" lon="2.15471">
        <ele>128</ele>
        <time>2017-02-05T09:10:58.939Z</time>
      </trkpt>
      <trkpt lat="47.68254" lon="2.15483">
        <ele>128</ele>
        <time>2017-02-05T09:10:59.949Z</time>
      </trkpt>
      <trkpt lat="47.68254" lon="2.15483">
        <ele>128</ele>
        <time>2017-02-05T09:11:00.940Z</time>
      </trkpt>
      <trkpt lat="47.68262" lon="2.15495">
        <ele>128</ele>
        <time>2017-02-05T09:11:01.942Z</time>
      </trkpt>
      <trkpt lat="47.68266" lon="2.155">
        <ele>128</ele>
        <time>2017-02-05T09:11:02.940Z</time>
      </trkpt>
      <trkpt lat="47.68266" lon="2.155">
        <ele>128</ele>
        <time>2017-02-05T09:11:03.937Z</time>
      </trkpt>
      <trkpt lat="47.68274" lon="2.15512">
        <ele>128</ele>
        <time>2017-02-05T09:11:04.943Z</time>
      </trkpt>
      <trkpt lat="47.68278" lon="2.15518">
        <ele>128</ele>
        <time>2017-02-05T09:11:05.952Z</time>
      </trkpt>
      <trkpt lat="47.68278" lon="2.15518">
        <ele>128</ele>
        <time>2017-02-05T09:11:06.940Z</time>
      </trkpt>
      <trkpt lat="47.68286" lon="2.15529">
        <ele>128</ele>
        <time>2017-02-05T09:11:07.954Z</time>
      </trkpt>
      <trkpt lat="47.68286" lon="2.15529">
        <ele>128</ele>
        <time>2017-02-05T09:11:08.929Z</time>
      </trkpt>
      <trkpt lat="47.68293" lon="2.15541">
        <ele>128</ele>
        <time>2017-02-05T09:11:09.936Z</time>
      </trkpt>
      <trkpt lat="47.68297" lon="2.15547">
        <ele>128</ele>
        <time>2017-02-05T09:11:10.944Z</time>
      </trkpt>
      <trkpt lat="47.68301" lon="2.15553">
        <ele>128</ele>
        <time>2017-02-05T09:11:11.943Z</time>
      </trkpt>
      <trkpt lat="47.68301" lon="2.15553">
        <ele>128</ele>
        <time>2017-02-05T09:11:12.947Z</time>
      </trkpt>
      <trkpt lat="47.68308" lon="2.15564">
        <ele>128</ele>
        <time>2017-02-05T09:11:13.940Z</time>
      </trkpt>
      <trkpt lat="47.68308" lon="2.15564">
        <ele>128</ele>
        <time>2017-02-05T09:11:14.941Z</time>
      </trkpt>
      <trkpt lat="47.68315" lon="2.15575">
        <ele>128</ele>
        <time>2017-02-05T09:11:15.942Z</time>
      </trkpt>
      <trkpt lat="47.68319" lon="2.15581">
        <ele>128</ele>
        <time>2017-02-05T09:11:16.943Z</time>
      </trkpt>
      <trkpt lat="47.68319" lon="2.15581">
        <ele>128</ele>
        <time>2017-02-05T09:11:17.941Z</time>
      </trkpt>
      <trkpt lat="47.68326" lon="2.15593">
        <ele>129</ele>
        <time>2017-02-05T09:11:18.943Z</time>
      </trkpt>
      <trkpt lat="47.6833" lon="2.15598">
        <ele>129</ele>
        <time>2017-02-05T09:11:19.943Z</time>
      </trkpt>
      <trkpt lat="47.6833" lon="2.15598">
        <ele>129</ele>
        <time>2017-02-05T09:11:20.937Z</time>
      </trkpt>
      <trkpt lat="47.68337" lon="2.1561">
        <ele>129</ele>
        <time>2017-02-05T09:11:21.941Z</time>
      </trkpt>
      <trkpt lat="47.6834" lon="2.15616">
        <ele>129</ele>
        <time>2017-02-05T09:11:22.944Z</time>
      </trkpt>
      <trkpt lat="47.68343" lon="2.15621">
        <ele>129</ele>
        <time>2017-02-05T09:11:23.945Z</time>
      </trkpt>
      <trkpt lat="47.68343" lon="2.15621">
        <ele>129</ele>
        <time>2017-02-05T09:11:24.940Z</time>
      </trkpt>
      <trkpt lat="47.6835" lon="2.15631">
        <ele>129</ele>
        <time>2017-02-05T09:11:25.943Z</time>
      </trkpt>
      <trkpt lat="47.6835" lon="2.15631">
        <ele>129</ele>
        <time>2017-02-05T09:11:26.942Z</time>
      </trkpt>
      <trkpt lat="47.68355" lon="2.15641">
        <ele>129</ele>
        <time>2017-02-05T09:11:27.944Z</time>
      </trkpt>
      <trkpt lat="47.68355" lon="2.15641">
        <ele>129</ele>
        <time>2017-02-05T09:11:28.940Z</time>
      </trkpt>
      <trkpt lat="47.68361" lon="2.1565">
        <ele>129</ele>
        <time>2017-02-05T09:11:29.945Z</time>
      </trkpt>
      <trkpt lat="47.68361" lon="2.1565">
        <ele>129</ele>
        <time>2017-02-05T09:11:30.939Z</time>
      </trkpt>
      <trkpt lat="47.68367" lon="2.15657">
        <ele>128</ele>
        <time>2017-02-05T09:11:31.942Z</time>
      </trkpt>
      <trkpt lat="47.68367" lon="2.15657">
        <ele>128</ele>
        <time>2017-02-05T09:11:32.940Z</time>
      </trkpt>
      <trkpt lat="47.68374" lon="2.15659">
        <ele>128</ele>
        <time>2017-02-05T09:11:33.942Z</time>
      </trkpt>
      <trkpt lat="47.68378" lon="2.15658">
        <ele>128</ele>
        <time>2017-02-05T09:11:34.938Z</time>
      </trkpt>
      <trkpt lat="47.68378" lon="2.15658">
        <ele>128</ele>
        <time>2017-02-05T09:11:35.938Z</time>
      </trkpt>
      <trkpt lat="47.68386" lon="2.15658">
        <ele>128</ele>
        <time>2017-02-05T09:11:36.931Z</time>
      </trkpt>
      <trkpt lat="47.68391" lon="2.15658">
        <ele>128</ele>
        <time>2017-02-05T09:11:37.943Z</time>
      </trkpt>
      <trkpt lat="47.68391" lon="2.15658">
        <ele>128</ele>
        <time>2017-02-05T09:11:38.941Z</time>
      </trkpt>
      <trkpt lat="47.68401" lon="2.15656">
        <ele>128</ele>
        <time>2017-02-05T09:11:39.943Z</time>
      </trkpt>
      <trkpt lat="47.68405" lon="2.15656">
        <ele>128</ele>
        <time>2017-02-05T09:11:40.942Z</time>
      </trkpt>
      <trkpt lat="47.68405" lon="2.15656">
        <ele>128</ele>
        <time>2017-02-05T09:11:41.951Z</time>
      </trkpt>
      <trkpt lat="47.68415" lon="2.15656">
        <ele>128</ele>
        <time>2017-02-05T09:11:42.943Z</time>
      </trkpt>
      <trkpt lat="47.68419" lon="2.15656">
        <ele>128</ele>
        <time>2017-02-05T09:11:43.943Z</time>
      </trkpt>
      <trkpt lat="47.68419" lon="2.15656">
        <ele>128</ele>
        <time>2017-02-05T09:11:44.937Z</time>
      </trkpt>
      <trkpt lat="47.68429" lon="2.15655">
        <ele>127</ele>
        <time>2017-02-05T09:11:45.935Z</time>
      </trkpt>
      <trkpt lat="47.68433" lon="2.15654">
        <ele>127</ele>
        <time>2017-02-05T09:11:46.942Z</time>
      </trkpt>
      <trkpt lat="47.68438" lon="2.15654">
        <ele>127</ele>
        <time>2017-02-05T09:11:47.941Z</time>
      </trkpt>
      <trkpt lat="47.68438" lon="2.15654">
        <ele>127</ele>
        <time>2017-02-05T09:11:48.937Z</time>
      </trkpt>
      <trkpt lat="47.68447" lon="2.15652">
        <ele>127</ele>
        <time>2017-02-05T09:11:49.958Z</time>
      </trkpt>
      <trkpt lat="47.68447" lon="2.15652">
        <ele>127</ele>
        <time>2017-02-05T09:11:50.945Z</time>
      </trkpt>
      <trkpt lat="47.68457" lon="2.15652">
        <ele>126</ele>
        <time>2017-02-05T09:11:51.944Z</time>
      </trkpt>
      <trkpt lat="47.68462" lon="2.15652">
        <ele>126</ele>
        <time>2017-02-05T09:11:52.944Z</time>
      </trkpt>
      <trkpt lat="47.68467" lon="2.15651">
        <ele>125</ele>
        <time>2017-02-05T09:11:53.946Z</time>
      </trkpt>
      <trkpt lat="47.68467" lon="2.15651">
        <ele>125</ele>
        <time>2017-02-05T09:11:54.941Z</time>
      </trkpt>
      <trkpt lat="47.68477" lon="2.15651">
        <ele>125</ele>
        <time>2017-02-05T09:11:55.946Z</time>
      </trkpt>
      <trkpt lat="47.68483" lon="2.1565">
        <ele>125</ele>
        <time>2017-02-05T09:11:56.942Z</time>
      </trkpt>
      <trkpt lat="47.68488" lon="2.1565">
        <ele>125</ele>
        <time>2017-02-05T09:11:57.943Z</time>
      </trkpt>
      <trkpt lat="47.68493" lon="2.1565">
        <ele>124</ele>
        <time>2017-02-05T09:11:58.935Z</time>
      </trkpt>
      <trkpt lat="47.68493" lon="2.1565">
        <ele>124</ele>
        <time>2017-02-05T09:11:59.941Z</time>
      </trkpt>
      <trkpt lat="47.68503" lon="2.15648">
        <ele>124</ele>
        <time>2017-02-05T09:12:00.941Z</time>
      </trkpt>
      <trkpt lat="47.68508" lon="2.15648">
        <ele>124</ele>
        <time>2017-02-05T09:12:01.940Z</time>
      </trkpt>
      <trkpt lat="47.68508" lon="2.15648">
        <ele>124</ele>
        <time>2017-02-05T09:12:02.941Z</time>
      </trkpt>
      <trkpt lat="47.68519" lon="2.15647">
        <ele>124</ele>
        <time>2017-02-05T09:12:03.949Z</time>
      </trkpt>
      <trkpt lat="47.68519" lon="2.15647">
        <ele>124</ele>
        <time>2017-02-05T09:12:04.941Z</time>
      </trkpt>
      <trkpt lat="47.68529" lon="2.15646">
        <ele>124</ele>
        <time>2017-02-05T09:12:05.943Z</time>
      </trkpt>
      <trkpt lat="47.68535" lon="2.15644">
        <ele>124</ele>
        <time>2017-02-05T09:12:06.927Z</time>
      </trkpt>
      <trkpt lat="47.68535" lon="2.15644">
        <ele>124</ele>
        <time>2017-02-05T09:12:07.955Z</time>
      </trkpt>
      <trkpt lat="47.68546" lon="2.15643">
        <ele>123</ele>
        <time>2017-02-05T09:12:08.956Z</time>
      </trkpt>
      <trkpt lat="47.6855" lon="2.15642">
        <ele>123</ele>
        <time>2017-02-05T09:12:09.928Z</time>
      </trkpt>
      <trkpt lat="47.6855" lon="2.15642">
        <ele>123</ele>
        <time>2017-02-05T09:12:10.934Z</time>
      </trkpt>
      <trkpt lat="47.6856" lon="2.15641">
        <ele>123</ele>
        <time>2017-02-05T09:12:11.941Z</time>
      </trkpt>
      <trkpt lat="47.6856" lon="2.15641">
        <ele>123</ele>
        <time>2017-02-05T09:12:12.941Z</time>
      </trkpt>
      <trkpt lat="47.6857" lon="2.15639">
        <ele>123</ele>
        <time>2017-02-05T09:12:13.944Z</time>
      </trkpt>
      <trkpt lat="47.6857" lon="2.15639">
        <ele>123</ele>
        <time>2017-02-05T09:12:14.940Z</time>
      </trkpt>
      <trkpt lat="47.6858" lon="2.15638">
        <ele>123</ele>
        <time>2017-02-05T09:12:15.943Z</time>
      </trkpt>
      <trkpt lat="47.6858" lon="2.15638">
        <ele>123</ele>
        <time>2017-02-05T09:12:16.940Z</time>
      </trkpt>
      <trkpt lat="47.68591" lon="2.15635">
        <ele>125</ele>
        <time>2017-02-05T09:12:17.941Z</time>
      </trkpt>
      <trkpt lat="47.68591" lon="2.15635">
        <ele>125</ele>
        <time>2017-02-05T09:12:18.939Z</time>
      </trkpt>
      <trkpt lat="47.68602" lon="2.15634">
        <ele>126</ele>
        <time>2017-02-05T09:12:19.941Z</time>
      </trkpt>
      <trkpt lat="47.68602" lon="2.15634">
        <ele>126</ele>
        <time>2017-02-05T09:12:20.942Z</time>
      </trkpt>
      <trkpt lat="47.68613" lon="2.15634">
        <ele>127</ele>
        <time>2017-02-05T09:12:21.944Z</time>
      </trkpt>
      <trkpt lat="47.68619" lon="2.15635">
        <ele>127</ele>
        <time>2017-02-05T09:12:22.943Z</time>
      </trkpt>
      <trkpt lat="47.68619" lon="2.15635">
        <ele>127</ele>
        <time>2017-02-05T09:12:23.941Z</time>
      </trkpt>
      <trkpt lat="47.6863" lon="2.15637">
        <ele>127</ele>
        <time>2017-02-05T09:12:24.942Z</time>
      </trkpt>
      <trkpt lat="47.68636" lon="2.15638">
        <ele>127</ele>
        <time>2017-02-05T09:12:25.943Z</time>
      </trkpt>
      <trkpt lat="47.68636" lon="2.15638">
        <ele>127</ele>
        <time>2017-02-05T09:12:26.938Z</time>
      </trkpt>
      <trkpt lat="47.68647" lon="2.15642">
        <ele>128</ele>
        <time>2017-02-05T09:12:27.946Z</time>
      </trkpt>
      <trkpt lat="47.68647" lon="2.15642">
        <ele>128</ele>
        <time>2017-02-05T09:12:28.941Z</time>
      </trkpt>
      <trkpt lat="47.68659" lon="2.15645">
        <ele>128</ele>
        <time>2017-02-05T09:12:29.940Z</time>
      </trkpt>
      <trkpt lat="47.68659" lon="2.15645">
        <ele>128</ele>
        <time>2017-02-05T09:12:30.939Z</time>
      </trkpt>
      <trkpt lat="47.68672" lon="2.15649">
        <ele>127</ele>
        <time>2017-02-05T09:12:31.942Z</time>
      </trkpt>
      <trkpt lat="47.68678" lon="2.15651">
        <ele>127</ele>
        <time>2017-02-05T09:12:32.943Z</time>
      </trkpt>
      <trkpt lat="47.68678" lon="2.15651">
        <ele>127</ele>
        <time>2017-02-05T09:12:33.952Z</time>
      </trkpt>
      <trkpt lat="47.68691" lon="2.15655">
        <ele>127</ele>
        <time>2017-02-05T09:12:34.953Z</time>
      </trkpt>
      <trkpt lat="47.68697" lon="2.15657">
        <ele>127</ele>
        <time>2017-02-05T09:12:35.946Z</time>
      </trkpt>
      <trkpt lat="47.68697" lon="2.15657">
        <ele>127</ele>
        <time>2017-02-05T09:12:36.940Z</time>
      </trkpt>
      <trkpt lat="47.68709" lon="2.15661">
        <ele>127</ele>
        <time>2017-02-05T09:12:37.942Z</time>
      </trkpt>
      <trkpt lat="47.68715" lon="2.15664">
        <ele>127</ele>
        <time>2017-02-05T09:12:38.944Z</time>
      </trkpt>
      <trkpt lat="47.68715" lon="2.15664">
        <ele>127</ele>
        <time>2017-02-05T09:12:39.941Z</time>
      </trkpt>
      <trkpt lat="47.68727" lon="2.15669">
        <ele>127</ele>
        <time>2017-02-05T09:12:40.943Z</time>
      </trkpt>
      <trkpt lat="47.68727" lon="2.15669">
        <ele>127</ele>
        <time>2017-02-05T09:12:41.938Z</time>
      </trkpt>
      <trkpt lat="47.68738" lon="2.15673">
        <ele>127</ele>
        <time>2017-02-05T09:12:42.943Z</time>
      </trkpt>
      <trkpt lat="47.68744" lon="2.15675">
        <ele>126</ele>
        <time>2017-02-05T09:12:43.943Z</time>
      </trkpt>
      <trkpt lat="47.68744" lon="2.15675">
        <ele>126</ele>
        <time>2017-02-05T09:12:44.931Z</time>
      </trkpt>
      <trkpt lat="47.68756" lon="2.15678">
        <ele>126</ele>
        <time>2017-02-05T09:12:45.943Z</time>
      </trkpt>
      <trkpt lat="47.68756" lon="2.15678">
        <ele>126</ele>
        <time>2017-02-05T09:12:46.938Z</time>
      </trkpt>
      <trkpt lat="47.68769" lon="2.15682">
        <ele>125</ele>
        <time>2017-02-05T09:12:47.945Z</time>
      </trkpt>
      <trkpt lat="47.68769" lon="2.15682">
        <ele>125</ele>
        <time>2017-02-05T09:12:48.943Z</time>
      </trkpt>
      <trkpt lat="47.6878" lon="2.15686">
        <ele>125</ele>
        <time>2017-02-05T09:12:49.945Z</time>
      </trkpt>
      <trkpt lat="47.68785" lon="2.15687">
        <ele>124</ele>
        <time>2017-02-05T09:12:50.944Z</time>
      </trkpt>
      <trkpt lat="47.68785" lon="2.15687">
        <ele>124</ele>
        <time>2017-02-05T09:12:51.940Z</time>
      </trkpt>
      <trkpt lat="47.68796" lon="2.1569">
        <ele>124</ele>
        <time>2017-02-05T09:12:52.943Z</time>
      </trkpt>
      <trkpt lat="47.688" lon="2.15691">
        <ele>124</ele>
        <time>2017-02-05T09:12:53.945Z</time>
      </trkpt>
      <trkpt lat="47.688" lon="2.15691">
        <ele>124</ele>
        <time>2017-02-05T09:12:54.938Z</time>
      </trkpt>
      <trkpt lat="47.68807" lon="2.15687">
        <ele>123</ele>
        <time>2017-02-05T09:12:55.944Z</time>
      </trkpt>
      <trkpt lat="47.68807" lon="2.15687">
        <ele>123</ele>
        <time>2017-02-05T09:12:56.961Z</time>
      </trkpt>
      <trkpt lat="47.68811" lon="2.15677">
        <ele>123</ele>
        <time>2017-02-05T09:12:57.961Z</time>
      </trkpt>
      <trkpt lat="47.68811" lon="2.15677">
        <ele>123</ele>
        <time>2017-02-05T09:12:58.948Z</time>
      </trkpt>
      <trkpt lat="47.68814" lon="2.15664">
        <ele>122</ele>
        <time>2017-02-05T09:12:59.941Z</time>
      </trkpt>
      <trkpt lat="47.68814" lon="2.15664">
        <ele>122</ele>
        <time>2017-02-05T09:13:00.941Z</time>
      </trkpt>
      <trkpt lat="47.68818" lon="2.1565">
        <ele>122</ele>
        <time>2017-02-05T09:13:01.942Z</time>
      </trkpt>
      <trkpt lat="47.6882" lon="2.15643">
        <ele>121</ele>
        <time>2017-02-05T09:13:02.940Z</time>
      </trkpt>
      <trkpt lat="47.68821" lon="2.15635">
        <ele>121</ele>
        <time>2017-02-05T09:13:03.943Z</time>
      </trkpt>
      <trkpt lat="47.68821" lon="2.15635">
        <ele>121</ele>
        <time>2017-02-05T09:13:04.941Z</time>
      </trkpt>
      <trkpt lat="47.68825" lon="2.15619">
        <ele>121</ele>
        <time>2017-02-05T09:13:05.941Z</time>
      </trkpt>
      <trkpt lat="47.68825" lon="2.15619">
        <ele>121</ele>
        <time>2017-02-05T09:13:06.940Z</time>
      </trkpt>
      <trkpt lat="47.68828" lon="2.15603">
        <ele>121</ele>
        <time>2017-02-05T09:13:07.923Z</time>
      </trkpt>
      <trkpt lat="47.6883" lon="2.15594">
        <ele>121</ele>
        <time>2017-02-05T09:13:08.950Z</time>
      </trkpt>
      <trkpt lat="47.68831" lon="2.15586">
        <ele>121</ele>
        <time>2017-02-05T09:13:09.955Z</time>
      </trkpt>
      <trkpt lat="47.68831" lon="2.15586">
        <ele>121</ele>
        <time>2017-02-05T09:13:10.960Z</time>
      </trkpt>
      <trkpt lat="47.68834" lon="2.1557">
        <ele>122</ele>
        <time>2017-02-05T09:13:11.950Z</time>
      </trkpt>
      <trkpt lat="47.68834" lon="2.1557">
        <ele>122</ele>
        <time>2017-02-05T09:13:12.940Z</time>
      </trkpt>
      <trkpt lat="47.68838" lon="2.15554">
        <ele>122</ele>
        <time>2017-02-05T09:13:13.944Z</time>
      </trkpt>
      <trkpt lat="47.68838" lon="2.15554">
        <ele>122</ele>
        <time>2017-02-05T09:13:14.937Z</time>
      </trkpt>
      <trkpt lat="47.6884" lon="2.15539">
        <ele>122</ele>
        <time>2017-02-05T09:13:15.959Z</time>
      </trkpt>
      <trkpt lat="47.6884" lon="2.15539">
        <ele>122</ele>
        <time>2017-02-05T09:13:16.947Z</time>
      </trkpt>
      <trkpt lat="47.68843" lon="2.15523">
        <ele>123</ele>
        <time>2017-02-05T09:13:17.941Z</time>
      </trkpt>
      <trkpt lat="47.68843" lon="2.15523">
        <ele>123</ele>
        <time>2017-02-05T09:13:18.937Z</time>
      </trkpt>
      <trkpt lat="47.68847" lon="2.15509">
        <ele>123</ele>
        <time>2017-02-05T09:13:19.958Z</time>
      </trkpt>
      <trkpt lat="47.68847" lon="2.15509">
        <ele>123</ele>
        <time>2017-02-05T09:13:20.946Z</time>
      </trkpt>
      <trkpt lat="47.6885" lon="2.15494">
        <ele>124</ele>
        <time>2017-02-05T09:13:21.941Z</time>
      </trkpt>
      <trkpt lat="47.6885" lon="2.15494">
        <ele>124</ele>
        <time>2017-02-05T09:13:22.939Z</time>
      </trkpt>
      <trkpt lat="47.68853" lon="2.15481">
        <ele>124</ele>
        <time>2017-02-05T09:13:23.945Z</time>
      </trkpt>
      <trkpt lat="47.68853" lon="2.15481">
        <ele>124</ele>
        <time>2017-02-05T09:13:24.940Z</time>
      </trkpt>
      <trkpt lat="47.68856" lon="2.15469">
        <ele>125</ele>
        <time>2017-02-05T09:13:25.943Z</time>
      </trkpt>
      <trkpt lat="47.68856" lon="2.15469">
        <ele>125</ele>
        <time>2017-02-05T09:13:26.932Z</time>
      </trkpt>
      <trkpt lat="47.68859" lon="2.15459">
        <ele>125</ele>
        <time>2017-02-05T09:13:27.943Z</time>
      </trkpt>
      <trkpt lat="47.68859" lon="2.15459">
        <ele>125</ele>
        <time>2017-02-05T09:13:28.941Z</time>
      </trkpt>
      <trkpt lat="47.68862" lon="2.15452">
        <ele>124</ele>
        <time>2017-02-05T09:13:29.943Z</time>
      </trkpt>
      <trkpt lat="47.68862" lon="2.15452">
        <ele>124</ele>
        <time>2017-02-05T09:13:30.940Z</time>
      </trkpt>
      <trkpt lat="47.68867" lon="2.1545">
        <ele>124</ele>
        <time>2017-02-05T09:13:31.942Z</time>
      </trkpt>
      <trkpt lat="47.68869" lon="2.15448">
        <ele>124</ele>
        <time>2017-02-05T09:13:32.940Z</time>
      </trkpt>
      <trkpt lat="47.68869" lon="2.15448">
        <ele>124</ele>
        <time>2017-02-05T09:13:33.952Z</time>
      </trkpt>
      <trkpt lat="47.68875" lon="2.15444">
        <ele>125</ele>
        <time>2017-02-05T09:13:34.961Z</time>
      </trkpt>
      <trkpt lat="47.68878" lon="2.15443">
        <ele>125</ele>
        <time>2017-02-05T09:13:35.950Z</time>
      </trkpt>
      <trkpt lat="47.68878" lon="2.15443">
        <ele>125</ele>
        <time>2017-02-05T09:13:36.938Z</time>
      </trkpt>
      <trkpt lat="47.68885" lon="2.15439">
        <ele>126</ele>
        <time>2017-02-05T09:13:37.943Z</time>
      </trkpt>
      <trkpt lat="47.68885" lon="2.15439">
        <ele>126</ele>
        <time>2017-02-05T09:13:38.939Z</time>
      </trkpt>
      <trkpt lat="47.68892" lon="2.15435">
        <ele>126</ele>
        <time>2017-02-05T09:13:39.944Z</time>
      </trkpt>
      <trkpt lat="47.68892" lon="2.15435">
        <ele>126</ele>
        <time>2017-02-05T09:13:40.940Z</time>
      </trkpt>
      <trkpt lat="47.68899" lon="2.1543">
        <ele>126</ele>
        <time>2017-02-05T09:13:41.942Z</time>
      </trkpt>
      <trkpt lat="47.68903" lon="2.15427">
        <ele>126</ele>
        <time>2017-02-05T09:13:42.943Z</time>
      </trkpt>
      <trkpt lat="47.68906" lon="2.15425">
        <ele>126</ele>
        <time>2017-02-05T09:13:43.943Z</time>
      </trkpt>
      <trkpt lat="47.68906" lon="2.15425">
        <ele>126</ele>
        <time>2017-02-05T09:13:44.940Z</time>
      </trkpt>
      <trkpt lat="47.68915" lon="2.1542">
        <ele>126</ele>
        <time>2017-02-05T09:13:45.943Z</time>
      </trkpt>
      <trkpt lat="47.68915" lon="2.1542">
        <ele>126</ele>
        <time>2017-02-05T09:13:46.943Z</time>
      </trkpt>
      <trkpt lat="47.68924" lon="2.15415">
        <ele>126</ele>
        <time>2017-02-05T09:13:47.940Z</time>
      </trkpt>
      <trkpt lat="47.68924" lon="2.15415">
        <ele>126</ele>
        <time>2017-02-05T09:13:48.941Z</time>
      </trkpt>
      <trkpt lat="47.68932" lon="2.1541">
        <ele>127</ele>
        <time>2017-02-05T09:13:49.943Z</time>
      </trkpt>
      <trkpt lat="47.68932" lon="2.1541">
        <ele>127</ele>
        <time>2017-02-05T09:13:50.937Z</time>
      </trkpt>
      <trkpt lat="47.6894" lon="2.15406">
        <ele>127</ele>
        <time>2017-02-05T09:13:51.944Z</time>
      </trkpt>
      <trkpt lat="47.6894" lon="2.15406">
        <ele>127</ele>
        <time>2017-02-05T09:13:52.940Z</time>
      </trkpt>
      <trkpt lat="47.68948" lon="2.15402">
        <ele>127</ele>
        <time>2017-02-05T09:13:53.944Z</time>
      </trkpt>
      <trkpt lat="47.68948" lon="2.15402">
        <ele>127</ele>
        <time>2017-02-05T09:13:54.939Z</time>
      </trkpt>
      <trkpt lat="47.68955" lon="2.15398">
        <ele>127</ele>
        <time>2017-02-05T09:13:55.945Z</time>
      </trkpt>
      <trkpt lat="47.68955" lon="2.15398">
        <ele>127</ele>
        <time>2017-02-05T09:13:56.940Z</time>
      </trkpt>
      <trkpt lat="47.68963" lon="2.15394">
        <ele>126</ele>
        <time>2017-02-05T09:13:57.944Z</time>
      </trkpt>
      <trkpt lat="47.68963" lon="2.15394">
        <ele>126</ele>
        <time>2017-02-05T09:13:58.941Z</time>
      </trkpt>
      <trkpt lat="47.68972" lon="2.1539">
        <ele>126</ele>
        <time>2017-02-05T09:13:59.923Z</time>
      </trkpt>
      <trkpt lat="47.68972" lon="2.1539">
        <ele>126</ele>
        <time>2017-02-05T09:14:00.952Z</time>
      </trkpt>
      <trkpt lat="47.68982" lon="2.15383">
        <ele>126</ele>
        <time>2017-02-05T09:14:01.944Z</time>
      </trkpt>
      <trkpt lat="47.68987" lon="2.15379">
        <ele>126</ele>
        <time>2017-02-05T09:14:02.948Z</time>
      </trkpt>
      <trkpt lat="47.68987" lon="2.15379">
        <ele>126</ele>
        <time>2017-02-05T09:14:03.937Z</time>
      </trkpt>
      <trkpt lat="47.68996" lon="2.15372">
        <ele>127</ele>
        <time>2017-02-05T09:14:04.945Z</time>
      </trkpt>
      <trkpt lat="47.68996" lon="2.15372">
        <ele>127</ele>
        <time>2017-02-05T09:14:05.938Z</time>
      </trkpt>
      <trkpt lat="47.69005" lon="2.15365">
        <ele>126</ele>
        <time>2017-02-05T09:14:06.943Z</time>
      </trkpt>
      <trkpt lat="47.69005" lon="2.15365">
        <ele>126</ele>
        <time>2017-02-05T09:14:07.959Z</time>
      </trkpt>
      <trkpt lat="47.69015" lon="2.15359">
        <ele>126</ele>
        <time>2017-02-05T09:14:08.955Z</time>
      </trkpt>
      <trkpt lat="47.69015" lon="2.15359">
        <ele>126</ele>
        <time>2017-02-05T09:14:09.940Z</time>
      </trkpt>
      <trkpt lat="47.69028" lon="2.15352">
        <ele>126</ele>
        <time>2017-02-05T09:14:10.943Z</time>
      </trkpt>
      <trkpt lat="47.69028" lon="2.15352">
        <ele>126</ele>
        <time>2017-02-05T09:14:11.941Z</time>
      </trkpt>
      <trkpt lat="47.69038" lon="2.15346">
        <ele>126</ele>
        <time>2017-02-05T09:14:12.944Z</time>
      </trkpt>
      <trkpt lat="47.69043" lon="2.15345">
        <ele>126</ele>
        <time>2017-02-05T09:14:13.945Z</time>
      </trkpt>
      <trkpt lat="47.69043" lon="2.15345">
        <ele>126</ele>
        <time>2017-02-05T09:14:14.940Z</time>
      </trkpt>
      <trkpt lat="47.69054" lon="2.15339">
        <ele>126</ele>
        <time>2017-02-05T09:14:15.944Z</time>
      </trkpt>
      <trkpt lat="47.69054" lon="2.15339">
        <ele>126</ele>
        <time>2017-02-05T09:14:16.937Z</time>
      </trkpt>
      <trkpt lat="47.69063" lon="2.15332">
        <ele>126</ele>
        <time>2017-02-05T09:14:17.944Z</time>
      </trkpt>
      <trkpt lat="47.69063" lon="2.15332">
        <ele>126</ele>
        <time>2017-02-05T09:14:18.941Z</time>
      </trkpt>
      <trkpt lat="47.69073" lon="2.15327">
        <ele>126</ele>
        <time>2017-02-05T09:14:19.943Z</time>
      </trkpt>
      <trkpt lat="47.69073" lon="2.15327">
        <ele>126</ele>
        <time>2017-02-05T09:14:20.944Z</time>
      </trkpt>
      <trkpt lat="47.69081" lon="2.15322">
        <ele>126</ele>
        <time>2017-02-05T09:14:21.943Z</time>
      </trkpt>
      <trkpt lat="47.69081" lon="2.15322">
        <ele>126</ele>
        <time>2017-02-05T09:14:22.940Z</time>
      </trkpt>
      <trkpt lat="47.6909" lon="2.15315">
        <ele>125</ele>
        <time>2017-02-05T09:14:23.944Z</time>
      </trkpt>
      <trkpt lat="47.6909" lon="2.15315">
        <ele>125</ele>
        <time>2017-02-05T09:14:24.940Z</time>
      </trkpt>
      <trkpt lat="47.69099" lon="2.15308">
        <ele>125</ele>
        <time>2017-02-05T09:14:25.944Z</time>
      </trkpt>
      <trkpt lat="47.69103" lon="2.15305">
        <ele>125</ele>
        <time>2017-02-05T09:14:26.943Z</time>
      </trkpt>
      <trkpt lat="47.69103" lon="2.15305">
        <ele>125</ele>
        <time>2017-02-05T09:14:27.939Z</time>
      </trkpt>
      <trkpt lat="47.6911" lon="2.15297">
        <ele>125</ele>
        <time>2017-02-05T09:14:28.942Z</time>
      </trkpt>
      <trkpt lat="47.69114" lon="2.15292">
        <ele>125</ele>
        <time>2017-02-05T09:14:29.944Z</time>
      </trkpt>
      <trkpt lat="47.69114" lon="2.15292">
        <ele>125</ele>
        <time>2017-02-05T09:14:30.939Z</time>
      </trkpt>
      <trkpt lat="47.6912" lon="2.15284">
        <ele>125</ele>
        <time>2017-02-05T09:14:31.944Z</time>
      </trkpt>
      <trkpt lat="47.69124" lon="2.1528">
        <ele>124</ele>
        <time>2017-02-05T09:14:32.944Z</time>
      </trkpt>
      <trkpt lat="47.69124" lon="2.1528">
        <ele>124</ele>
        <time>2017-02-05T09:14:33.948Z</time>
      </trkpt>
      <trkpt lat="47.69131" lon="2.15272">
        <ele>124</ele>
        <time>2017-02-05T09:14:34.957Z</time>
      </trkpt>
      <trkpt lat="47.69131" lon="2.15272">
        <ele>124</ele>
        <time>2017-02-05T09:14:35.949Z</time>
      </trkpt>
      <trkpt lat="47.6914" lon="2.15265">
        <ele>123</ele>
        <time>2017-02-05T09:14:36.940Z</time>
      </trkpt>
      <trkpt lat="47.69143" lon="2.1526">
        <ele>123</ele>
        <time>2017-02-05T09:14:37.942Z</time>
      </trkpt>
      <trkpt lat="47.69143" lon="2.1526">
        <ele>123</ele>
        <time>2017-02-05T09:14:38.941Z</time>
      </trkpt>
      <trkpt lat="47.69151" lon="2.15252">
        <ele>123</ele>
        <time>2017-02-05T09:14:39.943Z</time>
      </trkpt>
      <trkpt lat="47.69155" lon="2.15248">
        <ele>122</ele>
        <time>2017-02-05T09:14:40.945Z</time>
      </trkpt>
      <trkpt lat="47.69155" lon="2.15248">
        <ele>122</ele>
        <time>2017-02-05T09:14:41.938Z</time>
      </trkpt>
      <trkpt lat="47.69164" lon="2.15238">
        <ele>122</ele>
        <time>2017-02-05T09:14:42.940Z</time>
      </trkpt>
      <trkpt lat="47.69168" lon="2.15233">
        <ele>122</ele>
        <time>2017-02-05T09:14:43.943Z</time>
      </trkpt>
      <trkpt lat="47.69168" lon="2.15233">
        <ele>122</ele>
        <time>2017-02-05T09:14:44.938Z</time>
      </trkpt>
      <trkpt lat="47.69175" lon="2.15224">
        <ele>122</ele>
        <time>2017-02-05T09:14:45.939Z</time>
      </trkpt>
      <trkpt lat="47.69175" lon="2.15224">
        <ele>122</ele>
        <time>2017-02-05T09:14:46.939Z</time>
      </trkpt>
      <trkpt lat="47.69181" lon="2.15216">
        <ele>122</ele>
        <time>2017-02-05T09:14:47.944Z</time>
      </trkpt>
      <trkpt lat="47.69181" lon="2.15216">
        <ele>122</ele>
        <time>2017-02-05T09:14:48.940Z</time>
      </trkpt>
      <trkpt lat="47.69187" lon="2.15209">
        <ele>121</ele>
        <time>2017-02-05T09:14:49.943Z</time>
      </trkpt>
      <trkpt lat="47.69187" lon="2.15209">
        <ele>121</ele>
        <time>2017-02-05T09:14:50.940Z</time>
      </trkpt>
      <trkpt lat="47.69193" lon="2.15202">
        <ele>121</ele>
        <time>2017-02-05T09:14:51.943Z</time>
      </trkpt>
      <trkpt lat="47.69195" lon="2.15199">
        <ele>121</ele>
        <time>2017-02-05T09:14:52.939Z</time>
      </trkpt>
      <trkpt lat="47.69198" lon="2.15195">
        <ele>121</ele>
        <time>2017-02-05T09:14:53.944Z</time>
      </trkpt>
      <trkpt lat="47.69198" lon="2.15195">
        <ele>121</ele>
        <time>2017-02-05T09:14:54.940Z</time>
      </trkpt>
      <trkpt lat="47.69203" lon="2.15189">
        <ele>120</ele>
        <time>2017-02-05T09:14:55.944Z</time>
      </trkpt>
      <trkpt lat="47.69203" lon="2.15189">
        <ele>120</ele>
        <time>2017-02-05T09:14:56.937Z</time>
      </trkpt>
      <trkpt lat="47.69207" lon="2.15183">
        <ele>120</ele>
        <time>2017-02-05T09:14:57.942Z</time>
      </trkpt>
      <trkpt lat="47.69211" lon="2.15178">
        <ele>120</ele>
        <time>2017-02-05T09:14:58.960Z</time>
      </trkpt>
      <trkpt lat="47.69214" lon="2.15173">
        <ele>120</ele>
        <time>2017-02-05T09:14:59.944Z</time>
      </trkpt>
      <trkpt lat="47.69214" lon="2.15173">
        <ele>120</ele>
        <time>2017-02-05T09:15:00.938Z</time>
      </trkpt>
      <trkpt lat="47.6922" lon="2.15165">
        <ele>120</ele>
        <time>2017-02-05T09:15:01.942Z</time>
      </trkpt>
      <trkpt lat="47.69224" lon="2.15161">
        <ele>120</ele>
        <time>2017-02-05T09:15:02.940Z</time>
      </trkpt>
      <trkpt lat="47.69224" lon="2.15161">
        <ele>120</ele>
        <time>2017-02-05T09:15:03.948Z</time>
      </trkpt>
      <trkpt lat="47.69232" lon="2.15151">
        <ele>120</ele>
        <time>2017-02-05T09:15:04.944Z</time>
      </trkpt>
      <trkpt lat="47.69232" lon="2.15151">
        <ele>120</ele>
        <time>2017-02-05T09:15:05.941Z</time>
      </trkpt>
      <trkpt lat="47.69239" lon="2.15142">
        <ele>120</ele>
        <time>2017-02-05T09:15:06.941Z</time>
      </trkpt>
      <trkpt lat="47.69239" lon="2.15142">
        <ele>120</ele>
        <time>2017-02-05T09:15:07.936Z</time>
      </trkpt>
      <trkpt lat="47.69247" lon="2.15134">
        <ele>120</ele>
        <time>2017-02-05T09:15:08.957Z</time>
      </trkpt>
      <trkpt lat="47.69251" lon="2.15131">
        <ele>120</ele>
        <time>2017-02-05T09:15:09.923Z</time>
      </trkpt>
      <trkpt lat="47.69251" lon="2.15131">
        <ele>120</ele>
        <time>2017-02-05T09:15:10.929Z</time>
      </trkpt>
      <trkpt lat="47.69258" lon="2.15123">
        <ele>120</ele>
        <time>2017-02-05T09:15:11.957Z</time>
      </trkpt>
      <trkpt lat="47.69258" lon="2.15123">
        <ele>120</ele>
        <time>2017-02-05T09:15:12.945Z</time>
      </trkpt>
      <trkpt lat="47.69267" lon="2.15114">
        <ele>120</ele>
        <time>2017-02-05T09:15:13.945Z</time>
      </trkpt>
      <trkpt lat="47.69267" lon="2.15114">
        <ele>120</ele>
        <time>2017-02-05T09:15:14.940Z</time>
      </trkpt>
      <trkpt lat="47.69274" lon="2.15104">
        <ele>119</ele>
        <time>2017-02-05T09:15:15.940Z</time>
      </trkpt>
      <trkpt lat="47.69274" lon="2.15104">
        <ele>119</ele>
        <time>2017-02-05T09:15:16.939Z</time>
      </trkpt>
      <trkpt lat="47.6928" lon="2.15094">
        <ele>120</ele>
        <time>2017-02-05T09:15:17.944Z</time>
      </trkpt>
      <trkpt lat="47.69284" lon="2.15089">
        <ele>120</ele>
        <time>2017-02-05T09:15:18.940Z</time>
      </trkpt>
      <trkpt lat="47.69287" lon="2.15084">
        <ele>120</ele>
        <time>2017-02-05T09:15:19.944Z</time>
      </trkpt>
      <trkpt lat="47.69287" lon="2.15084">
        <ele>120</ele>
        <time>2017-02-05T09:15:20.940Z</time>
      </trkpt>
      <trkpt lat="47.69294" lon="2.15074">
        <ele>120</ele>
        <time>2017-02-05T09:15:21.939Z</time>
      </trkpt>
      <trkpt lat="47.69297" lon="2.15069">
        <ele>120</ele>
        <time>2017-02-05T09:15:22.940Z</time>
      </trkpt>
      <trkpt lat="47.693" lon="2.15064">
        <ele>120</ele>
        <time>2017-02-05T09:15:23.947Z</time>
      </trkpt>
      <trkpt lat="47.693" lon="2.15064">
        <ele>120</ele>
        <time>2017-02-05T09:15:24.940Z</time>
      </trkpt>
      <trkpt lat="47.69307" lon="2.15054">
        <ele>120</ele>
        <time>2017-02-05T09:15:25.944Z</time>
      </trkpt>
      <trkpt lat="47.69307" lon="2.15054">
        <ele>120</ele>
        <time>2017-02-05T09:15:26.938Z</time>
      </trkpt>
      <trkpt lat="47.69314" lon="2.15044">
        <ele>120</ele>
        <time>2017-02-05T09:15:27.944Z</time>
      </trkpt>
      <trkpt lat="47.69316" lon="2.15038">
        <ele>120</ele>
        <time>2017-02-05T09:15:28.940Z</time>
      </trkpt>
      <trkpt lat="47.69318" lon="2.15033">
        <ele>120</ele>
        <time>2017-02-05T09:15:29.944Z</time>
      </trkpt>
      <trkpt lat="47.69318" lon="2.15033">
        <ele>120</ele>
        <time>2017-02-05T09:15:30.938Z</time>
      </trkpt>
      <trkpt lat="47.69322" lon="2.15023">
        <ele>119</ele>
        <time>2017-02-05T09:15:31.944Z</time>
      </trkpt>
      <trkpt lat="47.69322" lon="2.15023">
        <ele>119</ele>
        <time>2017-02-05T09:15:32.937Z</time>
      </trkpt>
      <trkpt lat="47.69325" lon="2.15014">
        <ele>119</ele>
        <time>2017-02-05T09:15:33.924Z</time>
      </trkpt>
      <trkpt lat="47.69325" lon="2.15014">
        <ele>119</ele>
        <time>2017-02-05T09:15:34.959Z</time>
      </trkpt>
      <trkpt lat="47.69329" lon="2.15007">
        <ele>118</ele>
        <time>2017-02-05T09:15:35.950Z</time>
      </trkpt>
      <trkpt lat="47.69331" lon="2.15004">
        <ele>118</ele>
        <time>2017-02-05T09:15:36.945Z</time>
      </trkpt>
      <trkpt lat="47.69331" lon="2.15004">
        <ele>118</ele>
        <time>2017-02-05T09:15:37.939Z</time>
      </trkpt>
      <trkpt lat="47.69337" lon="2.15002">
        <ele>117</ele>
        <time>2017-02-05T09:15:38.940Z</time>
      </trkpt>
      <trkpt lat="47.69337" lon="2.15002">
        <ele>117</ele>
        <time>2017-02-05T09:15:39.940Z</time>
      </trkpt>
      <trkpt lat="47.69343" lon="2.15004">
        <ele>117</ele>
        <time>2017-02-05T09:15:40.944Z</time>
      </trkpt>
      <trkpt lat="47.69346" lon="2.15005">
        <ele>117</ele>
        <time>2017-02-05T09:15:41.945Z</time>
      </trkpt>
      <trkpt lat="47.69346" lon="2.15005">
        <ele>117</ele>
        <time>2017-02-05T09:15:42.940Z</time>
      </trkpt>
      <trkpt lat="47.69353" lon="2.15006">
        <ele>117</ele>
        <time>2017-02-05T09:15:43.943Z</time>
      </trkpt>
      <trkpt lat="47.69353" lon="2.15006">
        <ele>117</ele>
        <time>2017-02-05T09:15:44.938Z</time>
      </trkpt>
      <trkpt lat="47.69363" lon="2.15009">
        <ele>117</ele>
        <time>2017-02-05T09:15:45.940Z</time>
      </trkpt>
      <trkpt lat="47.69363" lon="2.15009">
        <ele>117</ele>
        <time>2017-02-05T09:15:46.939Z</time>
      </trkpt>
      <trkpt lat="47.69372" lon="2.1501">
        <ele>117</ele>
        <time>2017-02-05T09:15:47.944Z</time>
      </trkpt>
      <trkpt lat="47.69372" lon="2.1501">
        <ele>117</ele>
        <time>2017-02-05T09:15:48.941Z</time>
      </trkpt>
      <trkpt lat="47.69381" lon="2.15011">
        <ele>118</ele>
        <time>2017-02-05T09:15:49.944Z</time>
      </trkpt>
      <trkpt lat="47.69381" lon="2.15011">
        <ele>118</ele>
        <time>2017-02-05T09:15:50.940Z</time>
      </trkpt>
      <trkpt lat="47.69392" lon="2.15013">
        <ele>118</ele>
        <time>2017-02-05T09:15:51.943Z</time>
      </trkpt>
      <trkpt lat="47.69398" lon="2.15014">
        <ele>118</ele>
        <time>2017-02-05T09:15:52.940Z</time>
      </trkpt>
      <trkpt lat="47.69398" lon="2.15014">
        <ele>118</ele>
        <time>2017-02-05T09:15:53.938Z</time>
      </trkpt>
      <trkpt lat="47.69408" lon="2.15017">
        <ele>118</ele>
        <time>2017-02-05T09:15:54.939Z</time>
      </trkpt>
      <trkpt lat="47.69413" lon="2.15018">
        <ele>118</ele>
        <time>2017-02-05T09:15:55.944Z</time>
      </trkpt>
      <trkpt lat="47.69413" lon="2.15018">
        <ele>118</ele>
        <time>2017-02-05T09:15:56.940Z</time>
      </trkpt>
      <trkpt lat="47.69423" lon="2.1502">
        <ele>119</ele>
        <time>2017-02-05T09:15:57.942Z</time>
      </trkpt>
      <trkpt lat="47.69423" lon="2.1502">
        <ele>119</ele>
        <time>2017-02-05T09:15:58.938Z</time>
      </trkpt>
      <trkpt lat="47.69433" lon="2.15022">
        <ele>121</ele>
        <time>2017-02-05T09:15:59.958Z</time>
      </trkpt>
      <trkpt lat="47.69433" lon="2.15022">
        <ele>121</ele>
        <time>2017-02-05T09:16:00.945Z</time>
      </trkpt>
      <trkpt lat="47.69442" lon="2.15024">
        <ele>122</ele>
        <time>2017-02-05T09:16:01.943Z</time>
      </trkpt>
      <trkpt lat="47.69442" lon="2.15024">
        <ele>122</ele>
        <time>2017-02-05T09:16:02.939Z</time>
      </trkpt>
      <trkpt lat="47.6945" lon="2.15025">
        <ele>124</ele>
        <time>2017-02-05T09:16:03.945Z</time>
      </trkpt>
      <trkpt lat="47.6945" lon="2.15025">
        <ele>124</ele>
        <time>2017-02-05T09:16:04.949Z</time>
      </trkpt>
      <trkpt lat="47.69459" lon="2.15027">
        <ele>125</ele>
        <time>2017-02-05T09:16:05.947Z</time>
      </trkpt>
      <trkpt lat="47.69459" lon="2.15027">
        <ele>125</ele>
        <time>2017-02-05T09:16:06.938Z</time>
      </trkpt>
      <trkpt lat="47.69469" lon="2.1503">
        <ele>125</ele>
        <time>2017-02-05T09:16:07.960Z</time>
      </trkpt>
      <trkpt lat="47.69473" lon="2.15032">
        <ele>125</ele>
        <time>2017-02-05T09:16:08.940Z</time>
      </trkpt>
      <trkpt lat="47.69473" lon="2.15032">
        <ele>125</ele>
        <time>2017-02-05T09:16:09.940Z</time>
      </trkpt>
      <trkpt lat="47.69483" lon="2.15034">
        <ele>125</ele>
        <time>2017-02-05T09:16:10.939Z</time>
      </trkpt>
      <trkpt lat="47.69488" lon="2.15036">
        <ele>126</ele>
        <time>2017-02-05T09:16:11.944Z</time>
      </trkpt>
      <trkpt lat="47.69488" lon="2.15036">
        <ele>126</ele>
        <time>2017-02-05T09:16:12.940Z</time>
      </trkpt>
      <trkpt lat="47.69498" lon="2.1504">
        <ele>125</ele>
        <time>2017-02-05T09:16:13.944Z</time>
      </trkpt>
      <trkpt lat="47.69498" lon="2.1504">
        <ele>125</ele>
        <time>2017-02-05T09:16:14.938Z</time>
      </trkpt>
      <trkpt lat="47.69507" lon="2.15043">
        <ele>124</ele>
        <time>2017-02-05T09:16:15.945Z</time>
      </trkpt>
      <trkpt lat="47.69507" lon="2.15043">
        <ele>124</ele>
        <time>2017-02-05T09:16:16.940Z</time>
      </trkpt>
      <trkpt lat="47.69517" lon="2.15049">
        <ele>123</ele>
        <time>2017-02-05T09:16:17.941Z</time>
      </trkpt>
      <trkpt lat="47.69517" lon="2.15049">
        <ele>123</ele>
        <time>2017-02-05T09:16:18.938Z</time>
      </trkpt>
      <trkpt lat="47.69526" lon="2.15056">
        <ele>123</ele>
        <time>2017-02-05T09:16:19.924Z</time>
      </trkpt>
      <trkpt lat="47.69526" lon="2.15056">
        <ele>123</ele>
        <time>2017-02-05T09:16:20.953Z</time>
      </trkpt>
      <trkpt lat="47.69533" lon="2.15061">
        <ele>124</ele>
        <time>2017-02-05T09:16:21.942Z</time>
      </trkpt>
      <trkpt lat="47.69536" lon="2.15063">
        <ele>124</ele>
        <time>2017-02-05T09:16:22.944Z</time>
      </trkpt>
      <trkpt lat="47.69539" lon="2.15064">
        <ele>124</ele>
        <time>2017-02-05T09:16:23.946Z</time>
      </trkpt>
      <trkpt lat="47.69539" lon="2.15064">
        <ele>124</ele>
        <time>2017-02-05T09:16:24.941Z</time>
      </trkpt>
      <trkpt lat="47.69541" lon="2.15065">
        <ele>123</ele>
        <time>2017-02-05T09:16:25.944Z</time>
      </trkpt>
      <trkpt lat="47.69541" lon="2.15065">
        <ele>123</ele>
        <time>2017-02-05T09:16:26.938Z</time>
      </trkpt>
      <trkpt lat="47.69542" lon="2.15065">
        <ele>123</ele>
        <time>2017-02-05T09:16:27.942Z</time>
      </trkpt>
      <trkpt lat="47.69542" lon="2.15065">
        <ele>123</ele>
        <time>2017-02-05T09:16:28.943Z</time>
      </trkpt>
      <trkpt lat="47.69535" lon="2.15057">
        <ele>123</ele>
        <time>2017-02-05T09:16:29.932Z</time>
      </trkpt>
      <trkpt lat="47.69535" lon="2.15057">
        <ele>123</ele>
        <time>2017-02-05T09:16:30.925Z</time>
      </trkpt>
      <trkpt lat="47.69531" lon="2.15056">
        <ele>123</ele>
        <time>2017-02-05T09:16:31.933Z</time>
      </trkpt>
      <trkpt lat="47.69531" lon="2.15056">
        <ele>123</ele>
        <time>2017-02-05T09:16:32.925Z</time>
      </trkpt>
      <trkpt lat="47.69523" lon="2.15051">
        <ele>123</ele>
        <time>2017-02-05T09:16:33.927Z</time>
      </trkpt>
      <trkpt lat="47.69519" lon="2.15048">
        <ele>123</ele>
        <time>2017-02-05T09:16:34.932Z</time>
      </trkpt>
      <trkpt lat="47.69515" lon="2.15045">
        <ele>123</ele>
        <time>2017-02-05T09:16:35.932Z</time>
      </trkpt>
      <trkpt lat="47.69515" lon="2.15045">
        <ele>123</ele>
        <time>2017-02-05T09:16:36.926Z</time>
      </trkpt>
      <trkpt lat="47.69506" lon="2.15041">
        <ele>123</ele>
        <time>2017-02-05T09:16:37.931Z</time>
      </trkpt>
      <trkpt lat="47.69506" lon="2.15041">
        <ele>123</ele>
        <time>2017-02-05T09:16:38.925Z</time>
      </trkpt>
      <trkpt lat="47.69496" lon="2.15037">
        <ele>122</ele>
        <time>2017-02-05T09:16:39.931Z</time>
      </trkpt>
      <trkpt lat="47.69496" lon="2.15037">
        <ele>122</ele>
        <time>2017-02-05T09:16:40.927Z</time>
      </trkpt>
      <trkpt lat="47.69486" lon="2.15034">
        <ele>122</ele>
        <time>2017-02-05T09:16:41.932Z</time>
      </trkpt>
      <trkpt lat="47.69486" lon="2.15034">
        <ele>122</ele>
        <time>2017-02-05T09:16:42.925Z</time>
      </trkpt>
      <trkpt lat="47.69476" lon="2.15031">
        <ele>122</ele>
        <time>2017-02-05T09:16:43.933Z</time>
      </trkpt>
      <trkpt lat="47.69476" lon="2.15031">
        <ele>122</ele>
        <time>2017-02-05T09:16:44.925Z</time>
      </trkpt>
      <trkpt lat="47.69465" lon="2.15029">
        <ele>122</ele>
        <time>2017-02-05T09:16:45.946Z</time>
      </trkpt>
      <trkpt lat="47.69465" lon="2.15029">
        <ele>122</ele>
        <time>2017-02-05T09:16:46.934Z</time>
      </trkpt>
      <trkpt lat="47.69454" lon="2.15027">
        <ele>122</ele>
        <time>2017-02-05T09:16:47.934Z</time>
      </trkpt>
      <trkpt lat="47.69454" lon="2.15027">
        <ele>122</ele>
        <time>2017-02-05T09:16:48.926Z</time>
      </trkpt>
      <trkpt lat="47.69443" lon="2.15025">
        <ele>123</ele>
        <time>2017-02-05T09:16:49.933Z</time>
      </trkpt>
      <trkpt lat="47.69443" lon="2.15025">
        <ele>123</ele>
        <time>2017-02-05T09:16:50.927Z</time>
      </trkpt>
      <trkpt lat="47.69432" lon="2.15024">
        <ele>124</ele>
        <time>2017-02-05T09:16:51.931Z</time>
      </trkpt>
      <trkpt lat="47.69432" lon="2.15024">
        <ele>124</ele>
        <time>2017-02-05T09:16:52.927Z</time>
      </trkpt>
      <trkpt lat="47.69422" lon="2.15023">
        <ele>125</ele>
        <time>2017-02-05T09:16:53.934Z</time>
      </trkpt>
      <trkpt lat="47.69422" lon="2.15023">
        <ele>125</ele>
        <time>2017-02-05T09:16:54.950Z</time>
      </trkpt>
      <trkpt lat="47.69412" lon="2.15022">
        <ele>125</ele>
        <time>2017-02-05T09:16:55.932Z</time>
      </trkpt>
      <trkpt lat="47.69412" lon="2.15022">
        <ele>125</ele>
        <time>2017-02-05T09:16:56.926Z</time>
      </trkpt>
      <trkpt lat="47.69401" lon="2.1502">
        <ele>125</ele>
        <time>2017-02-05T09:16:57.930Z</time>
      </trkpt>
      <trkpt lat="47.69397" lon="2.15019">
        <ele>125</ele>
        <time>2017-02-05T09:16:58.932Z</time>
      </trkpt>
      <trkpt lat="47.69392" lon="2.15018">
        <ele>125</ele>
        <time>2017-02-05T09:16:59.934Z</time>
      </trkpt>
      <trkpt lat="47.69392" lon="2.15018">
        <ele>125</ele>
        <time>2017-02-05T09:17:00.927Z</time>
      </trkpt>
      <trkpt lat="47.69384" lon="2.15015">
        <ele>125</ele>
        <time>2017-02-05T09:17:01.932Z</time>
      </trkpt>
      <trkpt lat="47.69384" lon="2.15015">
        <ele>125</ele>
        <time>2017-02-05T09:17:02.925Z</time>
      </trkpt>
      <trkpt lat="47.69376" lon="2.15013">
        <ele>125</ele>
        <time>2017-02-05T09:17:03.931Z</time>
      </trkpt>
      <trkpt lat="47.69376" lon="2.15013">
        <ele>125</ele>
        <time>2017-02-05T09:17:04.926Z</time>
      </trkpt>
      <trkpt lat="47.6937" lon="2.1501">
        <ele>125</ele>
        <time>2017-02-05T09:17:05.933Z</time>
      </trkpt>
      <trkpt lat="47.69367" lon="2.15009">
        <ele>126</ele>
        <time>2017-02-05T09:17:06.933Z</time>
      </trkpt>
      <trkpt lat="47.69367" lon="2.15009">
        <ele>126</ele>
        <time>2017-02-05T09:17:07.945Z</time>
      </trkpt>
      <trkpt lat="47.6936" lon="2.15007">
        <ele>126</ele>
        <time>2017-02-05T09:17:08.948Z</time>
      </trkpt>
      <trkpt lat="47.6936" lon="2.15007">
        <ele>126</ele>
        <time>2017-02-05T09:17:09.936Z</time>
      </trkpt>
      <trkpt lat="47.69356" lon="2.15005">
        <ele>126</ele>
        <time>2017-02-05T09:17:10.950Z</time>
      </trkpt>
      <trkpt lat="47.69354" lon="2.15004">
        <ele>126</ele>
        <time>2017-02-05T09:17:11.939Z</time>
      </trkpt>
      <trkpt lat="47.69354" lon="2.15004">
        <ele>126</ele>
        <time>2017-02-05T09:17:12.929Z</time>
      </trkpt>
      <trkpt lat="47.6935" lon="2.15006">
        <ele>126</ele>
        <time>2017-02-05T09:17:13.933Z</time>
      </trkpt>
      <trkpt lat="47.6935" lon="2.15006">
        <ele>126</ele>
        <time>2017-02-05T09:17:14.926Z</time>
      </trkpt>
      <trkpt lat="47.69345" lon="2.15008">
        <ele>127</ele>
        <time>2017-02-05T09:17:15.946Z</time>
      </trkpt>
      <trkpt lat="47.69343" lon="2.15007">
        <ele>127</ele>
        <time>2017-02-05T09:17:16.937Z</time>
      </trkpt>
      <trkpt lat="47.69343" lon="2.15007">
        <ele>127</ele>
        <time>2017-02-05T09:17:17.926Z</time>
      </trkpt>
      <trkpt lat="47.69342" lon="2.15007">
        <ele>127</ele>
        <time>2017-02-05T09:17:18.932Z</time>
      </trkpt>
      <trkpt lat="47.69341" lon="2.15007">
        <ele>127</ele>
        <time>2017-02-05T09:17:19.931Z</time>
      </trkpt>
      <trkpt lat="47.69341" lon="2.15007">
        <ele>127</ele>
        <time>2017-02-05T09:17:20.926Z</time>
      </trkpt>
      <trkpt lat="47.69341" lon="2.15007">
        <ele>126</ele>
        <time>2017-02-05T09:17:21.931Z</time>
      </trkpt>
      <trkpt lat="47.69342" lon="2.15002">
        <ele>130</ele>
        <time>2017-02-05T09:17:22.946Z</time>
      </trkpt>
      <trkpt lat="47.69342" lon="2.15002">
        <ele>130</ele>
        <time>2017-02-05T09:17:23.934Z</time>
      </trkpt>
      <trkpt lat="47.69344" lon="2.15002">
        <ele>130</ele>
        <time>2017-02-05T09:17:24.932Z</time>
      </trkpt>
      <trkpt lat="47.69344" lon="2.15002">
        <ele>130</ele>
        <time>2017-02-05T09:17:25.927Z</time>
      </trkpt>
      <trkpt lat="47.69346" lon="2.15002">
        <ele>130</ele>
        <time>2017-02-05T09:17:26.946Z</time>
      </trkpt>
      <trkpt lat="47.69346" lon="2.15002">
        <ele>130</ele>
        <time>2017-02-05T09:17:27.929Z</time>
      </trkpt>
      <trkpt lat="47.69349" lon="2.15003">
        <ele>130</ele>
        <time>2017-02-05T09:17:28.948Z</time>
      </trkpt>
      <trkpt lat="47.69351" lon="2.15004">
        <ele>130</ele>
        <time>2017-02-05T09:17:29.935Z</time>
      </trkpt>
      <trkpt lat="47.69351" lon="2.15004">
        <ele>130</ele>
        <time>2017-02-05T09:17:30.928Z</time>
      </trkpt>
      <trkpt lat="47.69354" lon="2.15004">
        <ele>130</ele>
        <time>2017-02-05T09:17:31.934Z</time>
      </trkpt>
      <trkpt lat="47.69354" lon="2.15004">
        <ele>130</ele>
        <time>2017-02-05T09:17:32.929Z</time>
      </trkpt>
      <trkpt lat="47.69361" lon="2.15008">
        <ele>130</ele>
        <time>2017-02-05T09:17:33.935Z</time>
      </trkpt>
      <trkpt lat="47.69361" lon="2.15008">
        <ele>130</ele>
        <time>2017-02-05T09:17:34.928Z</time>
      </trkpt>
      <trkpt lat="47.6937" lon="2.15012">
        <ele>130</ele>
        <time>2017-02-05T09:17:35.934Z</time>
      </trkpt>
      <trkpt lat="47.6937" lon="2.15012">
        <ele>130</ele>
        <time>2017-02-05T09:17:36.928Z</time>
      </trkpt>
      <trkpt lat="47.69379" lon="2.15014">
        <ele>129</ele>
        <time>2017-02-05T09:17:37.931Z</time>
      </trkpt>
      <trkpt lat="47.69379" lon="2.15014">
        <ele>129</ele>
        <time>2017-02-05T09:17:38.929Z</time>
      </trkpt>
      <trkpt lat="47.69388" lon="2.15016">
        <ele>129</ele>
        <time>2017-02-05T09:17:39.936Z</time>
      </trkpt>
      <trkpt lat="47.69388" lon="2.15016">
        <ele>129</ele>
        <time>2017-02-05T09:17:40.928Z</time>
      </trkpt>
      <trkpt lat="47.69398" lon="2.1502">
        <ele>129</ele>
        <time>2017-02-05T09:17:41.933Z</time>
      </trkpt>
      <trkpt lat="47.69398" lon="2.1502">
        <ele>129</ele>
        <time>2017-02-05T09:17:42.928Z</time>
      </trkpt>
      <trkpt lat="47.69408" lon="2.15022">
        <ele>129</ele>
        <time>2017-02-05T09:17:43.949Z</time>
      </trkpt>
      <trkpt lat="47.69408" lon="2.15022">
        <ele>129</ele>
        <time>2017-02-05T09:17:44.932Z</time>
      </trkpt>
      <trkpt lat="47.69418" lon="2.15024">
        <ele>130</ele>
        <time>2017-02-05T09:17:45.935Z</time>
      </trkpt>
      <trkpt lat="47.69418" lon="2.15024">
        <ele>130</ele>
        <time>2017-02-05T09:17:46.927Z</time>
      </trkpt>
      <trkpt lat="47.69427" lon="2.15025">
        <ele>130</ele>
        <time>2017-02-05T09:17:47.933Z</time>
      </trkpt>
      <trkpt lat="47.69427" lon="2.15025">
        <ele>130</ele>
        <time>2017-02-05T09:17:48.928Z</time>
      </trkpt>
      <trkpt lat="47.69437" lon="2.15028">
        <ele>130</ele>
        <time>2017-02-05T09:17:49.933Z</time>
      </trkpt>
      <trkpt lat="47.69437" lon="2.15028">
        <ele>130</ele>
        <time>2017-02-05T09:17:50.927Z</time>
      </trkpt>
      <trkpt lat="47.69447" lon="2.1503">
        <ele>130</ele>
        <time>2017-02-05T09:17:51.935Z</time>
      </trkpt>
      <trkpt lat="47.69447" lon="2.1503">
        <ele>130</ele>
        <time>2017-02-05T09:17:52.924Z</time>
      </trkpt>
      <trkpt lat="47.69457" lon="2.15031">
        <ele>130</ele>
        <time>2017-02-05T09:17:53.952Z</time>
      </trkpt>
      <trkpt lat="47.69462" lon="2.15032">
        <ele>130</ele>
        <time>2017-02-05T09:17:54.934Z</time>
      </trkpt>
      <trkpt lat="47.69462" lon="2.15032">
        <ele>130</ele>
        <time>2017-02-05T09:17:55.928Z</time>
      </trkpt>
      <trkpt lat="47.69472" lon="2.15034">
        <ele>130</ele>
        <time>2017-02-05T09:17:56.988Z</time>
      </trkpt>
      <trkpt lat="47.69478" lon="2.15034">
        <ele>130</ele>
        <time>2017-02-05T09:17:57.947Z</time>
      </trkpt>
      <trkpt lat="47.69478" lon="2.15034">
        <ele>130</ele>
        <time>2017-02-05T09:17:58.931Z</time>
      </trkpt>
      <trkpt lat="47.69488" lon="2.15036">
        <ele>129</ele>
        <time>2017-02-05T09:17:59.934Z</time>
      </trkpt>
      <trkpt lat="47.69494" lon="2.15039">
        <ele>129</ele>
        <time>2017-02-05T09:18:00.934Z</time>
      </trkpt>
      <trkpt lat="47.69494" lon="2.15039">
        <ele>129</ele>
        <time>2017-02-05T09:18:01.928Z</time>
      </trkpt>
      <trkpt lat="47.69504" lon="2.15043">
        <ele>128</ele>
        <time>2017-02-05T09:18:02.933Z</time>
      </trkpt>
      <trkpt lat="47.69509" lon="2.15046">
        <ele>128</ele>
        <time>2017-02-05T09:18:03.936Z</time>
      </trkpt>
      <trkpt lat="47.69509" lon="2.15046">
        <ele>128</ele>
        <time>2017-02-05T09:18:04.941Z</time>
      </trkpt>
      <trkpt lat="47.69518" lon="2.15052">
        <ele>128</ele>
        <time>2017-02-05T09:18:05.933Z</time>
      </trkpt>
      <trkpt lat="47.69518" lon="2.15052">
        <ele>128</ele>
        <time>2017-02-05T09:18:06.928Z</time>
      </trkpt>
      <trkpt lat="47.69527" lon="2.15058">
        <ele>127</ele>
        <time>2017-02-05T09:18:07.950Z</time>
      </trkpt>
      <trkpt lat="47.69527" lon="2.15058">
        <ele>127</ele>
        <time>2017-02-05T09:18:08.928Z</time>
      </trkpt>
      <trkpt lat="47.69537" lon="2.15064">
        <ele>126</ele>
        <time>2017-02-05T09:18:09.935Z</time>
      </trkpt>
      <trkpt lat="47.69537" lon="2.15064">
        <ele>126</ele>
        <time>2017-02-05T09:18:10.928Z</time>
      </trkpt>
      <trkpt lat="47.69547" lon="2.15069">
        <ele>126</ele>
        <time>2017-02-05T09:18:11.934Z</time>
      </trkpt>
      <trkpt lat="47.69547" lon="2.15069">
        <ele>126</ele>
        <time>2017-02-05T09:18:12.940Z</time>
      </trkpt>
      <trkpt lat="47.69556" lon="2.15073">
        <ele>125</ele>
        <time>2017-02-05T09:18:13.938Z</time>
      </trkpt>
      <trkpt lat="47.69562" lon="2.15075">
        <ele>125</ele>
        <time>2017-02-05T09:18:14.934Z</time>
      </trkpt>
      <trkpt lat="47.69567" lon="2.15077">
        <ele>125</ele>
        <time>2017-02-05T09:18:15.936Z</time>
      </trkpt>
      <trkpt lat="47.69567" lon="2.15077">
        <ele>125</ele>
        <time>2017-02-05T09:18:16.926Z</time>
      </trkpt>
      <trkpt lat="47.69578" lon="2.15081">
        <ele>124</ele>
        <time>2017-02-05T09:18:17.933Z</time>
      </trkpt>
      <trkpt lat="47.69578" lon="2.15081">
        <ele>124</ele>
        <time>2017-02-05T09:18:18.927Z</time>
      </trkpt>
      <trkpt lat="47.6959" lon="2.15084">
        <ele>124</ele>
        <time>2017-02-05T09:18:19.933Z</time>
      </trkpt>
      <trkpt lat="47.6959" lon="2.15084">
        <ele>124</ele>
        <time>2017-02-05T09:18:20.928Z</time>
      </trkpt>
      <trkpt lat="47.69601" lon="2.15087">
        <ele>124</ele>
        <time>2017-02-05T09:18:21.935Z</time>
      </trkpt>
      <trkpt lat="47.69601" lon="2.15087">
        <ele>124</ele>
        <time>2017-02-05T09:18:22.928Z</time>
      </trkpt>
      <trkpt lat="47.69612" lon="2.15089">
        <ele>123</ele>
        <time>2017-02-05T09:18:23.941Z</time>
      </trkpt>
      <trkpt lat="47.69617" lon="2.1509">
        <ele>123</ele>
        <time>2017-02-05T09:18:24.934Z</time>
      </trkpt>
      <trkpt lat="47.69617" lon="2.1509">
        <ele>123</ele>
        <time>2017-02-05T09:18:25.928Z</time>
      </trkpt>
      <trkpt lat="47.69628" lon="2.15091">
        <ele>123</ele>
        <time>2017-02-05T09:18:26.947Z</time>
      </trkpt>
      <trkpt lat="47.69628" lon="2.15091">
        <ele>123</ele>
        <time>2017-02-05T09:18:27.929Z</time>
      </trkpt>
      <trkpt lat="47.69641" lon="2.15094">
        <ele>122</ele>
        <time>2017-02-05T09:18:28.936Z</time>
      </trkpt>
      <trkpt lat="47.69641" lon="2.15094">
        <ele>122</ele>
        <time>2017-02-05T09:18:29.929Z</time>
      </trkpt>
      <trkpt lat="47.69651" lon="2.15095">
        <ele>122</ele>
        <time>2017-02-05T09:18:30.934Z</time>
      </trkpt>
      <trkpt lat="47.69651" lon="2.15095">
        <ele>122</ele>
        <time>2017-02-05T09:18:31.935Z</time>
      </trkpt>
      <trkpt lat="47.6966" lon="2.15096">
        <ele>123</ele>
        <time>2017-02-05T09:18:32.936Z</time>
      </trkpt>
      <trkpt lat="47.69664" lon="2.15096">
        <ele>122</ele>
        <time>2017-02-05T09:18:33.934Z</time>
      </trkpt>
      <trkpt lat="47.69664" lon="2.15096">
        <ele>122</ele>
        <time>2017-02-05T09:18:34.928Z</time>
      </trkpt>
      <trkpt lat="47.69672" lon="2.15097">
        <ele>122</ele>
        <time>2017-02-05T09:18:35.935Z</time>
      </trkpt>
      <trkpt lat="47.69672" lon="2.15097">
        <ele>122</ele>
        <time>2017-02-05T09:18:36.928Z</time>
      </trkpt>
      <trkpt lat="47.69679" lon="2.15097">
        <ele>122</ele>
        <time>2017-02-05T09:18:37.934Z</time>
      </trkpt>
      <trkpt lat="47.69679" lon="2.15097">
        <ele>122</ele>
        <time>2017-02-05T09:18:38.927Z</time>
      </trkpt>
      <trkpt lat="47.69686" lon="2.15096">
        <ele>122</ele>
        <time>2017-02-05T09:18:39.937Z</time>
      </trkpt>
      <trkpt lat="47.69686" lon="2.15096">
        <ele>122</ele>
        <time>2017-02-05T09:18:40.937Z</time>
      </trkpt>
      <trkpt lat="47.69694" lon="2.15095">
        <ele>123</ele>
        <time>2017-02-05T09:18:41.933Z</time>
      </trkpt>
      <trkpt lat="47.69694" lon="2.15095">
        <ele>123</ele>
        <time>2017-02-05T09:18:42.928Z</time>
      </trkpt>
      <trkpt lat="47.69702" lon="2.15095">
        <ele>123</ele>
        <time>2017-02-05T09:18:43.929Z</time>
      </trkpt>
      <trkpt lat="47.69707" lon="2.15095">
        <ele>123</ele>
        <time>2017-02-05T09:18:44.933Z</time>
      </trkpt>
      <trkpt lat="47.69711" lon="2.15094">
        <ele>123</ele>
        <time>2017-02-05T09:18:45.934Z</time>
      </trkpt>
      <trkpt lat="47.69711" lon="2.15094">
        <ele>123</ele>
        <time>2017-02-05T09:18:46.928Z</time>
      </trkpt>
      <trkpt lat="47.69721" lon="2.15093">
        <ele>121</ele>
        <time>2017-02-05T09:18:47.933Z</time>
      </trkpt>
      <trkpt lat="47.69721" lon="2.15093">
        <ele>121</ele>
        <time>2017-02-05T09:18:48.927Z</time>
      </trkpt>
      <trkpt lat="47.69732" lon="2.15093">
        <ele>120</ele>
        <time>2017-02-05T09:18:49.934Z</time>
      </trkpt>
      <trkpt lat="47.69732" lon="2.15093">
        <ele>120</ele>
        <time>2017-02-05T09:18:50.928Z</time>
      </trkpt>
      <trkpt lat="47.69741" lon="2.15095">
        <ele>120</ele>
        <time>2017-02-05T09:18:51.934Z</time>
      </trkpt>
      <trkpt lat="47.69741" lon="2.15095">
        <ele>120</ele>
        <time>2017-02-05T09:18:52.928Z</time>
      </trkpt>
      <trkpt lat="47.6975" lon="2.15096">
        <ele>120</ele>
        <time>2017-02-05T09:18:53.933Z</time>
      </trkpt>
      <trkpt lat="47.69754" lon="2.15098">
        <ele>121</ele>
        <time>2017-02-05T09:18:54.933Z</time>
      </trkpt>
      <trkpt lat="47.69757" lon="2.151">
        <ele>121</ele>
        <time>2017-02-05T09:18:55.934Z</time>
      </trkpt>
      <trkpt lat="47.69757" lon="2.151">
        <ele>121</ele>
        <time>2017-02-05T09:18:56.932Z</time>
      </trkpt>
      <trkpt lat="47.69757" lon="2.151">
        <ele>121</ele>
        <time>2017-02-05T09:18:57.939Z</time>
      </trkpt>
      <trkpt lat="47.69766" lon="2.15106">
        <ele>120</ele>
        <time>2017-02-05T09:18:58.933Z</time>
      </trkpt>
      <trkpt lat="47.69777" lon="2.15114">
        <ele>120</ele>
        <time>2017-02-05T09:18:59.936Z</time>
      </trkpt>
      <trkpt lat="47.69783" lon="2.15116">
        <ele>120</ele>
        <time>2017-02-05T09:19:00.936Z</time>
      </trkpt>
      <trkpt lat="47.69783" lon="2.15116">
        <ele>120</ele>
        <time>2017-02-05T09:19:01.928Z</time>
      </trkpt>
      <trkpt lat="47.69794" lon="2.15124">
        <ele>120</ele>
        <time>2017-02-05T09:19:02.934Z</time>
      </trkpt>
      <trkpt lat="47.69794" lon="2.15124">
        <ele>120</ele>
        <time>2017-02-05T09:19:03.928Z</time>
      </trkpt>
      <trkpt lat="47.69804" lon="2.15131">
        <ele>120</ele>
        <time>2017-02-05T09:19:04.934Z</time>
      </trkpt>
      <trkpt lat="47.69809" lon="2.15135">
        <ele>120</ele>
        <time>2017-02-05T09:19:05.934Z</time>
      </trkpt>
      <trkpt lat="47.69809" lon="2.15135">
        <ele>120</ele>
        <time>2017-02-05T09:19:06.928Z</time>
      </trkpt>
      <trkpt lat="47.69819" lon="2.15142">
        <ele>120</ele>
        <time>2017-02-05T09:19:07.942Z</time>
      </trkpt>
      <trkpt lat="47.69819" lon="2.15142">
        <ele>120</ele>
        <time>2017-02-05T09:19:08.934Z</time>
      </trkpt>
      <trkpt lat="47.69828" lon="2.1515">
        <ele>120</ele>
        <time>2017-02-05T09:19:09.933Z</time>
      </trkpt>
      <trkpt lat="47.69828" lon="2.1515">
        <ele>120</ele>
        <time>2017-02-05T09:19:10.928Z</time>
      </trkpt>
      <trkpt lat="47.69837" lon="2.15159">
        <ele>120</ele>
        <time>2017-02-05T09:19:11.934Z</time>
      </trkpt>
      <trkpt lat="47.69837" lon="2.15159">
        <ele>120</ele>
        <time>2017-02-05T09:19:12.931Z</time>
      </trkpt>
      <trkpt lat="47.69846" lon="2.15169">
        <ele>120</ele>
        <time>2017-02-05T09:19:13.952Z</time>
      </trkpt>
      <trkpt lat="47.6985" lon="2.15173">
        <ele>120</ele>
        <time>2017-02-05T09:19:14.934Z</time>
      </trkpt>
      <trkpt lat="47.69854" lon="2.15178">
        <ele>120</ele>
        <time>2017-02-05T09:19:15.935Z</time>
      </trkpt>
      <trkpt lat="47.69854" lon="2.15178">
        <ele>120</ele>
        <time>2017-02-05T09:19:16.927Z</time>
      </trkpt>
      <trkpt lat="47.69863" lon="2.15189">
        <ele>120</ele>
        <time>2017-02-05T09:19:17.941Z</time>
      </trkpt>
      <trkpt lat="47.69863" lon="2.15189">
        <ele>120</ele>
        <time>2017-02-05T09:19:18.928Z</time>
      </trkpt>
      <trkpt lat="47.69871" lon="2.152">
        <ele>120</ele>
        <time>2017-02-05T09:19:19.933Z</time>
      </trkpt>
      <trkpt lat="47.69871" lon="2.152">
        <ele>120</ele>
        <time>2017-02-05T09:19:20.928Z</time>
      </trkpt>
      <trkpt lat="47.69879" lon="2.15212">
        <ele>119</ele>
        <time>2017-02-05T09:19:21.935Z</time>
      </trkpt>
      <trkpt lat="47.69879" lon="2.15212">
        <ele>119</ele>
        <time>2017-02-05T09:19:22.927Z</time>
      </trkpt>
      <trkpt lat="47.69886" lon="2.15223">
        <ele>119</ele>
        <time>2017-02-05T09:19:23.954Z</time>
      </trkpt>
      <trkpt lat="47.69889" lon="2.15229">
        <ele>119</ele>
        <time>2017-02-05T09:19:24.936Z</time>
      </trkpt>
      <trkpt lat="47.69889" lon="2.15229">
        <ele>119</ele>
        <time>2017-02-05T09:19:25.929Z</time>
      </trkpt>
      <trkpt lat="47.69897" lon="2.15242">
        <ele>118</ele>
        <time>2017-02-05T09:19:26.952Z</time>
      </trkpt>
      <trkpt lat="47.69897" lon="2.15242">
        <ele>118</ele>
        <time>2017-02-05T09:19:27.926Z</time>
      </trkpt>
      <trkpt lat="47.69905" lon="2.15255">
        <ele>118</ele>
        <time>2017-02-05T09:19:28.934Z</time>
      </trkpt>
      <trkpt lat="47.69905" lon="2.15255">
        <ele>118</ele>
        <time>2017-02-05T09:19:29.927Z</time>
      </trkpt>
      <trkpt lat="47.69912" lon="2.15268">
        <ele>117</ele>
        <time>2017-02-05T09:19:30.933Z</time>
      </trkpt>
      <trkpt lat="47.69916" lon="2.15274">
        <ele>117</ele>
        <time>2017-02-05T09:19:31.935Z</time>
      </trkpt>
      <trkpt lat="47.69916" lon="2.15274">
        <ele>117</ele>
        <time>2017-02-05T09:19:32.929Z</time>
      </trkpt>
      <trkpt lat="47.69923" lon="2.15287">
        <ele>116</ele>
        <time>2017-02-05T09:19:33.939Z</time>
      </trkpt>
      <trkpt lat="47.69927" lon="2.15293">
        <ele>116</ele>
        <time>2017-02-05T09:19:34.932Z</time>
      </trkpt>
      <trkpt lat="47.69931" lon="2.15298">
        <ele>116</ele>
        <time>2017-02-05T09:19:35.936Z</time>
      </trkpt>
      <trkpt lat="47.69931" lon="2.15298">
        <ele>116</ele>
        <time>2017-02-05T09:19:36.928Z</time>
      </trkpt>
      <trkpt lat="47.6994" lon="2.15309">
        <ele>116</ele>
        <time>2017-02-05T09:19:37.933Z</time>
      </trkpt>
      <trkpt lat="47.6994" lon="2.15309">
        <ele>116</ele>
        <time>2017-02-05T09:19:38.927Z</time>
      </trkpt>
      <trkpt lat="47.69947" lon="2.15321">
        <ele>116</ele>
        <time>2017-02-05T09:19:39.936Z</time>
      </trkpt>
      <trkpt lat="47.69947" lon="2.15321">
        <ele>116</ele>
        <time>2017-02-05T09:19:40.928Z</time>
      </trkpt>
      <trkpt lat="47.69955" lon="2.15332">
        <ele>116</ele>
        <time>2017-02-05T09:19:41.933Z</time>
      </trkpt>
      <trkpt lat="47.69955" lon="2.15332">
        <ele>116</ele>
        <time>2017-02-05T09:19:42.930Z</time>
      </trkpt>
      <trkpt lat="47.69963" lon="2.15343">
        <ele>115</ele>
        <time>2017-02-05T09:19:43.933Z</time>
      </trkpt>
      <trkpt lat="47.69967" lon="2.15349">
        <ele>115</ele>
        <time>2017-02-05T09:19:44.934Z</time>
      </trkpt>
      <trkpt lat="47.69971" lon="2.15354">
        <ele>116</ele>
        <time>2017-02-05T09:19:45.934Z</time>
      </trkpt>
      <trkpt lat="47.69971" lon="2.15354">
        <ele>116</ele>
        <time>2017-02-05T09:19:46.930Z</time>
      </trkpt>
      <trkpt lat="47.6998" lon="2.15363">
        <ele>116</ele>
        <time>2017-02-05T09:19:47.933Z</time>
      </trkpt>
      <trkpt lat="47.6998" lon="2.15363">
        <ele>116</ele>
        <time>2017-02-05T09:19:48.927Z</time>
      </trkpt>
      <trkpt lat="47.69989" lon="2.1537">
        <ele>116</ele>
        <time>2017-02-05T09:19:49.932Z</time>
      </trkpt>
      <trkpt lat="47.69989" lon="2.1537">
        <ele>116</ele>
        <time>2017-02-05T09:19:50.931Z</time>
      </trkpt>
      <trkpt lat="47.69997" lon="2.15379">
        <ele>116</ele>
        <time>2017-02-05T09:19:51.931Z</time>
      </trkpt>
      <trkpt lat="47.69997" lon="2.15379">
        <ele>116</ele>
        <time>2017-02-05T09:19:52.930Z</time>
      </trkpt>
      <trkpt lat="47.70004" lon="2.1539">
        <ele>116</ele>
        <time>2017-02-05T09:19:53.925Z</time>
      </trkpt>
      <trkpt lat="47.70007" lon="2.15396">
        <ele>117</ele>
        <time>2017-02-05T09:19:54.934Z</time>
      </trkpt>
      <trkpt lat="47.7001" lon="2.15401">
        <ele>117</ele>
        <time>2017-02-05T09:19:55.936Z</time>
      </trkpt>
      <trkpt lat="47.7001" lon="2.15401">
        <ele>117</ele>
        <time>2017-02-05T09:19:56.931Z</time>
      </trkpt>
      <trkpt lat="47.70016" lon="2.15413">
        <ele>118</ele>
        <time>2017-02-05T09:19:57.935Z</time>
      </trkpt>
      <trkpt lat="47.70016" lon="2.15413">
        <ele>118</ele>
        <time>2017-02-05T09:19:58.928Z</time>
      </trkpt>
      <trkpt lat="47.70022" lon="2.15427">
        <ele>118</ele>
        <time>2017-02-05T09:19:59.934Z</time>
      </trkpt>
      <trkpt lat="47.70025" lon="2.15434">
        <ele>118</ele>
        <time>2017-02-05T09:20:00.934Z</time>
      </trkpt>
      <trkpt lat="47.70025" lon="2.15434">
        <ele>118</ele>
        <time>2017-02-05T09:20:01.931Z</time>
      </trkpt>
      <trkpt lat="47.70031" lon="2.15449">
        <ele>118</ele>
        <time>2017-02-05T09:20:02.934Z</time>
      </trkpt>
      <trkpt lat="47.70031" lon="2.15449">
        <ele>118</ele>
        <time>2017-02-05T09:20:03.955Z</time>
      </trkpt>
      <trkpt lat="47.70037" lon="2.15463">
        <ele>119</ele>
        <time>2017-02-05T09:20:04.936Z</time>
      </trkpt>
      <trkpt lat="47.7004" lon="2.15471">
        <ele>119</ele>
        <time>2017-02-05T09:20:05.934Z</time>
      </trkpt>
      <trkpt lat="47.7004" lon="2.15471">
        <ele>119</ele>
        <time>2017-02-05T09:20:06.931Z</time>
      </trkpt>
      <trkpt lat="47.70046" lon="2.15486">
        <ele>119</ele>
        <time>2017-02-05T09:20:07.944Z</time>
      </trkpt>
      <trkpt lat="47.70046" lon="2.15486">
        <ele>119</ele>
        <time>2017-02-05T09:20:08.953Z</time>
      </trkpt>
      <trkpt lat="47.70052" lon="2.15499">
        <ele>120</ele>
        <time>2017-02-05T09:20:09.942Z</time>
      </trkpt>
      <trkpt lat="47.70052" lon="2.15499">
        <ele>120</ele>
        <time>2017-02-05T09:20:10.931Z</time>
      </trkpt>
      <trkpt lat="47.7006" lon="2.15513">
        <ele>119</ele>
        <time>2017-02-05T09:20:11.935Z</time>
      </trkpt>
      <trkpt lat="47.7006" lon="2.15513">
        <ele>119</ele>
        <time>2017-02-05T09:20:12.932Z</time>
      </trkpt>
      <trkpt lat="47.70066" lon="2.15524">
        <ele>121</ele>
        <time>2017-02-05T09:20:13.935Z</time>
      </trkpt>
      <trkpt lat="47.70066" lon="2.15524">
        <ele>121</ele>
        <time>2017-02-05T09:20:14.932Z</time>
      </trkpt>
      <trkpt lat="47.70074" lon="2.15536">
        <ele>121</ele>
        <time>2017-02-05T09:20:15.935Z</time>
      </trkpt>
      <trkpt lat="47.70074" lon="2.15536">
        <ele>121</ele>
        <time>2017-02-05T09:20:16.931Z</time>
      </trkpt>
      <trkpt lat="47.70083" lon="2.15547">
        <ele>121</ele>
        <time>2017-02-05T09:20:17.934Z</time>
      </trkpt>
      <trkpt lat="47.70083" lon="2.15547">
        <ele>121</ele>
        <time>2017-02-05T09:20:18.931Z</time>
      </trkpt>
      <trkpt lat="47.70092" lon="2.15558">
        <ele>121</ele>
        <time>2017-02-05T09:20:19.936Z</time>
      </trkpt>
      <trkpt lat="47.70092" lon="2.15558">
        <ele>121</ele>
        <time>2017-02-05T09:20:20.931Z</time>
      </trkpt>
      <trkpt lat="47.70102" lon="2.15568">
        <ele>121</ele>
        <time>2017-02-05T09:20:21.937Z</time>
      </trkpt>
      <trkpt lat="47.70102" lon="2.15568">
        <ele>121</ele>
        <time>2017-02-05T09:20:22.931Z</time>
      </trkpt>
      <trkpt lat="47.70112" lon="2.15579">
        <ele>121</ele>
        <time>2017-02-05T09:20:23.936Z</time>
      </trkpt>
      <trkpt lat="47.70116" lon="2.15584">
        <ele>121</ele>
        <time>2017-02-05T09:20:24.933Z</time>
      </trkpt>
      <trkpt lat="47.70116" lon="2.15584">
        <ele>121</ele>
        <time>2017-02-05T09:20:25.928Z</time>
      </trkpt>
      <trkpt lat="47.70126" lon="2.15595">
        <ele>121</ele>
        <time>2017-02-05T09:20:26.959Z</time>
      </trkpt>
      <trkpt lat="47.70126" lon="2.15595">
        <ele>121</ele>
        <time>2017-02-05T09:20:27.929Z</time>
      </trkpt>
      <trkpt lat="47.70135" lon="2.15606">
        <ele>121</ele>
        <time>2017-02-05T09:20:28.933Z</time>
      </trkpt>
      <trkpt lat="47.70135" lon="2.15606">
        <ele>121</ele>
        <time>2017-02-05T09:20:29.928Z</time>
      </trkpt>
      <trkpt lat="47.70145" lon="2.15617">
        <ele>120</ele>
        <time>2017-02-05T09:20:30.933Z</time>
      </trkpt>
      <trkpt lat="47.70145" lon="2.15617">
        <ele>120</ele>
        <time>2017-02-05T09:20:31.931Z</time>
      </trkpt>
      <trkpt lat="47.70154" lon="2.15627">
        <ele>120</ele>
        <time>2017-02-05T09:20:32.933Z</time>
      </trkpt>
      <trkpt lat="47.70154" lon="2.15627">
        <ele>120</ele>
        <time>2017-02-05T09:20:33.962Z</time>
      </trkpt>
      <trkpt lat="47.70164" lon="2.15637">
        <ele>120</ele>
        <time>2017-02-05T09:20:34.933Z</time>
      </trkpt>
      <trkpt lat="47.70168" lon="2.15642">
        <ele>120</ele>
        <time>2017-02-05T09:20:35.935Z</time>
      </trkpt>
      <trkpt lat="47.70168" lon="2.15642">
        <ele>120</ele>
        <time>2017-02-05T09:20:36.931Z</time>
      </trkpt>
      <trkpt lat="47.70177" lon="2.15653">
        <ele>120</ele>
        <time>2017-02-05T09:20:37.955Z</time>
      </trkpt>
      <trkpt lat="47.70177" lon="2.15653">
        <ele>120</ele>
        <time>2017-02-05T09:20:38.937Z</time>
      </trkpt>
      <trkpt lat="47.70177" lon="2.15653">
        <ele>120</ele>
        <time>2017-02-05T09:20:39.937Z</time>
      </trkpt>
      <trkpt lat="47.70186" lon="2.15664">
        <ele>120</ele>
        <time>2017-02-05T09:20:40.928Z</time>
      </trkpt>
      <trkpt lat="47.70195" lon="2.15676">
        <ele>119</ele>
        <time>2017-02-05T09:20:41.934Z</time>
      </trkpt>
      <trkpt lat="47.70195" lon="2.15676">
        <ele>119</ele>
        <time>2017-02-05T09:20:42.936Z</time>
      </trkpt>
      <trkpt lat="47.70203" lon="2.15687">
        <ele>119</ele>
        <time>2017-02-05T09:20:43.935Z</time>
      </trkpt>
      <trkpt lat="47.70203" lon="2.15687">
        <ele>119</ele>
        <time>2017-02-05T09:20:44.927Z</time>
      </trkpt>
      <trkpt lat="47.70212" lon="2.15699">
        <ele>118</ele>
        <time>2017-02-05T09:20:45.935Z</time>
      </trkpt>
      <trkpt lat="47.70212" lon="2.15699">
        <ele>118</ele>
        <time>2017-02-05T09:20:46.928Z</time>
      </trkpt>
      <trkpt lat="47.70221" lon="2.15712">
        <ele>118</ele>
        <time>2017-02-05T09:20:47.934Z</time>
      </trkpt>
      <trkpt lat="47.70221" lon="2.15712">
        <ele>118</ele>
        <time>2017-02-05T09:20:48.928Z</time>
      </trkpt>
      <trkpt lat="47.7023" lon="2.15724">
        <ele>117</ele>
        <time>2017-02-05T09:20:49.936Z</time>
      </trkpt>
      <trkpt lat="47.7023" lon="2.15724">
        <ele>117</ele>
        <time>2017-02-05T09:20:50.928Z</time>
      </trkpt>
      <trkpt lat="47.70239" lon="2.15736">
        <ele>117</ele>
        <time>2017-02-05T09:20:51.937Z</time>
      </trkpt>
      <trkpt lat="47.70239" lon="2.15736">
        <ele>117</ele>
        <time>2017-02-05T09:20:52.928Z</time>
      </trkpt>
      <trkpt lat="47.70248" lon="2.15747">
        <ele>116</ele>
        <time>2017-02-05T09:20:53.934Z</time>
      </trkpt>
      <trkpt lat="47.70252" lon="2.15753">
        <ele>116</ele>
        <time>2017-02-05T09:20:54.935Z</time>
      </trkpt>
      <trkpt lat="47.70252" lon="2.15753">
        <ele>116</ele>
        <time>2017-02-05T09:20:55.928Z</time>
      </trkpt>
      <trkpt lat="47.70261" lon="2.15765">
        <ele>116</ele>
        <time>2017-02-05T09:20:56.937Z</time>
      </trkpt>
      <trkpt lat="47.70261" lon="2.15765">
        <ele>116</ele>
        <time>2017-02-05T09:20:57.934Z</time>
      </trkpt>
      <trkpt lat="47.70271" lon="2.15778">
        <ele>116</ele>
        <time>2017-02-05T09:20:58.933Z</time>
      </trkpt>
      <trkpt lat="47.70275" lon="2.15784">
        <ele>116</ele>
        <time>2017-02-05T09:20:59.934Z</time>
      </trkpt>
      <trkpt lat="47.7028" lon="2.1579">
        <ele>115</ele>
        <time>2017-02-05T09:21:00.935Z</time>
      </trkpt>
      <trkpt lat="47.7028" lon="2.1579">
        <ele>115</ele>
        <time>2017-02-05T09:21:01.929Z</time>
      </trkpt>
      <trkpt lat="47.70289" lon="2.15802">
        <ele>115</ele>
        <time>2017-02-05T09:21:02.935Z</time>
      </trkpt>
      <trkpt lat="47.70289" lon="2.15802">
        <ele>115</ele>
        <time>2017-02-05T09:21:03.929Z</time>
      </trkpt>
      <trkpt lat="47.70299" lon="2.15815">
        <ele>115</ele>
        <time>2017-02-05T09:21:04.933Z</time>
      </trkpt>
      <trkpt lat="47.70304" lon="2.15822">
        <ele>115</ele>
        <time>2017-02-05T09:21:05.935Z</time>
      </trkpt>
      <trkpt lat="47.70304" lon="2.15822">
        <ele>115</ele>
        <time>2017-02-05T09:21:06.929Z</time>
      </trkpt>
      <trkpt lat="47.70313" lon="2.15833">
        <ele>115</ele>
        <time>2017-02-05T09:21:07.943Z</time>
      </trkpt>
      <trkpt lat="47.70313" lon="2.15833">
        <ele>115</ele>
        <time>2017-02-05T09:21:08.946Z</time>
      </trkpt>
      <trkpt lat="47.70323" lon="2.15843">
        <ele>115</ele>
        <time>2017-02-05T09:21:09.952Z</time>
      </trkpt>
      <trkpt lat="47.70323" lon="2.15843">
        <ele>115</ele>
        <time>2017-02-05T09:21:10.929Z</time>
      </trkpt>
      <trkpt lat="47.70333" lon="2.15852">
        <ele>114</ele>
        <time>2017-02-05T09:21:11.935Z</time>
      </trkpt>
      <trkpt lat="47.70333" lon="2.15852">
        <ele>114</ele>
        <time>2017-02-05T09:21:12.934Z</time>
      </trkpt>
      <trkpt lat="47.70343" lon="2.15859">
        <ele>114</ele>
        <time>2017-02-05T09:21:13.935Z</time>
      </trkpt>
      <trkpt lat="47.70343" lon="2.15859">
        <ele>114</ele>
        <time>2017-02-05T09:21:14.928Z</time>
      </trkpt>
      <trkpt lat="47.70353" lon="2.15866">
        <ele>113</ele>
        <time>2017-02-05T09:21:15.937Z</time>
      </trkpt>
      <trkpt lat="47.70353" lon="2.15866">
        <ele>113</ele>
        <time>2017-02-05T09:21:16.934Z</time>
      </trkpt>
      <trkpt lat="47.70364" lon="2.15874">
        <ele>113</ele>
        <time>2017-02-05T09:21:17.935Z</time>
      </trkpt>
      <trkpt lat="47.70364" lon="2.15874">
        <ele>113</ele>
        <time>2017-02-05T09:21:18.928Z</time>
      </trkpt>
      <trkpt lat="47.70373" lon="2.15882">
        <ele>112</ele>
        <time>2017-02-05T09:21:19.936Z</time>
      </trkpt>
      <trkpt lat="47.70373" lon="2.15882">
        <ele>112</ele>
        <time>2017-02-05T09:21:20.929Z</time>
      </trkpt>
      <trkpt lat="47.70384" lon="2.15891">
        <ele>112</ele>
        <time>2017-02-05T09:21:21.936Z</time>
      </trkpt>
      <trkpt lat="47.70384" lon="2.15891">
        <ele>112</ele>
        <time>2017-02-05T09:21:22.933Z</time>
      </trkpt>
      <trkpt lat="47.70394" lon="2.15898">
        <ele>112</ele>
        <time>2017-02-05T09:21:23.935Z</time>
      </trkpt>
      <trkpt lat="47.70394" lon="2.15898">
        <ele>112</ele>
        <time>2017-02-05T09:21:24.928Z</time>
      </trkpt>
      <trkpt lat="47.70404" lon="2.15906">
        <ele>112</ele>
        <time>2017-02-05T09:21:25.934Z</time>
      </trkpt>
      <trkpt lat="47.70404" lon="2.15906">
        <ele>112</ele>
        <time>2017-02-05T09:21:26.946Z</time>
      </trkpt>
      <trkpt lat="47.70415" lon="2.15914">
        <ele>111</ele>
        <time>2017-02-05T09:21:27.951Z</time>
      </trkpt>
      <trkpt lat="47.70415" lon="2.15914">
        <ele>111</ele>
        <time>2017-02-05T09:21:28.933Z</time>
      </trkpt>
      <trkpt lat="47.70424" lon="2.15921">
        <ele>111</ele>
        <time>2017-02-05T09:21:29.935Z</time>
      </trkpt>
      <trkpt lat="47.70429" lon="2.15924">
        <ele>111</ele>
        <time>2017-02-05T09:21:30.935Z</time>
      </trkpt>
      <trkpt lat="47.70429" lon="2.15924">
        <ele>111</ele>
        <time>2017-02-05T09:21:31.929Z</time>
      </trkpt>
      <trkpt lat="47.70439" lon="2.15931">
        <ele>111</ele>
        <time>2017-02-05T09:21:32.935Z</time>
      </trkpt>
      <trkpt lat="47.70439" lon="2.15931">
        <ele>111</ele>
        <time>2017-02-05T09:21:33.947Z</time>
      </trkpt>
      <trkpt lat="47.70443" lon="2.15935">
        <ele>111</ele>
        <time>2017-02-05T09:21:34.937Z</time>
      </trkpt>
      <trkpt lat="47.70453" lon="2.15944">
        <ele>111</ele>
        <time>2017-02-05T09:21:35.934Z</time>
      </trkpt>
      <trkpt lat="47.70453" lon="2.15944">
        <ele>111</ele>
        <time>2017-02-05T09:21:36.929Z</time>
      </trkpt>
      <trkpt lat="47.70463" lon="2.1595">
        <ele>112</ele>
        <time>2017-02-05T09:21:37.936Z</time>
      </trkpt>
      <trkpt lat="47.70463" lon="2.1595">
        <ele>112</ele>
        <time>2017-02-05T09:21:38.928Z</time>
      </trkpt>
      <trkpt lat="47.70473" lon="2.1595">
        <ele>112</ele>
        <time>2017-02-05T09:21:39.936Z</time>
      </trkpt>
      <trkpt lat="47.70473" lon="2.1595">
        <ele>112</ele>
        <time>2017-02-05T09:21:40.933Z</time>
      </trkpt>
      <trkpt lat="47.70484" lon="2.15948">
        <ele>112</ele>
        <time>2017-02-05T09:21:41.934Z</time>
      </trkpt>
      <trkpt lat="47.70484" lon="2.15948">
        <ele>112</ele>
        <time>2017-02-05T09:21:42.929Z</time>
      </trkpt>
      <trkpt lat="47.70495" lon="2.15945">
        <ele>113</ele>
        <time>2017-02-05T09:21:43.936Z</time>
      </trkpt>
      <trkpt lat="47.70495" lon="2.15945">
        <ele>113</ele>
        <time>2017-02-05T09:21:44.925Z</time>
      </trkpt>
      <trkpt lat="47.70505" lon="2.15942">
        <ele>114</ele>
        <time>2017-02-05T09:21:45.951Z</time>
      </trkpt>
      <trkpt lat="47.70511" lon="2.15939">
        <ele>114</ele>
        <time>2017-02-05T09:21:46.936Z</time>
      </trkpt>
      <trkpt lat="47.70511" lon="2.15939">
        <ele>114</ele>
        <time>2017-02-05T09:21:47.929Z</time>
      </trkpt>
      <trkpt lat="47.70522" lon="2.15936">
        <ele>115</ele>
        <time>2017-02-05T09:21:48.936Z</time>
      </trkpt>
      <trkpt lat="47.70527" lon="2.15934">
        <ele>115</ele>
        <time>2017-02-05T09:21:49.936Z</time>
      </trkpt>
      <trkpt lat="47.70527" lon="2.15934">
        <ele>115</ele>
        <time>2017-02-05T09:21:50.933Z</time>
      </trkpt>
      <trkpt lat="47.70537" lon="2.15931">
        <ele>116</ele>
        <time>2017-02-05T09:21:51.936Z</time>
      </trkpt>
      <trkpt lat="47.70542" lon="2.15929">
        <ele>117</ele>
        <time>2017-02-05T09:21:52.936Z</time>
      </trkpt>
      <trkpt lat="47.70542" lon="2.15929">
        <ele>117</ele>
        <time>2017-02-05T09:21:53.929Z</time>
      </trkpt>
      <trkpt lat="47.70552" lon="2.15925">
        <ele>117</ele>
        <time>2017-02-05T09:21:54.945Z</time>
      </trkpt>
      <trkpt lat="47.70556" lon="2.15924">
        <ele>117</ele>
        <time>2017-02-05T09:21:55.941Z</time>
      </trkpt>
      <trkpt lat="47.70556" lon="2.15924">
        <ele>117</ele>
        <time>2017-02-05T09:21:56.934Z</time>
      </trkpt>
      <trkpt lat="47.70565" lon="2.1592">
        <ele>119</ele>
        <time>2017-02-05T09:21:57.936Z</time>
      </trkpt>
      <trkpt lat="47.70569" lon="2.15917">
        <ele>119</ele>
        <time>2017-02-05T09:21:58.935Z</time>
      </trkpt>
      <trkpt lat="47.70569" lon="2.15917">
        <ele>119</ele>
        <time>2017-02-05T09:21:59.985Z</time>
      </trkpt>
      <trkpt lat="47.70574" lon="2.15915">
        <ele>120</ele>
        <time>2017-02-05T09:22:00.940Z</time>
      </trkpt>
      <trkpt lat="47.70583" lon="2.1591">
        <ele>121</ele>
        <time>2017-02-05T09:22:01.936Z</time>
      </trkpt>
      <trkpt lat="47.70588" lon="2.15909">
        <ele>122</ele>
        <time>2017-02-05T09:22:02.937Z</time>
      </trkpt>
      <trkpt lat="47.70588" lon="2.15909">
        <ele>122</ele>
        <time>2017-02-05T09:22:03.930Z</time>
      </trkpt>
      <trkpt lat="47.70597" lon="2.15904">
        <ele>123</ele>
        <time>2017-02-05T09:22:04.936Z</time>
      </trkpt>
      <trkpt lat="47.70602" lon="2.15902">
        <ele>123</ele>
        <time>2017-02-05T09:22:05.936Z</time>
      </trkpt>
      <trkpt lat="47.70602" lon="2.15902">
        <ele>123</ele>
        <time>2017-02-05T09:22:06.929Z</time>
      </trkpt>
      <trkpt lat="47.70612" lon="2.15897">
        <ele>124</ele>
        <time>2017-02-05T09:22:07.942Z</time>
      </trkpt>
      <trkpt lat="47.70612" lon="2.15897">
        <ele>124</ele>
        <time>2017-02-05T09:22:08.937Z</time>
      </trkpt>
      <trkpt lat="47.70622" lon="2.15891">
        <ele>125</ele>
        <time>2017-02-05T09:22:09.936Z</time>
      </trkpt>
      <trkpt lat="47.70627" lon="2.15888">
        <ele>125</ele>
        <time>2017-02-05T09:22:10.937Z</time>
      </trkpt>
      <trkpt lat="47.70632" lon="2.15886">
        <ele>125</ele>
        <time>2017-02-05T09:22:11.935Z</time>
      </trkpt>
      <trkpt lat="47.70632" lon="2.15886">
        <ele>125</ele>
        <time>2017-02-05T09:22:12.936Z</time>
      </trkpt>
      <trkpt lat="47.70643" lon="2.15882">
        <ele>125</ele>
        <time>2017-02-05T09:22:13.937Z</time>
      </trkpt>
      <trkpt lat="47.70643" lon="2.15882">
        <ele>125</ele>
        <time>2017-02-05T09:22:14.935Z</time>
      </trkpt>
      <trkpt lat="47.70653" lon="2.15878">
        <ele>124</ele>
        <time>2017-02-05T09:22:15.934Z</time>
      </trkpt>
      <trkpt lat="47.70658" lon="2.15876">
        <ele>124</ele>
        <time>2017-02-05T09:22:16.936Z</time>
      </trkpt>
      <trkpt lat="47.70658" lon="2.15876">
        <ele>124</ele>
        <time>2017-02-05T09:22:17.934Z</time>
      </trkpt>
      <trkpt lat="47.70669" lon="2.15873">
        <ele>125</ele>
        <time>2017-02-05T09:22:18.937Z</time>
      </trkpt>
      <trkpt lat="47.70669" lon="2.15873">
        <ele>125</ele>
        <time>2017-02-05T09:22:19.934Z</time>
      </trkpt>
      <trkpt lat="47.7068" lon="2.15871">
        <ele>123</ele>
        <time>2017-02-05T09:22:20.936Z</time>
      </trkpt>
      <trkpt lat="47.7068" lon="2.15871">
        <ele>123</ele>
        <time>2017-02-05T09:22:21.934Z</time>
      </trkpt>
      <trkpt lat="47.7069" lon="2.15868">
        <ele>122</ele>
        <time>2017-02-05T09:22:22.937Z</time>
      </trkpt>
      <trkpt lat="47.7069" lon="2.15868">
        <ele>122</ele>
        <time>2017-02-05T09:22:23.929Z</time>
      </trkpt>
      <trkpt lat="47.70699" lon="2.15866">
        <ele>122</ele>
        <time>2017-02-05T09:22:24.936Z</time>
      </trkpt>
      <trkpt lat="47.70699" lon="2.15866">
        <ele>122</ele>
        <time>2017-02-05T09:22:25.934Z</time>
      </trkpt>
      <trkpt lat="47.70709" lon="2.15863">
        <ele>121</ele>
        <time>2017-02-05T09:22:26.954Z</time>
      </trkpt>
      <trkpt lat="47.70713" lon="2.15861">
        <ele>121</ele>
        <time>2017-02-05T09:22:27.946Z</time>
      </trkpt>
      <trkpt lat="47.70713" lon="2.15861">
        <ele>121</ele>
        <time>2017-02-05T09:22:28.934Z</time>
      </trkpt>
      <trkpt lat="47.70722" lon="2.15857">
        <ele>121</ele>
        <time>2017-02-05T09:22:29.943Z</time>
      </trkpt>
      <trkpt lat="47.70727" lon="2.15855">
        <ele>121</ele>
        <time>2017-02-05T09:22:30.936Z</time>
      </trkpt>
      <trkpt lat="47.70727" lon="2.15855">
        <ele>121</ele>
        <time>2017-02-05T09:22:31.949Z</time>
      </trkpt>
      <trkpt lat="47.70736" lon="2.15852">
        <ele>121</ele>
        <time>2017-02-05T09:22:32.936Z</time>
      </trkpt>
      <trkpt lat="47.70736" lon="2.15852">
        <ele>121</ele>
        <time>2017-02-05T09:22:33.965Z</time>
      </trkpt>
      <trkpt lat="47.70745" lon="2.15848">
        <ele>121</ele>
        <time>2017-02-05T09:22:34.936Z</time>
      </trkpt>
      <trkpt lat="47.70749" lon="2.15846">
        <ele>122</ele>
        <time>2017-02-05T09:22:35.935Z</time>
      </trkpt>
      <trkpt lat="47.70749" lon="2.15846">
        <ele>122</ele>
        <time>2017-02-05T09:22:36.929Z</time>
      </trkpt>
      <trkpt lat="47.7076" lon="2.15844">
        <ele>121</ele>
        <time>2017-02-05T09:22:37.936Z</time>
      </trkpt>
      <trkpt lat="47.7076" lon="2.15844">
        <ele>121</ele>
        <time>2017-02-05T09:22:38.929Z</time>
      </trkpt>
      <trkpt lat="47.70768" lon="2.15841">
        <ele>120</ele>
        <time>2017-02-05T09:22:39.935Z</time>
      </trkpt>
      <trkpt lat="47.70772" lon="2.15841">
        <ele>120</ele>
        <time>2017-02-05T09:22:40.937Z</time>
      </trkpt>
      <trkpt lat="47.70776" lon="2.1584">
        <ele>119</ele>
        <time>2017-02-05T09:22:41.937Z</time>
      </trkpt>
      <trkpt lat="47.70776" lon="2.1584">
        <ele>119</ele>
        <time>2017-02-05T09:22:42.935Z</time>
      </trkpt>
      <trkpt lat="47.70785" lon="2.15839">
        <ele>119</ele>
        <time>2017-02-05T09:22:43.937Z</time>
      </trkpt>
      <trkpt lat="47.70789" lon="2.15838">
        <ele>119</ele>
        <time>2017-02-05T09:22:44.935Z</time>
      </trkpt>
      <trkpt lat="47.70789" lon="2.15838">
        <ele>119</ele>
        <time>2017-02-05T09:22:45.935Z</time>
      </trkpt>
      <trkpt lat="47.70795" lon="2.15837">
        <ele>119</ele>
        <time>2017-02-05T09:22:46.935Z</time>
      </trkpt>
      <trkpt lat="47.70798" lon="2.15836">
        <ele>119</ele>
        <time>2017-02-05T09:22:47.936Z</time>
      </trkpt>
      <trkpt lat="47.70798" lon="2.15836">
        <ele>119</ele>
        <time>2017-02-05T09:22:48.934Z</time>
      </trkpt>
      <trkpt lat="47.70806" lon="2.15834">
        <ele>119</ele>
        <time>2017-02-05T09:22:49.936Z</time>
      </trkpt>
      <trkpt lat="47.70806" lon="2.15834">
        <ele>119</ele>
        <time>2017-02-05T09:22:50.929Z</time>
      </trkpt>
      <trkpt lat="47.70814" lon="2.15834">
        <ele>120</ele>
        <time>2017-02-05T09:22:51.933Z</time>
      </trkpt>
      <trkpt lat="47.70819" lon="2.15833">
        <ele>120</ele>
        <time>2017-02-05T09:22:52.936Z</time>
      </trkpt>
      <trkpt lat="47.70819" lon="2.15833">
        <ele>120</ele>
        <time>2017-02-05T09:22:53.927Z</time>
      </trkpt>
      <trkpt lat="47.70828" lon="2.15832">
        <ele>120</ele>
        <time>2017-02-05T09:22:54.936Z</time>
      </trkpt>
      <trkpt lat="47.70828" lon="2.15832">
        <ele>120</ele>
        <time>2017-02-05T09:22:55.929Z</time>
      </trkpt>
      <trkpt lat="47.70838" lon="2.15831">
        <ele>119</ele>
        <time>2017-02-05T09:22:56.936Z</time>
      </trkpt>
      <trkpt lat="47.70838" lon="2.15831">
        <ele>119</ele>
        <time>2017-02-05T09:22:57.934Z</time>
      </trkpt>
      <trkpt lat="47.70848" lon="2.15832">
        <ele>118</ele>
        <time>2017-02-05T09:22:58.936Z</time>
      </trkpt>
      <trkpt lat="47.70854" lon="2.15832">
        <ele>117</ele>
        <time>2017-02-05T09:22:59.957Z</time>
      </trkpt>
      <trkpt lat="47.70859" lon="2.15832">
        <ele>116</ele>
        <time>2017-02-05T09:23:00.934Z</time>
      </trkpt>
      <trkpt lat="47.70859" lon="2.15832">
        <ele>116</ele>
        <time>2017-02-05T09:23:01.934Z</time>
      </trkpt>
      <trkpt lat="47.70859" lon="2.15832">
        <ele>116</ele>
        <time>2017-02-05T09:23:02.939Z</time>
      </trkpt>
      <trkpt lat="47.70868" lon="2.15832">
        <ele>116</ele>
        <time>2017-02-05T09:23:03.946Z</time>
      </trkpt>
      <trkpt lat="47.70876" lon="2.15832">
        <ele>116</ele>
        <time>2017-02-05T09:23:04.936Z</time>
      </trkpt>
      <trkpt lat="47.70876" lon="2.15832">
        <ele>116</ele>
        <time>2017-02-05T09:23:05.933Z</time>
      </trkpt>
      <trkpt lat="47.70886" lon="2.15831">
        <ele>118</ele>
        <time>2017-02-05T09:23:06.937Z</time>
      </trkpt>
      <trkpt lat="47.70886" lon="2.15831">
        <ele>118</ele>
        <time>2017-02-05T09:23:07.946Z</time>
      </trkpt>
      <trkpt lat="47.70896" lon="2.15828">
        <ele>118</ele>
        <time>2017-02-05T09:23:08.927Z</time>
      </trkpt>
      <trkpt lat="47.70896" lon="2.15828">
        <ele>118</ele>
        <time>2017-02-05T09:23:09.933Z</time>
      </trkpt>
      <trkpt lat="47.70906" lon="2.15831">
        <ele>117</ele>
        <time>2017-02-05T09:23:10.937Z</time>
      </trkpt>
      <trkpt lat="47.70908" lon="2.15831">
        <ele>117</ele>
        <time>2017-02-05T09:23:11.937Z</time>
      </trkpt>
      <trkpt lat="47.70908" lon="2.15831">
        <ele>117</ele>
        <time>2017-02-05T09:23:12.935Z</time>
      </trkpt>
      <trkpt lat="47.70914" lon="2.1583">
        <ele>117</ele>
        <time>2017-02-05T09:23:13.936Z</time>
      </trkpt>
      <trkpt lat="47.70917" lon="2.15829">
        <ele>118</ele>
        <time>2017-02-05T09:23:14.937Z</time>
      </trkpt>
      <trkpt lat="47.70917" lon="2.15829">
        <ele>118</ele>
        <time>2017-02-05T09:23:15.931Z</time>
      </trkpt>
      <trkpt lat="47.7092" lon="2.15825">
        <ele>119</ele>
        <time>2017-02-05T09:23:16.936Z</time>
      </trkpt>
      <trkpt lat="47.7092" lon="2.15825">
        <ele>119</ele>
        <time>2017-02-05T09:23:17.934Z</time>
      </trkpt>
      <trkpt lat="47.7092" lon="2.15821">
        <ele>120</ele>
        <time>2017-02-05T09:23:18.936Z</time>
      </trkpt>
      <trkpt lat="47.7092" lon="2.15821">
        <ele>120</ele>
        <time>2017-02-05T09:23:19.935Z</time>
      </trkpt>
      <trkpt lat="47.7092" lon="2.1582">
        <ele>120</ele>
        <time>2017-02-05T09:23:20.936Z</time>
      </trkpt>
      <trkpt lat="47.7092" lon="2.1582">
        <ele>120</ele>
        <time>2017-02-05T09:23:21.934Z</time>
      </trkpt>
      <trkpt lat="47.7092" lon="2.1582">
        <ele>120</ele>
        <time>2017-02-05T09:23:22.938Z</time>
      </trkpt>
      <trkpt lat="47.70914" lon="2.15807">
        <ele>129</ele>
        <time>2017-02-05T09:23:23.938Z</time>
      </trkpt>
      <trkpt lat="47.70914" lon="2.15807">
        <ele>129</ele>
        <time>2017-02-05T09:23:24.925Z</time>
      </trkpt>
      <trkpt lat="47.70912" lon="2.15796">
        <ele>128</ele>
        <time>2017-02-05T09:23:25.925Z</time>
      </trkpt>
      <trkpt lat="47.70912" lon="2.1579">
        <ele>128</ele>
        <time>2017-02-05T09:23:26.925Z</time>
      </trkpt>
      <trkpt lat="47.70912" lon="2.1579">
        <ele>128</ele>
        <time>2017-02-05T09:23:27.923Z</time>
      </trkpt>
      <trkpt lat="47.70912" lon="2.15779">
        <ele>128</ele>
        <time>2017-02-05T09:23:28.926Z</time>
      </trkpt>
      <trkpt lat="47.70912" lon="2.15779">
        <ele>128</ele>
        <time>2017-02-05T09:23:29.961Z</time>
      </trkpt>
      <trkpt lat="47.70911" lon="2.15766">
        <ele>128</ele>
        <time>2017-02-05T09:23:30.926Z</time>
      </trkpt>
      <trkpt lat="47.70911" lon="2.15766">
        <ele>128</ele>
        <time>2017-02-05T09:23:31.922Z</time>
      </trkpt>
      <trkpt lat="47.70911" lon="2.15766">
        <ele>128</ele>
        <time>2017-02-05T09:23:32.928Z</time>
      </trkpt>
      <trkpt lat="47.70911" lon="2.15754">
        <ele>127</ele>
        <time>2017-02-05T09:23:33.938Z</time>
      </trkpt>
      <trkpt lat="47.70911" lon="2.15743">
        <ele>127</ele>
        <time>2017-02-05T09:23:34.926Z</time>
      </trkpt>
      <trkpt lat="47.70911" lon="2.15743">
        <ele>127</ele>
        <time>2017-02-05T09:23:35.923Z</time>
      </trkpt>
      <trkpt lat="47.70911" lon="2.15743">
        <ele>127</ele>
        <time>2017-02-05T09:23:36.928Z</time>
      </trkpt>
      <trkpt lat="47.7091" lon="2.15732">
        <ele>127</ele>
        <time>2017-02-05T09:23:37.960Z</time>
      </trkpt>
      <trkpt lat="47.70909" lon="2.1572">
        <ele>127</ele>
        <time>2017-02-05T09:23:38.941Z</time>
      </trkpt>
      <trkpt lat="47.70909" lon="2.1572">
        <ele>127</ele>
        <time>2017-02-05T09:23:39.923Z</time>
      </trkpt>
      <trkpt lat="47.70908" lon="2.15706">
        <ele>126</ele>
        <time>2017-02-05T09:23:40.925Z</time>
      </trkpt>
      <trkpt lat="47.70907" lon="2.157">
        <ele>125</ele>
        <time>2017-02-05T09:23:41.940Z</time>
      </trkpt>
      <trkpt lat="47.70907" lon="2.157">
        <ele>125</ele>
        <time>2017-02-05T09:23:42.932Z</time>
      </trkpt>
      <trkpt lat="47.70906" lon="2.15685">
        <ele>125</ele>
        <time>2017-02-05T09:23:43.926Z</time>
      </trkpt>
      <trkpt lat="47.70906" lon="2.15685">
        <ele>125</ele>
        <time>2017-02-05T09:23:44.923Z</time>
      </trkpt>
      <trkpt lat="47.70903" lon="2.1567">
        <ele>124</ele>
        <time>2017-02-05T09:23:45.926Z</time>
      </trkpt>
      <trkpt lat="47.70903" lon="2.1567">
        <ele>124</ele>
        <time>2017-02-05T09:23:46.924Z</time>
      </trkpt>
      <trkpt lat="47.70901" lon="2.15656">
        <ele>123</ele>
        <time>2017-02-05T09:23:47.926Z</time>
      </trkpt>
      <trkpt lat="47.70901" lon="2.15656">
        <ele>123</ele>
        <time>2017-02-05T09:23:48.925Z</time>
      </trkpt>
      <trkpt lat="47.70898" lon="2.15643">
        <ele>122</ele>
        <time>2017-02-05T09:23:49.926Z</time>
      </trkpt>
      <trkpt lat="47.70897" lon="2.15636">
        <ele>122</ele>
        <time>2017-02-05T09:23:50.925Z</time>
      </trkpt>
      <trkpt lat="47.70897" lon="2.15636">
        <ele>122</ele>
        <time>2017-02-05T09:23:51.960Z</time>
      </trkpt>
      <trkpt lat="47.70896" lon="2.15621">
        <ele>121</ele>
        <time>2017-02-05T09:23:52.925Z</time>
      </trkpt>
      <trkpt lat="47.70896" lon="2.15621">
        <ele>121</ele>
        <time>2017-02-05T09:23:53.923Z</time>
      </trkpt>
      <trkpt lat="47.70894" lon="2.15607">
        <ele>121</ele>
        <time>2017-02-05T09:23:54.927Z</time>
      </trkpt>
      <trkpt lat="47.70894" lon="2.15607">
        <ele>121</ele>
        <time>2017-02-05T09:23:55.959Z</time>
      </trkpt>
      <trkpt lat="47.70892" lon="2.15595">
        <ele>120</ele>
        <time>2017-02-05T09:23:56.925Z</time>
      </trkpt>
      <trkpt lat="47.70892" lon="2.15595">
        <ele>120</ele>
        <time>2017-02-05T09:23:57.923Z</time>
      </trkpt>
      <trkpt lat="47.7089" lon="2.15586">
        <ele>120</ele>
        <time>2017-02-05T09:23:58.926Z</time>
      </trkpt>
      <trkpt lat="47.7089" lon="2.15586">
        <ele>120</ele>
        <time>2017-02-05T09:23:59.926Z</time>
      </trkpt>
      <trkpt lat="47.70888" lon="2.15577">
        <ele>120</ele>
        <time>2017-02-05T09:24:00.927Z</time>
      </trkpt>
      <trkpt lat="47.70888" lon="2.15577">
        <ele>120</ele>
        <time>2017-02-05T09:24:01.922Z</time>
      </trkpt>
      <trkpt lat="47.70887" lon="2.15567">
        <ele>119</ele>
        <time>2017-02-05T09:24:02.926Z</time>
      </trkpt>
      <trkpt lat="47.70887" lon="2.15567">
        <ele>119</ele>
        <time>2017-02-05T09:24:03.926Z</time>
      </trkpt>
      <trkpt lat="47.70887" lon="2.15556">
        <ele>119</ele>
        <time>2017-02-05T09:24:04.925Z</time>
      </trkpt>
      <trkpt lat="47.70887" lon="2.15556">
        <ele>119</ele>
        <time>2017-02-05T09:24:05.922Z</time>
      </trkpt>
      <trkpt lat="47.70886" lon="2.15548">
        <ele>119</ele>
        <time>2017-02-05T09:24:06.927Z</time>
      </trkpt>
      <trkpt lat="47.70886" lon="2.15548">
        <ele>119</ele>
        <time>2017-02-05T09:24:07.932Z</time>
      </trkpt>
      <trkpt lat="47.70884" lon="2.15539">
        <ele>119</ele>
        <time>2017-02-05T09:24:08.924Z</time>
      </trkpt>
      <trkpt lat="47.70884" lon="2.15537">
        <ele>119</ele>
        <time>2017-02-05T09:24:09.929Z</time>
      </trkpt>
      <trkpt lat="47.70884" lon="2.15537">
        <ele>119</ele>
        <time>2017-02-05T09:24:10.935Z</time>
      </trkpt>
      <trkpt lat="47.70883" lon="2.15529">
        <ele>119</ele>
        <time>2017-02-05T09:24:11.944Z</time>
      </trkpt>
      <trkpt lat="47.70883" lon="2.15525">
        <ele>118</ele>
        <time>2017-02-05T09:24:12.930Z</time>
      </trkpt>
      <trkpt lat="47.70882" lon="2.15522">
        <ele>118</ele>
        <time>2017-02-05T09:24:13.927Z</time>
      </trkpt>
      <trkpt lat="47.70882" lon="2.15517">
        <ele>118</ele>
        <time>2017-02-05T09:24:14.926Z</time>
      </trkpt>
      <trkpt lat="47.70882" lon="2.15517">
        <ele>118</ele>
        <time>2017-02-05T09:24:15.923Z</time>
      </trkpt>
      <trkpt lat="47.70881" lon="2.15508">
        <ele>118</ele>
        <time>2017-02-05T09:24:16.924Z</time>
      </trkpt>
      <trkpt lat="47.70881" lon="2.15508">
        <ele>118</ele>
        <time>2017-02-05T09:24:17.961Z</time>
      </trkpt>
      <trkpt lat="47.7088" lon="2.15499">
        <ele>118</ele>
        <time>2017-02-05T09:24:18.926Z</time>
      </trkpt>
      <trkpt lat="47.7088" lon="2.15499">
        <ele>118</ele>
        <time>2017-02-05T09:24:19.923Z</time>
      </trkpt>
      <trkpt lat="47.70879" lon="2.15488">
        <ele>118</ele>
        <time>2017-02-05T09:24:20.923Z</time>
      </trkpt>
      <trkpt lat="47.70878" lon="2.15484">
        <ele>118</ele>
        <time>2017-02-05T09:24:21.923Z</time>
      </trkpt>
      <trkpt lat="47.70878" lon="2.15484">
        <ele>118</ele>
        <time>2017-02-05T09:24:22.923Z</time>
      </trkpt>
      <trkpt lat="47.70877" lon="2.15473">
        <ele>118</ele>
        <time>2017-02-05T09:24:23.925Z</time>
      </trkpt>
      <trkpt lat="47.70875" lon="2.15467">
        <ele>118</ele>
        <time>2017-02-05T09:24:24.924Z</time>
      </trkpt>
      <trkpt lat="47.70875" lon="2.15467">
        <ele>118</ele>
        <time>2017-02-05T09:24:25.960Z</time>
      </trkpt>
      <trkpt lat="47.70873" lon="2.15454">
        <ele>118</ele>
        <time>2017-02-05T09:24:26.925Z</time>
      </trkpt>
      <trkpt lat="47.70871" lon="2.15448">
        <ele>119</ele>
        <time>2017-02-05T09:24:27.926Z</time>
      </trkpt>
      <trkpt lat="47.70871" lon="2.15448">
        <ele>119</ele>
        <time>2017-02-05T09:24:28.931Z</time>
      </trkpt>
      <trkpt lat="47.70867" lon="2.15436">
        <ele>120</ele>
        <time>2017-02-05T09:24:29.923Z</time>
      </trkpt>
      <trkpt lat="47.70867" lon="2.15436">
        <ele>120</ele>
        <time>2017-02-05T09:24:30.966Z</time>
      </trkpt>
      <trkpt lat="47.70867" lon="2.1543">
        <ele>120</ele>
        <time>2017-02-05T09:24:31.923Z</time>
      </trkpt>
      <trkpt lat="47.70865" lon="2.15417">
        <ele>121</ele>
        <time>2017-02-05T09:24:32.925Z</time>
      </trkpt>
      <trkpt lat="47.70865" lon="2.15417">
        <ele>121</ele>
        <time>2017-02-05T09:24:33.960Z</time>
      </trkpt>
      <trkpt lat="47.70864" lon="2.15405">
        <ele>121</ele>
        <time>2017-02-05T09:24:34.926Z</time>
      </trkpt>
      <trkpt lat="47.70864" lon="2.15405">
        <ele>121</ele>
        <time>2017-02-05T09:24:35.923Z</time>
      </trkpt>
      <trkpt lat="47.70863" lon="2.15393">
        <ele>122</ele>
        <time>2017-02-05T09:24:36.927Z</time>
      </trkpt>
      <trkpt lat="47.70863" lon="2.15393">
        <ele>122</ele>
        <time>2017-02-05T09:24:37.923Z</time>
      </trkpt>
      <trkpt lat="47.70861" lon="2.15381">
        <ele>122</ele>
        <time>2017-02-05T09:24:38.922Z</time>
      </trkpt>
      <trkpt lat="47.70861" lon="2.15375">
        <ele>122</ele>
        <time>2017-02-05T09:24:39.925Z</time>
      </trkpt>
      <trkpt lat="47.70861" lon="2.15375">
        <ele>122</ele>
        <time>2017-02-05T09:24:40.924Z</time>
      </trkpt>
      <trkpt lat="47.70859" lon="2.15361">
        <ele>122</ele>
        <time>2017-02-05T09:24:41.968Z</time>
      </trkpt>
      <trkpt lat="47.70859" lon="2.15361">
        <ele>122</ele>
        <time>2017-02-05T09:24:42.928Z</time>
      </trkpt>
      <trkpt lat="47.70858" lon="2.15348">
        <ele>123</ele>
        <time>2017-02-05T09:24:43.927Z</time>
      </trkpt>
      <trkpt lat="47.70857" lon="2.15341">
        <ele>123</ele>
        <time>2017-02-05T09:24:44.926Z</time>
      </trkpt>
      <trkpt lat="47.70857" lon="2.15341">
        <ele>123</ele>
        <time>2017-02-05T09:24:45.924Z</time>
      </trkpt>
      <trkpt lat="47.70856" lon="2.15326">
        <ele>123</ele>
        <time>2017-02-05T09:24:46.941Z</time>
      </trkpt>
      <trkpt lat="47.70856" lon="2.15326">
        <ele>123</ele>
        <time>2017-02-05T09:24:47.926Z</time>
      </trkpt>
      <trkpt lat="47.70855" lon="2.15311">
        <ele>123</ele>
        <time>2017-02-05T09:24:48.926Z</time>
      </trkpt>
      <trkpt lat="47.70855" lon="2.15311">
        <ele>123</ele>
        <time>2017-02-05T09:24:49.923Z</time>
      </trkpt>
      <trkpt lat="47.70855" lon="2.15296">
        <ele>123</ele>
        <time>2017-02-05T09:24:50.923Z</time>
      </trkpt>
      <trkpt lat="47.70855" lon="2.15296">
        <ele>123</ele>
        <time>2017-02-05T09:24:51.923Z</time>
      </trkpt>
      <trkpt lat="47.70855" lon="2.15281">
        <ele>124</ele>
        <time>2017-02-05T09:24:52.925Z</time>
      </trkpt>
      <trkpt lat="47.70855" lon="2.15281">
        <ele>124</ele>
        <time>2017-02-05T09:24:53.923Z</time>
      </trkpt>
      <trkpt lat="47.70854" lon="2.15266">
        <ele>124</ele>
        <time>2017-02-05T09:24:54.926Z</time>
      </trkpt>
      <trkpt lat="47.70854" lon="2.15266">
        <ele>124</ele>
        <time>2017-02-05T09:24:55.960Z</time>
      </trkpt>
      <trkpt lat="47.70853" lon="2.15251">
        <ele>124</ele>
        <time>2017-02-05T09:24:56.925Z</time>
      </trkpt>
      <trkpt lat="47.70853" lon="2.15251">
        <ele>124</ele>
        <time>2017-02-05T09:24:57.924Z</time>
      </trkpt>
      <trkpt lat="47.70852" lon="2.15234">
        <ele>124</ele>
        <time>2017-02-05T09:24:58.926Z</time>
      </trkpt>
      <trkpt lat="47.70852" lon="2.15234">
        <ele>124</ele>
        <time>2017-02-05T09:24:59.960Z</time>
      </trkpt>
      <trkpt lat="47.70852" lon="2.15219">
        <ele>124</ele>
        <time>2017-02-05T09:25:00.927Z</time>
      </trkpt>
      <trkpt lat="47.70852" lon="2.15219">
        <ele>124</ele>
        <time>2017-02-05T09:25:01.959Z</time>
      </trkpt>
      <trkpt lat="47.7085" lon="2.15203">
        <ele>124</ele>
        <time>2017-02-05T09:25:02.926Z</time>
      </trkpt>
      <trkpt lat="47.7085" lon="2.15203">
        <ele>124</ele>
        <time>2017-02-05T09:25:03.923Z</time>
      </trkpt>
      <trkpt lat="47.70849" lon="2.15187">
        <ele>124</ele>
        <time>2017-02-05T09:25:04.926Z</time>
      </trkpt>
      <trkpt lat="47.70849" lon="2.15187">
        <ele>124</ele>
        <time>2017-02-05T09:25:05.924Z</time>
      </trkpt>
      <trkpt lat="47.70846" lon="2.15171">
        <ele>123</ele>
        <time>2017-02-05T09:25:06.927Z</time>
      </trkpt>
      <trkpt lat="47.70846" lon="2.15171">
        <ele>123</ele>
        <time>2017-02-05T09:25:07.934Z</time>
      </trkpt>
      <trkpt lat="47.70845" lon="2.15155">
        <ele>122</ele>
        <time>2017-02-05T09:25:08.922Z</time>
      </trkpt>
      <trkpt lat="47.70844" lon="2.15148">
        <ele>122</ele>
        <time>2017-02-05T09:25:09.929Z</time>
      </trkpt>
      <trkpt lat="47.70844" lon="2.15148">
        <ele>122</ele>
        <time>2017-02-05T09:25:10.934Z</time>
      </trkpt>
      <trkpt lat="47.70844" lon="2.15133">
        <ele>122</ele>
        <time>2017-02-05T09:25:11.932Z</time>
      </trkpt>
      <trkpt lat="47.70845" lon="2.15126">
        <ele>122</ele>
        <time>2017-02-05T09:25:12.931Z</time>
      </trkpt>
      <trkpt lat="47.70845" lon="2.15126">
        <ele>122</ele>
        <time>2017-02-05T09:25:13.924Z</time>
      </trkpt>
      <trkpt lat="47.7085" lon="2.15113">
        <ele>121</ele>
        <time>2017-02-05T09:25:14.926Z</time>
      </trkpt>
      <trkpt lat="47.7085" lon="2.15113">
        <ele>121</ele>
        <time>2017-02-05T09:25:15.924Z</time>
      </trkpt>
      <trkpt lat="47.70856" lon="2.15102">
        <ele>120</ele>
        <time>2017-02-05T09:25:16.923Z</time>
      </trkpt>
      <trkpt lat="47.70856" lon="2.15102">
        <ele>120</ele>
        <time>2017-02-05T09:25:17.923Z</time>
      </trkpt>
      <trkpt lat="47.70863" lon="2.15093">
        <ele>120</ele>
        <time>2017-02-05T09:25:18.927Z</time>
      </trkpt>
      <trkpt lat="47.70863" lon="2.15093">
        <ele>120</ele>
        <time>2017-02-05T09:25:19.923Z</time>
      </trkpt>
      <trkpt lat="47.70872" lon="2.15087">
        <ele>120</ele>
        <time>2017-02-05T09:25:20.926Z</time>
      </trkpt>
      <trkpt lat="47.70876" lon="2.15084">
        <ele>119</ele>
        <time>2017-02-05T09:25:21.926Z</time>
      </trkpt>
      <trkpt lat="47.70876" lon="2.15084">
        <ele>119</ele>
        <time>2017-02-05T09:25:22.961Z</time>
      </trkpt>
      <trkpt lat="47.70885" lon="2.15077">
        <ele>119</ele>
        <time>2017-02-05T09:25:23.925Z</time>
      </trkpt>
      <trkpt lat="47.70885" lon="2.15077">
        <ele>119</ele>
        <time>2017-02-05T09:25:24.924Z</time>
      </trkpt>
      <trkpt lat="47.70893" lon="2.15066">
        <ele>118</ele>
        <time>2017-02-05T09:25:25.923Z</time>
      </trkpt>
      <trkpt lat="47.70896" lon="2.1506">
        <ele>118</ele>
        <time>2017-02-05T09:25:26.926Z</time>
      </trkpt>
      <trkpt lat="47.70896" lon="2.1506">
        <ele>118</ele>
        <time>2017-02-05T09:25:27.923Z</time>
      </trkpt>
      <trkpt lat="47.70901" lon="2.15044">
        <ele>117</ele>
        <time>2017-02-05T09:25:28.925Z</time>
      </trkpt>
      <trkpt lat="47.70904" lon="2.15036">
        <ele>117</ele>
        <time>2017-02-05T09:25:29.923Z</time>
      </trkpt>
      <trkpt lat="47.70904" lon="2.15036">
        <ele>117</ele>
        <time>2017-02-05T09:25:30.923Z</time>
      </trkpt>
      <trkpt lat="47.70909" lon="2.15021">
        <ele>117</ele>
        <time>2017-02-05T09:25:31.926Z</time>
      </trkpt>
      <trkpt lat="47.70911" lon="2.15013">
        <ele>117</ele>
        <time>2017-02-05T09:25:32.923Z</time>
      </trkpt>
      <trkpt lat="47.70911" lon="2.15013">
        <ele>117</ele>
        <time>2017-02-05T09:25:33.958Z</time>
      </trkpt>
      <trkpt lat="47.70915" lon="2.14998">
        <ele>117</ele>
        <time>2017-02-05T09:25:34.926Z</time>
      </trkpt>
      <trkpt lat="47.70915" lon="2.14998">
        <ele>117</ele>
        <time>2017-02-05T09:25:35.923Z</time>
      </trkpt>
      <trkpt lat="47.70918" lon="2.14982">
        <ele>117</ele>
        <time>2017-02-05T09:25:36.928Z</time>
      </trkpt>
      <trkpt lat="47.70918" lon="2.14982">
        <ele>117</ele>
        <time>2017-02-05T09:25:37.922Z</time>
      </trkpt>
      <trkpt lat="47.70921" lon="2.14966">
        <ele>117</ele>
        <time>2017-02-05T09:25:38.927Z</time>
      </trkpt>
      <trkpt lat="47.70921" lon="2.14966">
        <ele>117</ele>
        <time>2017-02-05T09:25:39.925Z</time>
      </trkpt>
      <trkpt lat="47.70924" lon="2.1495">
        <ele>117</ele>
        <time>2017-02-05T09:25:40.927Z</time>
      </trkpt>
      <trkpt lat="47.70924" lon="2.14942">
        <ele>117</ele>
        <time>2017-02-05T09:25:41.942Z</time>
      </trkpt>
      <trkpt lat="47.70924" lon="2.14942">
        <ele>117</ele>
        <time>2017-02-05T09:25:42.942Z</time>
      </trkpt>
      <trkpt lat="47.70924" lon="2.14926">
        <ele>116</ele>
        <time>2017-02-05T09:25:43.930Z</time>
      </trkpt>
      <trkpt lat="47.70924" lon="2.14918">
        <ele>116</ele>
        <time>2017-02-05T09:25:44.926Z</time>
      </trkpt>
      <trkpt lat="47.70924" lon="2.14918">
        <ele>116</ele>
        <time>2017-02-05T09:25:45.923Z</time>
      </trkpt>
      <trkpt lat="47.70924" lon="2.14902">
        <ele>117</ele>
        <time>2017-02-05T09:25:46.926Z</time>
      </trkpt>
      <trkpt lat="47.70924" lon="2.14893">
        <ele>117</ele>
        <time>2017-02-05T09:25:47.926Z</time>
      </trkpt>
      <trkpt lat="47.70924" lon="2.14893">
        <ele>117</ele>
        <time>2017-02-05T09:25:48.925Z</time>
      </trkpt>
      <trkpt lat="47.70924" lon="2.14877">
        <ele>117</ele>
        <time>2017-02-05T09:25:49.927Z</time>
      </trkpt>
      <trkpt lat="47.70924" lon="2.14869">
        <ele>117</ele>
        <time>2017-02-05T09:25:50.927Z</time>
      </trkpt>
      <trkpt lat="47.70924" lon="2.14869">
        <ele>117</ele>
        <time>2017-02-05T09:25:51.924Z</time>
      </trkpt>
      <trkpt lat="47.70923" lon="2.14853">
        <ele>117</ele>
        <time>2017-02-05T09:25:52.926Z</time>
      </trkpt>
      <trkpt lat="47.70923" lon="2.14853">
        <ele>117</ele>
        <time>2017-02-05T09:25:53.931Z</time>
      </trkpt>
      <trkpt lat="47.70922" lon="2.14836">
        <ele>117</ele>
        <time>2017-02-05T09:25:54.924Z</time>
      </trkpt>
      <trkpt lat="47.70922" lon="2.14836">
        <ele>117</ele>
        <time>2017-02-05T09:25:55.960Z</time>
      </trkpt>
      <trkpt lat="47.70921" lon="2.14818">
        <ele>117</ele>
        <time>2017-02-05T09:25:56.926Z</time>
      </trkpt>
      <trkpt lat="47.70921" lon="2.14818">
        <ele>117</ele>
        <time>2017-02-05T09:25:57.923Z</time>
      </trkpt>
      <trkpt lat="47.7092" lon="2.148">
        <ele>117</ele>
        <time>2017-02-05T09:25:58.925Z</time>
      </trkpt>
      <trkpt lat="47.7092" lon="2.148">
        <ele>117</ele>
        <time>2017-02-05T09:25:59.960Z</time>
      </trkpt>
      <trkpt lat="47.70921" lon="2.14783">
        <ele>117</ele>
        <time>2017-02-05T09:26:00.928Z</time>
      </trkpt>
      <trkpt lat="47.70921" lon="2.14783">
        <ele>117</ele>
        <time>2017-02-05T09:26:01.923Z</time>
      </trkpt>
      <trkpt lat="47.7092" lon="2.14767">
        <ele>117</ele>
        <time>2017-02-05T09:26:02.926Z</time>
      </trkpt>
      <trkpt lat="47.7092" lon="2.14767">
        <ele>117</ele>
        <time>2017-02-05T09:26:03.961Z</time>
      </trkpt>
      <trkpt lat="47.7092" lon="2.1475">
        <ele>117</ele>
        <time>2017-02-05T09:26:04.927Z</time>
      </trkpt>
      <trkpt lat="47.7092" lon="2.14742">
        <ele>117</ele>
        <time>2017-02-05T09:26:05.927Z</time>
      </trkpt>
      <trkpt lat="47.70919" lon="2.14733">
        <ele>118</ele>
        <time>2017-02-05T09:26:06.928Z</time>
      </trkpt>
      <trkpt lat="47.70919" lon="2.14733">
        <ele>118</ele>
        <time>2017-02-05T09:26:07.936Z</time>
      </trkpt>
      <trkpt lat="47.70918" lon="2.14716">
        <ele>118</ele>
        <time>2017-02-05T09:26:08.928Z</time>
      </trkpt>
      <trkpt lat="47.70918" lon="2.14708">
        <ele>118</ele>
        <time>2017-02-05T09:26:09.936Z</time>
      </trkpt>
      <trkpt lat="47.70917" lon="2.147">
        <ele>117</ele>
        <time>2017-02-05T09:26:10.926Z</time>
      </trkpt>
      <trkpt lat="47.70917" lon="2.147">
        <ele>117</ele>
        <time>2017-02-05T09:26:11.923Z</time>
      </trkpt>
      <trkpt lat="47.70916" lon="2.14683">
        <ele>118</ele>
        <time>2017-02-05T09:26:12.929Z</time>
      </trkpt>
      <trkpt lat="47.70916" lon="2.14683">
        <ele>118</ele>
        <time>2017-02-05T09:26:13.924Z</time>
      </trkpt>
      <trkpt lat="47.70915" lon="2.14667">
        <ele>119</ele>
        <time>2017-02-05T09:26:14.927Z</time>
      </trkpt>
      <trkpt lat="47.70915" lon="2.14667">
        <ele>119</ele>
        <time>2017-02-05T09:26:15.924Z</time>
      </trkpt>
      <trkpt lat="47.70915" lon="2.14652">
        <ele>119</ele>
        <time>2017-02-05T09:26:16.926Z</time>
      </trkpt>
      <trkpt lat="47.70915" lon="2.14652">
        <ele>119</ele>
        <time>2017-02-05T09:26:17.924Z</time>
      </trkpt>
      <trkpt lat="47.70914" lon="2.14636">
        <ele>119</ele>
        <time>2017-02-05T09:26:18.927Z</time>
      </trkpt>
      <trkpt lat="47.70914" lon="2.14628">
        <ele>119</ele>
        <time>2017-02-05T09:26:19.926Z</time>
      </trkpt>
      <trkpt lat="47.70913" lon="2.1462">
        <ele>119</ele>
        <time>2017-02-05T09:26:20.926Z</time>
      </trkpt>
      <trkpt lat="47.70913" lon="2.1462">
        <ele>119</ele>
        <time>2017-02-05T09:26:21.924Z</time>
      </trkpt>
      <trkpt lat="47.70912" lon="2.14606">
        <ele>119</ele>
        <time>2017-02-05T09:26:22.939Z</time>
      </trkpt>
      <trkpt lat="47.70912" lon="2.14606">
        <ele>119</ele>
        <time>2017-02-05T09:26:23.924Z</time>
      </trkpt>
      <trkpt lat="47.7091" lon="2.14591">
        <ele>118</ele>
        <time>2017-02-05T09:26:24.927Z</time>
      </trkpt>
      <trkpt lat="47.7091" lon="2.14591">
        <ele>118</ele>
        <time>2017-02-05T09:26:25.924Z</time>
      </trkpt>
      <trkpt lat="47.70908" lon="2.14575">
        <ele>118</ele>
        <time>2017-02-05T09:26:26.926Z</time>
      </trkpt>
      <trkpt lat="47.70908" lon="2.14575">
        <ele>118</ele>
        <time>2017-02-05T09:26:27.924Z</time>
      </trkpt>
      <trkpt lat="47.70908" lon="2.14558">
        <ele>118</ele>
        <time>2017-02-05T09:26:28.923Z</time>
      </trkpt>
      <trkpt lat="47.70908" lon="2.1455">
        <ele>118</ele>
        <time>2017-02-05T09:26:29.926Z</time>
      </trkpt>
      <trkpt lat="47.70908" lon="2.1455">
        <ele>118</ele>
        <time>2017-02-05T09:26:30.925Z</time>
      </trkpt>
      <trkpt lat="47.70908" lon="2.14533">
        <ele>118</ele>
        <time>2017-02-05T09:26:31.927Z</time>
      </trkpt>
      <trkpt lat="47.70908" lon="2.14533">
        <ele>118</ele>
        <time>2017-02-05T09:26:32.922Z</time>
      </trkpt>
      <trkpt lat="47.70907" lon="2.14515">
        <ele>117</ele>
        <time>2017-02-05T09:26:33.945Z</time>
      </trkpt>
      <trkpt lat="47.70907" lon="2.14515">
        <ele>117</ele>
        <time>2017-02-05T09:26:34.927Z</time>
      </trkpt>
      <trkpt lat="47.70907" lon="2.14499">
        <ele>117</ele>
        <time>2017-02-05T09:26:35.927Z</time>
      </trkpt>
      <trkpt lat="47.70907" lon="2.14499">
        <ele>117</ele>
        <time>2017-02-05T09:26:36.923Z</time>
      </trkpt>
      <trkpt lat="47.70906" lon="2.14483">
        <ele>117</ele>
        <time>2017-02-05T09:26:37.926Z</time>
      </trkpt>
      <trkpt lat="47.70906" lon="2.14475">
        <ele>116</ele>
        <time>2017-02-05T09:26:38.927Z</time>
      </trkpt>
      <trkpt lat="47.70906" lon="2.14475">
        <ele>116</ele>
        <time>2017-02-05T09:26:39.924Z</time>
      </trkpt>
      <trkpt lat="47.70905" lon="2.14459">
        <ele>116</ele>
        <time>2017-02-05T09:26:40.923Z</time>
      </trkpt>
      <trkpt lat="47.70905" lon="2.14459">
        <ele>116</ele>
        <time>2017-02-05T09:26:41.938Z</time>
      </trkpt>
      <trkpt lat="47.70904" lon="2.14443">
        <ele>116</ele>
        <time>2017-02-05T09:26:42.958Z</time>
      </trkpt>
      <trkpt lat="47.70904" lon="2.14435">
        <ele>115</ele>
        <time>2017-02-05T09:26:43.939Z</time>
      </trkpt>
      <trkpt lat="47.70903" lon="2.14426">
        <ele>115</ele>
        <time>2017-02-05T09:26:44.927Z</time>
      </trkpt>
      <trkpt lat="47.70903" lon="2.14426">
        <ele>115</ele>
        <time>2017-02-05T09:26:45.924Z</time>
      </trkpt>
      <trkpt lat="47.70903" lon="2.14409">
        <ele>114</ele>
        <time>2017-02-05T09:26:46.927Z</time>
      </trkpt>
      <trkpt lat="47.70903" lon="2.14409">
        <ele>114</ele>
        <time>2017-02-05T09:26:47.924Z</time>
      </trkpt>
      <trkpt lat="47.70902" lon="2.14394">
        <ele>114</ele>
        <time>2017-02-05T09:26:48.927Z</time>
      </trkpt>
      <trkpt lat="47.70902" lon="2.14386">
        <ele>113</ele>
        <time>2017-02-05T09:26:49.926Z</time>
      </trkpt>
      <trkpt lat="47.70901" lon="2.14379">
        <ele>113</ele>
        <time>2017-02-05T09:26:50.927Z</time>
      </trkpt>
      <trkpt lat="47.70901" lon="2.14379">
        <ele>113</ele>
        <time>2017-02-05T09:26:51.924Z</time>
      </trkpt>
      <trkpt lat="47.70899" lon="2.14365">
        <ele>112</ele>
        <time>2017-02-05T09:26:52.958Z</time>
      </trkpt>
      <trkpt lat="47.70898" lon="2.14359">
        <ele>112</ele>
        <time>2017-02-05T09:26:53.926Z</time>
      </trkpt>
      <trkpt lat="47.70898" lon="2.14359">
        <ele>112</ele>
        <time>2017-02-05T09:26:54.924Z</time>
      </trkpt>
      <trkpt lat="47.70898" lon="2.14343">
        <ele>111</ele>
        <time>2017-02-05T09:26:55.926Z</time>
      </trkpt>
      <trkpt lat="47.70898" lon="2.14335">
        <ele>111</ele>
        <time>2017-02-05T09:26:56.927Z</time>
      </trkpt>
      <trkpt lat="47.70898" lon="2.14335">
        <ele>111</ele>
        <time>2017-02-05T09:26:57.923Z</time>
      </trkpt>
      <trkpt lat="47.70897" lon="2.14319">
        <ele>111</ele>
        <time>2017-02-05T09:26:58.927Z</time>
      </trkpt>
      <trkpt lat="47.70897" lon="2.14319">
        <ele>111</ele>
        <time>2017-02-05T09:26:59.940Z</time>
      </trkpt>
      <trkpt lat="47.70894" lon="2.14301">
        <ele>111</ele>
        <time>2017-02-05T09:27:00.929Z</time>
      </trkpt>
      <trkpt lat="47.70894" lon="2.14301">
        <ele>111</ele>
        <time>2017-02-05T09:27:01.924Z</time>
      </trkpt>
      <trkpt lat="47.70894" lon="2.14301">
        <ele>111</ele>
        <time>2017-02-05T09:27:02.957Z</time>
      </trkpt>
      <trkpt lat="47.70891" lon="2.14283">
        <ele>111</ele>
        <time>2017-02-05T09:27:03.948Z</time>
      </trkpt>
      <trkpt lat="47.70889" lon="2.14268">
        <ele>111</ele>
        <time>2017-02-05T09:27:04.937Z</time>
      </trkpt>
      <trkpt lat="47.70889" lon="2.14268">
        <ele>111</ele>
        <time>2017-02-05T09:27:05.924Z</time>
      </trkpt>
      <trkpt lat="47.70887" lon="2.14253">
        <ele>111</ele>
        <time>2017-02-05T09:27:06.928Z</time>
      </trkpt>
      <trkpt lat="47.70887" lon="2.14253">
        <ele>111</ele>
        <time>2017-02-05T09:27:07.935Z</time>
      </trkpt>
      <trkpt lat="47.70885" lon="2.14238">
        <ele>111</ele>
        <time>2017-02-05T09:27:08.924Z</time>
      </trkpt>
      <trkpt lat="47.70885" lon="2.14238">
        <ele>111</ele>
        <time>2017-02-05T09:27:09.922Z</time>
      </trkpt>
      <trkpt lat="47.70883" lon="2.14223">
        <ele>112</ele>
        <time>2017-02-05T09:27:10.925Z</time>
      </trkpt>
      <trkpt lat="47.70882" lon="2.14217">
        <ele>112</ele>
        <time>2017-02-05T09:27:11.926Z</time>
      </trkpt>
      <trkpt lat="47.70881" lon="2.14211">
        <ele>111</ele>
        <time>2017-02-05T09:27:12.930Z</time>
      </trkpt>
      <trkpt lat="47.70881" lon="2.14211">
        <ele>111</ele>
        <time>2017-02-05T09:27:13.962Z</time>
      </trkpt>
      <trkpt lat="47.7088" lon="2.14197">
        <ele>111</ele>
        <time>2017-02-05T09:27:14.927Z</time>
      </trkpt>
      <trkpt lat="47.7088" lon="2.14197">
        <ele>111</ele>
        <time>2017-02-05T09:27:15.923Z</time>
      </trkpt>
      <trkpt lat="47.70879" lon="2.14185">
        <ele>111</ele>
        <time>2017-02-05T09:27:16.927Z</time>
      </trkpt>
      <trkpt lat="47.70879" lon="2.14185">
        <ele>111</ele>
        <time>2017-02-05T09:27:17.924Z</time>
      </trkpt>
      <trkpt lat="47.70878" lon="2.14171">
        <ele>112</ele>
        <time>2017-02-05T09:27:18.927Z</time>
      </trkpt>
      <trkpt lat="47.70878" lon="2.14171">
        <ele>112</ele>
        <time>2017-02-05T09:27:19.924Z</time>
      </trkpt>
      <trkpt lat="47.70879" lon="2.14158">
        <ele>112</ele>
        <time>2017-02-05T09:27:20.928Z</time>
      </trkpt>
      <trkpt lat="47.70879" lon="2.14158">
        <ele>112</ele>
        <time>2017-02-05T09:27:21.927Z</time>
      </trkpt>
      <trkpt lat="47.7088" lon="2.14144">
        <ele>113</ele>
        <time>2017-02-05T09:27:22.928Z</time>
      </trkpt>
      <trkpt lat="47.7088" lon="2.14144">
        <ele>113</ele>
        <time>2017-02-05T09:27:23.924Z</time>
      </trkpt>
      <trkpt lat="47.7088" lon="2.1413">
        <ele>113</ele>
        <time>2017-02-05T09:27:24.927Z</time>
      </trkpt>
      <trkpt lat="47.7088" lon="2.1413">
        <ele>113</ele>
        <time>2017-02-05T09:27:25.924Z</time>
      </trkpt>
      <trkpt lat="47.70879" lon="2.14116">
        <ele>113</ele>
        <time>2017-02-05T09:27:26.927Z</time>
      </trkpt>
      <trkpt lat="47.7088" lon="2.14109">
        <ele>113</ele>
        <time>2017-02-05T09:27:27.928Z</time>
      </trkpt>
      <trkpt lat="47.7088" lon="2.14109">
        <ele>113</ele>
        <time>2017-02-05T09:27:28.925Z</time>
      </trkpt>
      <trkpt lat="47.70879" lon="2.14098">
        <ele>114</ele>
        <time>2017-02-05T09:27:29.927Z</time>
      </trkpt>
      <trkpt lat="47.70879" lon="2.14098">
        <ele>114</ele>
        <time>2017-02-05T09:27:30.925Z</time>
      </trkpt>
      <trkpt lat="47.70879" lon="2.14087">
        <ele>114</ele>
        <time>2017-02-05T09:27:31.927Z</time>
      </trkpt>
      <trkpt lat="47.70879" lon="2.14082">
        <ele>115</ele>
        <time>2017-02-05T09:27:32.928Z</time>
      </trkpt>
      <trkpt lat="47.70879" lon="2.14082">
        <ele>115</ele>
        <time>2017-02-05T09:27:33.924Z</time>
      </trkpt>
      <trkpt lat="47.70879" lon="2.14073">
        <ele>115</ele>
        <time>2017-02-05T09:27:34.932Z</time>
      </trkpt>
      <trkpt lat="47.70879" lon="2.14073">
        <ele>115</ele>
        <time>2017-02-05T09:27:35.922Z</time>
      </trkpt>
      <trkpt lat="47.70879" lon="2.14064">
        <ele>116</ele>
        <time>2017-02-05T09:27:36.928Z</time>
      </trkpt>
      <trkpt lat="47.70879" lon="2.14064">
        <ele>116</ele>
        <time>2017-02-05T09:27:37.924Z</time>
      </trkpt>
      <trkpt lat="47.70879" lon="2.14055">
        <ele>116</ele>
        <time>2017-02-05T09:27:38.926Z</time>
      </trkpt>
      <trkpt lat="47.70879" lon="2.1405">
        <ele>116</ele>
        <time>2017-02-05T09:27:39.926Z</time>
      </trkpt>
      <trkpt lat="47.70879" lon="2.1405">
        <ele>116</ele>
        <time>2017-02-05T09:27:40.924Z</time>
      </trkpt>
      <trkpt lat="47.7088" lon="2.14041">
        <ele>116</ele>
        <time>2017-02-05T09:27:41.948Z</time>
      </trkpt>
      <trkpt lat="47.7088" lon="2.14037">
        <ele>116</ele>
        <time>2017-02-05T09:27:42.934Z</time>
      </trkpt>
      <trkpt lat="47.7088" lon="2.14037">
        <ele>116</ele>
        <time>2017-02-05T09:27:43.924Z</time>
      </trkpt>
      <trkpt lat="47.70879" lon="2.14031">
        <ele>117</ele>
        <time>2017-02-05T09:27:44.927Z</time>
      </trkpt>
      <trkpt lat="47.70879" lon="2.14031">
        <ele>117</ele>
        <time>2017-02-05T09:27:45.961Z</time>
      </trkpt>
      <trkpt lat="47.70879" lon="2.14028">
        <ele>117</ele>
        <time>2017-02-05T09:27:46.926Z</time>
      </trkpt>
      <trkpt lat="47.70879" lon="2.14028">
        <ele>117</ele>
        <time>2017-02-05T09:27:47.924Z</time>
      </trkpt>
      <trkpt lat="47.70879" lon="2.14029">
        <ele>117</ele>
        <time>2017-02-05T09:27:48.928Z</time>
      </trkpt>
      <trkpt lat="47.70879" lon="2.14029">
        <ele>117</ele>
        <time>2017-02-05T09:27:49.954Z</time>
      </trkpt>
      <trkpt lat="47.70879" lon="2.14029">
        <ele>117</ele>
        <time>2017-02-05T09:27:50.943Z</time>
      </trkpt>
      <trkpt lat="47.7088" lon="2.14023">
        <ele>119</ele>
        <time>2017-02-05T09:27:51.939Z</time>
      </trkpt>
      <trkpt lat="47.70882" lon="2.14022">
        <ele>119</ele>
        <time>2017-02-05T09:27:52.936Z</time>
      </trkpt>
      <trkpt lat="47.70882" lon="2.14022">
        <ele>119</ele>
        <time>2017-02-05T09:27:53.953Z</time>
      </trkpt>
      <trkpt lat="47.70886" lon="2.1402">
        <ele>119</ele>
        <time>2017-02-05T09:27:54.946Z</time>
      </trkpt>
      <trkpt lat="47.70886" lon="2.1402">
        <ele>119</ele>
        <time>2017-02-05T09:27:55.936Z</time>
      </trkpt>
      <trkpt lat="47.70891" lon="2.14018">
        <ele>119</ele>
        <time>2017-02-05T09:27:56.939Z</time>
      </trkpt>
      <trkpt lat="47.70891" lon="2.14018">
        <ele>119</ele>
        <time>2017-02-05T09:27:57.936Z</time>
      </trkpt>
      <trkpt lat="47.70897" lon="2.14014">
        <ele>120</ele>
        <time>2017-02-05T09:27:58.937Z</time>
      </trkpt>
      <trkpt lat="47.70897" lon="2.14014">
        <ele>120</ele>
        <time>2017-02-05T09:27:59.935Z</time>
      </trkpt>
      <trkpt lat="47.70902" lon="2.14011">
        <ele>120</ele>
        <time>2017-02-05T09:28:00.934Z</time>
      </trkpt>
      <trkpt lat="47.70905" lon="2.14009">
        <ele>120</ele>
        <time>2017-02-05T09:28:01.938Z</time>
      </trkpt>
      <trkpt lat="47.70908" lon="2.14008">
        <ele>120</ele>
        <time>2017-02-05T09:28:02.939Z</time>
      </trkpt>
      <trkpt lat="47.70908" lon="2.14008">
        <ele>120</ele>
        <time>2017-02-05T09:28:03.934Z</time>
      </trkpt>
      <trkpt lat="47.70916" lon="2.14004">
        <ele>121</ele>
        <time>2017-02-05T09:28:04.937Z</time>
      </trkpt>
      <trkpt lat="47.70919" lon="2.14002">
        <ele>121</ele>
        <time>2017-02-05T09:28:05.938Z</time>
      </trkpt>
      <trkpt lat="47.70919" lon="2.14002">
        <ele>121</ele>
        <time>2017-02-05T09:28:06.934Z</time>
      </trkpt>
      <trkpt lat="47.70927" lon="2.13998">
        <ele>122</ele>
        <time>2017-02-05T09:28:07.949Z</time>
      </trkpt>
      <trkpt lat="47.70931" lon="2.13996">
        <ele>122</ele>
        <time>2017-02-05T09:28:08.948Z</time>
      </trkpt>
      <trkpt lat="47.70935" lon="2.13994">
        <ele>122</ele>
        <time>2017-02-05T09:28:09.945Z</time>
      </trkpt>
      <trkpt lat="47.70935" lon="2.13994">
        <ele>122</ele>
        <time>2017-02-05T09:28:10.951Z</time>
      </trkpt>
      <trkpt lat="47.70942" lon="2.13991">
        <ele>122</ele>
        <time>2017-02-05T09:28:11.956Z</time>
      </trkpt>
      <trkpt lat="47.70942" lon="2.13991">
        <ele>122</ele>
        <time>2017-02-05T09:28:12.926Z</time>
      </trkpt>
      <trkpt lat="47.7095" lon="2.13987">
        <ele>123</ele>
        <time>2017-02-05T09:28:13.933Z</time>
      </trkpt>
      <trkpt lat="47.70954" lon="2.13985">
        <ele>123</ele>
        <time>2017-02-05T09:28:14.940Z</time>
      </trkpt>
      <trkpt lat="47.70954" lon="2.13985">
        <ele>123</ele>
        <time>2017-02-05T09:28:15.933Z</time>
      </trkpt>
      <trkpt lat="47.70962" lon="2.13981">
        <ele>123</ele>
        <time>2017-02-05T09:28:16.938Z</time>
      </trkpt>
      <trkpt lat="47.70962" lon="2.13981">
        <ele>123</ele>
        <time>2017-02-05T09:28:17.935Z</time>
      </trkpt>
      <trkpt lat="47.7097" lon="2.13976">
        <ele>123</ele>
        <time>2017-02-05T09:28:18.938Z</time>
      </trkpt>
      <trkpt lat="47.7097" lon="2.13976">
        <ele>123</ele>
        <time>2017-02-05T09:28:19.935Z</time>
      </trkpt>
      <trkpt lat="47.70979" lon="2.13972">
        <ele>123</ele>
        <time>2017-02-05T09:28:20.939Z</time>
      </trkpt>
      <trkpt lat="47.70979" lon="2.13972">
        <ele>123</ele>
        <time>2017-02-05T09:28:21.935Z</time>
      </trkpt>
      <trkpt lat="47.70988" lon="2.13967">
        <ele>124</ele>
        <time>2017-02-05T09:28:22.935Z</time>
      </trkpt>
      <trkpt lat="47.70988" lon="2.13967">
        <ele>124</ele>
        <time>2017-02-05T09:28:23.935Z</time>
      </trkpt>
      <trkpt lat="47.70999" lon="2.13961">
        <ele>124</ele>
        <time>2017-02-05T09:28:24.937Z</time>
      </trkpt>
      <trkpt lat="47.71004" lon="2.13958">
        <ele>124</ele>
        <time>2017-02-05T09:28:25.937Z</time>
      </trkpt>
      <trkpt lat="47.71009" lon="2.13955">
        <ele>124</ele>
        <time>2017-02-05T09:28:26.948Z</time>
      </trkpt>
      <trkpt lat="47.71009" lon="2.13955">
        <ele>124</ele>
        <time>2017-02-05T09:28:27.938Z</time>
      </trkpt>
      <trkpt lat="47.7102" lon="2.13949">
        <ele>123</ele>
        <time>2017-02-05T09:28:28.935Z</time>
      </trkpt>
      <trkpt lat="47.7102" lon="2.13949">
        <ele>123</ele>
        <time>2017-02-05T09:28:29.935Z</time>
      </trkpt>
      <trkpt lat="47.71031" lon="2.13943">
        <ele>123</ele>
        <time>2017-02-05T09:28:30.936Z</time>
      </trkpt>
      <trkpt lat="47.71037" lon="2.13941">
        <ele>123</ele>
        <time>2017-02-05T09:28:31.937Z</time>
      </trkpt>
      <trkpt lat="47.71042" lon="2.13938">
        <ele>123</ele>
        <time>2017-02-05T09:28:32.938Z</time>
      </trkpt>
      <trkpt lat="47.71042" lon="2.13938">
        <ele>123</ele>
        <time>2017-02-05T09:28:33.933Z</time>
      </trkpt>
      <trkpt lat="47.71053" lon="2.13932">
        <ele>123</ele>
        <time>2017-02-05T09:28:34.938Z</time>
      </trkpt>
      <trkpt lat="47.71053" lon="2.13932">
        <ele>123</ele>
        <time>2017-02-05T09:28:35.934Z</time>
      </trkpt>
      <trkpt lat="47.71063" lon="2.13927">
        <ele>123</ele>
        <time>2017-02-05T09:28:36.935Z</time>
      </trkpt>
      <trkpt lat="47.71069" lon="2.13924">
        <ele>122</ele>
        <time>2017-02-05T09:28:37.952Z</time>
      </trkpt>
      <trkpt lat="47.71069" lon="2.13924">
        <ele>122</ele>
        <time>2017-02-05T09:28:38.940Z</time>
      </trkpt>
      <trkpt lat="47.7108" lon="2.13918">
        <ele>122</ele>
        <time>2017-02-05T09:28:39.937Z</time>
      </trkpt>
      <trkpt lat="47.71086" lon="2.13915">
        <ele>123</ele>
        <time>2017-02-05T09:28:40.947Z</time>
      </trkpt>
      <trkpt lat="47.71086" lon="2.13915">
        <ele>123</ele>
        <time>2017-02-05T09:28:41.937Z</time>
      </trkpt>
      <trkpt lat="47.71099" lon="2.13907">
        <ele>122</ele>
        <time>2017-02-05T09:28:42.936Z</time>
      </trkpt>
      <trkpt lat="47.71099" lon="2.13907">
        <ele>122</ele>
        <time>2017-02-05T09:28:43.933Z</time>
      </trkpt>
      <trkpt lat="47.71112" lon="2.13901">
        <ele>122</ele>
        <time>2017-02-05T09:28:44.940Z</time>
      </trkpt>
      <trkpt lat="47.71112" lon="2.13901">
        <ele>122</ele>
        <time>2017-02-05T09:28:45.935Z</time>
      </trkpt>
      <trkpt lat="47.71125" lon="2.13895">
        <ele>122</ele>
        <time>2017-02-05T09:28:46.939Z</time>
      </trkpt>
      <trkpt lat="47.71125" lon="2.13895">
        <ele>122</ele>
        <time>2017-02-05T09:28:47.933Z</time>
      </trkpt>
      <trkpt lat="47.71138" lon="2.13889">
        <ele>122</ele>
        <time>2017-02-05T09:28:48.951Z</time>
      </trkpt>
      <trkpt lat="47.71138" lon="2.13889">
        <ele>122</ele>
        <time>2017-02-05T09:28:49.941Z</time>
      </trkpt>
      <trkpt lat="47.71151" lon="2.13883">
        <ele>122</ele>
        <time>2017-02-05T09:28:50.938Z</time>
      </trkpt>
      <trkpt lat="47.71151" lon="2.13883">
        <ele>122</ele>
        <time>2017-02-05T09:28:51.932Z</time>
      </trkpt>
      <trkpt lat="47.71164" lon="2.13876">
        <ele>122</ele>
        <time>2017-02-05T09:28:52.952Z</time>
      </trkpt>
      <trkpt lat="47.71164" lon="2.13876">
        <ele>122</ele>
        <time>2017-02-05T09:28:53.941Z</time>
      </trkpt>
      <trkpt lat="47.71177" lon="2.1387">
        <ele>122</ele>
        <time>2017-02-05T09:28:54.937Z</time>
      </trkpt>
      <trkpt lat="47.71184" lon="2.13866">
        <ele>121</ele>
        <time>2017-02-05T09:28:55.936Z</time>
      </trkpt>
      <trkpt lat="47.7119" lon="2.13863">
        <ele>121</ele>
        <time>2017-02-05T09:28:56.939Z</time>
      </trkpt>
      <trkpt lat="47.7119" lon="2.13863">
        <ele>121</ele>
        <time>2017-02-05T09:28:57.934Z</time>
      </trkpt>
      <trkpt lat="47.71204" lon="2.13856">
        <ele>121</ele>
        <time>2017-02-05T09:28:58.935Z</time>
      </trkpt>
      <trkpt lat="47.71204" lon="2.13856">
        <ele>121</ele>
        <time>2017-02-05T09:28:59.932Z</time>
      </trkpt>
      <trkpt lat="47.71217" lon="2.1385">
        <ele>121</ele>
        <time>2017-02-05T09:29:00.937Z</time>
      </trkpt>
      <trkpt lat="47.71224" lon="2.13847">
        <ele>121</ele>
        <time>2017-02-05T09:29:01.938Z</time>
      </trkpt>
      <trkpt lat="47.71231" lon="2.13844">
        <ele>121</ele>
        <time>2017-02-05T09:29:02.939Z</time>
      </trkpt>
      <trkpt lat="47.71231" lon="2.13844">
        <ele>121</ele>
        <time>2017-02-05T09:29:03.936Z</time>
      </trkpt>
      <trkpt lat="47.71245" lon="2.13837">
        <ele>121</ele>
        <time>2017-02-05T09:29:04.937Z</time>
      </trkpt>
      <trkpt lat="47.71245" lon="2.13837">
        <ele>121</ele>
        <time>2017-02-05T09:29:05.934Z</time>
      </trkpt>
      <trkpt lat="47.71258" lon="2.1383">
        <ele>120</ele>
        <time>2017-02-05T09:29:06.934Z</time>
      </trkpt>
      <trkpt lat="47.71258" lon="2.1383">
        <ele>120</ele>
        <time>2017-02-05T09:29:07.960Z</time>
      </trkpt>
      <trkpt lat="47.71272" lon="2.13823">
        <ele>120</ele>
        <time>2017-02-05T09:29:08.940Z</time>
      </trkpt>
      <trkpt lat="47.71272" lon="2.13823">
        <ele>120</ele>
        <time>2017-02-05T09:29:09.934Z</time>
      </trkpt>
      <trkpt lat="47.71286" lon="2.13816">
        <ele>120</ele>
        <time>2017-02-05T09:29:10.930Z</time>
      </trkpt>
      <trkpt lat="47.71293" lon="2.13813">
        <ele>120</ele>
        <time>2017-02-05T09:29:11.939Z</time>
      </trkpt>
      <trkpt lat="47.71293" lon="2.13813">
        <ele>120</ele>
        <time>2017-02-05T09:29:12.936Z</time>
      </trkpt>
      <trkpt lat="47.71307" lon="2.13806">
        <ele>119</ele>
        <time>2017-02-05T09:29:13.938Z</time>
      </trkpt>
      <trkpt lat="47.71307" lon="2.13806">
        <ele>119</ele>
        <time>2017-02-05T09:29:14.937Z</time>
      </trkpt>
      <trkpt lat="47.71321" lon="2.13798">
        <ele>119</ele>
        <time>2017-02-05T09:29:15.953Z</time>
      </trkpt>
      <trkpt lat="47.71327" lon="2.13794">
        <ele>119</ele>
        <time>2017-02-05T09:29:16.942Z</time>
      </trkpt>
      <trkpt lat="47.71327" lon="2.13794">
        <ele>119</ele>
        <time>2017-02-05T09:29:17.934Z</time>
      </trkpt>
      <trkpt lat="47.71341" lon="2.13787">
        <ele>119</ele>
        <time>2017-02-05T09:29:18.937Z</time>
      </trkpt>
      <trkpt lat="47.71341" lon="2.13787">
        <ele>119</ele>
        <time>2017-02-05T09:29:19.932Z</time>
      </trkpt>
      <trkpt lat="47.71354" lon="2.13781">
        <ele>119</ele>
        <time>2017-02-05T09:29:20.935Z</time>
      </trkpt>
      <trkpt lat="47.71361" lon="2.13777">
        <ele>118</ele>
        <time>2017-02-05T09:29:21.940Z</time>
      </trkpt>
      <trkpt lat="47.71361" lon="2.13777">
        <ele>118</ele>
        <time>2017-02-05T09:29:22.935Z</time>
      </trkpt>
      <trkpt lat="47.71375" lon="2.1377">
        <ele>118</ele>
        <time>2017-02-05T09:29:23.936Z</time>
      </trkpt>
      <trkpt lat="47.71382" lon="2.13767">
        <ele>118</ele>
        <time>2017-02-05T09:29:24.938Z</time>
      </trkpt>
      <trkpt lat="47.71382" lon="2.13767">
        <ele>118</ele>
        <time>2017-02-05T09:29:25.935Z</time>
      </trkpt>
      <trkpt lat="47.71395" lon="2.1376">
        <ele>117</ele>
        <time>2017-02-05T09:29:26.939Z</time>
      </trkpt>
      <trkpt lat="47.71395" lon="2.1376">
        <ele>117</ele>
        <time>2017-02-05T09:29:27.932Z</time>
      </trkpt>
      <trkpt lat="47.71409" lon="2.13753">
        <ele>117</ele>
        <time>2017-02-05T09:29:28.938Z</time>
      </trkpt>
      <trkpt lat="47.71409" lon="2.13753">
        <ele>117</ele>
        <time>2017-02-05T09:29:29.934Z</time>
      </trkpt>
      <trkpt lat="47.71423" lon="2.13746">
        <ele>117</ele>
        <time>2017-02-05T09:29:30.943Z</time>
      </trkpt>
      <trkpt lat="47.7143" lon="2.13743">
        <ele>116</ele>
        <time>2017-02-05T09:29:31.939Z</time>
      </trkpt>
      <trkpt lat="47.71437" lon="2.13739">
        <ele>116</ele>
        <time>2017-02-05T09:29:32.936Z</time>
      </trkpt>
      <trkpt lat="47.71437" lon="2.13739">
        <ele>116</ele>
        <time>2017-02-05T09:29:33.940Z</time>
      </trkpt>
      <trkpt lat="47.71451" lon="2.13732">
        <ele>116</ele>
        <time>2017-02-05T09:29:34.937Z</time>
      </trkpt>
      <trkpt lat="47.71451" lon="2.13732">
        <ele>116</ele>
        <time>2017-02-05T09:29:35.935Z</time>
      </trkpt>
      <trkpt lat="47.71466" lon="2.13725">
        <ele>115</ele>
        <time>2017-02-05T09:29:36.937Z</time>
      </trkpt>
      <trkpt lat="47.71466" lon="2.13725">
        <ele>115</ele>
        <time>2017-02-05T09:29:37.922Z</time>
      </trkpt>
      <trkpt lat="47.7148" lon="2.13718">
        <ele>115</ele>
        <time>2017-02-05T09:29:38.940Z</time>
      </trkpt>
      <trkpt lat="47.7148" lon="2.13718">
        <ele>115</ele>
        <time>2017-02-05T09:29:39.936Z</time>
      </trkpt>
      <trkpt lat="47.71494" lon="2.13711">
        <ele>114</ele>
        <time>2017-02-05T09:29:40.939Z</time>
      </trkpt>
      <trkpt lat="47.71494" lon="2.13711">
        <ele>114</ele>
        <time>2017-02-05T09:29:41.937Z</time>
      </trkpt>
      <trkpt lat="47.71507" lon="2.13704">
        <ele>114</ele>
        <time>2017-02-05T09:29:42.947Z</time>
      </trkpt>
      <trkpt lat="47.71507" lon="2.13704">
        <ele>114</ele>
        <time>2017-02-05T09:29:43.936Z</time>
      </trkpt>
      <trkpt lat="47.71521" lon="2.13697">
        <ele>114</ele>
        <time>2017-02-05T09:29:44.940Z</time>
      </trkpt>
      <trkpt lat="47.71528" lon="2.13693">
        <ele>114</ele>
        <time>2017-02-05T09:29:45.938Z</time>
      </trkpt>
      <trkpt lat="47.71535" lon="2.13689">
        <ele>114</ele>
        <time>2017-02-05T09:29:46.937Z</time>
      </trkpt>
      <trkpt lat="47.71535" lon="2.13689">
        <ele>114</ele>
        <time>2017-02-05T09:29:47.936Z</time>
      </trkpt>
      <trkpt lat="47.71551" lon="2.13682">
        <ele>114</ele>
        <time>2017-02-05T09:29:48.950Z</time>
      </trkpt>
      <trkpt lat="47.71551" lon="2.13682">
        <ele>114</ele>
        <time>2017-02-05T09:29:49.938Z</time>
      </trkpt>
      <trkpt lat="47.71565" lon="2.13675">
        <ele>114</ele>
        <time>2017-02-05T09:29:50.939Z</time>
      </trkpt>
      <trkpt lat="47.71572" lon="2.13671">
        <ele>114</ele>
        <time>2017-02-05T09:29:51.940Z</time>
      </trkpt>
      <trkpt lat="47.71572" lon="2.13671">
        <ele>114</ele>
        <time>2017-02-05T09:29:52.936Z</time>
      </trkpt>
      <trkpt lat="47.71587" lon="2.13663">
        <ele>115</ele>
        <time>2017-02-05T09:29:53.938Z</time>
      </trkpt>
      <trkpt lat="47.71587" lon="2.13663">
        <ele>115</ele>
        <time>2017-02-05T09:29:54.934Z</time>
      </trkpt>
      <trkpt lat="47.71601" lon="2.13657">
        <ele>115</ele>
        <time>2017-02-05T09:29:55.937Z</time>
      </trkpt>
      <trkpt lat="47.71608" lon="2.13653">
        <ele>115</ele>
        <time>2017-02-05T09:29:56.939Z</time>
      </trkpt>
      <trkpt lat="47.71608" lon="2.13653">
        <ele>115</ele>
        <time>2017-02-05T09:29:57.934Z</time>
      </trkpt>
      <trkpt lat="47.71623" lon="2.13645">
        <ele>115</ele>
        <time>2017-02-05T09:29:58.938Z</time>
      </trkpt>
      <trkpt lat="47.71623" lon="2.13645">
        <ele>115</ele>
        <time>2017-02-05T09:29:59.933Z</time>
      </trkpt>
      <trkpt lat="47.71638" lon="2.13638">
        <ele>115</ele>
        <time>2017-02-05T09:30:00.943Z</time>
      </trkpt>
      <trkpt lat="47.71638" lon="2.13638">
        <ele>115</ele>
        <time>2017-02-05T09:30:01.935Z</time>
      </trkpt>
      <trkpt lat="47.71653" lon="2.1363">
        <ele>116</ele>
        <time>2017-02-05T09:30:02.939Z</time>
      </trkpt>
      <trkpt lat="47.71653" lon="2.1363">
        <ele>116</ele>
        <time>2017-02-05T09:30:03.932Z</time>
      </trkpt>
      <trkpt lat="47.71667" lon="2.13623">
        <ele>116</ele>
        <time>2017-02-05T09:30:04.938Z</time>
      </trkpt>
      <trkpt lat="47.71667" lon="2.13623">
        <ele>116</ele>
        <time>2017-02-05T09:30:05.935Z</time>
      </trkpt>
      <trkpt lat="47.71681" lon="2.13615">
        <ele>116</ele>
        <time>2017-02-05T09:30:06.938Z</time>
      </trkpt>
      <trkpt lat="47.71681" lon="2.13615">
        <ele>116</ele>
        <time>2017-02-05T09:30:07.959Z</time>
      </trkpt>
      <trkpt lat="47.71696" lon="2.13607">
        <ele>116</ele>
        <time>2017-02-05T09:30:08.944Z</time>
      </trkpt>
      <trkpt lat="47.71696" lon="2.13607">
        <ele>116</ele>
        <time>2017-02-05T09:30:09.950Z</time>
      </trkpt>
      <trkpt lat="47.7171" lon="2.136">
        <ele>116</ele>
        <time>2017-02-05T09:30:10.961Z</time>
      </trkpt>
      <trkpt lat="47.71717" lon="2.13596">
        <ele>117</ele>
        <time>2017-02-05T09:30:11.924Z</time>
      </trkpt>
      <trkpt lat="47.71717" lon="2.13596">
        <ele>117</ele>
        <time>2017-02-05T09:30:12.951Z</time>
      </trkpt>
      <trkpt lat="47.71732" lon="2.13589">
        <ele>117</ele>
        <time>2017-02-05T09:30:13.952Z</time>
      </trkpt>
      <trkpt lat="47.71739" lon="2.13585">
        <ele>117</ele>
        <time>2017-02-05T09:30:14.941Z</time>
      </trkpt>
      <trkpt lat="47.71739" lon="2.13585">
        <ele>117</ele>
        <time>2017-02-05T09:30:15.935Z</time>
      </trkpt>
      <trkpt lat="47.71754" lon="2.13578">
        <ele>117</ele>
        <time>2017-02-05T09:30:16.935Z</time>
      </trkpt>
      <trkpt lat="47.71754" lon="2.13578">
        <ele>117</ele>
        <time>2017-02-05T09:30:17.935Z</time>
      </trkpt>
      <trkpt lat="47.71768" lon="2.13571">
        <ele>118</ele>
        <time>2017-02-05T09:30:18.937Z</time>
      </trkpt>
      <trkpt lat="47.71776" lon="2.13568">
        <ele>118</ele>
        <time>2017-02-05T09:30:19.938Z</time>
      </trkpt>
      <trkpt lat="47.71783" lon="2.13565">
        <ele>118</ele>
        <time>2017-02-05T09:30:20.939Z</time>
      </trkpt>
      <trkpt lat="47.71783" lon="2.13565">
        <ele>118</ele>
        <time>2017-02-05T09:30:21.937Z</time>
      </trkpt>
      <trkpt lat="47.71796" lon="2.13558">
        <ele>118</ele>
        <time>2017-02-05T09:30:22.935Z</time>
      </trkpt>
      <trkpt lat="47.71796" lon="2.13558">
        <ele>118</ele>
        <time>2017-02-05T09:30:23.936Z</time>
      </trkpt>
      <trkpt lat="47.71811" lon="2.13551">
        <ele>118</ele>
        <time>2017-02-05T09:30:24.938Z</time>
      </trkpt>
      <trkpt lat="47.71811" lon="2.13551">
        <ele>118</ele>
        <time>2017-02-05T09:30:25.935Z</time>
      </trkpt>
      <trkpt lat="47.71825" lon="2.13544">
        <ele>118</ele>
        <time>2017-02-05T09:30:26.939Z</time>
      </trkpt>
      <trkpt lat="47.71825" lon="2.13544">
        <ele>118</ele>
        <time>2017-02-05T09:30:27.936Z</time>
      </trkpt>
      <trkpt lat="47.7184" lon="2.13536">
        <ele>119</ele>
        <time>2017-02-05T09:30:28.935Z</time>
      </trkpt>
      <trkpt lat="47.7184" lon="2.13536">
        <ele>119</ele>
        <time>2017-02-05T09:30:29.935Z</time>
      </trkpt>
      <trkpt lat="47.71854" lon="2.13528">
        <ele>119</ele>
        <time>2017-02-05T09:30:30.936Z</time>
      </trkpt>
      <trkpt lat="47.71854" lon="2.13528">
        <ele>119</ele>
        <time>2017-02-05T09:30:31.932Z</time>
      </trkpt>
      <trkpt lat="47.71869" lon="2.13521">
        <ele>119</ele>
        <time>2017-02-05T09:30:32.953Z</time>
      </trkpt>
      <trkpt lat="47.71869" lon="2.13521">
        <ele>119</ele>
        <time>2017-02-05T09:30:33.940Z</time>
      </trkpt>
      <trkpt lat="47.71884" lon="2.13514">
        <ele>119</ele>
        <time>2017-02-05T09:30:34.954Z</time>
      </trkpt>
      <trkpt lat="47.71884" lon="2.13514">
        <ele>119</ele>
        <time>2017-02-05T09:30:35.953Z</time>
      </trkpt>
      <trkpt lat="47.71898" lon="2.13507">
        <ele>118</ele>
        <time>2017-02-05T09:30:36.944Z</time>
      </trkpt>
      <trkpt lat="47.71905" lon="2.13503">
        <ele>118</ele>
        <time>2017-02-05T09:30:37.958Z</time>
      </trkpt>
      <trkpt lat="47.71912" lon="2.13499">
        <ele>118</ele>
        <time>2017-02-05T09:30:38.949Z</time>
      </trkpt>
      <trkpt lat="47.71912" lon="2.13499">
        <ele>118</ele>
        <time>2017-02-05T09:30:39.942Z</time>
      </trkpt>
      <trkpt lat="47.71927" lon="2.13492">
        <ele>118</ele>
        <time>2017-02-05T09:30:40.938Z</time>
      </trkpt>
      <trkpt lat="47.71927" lon="2.13492">
        <ele>118</ele>
        <time>2017-02-05T09:30:41.957Z</time>
      </trkpt>
      <trkpt lat="47.71941" lon="2.13485">
        <ele>118</ele>
        <time>2017-02-05T09:30:42.938Z</time>
      </trkpt>
      <trkpt lat="47.71948" lon="2.13482">
        <ele>118</ele>
        <time>2017-02-05T09:30:43.940Z</time>
      </trkpt>
      <trkpt lat="47.71955" lon="2.13478">
        <ele>119</ele>
        <time>2017-02-05T09:30:44.940Z</time>
      </trkpt>
      <trkpt lat="47.71955" lon="2.13478">
        <ele>119</ele>
        <time>2017-02-05T09:30:45.932Z</time>
      </trkpt>
      <trkpt lat="47.71969" lon="2.13471">
        <ele>119</ele>
        <time>2017-02-05T09:30:46.939Z</time>
      </trkpt>
      <trkpt lat="47.71969" lon="2.13471">
        <ele>119</ele>
        <time>2017-02-05T09:30:47.936Z</time>
      </trkpt>
      <trkpt lat="47.71983" lon="2.13464">
        <ele>119</ele>
        <time>2017-02-05T09:30:48.948Z</time>
      </trkpt>
      <trkpt lat="47.71983" lon="2.13464">
        <ele>119</ele>
        <time>2017-02-05T09:30:49.937Z</time>
      </trkpt>
      <trkpt lat="47.71997" lon="2.13459">
        <ele>120</ele>
        <time>2017-02-05T09:30:50.939Z</time>
      </trkpt>
      <trkpt lat="47.71997" lon="2.13459">
        <ele>120</ele>
        <time>2017-02-05T09:30:51.937Z</time>
      </trkpt>
      <trkpt lat="47.72011" lon="2.13452">
        <ele>120</ele>
        <time>2017-02-05T09:30:52.936Z</time>
      </trkpt>
      <trkpt lat="47.72011" lon="2.13452">
        <ele>120</ele>
        <time>2017-02-05T09:30:53.939Z</time>
      </trkpt>
      <trkpt lat="47.72025" lon="2.13445">
        <ele>120</ele>
        <time>2017-02-05T09:30:54.922Z</time>
      </trkpt>
      <trkpt lat="47.72025" lon="2.13445">
        <ele>120</ele>
        <time>2017-02-05T09:30:55.951Z</time>
      </trkpt>
      <trkpt lat="47.7204" lon="2.13438">
        <ele>121</ele>
        <time>2017-02-05T09:30:56.940Z</time>
      </trkpt>
      <trkpt lat="47.7204" lon="2.13438">
        <ele>121</ele>
        <time>2017-02-05T09:30:57.936Z</time>
      </trkpt>
      <trkpt lat="47.72055" lon="2.1343">
        <ele>122</ele>
        <time>2017-02-05T09:30:58.936Z</time>
      </trkpt>
      <trkpt lat="47.72063" lon="2.13426">
        <ele>122</ele>
        <time>2017-02-05T09:30:59.950Z</time>
      </trkpt>
      <trkpt lat="47.72063" lon="2.13426">
        <ele>122</ele>
        <time>2017-02-05T09:31:00.948Z</time>
      </trkpt>
      <trkpt lat="47.72078" lon="2.13418">
        <ele>123</ele>
        <time>2017-02-05T09:31:01.938Z</time>
      </trkpt>
      <trkpt lat="47.72085" lon="2.13414">
        <ele>123</ele>
        <time>2017-02-05T09:31:02.940Z</time>
      </trkpt>
      <trkpt lat="47.72093" lon="2.13409">
        <ele>123</ele>
        <time>2017-02-05T09:31:03.961Z</time>
      </trkpt>
      <trkpt lat="47.72093" lon="2.13409">
        <ele>123</ele>
        <time>2017-02-05T09:31:04.943Z</time>
      </trkpt>
      <trkpt lat="47.72108" lon="2.13401">
        <ele>123</ele>
        <time>2017-02-05T09:31:05.949Z</time>
      </trkpt>
      <trkpt lat="47.72116" lon="2.13397">
        <ele>123</ele>
        <time>2017-02-05T09:31:06.955Z</time>
      </trkpt>
      <trkpt lat="47.72116" lon="2.13397">
        <ele>123</ele>
        <time>2017-02-05T09:31:07.956Z</time>
      </trkpt>
      <trkpt lat="47.72131" lon="2.13389">
        <ele>123</ele>
        <time>2017-02-05T09:31:08.944Z</time>
      </trkpt>
      <trkpt lat="47.72131" lon="2.13389">
        <ele>123</ele>
        <time>2017-02-05T09:31:09.937Z</time>
      </trkpt>
      <trkpt lat="47.72146" lon="2.13381">
        <ele>123</ele>
        <time>2017-02-05T09:31:10.952Z</time>
      </trkpt>
      <trkpt lat="47.72146" lon="2.13381">
        <ele>123</ele>
        <time>2017-02-05T09:31:11.957Z</time>
      </trkpt>
      <trkpt lat="47.7216" lon="2.13372">
        <ele>123</ele>
        <time>2017-02-05T09:31:12.939Z</time>
      </trkpt>
      <trkpt lat="47.7216" lon="2.13372">
        <ele>123</ele>
        <time>2017-02-05T09:31:13.935Z</time>
      </trkpt>
      <trkpt lat="47.72175" lon="2.13365">
        <ele>123</ele>
        <time>2017-02-05T09:31:14.939Z</time>
      </trkpt>
      <trkpt lat="47.72175" lon="2.13365">
        <ele>123</ele>
        <time>2017-02-05T09:31:15.938Z</time>
      </trkpt>
      <trkpt lat="47.72189" lon="2.13358">
        <ele>123</ele>
        <time>2017-02-05T09:31:16.936Z</time>
      </trkpt>
      <trkpt lat="47.72189" lon="2.13358">
        <ele>123</ele>
        <time>2017-02-05T09:31:17.935Z</time>
      </trkpt>
      <trkpt lat="47.72203" lon="2.13353">
        <ele>122</ele>
        <time>2017-02-05T09:31:18.938Z</time>
      </trkpt>
      <trkpt lat="47.7221" lon="2.1335">
        <ele>122</ele>
        <time>2017-02-05T09:31:19.939Z</time>
      </trkpt>
      <trkpt lat="47.7221" lon="2.1335">
        <ele>122</ele>
        <time>2017-02-05T09:31:20.937Z</time>
      </trkpt>
      <trkpt lat="47.72225" lon="2.13344">
        <ele>122</ele>
        <time>2017-02-05T09:31:21.952Z</time>
      </trkpt>
      <trkpt lat="47.72232" lon="2.1334">
        <ele>122</ele>
        <time>2017-02-05T09:31:22.939Z</time>
      </trkpt>
      <trkpt lat="47.72232" lon="2.1334">
        <ele>122</ele>
        <time>2017-02-05T09:31:23.936Z</time>
      </trkpt>
      <trkpt lat="47.72246" lon="2.13333">
        <ele>123</ele>
        <time>2017-02-05T09:31:24.938Z</time>
      </trkpt>
      <trkpt lat="47.72253" lon="2.13329">
        <ele>123</ele>
        <time>2017-02-05T09:31:25.939Z</time>
      </trkpt>
      <trkpt lat="47.72261" lon="2.13325">
        <ele>123</ele>
        <time>2017-02-05T09:31:26.948Z</time>
      </trkpt>
      <trkpt lat="47.72261" lon="2.13325">
        <ele>123</ele>
        <time>2017-02-05T09:31:27.937Z</time>
      </trkpt>
      <trkpt lat="47.72275" lon="2.13317">
        <ele>123</ele>
        <time>2017-02-05T09:31:28.945Z</time>
      </trkpt>
      <trkpt lat="47.72275" lon="2.13317">
        <ele>123</ele>
        <time>2017-02-05T09:31:29.935Z</time>
      </trkpt>
      <trkpt lat="47.72287" lon="2.1331">
        <ele>123</ele>
        <time>2017-02-05T09:31:30.939Z</time>
      </trkpt>
      <trkpt lat="47.72287" lon="2.1331">
        <ele>123</ele>
        <time>2017-02-05T09:31:31.939Z</time>
      </trkpt>
      <trkpt lat="47.72301" lon="2.13304">
        <ele>123</ele>
        <time>2017-02-05T09:31:32.941Z</time>
      </trkpt>
      <trkpt lat="47.72301" lon="2.13304">
        <ele>123</ele>
        <time>2017-02-05T09:31:33.949Z</time>
      </trkpt>
      <trkpt lat="47.72314" lon="2.13297">
        <ele>123</ele>
        <time>2017-02-05T09:31:34.939Z</time>
      </trkpt>
      <trkpt lat="47.72314" lon="2.13297">
        <ele>123</ele>
        <time>2017-02-05T09:31:35.936Z</time>
      </trkpt>
      <trkpt lat="47.72328" lon="2.1329">
        <ele>123</ele>
        <time>2017-02-05T09:31:36.939Z</time>
      </trkpt>
      <trkpt lat="47.72328" lon="2.1329">
        <ele>123</ele>
        <time>2017-02-05T09:31:37.958Z</time>
      </trkpt>
      <trkpt lat="47.7234" lon="2.13284">
        <ele>123</ele>
        <time>2017-02-05T09:31:38.947Z</time>
      </trkpt>
      <trkpt lat="47.7234" lon="2.13284">
        <ele>123</ele>
        <time>2017-02-05T09:31:39.937Z</time>
      </trkpt>
      <trkpt lat="47.72352" lon="2.13279">
        <ele>123</ele>
        <time>2017-02-05T09:31:40.938Z</time>
      </trkpt>
      <trkpt lat="47.72358" lon="2.13276">
        <ele>123</ele>
        <time>2017-02-05T09:31:41.951Z</time>
      </trkpt>
      <trkpt lat="47.72358" lon="2.13276">
        <ele>123</ele>
        <time>2017-02-05T09:31:42.938Z</time>
      </trkpt>
      <trkpt lat="47.72371" lon="2.1327">
        <ele>123</ele>
        <time>2017-02-05T09:31:43.941Z</time>
      </trkpt>
      <trkpt lat="47.72378" lon="2.13266">
        <ele>124</ele>
        <time>2017-02-05T09:31:44.940Z</time>
      </trkpt>
      <trkpt lat="47.72378" lon="2.13266">
        <ele>124</ele>
        <time>2017-02-05T09:31:45.937Z</time>
      </trkpt>
      <trkpt lat="47.7239" lon="2.1326">
        <ele>124</ele>
        <time>2017-02-05T09:31:46.939Z</time>
      </trkpt>
      <trkpt lat="47.7239" lon="2.1326">
        <ele>124</ele>
        <time>2017-02-05T09:31:47.932Z</time>
      </trkpt>
      <trkpt lat="47.72402" lon="2.13254">
        <ele>124</ele>
        <time>2017-02-05T09:31:48.939Z</time>
      </trkpt>
      <trkpt lat="47.72402" lon="2.13254">
        <ele>124</ele>
        <time>2017-02-05T09:31:49.936Z</time>
      </trkpt>
      <trkpt lat="47.72414" lon="2.13248">
        <ele>124</ele>
        <time>2017-02-05T09:31:50.940Z</time>
      </trkpt>
      <trkpt lat="47.72414" lon="2.13248">
        <ele>124</ele>
        <time>2017-02-05T09:31:51.943Z</time>
      </trkpt>
      <trkpt lat="47.72427" lon="2.13241">
        <ele>125</ele>
        <time>2017-02-05T09:31:52.938Z</time>
      </trkpt>
      <trkpt lat="47.72427" lon="2.13241">
        <ele>125</ele>
        <time>2017-02-05T09:31:53.936Z</time>
      </trkpt>
      <trkpt lat="47.7244" lon="2.13233">
        <ele>125</ele>
        <time>2017-02-05T09:31:54.938Z</time>
      </trkpt>
      <trkpt lat="47.72446" lon="2.13228">
        <ele>126</ele>
        <time>2017-02-05T09:31:55.939Z</time>
      </trkpt>
      <trkpt lat="47.72453" lon="2.13225">
        <ele>126</ele>
        <time>2017-02-05T09:31:56.941Z</time>
      </trkpt>
      <trkpt lat="47.72453" lon="2.13225">
        <ele>126</ele>
        <time>2017-02-05T09:31:57.936Z</time>
      </trkpt>
      <trkpt lat="47.72465" lon="2.13218">
        <ele>127</ele>
        <time>2017-02-05T09:31:58.940Z</time>
      </trkpt>
      <trkpt lat="47.72465" lon="2.13218">
        <ele>127</ele>
        <time>2017-02-05T09:31:59.937Z</time>
      </trkpt>
      <trkpt lat="47.72476" lon="2.13213">
        <ele>128</ele>
        <time>2017-02-05T09:32:00.940Z</time>
      </trkpt>
      <trkpt lat="47.72476" lon="2.13213">
        <ele>128</ele>
        <time>2017-02-05T09:32:01.948Z</time>
      </trkpt>
      <trkpt lat="47.72485" lon="2.13209">
        <ele>130</ele>
        <time>2017-02-05T09:32:02.940Z</time>
      </trkpt>
      <trkpt lat="47.72485" lon="2.13209">
        <ele>130</ele>
        <time>2017-02-05T09:32:03.936Z</time>
      </trkpt>
      <trkpt lat="47.72495" lon="2.13204">
        <ele>131</ele>
        <time>2017-02-05T09:32:04.938Z</time>
      </trkpt>
      <trkpt lat="47.72495" lon="2.13204">
        <ele>131</ele>
        <time>2017-02-05T09:32:05.937Z</time>
      </trkpt>
      <trkpt lat="47.72505" lon="2.13199">
        <ele>132</ele>
        <time>2017-02-05T09:32:06.939Z</time>
      </trkpt>
      <trkpt lat="47.72505" lon="2.13199">
        <ele>132</ele>
        <time>2017-02-05T09:32:07.961Z</time>
      </trkpt>
      <trkpt lat="47.72517" lon="2.13193">
        <ele>133</ele>
        <time>2017-02-05T09:32:08.947Z</time>
      </trkpt>
      <trkpt lat="47.72523" lon="2.1319">
        <ele>133</ele>
        <time>2017-02-05T09:32:09.953Z</time>
      </trkpt>
      <trkpt lat="47.72529" lon="2.13187">
        <ele>134</ele>
        <time>2017-02-05T09:32:10.944Z</time>
      </trkpt>
      <trkpt lat="47.72529" lon="2.13187">
        <ele>134</ele>
        <time>2017-02-05T09:32:11.933Z</time>
      </trkpt>
      <trkpt lat="47.72541" lon="2.13182">
        <ele>134</ele>
        <time>2017-02-05T09:32:12.941Z</time>
      </trkpt>
      <trkpt lat="47.72541" lon="2.13182">
        <ele>134</ele>
        <time>2017-02-05T09:32:13.937Z</time>
      </trkpt>
      <trkpt lat="47.72552" lon="2.13175">
        <ele>135</ele>
        <time>2017-02-05T09:32:14.940Z</time>
      </trkpt>
      <trkpt lat="47.72552" lon="2.13175">
        <ele>135</ele>
        <time>2017-02-05T09:32:15.934Z</time>
      </trkpt>
      <trkpt lat="47.72563" lon="2.1317">
        <ele>136</ele>
        <time>2017-02-05T09:32:16.936Z</time>
      </trkpt>
      <trkpt lat="47.72563" lon="2.1317">
        <ele>136</ele>
        <time>2017-02-05T09:32:17.936Z</time>
      </trkpt>
      <trkpt lat="47.72574" lon="2.13165">
        <ele>136</ele>
        <time>2017-02-05T09:32:18.939Z</time>
      </trkpt>
      <trkpt lat="47.72574" lon="2.13165">
        <ele>136</ele>
        <time>2017-02-05T09:32:19.935Z</time>
      </trkpt>
      <trkpt lat="47.72584" lon="2.13161">
        <ele>137</ele>
        <time>2017-02-05T09:32:20.940Z</time>
      </trkpt>
      <trkpt lat="47.72584" lon="2.13161">
        <ele>137</ele>
        <time>2017-02-05T09:32:21.936Z</time>
      </trkpt>
      <trkpt lat="47.72592" lon="2.13157">
        <ele>137</ele>
        <time>2017-02-05T09:32:22.936Z</time>
      </trkpt>
      <trkpt lat="47.72592" lon="2.13157">
        <ele>137</ele>
        <time>2017-02-05T09:32:23.935Z</time>
      </trkpt>
      <trkpt lat="47.72599" lon="2.13153">
        <ele>138</ele>
        <time>2017-02-05T09:32:24.938Z</time>
      </trkpt>
      <trkpt lat="47.72599" lon="2.13153">
        <ele>138</ele>
        <time>2017-02-05T09:32:25.937Z</time>
      </trkpt>
      <trkpt lat="47.72608" lon="2.1315">
        <ele>139</ele>
        <time>2017-02-05T09:32:26.940Z</time>
      </trkpt>
      <trkpt lat="47.72608" lon="2.1315">
        <ele>139</ele>
        <time>2017-02-05T09:32:27.937Z</time>
      </trkpt>
      <trkpt lat="47.72616" lon="2.13146">
        <ele>140</ele>
        <time>2017-02-05T09:32:28.940Z</time>
      </trkpt>
      <trkpt lat="47.72616" lon="2.13146">
        <ele>140</ele>
        <time>2017-02-05T09:32:29.940Z</time>
      </trkpt>
      <trkpt lat="47.72625" lon="2.13143">
        <ele>140</ele>
        <time>2017-02-05T09:32:30.939Z</time>
      </trkpt>
      <trkpt lat="47.72625" lon="2.13143">
        <ele>140</ele>
        <time>2017-02-05T09:32:31.936Z</time>
      </trkpt>
      <trkpt lat="47.72633" lon="2.13141">
        <ele>141</ele>
        <time>2017-02-05T09:32:32.923Z</time>
      </trkpt>
      <trkpt lat="47.72637" lon="2.13139">
        <ele>141</ele>
        <time>2017-02-05T09:32:33.957Z</time>
      </trkpt>
      <trkpt lat="47.72637" lon="2.13139">
        <ele>141</ele>
        <time>2017-02-05T09:32:34.934Z</time>
      </trkpt>
      <trkpt lat="47.72646" lon="2.13134">
        <ele>142</ele>
        <time>2017-02-05T09:32:35.938Z</time>
      </trkpt>
      <trkpt lat="47.72646" lon="2.13134">
        <ele>142</ele>
        <time>2017-02-05T09:32:36.933Z</time>
      </trkpt>
      <trkpt lat="47.72654" lon="2.1313">
        <ele>143</ele>
        <time>2017-02-05T09:32:37.956Z</time>
      </trkpt>
      <trkpt lat="47.72658" lon="2.13129">
        <ele>143</ele>
        <time>2017-02-05T09:32:38.949Z</time>
      </trkpt>
      <trkpt lat="47.72658" lon="2.13129">
        <ele>143</ele>
        <time>2017-02-05T09:32:39.946Z</time>
      </trkpt>
      <trkpt lat="47.72668" lon="2.13124">
        <ele>144</ele>
        <time>2017-02-05T09:32:40.938Z</time>
      </trkpt>
      <trkpt lat="47.72668" lon="2.13124">
        <ele>144</ele>
        <time>2017-02-05T09:32:41.936Z</time>
      </trkpt>
      <trkpt lat="47.72678" lon="2.13118">
        <ele>145</ele>
        <time>2017-02-05T09:32:42.958Z</time>
      </trkpt>
      <trkpt lat="47.72683" lon="2.13115">
        <ele>145</ele>
        <time>2017-02-05T09:32:43.947Z</time>
      </trkpt>
      <trkpt lat="47.72688" lon="2.13112">
        <ele>144</ele>
        <time>2017-02-05T09:32:44.940Z</time>
      </trkpt>
      <trkpt lat="47.72688" lon="2.13112">
        <ele>144</ele>
        <time>2017-02-05T09:32:45.936Z</time>
      </trkpt>
      <trkpt lat="47.72699" lon="2.13107">
        <ele>144</ele>
        <time>2017-02-05T09:32:46.939Z</time>
      </trkpt>
      <trkpt lat="47.72699" lon="2.13107">
        <ele>144</ele>
        <time>2017-02-05T09:32:47.936Z</time>
      </trkpt>
      <trkpt lat="47.72711" lon="2.13101">
        <ele>144</ele>
        <time>2017-02-05T09:32:48.939Z</time>
      </trkpt>
      <trkpt lat="47.72711" lon="2.13101">
        <ele>144</ele>
        <time>2017-02-05T09:32:49.936Z</time>
      </trkpt>
      <trkpt lat="47.72722" lon="2.13094">
        <ele>144</ele>
        <time>2017-02-05T09:32:50.941Z</time>
      </trkpt>
      <trkpt lat="47.72722" lon="2.13094">
        <ele>144</ele>
        <time>2017-02-05T09:32:51.937Z</time>
      </trkpt>
      <trkpt lat="47.72734" lon="2.13088">
        <ele>144</ele>
        <time>2017-02-05T09:32:52.935Z</time>
      </trkpt>
      <trkpt lat="47.72739" lon="2.13085">
        <ele>144</ele>
        <time>2017-02-05T09:32:53.939Z</time>
      </trkpt>
      <trkpt lat="47.72739" lon="2.13085">
        <ele>144</ele>
        <time>2017-02-05T09:32:54.937Z</time>
      </trkpt>
      <trkpt lat="47.7275" lon="2.13079">
        <ele>144</ele>
        <time>2017-02-05T09:32:55.939Z</time>
      </trkpt>
      <trkpt lat="47.72756" lon="2.13076">
        <ele>144</ele>
        <time>2017-02-05T09:32:56.938Z</time>
      </trkpt>
      <trkpt lat="47.72756" lon="2.13076">
        <ele>144</ele>
        <time>2017-02-05T09:32:57.934Z</time>
      </trkpt>
      <trkpt lat="47.72767" lon="2.1307">
        <ele>144</ele>
        <time>2017-02-05T09:32:58.941Z</time>
      </trkpt>
      <trkpt lat="47.72767" lon="2.1307">
        <ele>144</ele>
        <time>2017-02-05T09:32:59.936Z</time>
      </trkpt>
      <trkpt lat="47.72777" lon="2.13064">
        <ele>144</ele>
        <time>2017-02-05T09:33:00.939Z</time>
      </trkpt>
      <trkpt lat="47.72777" lon="2.13064">
        <ele>144</ele>
        <time>2017-02-05T09:33:01.951Z</time>
      </trkpt>
      <trkpt lat="47.72788" lon="2.13058">
        <ele>144</ele>
        <time>2017-02-05T09:33:02.933Z</time>
      </trkpt>
      <trkpt lat="47.72793" lon="2.13055">
        <ele>144</ele>
        <time>2017-02-05T09:33:03.939Z</time>
      </trkpt>
      <trkpt lat="47.72793" lon="2.13055">
        <ele>144</ele>
        <time>2017-02-05T09:33:04.934Z</time>
      </trkpt>
      <trkpt lat="47.72804" lon="2.1305">
        <ele>144</ele>
        <time>2017-02-05T09:33:05.938Z</time>
      </trkpt>
      <trkpt lat="47.72804" lon="2.1305">
        <ele>144</ele>
        <time>2017-02-05T09:33:06.937Z</time>
      </trkpt>
      <trkpt lat="47.72816" lon="2.13045">
        <ele>144</ele>
        <time>2017-02-05T09:33:07.957Z</time>
      </trkpt>
      <trkpt lat="47.72821" lon="2.13042">
        <ele>144</ele>
        <time>2017-02-05T09:33:08.950Z</time>
      </trkpt>
      <trkpt lat="47.72821" lon="2.13042">
        <ele>144</ele>
        <time>2017-02-05T09:33:09.940Z</time>
      </trkpt>
      <trkpt lat="47.72831" lon="2.13036">
        <ele>144</ele>
        <time>2017-02-05T09:33:10.939Z</time>
      </trkpt>
      <trkpt lat="47.72831" lon="2.13036">
        <ele>144</ele>
        <time>2017-02-05T09:33:11.937Z</time>
      </trkpt>
      <trkpt lat="47.72842" lon="2.1303">
        <ele>144</ele>
        <time>2017-02-05T09:33:12.950Z</time>
      </trkpt>
      <trkpt lat="47.72842" lon="2.1303">
        <ele>144</ele>
        <time>2017-02-05T09:33:13.939Z</time>
      </trkpt>
      <trkpt lat="47.72852" lon="2.13024">
        <ele>143</ele>
        <time>2017-02-05T09:33:14.940Z</time>
      </trkpt>
      <trkpt lat="47.72858" lon="2.13022">
        <ele>143</ele>
        <time>2017-02-05T09:33:15.937Z</time>
      </trkpt>
      <trkpt lat="47.72863" lon="2.1302">
        <ele>143</ele>
        <time>2017-02-05T09:33:16.939Z</time>
      </trkpt>
      <trkpt lat="47.72863" lon="2.1302">
        <ele>143</ele>
        <time>2017-02-05T09:33:17.937Z</time>
      </trkpt>
      <trkpt lat="47.72874" lon="2.13014">
        <ele>143</ele>
        <time>2017-02-05T09:33:18.940Z</time>
      </trkpt>
      <trkpt lat="47.72879" lon="2.13011">
        <ele>143</ele>
        <time>2017-02-05T09:33:19.939Z</time>
      </trkpt>
      <trkpt lat="47.72879" lon="2.13011">
        <ele>143</ele>
        <time>2017-02-05T09:33:20.938Z</time>
      </trkpt>
      <trkpt lat="47.72889" lon="2.13006">
        <ele>142</ele>
        <time>2017-02-05T09:33:21.940Z</time>
      </trkpt>
      <trkpt lat="47.72895" lon="2.13004">
        <ele>142</ele>
        <time>2017-02-05T09:33:22.940Z</time>
      </trkpt>
      <trkpt lat="47.72895" lon="2.13004">
        <ele>142</ele>
        <time>2017-02-05T09:33:23.935Z</time>
      </trkpt>
      <trkpt lat="47.72905" lon="2.12998">
        <ele>142</ele>
        <time>2017-02-05T09:33:24.940Z</time>
      </trkpt>
      <trkpt lat="47.72911" lon="2.12995">
        <ele>142</ele>
        <time>2017-02-05T09:33:25.939Z</time>
      </trkpt>
      <trkpt lat="47.72916" lon="2.12993">
        <ele>142</ele>
        <time>2017-02-05T09:33:26.938Z</time>
      </trkpt>
      <trkpt lat="47.72916" lon="2.12993">
        <ele>142</ele>
        <time>2017-02-05T09:33:27.934Z</time>
      </trkpt>
      <trkpt lat="47.72927" lon="2.12987">
        <ele>143</ele>
        <time>2017-02-05T09:33:28.940Z</time>
      </trkpt>
      <trkpt lat="47.72927" lon="2.12987">
        <ele>143</ele>
        <time>2017-02-05T09:33:29.937Z</time>
      </trkpt>
      <trkpt lat="47.72939" lon="2.12981">
        <ele>143</ele>
        <time>2017-02-05T09:33:30.939Z</time>
      </trkpt>
      <trkpt lat="47.72939" lon="2.12981">
        <ele>143</ele>
        <time>2017-02-05T09:33:31.935Z</time>
      </trkpt>
      <trkpt lat="47.72952" lon="2.12974">
        <ele>144</ele>
        <time>2017-02-05T09:33:32.941Z</time>
      </trkpt>
      <trkpt lat="47.72952" lon="2.12974">
        <ele>144</ele>
        <time>2017-02-05T09:33:33.939Z</time>
      </trkpt>
      <trkpt lat="47.72965" lon="2.12967">
        <ele>144</ele>
        <time>2017-02-05T09:33:34.938Z</time>
      </trkpt>
      <trkpt lat="47.72972" lon="2.12964">
        <ele>144</ele>
        <time>2017-02-05T09:33:35.940Z</time>
      </trkpt>
      <trkpt lat="47.72972" lon="2.12964">
        <ele>144</ele>
        <time>2017-02-05T09:33:36.937Z</time>
      </trkpt>
      <trkpt lat="47.72985" lon="2.12958">
        <ele>143</ele>
        <time>2017-02-05T09:33:37.958Z</time>
      </trkpt>
      <trkpt lat="47.72991" lon="2.12955">
        <ele>143</ele>
        <time>2017-02-05T09:33:38.949Z</time>
      </trkpt>
      <trkpt lat="47.72991" lon="2.12955">
        <ele>143</ele>
        <time>2017-02-05T09:33:39.938Z</time>
      </trkpt>
      <trkpt lat="47.73003" lon="2.12948">
        <ele>143</ele>
        <time>2017-02-05T09:33:40.938Z</time>
      </trkpt>
      <trkpt lat="47.73009" lon="2.12945">
        <ele>143</ele>
        <time>2017-02-05T09:33:41.939Z</time>
      </trkpt>
      <trkpt lat="47.73009" lon="2.12945">
        <ele>143</ele>
        <time>2017-02-05T09:33:42.937Z</time>
      </trkpt>
      <trkpt lat="47.73021" lon="2.12939">
        <ele>143</ele>
        <time>2017-02-05T09:33:43.939Z</time>
      </trkpt>
      <trkpt lat="47.73027" lon="2.12936">
        <ele>143</ele>
        <time>2017-02-05T09:33:44.940Z</time>
      </trkpt>
      <trkpt lat="47.73027" lon="2.12936">
        <ele>143</ele>
        <time>2017-02-05T09:33:45.937Z</time>
      </trkpt>
      <trkpt lat="47.73039" lon="2.1293">
        <ele>143</ele>
        <time>2017-02-05T09:33:46.939Z</time>
      </trkpt>
      <trkpt lat="47.73039" lon="2.1293">
        <ele>143</ele>
        <time>2017-02-05T09:33:47.937Z</time>
      </trkpt>
      <trkpt lat="47.73051" lon="2.12924">
        <ele>143</ele>
        <time>2017-02-05T09:33:48.940Z</time>
      </trkpt>
      <trkpt lat="47.73051" lon="2.12924">
        <ele>143</ele>
        <time>2017-02-05T09:33:49.940Z</time>
      </trkpt>
      <trkpt lat="47.73065" lon="2.12918">
        <ele>143</ele>
        <time>2017-02-05T09:33:50.940Z</time>
      </trkpt>
      <trkpt lat="47.73065" lon="2.12918">
        <ele>143</ele>
        <time>2017-02-05T09:33:51.938Z</time>
      </trkpt>
      <trkpt lat="47.73078" lon="2.12911">
        <ele>143</ele>
        <time>2017-02-05T09:33:52.940Z</time>
      </trkpt>
      <trkpt lat="47.73078" lon="2.12911">
        <ele>143</ele>
        <time>2017-02-05T09:33:53.938Z</time>
      </trkpt>
      <trkpt lat="47.73091" lon="2.12905">
        <ele>143</ele>
        <time>2017-02-05T09:33:54.939Z</time>
      </trkpt>
      <trkpt lat="47.73098" lon="2.12901">
        <ele>143</ele>
        <time>2017-02-05T09:33:55.939Z</time>
      </trkpt>
      <trkpt lat="47.73105" lon="2.12898">
        <ele>143</ele>
        <time>2017-02-05T09:33:56.940Z</time>
      </trkpt>
      <trkpt lat="47.73105" lon="2.12898">
        <ele>143</ele>
        <time>2017-02-05T09:33:57.937Z</time>
      </trkpt>
      <trkpt lat="47.73118" lon="2.12894">
        <ele>143</ele>
        <time>2017-02-05T09:33:58.939Z</time>
      </trkpt>
      <trkpt lat="47.73118" lon="2.12894">
        <ele>143</ele>
        <time>2017-02-05T09:33:59.936Z</time>
      </trkpt>
      <trkpt lat="47.73133" lon="2.12895">
        <ele>143</ele>
        <time>2017-02-05T09:34:00.951Z</time>
      </trkpt>
      <trkpt lat="47.7314" lon="2.12896">
        <ele>143</ele>
        <time>2017-02-05T09:34:01.941Z</time>
      </trkpt>
      <trkpt lat="47.7314" lon="2.12896">
        <ele>143</ele>
        <time>2017-02-05T09:34:02.938Z</time>
      </trkpt>
      <trkpt lat="47.73153" lon="2.12903">
        <ele>143</ele>
        <time>2017-02-05T09:34:03.939Z</time>
      </trkpt>
      <trkpt lat="47.73153" lon="2.12903">
        <ele>143</ele>
        <time>2017-02-05T09:34:04.934Z</time>
      </trkpt>
      <trkpt lat="47.73167" lon="2.12908">
        <ele>142</ele>
        <time>2017-02-05T09:34:05.940Z</time>
      </trkpt>
      <trkpt lat="47.73167" lon="2.12908">
        <ele>142</ele>
        <time>2017-02-05T09:34:06.937Z</time>
      </trkpt>
      <trkpt lat="47.73182" lon="2.12915">
        <ele>142</ele>
        <time>2017-02-05T09:34:07.958Z</time>
      </trkpt>
      <trkpt lat="47.73189" lon="2.12918">
        <ele>142</ele>
        <time>2017-02-05T09:34:08.936Z</time>
      </trkpt>
      <trkpt lat="47.73189" lon="2.12918">
        <ele>142</ele>
        <time>2017-02-05T09:34:09.934Z</time>
      </trkpt>
      <trkpt lat="47.73204" lon="2.12925">
        <ele>141</ele>
        <time>2017-02-05T09:34:10.940Z</time>
      </trkpt>
      <trkpt lat="47.73204" lon="2.12925">
        <ele>141</ele>
        <time>2017-02-05T09:34:11.938Z</time>
      </trkpt>
      <trkpt lat="47.73217" lon="2.12932">
        <ele>141</ele>
        <time>2017-02-05T09:34:12.943Z</time>
      </trkpt>
      <trkpt lat="47.73217" lon="2.12932">
        <ele>141</ele>
        <time>2017-02-05T09:34:13.937Z</time>
      </trkpt>
      <trkpt lat="47.73231" lon="2.12939">
        <ele>141</ele>
        <time>2017-02-05T09:34:14.942Z</time>
      </trkpt>
      <trkpt lat="47.73231" lon="2.12939">
        <ele>141</ele>
        <time>2017-02-05T09:34:15.937Z</time>
      </trkpt>
      <trkpt lat="47.73245" lon="2.12946">
        <ele>141</ele>
        <time>2017-02-05T09:34:16.939Z</time>
      </trkpt>
      <trkpt lat="47.73245" lon="2.12946">
        <ele>141</ele>
        <time>2017-02-05T09:34:17.938Z</time>
      </trkpt>
      <trkpt lat="47.7326" lon="2.12953">
        <ele>141</ele>
        <time>2017-02-05T09:34:18.943Z</time>
      </trkpt>
      <trkpt lat="47.7326" lon="2.12953">
        <ele>141</ele>
        <time>2017-02-05T09:34:19.938Z</time>
      </trkpt>
      <trkpt lat="47.73279" lon="2.12959">
        <ele>140</ele>
        <time>2017-02-05T09:34:20.940Z</time>
      </trkpt>
      <trkpt lat="47.73279" lon="2.12959">
        <ele>140</ele>
        <time>2017-02-05T09:34:21.951Z</time>
      </trkpt>
      <trkpt lat="47.73297" lon="2.12967">
        <ele>139</ele>
        <time>2017-02-05T09:34:22.938Z</time>
      </trkpt>
      <trkpt lat="47.73297" lon="2.12967">
        <ele>139</ele>
        <time>2017-02-05T09:34:23.938Z</time>
      </trkpt>
      <trkpt lat="47.73314" lon="2.12972">
        <ele>139</ele>
        <time>2017-02-05T09:34:24.940Z</time>
      </trkpt>
      <trkpt lat="47.73314" lon="2.12972">
        <ele>139</ele>
        <time>2017-02-05T09:34:25.934Z</time>
      </trkpt>
      <trkpt lat="47.73333" lon="2.12977">
        <ele>137</ele>
        <time>2017-02-05T09:34:26.940Z</time>
      </trkpt>
      <trkpt lat="47.73333" lon="2.12977">
        <ele>137</ele>
        <time>2017-02-05T09:34:27.937Z</time>
      </trkpt>
      <trkpt lat="47.73353" lon="2.12982">
        <ele>136</ele>
        <time>2017-02-05T09:34:28.941Z</time>
      </trkpt>
      <trkpt lat="47.73353" lon="2.12982">
        <ele>136</ele>
        <time>2017-02-05T09:34:29.934Z</time>
      </trkpt>
      <trkpt lat="47.73374" lon="2.12987">
        <ele>136</ele>
        <time>2017-02-05T09:34:30.940Z</time>
      </trkpt>
      <trkpt lat="47.73374" lon="2.12987">
        <ele>136</ele>
        <time>2017-02-05T09:34:31.938Z</time>
      </trkpt>
      <trkpt lat="47.73393" lon="2.12992">
        <ele>135</ele>
        <time>2017-02-05T09:34:32.938Z</time>
      </trkpt>
      <trkpt lat="47.73393" lon="2.12992">
        <ele>135</ele>
        <time>2017-02-05T09:34:33.936Z</time>
      </trkpt>
      <trkpt lat="47.73413" lon="2.12998">
        <ele>135</ele>
        <time>2017-02-05T09:34:34.953Z</time>
      </trkpt>
      <trkpt lat="47.73413" lon="2.12998">
        <ele>135</ele>
        <time>2017-02-05T09:34:35.957Z</time>
      </trkpt>
      <trkpt lat="47.73434" lon="2.13003">
        <ele>134</ele>
        <time>2017-02-05T09:34:36.948Z</time>
      </trkpt>
      <trkpt lat="47.73444" lon="2.13007">
        <ele>134</ele>
        <time>2017-02-05T09:34:37.954Z</time>
      </trkpt>
      <trkpt lat="47.73454" lon="2.13011">
        <ele>133</ele>
        <time>2017-02-05T09:34:38.942Z</time>
      </trkpt>
      <trkpt lat="47.73454" lon="2.13011">
        <ele>133</ele>
        <time>2017-02-05T09:34:39.938Z</time>
      </trkpt>
      <trkpt lat="47.73473" lon="2.13019">
        <ele>132</ele>
        <time>2017-02-05T09:34:40.940Z</time>
      </trkpt>
      <trkpt lat="47.73473" lon="2.13019">
        <ele>132</ele>
        <time>2017-02-05T09:34:41.938Z</time>
      </trkpt>
      <trkpt lat="47.73492" lon="2.13028">
        <ele>131</ele>
        <time>2017-02-05T09:34:42.940Z</time>
      </trkpt>
      <trkpt lat="47.73492" lon="2.13028">
        <ele>131</ele>
        <time>2017-02-05T09:34:43.936Z</time>
      </trkpt>
      <trkpt lat="47.73511" lon="2.13036">
        <ele>130</ele>
        <time>2017-02-05T09:34:44.941Z</time>
      </trkpt>
      <trkpt lat="47.73511" lon="2.13036">
        <ele>130</ele>
        <time>2017-02-05T09:34:45.938Z</time>
      </trkpt>
      <trkpt lat="47.73529" lon="2.13043">
        <ele>130</ele>
        <time>2017-02-05T09:34:46.940Z</time>
      </trkpt>
      <trkpt lat="47.73529" lon="2.13043">
        <ele>130</ele>
        <time>2017-02-05T09:34:47.935Z</time>
      </trkpt>
      <trkpt lat="47.73548" lon="2.13049">
        <ele>129</ele>
        <time>2017-02-05T09:34:48.938Z</time>
      </trkpt>
      <trkpt lat="47.73548" lon="2.13049">
        <ele>129</ele>
        <time>2017-02-05T09:34:49.939Z</time>
      </trkpt>
      <trkpt lat="47.73566" lon="2.13056">
        <ele>129</ele>
        <time>2017-02-05T09:34:50.942Z</time>
      </trkpt>
      <trkpt lat="47.73566" lon="2.13056">
        <ele>129</ele>
        <time>2017-02-05T09:34:51.938Z</time>
      </trkpt>
      <trkpt lat="47.73582" lon="2.13063">
        <ele>129</ele>
        <time>2017-02-05T09:34:52.937Z</time>
      </trkpt>
      <trkpt lat="47.73582" lon="2.13063">
        <ele>129</ele>
        <time>2017-02-05T09:34:53.935Z</time>
      </trkpt>
      <trkpt lat="47.73599" lon="2.13069">
        <ele>129</ele>
        <time>2017-02-05T09:34:54.937Z</time>
      </trkpt>
      <trkpt lat="47.73599" lon="2.13069">
        <ele>129</ele>
        <time>2017-02-05T09:34:55.934Z</time>
      </trkpt>
      <trkpt lat="47.73615" lon="2.13075">
        <ele>128</ele>
        <time>2017-02-05T09:34:56.938Z</time>
      </trkpt>
      <trkpt lat="47.73615" lon="2.13075">
        <ele>128</ele>
        <time>2017-02-05T09:34:57.937Z</time>
      </trkpt>
      <trkpt lat="47.7363" lon="2.13081">
        <ele>128</ele>
        <time>2017-02-05T09:34:58.939Z</time>
      </trkpt>
      <trkpt lat="47.7363" lon="2.13081">
        <ele>128</ele>
        <time>2017-02-05T09:34:59.934Z</time>
      </trkpt>
      <trkpt lat="47.73646" lon="2.13087">
        <ele>128</ele>
        <time>2017-02-05T09:35:00.939Z</time>
      </trkpt>
      <trkpt lat="47.73653" lon="2.13091">
        <ele>128</ele>
        <time>2017-02-05T09:35:01.958Z</time>
      </trkpt>
      <trkpt lat="47.7366" lon="2.13094">
        <ele>128</ele>
        <time>2017-02-05T09:35:02.942Z</time>
      </trkpt>
      <trkpt lat="47.7366" lon="2.13094">
        <ele>128</ele>
        <time>2017-02-05T09:35:03.933Z</time>
      </trkpt>
      <trkpt lat="47.73673" lon="2.13098">
        <ele>128</ele>
        <time>2017-02-05T09:35:04.939Z</time>
      </trkpt>
      <trkpt lat="47.73679" lon="2.13101">
        <ele>128</ele>
        <time>2017-02-05T09:35:05.940Z</time>
      </trkpt>
      <trkpt lat="47.73679" lon="2.13101">
        <ele>128</ele>
        <time>2017-02-05T09:35:06.938Z</time>
      </trkpt>
      <trkpt lat="47.73692" lon="2.13106">
        <ele>128</ele>
        <time>2017-02-05T09:35:07.959Z</time>
      </trkpt>
      <trkpt lat="47.73699" lon="2.13109">
        <ele>129</ele>
        <time>2017-02-05T09:35:08.941Z</time>
      </trkpt>
      <trkpt lat="47.73699" lon="2.13109">
        <ele>129</ele>
        <time>2017-02-05T09:35:09.938Z</time>
      </trkpt>
      <trkpt lat="47.73711" lon="2.13113">
        <ele>129</ele>
        <time>2017-02-05T09:35:10.939Z</time>
      </trkpt>
      <trkpt lat="47.73716" lon="2.13115">
        <ele>129</ele>
        <time>2017-02-05T09:35:11.937Z</time>
      </trkpt>
      <trkpt lat="47.73721" lon="2.13116">
        <ele>129</ele>
        <time>2017-02-05T09:35:12.941Z</time>
      </trkpt>
      <trkpt lat="47.73721" lon="2.13116">
        <ele>129</ele>
        <time>2017-02-05T09:35:13.938Z</time>
      </trkpt>
      <trkpt lat="47.73727" lon="2.13111">
        <ele>129</ele>
        <time>2017-02-05T09:35:14.941Z</time>
      </trkpt>
      <trkpt lat="47.73729" lon="2.13108">
        <ele>129</ele>
        <time>2017-02-05T09:35:15.938Z</time>
      </trkpt>
      <trkpt lat="47.73729" lon="2.13106">
        <ele>129</ele>
        <time>2017-02-05T09:35:16.941Z</time>
      </trkpt>
      <trkpt lat="47.73729" lon="2.13106">
        <ele>129</ele>
        <time>2017-02-05T09:35:17.939Z</time>
      </trkpt>
      <trkpt lat="47.73729" lon="2.13106">
        <ele>128</ele>
        <time>2017-02-05T09:35:18.939Z</time>
      </trkpt>
      <trkpt lat="47.73729" lon="2.13106">
        <ele>128</ele>
        <time>2017-02-05T09:35:19.934Z</time>
      </trkpt>
      <trkpt lat="47.73729" lon="2.13106">
        <ele>128</ele>
        <time>2017-02-05T09:35:20.937Z</time>
      </trkpt>
      <trkpt lat="47.73729" lon="2.13106">
        <ele>128</ele>
        <time>2017-02-05T09:35:21.922Z</time>
      </trkpt>
      <trkpt lat="47.73728" lon="2.13101">
        <ele>124</ele>
        <time>2017-02-05T09:35:22.956Z</time>
      </trkpt>
      <trkpt lat="47.73729" lon="2.13098">
        <ele>124</ele>
        <time>2017-02-05T09:35:23.926Z</time>
      </trkpt>
      <trkpt lat="47.73729" lon="2.13098">
        <ele>124</ele>
        <time>2017-02-05T09:35:24.956Z</time>
      </trkpt>
      <trkpt lat="47.73729" lon="2.13091">
        <ele>124</ele>
        <time>2017-02-05T09:35:25.960Z</time>
      </trkpt>
      <trkpt lat="47.73729" lon="2.13091">
        <ele>124</ele>
        <time>2017-02-05T09:35:26.954Z</time>
      </trkpt>
      <trkpt lat="47.73731" lon="2.13082">
        <ele>124</ele>
        <time>2017-02-05T09:35:27.957Z</time>
      </trkpt>
      <trkpt lat="47.73731" lon="2.13082">
        <ele>124</ele>
        <time>2017-02-05T09:35:28.946Z</time>
      </trkpt>
      <trkpt lat="47.73733" lon="2.1307">
        <ele>124</ele>
        <time>2017-02-05T09:35:29.934Z</time>
      </trkpt>
      <trkpt lat="47.73733" lon="2.1307">
        <ele>124</ele>
        <time>2017-02-05T09:35:30.931Z</time>
      </trkpt>
      <trkpt lat="47.73735" lon="2.13057">
        <ele>124</ele>
        <time>2017-02-05T09:35:31.923Z</time>
      </trkpt>
      <trkpt lat="47.73735" lon="2.13057">
        <ele>124</ele>
        <time>2017-02-05T09:35:32.956Z</time>
      </trkpt>
      <trkpt lat="47.73736" lon="2.13043">
        <ele>124</ele>
        <time>2017-02-05T09:35:33.956Z</time>
      </trkpt>
      <trkpt lat="47.73737" lon="2.13037">
        <ele>124</ele>
        <time>2017-02-05T09:35:34.933Z</time>
      </trkpt>
      <trkpt lat="47.73737" lon="2.13037">
        <ele>124</ele>
        <time>2017-02-05T09:35:35.962Z</time>
      </trkpt>
      <trkpt lat="47.73739" lon="2.13023">
        <ele>124</ele>
        <time>2017-02-05T09:35:36.956Z</time>
      </trkpt>
      <trkpt lat="47.73739" lon="2.13023">
        <ele>124</ele>
        <time>2017-02-05T09:35:37.953Z</time>
      </trkpt>
      <trkpt lat="47.73742" lon="2.13009">
        <ele>124</ele>
        <time>2017-02-05T09:35:38.960Z</time>
      </trkpt>
      <trkpt lat="47.73743" lon="2.13001">
        <ele>124</ele>
        <time>2017-02-05T09:35:39.956Z</time>
      </trkpt>
      <trkpt lat="47.73743" lon="2.12994">
        <ele>124</ele>
        <time>2017-02-05T09:35:40.961Z</time>
      </trkpt>
      <trkpt lat="47.73743" lon="2.12994">
        <ele>124</ele>
        <time>2017-02-05T09:35:41.956Z</time>
      </trkpt>
      <trkpt lat="47.73745" lon="2.12979">
        <ele>124</ele>
        <time>2017-02-05T09:35:42.955Z</time>
      </trkpt>
      <trkpt lat="47.73746" lon="2.12971">
        <ele>124</ele>
        <time>2017-02-05T09:35:43.956Z</time>
      </trkpt>
      <trkpt lat="47.73746" lon="2.12971">
        <ele>124</ele>
        <time>2017-02-05T09:35:44.954Z</time>
      </trkpt>
      <trkpt lat="47.73748" lon="2.12958">
        <ele>124</ele>
        <time>2017-02-05T09:35:45.959Z</time>
      </trkpt>
      <trkpt lat="47.73748" lon="2.12958">
        <ele>124</ele>
        <time>2017-02-05T09:35:46.933Z</time>
      </trkpt>
      <trkpt lat="47.7375" lon="2.12943">
        <ele>124</ele>
        <time>2017-02-05T09:35:47.933Z</time>
      </trkpt>
      <trkpt lat="47.7375" lon="2.12943">
        <ele>124</ele>
        <time>2017-02-05T09:35:48.922Z</time>
      </trkpt>
      <trkpt lat="47.73752" lon="2.12929">
        <ele>124</ele>
        <time>2017-02-05T09:35:49.956Z</time>
      </trkpt>
      <trkpt lat="47.73752" lon="2.12929">
        <ele>124</ele>
        <time>2017-02-05T09:35:50.954Z</time>
      </trkpt>
      <trkpt lat="47.73754" lon="2.12914">
        <ele>124</ele>
        <time>2017-02-05T09:35:51.959Z</time>
      </trkpt>
      <trkpt lat="47.73754" lon="2.12914">
        <ele>124</ele>
        <time>2017-02-05T09:35:52.957Z</time>
      </trkpt>
      <trkpt lat="47.73756" lon="2.12899">
        <ele>124</ele>
        <time>2017-02-05T09:35:53.959Z</time>
      </trkpt>
      <trkpt lat="47.73756" lon="2.12899">
        <ele>124</ele>
        <time>2017-02-05T09:35:54.955Z</time>
      </trkpt>
      <trkpt lat="47.73759" lon="2.12883">
        <ele>124</ele>
        <time>2017-02-05T09:35:55.959Z</time>
      </trkpt>
      <trkpt lat="47.73759" lon="2.12883">
        <ele>124</ele>
        <time>2017-02-05T09:35:56.957Z</time>
      </trkpt>
      <trkpt lat="47.73764" lon="2.12868">
        <ele>125</ele>
        <time>2017-02-05T09:35:57.960Z</time>
      </trkpt>
      <trkpt lat="47.73764" lon="2.12868">
        <ele>125</ele>
        <time>2017-02-05T09:35:58.958Z</time>
      </trkpt>
      <trkpt lat="47.73767" lon="2.12855">
        <ele>125</ele>
        <time>2017-02-05T09:35:59.960Z</time>
      </trkpt>
      <trkpt lat="47.73767" lon="2.12855">
        <ele>125</ele>
        <time>2017-02-05T09:36:00.956Z</time>
      </trkpt>
      <trkpt lat="47.7377" lon="2.12843">
        <ele>126</ele>
        <time>2017-02-05T09:36:01.958Z</time>
      </trkpt>
      <trkpt lat="47.7377" lon="2.12843">
        <ele>126</ele>
        <time>2017-02-05T09:36:02.949Z</time>
      </trkpt>
      <trkpt lat="47.73773" lon="2.12828">
        <ele>126</ele>
        <time>2017-02-05T09:36:03.956Z</time>
      </trkpt>
      <trkpt lat="47.73773" lon="2.12828">
        <ele>126</ele>
        <time>2017-02-05T09:36:04.956Z</time>
      </trkpt>
      <trkpt lat="47.73776" lon="2.12813">
        <ele>125</ele>
        <time>2017-02-05T09:36:05.960Z</time>
      </trkpt>
      <trkpt lat="47.73776" lon="2.12813">
        <ele>125</ele>
        <time>2017-02-05T09:36:06.953Z</time>
      </trkpt>
      <trkpt lat="47.7378" lon="2.12799">
        <ele>125</ele>
        <time>2017-02-05T09:36:07.945Z</time>
      </trkpt>
      <trkpt lat="47.73781" lon="2.12792">
        <ele>125</ele>
        <time>2017-02-05T09:36:08.938Z</time>
      </trkpt>
      <trkpt lat="47.73781" lon="2.12792">
        <ele>125</ele>
        <time>2017-02-05T09:36:09.947Z</time>
      </trkpt>
      <trkpt lat="47.73784" lon="2.12778">
        <ele>126</ele>
        <time>2017-02-05T09:36:10.954Z</time>
      </trkpt>
      <trkpt lat="47.73785" lon="2.12771">
        <ele>126</ele>
        <time>2017-02-05T09:36:11.926Z</time>
      </trkpt>
      <trkpt lat="47.73785" lon="2.12771">
        <ele>126</ele>
        <time>2017-02-05T09:36:12.923Z</time>
      </trkpt>
      <trkpt lat="47.73788" lon="2.12757">
        <ele>126</ele>
        <time>2017-02-05T09:36:13.959Z</time>
      </trkpt>
      <trkpt lat="47.73788" lon="2.12757">
        <ele>126</ele>
        <time>2017-02-05T09:36:14.953Z</time>
      </trkpt>
      <trkpt lat="47.73791" lon="2.12742">
        <ele>126</ele>
        <time>2017-02-05T09:36:15.957Z</time>
      </trkpt>
      <trkpt lat="47.73791" lon="2.12742">
        <ele>126</ele>
        <time>2017-02-05T09:36:16.960Z</time>
      </trkpt>
      <trkpt lat="47.73794" lon="2.12727">
        <ele>126</ele>
        <time>2017-02-05T09:36:17.960Z</time>
      </trkpt>
      <trkpt lat="47.73794" lon="2.12727">
        <ele>126</ele>
        <time>2017-02-05T09:36:18.956Z</time>
      </trkpt>
      <trkpt lat="47.73798" lon="2.12713">
        <ele>126</ele>
        <time>2017-02-05T09:36:19.955Z</time>
      </trkpt>
      <trkpt lat="47.73798" lon="2.12713">
        <ele>126</ele>
        <time>2017-02-05T09:36:20.926Z</time>
      </trkpt>
      <trkpt lat="47.73799" lon="2.127">
        <ele>126</ele>
        <time>2017-02-05T09:36:21.959Z</time>
      </trkpt>
      <trkpt lat="47.73799" lon="2.127">
        <ele>126</ele>
        <time>2017-02-05T09:36:22.953Z</time>
      </trkpt>
      <trkpt lat="47.73804" lon="2.12686">
        <ele>126</ele>
        <time>2017-02-05T09:36:23.922Z</time>
      </trkpt>
      <trkpt lat="47.73804" lon="2.12686">
        <ele>126</ele>
        <time>2017-02-05T09:36:24.953Z</time>
      </trkpt>
      <trkpt lat="47.7381" lon="2.12673">
        <ele>126</ele>
        <time>2017-02-05T09:36:25.959Z</time>
      </trkpt>
      <trkpt lat="47.7381" lon="2.12673">
        <ele>126</ele>
        <time>2017-02-05T09:36:26.955Z</time>
      </trkpt>
      <trkpt lat="47.73814" lon="2.12658">
        <ele>126</ele>
        <time>2017-02-05T09:36:27.959Z</time>
      </trkpt>
      <trkpt lat="47.73814" lon="2.12658">
        <ele>126</ele>
        <time>2017-02-05T09:36:28.955Z</time>
      </trkpt>
      <trkpt lat="47.73817" lon="2.12644">
        <ele>126</ele>
        <time>2017-02-05T09:36:29.960Z</time>
      </trkpt>
      <trkpt lat="47.73817" lon="2.12644">
        <ele>126</ele>
        <time>2017-02-05T09:36:30.952Z</time>
      </trkpt>
      <trkpt lat="47.73821" lon="2.1263">
        <ele>126</ele>
        <time>2017-02-05T09:36:31.955Z</time>
      </trkpt>
      <trkpt lat="47.73823" lon="2.12623">
        <ele>126</ele>
        <time>2017-02-05T09:36:32.955Z</time>
      </trkpt>
      <trkpt lat="47.73823" lon="2.12623">
        <ele>126</ele>
        <time>2017-02-05T09:36:33.953Z</time>
      </trkpt>
      <trkpt lat="47.73826" lon="2.12608">
        <ele>126</ele>
        <time>2017-02-05T09:36:34.930Z</time>
      </trkpt>
      <trkpt lat="47.73826" lon="2.12608">
        <ele>126</ele>
        <time>2017-02-05T09:36:35.959Z</time>
      </trkpt>
      <trkpt lat="47.73828" lon="2.12593">
        <ele>126</ele>
        <time>2017-02-05T09:36:36.955Z</time>
      </trkpt>
      <trkpt lat="47.73829" lon="2.12585">
        <ele>126</ele>
        <time>2017-02-05T09:36:37.956Z</time>
      </trkpt>
      <trkpt lat="47.73829" lon="2.12585">
        <ele>126</ele>
        <time>2017-02-05T09:36:38.955Z</time>
      </trkpt>
      <trkpt lat="47.7383" lon="2.12571">
        <ele>126</ele>
        <time>2017-02-05T09:36:39.959Z</time>
      </trkpt>
      <trkpt lat="47.7383" lon="2.12571">
        <ele>126</ele>
        <time>2017-02-05T09:36:40.953Z</time>
      </trkpt>
      <trkpt lat="47.73832" lon="2.12556">
        <ele>126</ele>
        <time>2017-02-05T09:36:41.957Z</time>
      </trkpt>
      <trkpt lat="47.73832" lon="2.12556">
        <ele>126</ele>
        <time>2017-02-05T09:36:42.953Z</time>
      </trkpt>
      <trkpt lat="47.73833" lon="2.12542">
        <ele>126</ele>
        <time>2017-02-05T09:36:43.955Z</time>
      </trkpt>
      <trkpt lat="47.73834" lon="2.12535">
        <ele>126</ele>
        <time>2017-02-05T09:36:44.960Z</time>
      </trkpt>
      <trkpt lat="47.73834" lon="2.12535">
        <ele>126</ele>
        <time>2017-02-05T09:36:45.955Z</time>
      </trkpt>
      <trkpt lat="47.73836" lon="2.12521">
        <ele>126</ele>
        <time>2017-02-05T09:36:46.957Z</time>
      </trkpt>
      <trkpt lat="47.73836" lon="2.12514">
        <ele>126</ele>
        <time>2017-02-05T09:36:47.961Z</time>
      </trkpt>
      <trkpt lat="47.73836" lon="2.12514">
        <ele>126</ele>
        <time>2017-02-05T09:36:48.954Z</time>
      </trkpt>
      <trkpt lat="47.73837" lon="2.12499">
        <ele>126</ele>
        <time>2017-02-05T09:36:49.956Z</time>
      </trkpt>
      <trkpt lat="47.73838" lon="2.1249">
        <ele>126</ele>
        <time>2017-02-05T09:36:50.956Z</time>
      </trkpt>
      <trkpt lat="47.73838" lon="2.1249">
        <ele>126</ele>
        <time>2017-02-05T09:36:51.961Z</time>
      </trkpt>
      <trkpt lat="47.7384" lon="2.12473">
        <ele>125</ele>
        <time>2017-02-05T09:36:52.959Z</time>
      </trkpt>
      <trkpt lat="47.73842" lon="2.12464">
        <ele>125</ele>
        <time>2017-02-05T09:36:53.960Z</time>
      </trkpt>
      <trkpt lat="47.73842" lon="2.12464">
        <ele>125</ele>
        <time>2017-02-05T09:36:54.953Z</time>
      </trkpt>
      <trkpt lat="47.73843" lon="2.12447">
        <ele>125</ele>
        <time>2017-02-05T09:36:55.956Z</time>
      </trkpt>
      <trkpt lat="47.73843" lon="2.12447">
        <ele>125</ele>
        <time>2017-02-05T09:36:56.953Z</time>
      </trkpt>
      <trkpt lat="47.73845" lon="2.12431">
        <ele>125</ele>
        <time>2017-02-05T09:36:57.955Z</time>
      </trkpt>
      <trkpt lat="47.73845" lon="2.12431">
        <ele>125</ele>
        <time>2017-02-05T09:36:58.952Z</time>
      </trkpt>
      <trkpt lat="47.73846" lon="2.12416">
        <ele>125</ele>
        <time>2017-02-05T09:36:59.960Z</time>
      </trkpt>
      <trkpt lat="47.73846" lon="2.12416">
        <ele>125</ele>
        <time>2017-02-05T09:37:00.953Z</time>
      </trkpt>
      <trkpt lat="47.73846" lon="2.12401">
        <ele>124</ele>
        <time>2017-02-05T09:37:01.922Z</time>
      </trkpt>
      <trkpt lat="47.73846" lon="2.12401">
        <ele>124</ele>
        <time>2017-02-05T09:37:02.956Z</time>
      </trkpt>
      <trkpt lat="47.73846" lon="2.12387">
        <ele>124</ele>
        <time>2017-02-05T09:37:03.955Z</time>
      </trkpt>
      <trkpt lat="47.73846" lon="2.12387">
        <ele>124</ele>
        <time>2017-02-05T09:37:04.953Z</time>
      </trkpt>
      <trkpt lat="47.73844" lon="2.12371">
        <ele>124</ele>
        <time>2017-02-05T09:37:05.924Z</time>
      </trkpt>
      <trkpt lat="47.73844" lon="2.12371">
        <ele>124</ele>
        <time>2017-02-05T09:37:06.954Z</time>
      </trkpt>
      <trkpt lat="47.73846" lon="2.12357">
        <ele>123</ele>
        <time>2017-02-05T09:37:07.940Z</time>
      </trkpt>
      <trkpt lat="47.73846" lon="2.12357">
        <ele>123</ele>
        <time>2017-02-05T09:37:08.932Z</time>
      </trkpt>
      <trkpt lat="47.7385" lon="2.12342">
        <ele>123</ele>
        <time>2017-02-05T09:37:09.937Z</time>
      </trkpt>
      <trkpt lat="47.7385" lon="2.12342">
        <ele>123</ele>
        <time>2017-02-05T09:37:10.944Z</time>
      </trkpt>
      <trkpt lat="47.73854" lon="2.1233">
        <ele>123</ele>
        <time>2017-02-05T09:37:11.960Z</time>
      </trkpt>
      <trkpt lat="47.73857" lon="2.12323">
        <ele>123</ele>
        <time>2017-02-05T09:37:12.961Z</time>
      </trkpt>
      <trkpt lat="47.73857" lon="2.12323">
        <ele>123</ele>
        <time>2017-02-05T09:37:13.953Z</time>
      </trkpt>
      <trkpt lat="47.73863" lon="2.12311">
        <ele>123</ele>
        <time>2017-02-05T09:37:14.935Z</time>
      </trkpt>
      <trkpt lat="47.73863" lon="2.12311">
        <ele>123</ele>
        <time>2017-02-05T09:37:15.923Z</time>
      </trkpt>
      <trkpt lat="47.7387" lon="2.12299">
        <ele>123</ele>
        <time>2017-02-05T09:37:16.959Z</time>
      </trkpt>
      <trkpt lat="47.7387" lon="2.12299">
        <ele>123</ele>
        <time>2017-02-05T09:37:17.953Z</time>
      </trkpt>
      <trkpt lat="47.73877" lon="2.12285">
        <ele>124</ele>
        <time>2017-02-05T09:37:18.933Z</time>
      </trkpt>
      <trkpt lat="47.73877" lon="2.12285">
        <ele>124</ele>
        <time>2017-02-05T09:37:19.925Z</time>
      </trkpt>
      <trkpt lat="47.73884" lon="2.12275">
        <ele>124</ele>
        <time>2017-02-05T09:37:20.958Z</time>
      </trkpt>
      <trkpt lat="47.73884" lon="2.12275">
        <ele>124</ele>
        <time>2017-02-05T09:37:21.953Z</time>
      </trkpt>
      <trkpt lat="47.73891" lon="2.12265">
        <ele>124</ele>
        <time>2017-02-05T09:37:22.959Z</time>
      </trkpt>
      <trkpt lat="47.73895" lon="2.12259">
        <ele>123</ele>
        <time>2017-02-05T09:37:23.960Z</time>
      </trkpt>
      <trkpt lat="47.73895" lon="2.12259">
        <ele>123</ele>
        <time>2017-02-05T09:37:24.956Z</time>
      </trkpt>
      <trkpt lat="47.73903" lon="2.12248">
        <ele>123</ele>
        <time>2017-02-05T09:37:25.958Z</time>
      </trkpt>
      <trkpt lat="47.73903" lon="2.12248">
        <ele>123</ele>
        <time>2017-02-05T09:37:26.955Z</time>
      </trkpt>
      <trkpt lat="47.73911" lon="2.12234">
        <ele>123</ele>
        <time>2017-02-05T09:37:27.955Z</time>
      </trkpt>
      <trkpt lat="47.73915" lon="2.12228">
        <ele>123</ele>
        <time>2017-02-05T09:37:28.959Z</time>
      </trkpt>
      <trkpt lat="47.73918" lon="2.12222">
        <ele>123</ele>
        <time>2017-02-05T09:37:29.961Z</time>
      </trkpt>
      <trkpt lat="47.73918" lon="2.12222">
        <ele>123</ele>
        <time>2017-02-05T09:37:30.955Z</time>
      </trkpt>
      <trkpt lat="47.73925" lon="2.12212">
        <ele>124</ele>
        <time>2017-02-05T09:37:31.959Z</time>
      </trkpt>
      <trkpt lat="47.73928" lon="2.12206">
        <ele>124</ele>
        <time>2017-02-05T09:37:32.959Z</time>
      </trkpt>
      <trkpt lat="47.73928" lon="2.12206">
        <ele>124</ele>
        <time>2017-02-05T09:37:33.955Z</time>
      </trkpt>
      <trkpt lat="47.73934" lon="2.12191">
        <ele>124</ele>
        <time>2017-02-05T09:37:34.951Z</time>
      </trkpt>
      <trkpt lat="47.73934" lon="2.12191">
        <ele>124</ele>
        <time>2017-02-05T09:37:35.955Z</time>
      </trkpt>
      <trkpt lat="47.73938" lon="2.12176">
        <ele>124</ele>
        <time>2017-02-05T09:37:36.959Z</time>
      </trkpt>
      <trkpt lat="47.73939" lon="2.12168">
        <ele>124</ele>
        <time>2017-02-05T09:37:37.959Z</time>
      </trkpt>
      <trkpt lat="47.73939" lon="2.12168">
        <ele>124</ele>
        <time>2017-02-05T09:37:38.954Z</time>
      </trkpt>
      <trkpt lat="47.73942" lon="2.12154">
        <ele>125</ele>
        <time>2017-02-05T09:37:39.960Z</time>
      </trkpt>
      <trkpt lat="47.73942" lon="2.12154">
        <ele>125</ele>
        <time>2017-02-05T09:37:40.955Z</time>
      </trkpt>
      <trkpt lat="47.73944" lon="2.12139">
        <ele>125</ele>
        <time>2017-02-05T09:37:41.959Z</time>
      </trkpt>
      <trkpt lat="47.73944" lon="2.12139">
        <ele>125</ele>
        <time>2017-02-05T09:37:42.956Z</time>
      </trkpt>
      <trkpt lat="47.73944" lon="2.12124">
        <ele>125</ele>
        <time>2017-02-05T09:37:43.957Z</time>
      </trkpt>
      <trkpt lat="47.73944" lon="2.12117">
        <ele>125</ele>
        <time>2017-02-05T09:37:44.960Z</time>
      </trkpt>
      <trkpt lat="47.73944" lon="2.12117">
        <ele>125</ele>
        <time>2017-02-05T09:37:45.954Z</time>
      </trkpt>
      <trkpt lat="47.73944" lon="2.12102">
        <ele>125</ele>
        <time>2017-02-05T09:37:46.959Z</time>
      </trkpt>
      <trkpt lat="47.73945" lon="2.12094">
        <ele>125</ele>
        <time>2017-02-05T09:37:47.922Z</time>
      </trkpt>
      <trkpt lat="47.73945" lon="2.12094">
        <ele>125</ele>
        <time>2017-02-05T09:37:48.954Z</time>
      </trkpt>
      <trkpt lat="47.73947" lon="2.12079">
        <ele>125</ele>
        <time>2017-02-05T09:37:49.959Z</time>
      </trkpt>
      <trkpt lat="47.73947" lon="2.12079">
        <ele>125</ele>
        <time>2017-02-05T09:37:50.953Z</time>
      </trkpt>
      <trkpt lat="47.73948" lon="2.12064">
        <ele>125</ele>
        <time>2017-02-05T09:37:51.955Z</time>
      </trkpt>
      <trkpt lat="47.73948" lon="2.12064">
        <ele>125</ele>
        <time>2017-02-05T09:37:52.954Z</time>
      </trkpt>
      <trkpt lat="47.7395" lon="2.12048">
        <ele>125</ele>
        <time>2017-02-05T09:37:53.954Z</time>
      </trkpt>
      <trkpt lat="47.7395" lon="2.12041">
        <ele>125</ele>
        <time>2017-02-05T09:37:54.958Z</time>
      </trkpt>
      <trkpt lat="47.7395" lon="2.12041">
        <ele>125</ele>
        <time>2017-02-05T09:37:55.953Z</time>
      </trkpt>
      <trkpt lat="47.73951" lon="2.12026">
        <ele>125</ele>
        <time>2017-02-05T09:37:56.955Z</time>
      </trkpt>
      <trkpt lat="47.73952" lon="2.12018">
        <ele>125</ele>
        <time>2017-02-05T09:37:57.959Z</time>
      </trkpt>
      <trkpt lat="47.73953" lon="2.12011">
        <ele>125</ele>
        <time>2017-02-05T09:37:58.960Z</time>
      </trkpt>
      <trkpt lat="47.73953" lon="2.12011">
        <ele>125</ele>
        <time>2017-02-05T09:37:59.956Z</time>
      </trkpt>
      <trkpt lat="47.73955" lon="2.11997">
        <ele>125</ele>
        <time>2017-02-05T09:38:00.933Z</time>
      </trkpt>
      <trkpt lat="47.73955" lon="2.11997">
        <ele>125</ele>
        <time>2017-02-05T09:38:01.923Z</time>
      </trkpt>
      <trkpt lat="47.7396" lon="2.11984">
        <ele>125</ele>
        <time>2017-02-05T09:38:02.960Z</time>
      </trkpt>
      <trkpt lat="47.7396" lon="2.11984">
        <ele>125</ele>
        <time>2017-02-05T09:38:03.956Z</time>
      </trkpt>
      <trkpt lat="47.73963" lon="2.1197">
        <ele>125</ele>
        <time>2017-02-05T09:38:04.959Z</time>
      </trkpt>
      <trkpt lat="47.73964" lon="2.11963">
        <ele>125</ele>
        <time>2017-02-05T09:38:05.922Z</time>
      </trkpt>
      <trkpt lat="47.73964" lon="2.11963">
        <ele>125</ele>
        <time>2017-02-05T09:38:06.954Z</time>
      </trkpt>
      <trkpt lat="47.73966" lon="2.11947">
        <ele>125</ele>
        <time>2017-02-05T09:38:07.941Z</time>
      </trkpt>
      <trkpt lat="47.73966" lon="2.11947">
        <ele>125</ele>
        <time>2017-02-05T09:38:08.935Z</time>
      </trkpt>
      <trkpt lat="47.73967" lon="2.11932">
        <ele>124</ele>
        <time>2017-02-05T09:38:09.941Z</time>
      </trkpt>
      <trkpt lat="47.73967" lon="2.11932">
        <ele>124</ele>
        <time>2017-02-05T09:38:10.949Z</time>
      </trkpt>
      <trkpt lat="47.73966" lon="2.11918">
        <ele>124</ele>
        <time>2017-02-05T09:38:11.923Z</time>
      </trkpt>
      <trkpt lat="47.73966" lon="2.11918">
        <ele>124</ele>
        <time>2017-02-05T09:38:12.956Z</time>
      </trkpt>
      <trkpt lat="47.73964" lon="2.11905">
        <ele>124</ele>
        <time>2017-02-05T09:38:13.958Z</time>
      </trkpt>
      <trkpt lat="47.73963" lon="2.11898">
        <ele>123</ele>
        <time>2017-02-05T09:38:14.960Z</time>
      </trkpt>
      <trkpt lat="47.73963" lon="2.11898">
        <ele>123</ele>
        <time>2017-02-05T09:38:15.953Z</time>
      </trkpt>
      <trkpt lat="47.73962" lon="2.11885">
        <ele>123</ele>
        <time>2017-02-05T09:38:16.955Z</time>
      </trkpt>
      <trkpt lat="47.73961" lon="2.1188">
        <ele>123</ele>
        <time>2017-02-05T09:38:17.960Z</time>
      </trkpt>
      <trkpt lat="47.7396" lon="2.11873">
        <ele>123</ele>
        <time>2017-02-05T09:38:18.960Z</time>
      </trkpt>
      <trkpt lat="47.7396" lon="2.11873">
        <ele>123</ele>
        <time>2017-02-05T09:38:19.953Z</time>
      </trkpt>
      <trkpt lat="47.7396" lon="2.11856">
        <ele>122</ele>
        <time>2017-02-05T09:38:20.955Z</time>
      </trkpt>
      <trkpt lat="47.7396" lon="2.11848">
        <ele>122</ele>
        <time>2017-02-05T09:38:21.959Z</time>
      </trkpt>
      <trkpt lat="47.7396" lon="2.1184">
        <ele>122</ele>
        <time>2017-02-05T09:38:22.959Z</time>
      </trkpt>
      <trkpt lat="47.7396" lon="2.1184">
        <ele>122</ele>
        <time>2017-02-05T09:38:23.955Z</time>
      </trkpt>
      <trkpt lat="47.73962" lon="2.11823">
        <ele>122</ele>
        <time>2017-02-05T09:38:24.959Z</time>
      </trkpt>
      <trkpt lat="47.73962" lon="2.11823">
        <ele>122</ele>
        <time>2017-02-05T09:38:25.954Z</time>
      </trkpt>
      <trkpt lat="47.73966" lon="2.11807">
        <ele>122</ele>
        <time>2017-02-05T09:38:26.959Z</time>
      </trkpt>
      <trkpt lat="47.73968" lon="2.11799">
        <ele>122</ele>
        <time>2017-02-05T09:38:27.960Z</time>
      </trkpt>
      <trkpt lat="47.73968" lon="2.11799">
        <ele>122</ele>
        <time>2017-02-05T09:38:28.954Z</time>
      </trkpt>
      <trkpt lat="47.73972" lon="2.11781">
        <ele>122</ele>
        <time>2017-02-05T09:38:29.935Z</time>
      </trkpt>
      <trkpt lat="47.73972" lon="2.11781">
        <ele>122</ele>
        <time>2017-02-05T09:38:30.924Z</time>
      </trkpt>
      <trkpt lat="47.73977" lon="2.11765">
        <ele>121</ele>
        <time>2017-02-05T09:38:31.959Z</time>
      </trkpt>
      <trkpt lat="47.7398" lon="2.1176">
        <ele>122</ele>
        <time>2017-02-05T09:38:32.932Z</time>
      </trkpt>
      <trkpt lat="47.7398" lon="2.1176">
        <ele>122</ele>
        <time>2017-02-05T09:38:33.960Z</time>
      </trkpt>
      <trkpt lat="47.7399" lon="2.11755">
        <ele>122</ele>
        <time>2017-02-05T09:38:34.933Z</time>
      </trkpt>
      <trkpt lat="47.7399" lon="2.11755">
        <ele>122</ele>
        <time>2017-02-05T09:38:35.922Z</time>
      </trkpt>
      <trkpt lat="47.74" lon="2.11752">
        <ele>122</ele>
        <time>2017-02-05T09:38:36.959Z</time>
      </trkpt>
      <trkpt lat="47.74005" lon="2.11752">
        <ele>122</ele>
        <time>2017-02-05T09:38:37.925Z</time>
      </trkpt>
      <trkpt lat="47.74005" lon="2.11752">
        <ele>122</ele>
        <time>2017-02-05T09:38:38.954Z</time>
      </trkpt>
      <trkpt lat="47.74015" lon="2.11753">
        <ele>123</ele>
        <time>2017-02-05T09:38:39.956Z</time>
      </trkpt>
      <trkpt lat="47.74021" lon="2.11755">
        <ele>123</ele>
        <time>2017-02-05T09:38:40.923Z</time>
      </trkpt>
      <trkpt lat="47.74026" lon="2.11757">
        <ele>123</ele>
        <time>2017-02-05T09:38:41.923Z</time>
      </trkpt>
      <trkpt lat="47.74026" lon="2.11757">
        <ele>123</ele>
        <time>2017-02-05T09:38:42.953Z</time>
      </trkpt>
      <trkpt lat="47.74035" lon="2.1176">
        <ele>124</ele>
        <time>2017-02-05T09:38:43.956Z</time>
      </trkpt>
      <trkpt lat="47.74039" lon="2.11762">
        <ele>124</ele>
        <time>2017-02-05T09:38:44.959Z</time>
      </trkpt>
      <trkpt lat="47.74039" lon="2.11762">
        <ele>124</ele>
        <time>2017-02-05T09:38:45.954Z</time>
      </trkpt>
      <trkpt lat="47.74048" lon="2.11763">
        <ele>125</ele>
        <time>2017-02-05T09:38:46.956Z</time>
      </trkpt>
      <trkpt lat="47.74053" lon="2.11763">
        <ele>125</ele>
        <time>2017-02-05T09:38:47.960Z</time>
      </trkpt>
      <trkpt lat="47.74053" lon="2.11763">
        <ele>125</ele>
        <time>2017-02-05T09:38:48.956Z</time>
      </trkpt>
      <trkpt lat="47.74062" lon="2.11761">
        <ele>126</ele>
        <time>2017-02-05T09:38:49.959Z</time>
      </trkpt>
      <trkpt lat="47.74062" lon="2.11761">
        <ele>126</ele>
        <time>2017-02-05T09:38:50.954Z</time>
      </trkpt>
      <trkpt lat="47.7407" lon="2.1176">
        <ele>127</ele>
        <time>2017-02-05T09:38:51.958Z</time>
      </trkpt>
      <trkpt lat="47.74075" lon="2.1176">
        <ele>127</ele>
        <time>2017-02-05T09:38:52.960Z</time>
      </trkpt>
      <trkpt lat="47.74079" lon="2.11759">
        <ele>128</ele>
        <time>2017-02-05T09:38:53.922Z</time>
      </trkpt>
      <trkpt lat="47.74079" lon="2.11759">
        <ele>128</ele>
        <time>2017-02-05T09:38:54.954Z</time>
      </trkpt>
      <trkpt lat="47.74088" lon="2.11757">
        <ele>129</ele>
        <time>2017-02-05T09:38:55.955Z</time>
      </trkpt>
      <trkpt lat="47.74088" lon="2.11757">
        <ele>129</ele>
        <time>2017-02-05T09:38:56.957Z</time>
      </trkpt>
      <trkpt lat="47.74097" lon="2.11757">
        <ele>129</ele>
        <time>2017-02-05T09:38:57.961Z</time>
      </trkpt>
      <trkpt lat="47.74097" lon="2.11757">
        <ele>129</ele>
        <time>2017-02-05T09:38:58.955Z</time>
      </trkpt>
      <trkpt lat="47.74107" lon="2.11757">
        <ele>129</ele>
        <time>2017-02-05T09:38:59.960Z</time>
      </trkpt>
      <trkpt lat="47.74107" lon="2.11757">
        <ele>129</ele>
        <time>2017-02-05T09:39:00.931Z</time>
      </trkpt>
      <trkpt lat="47.74119" lon="2.11758">
        <ele>129</ele>
        <time>2017-02-05T09:39:01.960Z</time>
      </trkpt>
      <trkpt lat="47.74119" lon="2.11758">
        <ele>129</ele>
        <time>2017-02-05T09:39:02.954Z</time>
      </trkpt>
      <trkpt lat="47.74127" lon="2.11757">
        <ele>130</ele>
        <time>2017-02-05T09:39:03.961Z</time>
      </trkpt>
      <trkpt lat="47.74127" lon="2.11757">
        <ele>130</ele>
        <time>2017-02-05T09:39:04.954Z</time>
      </trkpt>
      <trkpt lat="47.74132" lon="2.11752">
        <ele>129</ele>
        <time>2017-02-05T09:39:05.922Z</time>
      </trkpt>
      <trkpt lat="47.74132" lon="2.11752">
        <ele>129</ele>
        <time>2017-02-05T09:39:06.954Z</time>
      </trkpt>
      <trkpt lat="47.74136" lon="2.11741">
        <ele>129</ele>
        <time>2017-02-05T09:39:07.941Z</time>
      </trkpt>
      <trkpt lat="47.74136" lon="2.11741">
        <ele>129</ele>
        <time>2017-02-05T09:39:08.936Z</time>
      </trkpt>
      <trkpt lat="47.74137" lon="2.11728">
        <ele>129</ele>
        <time>2017-02-05T09:39:09.954Z</time>
      </trkpt>
      <trkpt lat="47.74138" lon="2.11722">
        <ele>129</ele>
        <time>2017-02-05T09:39:10.959Z</time>
      </trkpt>
      <trkpt lat="47.74139" lon="2.11715">
        <ele>128</ele>
        <time>2017-02-05T09:39:11.962Z</time>
      </trkpt>
      <trkpt lat="47.74139" lon="2.11715">
        <ele>128</ele>
        <time>2017-02-05T09:39:12.956Z</time>
      </trkpt>
      <trkpt lat="47.74142" lon="2.11702">
        <ele>129</ele>
        <time>2017-02-05T09:39:13.959Z</time>
      </trkpt>
      <trkpt lat="47.74142" lon="2.11702">
        <ele>129</ele>
        <time>2017-02-05T09:39:14.953Z</time>
      </trkpt>
      <trkpt lat="47.74146" lon="2.11688">
        <ele>129</ele>
        <time>2017-02-05T09:39:15.960Z</time>
      </trkpt>
      <trkpt lat="47.74146" lon="2.11688">
        <ele>129</ele>
        <time>2017-02-05T09:39:16.956Z</time>
      </trkpt>
      <trkpt lat="47.7415" lon="2.11674">
        <ele>128</ele>
        <time>2017-02-05T09:39:17.961Z</time>
      </trkpt>
      <trkpt lat="47.7415" lon="2.11674">
        <ele>128</ele>
        <time>2017-02-05T09:39:18.953Z</time>
      </trkpt>
      <trkpt lat="47.74154" lon="2.11661">
        <ele>128</ele>
        <time>2017-02-05T09:39:19.959Z</time>
      </trkpt>
      <trkpt lat="47.74154" lon="2.11661">
        <ele>128</ele>
        <time>2017-02-05T09:39:20.955Z</time>
      </trkpt>
      <trkpt lat="47.74158" lon="2.11647">
        <ele>127</ele>
        <time>2017-02-05T09:39:21.959Z</time>
      </trkpt>
      <trkpt lat="47.7416" lon="2.11641">
        <ele>127</ele>
        <time>2017-02-05T09:39:22.959Z</time>
      </trkpt>
      <trkpt lat="47.74163" lon="2.11634">
        <ele>127</ele>
        <time>2017-02-05T09:39:23.960Z</time>
      </trkpt>
      <trkpt lat="47.74163" lon="2.11634">
        <ele>127</ele>
        <time>2017-02-05T09:39:24.931Z</time>
      </trkpt>
      <trkpt lat="47.74169" lon="2.11623">
        <ele>127</ele>
        <time>2017-02-05T09:39:25.959Z</time>
      </trkpt>
      <trkpt lat="47.74169" lon="2.11623">
        <ele>127</ele>
        <time>2017-02-05T09:39:26.954Z</time>
      </trkpt>
      <trkpt lat="47.74176" lon="2.11614">
        <ele>127</ele>
        <time>2017-02-05T09:39:27.960Z</time>
      </trkpt>
      <trkpt lat="47.74176" lon="2.11614">
        <ele>127</ele>
        <time>2017-02-05T09:39:28.954Z</time>
      </trkpt>
      <trkpt lat="47.74183" lon="2.11605">
        <ele>127</ele>
        <time>2017-02-05T09:39:29.935Z</time>
      </trkpt>
      <trkpt lat="47.74183" lon="2.11605">
        <ele>127</ele>
        <time>2017-02-05T09:39:30.923Z</time>
      </trkpt>
      <trkpt lat="47.7419" lon="2.11596">
        <ele>127</ele>
        <time>2017-02-05T09:39:31.959Z</time>
      </trkpt>
      <trkpt lat="47.74194" lon="2.11592">
        <ele>127</ele>
        <time>2017-02-05T09:39:32.960Z</time>
      </trkpt>
      <trkpt lat="47.74198" lon="2.11588">
        <ele>126</ele>
        <time>2017-02-05T09:39:33.925Z</time>
      </trkpt>
      <trkpt lat="47.74198" lon="2.11588">
        <ele>126</ele>
        <time>2017-02-05T09:39:34.933Z</time>
      </trkpt>
      <trkpt lat="47.74207" lon="2.11579">
        <ele>126</ele>
        <time>2017-02-05T09:39:35.923Z</time>
      </trkpt>
      <trkpt lat="47.74207" lon="2.11579">
        <ele>126</ele>
        <time>2017-02-05T09:39:36.954Z</time>
      </trkpt>
      <trkpt lat="47.74216" lon="2.11568">
        <ele>127</ele>
        <time>2017-02-05T09:39:37.959Z</time>
      </trkpt>
      <trkpt lat="47.74216" lon="2.11568">
        <ele>127</ele>
        <time>2017-02-05T09:39:38.955Z</time>
      </trkpt>
      <trkpt lat="47.74225" lon="2.11557">
        <ele>127</ele>
        <time>2017-02-05T09:39:39.962Z</time>
      </trkpt>
      <trkpt lat="47.74225" lon="2.11557">
        <ele>127</ele>
        <time>2017-02-05T09:39:40.954Z</time>
      </trkpt>
      <trkpt lat="47.74232" lon="2.11544">
        <ele>126</ele>
        <time>2017-02-05T09:39:41.956Z</time>
      </trkpt>
      <trkpt lat="47.74235" lon="2.11537">
        <ele>126</ele>
        <time>2017-02-05T09:39:42.960Z</time>
      </trkpt>
      <trkpt lat="47.74239" lon="2.11531">
        <ele>127</ele>
        <time>2017-02-05T09:39:43.959Z</time>
      </trkpt>
      <trkpt lat="47.74239" lon="2.11531">
        <ele>127</ele>
        <time>2017-02-05T09:39:44.949Z</time>
      </trkpt>
      <trkpt lat="47.74246" lon="2.11519">
        <ele>126</ele>
        <time>2017-02-05T09:39:45.959Z</time>
      </trkpt>
      <trkpt lat="47.74246" lon="2.11519">
        <ele>126</ele>
        <time>2017-02-05T09:39:46.958Z</time>
      </trkpt>
      <trkpt lat="47.74253" lon="2.11506">
        <ele>126</ele>
        <time>2017-02-05T09:39:47.961Z</time>
      </trkpt>
      <trkpt lat="47.74253" lon="2.11506">
        <ele>126</ele>
        <time>2017-02-05T09:39:48.955Z</time>
      </trkpt>
      <trkpt lat="47.74259" lon="2.11494">
        <ele>126</ele>
        <time>2017-02-05T09:39:49.961Z</time>
      </trkpt>
      <trkpt lat="47.74259" lon="2.11494">
        <ele>126</ele>
        <time>2017-02-05T09:39:50.955Z</time>
      </trkpt>
      <trkpt lat="47.74266" lon="2.11482">
        <ele>126</ele>
        <time>2017-02-05T09:39:51.961Z</time>
      </trkpt>
      <trkpt lat="47.74266" lon="2.11482">
        <ele>126</ele>
        <time>2017-02-05T09:39:52.953Z</time>
      </trkpt>
      <trkpt lat="47.74273" lon="2.1147">
        <ele>126</ele>
        <time>2017-02-05T09:39:53.922Z</time>
      </trkpt>
      <trkpt lat="47.74273" lon="2.1147">
        <ele>126</ele>
        <time>2017-02-05T09:39:54.949Z</time>
      </trkpt>
      <trkpt lat="47.74281" lon="2.11458">
        <ele>126</ele>
        <time>2017-02-05T09:39:55.961Z</time>
      </trkpt>
      <trkpt lat="47.74281" lon="2.11458">
        <ele>126</ele>
        <time>2017-02-05T09:39:56.954Z</time>
      </trkpt>
      <trkpt lat="47.74288" lon="2.11446">
        <ele>126</ele>
        <time>2017-02-05T09:39:57.959Z</time>
      </trkpt>
      <trkpt lat="47.74288" lon="2.11446">
        <ele>126</ele>
        <time>2017-02-05T09:39:58.955Z</time>
      </trkpt>
      <trkpt lat="47.74296" lon="2.11434">
        <ele>126</ele>
        <time>2017-02-05T09:39:59.960Z</time>
      </trkpt>
      <trkpt lat="47.743" lon="2.11428">
        <ele>126</ele>
        <time>2017-02-05T09:40:00.939Z</time>
      </trkpt>
      <trkpt lat="47.743" lon="2.11428">
        <ele>126</ele>
        <time>2017-02-05T09:40:01.951Z</time>
      </trkpt>
      <trkpt lat="47.74309" lon="2.11416">
        <ele>126</ele>
        <time>2017-02-05T09:40:02.922Z</time>
      </trkpt>
      <trkpt lat="47.74309" lon="2.11416">
        <ele>126</ele>
        <time>2017-02-05T09:40:03.954Z</time>
      </trkpt>
      <trkpt lat="47.74317" lon="2.11405">
        <ele>125</ele>
        <time>2017-02-05T09:40:04.928Z</time>
      </trkpt>
      <trkpt lat="47.74322" lon="2.11399">
        <ele>126</ele>
        <time>2017-02-05T09:40:05.922Z</time>
      </trkpt>
      <trkpt lat="47.74322" lon="2.11399">
        <ele>126</ele>
        <time>2017-02-05T09:40:06.956Z</time>
      </trkpt>
      <trkpt lat="47.7433" lon="2.11389">
        <ele>126</ele>
        <time>2017-02-05T09:40:07.941Z</time>
      </trkpt>
      <trkpt lat="47.74335" lon="2.11384">
        <ele>126</ele>
        <time>2017-02-05T09:40:08.935Z</time>
      </trkpt>
      <trkpt lat="47.74335" lon="2.11384">
        <ele>126</ele>
        <time>2017-02-05T09:40:09.949Z</time>
      </trkpt>
      <trkpt lat="47.74343" lon="2.11376">
        <ele>125</ele>
        <time>2017-02-05T09:40:10.955Z</time>
      </trkpt>
      <trkpt lat="47.74348" lon="2.11373">
        <ele>125</ele>
        <time>2017-02-05T09:40:11.922Z</time>
      </trkpt>
      <trkpt lat="47.74348" lon="2.11373">
        <ele>125</ele>
        <time>2017-02-05T09:40:12.954Z</time>
      </trkpt>
      <trkpt lat="47.74357" lon="2.11366">
        <ele>125</ele>
        <time>2017-02-05T09:40:13.933Z</time>
      </trkpt>
      <trkpt lat="47.74357" lon="2.11366">
        <ele>125</ele>
        <time>2017-02-05T09:40:14.935Z</time>
      </trkpt>
      <trkpt lat="47.74367" lon="2.11357">
        <ele>125</ele>
        <time>2017-02-05T09:40:15.928Z</time>
      </trkpt>
      <trkpt lat="47.74367" lon="2.11357">
        <ele>125</ele>
        <time>2017-02-05T09:40:16.955Z</time>
      </trkpt>
      <trkpt lat="47.74377" lon="2.11348">
        <ele>125</ele>
        <time>2017-02-05T09:40:17.922Z</time>
      </trkpt>
      <trkpt lat="47.74377" lon="2.11348">
        <ele>125</ele>
        <time>2017-02-05T09:40:18.959Z</time>
      </trkpt>
      <trkpt lat="47.74389" lon="2.11342">
        <ele>125</ele>
        <time>2017-02-05T09:40:19.961Z</time>
      </trkpt>
      <trkpt lat="47.74389" lon="2.11342">
        <ele>125</ele>
        <time>2017-02-05T09:40:20.955Z</time>
      </trkpt>
      <trkpt lat="47.74402" lon="2.11341">
        <ele>125</ele>
        <time>2017-02-05T09:40:21.960Z</time>
      </trkpt>
      <trkpt lat="47.74402" lon="2.11341">
        <ele>125</ele>
        <time>2017-02-05T09:40:22.954Z</time>
      </trkpt>
      <trkpt lat="47.74415" lon="2.11343">
        <ele>126</ele>
        <time>2017-02-05T09:40:23.961Z</time>
      </trkpt>
      <trkpt lat="47.74415" lon="2.11343">
        <ele>126</ele>
        <time>2017-02-05T09:40:24.926Z</time>
      </trkpt>
      <trkpt lat="47.74427" lon="2.11345">
        <ele>126</ele>
        <time>2017-02-05T09:40:25.922Z</time>
      </trkpt>
      <trkpt lat="47.74427" lon="2.11345">
        <ele>126</ele>
        <time>2017-02-05T09:40:26.954Z</time>
      </trkpt>
      <trkpt lat="47.74439" lon="2.11347">
        <ele>126</ele>
        <time>2017-02-05T09:40:27.961Z</time>
      </trkpt>
      <trkpt lat="47.74439" lon="2.11347">
        <ele>126</ele>
        <time>2017-02-05T09:40:28.955Z</time>
      </trkpt>
      <trkpt lat="47.74451" lon="2.11349">
        <ele>126</ele>
        <time>2017-02-05T09:40:29.922Z</time>
      </trkpt>
      <trkpt lat="47.74451" lon="2.11349">
        <ele>126</ele>
        <time>2017-02-05T09:40:30.955Z</time>
      </trkpt>
      <trkpt lat="47.74464" lon="2.1135">
        <ele>126</ele>
        <time>2017-02-05T09:40:31.922Z</time>
      </trkpt>
      <trkpt lat="47.74464" lon="2.1135">
        <ele>126</ele>
        <time>2017-02-05T09:40:32.954Z</time>
      </trkpt>
      <trkpt lat="47.74475" lon="2.11351">
        <ele>127</ele>
        <time>2017-02-05T09:40:33.922Z</time>
      </trkpt>
      <trkpt lat="47.74475" lon="2.11351">
        <ele>127</ele>
        <time>2017-02-05T09:40:34.955Z</time>
      </trkpt>
      <trkpt lat="47.74488" lon="2.11355">
        <ele>128</ele>
        <time>2017-02-05T09:40:35.936Z</time>
      </trkpt>
      <trkpt lat="47.74494" lon="2.11356">
        <ele>129</ele>
        <time>2017-02-05T09:40:36.950Z</time>
      </trkpt>
      <trkpt lat="47.74494" lon="2.11356">
        <ele>129</ele>
        <time>2017-02-05T09:40:37.955Z</time>
      </trkpt>
      <trkpt lat="47.74505" lon="2.11359">
        <ele>129</ele>
        <time>2017-02-05T09:40:38.935Z</time>
      </trkpt>
      <trkpt lat="47.7451" lon="2.1136">
        <ele>130</ele>
        <time>2017-02-05T09:40:39.922Z</time>
      </trkpt>
      <trkpt lat="47.7451" lon="2.1136">
        <ele>130</ele>
        <time>2017-02-05T09:40:40.955Z</time>
      </trkpt>
      <trkpt lat="47.74522" lon="2.11363">
        <ele>130</ele>
        <time>2017-02-05T09:40:41.961Z</time>
      </trkpt>
      <trkpt lat="47.74522" lon="2.11363">
        <ele>130</ele>
        <time>2017-02-05T09:40:42.956Z</time>
      </trkpt>
      <trkpt lat="47.74534" lon="2.11365">
        <ele>131</ele>
        <time>2017-02-05T09:40:43.961Z</time>
      </trkpt>
      <trkpt lat="47.74534" lon="2.11365">
        <ele>131</ele>
        <time>2017-02-05T09:40:44.958Z</time>
      </trkpt>
      <trkpt lat="47.74546" lon="2.11368">
        <ele>131</ele>
        <time>2017-02-05T09:40:45.961Z</time>
      </trkpt>
      <trkpt lat="47.74546" lon="2.11368">
        <ele>131</ele>
        <time>2017-02-05T09:40:46.954Z</time>
      </trkpt>
      <trkpt lat="47.74558" lon="2.1137">
        <ele>132</ele>
        <time>2017-02-05T09:40:47.961Z</time>
      </trkpt>
      <trkpt lat="47.74558" lon="2.1137">
        <ele>132</ele>
        <time>2017-02-05T09:40:48.955Z</time>
      </trkpt>
      <trkpt lat="47.74571" lon="2.11372">
        <ele>133</ele>
        <time>2017-02-05T09:40:49.935Z</time>
      </trkpt>
      <trkpt lat="47.74571" lon="2.11372">
        <ele>133</ele>
        <time>2017-02-05T09:40:50.923Z</time>
      </trkpt>
      <trkpt lat="47.74585" lon="2.11375">
        <ele>133</ele>
        <time>2017-02-05T09:40:51.961Z</time>
      </trkpt>
      <trkpt lat="47.74585" lon="2.11375">
        <ele>133</ele>
        <time>2017-02-05T09:40:52.954Z</time>
      </trkpt>
      <trkpt lat="47.74598" lon="2.11377">
        <ele>133</ele>
        <time>2017-02-05T09:40:53.923Z</time>
      </trkpt>
      <trkpt lat="47.74598" lon="2.11377">
        <ele>133</ele>
        <time>2017-02-05T09:40:54.938Z</time>
      </trkpt>
      <trkpt lat="47.74609" lon="2.11382">
        <ele>131</ele>
        <time>2017-02-05T09:40:55.930Z</time>
      </trkpt>
      <trkpt lat="47.74609" lon="2.11382">
        <ele>131</ele>
        <time>2017-02-05T09:40:56.958Z</time>
      </trkpt>
      <trkpt lat="47.7462" lon="2.11385">
        <ele>130</ele>
        <time>2017-02-05T09:40:57.960Z</time>
      </trkpt>
      <trkpt lat="47.7462" lon="2.11385">
        <ele>130</ele>
        <time>2017-02-05T09:40:58.955Z</time>
      </trkpt>
      <trkpt lat="47.74632" lon="2.11389">
        <ele>130</ele>
        <time>2017-02-05T09:40:59.935Z</time>
      </trkpt>
      <trkpt lat="47.74632" lon="2.11389">
        <ele>130</ele>
        <time>2017-02-05T09:41:00.930Z</time>
      </trkpt>
      <trkpt lat="47.74647" lon="2.11394">
        <ele>129</ele>
        <time>2017-02-05T09:41:01.922Z</time>
      </trkpt>
      <trkpt lat="47.74653" lon="2.11396">
        <ele>129</ele>
        <time>2017-02-05T09:41:02.922Z</time>
      </trkpt>
      <trkpt lat="47.74653" lon="2.11396">
        <ele>129</ele>
        <time>2017-02-05T09:41:03.955Z</time>
      </trkpt>
      <trkpt lat="47.74671" lon="2.11401">
        <ele>128</ele>
        <time>2017-02-05T09:41:04.922Z</time>
      </trkpt>
      <trkpt lat="47.74679" lon="2.114">
        <ele>127</ele>
        <time>2017-02-05T09:41:05.922Z</time>
      </trkpt>
      <trkpt lat="47.74679" lon="2.114">
        <ele>127</ele>
        <time>2017-02-05T09:41:06.955Z</time>
      </trkpt>
      <trkpt lat="47.74692" lon="2.114">
        <ele>126</ele>
        <time>2017-02-05T09:41:07.943Z</time>
      </trkpt>
      <trkpt lat="47.74698" lon="2.11399">
        <ele>127</ele>
        <time>2017-02-05T09:41:08.938Z</time>
      </trkpt>
      <trkpt lat="47.74704" lon="2.11399">
        <ele>127</ele>
        <time>2017-02-05T09:41:09.944Z</time>
      </trkpt>
      <trkpt lat="47.74704" lon="2.11399">
        <ele>127</ele>
        <time>2017-02-05T09:41:10.950Z</time>
      </trkpt>
      <trkpt lat="47.74717" lon="2.11397">
        <ele>128</ele>
        <time>2017-02-05T09:41:11.923Z</time>
      </trkpt>
      <trkpt lat="47.74717" lon="2.11397">
        <ele>128</ele>
        <time>2017-02-05T09:41:12.955Z</time>
      </trkpt>
      <trkpt lat="47.74728" lon="2.11393">
        <ele>128</ele>
        <time>2017-02-05T09:41:13.961Z</time>
      </trkpt>
      <trkpt lat="47.74728" lon="2.11393">
        <ele>128</ele>
        <time>2017-02-05T09:41:14.954Z</time>
      </trkpt>
      <trkpt lat="47.74738" lon="2.1139">
        <ele>130</ele>
        <time>2017-02-05T09:41:15.922Z</time>
      </trkpt>
      <trkpt lat="47.74743" lon="2.11389">
        <ele>130</ele>
        <time>2017-02-05T09:41:16.961Z</time>
      </trkpt>
      <trkpt lat="47.74749" lon="2.11388">
        <ele>131</ele>
        <time>2017-02-05T09:41:17.923Z</time>
      </trkpt>
      <trkpt lat="47.74749" lon="2.11388">
        <ele>131</ele>
        <time>2017-02-05T09:41:18.955Z</time>
      </trkpt>
      <trkpt lat="47.74762" lon="2.11384">
        <ele>133</ele>
        <time>2017-02-05T09:41:19.960Z</time>
      </trkpt>
      <trkpt lat="47.74768" lon="2.11383">
        <ele>134</ele>
        <time>2017-02-05T09:41:20.922Z</time>
      </trkpt>
      <trkpt lat="47.74768" lon="2.11383">
        <ele>134</ele>
        <time>2017-02-05T09:41:21.955Z</time>
      </trkpt>
      <trkpt lat="47.74781" lon="2.1138">
        <ele>135</ele>
        <time>2017-02-05T09:41:22.960Z</time>
      </trkpt>
      <trkpt lat="47.74788" lon="2.11379">
        <ele>135</ele>
        <time>2017-02-05T09:41:23.961Z</time>
      </trkpt>
      <trkpt lat="47.74788" lon="2.11379">
        <ele>135</ele>
        <time>2017-02-05T09:41:24.955Z</time>
      </trkpt>
      <trkpt lat="47.74801" lon="2.11376">
        <ele>132</ele>
        <time>2017-02-05T09:41:25.957Z</time>
      </trkpt>
      <trkpt lat="47.74801" lon="2.11376">
        <ele>132</ele>
        <time>2017-02-05T09:41:26.947Z</time>
      </trkpt>
      <trkpt lat="47.74813" lon="2.11375">
        <ele>133</ele>
        <time>2017-02-05T09:41:27.935Z</time>
      </trkpt>
      <trkpt lat="47.74813" lon="2.11375">
        <ele>133</ele>
        <time>2017-02-05T09:41:28.933Z</time>
      </trkpt>
      <trkpt lat="47.74825" lon="2.11373">
        <ele>134</ele>
        <time>2017-02-05T09:41:29.923Z</time>
      </trkpt>
      <trkpt lat="47.74831" lon="2.11372">
        <ele>135</ele>
        <time>2017-02-05T09:41:30.961Z</time>
      </trkpt>
      <trkpt lat="47.74831" lon="2.11372">
        <ele>135</ele>
        <time>2017-02-05T09:41:31.955Z</time>
      </trkpt>
      <trkpt lat="47.74847" lon="2.11372">
        <ele>133</ele>
        <time>2017-02-05T09:41:32.961Z</time>
      </trkpt>
      <trkpt lat="47.74847" lon="2.11372">
        <ele>133</ele>
        <time>2017-02-05T09:41:33.955Z</time>
      </trkpt>
      <trkpt lat="47.74862" lon="2.11374">
        <ele>133</ele>
        <time>2017-02-05T09:41:34.937Z</time>
      </trkpt>
      <trkpt lat="47.74862" lon="2.11374">
        <ele>133</ele>
        <time>2017-02-05T09:41:35.926Z</time>
      </trkpt>
      <trkpt lat="47.74875" lon="2.11377">
        <ele>132</ele>
        <time>2017-02-05T09:41:36.961Z</time>
      </trkpt>
      <trkpt lat="47.74883" lon="2.11378">
        <ele>132</ele>
        <time>2017-02-05T09:41:37.961Z</time>
      </trkpt>
      <trkpt lat="47.74883" lon="2.11378">
        <ele>132</ele>
        <time>2017-02-05T09:41:38.955Z</time>
      </trkpt>
      <trkpt lat="47.74896" lon="2.11383">
        <ele>131</ele>
        <time>2017-02-05T09:41:39.960Z</time>
      </trkpt>
      <trkpt lat="47.74896" lon="2.11383">
        <ele>131</ele>
        <time>2017-02-05T09:41:40.955Z</time>
      </trkpt>
      <trkpt lat="47.74908" lon="2.1139">
        <ele>130</ele>
        <time>2017-02-05T09:41:41.922Z</time>
      </trkpt>
      <trkpt lat="47.74908" lon="2.1139">
        <ele>130</ele>
        <time>2017-02-05T09:41:42.956Z</time>
      </trkpt>
      <trkpt lat="47.74922" lon="2.11398">
        <ele>130</ele>
        <time>2017-02-05T09:41:43.959Z</time>
      </trkpt>
      <trkpt lat="47.74922" lon="2.11398">
        <ele>130</ele>
        <time>2017-02-05T09:41:44.955Z</time>
      </trkpt>
      <trkpt lat="47.74935" lon="2.11406">
        <ele>130</ele>
        <time>2017-02-05T09:41:45.954Z</time>
      </trkpt>
      <trkpt lat="47.74942" lon="2.11409">
        <ele>130</ele>
        <time>2017-02-05T09:41:46.922Z</time>
      </trkpt>
      <trkpt lat="47.74948" lon="2.11414">
        <ele>130</ele>
        <time>2017-02-05T09:41:47.961Z</time>
      </trkpt>
      <trkpt lat="47.74948" lon="2.11414">
        <ele>130</ele>
        <time>2017-02-05T09:41:48.955Z</time>
      </trkpt>
      <trkpt lat="47.74961" lon="2.11421">
        <ele>130</ele>
        <time>2017-02-05T09:41:49.961Z</time>
      </trkpt>
      <trkpt lat="47.74961" lon="2.11421">
        <ele>130</ele>
        <time>2017-02-05T09:41:50.955Z</time>
      </trkpt>
      <trkpt lat="47.74975" lon="2.11429">
        <ele>130</ele>
        <time>2017-02-05T09:41:51.959Z</time>
      </trkpt>
      <trkpt lat="47.74975" lon="2.11429">
        <ele>130</ele>
        <time>2017-02-05T09:41:52.955Z</time>
      </trkpt>
      <trkpt lat="47.74988" lon="2.11438">
        <ele>130</ele>
        <time>2017-02-05T09:41:53.961Z</time>
      </trkpt>
      <trkpt lat="47.74988" lon="2.11438">
        <ele>130</ele>
        <time>2017-02-05T09:41:54.955Z</time>
      </trkpt>
      <trkpt lat="47.74998" lon="2.11447">
        <ele>130</ele>
        <time>2017-02-05T09:41:55.960Z</time>
      </trkpt>
      <trkpt lat="47.75005" lon="2.11451">
        <ele>130</ele>
        <time>2017-02-05T09:41:56.922Z</time>
      </trkpt>
      <trkpt lat="47.75011" lon="2.11454">
        <ele>130</ele>
        <time>2017-02-05T09:41:57.961Z</time>
      </trkpt>
      <trkpt lat="47.75011" lon="2.11454">
        <ele>130</ele>
        <time>2017-02-05T09:41:58.955Z</time>
      </trkpt>
      <trkpt lat="47.75025" lon="2.1146">
        <ele>130</ele>
        <time>2017-02-05T09:41:59.935Z</time>
      </trkpt>
      <trkpt lat="47.75025" lon="2.1146">
        <ele>130</ele>
        <time>2017-02-05T09:42:00.924Z</time>
      </trkpt>
      <trkpt lat="47.75038" lon="2.11463">
        <ele>131</ele>
        <time>2017-02-05T09:42:01.929Z</time>
      </trkpt>
      <trkpt lat="47.75045" lon="2.11464">
        <ele>131</ele>
        <time>2017-02-05T09:42:02.960Z</time>
      </trkpt>
      <trkpt lat="47.75045" lon="2.11464">
        <ele>131</ele>
        <time>2017-02-05T09:42:03.955Z</time>
      </trkpt>
      <trkpt lat="47.75059" lon="2.11464">
        <ele>132</ele>
        <time>2017-02-05T09:42:04.961Z</time>
      </trkpt>
      <trkpt lat="47.75066" lon="2.11463">
        <ele>132</ele>
        <time>2017-02-05T09:42:05.922Z</time>
      </trkpt>
      <trkpt lat="47.75066" lon="2.11463">
        <ele>132</ele>
        <time>2017-02-05T09:42:06.958Z</time>
      </trkpt>
      <trkpt lat="47.7508" lon="2.11461">
        <ele>133</ele>
        <time>2017-02-05T09:42:07.940Z</time>
      </trkpt>
      <trkpt lat="47.75086" lon="2.11461">
        <ele>133</ele>
        <time>2017-02-05T09:42:08.938Z</time>
      </trkpt>
      <trkpt lat="47.75086" lon="2.11461">
        <ele>133</ele>
        <time>2017-02-05T09:42:09.926Z</time>
      </trkpt>
      <trkpt lat="47.75099" lon="2.11461">
        <ele>134</ele>
        <time>2017-02-05T09:42:10.960Z</time>
      </trkpt>
      <trkpt lat="47.75099" lon="2.11461">
        <ele>134</ele>
        <time>2017-02-05T09:42:11.956Z</time>
      </trkpt>
      <trkpt lat="47.75113" lon="2.1146">
        <ele>135</ele>
        <time>2017-02-05T09:42:12.923Z</time>
      </trkpt>
      <trkpt lat="47.75113" lon="2.1146">
        <ele>135</ele>
        <time>2017-02-05T09:42:13.959Z</time>
      </trkpt>
      <trkpt lat="47.75126" lon="2.11457">
        <ele>136</ele>
        <time>2017-02-05T09:42:14.922Z</time>
      </trkpt>
      <trkpt lat="47.75126" lon="2.11457">
        <ele>136</ele>
        <time>2017-02-05T09:42:15.956Z</time>
      </trkpt>
      <trkpt lat="47.75139" lon="2.11455">
        <ele>137</ele>
        <time>2017-02-05T09:42:16.923Z</time>
      </trkpt>
      <trkpt lat="47.75145" lon="2.11454">
        <ele>138</ele>
        <time>2017-02-05T09:42:17.961Z</time>
      </trkpt>
      <trkpt lat="47.75145" lon="2.11454">
        <ele>138</ele>
        <time>2017-02-05T09:42:18.957Z</time>
      </trkpt>
      <trkpt lat="47.75158" lon="2.11452">
        <ele>138</ele>
        <time>2017-02-05T09:42:19.960Z</time>
      </trkpt>
      <trkpt lat="47.75158" lon="2.11452">
        <ele>138</ele>
        <time>2017-02-05T09:42:20.955Z</time>
      </trkpt>
      <trkpt lat="47.7517" lon="2.11451">
        <ele>139</ele>
        <time>2017-02-05T09:42:21.923Z</time>
      </trkpt>
      <trkpt lat="47.75177" lon="2.11451">
        <ele>139</ele>
        <time>2017-02-05T09:42:22.923Z</time>
      </trkpt>
      <trkpt lat="47.75184" lon="2.1145">
        <ele>139</ele>
        <time>2017-02-05T09:42:23.922Z</time>
      </trkpt>
      <trkpt lat="47.75184" lon="2.1145">
        <ele>139</ele>
        <time>2017-02-05T09:42:24.955Z</time>
      </trkpt>
      <trkpt lat="47.75196" lon="2.11447">
        <ele>140</ele>
        <time>2017-02-05T09:42:25.931Z</time>
      </trkpt>
      <trkpt lat="47.75196" lon="2.11447">
        <ele>140</ele>
        <time>2017-02-05T09:42:26.958Z</time>
      </trkpt>
      <trkpt lat="47.75209" lon="2.11445">
        <ele>142</ele>
        <time>2017-02-05T09:42:27.960Z</time>
      </trkpt>
      <trkpt lat="47.75209" lon="2.11445">
        <ele>142</ele>
        <time>2017-02-05T09:42:28.955Z</time>
      </trkpt>
      <trkpt lat="47.75222" lon="2.11443">
        <ele>142</ele>
        <time>2017-02-05T09:42:29.935Z</time>
      </trkpt>
      <trkpt lat="47.75222" lon="2.11443">
        <ele>142</ele>
        <time>2017-02-05T09:42:30.924Z</time>
      </trkpt>
      <trkpt lat="47.75233" lon="2.1144">
        <ele>143</ele>
        <time>2017-02-05T09:42:31.960Z</time>
      </trkpt>
      <trkpt lat="47.75239" lon="2.11439">
        <ele>143</ele>
        <time>2017-02-05T09:42:32.960Z</time>
      </trkpt>
      <trkpt lat="47.75239" lon="2.11439">
        <ele>143</ele>
        <time>2017-02-05T09:42:33.955Z</time>
      </trkpt>
      <trkpt lat="47.75252" lon="2.11436">
        <ele>145</ele>
        <time>2017-02-05T09:42:34.933Z</time>
      </trkpt>
      <trkpt lat="47.75252" lon="2.11436">
        <ele>145</ele>
        <time>2017-02-05T09:42:35.923Z</time>
      </trkpt>
      <trkpt lat="47.75263" lon="2.11435">
        <ele>145</ele>
        <time>2017-02-05T09:42:36.922Z</time>
      </trkpt>
      <trkpt lat="47.75263" lon="2.11435">
        <ele>145</ele>
        <time>2017-02-05T09:42:37.954Z</time>
      </trkpt>
      <trkpt lat="47.75274" lon="2.11431">
        <ele>145</ele>
        <time>2017-02-05T09:42:38.961Z</time>
      </trkpt>
      <trkpt lat="47.75274" lon="2.11431">
        <ele>145</ele>
        <time>2017-02-05T09:42:39.955Z</time>
      </trkpt>
      <trkpt lat="47.75281" lon="2.11422">
        <ele>144</ele>
        <time>2017-02-05T09:42:40.922Z</time>
      </trkpt>
      <trkpt lat="47.75283" lon="2.11416">
        <ele>143</ele>
        <time>2017-02-05T09:42:41.923Z</time>
      </trkpt>
      <trkpt lat="47.75283" lon="2.11416">
        <ele>143</ele>
        <time>2017-02-05T09:42:42.955Z</time>
      </trkpt>
      <trkpt lat="47.75283" lon="2.11401">
        <ele>142</ele>
        <time>2017-02-05T09:42:43.961Z</time>
      </trkpt>
      <trkpt lat="47.75283" lon="2.11401">
        <ele>142</ele>
        <time>2017-02-05T09:42:44.958Z</time>
      </trkpt>
      <trkpt lat="47.75279" lon="2.11386">
        <ele>141</ele>
        <time>2017-02-05T09:42:45.961Z</time>
      </trkpt>
      <trkpt lat="47.75279" lon="2.11386">
        <ele>141</ele>
        <time>2017-02-05T09:42:46.954Z</time>
      </trkpt>
      <trkpt lat="47.75274" lon="2.1137">
        <ele>140</ele>
        <time>2017-02-05T09:42:47.922Z</time>
      </trkpt>
      <trkpt lat="47.75274" lon="2.1137">
        <ele>140</ele>
        <time>2017-02-05T09:42:48.961Z</time>
      </trkpt>
      <trkpt lat="47.75268" lon="2.11351">
        <ele>140</ele>
        <time>2017-02-05T09:42:49.922Z</time>
      </trkpt>
      <trkpt lat="47.75268" lon="2.11351">
        <ele>140</ele>
        <time>2017-02-05T09:42:50.955Z</time>
      </trkpt>
      <trkpt lat="47.75263" lon="2.11333">
        <ele>139</ele>
        <time>2017-02-05T09:42:51.940Z</time>
      </trkpt>
      <trkpt lat="47.75263" lon="2.11333">
        <ele>139</ele>
        <time>2017-02-05T09:42:52.928Z</time>
      </trkpt>
      <trkpt lat="47.75258" lon="2.11316">
        <ele>139</ele>
        <time>2017-02-05T09:42:53.923Z</time>
      </trkpt>
      <trkpt lat="47.75258" lon="2.11316">
        <ele>139</ele>
        <time>2017-02-05T09:42:54.958Z</time>
      </trkpt>
      <trkpt lat="47.75252" lon="2.11298">
        <ele>138</ele>
        <time>2017-02-05T09:42:55.923Z</time>
      </trkpt>
      <trkpt lat="47.75252" lon="2.11298">
        <ele>138</ele>
        <time>2017-02-05T09:42:56.957Z</time>
      </trkpt>
      <trkpt lat="47.75248" lon="2.11279">
        <ele>138</ele>
        <time>2017-02-05T09:42:57.923Z</time>
      </trkpt>
      <trkpt lat="47.75248" lon="2.11279">
        <ele>138</ele>
        <time>2017-02-05T09:42:58.955Z</time>
      </trkpt>
      <trkpt lat="47.75242" lon="2.11261">
        <ele>138</ele>
        <time>2017-02-05T09:42:59.935Z</time>
      </trkpt>
      <trkpt lat="47.75242" lon="2.11261">
        <ele>138</ele>
        <time>2017-02-05T09:43:00.924Z</time>
      </trkpt>
      <trkpt lat="47.75236" lon="2.11244">
        <ele>137</ele>
        <time>2017-02-05T09:43:01.933Z</time>
      </trkpt>
      <trkpt lat="47.75233" lon="2.11234">
        <ele>136</ele>
        <time>2017-02-05T09:43:02.923Z</time>
      </trkpt>
      <trkpt lat="47.75233" lon="2.11234">
        <ele>136</ele>
        <time>2017-02-05T09:43:03.956Z</time>
      </trkpt>
      <trkpt lat="47.7523" lon="2.11218">
        <ele>134</ele>
        <time>2017-02-05T09:43:04.961Z</time>
      </trkpt>
      <trkpt lat="47.7523" lon="2.11218">
        <ele>134</ele>
        <time>2017-02-05T09:43:05.959Z</time>
      </trkpt>
      <trkpt lat="47.75225" lon="2.11204">
        <ele>134</ele>
        <time>2017-02-05T09:43:06.929Z</time>
      </trkpt>
      <trkpt lat="47.75225" lon="2.11204">
        <ele>134</ele>
        <time>2017-02-05T09:43:07.943Z</time>
      </trkpt>
      <trkpt lat="47.75221" lon="2.1119">
        <ele>133</ele>
        <time>2017-02-05T09:43:08.939Z</time>
      </trkpt>
      <trkpt lat="47.75221" lon="2.1119">
        <ele>133</ele>
        <time>2017-02-05T09:43:09.950Z</time>
      </trkpt>
      <trkpt lat="47.75217" lon="2.11178">
        <ele>133</ele>
        <time>2017-02-05T09:43:10.956Z</time>
      </trkpt>
      <trkpt lat="47.75215" lon="2.11172">
        <ele>133</ele>
        <time>2017-02-05T09:43:11.923Z</time>
      </trkpt>
      <trkpt lat="47.75215" lon="2.11172">
        <ele>133</ele>
        <time>2017-02-05T09:43:12.956Z</time>
      </trkpt>
      <trkpt lat="47.75212" lon="2.11156">
        <ele>132</ele>
        <time>2017-02-05T09:43:13.961Z</time>
      </trkpt>
      <trkpt lat="47.75212" lon="2.11156">
        <ele>132</ele>
        <time>2017-02-05T09:43:14.958Z</time>
      </trkpt>
      <trkpt lat="47.75213" lon="2.11137">
        <ele>132</ele>
        <time>2017-02-05T09:43:15.960Z</time>
      </trkpt>
      <trkpt lat="47.75213" lon="2.11129">
        <ele>132</ele>
        <time>2017-02-05T09:43:16.925Z</time>
      </trkpt>
      <trkpt lat="47.75213" lon="2.11129">
        <ele>132</ele>
        <time>2017-02-05T09:43:17.960Z</time>
      </trkpt>
      <trkpt lat="47.75216" lon="2.11114">
        <ele>132</ele>
        <time>2017-02-05T09:43:18.937Z</time>
      </trkpt>
      <trkpt lat="47.75218" lon="2.11106">
        <ele>132</ele>
        <time>2017-02-05T09:43:19.923Z</time>
      </trkpt>
      <trkpt lat="47.75218" lon="2.11106">
        <ele>132</ele>
        <time>2017-02-05T09:43:20.958Z</time>
      </trkpt>
      <trkpt lat="47.75222" lon="2.11091">
        <ele>132</ele>
        <time>2017-02-05T09:43:21.922Z</time>
      </trkpt>
      <trkpt lat="47.75222" lon="2.11091">
        <ele>132</ele>
        <time>2017-02-05T09:43:22.958Z</time>
      </trkpt>
      <trkpt lat="47.75226" lon="2.11077">
        <ele>132</ele>
        <time>2017-02-05T09:43:23.923Z</time>
      </trkpt>
      <trkpt lat="47.75226" lon="2.11077">
        <ele>132</ele>
        <time>2017-02-05T09:43:24.958Z</time>
      </trkpt>
      <trkpt lat="47.7523" lon="2.11064">
        <ele>132</ele>
        <time>2017-02-05T09:43:25.961Z</time>
      </trkpt>
      <trkpt lat="47.7523" lon="2.11064">
        <ele>132</ele>
        <time>2017-02-05T09:43:26.961Z</time>
      </trkpt>
      <trkpt lat="47.75233" lon="2.11051">
        <ele>132</ele>
        <time>2017-02-05T09:43:27.922Z</time>
      </trkpt>
      <trkpt lat="47.75233" lon="2.11051">
        <ele>132</ele>
        <time>2017-02-05T09:43:28.959Z</time>
      </trkpt>
      <trkpt lat="47.75236" lon="2.1104">
        <ele>132</ele>
        <time>2017-02-05T09:43:29.922Z</time>
      </trkpt>
      <trkpt lat="47.75236" lon="2.1104">
        <ele>132</ele>
        <time>2017-02-05T09:43:30.960Z</time>
      </trkpt>
      <trkpt lat="47.75239" lon="2.11031">
        <ele>132</ele>
        <time>2017-02-05T09:43:31.960Z</time>
      </trkpt>
      <trkpt lat="47.7524" lon="2.11027">
        <ele>131</ele>
        <time>2017-02-05T09:43:32.961Z</time>
      </trkpt>
      <trkpt lat="47.7524" lon="2.11027">
        <ele>131</ele>
        <time>2017-02-05T09:43:33.958Z</time>
      </trkpt>
      <trkpt lat="47.75242" lon="2.11018">
        <ele>131</ele>
        <time>2017-02-05T09:43:34.960Z</time>
      </trkpt>
      <trkpt lat="47.75244" lon="2.11015">
        <ele>131</ele>
        <time>2017-02-05T09:43:35.922Z</time>
      </trkpt>
      <trkpt lat="47.75244" lon="2.11015">
        <ele>131</ele>
        <time>2017-02-05T09:43:36.936Z</time>
      </trkpt>
      <trkpt lat="47.75246" lon="2.1101">
        <ele>131</ele>
        <time>2017-02-05T09:43:37.927Z</time>
      </trkpt>
      <trkpt lat="47.75247" lon="2.11008">
        <ele>131</ele>
        <time>2017-02-05T09:43:38.935Z</time>
      </trkpt>
      <trkpt lat="47.75247" lon="2.11008">
        <ele>131</ele>
        <time>2017-02-05T09:43:39.926Z</time>
      </trkpt>
      <trkpt lat="47.75248" lon="2.11006">
        <ele>132</ele>
        <time>2017-02-05T09:43:40.922Z</time>
      </trkpt>
      <trkpt lat="47.75248" lon="2.11006">
        <ele>132</ele>
        <time>2017-02-05T09:43:41.922Z</time>
      </trkpt>
      <trkpt lat="47.75248" lon="2.11006">
        <ele>132</ele>
        <time>2017-02-05T09:43:42.960Z</time>
      </trkpt>
      <trkpt lat="47.75247" lon="2.11005">
        <ele>132</ele>
        <time>2017-02-05T09:43:43.961Z</time>
      </trkpt>
      <trkpt lat="47.75247" lon="2.11005">
        <ele>132</ele>
        <time>2017-02-05T09:43:44.935Z</time>
      </trkpt>
      <trkpt lat="47.75257" lon="2.10999">
        <ele>130</ele>
        <time>2017-02-05T09:43:45.941Z</time>
      </trkpt>
      <trkpt lat="47.75257" lon="2.10999">
        <ele>130</ele>
        <time>2017-02-05T09:43:46.938Z</time>
      </trkpt>
      <trkpt lat="47.75267" lon="2.10999">
        <ele>131</ele>
        <time>2017-02-05T09:43:47.929Z</time>
      </trkpt>
      <trkpt lat="47.75271" lon="2.11">
        <ele>131</ele>
        <time>2017-02-05T09:43:48.928Z</time>
      </trkpt>
      <trkpt lat="47.75271" lon="2.11">
        <ele>131</ele>
        <time>2017-02-05T09:43:49.922Z</time>
      </trkpt>
      <trkpt lat="47.7528" lon="2.11002">
        <ele>131</ele>
        <time>2017-02-05T09:43:50.929Z</time>
      </trkpt>
      <trkpt lat="47.7528" lon="2.11002">
        <ele>131</ele>
        <time>2017-02-05T09:43:51.922Z</time>
      </trkpt>
      <trkpt lat="47.75287" lon="2.11005">
        <ele>132</ele>
        <time>2017-02-05T09:43:52.927Z</time>
      </trkpt>
      <trkpt lat="47.75291" lon="2.11007">
        <ele>132</ele>
        <time>2017-02-05T09:43:53.929Z</time>
      </trkpt>
      <trkpt lat="47.75291" lon="2.11007">
        <ele>132</ele>
        <time>2017-02-05T09:43:54.922Z</time>
      </trkpt>
      <trkpt lat="47.75299" lon="2.11011">
        <ele>133</ele>
        <time>2017-02-05T09:43:55.928Z</time>
      </trkpt>
      <trkpt lat="47.75303" lon="2.11013">
        <ele>133</ele>
        <time>2017-02-05T09:43:56.927Z</time>
      </trkpt>
      <trkpt lat="47.75303" lon="2.11013">
        <ele>133</ele>
        <time>2017-02-05T09:43:57.961Z</time>
      </trkpt>
      <trkpt lat="47.75311" lon="2.11016">
        <ele>134</ele>
        <time>2017-02-05T09:43:58.947Z</time>
      </trkpt>
      <trkpt lat="47.75311" lon="2.11016">
        <ele>134</ele>
        <time>2017-02-05T09:43:59.929Z</time>
      </trkpt>
      <trkpt lat="47.7532" lon="2.1102">
        <ele>135</ele>
        <time>2017-02-05T09:44:00.928Z</time>
      </trkpt>
      <trkpt lat="47.75324" lon="2.11021">
        <ele>135</ele>
        <time>2017-02-05T09:44:01.929Z</time>
      </trkpt>
      <trkpt lat="47.75324" lon="2.11021">
        <ele>135</ele>
        <time>2017-02-05T09:44:02.961Z</time>
      </trkpt>
      <trkpt lat="47.75334" lon="2.11024">
        <ele>136</ele>
        <time>2017-02-05T09:44:03.928Z</time>
      </trkpt>
      <trkpt lat="47.75334" lon="2.11024">
        <ele>136</ele>
        <time>2017-02-05T09:44:04.961Z</time>
      </trkpt>
      <trkpt lat="47.75343" lon="2.11028">
        <ele>137</ele>
        <time>2017-02-05T09:44:05.929Z</time>
      </trkpt>
      <trkpt lat="47.75343" lon="2.11028">
        <ele>137</ele>
        <time>2017-02-05T09:44:06.925Z</time>
      </trkpt>
      <trkpt lat="47.75352" lon="2.1103">
        <ele>138</ele>
        <time>2017-02-05T09:44:07.944Z</time>
      </trkpt>
      <trkpt lat="47.75356" lon="2.11032">
        <ele>138</ele>
        <time>2017-02-05T09:44:08.956Z</time>
      </trkpt>
      <trkpt lat="47.7536" lon="2.11035">
        <ele>139</ele>
        <time>2017-02-05T09:44:09.929Z</time>
      </trkpt>
      <trkpt lat="47.7536" lon="2.11035">
        <ele>139</ele>
        <time>2017-02-05T09:44:10.924Z</time>
      </trkpt>
      <trkpt lat="47.75369" lon="2.11037">
        <ele>139</ele>
        <time>2017-02-05T09:44:11.927Z</time>
      </trkpt>
      <trkpt lat="47.75373" lon="2.11038">
        <ele>140</ele>
        <time>2017-02-05T09:44:12.932Z</time>
      </trkpt>
      <trkpt lat="47.75373" lon="2.11038">
        <ele>140</ele>
        <time>2017-02-05T09:44:13.922Z</time>
      </trkpt>
      <trkpt lat="47.75382" lon="2.11043">
        <ele>140</ele>
        <time>2017-02-05T09:44:14.928Z</time>
      </trkpt>
      <trkpt lat="47.75382" lon="2.11043">
        <ele>140</ele>
        <time>2017-02-05T09:44:15.922Z</time>
      </trkpt>
      <trkpt lat="47.7539" lon="2.11045">
        <ele>141</ele>
        <time>2017-02-05T09:44:16.927Z</time>
      </trkpt>
      <trkpt lat="47.75395" lon="2.11046">
        <ele>141</ele>
        <time>2017-02-05T09:44:17.928Z</time>
      </trkpt>
      <trkpt lat="47.754" lon="2.11046">
        <ele>141</ele>
        <time>2017-02-05T09:44:18.961Z</time>
      </trkpt>
      <trkpt lat="47.754" lon="2.11046">
        <ele>141</ele>
        <time>2017-02-05T09:44:19.925Z</time>
      </trkpt>
      <trkpt lat="47.75411" lon="2.11049">
        <ele>142</ele>
        <time>2017-02-05T09:44:20.928Z</time>
      </trkpt>
      <trkpt lat="47.75411" lon="2.11049">
        <ele>142</ele>
        <time>2017-02-05T09:44:21.961Z</time>
      </trkpt>
      <trkpt lat="47.75421" lon="2.11053">
        <ele>143</ele>
        <time>2017-02-05T09:44:22.928Z</time>
      </trkpt>
      <trkpt lat="47.75421" lon="2.11053">
        <ele>143</ele>
        <time>2017-02-05T09:44:23.922Z</time>
      </trkpt>
      <trkpt lat="47.75433" lon="2.11056">
        <ele>143</ele>
        <time>2017-02-05T09:44:24.929Z</time>
      </trkpt>
      <trkpt lat="47.75433" lon="2.11056">
        <ele>143</ele>
        <time>2017-02-05T09:44:25.922Z</time>
      </trkpt>
      <trkpt lat="47.75443" lon="2.11059">
        <ele>143</ele>
        <time>2017-02-05T09:44:26.942Z</time>
      </trkpt>
      <trkpt lat="47.75443" lon="2.11059">
        <ele>143</ele>
        <time>2017-02-05T09:44:27.924Z</time>
      </trkpt>
      <trkpt lat="47.75454" lon="2.11063">
        <ele>143</ele>
        <time>2017-02-05T09:44:28.926Z</time>
      </trkpt>
      <trkpt lat="47.7546" lon="2.11064">
        <ele>143</ele>
        <time>2017-02-05T09:44:29.928Z</time>
      </trkpt>
      <trkpt lat="47.75465" lon="2.11066">
        <ele>144</ele>
        <time>2017-02-05T09:44:30.929Z</time>
      </trkpt>
      <trkpt lat="47.75465" lon="2.11066">
        <ele>144</ele>
        <time>2017-02-05T09:44:31.922Z</time>
      </trkpt>
      <trkpt lat="47.75476" lon="2.11069">
        <ele>144</ele>
        <time>2017-02-05T09:44:32.929Z</time>
      </trkpt>
      <trkpt lat="47.75481" lon="2.11071">
        <ele>144</ele>
        <time>2017-02-05T09:44:33.928Z</time>
      </trkpt>
      <trkpt lat="47.75481" lon="2.11071">
        <ele>144</ele>
        <time>2017-02-05T09:44:34.925Z</time>
      </trkpt>
      <trkpt lat="47.75491" lon="2.11075">
        <ele>144</ele>
        <time>2017-02-05T09:44:35.946Z</time>
      </trkpt>
      <trkpt lat="47.75496" lon="2.11076">
        <ele>144</ele>
        <time>2017-02-05T09:44:36.929Z</time>
      </trkpt>
      <trkpt lat="47.75496" lon="2.11076">
        <ele>144</ele>
        <time>2017-02-05T09:44:37.922Z</time>
      </trkpt>
      <trkpt lat="47.75506" lon="2.1108">
        <ele>144</ele>
        <time>2017-02-05T09:44:38.926Z</time>
      </trkpt>
      <trkpt lat="47.75511" lon="2.11082">
        <ele>144</ele>
        <time>2017-02-05T09:44:39.929Z</time>
      </trkpt>
      <trkpt lat="47.75511" lon="2.11082">
        <ele>144</ele>
        <time>2017-02-05T09:44:40.926Z</time>
      </trkpt>
      <trkpt lat="47.75521" lon="2.11086">
        <ele>145</ele>
        <time>2017-02-05T09:44:41.930Z</time>
      </trkpt>
      <trkpt lat="47.75526" lon="2.11088">
        <ele>145</ele>
        <time>2017-02-05T09:44:42.932Z</time>
      </trkpt>
      <trkpt lat="47.75526" lon="2.11088">
        <ele>145</ele>
        <time>2017-02-05T09:44:43.937Z</time>
      </trkpt>
      <trkpt lat="47.75536" lon="2.11091">
        <ele>146</ele>
        <time>2017-02-05T09:44:44.928Z</time>
      </trkpt>
      <trkpt lat="47.75536" lon="2.11091">
        <ele>146</ele>
        <time>2017-02-05T09:44:45.922Z</time>
      </trkpt>
      <trkpt lat="47.75546" lon="2.11094">
        <ele>146</ele>
        <time>2017-02-05T09:44:46.928Z</time>
      </trkpt>
      <trkpt lat="47.75546" lon="2.11094">
        <ele>146</ele>
        <time>2017-02-05T09:44:47.924Z</time>
      </trkpt>
      <trkpt lat="47.75557" lon="2.11097">
        <ele>147</ele>
        <time>2017-02-05T09:44:48.946Z</time>
      </trkpt>
      <trkpt lat="47.75557" lon="2.11097">
        <ele>147</ele>
        <time>2017-02-05T09:44:49.927Z</time>
      </trkpt>
      <trkpt lat="47.75568" lon="2.111">
        <ele>147</ele>
        <time>2017-02-05T09:44:50.928Z</time>
      </trkpt>
      <trkpt lat="47.75568" lon="2.111">
        <ele>147</ele>
        <time>2017-02-05T09:44:51.925Z</time>
      </trkpt>
      <trkpt lat="47.75579" lon="2.11104">
        <ele>147</ele>
        <time>2017-02-05T09:44:52.927Z</time>
      </trkpt>
      <trkpt lat="47.75579" lon="2.11104">
        <ele>147</ele>
        <time>2017-02-05T09:44:53.925Z</time>
      </trkpt>
      <trkpt lat="47.75589" lon="2.11107">
        <ele>147</ele>
        <time>2017-02-05T09:44:54.930Z</time>
      </trkpt>
      <trkpt lat="47.75589" lon="2.11107">
        <ele>147</ele>
        <time>2017-02-05T09:44:55.925Z</time>
      </trkpt>
      <trkpt lat="47.75598" lon="2.11111">
        <ele>147</ele>
        <time>2017-02-05T09:44:56.928Z</time>
      </trkpt>
      <trkpt lat="47.75603" lon="2.11113">
        <ele>147</ele>
        <time>2017-02-05T09:44:57.928Z</time>
      </trkpt>
      <trkpt lat="47.75603" lon="2.11113">
        <ele>147</ele>
        <time>2017-02-05T09:44:58.931Z</time>
      </trkpt>
      <trkpt lat="47.75612" lon="2.11116">
        <ele>148</ele>
        <time>2017-02-05T09:44:59.927Z</time>
      </trkpt>
      <trkpt lat="47.75617" lon="2.11117">
        <ele>148</ele>
        <time>2017-02-05T09:45:00.928Z</time>
      </trkpt>
      <trkpt lat="47.75617" lon="2.11117">
        <ele>148</ele>
        <time>2017-02-05T09:45:01.925Z</time>
      </trkpt>
      <trkpt lat="47.75628" lon="2.1112">
        <ele>148</ele>
        <time>2017-02-05T09:45:02.928Z</time>
      </trkpt>
      <trkpt lat="47.75628" lon="2.1112">
        <ele>148</ele>
        <time>2017-02-05T09:45:03.925Z</time>
      </trkpt>
      <trkpt lat="47.75638" lon="2.11124">
        <ele>149</ele>
        <time>2017-02-05T09:45:04.927Z</time>
      </trkpt>
      <trkpt lat="47.75638" lon="2.11124">
        <ele>149</ele>
        <time>2017-02-05T09:45:05.962Z</time>
      </trkpt>
      <trkpt lat="47.75648" lon="2.11127">
        <ele>149</ele>
        <time>2017-02-05T09:45:06.930Z</time>
      </trkpt>
      <trkpt lat="47.75648" lon="2.11127">
        <ele>149</ele>
        <time>2017-02-05T09:45:07.950Z</time>
      </trkpt>
      <trkpt lat="47.75658" lon="2.1113">
        <ele>150</ele>
        <time>2017-02-05T09:45:08.940Z</time>
      </trkpt>
      <trkpt lat="47.75658" lon="2.1113">
        <ele>150</ele>
        <time>2017-02-05T09:45:09.928Z</time>
      </trkpt>
      <trkpt lat="47.75669" lon="2.11133">
        <ele>149</ele>
        <time>2017-02-05T09:45:10.928Z</time>
      </trkpt>
      <trkpt lat="47.75669" lon="2.11133">
        <ele>149</ele>
        <time>2017-02-05T09:45:11.922Z</time>
      </trkpt>
      <trkpt lat="47.75681" lon="2.11137">
        <ele>150</ele>
        <time>2017-02-05T09:45:12.932Z</time>
      </trkpt>
      <trkpt lat="47.75681" lon="2.11137">
        <ele>150</ele>
        <time>2017-02-05T09:45:13.922Z</time>
      </trkpt>
      <trkpt lat="47.75692" lon="2.11141">
        <ele>149</ele>
        <time>2017-02-05T09:45:14.928Z</time>
      </trkpt>
      <trkpt lat="47.75692" lon="2.11141">
        <ele>149</ele>
        <time>2017-02-05T09:45:15.962Z</time>
      </trkpt>
      <trkpt lat="47.75704" lon="2.11144">
        <ele>148</ele>
        <time>2017-02-05T09:45:16.928Z</time>
      </trkpt>
      <trkpt lat="47.75704" lon="2.11144">
        <ele>148</ele>
        <time>2017-02-05T09:45:17.922Z</time>
      </trkpt>
      <trkpt lat="47.75715" lon="2.11148">
        <ele>148</ele>
        <time>2017-02-05T09:45:18.929Z</time>
      </trkpt>
      <trkpt lat="47.75715" lon="2.11148">
        <ele>148</ele>
        <time>2017-02-05T09:45:19.922Z</time>
      </trkpt>
      <trkpt lat="47.75727" lon="2.11153">
        <ele>148</ele>
        <time>2017-02-05T09:45:20.929Z</time>
      </trkpt>
      <trkpt lat="47.75727" lon="2.11153">
        <ele>148</ele>
        <time>2017-02-05T09:45:21.926Z</time>
      </trkpt>
      <trkpt lat="47.75739" lon="2.11156">
        <ele>147</ele>
        <time>2017-02-05T09:45:22.929Z</time>
      </trkpt>
      <trkpt lat="47.75739" lon="2.11156">
        <ele>147</ele>
        <time>2017-02-05T09:45:23.922Z</time>
      </trkpt>
      <trkpt lat="47.75751" lon="2.11159">
        <ele>148</ele>
        <time>2017-02-05T09:45:24.929Z</time>
      </trkpt>
      <trkpt lat="47.75751" lon="2.11159">
        <ele>148</ele>
        <time>2017-02-05T09:45:25.922Z</time>
      </trkpt>
      <trkpt lat="47.75761" lon="2.11163">
        <ele>147</ele>
        <time>2017-02-05T09:45:26.928Z</time>
      </trkpt>
      <trkpt lat="47.75761" lon="2.11163">
        <ele>147</ele>
        <time>2017-02-05T09:45:27.961Z</time>
      </trkpt>
      <trkpt lat="47.75772" lon="2.11166">
        <ele>147</ele>
        <time>2017-02-05T09:45:28.927Z</time>
      </trkpt>
      <trkpt lat="47.75777" lon="2.11168">
        <ele>148</ele>
        <time>2017-02-05T09:45:29.927Z</time>
      </trkpt>
      <trkpt lat="47.75782" lon="2.11169">
        <ele>148</ele>
        <time>2017-02-05T09:45:30.929Z</time>
      </trkpt>
      <trkpt lat="47.75782" lon="2.11169">
        <ele>148</ele>
        <time>2017-02-05T09:45:31.922Z</time>
      </trkpt>
      <trkpt lat="47.75793" lon="2.11173">
        <ele>149</ele>
        <time>2017-02-05T09:45:32.928Z</time>
      </trkpt>
      <trkpt lat="47.75793" lon="2.11173">
        <ele>149</ele>
        <time>2017-02-05T09:45:33.922Z</time>
      </trkpt>
      <trkpt lat="47.75804" lon="2.11175">
        <ele>149</ele>
        <time>2017-02-05T09:45:34.929Z</time>
      </trkpt>
      <trkpt lat="47.75809" lon="2.11178">
        <ele>149</ele>
        <time>2017-02-05T09:45:35.936Z</time>
      </trkpt>
      <trkpt lat="47.75809" lon="2.11178">
        <ele>149</ele>
        <time>2017-02-05T09:45:36.926Z</time>
      </trkpt>
      <trkpt lat="47.7582" lon="2.11182">
        <ele>150</ele>
        <time>2017-02-05T09:45:37.930Z</time>
      </trkpt>
      <trkpt lat="47.7582" lon="2.11182">
        <ele>150</ele>
        <time>2017-02-05T09:45:38.922Z</time>
      </trkpt>
      <trkpt lat="47.75831" lon="2.11188">
        <ele>150</ele>
        <time>2017-02-05T09:45:39.928Z</time>
      </trkpt>
      <trkpt lat="47.75831" lon="2.11188">
        <ele>150</ele>
        <time>2017-02-05T09:45:40.926Z</time>
      </trkpt>
      <trkpt lat="47.75842" lon="2.11191">
        <ele>150</ele>
        <time>2017-02-05T09:45:41.929Z</time>
      </trkpt>
      <trkpt lat="47.75848" lon="2.11193">
        <ele>151</ele>
        <time>2017-02-05T09:45:42.929Z</time>
      </trkpt>
      <trkpt lat="47.75848" lon="2.11193">
        <ele>151</ele>
        <time>2017-02-05T09:45:43.922Z</time>
      </trkpt>
      <trkpt lat="47.75859" lon="2.11196">
        <ele>152</ele>
        <time>2017-02-05T09:45:44.928Z</time>
      </trkpt>
      <trkpt lat="47.75859" lon="2.11196">
        <ele>152</ele>
        <time>2017-02-05T09:45:45.922Z</time>
      </trkpt>
      <trkpt lat="47.75869" lon="2.11199">
        <ele>152</ele>
        <time>2017-02-05T09:45:46.929Z</time>
      </trkpt>
      <trkpt lat="47.75874" lon="2.11201">
        <ele>152</ele>
        <time>2017-02-05T09:45:47.928Z</time>
      </trkpt>
      <trkpt lat="47.75874" lon="2.11201">
        <ele>152</ele>
        <time>2017-02-05T09:45:48.926Z</time>
      </trkpt>
      <trkpt lat="47.75886" lon="2.11205">
        <ele>152</ele>
        <time>2017-02-05T09:45:49.932Z</time>
      </trkpt>
      <trkpt lat="47.75891" lon="2.11205">
        <ele>153</ele>
        <time>2017-02-05T09:45:50.929Z</time>
      </trkpt>
      <trkpt lat="47.75897" lon="2.11207">
        <ele>152</ele>
        <time>2017-02-05T09:45:51.929Z</time>
      </trkpt>
      <trkpt lat="47.75897" lon="2.11207">
        <ele>152</ele>
        <time>2017-02-05T09:45:52.922Z</time>
      </trkpt>
      <trkpt lat="47.75909" lon="2.11211">
        <ele>152</ele>
        <time>2017-02-05T09:45:53.928Z</time>
      </trkpt>
      <trkpt lat="47.75914" lon="2.11213">
        <ele>152</ele>
        <time>2017-02-05T09:45:54.939Z</time>
      </trkpt>
      <trkpt lat="47.75914" lon="2.11213">
        <ele>152</ele>
        <time>2017-02-05T09:45:55.928Z</time>
      </trkpt>
      <trkpt lat="47.75926" lon="2.11216">
        <ele>153</ele>
        <time>2017-02-05T09:45:56.928Z</time>
      </trkpt>
      <trkpt lat="47.75931" lon="2.11218">
        <ele>153</ele>
        <time>2017-02-05T09:45:57.929Z</time>
      </trkpt>
      <trkpt lat="47.75931" lon="2.11218">
        <ele>153</ele>
        <time>2017-02-05T09:45:58.922Z</time>
      </trkpt>
      <trkpt lat="47.75942" lon="2.11222">
        <ele>152</ele>
        <time>2017-02-05T09:45:59.928Z</time>
      </trkpt>
      <trkpt lat="47.75942" lon="2.11222">
        <ele>152</ele>
        <time>2017-02-05T09:46:00.925Z</time>
      </trkpt>
      <trkpt lat="47.75954" lon="2.11227">
        <ele>152</ele>
        <time>2017-02-05T09:46:01.929Z</time>
      </trkpt>
      <trkpt lat="47.7596" lon="2.11229">
        <ele>152</ele>
        <time>2017-02-05T09:46:02.930Z</time>
      </trkpt>
      <trkpt lat="47.7596" lon="2.11229">
        <ele>152</ele>
        <time>2017-02-05T09:46:03.922Z</time>
      </trkpt>
      <trkpt lat="47.75972" lon="2.11232">
        <ele>153</ele>
        <time>2017-02-05T09:46:04.928Z</time>
      </trkpt>
      <trkpt lat="47.75972" lon="2.11232">
        <ele>153</ele>
        <time>2017-02-05T09:46:05.922Z</time>
      </trkpt>
      <trkpt lat="47.75984" lon="2.11236">
        <ele>153</ele>
        <time>2017-02-05T09:46:06.929Z</time>
      </trkpt>
      <trkpt lat="47.75984" lon="2.11236">
        <ele>153</ele>
        <time>2017-02-05T09:46:07.954Z</time>
      </trkpt>
      <trkpt lat="47.75995" lon="2.1124">
        <ele>154</ele>
        <time>2017-02-05T09:46:08.924Z</time>
      </trkpt>
      <trkpt lat="47.75995" lon="2.1124">
        <ele>154</ele>
        <time>2017-02-05T09:46:09.931Z</time>
      </trkpt>
      <trkpt lat="47.76005" lon="2.11243">
        <ele>155</ele>
        <time>2017-02-05T09:46:10.937Z</time>
      </trkpt>
      <trkpt lat="47.76005" lon="2.11243">
        <ele>155</ele>
        <time>2017-02-05T09:46:11.942Z</time>
      </trkpt>
      <trkpt lat="47.76017" lon="2.11247">
        <ele>157</ele>
        <time>2017-02-05T09:46:12.931Z</time>
      </trkpt>
      <trkpt lat="47.76017" lon="2.11247">
        <ele>157</ele>
        <time>2017-02-05T09:46:13.922Z</time>
      </trkpt>
      <trkpt lat="47.76028" lon="2.11252">
        <ele>156</ele>
        <time>2017-02-05T09:46:14.942Z</time>
      </trkpt>
      <trkpt lat="47.76028" lon="2.11252">
        <ele>156</ele>
        <time>2017-02-05T09:46:15.926Z</time>
      </trkpt>
      <trkpt lat="47.76039" lon="2.11256">
        <ele>156</ele>
        <time>2017-02-05T09:46:16.927Z</time>
      </trkpt>
      <trkpt lat="47.76039" lon="2.11256">
        <ele>156</ele>
        <time>2017-02-05T09:46:17.948Z</time>
      </trkpt>
      <trkpt lat="47.76049" lon="2.11259">
        <ele>157</ele>
        <time>2017-02-05T09:46:18.938Z</time>
      </trkpt>
      <trkpt lat="47.76049" lon="2.11259">
        <ele>157</ele>
        <time>2017-02-05T09:46:19.960Z</time>
      </trkpt>
      <trkpt lat="47.76059" lon="2.11262">
        <ele>157</ele>
        <time>2017-02-05T09:46:20.927Z</time>
      </trkpt>
      <trkpt lat="47.76059" lon="2.11262">
        <ele>157</ele>
        <time>2017-02-05T09:46:21.922Z</time>
      </trkpt>
      <trkpt lat="47.7607" lon="2.11265">
        <ele>156</ele>
        <time>2017-02-05T09:46:22.929Z</time>
      </trkpt>
      <trkpt lat="47.7607" lon="2.11265">
        <ele>156</ele>
        <time>2017-02-05T09:46:23.922Z</time>
      </trkpt>
      <trkpt lat="47.76079" lon="2.11268">
        <ele>156</ele>
        <time>2017-02-05T09:46:24.929Z</time>
      </trkpt>
      <trkpt lat="47.76079" lon="2.11268">
        <ele>156</ele>
        <time>2017-02-05T09:46:25.922Z</time>
      </trkpt>
      <trkpt lat="47.76088" lon="2.11272">
        <ele>150</ele>
        <time>2017-02-05T09:46:26.928Z</time>
      </trkpt>
      <trkpt lat="47.76088" lon="2.11272">
        <ele>150</ele>
        <time>2017-02-05T09:46:27.926Z</time>
      </trkpt>
      <trkpt lat="47.76097" lon="2.11271">
        <ele>148</ele>
        <time>2017-02-05T09:46:28.928Z</time>
      </trkpt>
      <trkpt lat="47.76097" lon="2.11271">
        <ele>148</ele>
        <time>2017-02-05T09:46:29.958Z</time>
      </trkpt>
      <trkpt lat="47.76106" lon="2.11266">
        <ele>148</ele>
        <time>2017-02-05T09:46:30.944Z</time>
      </trkpt>
      <trkpt lat="47.76106" lon="2.11266">
        <ele>148</ele>
        <time>2017-02-05T09:46:31.927Z</time>
      </trkpt>
      <trkpt lat="47.76116" lon="2.11255">
        <ele>146</ele>
        <time>2017-02-05T09:46:32.929Z</time>
      </trkpt>
      <trkpt lat="47.76116" lon="2.11255">
        <ele>146</ele>
        <time>2017-02-05T09:46:33.927Z</time>
      </trkpt>
      <trkpt lat="47.76127" lon="2.11244">
        <ele>145</ele>
        <time>2017-02-05T09:46:34.929Z</time>
      </trkpt>
      <trkpt lat="47.76127" lon="2.11244">
        <ele>145</ele>
        <time>2017-02-05T09:46:35.934Z</time>
      </trkpt>
      <trkpt lat="47.76137" lon="2.11233">
        <ele>143</ele>
        <time>2017-02-05T09:46:36.928Z</time>
      </trkpt>
      <trkpt lat="47.76137" lon="2.11233">
        <ele>143</ele>
        <time>2017-02-05T09:46:37.922Z</time>
      </trkpt>
      <trkpt lat="47.76148" lon="2.11223">
        <ele>142</ele>
        <time>2017-02-05T09:46:38.929Z</time>
      </trkpt>
      <trkpt lat="47.76148" lon="2.11223">
        <ele>142</ele>
        <time>2017-02-05T09:46:39.932Z</time>
      </trkpt>
      <trkpt lat="47.76158" lon="2.11212">
        <ele>141</ele>
        <time>2017-02-05T09:46:40.928Z</time>
      </trkpt>
      <trkpt lat="47.76158" lon="2.11212">
        <ele>141</ele>
        <time>2017-02-05T09:46:41.922Z</time>
      </trkpt>
      <trkpt lat="47.76167" lon="2.11202">
        <ele>140</ele>
        <time>2017-02-05T09:46:42.929Z</time>
      </trkpt>
      <trkpt lat="47.76167" lon="2.11202">
        <ele>140</ele>
        <time>2017-02-05T09:46:43.926Z</time>
      </trkpt>
      <trkpt lat="47.76176" lon="2.11192">
        <ele>139</ele>
        <time>2017-02-05T09:46:44.928Z</time>
      </trkpt>
      <trkpt lat="47.76181" lon="2.11187">
        <ele>139</ele>
        <time>2017-02-05T09:46:45.929Z</time>
      </trkpt>
      <trkpt lat="47.76181" lon="2.11187">
        <ele>139</ele>
        <time>2017-02-05T09:46:46.926Z</time>
      </trkpt>
      <trkpt lat="47.76191" lon="2.11176">
        <ele>138</ele>
        <time>2017-02-05T09:46:47.928Z</time>
      </trkpt>
      <trkpt lat="47.76197" lon="2.1117">
        <ele>138</ele>
        <time>2017-02-05T09:46:48.929Z</time>
      </trkpt>
      <trkpt lat="47.76202" lon="2.11165">
        <ele>138</ele>
        <time>2017-02-05T09:46:49.929Z</time>
      </trkpt>
      <trkpt lat="47.76202" lon="2.11165">
        <ele>138</ele>
        <time>2017-02-05T09:46:50.931Z</time>
      </trkpt>
      <trkpt lat="47.76213" lon="2.11154">
        <ele>137</ele>
        <time>2017-02-05T09:46:51.947Z</time>
      </trkpt>
      <trkpt lat="47.76213" lon="2.11154">
        <ele>137</ele>
        <time>2017-02-05T09:46:52.925Z</time>
      </trkpt>
      <trkpt lat="47.76224" lon="2.11145">
        <ele>136</ele>
        <time>2017-02-05T09:46:53.928Z</time>
      </trkpt>
      <trkpt lat="47.76229" lon="2.1114">
        <ele>136</ele>
        <time>2017-02-05T09:46:54.930Z</time>
      </trkpt>
      <trkpt lat="47.76229" lon="2.1114">
        <ele>136</ele>
        <time>2017-02-05T09:46:55.926Z</time>
      </trkpt>
      <trkpt lat="47.76239" lon="2.1113">
        <ele>136</ele>
        <time>2017-02-05T09:46:56.929Z</time>
      </trkpt>
      <trkpt lat="47.76244" lon="2.11125">
        <ele>136</ele>
        <time>2017-02-05T09:46:57.928Z</time>
      </trkpt>
      <trkpt lat="47.76244" lon="2.11125">
        <ele>136</ele>
        <time>2017-02-05T09:46:58.923Z</time>
      </trkpt>
      <trkpt lat="47.76254" lon="2.11115">
        <ele>136</ele>
        <time>2017-02-05T09:46:59.929Z</time>
      </trkpt>
      <trkpt lat="47.76254" lon="2.11115">
        <ele>136</ele>
        <time>2017-02-05T09:47:00.926Z</time>
      </trkpt>
      <trkpt lat="47.76263" lon="2.11104">
        <ele>136</ele>
        <time>2017-02-05T09:47:01.931Z</time>
      </trkpt>
      <trkpt lat="47.76263" lon="2.11104">
        <ele>136</ele>
        <time>2017-02-05T09:47:02.923Z</time>
      </trkpt>
      <trkpt lat="47.76273" lon="2.11093">
        <ele>136</ele>
        <time>2017-02-05T09:47:03.931Z</time>
      </trkpt>
      <trkpt lat="47.76273" lon="2.11093">
        <ele>136</ele>
        <time>2017-02-05T09:47:04.924Z</time>
      </trkpt>
      <trkpt lat="47.76283" lon="2.11082">
        <ele>136</ele>
        <time>2017-02-05T09:47:05.928Z</time>
      </trkpt>
      <trkpt lat="47.76283" lon="2.11082">
        <ele>136</ele>
        <time>2017-02-05T09:47:06.932Z</time>
      </trkpt>
      <trkpt lat="47.76293" lon="2.11072">
        <ele>136</ele>
        <time>2017-02-05T09:47:07.926Z</time>
      </trkpt>
      <trkpt lat="47.76297" lon="2.11068">
        <ele>136</ele>
        <time>2017-02-05T09:47:08.940Z</time>
      </trkpt>
      <trkpt lat="47.76297" lon="2.11068">
        <ele>136</ele>
        <time>2017-02-05T09:47:09.930Z</time>
      </trkpt>
      <trkpt lat="47.76307" lon="2.11058">
        <ele>136</ele>
        <time>2017-02-05T09:47:10.927Z</time>
      </trkpt>
      <trkpt lat="47.76307" lon="2.11058">
        <ele>136</ele>
        <time>2017-02-05T09:47:11.961Z</time>
      </trkpt>
      <trkpt lat="47.76316" lon="2.11048">
        <ele>137</ele>
        <time>2017-02-05T09:47:12.951Z</time>
      </trkpt>
      <trkpt lat="47.76316" lon="2.11048">
        <ele>137</ele>
        <time>2017-02-05T09:47:13.941Z</time>
      </trkpt>
      <trkpt lat="47.76326" lon="2.11038">
        <ele>137</ele>
        <time>2017-02-05T09:47:14.933Z</time>
      </trkpt>
      <trkpt lat="47.76326" lon="2.11038">
        <ele>137</ele>
        <time>2017-02-05T09:47:15.961Z</time>
      </trkpt>
      <trkpt lat="47.76335" lon="2.11028">
        <ele>137</ele>
        <time>2017-02-05T09:47:16.929Z</time>
      </trkpt>
      <trkpt lat="47.76335" lon="2.11028">
        <ele>137</ele>
        <time>2017-02-05T09:47:17.922Z</time>
      </trkpt>
      <trkpt lat="47.76344" lon="2.11019">
        <ele>137</ele>
        <time>2017-02-05T09:47:18.930Z</time>
      </trkpt>
      <trkpt lat="47.76344" lon="2.11019">
        <ele>137</ele>
        <time>2017-02-05T09:47:19.922Z</time>
      </trkpt>
      <trkpt lat="47.76353" lon="2.11009">
        <ele>137</ele>
        <time>2017-02-05T09:47:20.928Z</time>
      </trkpt>
      <trkpt lat="47.76353" lon="2.11009">
        <ele>137</ele>
        <time>2017-02-05T09:47:21.961Z</time>
      </trkpt>
      <trkpt lat="47.76362" lon="2.10999">
        <ele>137</ele>
        <time>2017-02-05T09:47:22.928Z</time>
      </trkpt>
      <trkpt lat="47.76362" lon="2.10999">
        <ele>137</ele>
        <time>2017-02-05T09:47:23.922Z</time>
      </trkpt>
      <trkpt lat="47.76371" lon="2.1099">
        <ele>137</ele>
        <time>2017-02-05T09:47:24.930Z</time>
      </trkpt>
      <trkpt lat="47.76371" lon="2.1099">
        <ele>137</ele>
        <time>2017-02-05T09:47:25.927Z</time>
      </trkpt>
      <trkpt lat="47.76379" lon="2.10981">
        <ele>137</ele>
        <time>2017-02-05T09:47:26.929Z</time>
      </trkpt>
      <trkpt lat="47.76379" lon="2.10981">
        <ele>137</ele>
        <time>2017-02-05T09:47:27.927Z</time>
      </trkpt>
      <trkpt lat="47.76387" lon="2.10973">
        <ele>137</ele>
        <time>2017-02-05T09:47:28.928Z</time>
      </trkpt>
      <trkpt lat="47.76387" lon="2.10973">
        <ele>137</ele>
        <time>2017-02-05T09:47:29.927Z</time>
      </trkpt>
      <trkpt lat="47.76395" lon="2.10965">
        <ele>137</ele>
        <time>2017-02-05T09:47:30.929Z</time>
      </trkpt>
      <trkpt lat="47.76399" lon="2.10961">
        <ele>137</ele>
        <time>2017-02-05T09:47:31.928Z</time>
      </trkpt>
      <trkpt lat="47.76399" lon="2.10961">
        <ele>137</ele>
        <time>2017-02-05T09:47:32.961Z</time>
      </trkpt>
      <trkpt lat="47.76406" lon="2.10953">
        <ele>137</ele>
        <time>2017-02-05T09:47:33.928Z</time>
      </trkpt>
      <trkpt lat="47.76406" lon="2.10953">
        <ele>137</ele>
        <time>2017-02-05T09:47:34.942Z</time>
      </trkpt>
      <trkpt lat="47.76414" lon="2.10944">
        <ele>137</ele>
        <time>2017-02-05T09:47:35.949Z</time>
      </trkpt>
      <trkpt lat="47.76418" lon="2.1094">
        <ele>137</ele>
        <time>2017-02-05T09:47:36.930Z</time>
      </trkpt>
      <trkpt lat="47.76418" lon="2.1094">
        <ele>137</ele>
        <time>2017-02-05T09:47:37.922Z</time>
      </trkpt>
      <trkpt lat="47.76425" lon="2.10931">
        <ele>137</ele>
        <time>2017-02-05T09:47:38.928Z</time>
      </trkpt>
      <trkpt lat="47.76429" lon="2.10927">
        <ele>137</ele>
        <time>2017-02-05T09:47:39.929Z</time>
      </trkpt>
      <trkpt lat="47.76429" lon="2.10927">
        <ele>137</ele>
        <time>2017-02-05T09:47:40.934Z</time>
      </trkpt>
      <trkpt lat="47.76434" lon="2.10921">
        <ele>137</ele>
        <time>2017-02-05T09:47:41.939Z</time>
      </trkpt>
      <trkpt lat="47.76437" lon="2.1092">
        <ele>137</ele>
        <time>2017-02-05T09:47:42.931Z</time>
      </trkpt>
      <trkpt lat="47.76437" lon="2.1092">
        <ele>137</ele>
        <time>2017-02-05T09:47:43.922Z</time>
      </trkpt>
      <trkpt lat="47.76443" lon="2.10925">
        <ele>136</ele>
        <time>2017-02-05T09:47:44.928Z</time>
      </trkpt>
      <trkpt lat="47.76443" lon="2.10925">
        <ele>136</ele>
        <time>2017-02-05T09:47:45.925Z</time>
      </trkpt>
      <trkpt lat="47.76446" lon="2.10937">
        <ele>134</ele>
        <time>2017-02-05T09:47:46.928Z</time>
      </trkpt>
      <trkpt lat="47.76446" lon="2.10937">
        <ele>134</ele>
        <time>2017-02-05T09:47:47.922Z</time>
      </trkpt>
      <trkpt lat="47.76448" lon="2.10949">
        <ele>133</ele>
        <time>2017-02-05T09:47:48.930Z</time>
      </trkpt>
      <trkpt lat="47.76448" lon="2.10949">
        <ele>133</ele>
        <time>2017-02-05T09:47:49.961Z</time>
      </trkpt>
      <trkpt lat="47.76449" lon="2.10962">
        <ele>132</ele>
        <time>2017-02-05T09:47:50.949Z</time>
      </trkpt>
      <trkpt lat="47.76451" lon="2.10968">
        <ele>132</ele>
        <time>2017-02-05T09:47:51.931Z</time>
      </trkpt>
      <trkpt lat="47.76451" lon="2.10968">
        <ele>132</ele>
        <time>2017-02-05T09:47:52.924Z</time>
      </trkpt>
      <trkpt lat="47.76454" lon="2.10979">
        <ele>131</ele>
        <time>2017-02-05T09:47:53.928Z</time>
      </trkpt>
      <trkpt lat="47.76456" lon="2.10986">
        <ele>131</ele>
        <time>2017-02-05T09:47:54.930Z</time>
      </trkpt>
      <trkpt lat="47.76456" lon="2.10986">
        <ele>131</ele>
        <time>2017-02-05T09:47:55.961Z</time>
      </trkpt>
      <trkpt lat="47.76458" lon="2.10998">
        <ele>130</ele>
        <time>2017-02-05T09:47:56.929Z</time>
      </trkpt>
      <trkpt lat="47.76458" lon="2.10998">
        <ele>130</ele>
        <time>2017-02-05T09:47:57.961Z</time>
      </trkpt>
      <trkpt lat="47.7646" lon="2.11011">
        <ele>130</ele>
        <time>2017-02-05T09:47:58.928Z</time>
      </trkpt>
      <trkpt lat="47.76462" lon="2.11019">
        <ele>130</ele>
        <time>2017-02-05T09:47:59.928Z</time>
      </trkpt>
      <trkpt lat="47.76463" lon="2.11025">
        <ele>129</ele>
        <time>2017-02-05T09:48:00.949Z</time>
      </trkpt>
      <trkpt lat="47.76463" lon="2.11025">
        <ele>129</ele>
        <time>2017-02-05T09:48:01.951Z</time>
      </trkpt>
      <trkpt lat="47.76467" lon="2.11038">
        <ele>129</ele>
        <time>2017-02-05T09:48:02.934Z</time>
      </trkpt>
      <trkpt lat="47.76468" lon="2.11044">
        <ele>129</ele>
        <time>2017-02-05T09:48:03.927Z</time>
      </trkpt>
      <trkpt lat="47.76469" lon="2.11051">
        <ele>129</ele>
        <time>2017-02-05T09:48:04.928Z</time>
      </trkpt>
      <trkpt lat="47.76469" lon="2.11051">
        <ele>129</ele>
        <time>2017-02-05T09:48:05.922Z</time>
      </trkpt>
      <trkpt lat="47.76473" lon="2.11064">
        <ele>129</ele>
        <time>2017-02-05T09:48:06.930Z</time>
      </trkpt>
      <trkpt lat="47.76473" lon="2.11064">
        <ele>129</ele>
        <time>2017-02-05T09:48:07.943Z</time>
      </trkpt>
      <trkpt lat="47.76476" lon="2.11078">
        <ele>128</ele>
        <time>2017-02-05T09:48:08.922Z</time>
      </trkpt>
      <trkpt lat="47.76478" lon="2.11086">
        <ele>128</ele>
        <time>2017-02-05T09:48:09.928Z</time>
      </trkpt>
      <trkpt lat="47.76478" lon="2.11086">
        <ele>128</ele>
        <time>2017-02-05T09:48:10.947Z</time>
      </trkpt>
      <trkpt lat="47.76481" lon="2.111">
        <ele>128</ele>
        <time>2017-02-05T09:48:11.938Z</time>
      </trkpt>
      <trkpt lat="47.76482" lon="2.11107">
        <ele>128</ele>
        <time>2017-02-05T09:48:12.931Z</time>
      </trkpt>
      <trkpt lat="47.76482" lon="2.11107">
        <ele>128</ele>
        <time>2017-02-05T09:48:13.927Z</time>
      </trkpt>
      <trkpt lat="47.76485" lon="2.11122">
        <ele>127</ele>
        <time>2017-02-05T09:48:14.928Z</time>
      </trkpt>
      <trkpt lat="47.76487" lon="2.1113">
        <ele>127</ele>
        <time>2017-02-05T09:48:15.930Z</time>
      </trkpt>
      <trkpt lat="47.76487" lon="2.1113">
        <ele>127</ele>
        <time>2017-02-05T09:48:16.926Z</time>
      </trkpt>
      <trkpt lat="47.7649" lon="2.11145">
        <ele>127</ele>
        <time>2017-02-05T09:48:17.929Z</time>
      </trkpt>
      <trkpt lat="47.76491" lon="2.11152">
        <ele>126</ele>
        <time>2017-02-05T09:48:18.931Z</time>
      </trkpt>
      <trkpt lat="47.76491" lon="2.11152">
        <ele>126</ele>
        <time>2017-02-05T09:48:19.925Z</time>
      </trkpt>
      <trkpt lat="47.76494" lon="2.11165">
        <ele>126</ele>
        <time>2017-02-05T09:48:20.960Z</time>
      </trkpt>
      <trkpt lat="47.76496" lon="2.11173">
        <ele>126</ele>
        <time>2017-02-05T09:48:21.930Z</time>
      </trkpt>
      <trkpt lat="47.76496" lon="2.11173">
        <ele>126</ele>
        <time>2017-02-05T09:48:22.959Z</time>
      </trkpt>
      <trkpt lat="47.76499" lon="2.11188">
        <ele>126</ele>
        <time>2017-02-05T09:48:23.928Z</time>
      </trkpt>
      <trkpt lat="47.765" lon="2.11196">
        <ele>126</ele>
        <time>2017-02-05T09:48:24.931Z</time>
      </trkpt>
      <trkpt lat="47.765" lon="2.11196">
        <ele>126</ele>
        <time>2017-02-05T09:48:25.922Z</time>
      </trkpt>
      <trkpt lat="47.76503" lon="2.11213">
        <ele>126</ele>
        <time>2017-02-05T09:48:26.940Z</time>
      </trkpt>
      <trkpt lat="47.76503" lon="2.11213">
        <ele>126</ele>
        <time>2017-02-05T09:48:27.931Z</time>
      </trkpt>
      <trkpt lat="47.76506" lon="2.11229">
        <ele>126</ele>
        <time>2017-02-05T09:48:28.929Z</time>
      </trkpt>
      <trkpt lat="47.76508" lon="2.11237">
        <ele>126</ele>
        <time>2017-02-05T09:48:29.929Z</time>
      </trkpt>
      <trkpt lat="47.76508" lon="2.11237">
        <ele>126</ele>
        <time>2017-02-05T09:48:30.933Z</time>
      </trkpt>
      <trkpt lat="47.7651" lon="2.11252">
        <ele>126</ele>
        <time>2017-02-05T09:48:31.929Z</time>
      </trkpt>
      <trkpt lat="47.76512" lon="2.11259">
        <ele>126</ele>
        <time>2017-02-05T09:48:32.928Z</time>
      </trkpt>
      <trkpt lat="47.76513" lon="2.11265">
        <ele>126</ele>
        <time>2017-02-05T09:48:33.929Z</time>
      </trkpt>
      <trkpt lat="47.76513" lon="2.11265">
        <ele>126</ele>
        <time>2017-02-05T09:48:34.927Z</time>
      </trkpt>
      <trkpt lat="47.76516" lon="2.11279">
        <ele>125</ele>
        <time>2017-02-05T09:48:35.937Z</time>
      </trkpt>
      <trkpt lat="47.76517" lon="2.11287">
        <ele>125</ele>
        <time>2017-02-05T09:48:36.930Z</time>
      </trkpt>
      <trkpt lat="47.76517" lon="2.11287">
        <ele>125</ele>
        <time>2017-02-05T09:48:37.922Z</time>
      </trkpt>
      <trkpt lat="47.76521" lon="2.11301">
        <ele>125</ele>
        <time>2017-02-05T09:48:38.928Z</time>
      </trkpt>
      <trkpt lat="47.76522" lon="2.11308">
        <ele>124</ele>
        <time>2017-02-05T09:48:39.931Z</time>
      </trkpt>
      <trkpt lat="47.76522" lon="2.11308">
        <ele>124</ele>
        <time>2017-02-05T09:48:40.933Z</time>
      </trkpt>
      <trkpt lat="47.76525" lon="2.11322">
        <ele>124</ele>
        <time>2017-02-05T09:48:41.930Z</time>
      </trkpt>
      <trkpt lat="47.76525" lon="2.11322">
        <ele>124</ele>
        <time>2017-02-05T09:48:42.923Z</time>
      </trkpt>
      <trkpt lat="47.76528" lon="2.11336">
        <ele>124</ele>
        <time>2017-02-05T09:48:43.929Z</time>
      </trkpt>
      <trkpt lat="47.76528" lon="2.11336">
        <ele>124</ele>
        <time>2017-02-05T09:48:44.926Z</time>
      </trkpt>
      <trkpt lat="47.7653" lon="2.1135">
        <ele>123</ele>
        <time>2017-02-05T09:48:45.929Z</time>
      </trkpt>
      <trkpt lat="47.7653" lon="2.1135">
        <ele>123</ele>
        <time>2017-02-05T09:48:46.922Z</time>
      </trkpt>
      <trkpt lat="47.76532" lon="2.11361">
        <ele>124</ele>
        <time>2017-02-05T09:48:47.930Z</time>
      </trkpt>
      <trkpt lat="47.76533" lon="2.11367">
        <ele>124</ele>
        <time>2017-02-05T09:48:48.931Z</time>
      </trkpt>
      <trkpt lat="47.76533" lon="2.11367">
        <ele>124</ele>
        <time>2017-02-05T09:48:49.922Z</time>
      </trkpt>
      <trkpt lat="47.76536" lon="2.1138">
        <ele>123</ele>
        <time>2017-02-05T09:48:50.930Z</time>
      </trkpt>
      <trkpt lat="47.76536" lon="2.1138">
        <ele>123</ele>
        <time>2017-02-05T09:48:51.922Z</time>
      </trkpt>
      <trkpt lat="47.76538" lon="2.11394">
        <ele>123</ele>
        <time>2017-02-05T09:48:52.930Z</time>
      </trkpt>
      <trkpt lat="47.76538" lon="2.11394">
        <ele>123</ele>
        <time>2017-02-05T09:48:53.922Z</time>
      </trkpt>
      <trkpt lat="47.7654" lon="2.11408">
        <ele>123</ele>
        <time>2017-02-05T09:48:54.930Z</time>
      </trkpt>
      <trkpt lat="47.7654" lon="2.11408">
        <ele>123</ele>
        <time>2017-02-05T09:48:55.925Z</time>
      </trkpt>
      <trkpt lat="47.76542" lon="2.11421">
        <ele>123</ele>
        <time>2017-02-05T09:48:56.928Z</time>
      </trkpt>
      <trkpt lat="47.76542" lon="2.11421">
        <ele>123</ele>
        <time>2017-02-05T09:48:57.929Z</time>
      </trkpt>
      <trkpt lat="47.76546" lon="2.11436">
        <ele>123</ele>
        <time>2017-02-05T09:48:58.929Z</time>
      </trkpt>
      <trkpt lat="47.76547" lon="2.11442">
        <ele>123</ele>
        <time>2017-02-05T09:48:59.929Z</time>
      </trkpt>
      <trkpt lat="47.76547" lon="2.11442">
        <ele>123</ele>
        <time>2017-02-05T09:49:00.935Z</time>
      </trkpt>
      <trkpt lat="47.76551" lon="2.11455">
        <ele>123</ele>
        <time>2017-02-05T09:49:01.929Z</time>
      </trkpt>
      <trkpt lat="47.76552" lon="2.11461">
        <ele>123</ele>
        <time>2017-02-05T09:49:02.929Z</time>
      </trkpt>
      <trkpt lat="47.76552" lon="2.11461">
        <ele>123</ele>
        <time>2017-02-05T09:49:03.922Z</time>
      </trkpt>
      <trkpt lat="47.76556" lon="2.11474">
        <ele>124</ele>
        <time>2017-02-05T09:49:04.927Z</time>
      </trkpt>
      <trkpt lat="47.76556" lon="2.11474">
        <ele>124</ele>
        <time>2017-02-05T09:49:05.962Z</time>
      </trkpt>
      <trkpt lat="47.76558" lon="2.11485">
        <ele>124</ele>
        <time>2017-02-05T09:49:06.930Z</time>
      </trkpt>
      <trkpt lat="47.76558" lon="2.11485">
        <ele>124</ele>
        <time>2017-02-05T09:49:07.945Z</time>
      </trkpt>
      <trkpt lat="47.76562" lon="2.11496">
        <ele>125</ele>
        <time>2017-02-05T09:49:08.927Z</time>
      </trkpt>
      <trkpt lat="47.76562" lon="2.11496">
        <ele>125</ele>
        <time>2017-02-05T09:49:09.942Z</time>
      </trkpt>
      <trkpt lat="47.76566" lon="2.11509">
        <ele>125</ele>
        <time>2017-02-05T09:49:10.950Z</time>
      </trkpt>
      <trkpt lat="47.76566" lon="2.11509">
        <ele>125</ele>
        <time>2017-02-05T09:49:11.944Z</time>
      </trkpt>
      <trkpt lat="47.76569" lon="2.11521">
        <ele>125</ele>
        <time>2017-02-05T09:49:12.933Z</time>
      </trkpt>
      <trkpt lat="47.76569" lon="2.11521">
        <ele>125</ele>
        <time>2017-02-05T09:49:13.927Z</time>
      </trkpt>
      <trkpt lat="47.76572" lon="2.11533">
        <ele>125</ele>
        <time>2017-02-05T09:49:14.929Z</time>
      </trkpt>
      <trkpt lat="47.76572" lon="2.11533">
        <ele>125</ele>
        <time>2017-02-05T09:49:15.929Z</time>
      </trkpt>
      <trkpt lat="47.76574" lon="2.11546">
        <ele>124</ele>
        <time>2017-02-05T09:49:16.930Z</time>
      </trkpt>
      <trkpt lat="47.76574" lon="2.11546">
        <ele>124</ele>
        <time>2017-02-05T09:49:17.922Z</time>
      </trkpt>
      <trkpt lat="47.76576" lon="2.11559">
        <ele>124</ele>
        <time>2017-02-05T09:49:18.931Z</time>
      </trkpt>
      <trkpt lat="47.76576" lon="2.11559">
        <ele>124</ele>
        <time>2017-02-05T09:49:19.922Z</time>
      </trkpt>
      <trkpt lat="47.76579" lon="2.11573">
        <ele>124</ele>
        <time>2017-02-05T09:49:20.928Z</time>
      </trkpt>
      <trkpt lat="47.76579" lon="2.11573">
        <ele>124</ele>
        <time>2017-02-05T09:49:21.925Z</time>
      </trkpt>
      <trkpt lat="47.76582" lon="2.11585">
        <ele>123</ele>
        <time>2017-02-05T09:49:22.932Z</time>
      </trkpt>
      <trkpt lat="47.76582" lon="2.11585">
        <ele>123</ele>
        <time>2017-02-05T09:49:23.926Z</time>
      </trkpt>
      <trkpt lat="47.76585" lon="2.11597">
        <ele>124</ele>
        <time>2017-02-05T09:49:24.927Z</time>
      </trkpt>
      <trkpt lat="47.76585" lon="2.11597">
        <ele>124</ele>
        <time>2017-02-05T09:49:25.926Z</time>
      </trkpt>
      <trkpt lat="47.76589" lon="2.1161">
        <ele>124</ele>
        <time>2017-02-05T09:49:26.930Z</time>
      </trkpt>
      <trkpt lat="47.76589" lon="2.1161">
        <ele>124</ele>
        <time>2017-02-05T09:49:27.926Z</time>
      </trkpt>
      <trkpt lat="47.76594" lon="2.11623">
        <ele>124</ele>
        <time>2017-02-05T09:49:28.927Z</time>
      </trkpt>
      <trkpt lat="47.76594" lon="2.11623">
        <ele>124</ele>
        <time>2017-02-05T09:49:29.922Z</time>
      </trkpt>
      <trkpt lat="47.76599" lon="2.11635">
        <ele>125</ele>
        <time>2017-02-05T09:49:30.929Z</time>
      </trkpt>
      <trkpt lat="47.76599" lon="2.11635">
        <ele>125</ele>
        <time>2017-02-05T09:49:31.922Z</time>
      </trkpt>
      <trkpt lat="47.76604" lon="2.11647">
        <ele>126</ele>
        <time>2017-02-05T09:49:32.929Z</time>
      </trkpt>
      <trkpt lat="47.76604" lon="2.11647">
        <ele>126</ele>
        <time>2017-02-05T09:49:33.927Z</time>
      </trkpt>
      <trkpt lat="47.7661" lon="2.11659">
        <ele>127</ele>
        <time>2017-02-05T09:49:34.929Z</time>
      </trkpt>
      <trkpt lat="47.7661" lon="2.11659">
        <ele>127</ele>
        <time>2017-02-05T09:49:35.931Z</time>
      </trkpt>
      <trkpt lat="47.76615" lon="2.11671">
        <ele>127</ele>
        <time>2017-02-05T09:49:36.930Z</time>
      </trkpt>
      <trkpt lat="47.76615" lon="2.11671">
        <ele>127</ele>
        <time>2017-02-05T09:49:37.922Z</time>
      </trkpt>
      <trkpt lat="47.76621" lon="2.11683">
        <ele>128</ele>
        <time>2017-02-05T09:49:38.929Z</time>
      </trkpt>
      <trkpt lat="47.76621" lon="2.11683">
        <ele>128</ele>
        <time>2017-02-05T09:49:39.922Z</time>
      </trkpt>
      <trkpt lat="47.76628" lon="2.11694">
        <ele>128</ele>
        <time>2017-02-05T09:49:40.929Z</time>
      </trkpt>
      <trkpt lat="47.7663" lon="2.117">
        <ele>128</ele>
        <time>2017-02-05T09:49:41.927Z</time>
      </trkpt>
      <trkpt lat="47.7663" lon="2.117">
        <ele>128</ele>
        <time>2017-02-05T09:49:42.928Z</time>
      </trkpt>
      <trkpt lat="47.76636" lon="2.11713">
        <ele>129</ele>
        <time>2017-02-05T09:49:43.930Z</time>
      </trkpt>
      <trkpt lat="47.7664" lon="2.11719">
        <ele>129</ele>
        <time>2017-02-05T09:49:44.930Z</time>
      </trkpt>
      <trkpt lat="47.7664" lon="2.11719">
        <ele>129</ele>
        <time>2017-02-05T09:49:45.922Z</time>
      </trkpt>
      <trkpt lat="47.76645" lon="2.11731">
        <ele>130</ele>
        <time>2017-02-05T09:49:46.942Z</time>
      </trkpt>
      <trkpt lat="47.76645" lon="2.11731">
        <ele>130</ele>
        <time>2017-02-05T09:49:47.926Z</time>
      </trkpt>
      <trkpt lat="47.76651" lon="2.11743">
        <ele>130</ele>
        <time>2017-02-05T09:49:48.931Z</time>
      </trkpt>
      <trkpt lat="47.76651" lon="2.11743">
        <ele>130</ele>
        <time>2017-02-05T09:49:49.926Z</time>
      </trkpt>
      <trkpt lat="47.76658" lon="2.11755">
        <ele>131</ele>
        <time>2017-02-05T09:49:50.928Z</time>
      </trkpt>
      <trkpt lat="47.76658" lon="2.11755">
        <ele>131</ele>
        <time>2017-02-05T09:49:51.926Z</time>
      </trkpt>
      <trkpt lat="47.76665" lon="2.11766">
        <ele>132</ele>
        <time>2017-02-05T09:49:52.929Z</time>
      </trkpt>
      <trkpt lat="47.76665" lon="2.11766">
        <ele>132</ele>
        <time>2017-02-05T09:49:53.922Z</time>
      </trkpt>
      <trkpt lat="47.76671" lon="2.11779">
        <ele>133</ele>
        <time>2017-02-05T09:49:54.930Z</time>
      </trkpt>
      <trkpt lat="47.76671" lon="2.11779">
        <ele>133</ele>
        <time>2017-02-05T09:49:55.926Z</time>
      </trkpt>
      <trkpt lat="47.76678" lon="2.11792">
        <ele>134</ele>
        <time>2017-02-05T09:49:56.929Z</time>
      </trkpt>
      <trkpt lat="47.76678" lon="2.11792">
        <ele>134</ele>
        <time>2017-02-05T09:49:57.927Z</time>
      </trkpt>
      <trkpt lat="47.76685" lon="2.11804">
        <ele>135</ele>
        <time>2017-02-05T09:49:58.928Z</time>
      </trkpt>
      <trkpt lat="47.76688" lon="2.1181">
        <ele>135</ele>
        <time>2017-02-05T09:49:59.929Z</time>
      </trkpt>
      <trkpt lat="47.76691" lon="2.11816">
        <ele>135</ele>
        <time>2017-02-05T09:50:00.930Z</time>
      </trkpt>
      <trkpt lat="47.76691" lon="2.11816">
        <ele>135</ele>
        <time>2017-02-05T09:50:01.961Z</time>
      </trkpt>
      <trkpt lat="47.76698" lon="2.11827">
        <ele>137</ele>
        <time>2017-02-05T09:50:02.938Z</time>
      </trkpt>
      <trkpt lat="47.76701" lon="2.11833">
        <ele>137</ele>
        <time>2017-02-05T09:50:03.929Z</time>
      </trkpt>
      <trkpt lat="47.76701" lon="2.11833">
        <ele>137</ele>
        <time>2017-02-05T09:50:04.926Z</time>
      </trkpt>
      <trkpt lat="47.76708" lon="2.11847">
        <ele>138</ele>
        <time>2017-02-05T09:50:05.929Z</time>
      </trkpt>
      <trkpt lat="47.76708" lon="2.11847">
        <ele>138</ele>
        <time>2017-02-05T09:50:06.929Z</time>
      </trkpt>
      <trkpt lat="47.76714" lon="2.11861">
        <ele>138</ele>
        <time>2017-02-05T09:50:07.944Z</time>
      </trkpt>
      <trkpt lat="47.76714" lon="2.11861">
        <ele>138</ele>
        <time>2017-02-05T09:50:08.956Z</time>
      </trkpt>
      <trkpt lat="47.7672" lon="2.11875">
        <ele>139</ele>
        <time>2017-02-05T09:50:09.924Z</time>
      </trkpt>
      <trkpt lat="47.7672" lon="2.11875">
        <ele>139</ele>
        <time>2017-02-05T09:50:10.931Z</time>
      </trkpt>
      <trkpt lat="47.76726" lon="2.11888">
        <ele>139</ele>
        <time>2017-02-05T09:50:11.942Z</time>
      </trkpt>
      <trkpt lat="47.7673" lon="2.11894">
        <ele>139</ele>
        <time>2017-02-05T09:50:12.938Z</time>
      </trkpt>
      <trkpt lat="47.7673" lon="2.11894">
        <ele>139</ele>
        <time>2017-02-05T09:50:13.922Z</time>
      </trkpt>
      <trkpt lat="47.76735" lon="2.11907">
        <ele>139</ele>
        <time>2017-02-05T09:50:14.945Z</time>
      </trkpt>
      <trkpt lat="47.76735" lon="2.11907">
        <ele>139</ele>
        <time>2017-02-05T09:50:15.928Z</time>
      </trkpt>
      <trkpt lat="47.76742" lon="2.11919">
        <ele>140</ele>
        <time>2017-02-05T09:50:16.930Z</time>
      </trkpt>
      <trkpt lat="47.76745" lon="2.11926">
        <ele>140</ele>
        <time>2017-02-05T09:50:17.928Z</time>
      </trkpt>
      <trkpt lat="47.76745" lon="2.11926">
        <ele>140</ele>
        <time>2017-02-05T09:50:18.924Z</time>
      </trkpt>
      <trkpt lat="47.7675" lon="2.11939">
        <ele>140</ele>
        <time>2017-02-05T09:50:19.929Z</time>
      </trkpt>
      <trkpt lat="47.7675" lon="2.11939">
        <ele>140</ele>
        <time>2017-02-05T09:50:20.926Z</time>
      </trkpt>
      <trkpt lat="47.76758" lon="2.1195">
        <ele>140</ele>
        <time>2017-02-05T09:50:21.924Z</time>
      </trkpt>
      <trkpt lat="47.76761" lon="2.11956">
        <ele>140</ele>
        <time>2017-02-05T09:50:22.928Z</time>
      </trkpt>
      <trkpt lat="47.76761" lon="2.11956">
        <ele>140</ele>
        <time>2017-02-05T09:50:23.922Z</time>
      </trkpt>
      <trkpt lat="47.76767" lon="2.11968">
        <ele>140</ele>
        <time>2017-02-05T09:50:24.930Z</time>
      </trkpt>
      <trkpt lat="47.7677" lon="2.11975">
        <ele>140</ele>
        <time>2017-02-05T09:50:25.929Z</time>
      </trkpt>
      <trkpt lat="47.7677" lon="2.11975">
        <ele>140</ele>
        <time>2017-02-05T09:50:26.934Z</time>
      </trkpt>
      <trkpt lat="47.76776" lon="2.1199">
        <ele>140</ele>
        <time>2017-02-05T09:50:27.927Z</time>
      </trkpt>
      <trkpt lat="47.76776" lon="2.1199">
        <ele>140</ele>
        <time>2017-02-05T09:50:28.925Z</time>
      </trkpt>
      <trkpt lat="47.7678" lon="2.12007">
        <ele>140</ele>
        <time>2017-02-05T09:50:29.929Z</time>
      </trkpt>
      <trkpt lat="47.7678" lon="2.12007">
        <ele>140</ele>
        <time>2017-02-05T09:50:30.929Z</time>
      </trkpt>
      <trkpt lat="47.76785" lon="2.12023">
        <ele>140</ele>
        <time>2017-02-05T09:50:31.953Z</time>
      </trkpt>
      <trkpt lat="47.76787" lon="2.12031">
        <ele>140</ele>
        <time>2017-02-05T09:50:32.943Z</time>
      </trkpt>
      <trkpt lat="47.76787" lon="2.12031">
        <ele>140</ele>
        <time>2017-02-05T09:50:33.925Z</time>
      </trkpt>
      <trkpt lat="47.76787" lon="2.12031">
        <ele>140</ele>
        <time>2017-02-05T09:50:34.922Z</time>
      </trkpt>
      <trkpt lat="47.76792" lon="2.12046">
        <ele>140</ele>
        <time>2017-02-05T09:50:35.942Z</time>
      </trkpt>
      <trkpt lat="47.76797" lon="2.1206">
        <ele>140</ele>
        <time>2017-02-05T09:50:36.931Z</time>
      </trkpt>
      <trkpt lat="47.76797" lon="2.1206">
        <ele>140</ele>
        <time>2017-02-05T09:50:37.927Z</time>
      </trkpt>
      <trkpt lat="47.76802" lon="2.12074">
        <ele>139</ele>
        <time>2017-02-05T09:50:38.928Z</time>
      </trkpt>
      <trkpt lat="47.76802" lon="2.12074">
        <ele>139</ele>
        <time>2017-02-05T09:50:39.928Z</time>
      </trkpt>
      <trkpt lat="47.76806" lon="2.12089">
        <ele>138</ele>
        <time>2017-02-05T09:50:40.930Z</time>
      </trkpt>
      <trkpt lat="47.76808" lon="2.12097">
        <ele>137</ele>
        <time>2017-02-05T09:50:41.931Z</time>
      </trkpt>
      <trkpt lat="47.76808" lon="2.12097">
        <ele>137</ele>
        <time>2017-02-05T09:50:42.940Z</time>
      </trkpt>
      <trkpt lat="47.76814" lon="2.12112">
        <ele>137</ele>
        <time>2017-02-05T09:50:43.930Z</time>
      </trkpt>
      <trkpt lat="47.76817" lon="2.12119">
        <ele>136</ele>
        <time>2017-02-05T09:50:44.930Z</time>
      </trkpt>
      <trkpt lat="47.76817" lon="2.12119">
        <ele>136</ele>
        <time>2017-02-05T09:50:45.927Z</time>
      </trkpt>
      <trkpt lat="47.76825" lon="2.12131">
        <ele>136</ele>
        <time>2017-02-05T09:50:46.929Z</time>
      </trkpt>
      <trkpt lat="47.76825" lon="2.12131">
        <ele>136</ele>
        <time>2017-02-05T09:50:47.923Z</time>
      </trkpt>
      <trkpt lat="47.76834" lon="2.12142">
        <ele>135</ele>
        <time>2017-02-05T09:50:48.930Z</time>
      </trkpt>
      <trkpt lat="47.76839" lon="2.12147">
        <ele>135</ele>
        <time>2017-02-05T09:50:49.929Z</time>
      </trkpt>
      <trkpt lat="47.76839" lon="2.12147">
        <ele>135</ele>
        <time>2017-02-05T09:50:50.927Z</time>
      </trkpt>
      <trkpt lat="47.76848" lon="2.12159">
        <ele>135</ele>
        <time>2017-02-05T09:50:51.929Z</time>
      </trkpt>
      <trkpt lat="47.76848" lon="2.12159">
        <ele>135</ele>
        <time>2017-02-05T09:50:52.924Z</time>
      </trkpt>
      <trkpt lat="47.76856" lon="2.12172">
        <ele>134</ele>
        <time>2017-02-05T09:50:53.929Z</time>
      </trkpt>
      <trkpt lat="47.76859" lon="2.12179">
        <ele>134</ele>
        <time>2017-02-05T09:50:54.931Z</time>
      </trkpt>
      <trkpt lat="47.76859" lon="2.12179">
        <ele>134</ele>
        <time>2017-02-05T09:50:55.924Z</time>
      </trkpt>
      <trkpt lat="47.76863" lon="2.12196">
        <ele>133</ele>
        <time>2017-02-05T09:50:56.930Z</time>
      </trkpt>
      <trkpt lat="47.76863" lon="2.12196">
        <ele>133</ele>
        <time>2017-02-05T09:50:57.927Z</time>
      </trkpt>
      <trkpt lat="47.76868" lon="2.12212">
        <ele>132</ele>
        <time>2017-02-05T09:50:58.929Z</time>
      </trkpt>
      <trkpt lat="47.76868" lon="2.12212">
        <ele>132</ele>
        <time>2017-02-05T09:50:59.927Z</time>
      </trkpt>
      <trkpt lat="47.76871" lon="2.12229">
        <ele>133</ele>
        <time>2017-02-05T09:51:00.930Z</time>
      </trkpt>
      <trkpt lat="47.76873" lon="2.12237">
        <ele>133</ele>
        <time>2017-02-05T09:51:01.930Z</time>
      </trkpt>
      <trkpt lat="47.76873" lon="2.12237">
        <ele>133</ele>
        <time>2017-02-05T09:51:02.948Z</time>
      </trkpt>
      <trkpt lat="47.76877" lon="2.12253">
        <ele>132</ele>
        <time>2017-02-05T09:51:03.939Z</time>
      </trkpt>
      <trkpt lat="47.76877" lon="2.12253">
        <ele>132</ele>
        <time>2017-02-05T09:51:04.924Z</time>
      </trkpt>
      <trkpt lat="47.76881" lon="2.1227">
        <ele>132</ele>
        <time>2017-02-05T09:51:05.930Z</time>
      </trkpt>
      <trkpt lat="47.76881" lon="2.1227">
        <ele>132</ele>
        <time>2017-02-05T09:51:06.927Z</time>
      </trkpt>
      <trkpt lat="47.76884" lon="2.12287">
        <ele>131</ele>
        <time>2017-02-05T09:51:07.946Z</time>
      </trkpt>
      <trkpt lat="47.76884" lon="2.12287">
        <ele>131</ele>
        <time>2017-02-05T09:51:08.928Z</time>
      </trkpt>
      <trkpt lat="47.76888" lon="2.12303">
        <ele>131</ele>
        <time>2017-02-05T09:51:09.934Z</time>
      </trkpt>
      <trkpt lat="47.7689" lon="2.12311">
        <ele>131</ele>
        <time>2017-02-05T09:51:10.940Z</time>
      </trkpt>
      <trkpt lat="47.76891" lon="2.12319">
        <ele>131</ele>
        <time>2017-02-05T09:51:11.930Z</time>
      </trkpt>
      <trkpt lat="47.76891" lon="2.12319">
        <ele>131</ele>
        <time>2017-02-05T09:51:12.927Z</time>
      </trkpt>
      <trkpt lat="47.76895" lon="2.12334">
        <ele>132</ele>
        <time>2017-02-05T09:51:13.929Z</time>
      </trkpt>
      <trkpt lat="47.76895" lon="2.12334">
        <ele>132</ele>
        <time>2017-02-05T09:51:14.927Z</time>
      </trkpt>
      <trkpt lat="47.76898" lon="2.1235">
        <ele>132</ele>
        <time>2017-02-05T09:51:15.929Z</time>
      </trkpt>
      <trkpt lat="47.76898" lon="2.1235">
        <ele>132</ele>
        <time>2017-02-05T09:51:16.926Z</time>
      </trkpt>
      <trkpt lat="47.76902" lon="2.12366">
        <ele>132</ele>
        <time>2017-02-05T09:51:17.929Z</time>
      </trkpt>
      <trkpt lat="47.76902" lon="2.12366">
        <ele>132</ele>
        <time>2017-02-05T09:51:18.927Z</time>
      </trkpt>
      <trkpt lat="47.76905" lon="2.12382">
        <ele>132</ele>
        <time>2017-02-05T09:51:19.929Z</time>
      </trkpt>
      <trkpt lat="47.76907" lon="2.1239">
        <ele>132</ele>
        <time>2017-02-05T09:51:20.927Z</time>
      </trkpt>
      <trkpt lat="47.76907" lon="2.1239">
        <ele>132</ele>
        <time>2017-02-05T09:51:21.922Z</time>
      </trkpt>
      <trkpt lat="47.76911" lon="2.12406">
        <ele>132</ele>
        <time>2017-02-05T09:51:22.931Z</time>
      </trkpt>
      <trkpt lat="47.76911" lon="2.12406">
        <ele>132</ele>
        <time>2017-02-05T09:51:23.927Z</time>
      </trkpt>
      <trkpt lat="47.76914" lon="2.12423">
        <ele>132</ele>
        <time>2017-02-05T09:51:24.930Z</time>
      </trkpt>
      <trkpt lat="47.76914" lon="2.12423">
        <ele>132</ele>
        <time>2017-02-05T09:51:25.922Z</time>
      </trkpt>
      <trkpt lat="47.76918" lon="2.12439">
        <ele>132</ele>
        <time>2017-02-05T09:51:26.929Z</time>
      </trkpt>
      <trkpt lat="47.7692" lon="2.12448">
        <ele>132</ele>
        <time>2017-02-05T09:51:27.929Z</time>
      </trkpt>
      <trkpt lat="47.7692" lon="2.12448">
        <ele>132</ele>
        <time>2017-02-05T09:51:28.926Z</time>
      </trkpt>
      <trkpt lat="47.76924" lon="2.12464">
        <ele>132</ele>
        <time>2017-02-05T09:51:29.929Z</time>
      </trkpt>
      <trkpt lat="47.76924" lon="2.12464">
        <ele>132</ele>
        <time>2017-02-05T09:51:30.927Z</time>
      </trkpt>
      <trkpt lat="47.76928" lon="2.12481">
        <ele>132</ele>
        <time>2017-02-05T09:51:31.929Z</time>
      </trkpt>
      <trkpt lat="47.7693" lon="2.1249">
        <ele>132</ele>
        <time>2017-02-05T09:51:32.929Z</time>
      </trkpt>
      <trkpt lat="47.7693" lon="2.1249">
        <ele>132</ele>
        <time>2017-02-05T09:51:33.923Z</time>
      </trkpt>
      <trkpt lat="47.76935" lon="2.12506">
        <ele>132</ele>
        <time>2017-02-05T09:51:34.942Z</time>
      </trkpt>
      <trkpt lat="47.76935" lon="2.12506">
        <ele>132</ele>
        <time>2017-02-05T09:51:35.935Z</time>
      </trkpt>
      <trkpt lat="47.7694" lon="2.12522">
        <ele>133</ele>
        <time>2017-02-05T09:51:36.932Z</time>
      </trkpt>
      <trkpt lat="47.7694" lon="2.12522">
        <ele>133</ele>
        <time>2017-02-05T09:51:37.922Z</time>
      </trkpt>
      <trkpt lat="47.76947" lon="2.12536">
        <ele>134</ele>
        <time>2017-02-05T09:51:38.930Z</time>
      </trkpt>
      <trkpt lat="47.76947" lon="2.12536">
        <ele>134</ele>
        <time>2017-02-05T09:51:39.924Z</time>
      </trkpt>
      <trkpt lat="47.76953" lon="2.1255">
        <ele>135</ele>
        <time>2017-02-05T09:51:40.928Z</time>
      </trkpt>
      <trkpt lat="47.76957" lon="2.12557">
        <ele>136</ele>
        <time>2017-02-05T09:51:41.932Z</time>
      </trkpt>
      <trkpt lat="47.76957" lon="2.12557">
        <ele>136</ele>
        <time>2017-02-05T09:51:42.925Z</time>
      </trkpt>
      <trkpt lat="47.76964" lon="2.12571">
        <ele>136</ele>
        <time>2017-02-05T09:51:43.929Z</time>
      </trkpt>
      <trkpt lat="47.76968" lon="2.12578">
        <ele>136</ele>
        <time>2017-02-05T09:51:44.929Z</time>
      </trkpt>
      <trkpt lat="47.76968" lon="2.12578">
        <ele>136</ele>
        <time>2017-02-05T09:51:45.927Z</time>
      </trkpt>
      <trkpt lat="47.76975" lon="2.12592">
        <ele>137</ele>
        <time>2017-02-05T09:51:46.929Z</time>
      </trkpt>
      <trkpt lat="47.76975" lon="2.12592">
        <ele>137</ele>
        <time>2017-02-05T09:51:47.924Z</time>
      </trkpt>
      <trkpt lat="47.76982" lon="2.12606">
        <ele>137</ele>
        <time>2017-02-05T09:51:48.930Z</time>
      </trkpt>
      <trkpt lat="47.76986" lon="2.12612">
        <ele>138</ele>
        <time>2017-02-05T09:51:49.930Z</time>
      </trkpt>
      <trkpt lat="47.7699" lon="2.12618">
        <ele>138</ele>
        <time>2017-02-05T09:51:50.927Z</time>
      </trkpt>
      <trkpt lat="47.7699" lon="2.12618">
        <ele>138</ele>
        <time>2017-02-05T09:51:51.924Z</time>
      </trkpt>
      <trkpt lat="47.76997" lon="2.12632">
        <ele>139</ele>
        <time>2017-02-05T09:51:52.930Z</time>
      </trkpt>
      <trkpt lat="47.77001" lon="2.12639">
        <ele>139</ele>
        <time>2017-02-05T09:51:53.929Z</time>
      </trkpt>
      <trkpt lat="47.77004" lon="2.12645">
        <ele>139</ele>
        <time>2017-02-05T09:51:54.931Z</time>
      </trkpt>
      <trkpt lat="47.77004" lon="2.12645">
        <ele>139</ele>
        <time>2017-02-05T09:51:55.922Z</time>
      </trkpt>
      <trkpt lat="47.77011" lon="2.12659">
        <ele>140</ele>
        <time>2017-02-05T09:51:56.928Z</time>
      </trkpt>
      <trkpt lat="47.77011" lon="2.12659">
        <ele>140</ele>
        <time>2017-02-05T09:51:57.927Z</time>
      </trkpt>
      <trkpt lat="47.77018" lon="2.12673">
        <ele>141</ele>
        <time>2017-02-05T09:51:58.929Z</time>
      </trkpt>
      <trkpt lat="47.77022" lon="2.1268">
        <ele>141</ele>
        <time>2017-02-05T09:51:59.929Z</time>
      </trkpt>
      <trkpt lat="47.77025" lon="2.12687">
        <ele>142</ele>
        <time>2017-02-05T09:52:00.931Z</time>
      </trkpt>
      <trkpt lat="47.77025" lon="2.12687">
        <ele>142</ele>
        <time>2017-02-05T09:52:01.934Z</time>
      </trkpt>
      <trkpt lat="47.77032" lon="2.12701">
        <ele>143</ele>
        <time>2017-02-05T09:52:02.927Z</time>
      </trkpt>
      <trkpt lat="47.77036" lon="2.12708">
        <ele>144</ele>
        <time>2017-02-05T09:52:03.930Z</time>
      </trkpt>
      <trkpt lat="47.77036" lon="2.12708">
        <ele>144</ele>
        <time>2017-02-05T09:52:04.922Z</time>
      </trkpt>
      <trkpt lat="47.77043" lon="2.12723">
        <ele>145</ele>
        <time>2017-02-05T09:52:05.930Z</time>
      </trkpt>
      <trkpt lat="47.77043" lon="2.12723">
        <ele>145</ele>
        <time>2017-02-05T09:52:06.930Z</time>
      </trkpt>
      <trkpt lat="47.7705" lon="2.12737">
        <ele>145</ele>
        <time>2017-02-05T09:52:07.944Z</time>
      </trkpt>
      <trkpt lat="47.7705" lon="2.12737">
        <ele>145</ele>
        <time>2017-02-05T09:52:08.961Z</time>
      </trkpt>
      <trkpt lat="47.77058" lon="2.12751">
        <ele>146</ele>
        <time>2017-02-05T09:52:09.927Z</time>
      </trkpt>
      <trkpt lat="47.77062" lon="2.12758">
        <ele>146</ele>
        <time>2017-02-05T09:52:10.935Z</time>
      </trkpt>
      <trkpt lat="47.77062" lon="2.12758">
        <ele>146</ele>
        <time>2017-02-05T09:52:11.927Z</time>
      </trkpt>
      <trkpt lat="47.77069" lon="2.12773">
        <ele>146</ele>
        <time>2017-02-05T09:52:12.926Z</time>
      </trkpt>
      <trkpt lat="47.77073" lon="2.12781">
        <ele>146</ele>
        <time>2017-02-05T09:52:13.930Z</time>
      </trkpt>
      <trkpt lat="47.77073" lon="2.12781">
        <ele>146</ele>
        <time>2017-02-05T09:52:14.942Z</time>
      </trkpt>
      <trkpt lat="47.77081" lon="2.12795">
        <ele>147</ele>
        <time>2017-02-05T09:52:15.931Z</time>
      </trkpt>
      <trkpt lat="47.77081" lon="2.12795">
        <ele>147</ele>
        <time>2017-02-05T09:52:16.926Z</time>
      </trkpt>
      <trkpt lat="47.7709" lon="2.12808">
        <ele>147</ele>
        <time>2017-02-05T09:52:17.929Z</time>
      </trkpt>
      <trkpt lat="47.77095" lon="2.12813">
        <ele>147</ele>
        <time>2017-02-05T09:52:18.932Z</time>
      </trkpt>
      <trkpt lat="47.77095" lon="2.12813">
        <ele>147</ele>
        <time>2017-02-05T09:52:19.922Z</time>
      </trkpt>
      <trkpt lat="47.77106" lon="2.12823">
        <ele>148</ele>
        <time>2017-02-05T09:52:20.931Z</time>
      </trkpt>
      <trkpt lat="47.77106" lon="2.12823">
        <ele>148</ele>
        <time>2017-02-05T09:52:21.928Z</time>
      </trkpt>
      <trkpt lat="47.77117" lon="2.12831">
        <ele>148</ele>
        <time>2017-02-05T09:52:22.938Z</time>
      </trkpt>
      <trkpt lat="47.77117" lon="2.12831">
        <ele>148</ele>
        <time>2017-02-05T09:52:23.922Z</time>
      </trkpt>
      <trkpt lat="47.77127" lon="2.12838">
        <ele>148</ele>
        <time>2017-02-05T09:52:24.931Z</time>
      </trkpt>
      <trkpt lat="47.77127" lon="2.12838">
        <ele>148</ele>
        <time>2017-02-05T09:52:25.928Z</time>
      </trkpt>
      <trkpt lat="47.77138" lon="2.12846">
        <ele>148</ele>
        <time>2017-02-05T09:52:26.929Z</time>
      </trkpt>
      <trkpt lat="47.77138" lon="2.12846">
        <ele>148</ele>
        <time>2017-02-05T09:52:27.922Z</time>
      </trkpt>
      <trkpt lat="47.77148" lon="2.12853">
        <ele>148</ele>
        <time>2017-02-05T09:52:28.930Z</time>
      </trkpt>
      <trkpt lat="47.77152" lon="2.12857">
        <ele>148</ele>
        <time>2017-02-05T09:52:29.930Z</time>
      </trkpt>
      <trkpt lat="47.77152" lon="2.12857">
        <ele>148</ele>
        <time>2017-02-05T09:52:30.930Z</time>
      </trkpt>
      <trkpt lat="47.77163" lon="2.12864">
        <ele>148</ele>
        <time>2017-02-05T09:52:31.930Z</time>
      </trkpt>
      <trkpt lat="47.77168" lon="2.12869">
        <ele>147</ele>
        <time>2017-02-05T09:52:32.934Z</time>
      </trkpt>
      <trkpt lat="47.77168" lon="2.12869">
        <ele>147</ele>
        <time>2017-02-05T09:52:33.923Z</time>
      </trkpt>
      <trkpt lat="47.77178" lon="2.12877">
        <ele>146</ele>
        <time>2017-02-05T09:52:34.930Z</time>
      </trkpt>
      <trkpt lat="47.77178" lon="2.12877">
        <ele>146</ele>
        <time>2017-02-05T09:52:35.937Z</time>
      </trkpt>
      <trkpt lat="47.77189" lon="2.12885">
        <ele>145</ele>
        <time>2017-02-05T09:52:36.930Z</time>
      </trkpt>
      <trkpt lat="47.77189" lon="2.12885">
        <ele>145</ele>
        <time>2017-02-05T09:52:37.927Z</time>
      </trkpt>
      <trkpt lat="47.77199" lon="2.12893">
        <ele>145</ele>
        <time>2017-02-05T09:52:38.929Z</time>
      </trkpt>
      <trkpt lat="47.77199" lon="2.12893">
        <ele>145</ele>
        <time>2017-02-05T09:52:39.928Z</time>
      </trkpt>
      <trkpt lat="47.7721" lon="2.12901">
        <ele>144</ele>
        <time>2017-02-05T09:52:40.929Z</time>
      </trkpt>
      <trkpt lat="47.77216" lon="2.12905">
        <ele>144</ele>
        <time>2017-02-05T09:52:41.929Z</time>
      </trkpt>
      <trkpt lat="47.77216" lon="2.12905">
        <ele>144</ele>
        <time>2017-02-05T09:52:42.951Z</time>
      </trkpt>
      <trkpt lat="47.77227" lon="2.12913">
        <ele>144</ele>
        <time>2017-02-05T09:52:43.927Z</time>
      </trkpt>
      <trkpt lat="47.77227" lon="2.12913">
        <ele>144</ele>
        <time>2017-02-05T09:52:44.928Z</time>
      </trkpt>
      <trkpt lat="47.77238" lon="2.12922">
        <ele>144</ele>
        <time>2017-02-05T09:52:45.929Z</time>
      </trkpt>
      <trkpt lat="47.77238" lon="2.12922">
        <ele>144</ele>
        <time>2017-02-05T09:52:46.922Z</time>
      </trkpt>
      <trkpt lat="47.77249" lon="2.1293">
        <ele>143</ele>
        <time>2017-02-05T09:52:47.927Z</time>
      </trkpt>
      <trkpt lat="47.77249" lon="2.1293">
        <ele>143</ele>
        <time>2017-02-05T09:52:48.931Z</time>
      </trkpt>
      <trkpt lat="47.7726" lon="2.12936">
        <ele>144</ele>
        <time>2017-02-05T09:52:49.929Z</time>
      </trkpt>
      <trkpt lat="47.7726" lon="2.12936">
        <ele>144</ele>
        <time>2017-02-05T09:52:50.928Z</time>
      </trkpt>
      <trkpt lat="47.7727" lon="2.12944">
        <ele>144</ele>
        <time>2017-02-05T09:52:51.928Z</time>
      </trkpt>
      <trkpt lat="47.7727" lon="2.12944">
        <ele>144</ele>
        <time>2017-02-05T09:52:52.922Z</time>
      </trkpt>
      <trkpt lat="47.7728" lon="2.12951">
        <ele>144</ele>
        <time>2017-02-05T09:52:53.929Z</time>
      </trkpt>
      <trkpt lat="47.77284" lon="2.12955">
        <ele>144</ele>
        <time>2017-02-05T09:52:54.931Z</time>
      </trkpt>
      <trkpt lat="47.77284" lon="2.12955">
        <ele>144</ele>
        <time>2017-02-05T09:52:55.924Z</time>
      </trkpt>
      <trkpt lat="47.77294" lon="2.12962">
        <ele>144</ele>
        <time>2017-02-05T09:52:56.929Z</time>
      </trkpt>
      <trkpt lat="47.77294" lon="2.12962">
        <ele>144</ele>
        <time>2017-02-05T09:52:57.925Z</time>
      </trkpt>
      <trkpt lat="47.77305" lon="2.12969">
        <ele>144</ele>
        <time>2017-02-05T09:52:58.930Z</time>
      </trkpt>
      <trkpt lat="47.7731" lon="2.12972">
        <ele>145</ele>
        <time>2017-02-05T09:52:59.928Z</time>
      </trkpt>
      <trkpt lat="47.7731" lon="2.12972">
        <ele>145</ele>
        <time>2017-02-05T09:53:00.929Z</time>
      </trkpt>
      <trkpt lat="47.7732" lon="2.12979">
        <ele>145</ele>
        <time>2017-02-05T09:53:01.930Z</time>
      </trkpt>
      <trkpt lat="47.77325" lon="2.12981">
        <ele>145</ele>
        <time>2017-02-05T09:53:02.928Z</time>
      </trkpt>
      <trkpt lat="47.77325" lon="2.12981">
        <ele>145</ele>
        <time>2017-02-05T09:53:03.923Z</time>
      </trkpt>
      <trkpt lat="47.77337" lon="2.12989">
        <ele>146</ele>
        <time>2017-02-05T09:53:04.929Z</time>
      </trkpt>
      <trkpt lat="47.77337" lon="2.12989">
        <ele>146</ele>
        <time>2017-02-05T09:53:05.927Z</time>
      </trkpt>
      <trkpt lat="47.77348" lon="2.12995">
        <ele>147</ele>
        <time>2017-02-05T09:53:06.931Z</time>
      </trkpt>
      <trkpt lat="47.77348" lon="2.12995">
        <ele>147</ele>
        <time>2017-02-05T09:53:07.923Z</time>
      </trkpt>
      <trkpt lat="47.7736" lon="2.13">
        <ele>147</ele>
        <time>2017-02-05T09:53:08.930Z</time>
      </trkpt>
      <trkpt lat="47.7736" lon="2.13">
        <ele>147</ele>
        <time>2017-02-05T09:53:09.927Z</time>
      </trkpt>
      <trkpt lat="47.77371" lon="2.13006">
        <ele>148</ele>
        <time>2017-02-05T09:53:10.930Z</time>
      </trkpt>
      <trkpt lat="47.77371" lon="2.13006">
        <ele>148</ele>
        <time>2017-02-05T09:53:11.931Z</time>
      </trkpt>
      <trkpt lat="47.77382" lon="2.1301">
        <ele>148</ele>
        <time>2017-02-05T09:53:12.931Z</time>
      </trkpt>
      <trkpt lat="47.77382" lon="2.1301">
        <ele>148</ele>
        <time>2017-02-05T09:53:13.928Z</time>
      </trkpt>
      <trkpt lat="47.77394" lon="2.13015">
        <ele>149</ele>
        <time>2017-02-05T09:53:14.930Z</time>
      </trkpt>
      <trkpt lat="47.774" lon="2.13018">
        <ele>150</ele>
        <time>2017-02-05T09:53:15.932Z</time>
      </trkpt>
      <trkpt lat="47.774" lon="2.13018">
        <ele>150</ele>
        <time>2017-02-05T09:53:16.924Z</time>
      </trkpt>
      <trkpt lat="47.77411" lon="2.13024">
        <ele>150</ele>
        <time>2017-02-05T09:53:17.930Z</time>
      </trkpt>
      <trkpt lat="47.77417" lon="2.13027">
        <ele>151</ele>
        <time>2017-02-05T09:53:18.932Z</time>
      </trkpt>
      <trkpt lat="47.77417" lon="2.13027">
        <ele>151</ele>
        <time>2017-02-05T09:53:19.927Z</time>
      </trkpt>
      <trkpt lat="47.77428" lon="2.13031">
        <ele>151</ele>
        <time>2017-02-05T09:53:20.930Z</time>
      </trkpt>
      <trkpt lat="47.77428" lon="2.13031">
        <ele>151</ele>
        <time>2017-02-05T09:53:21.928Z</time>
      </trkpt>
      <trkpt lat="47.77441" lon="2.13037">
        <ele>152</ele>
        <time>2017-02-05T09:53:22.929Z</time>
      </trkpt>
      <trkpt lat="47.77441" lon="2.13037">
        <ele>152</ele>
        <time>2017-02-05T09:53:23.923Z</time>
      </trkpt>
      <trkpt lat="47.77454" lon="2.13041">
        <ele>152</ele>
        <time>2017-02-05T09:53:24.931Z</time>
      </trkpt>
      <trkpt lat="47.77454" lon="2.13041">
        <ele>152</ele>
        <time>2017-02-05T09:53:25.927Z</time>
      </trkpt>
      <trkpt lat="47.77466" lon="2.13046">
        <ele>152</ele>
        <time>2017-02-05T09:53:26.931Z</time>
      </trkpt>
      <trkpt lat="47.77466" lon="2.13046">
        <ele>152</ele>
        <time>2017-02-05T09:53:27.923Z</time>
      </trkpt>
      <trkpt lat="47.7748" lon="2.1305">
        <ele>151</ele>
        <time>2017-02-05T09:53:28.930Z</time>
      </trkpt>
      <trkpt lat="47.77486" lon="2.13053">
        <ele>151</ele>
        <time>2017-02-05T09:53:29.931Z</time>
      </trkpt>
      <trkpt lat="47.77486" lon="2.13053">
        <ele>151</ele>
        <time>2017-02-05T09:53:30.930Z</time>
      </trkpt>
      <trkpt lat="47.77498" lon="2.13058">
        <ele>149</ele>
        <time>2017-02-05T09:53:31.930Z</time>
      </trkpt>
      <trkpt lat="47.77498" lon="2.13058">
        <ele>149</ele>
        <time>2017-02-05T09:53:32.927Z</time>
      </trkpt>
      <trkpt lat="47.7751" lon="2.13065">
        <ele>146</ele>
        <time>2017-02-05T09:53:33.945Z</time>
      </trkpt>
      <trkpt lat="47.7751" lon="2.13065">
        <ele>146</ele>
        <time>2017-02-05T09:53:34.930Z</time>
      </trkpt>
      <trkpt lat="47.7752" lon="2.13072">
        <ele>146</ele>
        <time>2017-02-05T09:53:35.938Z</time>
      </trkpt>
      <trkpt lat="47.77526" lon="2.13074">
        <ele>145</ele>
        <time>2017-02-05T09:53:36.939Z</time>
      </trkpt>
      <trkpt lat="47.77532" lon="2.13076">
        <ele>145</ele>
        <time>2017-02-05T09:53:37.931Z</time>
      </trkpt>
      <trkpt lat="47.77538" lon="2.13078">
        <ele>145</ele>
        <time>2017-02-05T09:53:38.927Z</time>
      </trkpt>
      <trkpt lat="47.77538" lon="2.13078">
        <ele>145</ele>
        <time>2017-02-05T09:53:39.924Z</time>
      </trkpt>
      <trkpt lat="47.77552" lon="2.13078">
        <ele>144</ele>
        <time>2017-02-05T09:53:40.938Z</time>
      </trkpt>
      <trkpt lat="47.77552" lon="2.13078">
        <ele>144</ele>
        <time>2017-02-05T09:53:41.928Z</time>
      </trkpt>
      <trkpt lat="47.77566" lon="2.1308">
        <ele>143</ele>
        <time>2017-02-05T09:53:42.930Z</time>
      </trkpt>
      <trkpt lat="47.77566" lon="2.1308">
        <ele>143</ele>
        <time>2017-02-05T09:53:43.925Z</time>
      </trkpt>
      <trkpt lat="47.7758" lon="2.13083">
        <ele>142</ele>
        <time>2017-02-05T09:53:44.930Z</time>
      </trkpt>
      <trkpt lat="47.7758" lon="2.13083">
        <ele>142</ele>
        <time>2017-02-05T09:53:45.927Z</time>
      </trkpt>
      <trkpt lat="47.77594" lon="2.13086">
        <ele>142</ele>
        <time>2017-02-05T09:53:46.930Z</time>
      </trkpt>
      <trkpt lat="47.77601" lon="2.13088">
        <ele>142</ele>
        <time>2017-02-05T09:53:47.927Z</time>
      </trkpt>
      <trkpt lat="47.77601" lon="2.13088">
        <ele>142</ele>
        <time>2017-02-05T09:53:48.928Z</time>
      </trkpt>
      <trkpt lat="47.77617" lon="2.13091">
        <ele>141</ele>
        <time>2017-02-05T09:53:49.929Z</time>
      </trkpt>
      <trkpt lat="47.77624" lon="2.13092">
        <ele>141</ele>
        <time>2017-02-05T09:53:50.928Z</time>
      </trkpt>
      <trkpt lat="47.77624" lon="2.13092">
        <ele>141</ele>
        <time>2017-02-05T09:53:51.928Z</time>
      </trkpt>
      <trkpt lat="47.77638" lon="2.13094">
        <ele>141</ele>
        <time>2017-02-05T09:53:52.930Z</time>
      </trkpt>
      <trkpt lat="47.77638" lon="2.13094">
        <ele>141</ele>
        <time>2017-02-05T09:53:53.924Z</time>
      </trkpt>
      <trkpt lat="47.77652" lon="2.13096">
        <ele>141</ele>
        <time>2017-02-05T09:53:54.931Z</time>
      </trkpt>
      <trkpt lat="47.77659" lon="2.13097">
        <ele>141</ele>
        <time>2017-02-05T09:53:55.931Z</time>
      </trkpt>
      <trkpt lat="47.77659" lon="2.13097">
        <ele>141</ele>
        <time>2017-02-05T09:53:56.928Z</time>
      </trkpt>
      <trkpt lat="47.77674" lon="2.13099">
        <ele>142</ele>
        <time>2017-02-05T09:53:57.931Z</time>
      </trkpt>
      <trkpt lat="47.77681" lon="2.131">
        <ele>142</ele>
        <time>2017-02-05T09:53:58.929Z</time>
      </trkpt>
      <trkpt lat="47.77688" lon="2.13101">
        <ele>144</ele>
        <time>2017-02-05T09:53:59.930Z</time>
      </trkpt>
      <trkpt lat="47.77688" lon="2.13101">
        <ele>144</ele>
        <time>2017-02-05T09:54:00.928Z</time>
      </trkpt>
      <trkpt lat="47.77703" lon="2.13104">
        <ele>144</ele>
        <time>2017-02-05T09:54:01.932Z</time>
      </trkpt>
      <trkpt lat="47.77703" lon="2.13104">
        <ele>144</ele>
        <time>2017-02-05T09:54:02.932Z</time>
      </trkpt>
      <trkpt lat="47.77718" lon="2.13107">
        <ele>146</ele>
        <time>2017-02-05T09:54:03.924Z</time>
      </trkpt>
      <trkpt lat="47.77726" lon="2.13108">
        <ele>146</ele>
        <time>2017-02-05T09:54:04.930Z</time>
      </trkpt>
      <trkpt lat="47.77726" lon="2.13108">
        <ele>146</ele>
        <time>2017-02-05T09:54:05.927Z</time>
      </trkpt>
      <trkpt lat="47.7774" lon="2.1311">
        <ele>148</ele>
        <time>2017-02-05T09:54:06.931Z</time>
      </trkpt>
      <trkpt lat="47.7774" lon="2.1311">
        <ele>148</ele>
        <time>2017-02-05T09:54:07.954Z</time>
      </trkpt>
      <trkpt lat="47.77755" lon="2.13113">
        <ele>149</ele>
        <time>2017-02-05T09:54:08.949Z</time>
      </trkpt>
      <trkpt lat="47.77763" lon="2.13114">
        <ele>149</ele>
        <time>2017-02-05T09:54:09.959Z</time>
      </trkpt>
      <trkpt lat="47.77763" lon="2.13114">
        <ele>149</ele>
        <time>2017-02-05T09:54:10.925Z</time>
      </trkpt>
      <trkpt lat="47.77778" lon="2.13116">
        <ele>151</ele>
        <time>2017-02-05T09:54:11.931Z</time>
      </trkpt>
      <trkpt lat="47.77778" lon="2.13116">
        <ele>151</ele>
        <time>2017-02-05T09:54:12.931Z</time>
      </trkpt>
      <trkpt lat="47.77792" lon="2.13119">
        <ele>154</ele>
        <time>2017-02-05T09:54:13.932Z</time>
      </trkpt>
      <trkpt lat="47.778" lon="2.1312">
        <ele>153</ele>
        <time>2017-02-05T09:54:14.945Z</time>
      </trkpt>
      <trkpt lat="47.778" lon="2.1312">
        <ele>153</ele>
        <time>2017-02-05T09:54:15.928Z</time>
      </trkpt>
      <trkpt lat="47.77816" lon="2.13123">
        <ele>152</ele>
        <time>2017-02-05T09:54:16.927Z</time>
      </trkpt>
      <trkpt lat="47.77816" lon="2.13123">
        <ele>152</ele>
        <time>2017-02-05T09:54:17.950Z</time>
      </trkpt>
      <trkpt lat="47.77831" lon="2.13124">
        <ele>153</ele>
        <time>2017-02-05T09:54:18.941Z</time>
      </trkpt>
      <trkpt lat="47.77831" lon="2.13124">
        <ele>153</ele>
        <time>2017-02-05T09:54:19.932Z</time>
      </trkpt>
      <trkpt lat="47.77846" lon="2.13125">
        <ele>155</ele>
        <time>2017-02-05T09:54:20.930Z</time>
      </trkpt>
      <trkpt lat="47.77846" lon="2.13125">
        <ele>155</ele>
        <time>2017-02-05T09:54:21.929Z</time>
      </trkpt>
      <trkpt lat="47.77861" lon="2.13126">
        <ele>157</ele>
        <time>2017-02-05T09:54:22.931Z</time>
      </trkpt>
      <trkpt lat="47.77869" lon="2.13128">
        <ele>156</ele>
        <time>2017-02-05T09:54:23.931Z</time>
      </trkpt>
      <trkpt lat="47.77877" lon="2.13129">
        <ele>155</ele>
        <time>2017-02-05T09:54:24.932Z</time>
      </trkpt>
      <trkpt lat="47.77877" lon="2.13129">
        <ele>155</ele>
        <time>2017-02-05T09:54:25.928Z</time>
      </trkpt>
      <trkpt lat="47.77893" lon="2.13132">
        <ele>153</ele>
        <time>2017-02-05T09:54:26.932Z</time>
      </trkpt>
      <trkpt lat="47.77893" lon="2.13132">
        <ele>153</ele>
        <time>2017-02-05T09:54:27.923Z</time>
      </trkpt>
      <trkpt lat="47.7791" lon="2.13135">
        <ele>152</ele>
        <time>2017-02-05T09:54:28.930Z</time>
      </trkpt>
      <trkpt lat="47.77918" lon="2.13136">
        <ele>151</ele>
        <time>2017-02-05T09:54:29.930Z</time>
      </trkpt>
      <trkpt lat="47.77918" lon="2.13136">
        <ele>151</ele>
        <time>2017-02-05T09:54:30.929Z</time>
      </trkpt>
      <trkpt lat="47.77935" lon="2.1314">
        <ele>149</ele>
        <time>2017-02-05T09:54:31.930Z</time>
      </trkpt>
      <trkpt lat="47.77943" lon="2.13141">
        <ele>148</ele>
        <time>2017-02-05T09:54:32.927Z</time>
      </trkpt>
      <trkpt lat="47.7795" lon="2.13142">
        <ele>149</ele>
        <time>2017-02-05T09:54:33.931Z</time>
      </trkpt>
      <trkpt lat="47.7795" lon="2.13142">
        <ele>149</ele>
        <time>2017-02-05T09:54:34.928Z</time>
      </trkpt>
      <trkpt lat="47.77966" lon="2.13145">
        <ele>148</ele>
        <time>2017-02-05T09:54:35.936Z</time>
      </trkpt>
      <trkpt lat="47.77974" lon="2.13146">
        <ele>148</ele>
        <time>2017-02-05T09:54:36.932Z</time>
      </trkpt>
      <trkpt lat="47.77974" lon="2.13146">
        <ele>148</ele>
        <time>2017-02-05T09:54:37.929Z</time>
      </trkpt>
      <trkpt lat="47.7799" lon="2.13149">
        <ele>146</ele>
        <time>2017-02-05T09:54:38.927Z</time>
      </trkpt>
      <trkpt lat="47.7799" lon="2.13149">
        <ele>146</ele>
        <time>2017-02-05T09:54:39.924Z</time>
      </trkpt>
      <trkpt lat="47.78006" lon="2.13152">
        <ele>144</ele>
        <time>2017-02-05T09:54:40.930Z</time>
      </trkpt>
      <trkpt lat="47.78006" lon="2.13152">
        <ele>144</ele>
        <time>2017-02-05T09:54:41.928Z</time>
      </trkpt>
      <trkpt lat="47.78022" lon="2.13156">
        <ele>141</ele>
        <time>2017-02-05T09:54:42.931Z</time>
      </trkpt>
      <trkpt lat="47.7803" lon="2.13158">
        <ele>141</ele>
        <time>2017-02-05T09:54:43.930Z</time>
      </trkpt>
      <trkpt lat="47.78038" lon="2.13159">
        <ele>139</ele>
        <time>2017-02-05T09:54:44.930Z</time>
      </trkpt>
      <trkpt lat="47.78038" lon="2.13159">
        <ele>139</ele>
        <time>2017-02-05T09:54:45.928Z</time>
      </trkpt>
      <trkpt lat="47.78054" lon="2.13162">
        <ele>138</ele>
        <time>2017-02-05T09:54:46.927Z</time>
      </trkpt>
      <trkpt lat="47.78054" lon="2.13162">
        <ele>138</ele>
        <time>2017-02-05T09:54:47.949Z</time>
      </trkpt>
      <trkpt lat="47.78071" lon="2.13165">
        <ele>136</ele>
        <time>2017-02-05T09:54:48.937Z</time>
      </trkpt>
      <trkpt lat="47.78071" lon="2.13165">
        <ele>136</ele>
        <time>2017-02-05T09:54:49.928Z</time>
      </trkpt>
      <trkpt lat="47.78088" lon="2.13168">
        <ele>134</ele>
        <time>2017-02-05T09:54:50.928Z</time>
      </trkpt>
      <trkpt lat="47.78088" lon="2.13168">
        <ele>134</ele>
        <time>2017-02-05T09:54:51.929Z</time>
      </trkpt>
      <trkpt lat="47.78105" lon="2.13171">
        <ele>134</ele>
        <time>2017-02-05T09:54:52.932Z</time>
      </trkpt>
      <trkpt lat="47.78113" lon="2.13172">
        <ele>134</ele>
        <time>2017-02-05T09:54:53.930Z</time>
      </trkpt>
      <trkpt lat="47.78113" lon="2.13172">
        <ele>134</ele>
        <time>2017-02-05T09:54:54.927Z</time>
      </trkpt>
      <trkpt lat="47.7813" lon="2.13175">
        <ele>132</ele>
        <time>2017-02-05T09:54:55.930Z</time>
      </trkpt>
      <trkpt lat="47.78138" lon="2.13177">
        <ele>132</ele>
        <time>2017-02-05T09:54:56.939Z</time>
      </trkpt>
      <trkpt lat="47.78138" lon="2.13177">
        <ele>132</ele>
        <time>2017-02-05T09:54:57.929Z</time>
      </trkpt>
      <trkpt lat="47.78156" lon="2.1318">
        <ele>131</ele>
        <time>2017-02-05T09:54:58.930Z</time>
      </trkpt>
      <trkpt lat="47.78164" lon="2.13181">
        <ele>131</ele>
        <time>2017-02-05T09:54:59.930Z</time>
      </trkpt>
      <trkpt lat="47.78164" lon="2.13181">
        <ele>131</ele>
        <time>2017-02-05T09:55:00.950Z</time>
      </trkpt>
      <trkpt lat="47.78182" lon="2.13184">
        <ele>131</ele>
        <time>2017-02-05T09:55:01.930Z</time>
      </trkpt>
      <trkpt lat="47.7819" lon="2.13185">
        <ele>131</ele>
        <time>2017-02-05T09:55:02.930Z</time>
      </trkpt>
      <trkpt lat="47.7819" lon="2.13185">
        <ele>131</ele>
        <time>2017-02-05T09:55:03.926Z</time>
      </trkpt>
      <trkpt lat="47.78208" lon="2.13188">
        <ele>131</ele>
        <time>2017-02-05T09:55:04.929Z</time>
      </trkpt>
      <trkpt lat="47.78208" lon="2.13188">
        <ele>131</ele>
        <time>2017-02-05T09:55:05.927Z</time>
      </trkpt>
      <trkpt lat="47.78225" lon="2.13191">
        <ele>131</ele>
        <time>2017-02-05T09:55:06.931Z</time>
      </trkpt>
      <trkpt lat="47.78225" lon="2.13191">
        <ele>131</ele>
        <time>2017-02-05T09:55:07.948Z</time>
      </trkpt>
      <trkpt lat="47.78242" lon="2.13194">
        <ele>131</ele>
        <time>2017-02-05T09:55:08.923Z</time>
      </trkpt>
      <trkpt lat="47.78242" lon="2.13194">
        <ele>131</ele>
        <time>2017-02-05T09:55:09.929Z</time>
      </trkpt>
      <trkpt lat="47.78259" lon="2.13196">
        <ele>130</ele>
        <time>2017-02-05T09:55:10.938Z</time>
      </trkpt>
      <trkpt lat="47.78267" lon="2.13198">
        <ele>130</ele>
        <time>2017-02-05T09:55:11.931Z</time>
      </trkpt>
      <trkpt lat="47.78267" lon="2.13198">
        <ele>130</ele>
        <time>2017-02-05T09:55:12.927Z</time>
      </trkpt>
      <trkpt lat="47.78285" lon="2.13201">
        <ele>129</ele>
        <time>2017-02-05T09:55:13.930Z</time>
      </trkpt>
      <trkpt lat="47.78294" lon="2.13203">
        <ele>129</ele>
        <time>2017-02-05T09:55:14.930Z</time>
      </trkpt>
      <trkpt lat="47.78294" lon="2.13203">
        <ele>129</ele>
        <time>2017-02-05T09:55:15.925Z</time>
      </trkpt>
      <trkpt lat="47.78312" lon="2.13205">
        <ele>128</ele>
        <time>2017-02-05T09:55:16.933Z</time>
      </trkpt>
      <trkpt lat="47.78321" lon="2.13207">
        <ele>129</ele>
        <time>2017-02-05T09:55:17.931Z</time>
      </trkpt>
      <trkpt lat="47.78321" lon="2.13207">
        <ele>129</ele>
        <time>2017-02-05T09:55:18.929Z</time>
      </trkpt>
      <trkpt lat="47.78339" lon="2.1321">
        <ele>128</ele>
        <time>2017-02-05T09:55:19.932Z</time>
      </trkpt>
      <trkpt lat="47.78348" lon="2.13211">
        <ele>129</ele>
        <time>2017-02-05T09:55:20.930Z</time>
      </trkpt>
      <trkpt lat="47.78348" lon="2.13211">
        <ele>129</ele>
        <time>2017-02-05T09:55:21.927Z</time>
      </trkpt>
      <trkpt lat="47.78367" lon="2.13214">
        <ele>129</ele>
        <time>2017-02-05T09:55:22.931Z</time>
      </trkpt>
      <trkpt lat="47.78367" lon="2.13214">
        <ele>129</ele>
        <time>2017-02-05T09:55:23.928Z</time>
      </trkpt>
      <trkpt lat="47.78386" lon="2.13218">
        <ele>129</ele>
        <time>2017-02-05T09:55:24.931Z</time>
      </trkpt>
      <trkpt lat="47.78386" lon="2.13218">
        <ele>129</ele>
        <time>2017-02-05T09:55:25.927Z</time>
      </trkpt>
      <trkpt lat="47.78404" lon="2.13221">
        <ele>129</ele>
        <time>2017-02-05T09:55:26.930Z</time>
      </trkpt>
      <trkpt lat="47.78404" lon="2.13221">
        <ele>129</ele>
        <time>2017-02-05T09:55:27.931Z</time>
      </trkpt>
      <trkpt lat="47.78423" lon="2.13224">
        <ele>128</ele>
        <time>2017-02-05T09:55:28.930Z</time>
      </trkpt>
      <trkpt lat="47.78433" lon="2.13226">
        <ele>129</ele>
        <time>2017-02-05T09:55:29.931Z</time>
      </trkpt>
      <trkpt lat="47.78433" lon="2.13226">
        <ele>129</ele>
        <time>2017-02-05T09:55:30.928Z</time>
      </trkpt>
      <trkpt lat="47.78452" lon="2.13229">
        <ele>128</ele>
        <time>2017-02-05T09:55:31.930Z</time>
      </trkpt>
      <trkpt lat="47.78461" lon="2.1323">
        <ele>128</ele>
        <time>2017-02-05T09:55:32.927Z</time>
      </trkpt>
      <trkpt lat="47.78471" lon="2.13232">
        <ele>128</ele>
        <time>2017-02-05T09:55:33.927Z</time>
      </trkpt>
      <trkpt lat="47.78471" lon="2.13232">
        <ele>128</ele>
        <time>2017-02-05T09:55:34.928Z</time>
      </trkpt>
      <trkpt lat="47.7849" lon="2.13234">
        <ele>129</ele>
        <time>2017-02-05T09:55:35.938Z</time>
      </trkpt>
      <trkpt lat="47.7849" lon="2.13234">
        <ele>129</ele>
        <time>2017-02-05T09:55:36.929Z</time>
      </trkpt>
      <trkpt lat="47.7851" lon="2.13237">
        <ele>130</ele>
        <time>2017-02-05T09:55:37.930Z</time>
      </trkpt>
      <trkpt lat="47.78519" lon="2.13239">
        <ele>130</ele>
        <time>2017-02-05T09:55:38.931Z</time>
      </trkpt>
      <trkpt lat="47.78519" lon="2.13239">
        <ele>130</ele>
        <time>2017-02-05T09:55:39.925Z</time>
      </trkpt>
      <trkpt lat="47.78539" lon="2.13241">
        <ele>129</ele>
        <time>2017-02-05T09:55:40.929Z</time>
      </trkpt>
      <trkpt lat="47.78549" lon="2.13243">
        <ele>128</ele>
        <time>2017-02-05T09:55:41.931Z</time>
      </trkpt>
      <trkpt lat="47.78549" lon="2.13243">
        <ele>128</ele>
        <time>2017-02-05T09:55:42.929Z</time>
      </trkpt>
      <trkpt lat="47.78568" lon="2.13247">
        <ele>128</ele>
        <time>2017-02-05T09:55:43.930Z</time>
      </trkpt>
      <trkpt lat="47.78578" lon="2.13249">
        <ele>128</ele>
        <time>2017-02-05T09:55:44.931Z</time>
      </trkpt>
      <trkpt lat="47.78578" lon="2.13249">
        <ele>128</ele>
        <time>2017-02-05T09:55:45.928Z</time>
      </trkpt>
      <trkpt lat="47.78598" lon="2.13252">
        <ele>128</ele>
        <time>2017-02-05T09:55:46.940Z</time>
      </trkpt>
      <trkpt lat="47.78598" lon="2.13252">
        <ele>128</ele>
        <time>2017-02-05T09:55:47.931Z</time>
      </trkpt>
      <trkpt lat="47.78618" lon="2.13255">
        <ele>127</ele>
        <time>2017-02-05T09:55:48.932Z</time>
      </trkpt>
      <trkpt lat="47.78618" lon="2.13255">
        <ele>127</ele>
        <time>2017-02-05T09:55:49.928Z</time>
      </trkpt>
      <trkpt lat="47.78638" lon="2.13255">
        <ele>127</ele>
        <time>2017-02-05T09:55:50.930Z</time>
      </trkpt>
      <trkpt lat="47.78638" lon="2.13255">
        <ele>127</ele>
        <time>2017-02-05T09:55:51.925Z</time>
      </trkpt>
      <trkpt lat="47.78658" lon="2.13256">
        <ele>127</ele>
        <time>2017-02-05T09:55:52.930Z</time>
      </trkpt>
      <trkpt lat="47.78667" lon="2.13256">
        <ele>126</ele>
        <time>2017-02-05T09:55:53.931Z</time>
      </trkpt>
      <trkpt lat="47.78667" lon="2.13256">
        <ele>126</ele>
        <time>2017-02-05T09:55:54.927Z</time>
      </trkpt>
      <trkpt lat="47.78687" lon="2.13256">
        <ele>126</ele>
        <time>2017-02-05T09:55:55.927Z</time>
      </trkpt>
      <trkpt lat="47.78696" lon="2.13256">
        <ele>126</ele>
        <time>2017-02-05T09:55:56.931Z</time>
      </trkpt>
      <trkpt lat="47.78696" lon="2.13256">
        <ele>126</ele>
        <time>2017-02-05T09:55:57.927Z</time>
      </trkpt>
      <trkpt lat="47.78716" lon="2.13256">
        <ele>126</ele>
        <time>2017-02-05T09:55:58.930Z</time>
      </trkpt>
      <trkpt lat="47.78716" lon="2.13256">
        <ele>126</ele>
        <time>2017-02-05T09:55:59.927Z</time>
      </trkpt>
      <trkpt lat="47.78736" lon="2.13256">
        <ele>126</ele>
        <time>2017-02-05T09:56:00.932Z</time>
      </trkpt>
      <trkpt lat="47.78736" lon="2.13256">
        <ele>126</ele>
        <time>2017-02-05T09:56:01.927Z</time>
      </trkpt>
      <trkpt lat="47.78755" lon="2.13256">
        <ele>126</ele>
        <time>2017-02-05T09:56:02.948Z</time>
      </trkpt>
      <trkpt lat="47.78765" lon="2.13256">
        <ele>126</ele>
        <time>2017-02-05T09:56:03.947Z</time>
      </trkpt>
      <trkpt lat="47.78765" lon="2.13256">
        <ele>126</ele>
        <time>2017-02-05T09:56:04.931Z</time>
      </trkpt>
      <trkpt lat="47.78784" lon="2.13256">
        <ele>125</ele>
        <time>2017-02-05T09:56:05.930Z</time>
      </trkpt>
      <trkpt lat="47.78794" lon="2.13256">
        <ele>125</ele>
        <time>2017-02-05T09:56:06.932Z</time>
      </trkpt>
      <trkpt lat="47.78794" lon="2.13256">
        <ele>125</ele>
        <time>2017-02-05T09:56:07.949Z</time>
      </trkpt>
      <trkpt lat="47.78813" lon="2.13255">
        <ele>125</ele>
        <time>2017-02-05T09:56:08.935Z</time>
      </trkpt>
      <trkpt lat="47.78813" lon="2.13255">
        <ele>125</ele>
        <time>2017-02-05T09:56:09.940Z</time>
      </trkpt>
      <trkpt lat="47.78832" lon="2.13255">
        <ele>125</ele>
        <time>2017-02-05T09:56:10.946Z</time>
      </trkpt>
      <trkpt lat="47.78832" lon="2.13255">
        <ele>125</ele>
        <time>2017-02-05T09:56:11.928Z</time>
      </trkpt>
      <trkpt lat="47.78852" lon="2.13255">
        <ele>125</ele>
        <time>2017-02-05T09:56:12.934Z</time>
      </trkpt>
      <trkpt lat="47.78861" lon="2.13255">
        <ele>125</ele>
        <time>2017-02-05T09:56:13.932Z</time>
      </trkpt>
      <trkpt lat="47.78861" lon="2.13255">
        <ele>125</ele>
        <time>2017-02-05T09:56:14.930Z</time>
      </trkpt>
      <trkpt lat="47.78881" lon="2.13254">
        <ele>125</ele>
        <time>2017-02-05T09:56:15.947Z</time>
      </trkpt>
      <trkpt lat="47.78881" lon="2.13254">
        <ele>125</ele>
        <time>2017-02-05T09:56:16.931Z</time>
      </trkpt>
      <trkpt lat="47.789" lon="2.13254">
        <ele>125</ele>
        <time>2017-02-05T09:56:17.931Z</time>
      </trkpt>
      <trkpt lat="47.789" lon="2.13254">
        <ele>125</ele>
        <time>2017-02-05T09:56:18.930Z</time>
      </trkpt>
      <trkpt lat="47.7892" lon="2.13255">
        <ele>125</ele>
        <time>2017-02-05T09:56:19.930Z</time>
      </trkpt>
      <trkpt lat="47.78929" lon="2.13255">
        <ele>125</ele>
        <time>2017-02-05T09:56:20.928Z</time>
      </trkpt>
      <trkpt lat="47.78929" lon="2.13255">
        <ele>125</ele>
        <time>2017-02-05T09:56:21.924Z</time>
      </trkpt>
      <trkpt lat="47.78947" lon="2.13255">
        <ele>125</ele>
        <time>2017-02-05T09:56:22.932Z</time>
      </trkpt>
      <trkpt lat="47.78956" lon="2.13254">
        <ele>125</ele>
        <time>2017-02-05T09:56:23.932Z</time>
      </trkpt>
      <trkpt lat="47.78965" lon="2.13254">
        <ele>125</ele>
        <time>2017-02-05T09:56:24.932Z</time>
      </trkpt>
      <trkpt lat="47.78965" lon="2.13254">
        <ele>125</ele>
        <time>2017-02-05T09:56:25.925Z</time>
      </trkpt>
      <trkpt lat="47.78983" lon="2.13252">
        <ele>125</ele>
        <time>2017-02-05T09:56:26.931Z</time>
      </trkpt>
      <trkpt lat="47.78983" lon="2.13252">
        <ele>125</ele>
        <time>2017-02-05T09:56:27.929Z</time>
      </trkpt>
      <trkpt lat="47.79001" lon="2.13253">
        <ele>125</ele>
        <time>2017-02-05T09:56:28.929Z</time>
      </trkpt>
      <trkpt lat="47.79001" lon="2.13253">
        <ele>125</ele>
        <time>2017-02-05T09:56:29.928Z</time>
      </trkpt>
      <trkpt lat="47.7902" lon="2.13253">
        <ele>125</ele>
        <time>2017-02-05T09:56:30.932Z</time>
      </trkpt>
      <trkpt lat="47.7902" lon="2.13253">
        <ele>125</ele>
        <time>2017-02-05T09:56:31.928Z</time>
      </trkpt>
      <trkpt lat="47.79038" lon="2.13253">
        <ele>125</ele>
        <time>2017-02-05T09:56:32.930Z</time>
      </trkpt>
      <trkpt lat="47.79038" lon="2.13253">
        <ele>125</ele>
        <time>2017-02-05T09:56:33.927Z</time>
      </trkpt>
      <trkpt lat="47.79055" lon="2.13253">
        <ele>126</ele>
        <time>2017-02-05T09:56:34.950Z</time>
      </trkpt>
      <trkpt lat="47.79063" lon="2.13253">
        <ele>126</ele>
        <time>2017-02-05T09:56:35.938Z</time>
      </trkpt>
      <trkpt lat="47.79072" lon="2.13253">
        <ele>126</ele>
        <time>2017-02-05T09:56:36.932Z</time>
      </trkpt>
      <trkpt lat="47.79072" lon="2.13253">
        <ele>126</ele>
        <time>2017-02-05T09:56:37.928Z</time>
      </trkpt>
      <trkpt lat="47.79088" lon="2.13253">
        <ele>126</ele>
        <time>2017-02-05T09:56:38.931Z</time>
      </trkpt>
      <trkpt lat="47.79088" lon="2.13253">
        <ele>126</ele>
        <time>2017-02-05T09:56:39.924Z</time>
      </trkpt>
      <trkpt lat="47.79104" lon="2.13253">
        <ele>126</ele>
        <time>2017-02-05T09:56:40.931Z</time>
      </trkpt>
      <trkpt lat="47.79112" lon="2.13253">
        <ele>126</ele>
        <time>2017-02-05T09:56:41.931Z</time>
      </trkpt>
      <trkpt lat="47.7912" lon="2.13253">
        <ele>126</ele>
        <time>2017-02-05T09:56:42.933Z</time>
      </trkpt>
      <trkpt lat="47.7912" lon="2.13253">
        <ele>126</ele>
        <time>2017-02-05T09:56:43.926Z</time>
      </trkpt>
      <trkpt lat="47.79136" lon="2.13254">
        <ele>126</ele>
        <time>2017-02-05T09:56:44.932Z</time>
      </trkpt>
      <trkpt lat="47.79136" lon="2.13254">
        <ele>126</ele>
        <time>2017-02-05T09:56:45.929Z</time>
      </trkpt>
      <trkpt lat="47.79151" lon="2.13255">
        <ele>126</ele>
        <time>2017-02-05T09:56:46.931Z</time>
      </trkpt>
      <trkpt lat="47.79151" lon="2.13255">
        <ele>126</ele>
        <time>2017-02-05T09:56:47.925Z</time>
      </trkpt>
      <trkpt lat="47.79167" lon="2.13256">
        <ele>126</ele>
        <time>2017-02-05T09:56:48.932Z</time>
      </trkpt>
      <trkpt lat="47.79167" lon="2.13256">
        <ele>126</ele>
        <time>2017-02-05T09:56:49.928Z</time>
      </trkpt>
      <trkpt lat="47.79183" lon="2.13258">
        <ele>126</ele>
        <time>2017-02-05T09:56:50.930Z</time>
      </trkpt>
      <trkpt lat="47.79183" lon="2.13258">
        <ele>126</ele>
        <time>2017-02-05T09:56:51.928Z</time>
      </trkpt>
      <trkpt lat="47.79199" lon="2.1326">
        <ele>126</ele>
        <time>2017-02-05T09:56:52.935Z</time>
      </trkpt>
      <trkpt lat="47.79199" lon="2.1326">
        <ele>126</ele>
        <time>2017-02-05T09:56:53.928Z</time>
      </trkpt>
      <trkpt lat="47.79215" lon="2.13264">
        <ele>126</ele>
        <time>2017-02-05T09:56:54.932Z</time>
      </trkpt>
      <trkpt lat="47.79215" lon="2.13264">
        <ele>126</ele>
        <time>2017-02-05T09:56:55.928Z</time>
      </trkpt>
      <trkpt lat="47.79231" lon="2.13269">
        <ele>126</ele>
        <time>2017-02-05T09:56:56.938Z</time>
      </trkpt>
      <trkpt lat="47.79231" lon="2.13269">
        <ele>126</ele>
        <time>2017-02-05T09:56:57.928Z</time>
      </trkpt>
      <trkpt lat="47.79247" lon="2.13274">
        <ele>126</ele>
        <time>2017-02-05T09:56:58.929Z</time>
      </trkpt>
      <trkpt lat="47.79247" lon="2.13274">
        <ele>126</ele>
        <time>2017-02-05T09:56:59.927Z</time>
      </trkpt>
      <trkpt lat="47.79264" lon="2.13281">
        <ele>126</ele>
        <time>2017-02-05T09:57:00.932Z</time>
      </trkpt>
      <trkpt lat="47.79264" lon="2.13281">
        <ele>126</ele>
        <time>2017-02-05T09:57:01.929Z</time>
      </trkpt>
      <trkpt lat="47.7928" lon="2.13289">
        <ele>126</ele>
        <time>2017-02-05T09:57:02.931Z</time>
      </trkpt>
      <trkpt lat="47.7928" lon="2.13289">
        <ele>126</ele>
        <time>2017-02-05T09:57:03.928Z</time>
      </trkpt>
      <trkpt lat="47.79297" lon="2.13297">
        <ele>127</ele>
        <time>2017-02-05T09:57:04.930Z</time>
      </trkpt>
      <trkpt lat="47.79297" lon="2.13297">
        <ele>127</ele>
        <time>2017-02-05T09:57:05.926Z</time>
      </trkpt>
      <trkpt lat="47.79313" lon="2.13305">
        <ele>127</ele>
        <time>2017-02-05T09:57:06.932Z</time>
      </trkpt>
      <trkpt lat="47.79313" lon="2.13305">
        <ele>127</ele>
        <time>2017-02-05T09:57:07.953Z</time>
      </trkpt>
      <trkpt lat="47.79328" lon="2.13313">
        <ele>127</ele>
        <time>2017-02-05T09:57:08.949Z</time>
      </trkpt>
      <trkpt lat="47.79328" lon="2.13313">
        <ele>127</ele>
        <time>2017-02-05T09:57:09.957Z</time>
      </trkpt>
      <trkpt lat="47.79344" lon="2.13321">
        <ele>128</ele>
        <time>2017-02-05T09:57:10.923Z</time>
      </trkpt>
      <trkpt lat="47.79352" lon="2.13325">
        <ele>128</ele>
        <time>2017-02-05T09:57:11.932Z</time>
      </trkpt>
      <trkpt lat="47.7936" lon="2.13329">
        <ele>128</ele>
        <time>2017-02-05T09:57:12.932Z</time>
      </trkpt>
      <trkpt lat="47.7936" lon="2.13329">
        <ele>128</ele>
        <time>2017-02-05T09:57:13.927Z</time>
      </trkpt>
      <trkpt lat="47.79376" lon="2.13337">
        <ele>128</ele>
        <time>2017-02-05T09:57:14.931Z</time>
      </trkpt>
      <trkpt lat="47.79376" lon="2.13337">
        <ele>128</ele>
        <time>2017-02-05T09:57:15.938Z</time>
      </trkpt>
      <trkpt lat="47.79392" lon="2.13345">
        <ele>129</ele>
        <time>2017-02-05T09:57:16.931Z</time>
      </trkpt>
      <trkpt lat="47.79392" lon="2.13345">
        <ele>129</ele>
        <time>2017-02-05T09:57:17.925Z</time>
      </trkpt>
      <trkpt lat="47.79407" lon="2.13353">
        <ele>129</ele>
        <time>2017-02-05T09:57:18.932Z</time>
      </trkpt>
      <trkpt lat="47.79407" lon="2.13353">
        <ele>129</ele>
        <time>2017-02-05T09:57:19.928Z</time>
      </trkpt>
      <trkpt lat="47.79422" lon="2.1336">
        <ele>130</ele>
        <time>2017-02-05T09:57:20.929Z</time>
      </trkpt>
      <trkpt lat="47.79422" lon="2.1336">
        <ele>130</ele>
        <time>2017-02-05T09:57:21.925Z</time>
      </trkpt>
      <trkpt lat="47.79437" lon="2.13367">
        <ele>130</ele>
        <time>2017-02-05T09:57:22.927Z</time>
      </trkpt>
      <trkpt lat="47.79444" lon="2.13371">
        <ele>131</ele>
        <time>2017-02-05T09:57:23.930Z</time>
      </trkpt>
      <trkpt lat="47.79452" lon="2.13375">
        <ele>131</ele>
        <time>2017-02-05T09:57:24.932Z</time>
      </trkpt>
      <trkpt lat="47.79452" lon="2.13375">
        <ele>131</ele>
        <time>2017-02-05T09:57:25.927Z</time>
      </trkpt>
      <trkpt lat="47.79467" lon="2.13382">
        <ele>131</ele>
        <time>2017-02-05T09:57:26.931Z</time>
      </trkpt>
      <trkpt lat="47.79467" lon="2.13382">
        <ele>131</ele>
        <time>2017-02-05T09:57:27.928Z</time>
      </trkpt>
      <trkpt lat="47.79481" lon="2.13389">
        <ele>132</ele>
        <time>2017-02-05T09:57:28.931Z</time>
      </trkpt>
      <trkpt lat="47.79488" lon="2.13393">
        <ele>131</ele>
        <time>2017-02-05T09:57:29.931Z</time>
      </trkpt>
      <trkpt lat="47.79495" lon="2.13396">
        <ele>131</ele>
        <time>2017-02-05T09:57:30.930Z</time>
      </trkpt>
      <trkpt lat="47.79495" lon="2.13396">
        <ele>131</ele>
        <time>2017-02-05T09:57:31.929Z</time>
      </trkpt>
      <trkpt lat="47.7951" lon="2.13403">
        <ele>129</ele>
        <time>2017-02-05T09:57:32.931Z</time>
      </trkpt>
      <trkpt lat="47.7951" lon="2.13403">
        <ele>129</ele>
        <time>2017-02-05T09:57:33.928Z</time>
      </trkpt>
      <trkpt lat="47.79525" lon="2.1341">
        <ele>129</ele>
        <time>2017-02-05T09:57:34.930Z</time>
      </trkpt>
      <trkpt lat="47.79525" lon="2.1341">
        <ele>129</ele>
        <time>2017-02-05T09:57:35.937Z</time>
      </trkpt>
      <trkpt lat="47.7954" lon="2.13419">
        <ele>128</ele>
        <time>2017-02-05T09:57:36.933Z</time>
      </trkpt>
      <trkpt lat="47.79548" lon="2.13424">
        <ele>127</ele>
        <time>2017-02-05T09:57:37.932Z</time>
      </trkpt>
      <trkpt lat="47.79555" lon="2.13428">
        <ele>127</ele>
        <time>2017-02-05T09:57:38.930Z</time>
      </trkpt>
      <trkpt lat="47.79555" lon="2.13428">
        <ele>127</ele>
        <time>2017-02-05T09:57:39.930Z</time>
      </trkpt>
      <trkpt lat="47.7957" lon="2.13436">
        <ele>127</ele>
        <time>2017-02-05T09:57:40.931Z</time>
      </trkpt>
      <trkpt lat="47.79577" lon="2.1344">
        <ele>126</ele>
        <time>2017-02-05T09:57:41.932Z</time>
      </trkpt>
      <trkpt lat="47.79577" lon="2.1344">
        <ele>126</ele>
        <time>2017-02-05T09:57:42.929Z</time>
      </trkpt>
      <trkpt lat="47.79591" lon="2.13447">
        <ele>126</ele>
        <time>2017-02-05T09:57:43.931Z</time>
      </trkpt>
      <trkpt lat="47.79598" lon="2.1345">
        <ele>126</ele>
        <time>2017-02-05T09:57:44.931Z</time>
      </trkpt>
      <trkpt lat="47.79598" lon="2.1345">
        <ele>126</ele>
        <time>2017-02-05T09:57:45.924Z</time>
      </trkpt>
      <trkpt lat="47.79612" lon="2.13458">
        <ele>125</ele>
        <time>2017-02-05T09:57:46.932Z</time>
      </trkpt>
      <trkpt lat="47.79612" lon="2.13458">
        <ele>125</ele>
        <time>2017-02-05T09:57:47.929Z</time>
      </trkpt>
      <trkpt lat="47.79626" lon="2.13465">
        <ele>125</ele>
        <time>2017-02-05T09:57:48.932Z</time>
      </trkpt>
      <trkpt lat="47.79626" lon="2.13465">
        <ele>125</ele>
        <time>2017-02-05T09:57:49.928Z</time>
      </trkpt>
      <trkpt lat="47.79639" lon="2.13472">
        <ele>124</ele>
        <time>2017-02-05T09:57:50.932Z</time>
      </trkpt>
      <trkpt lat="47.79639" lon="2.13472">
        <ele>124</ele>
        <time>2017-02-05T09:57:51.929Z</time>
      </trkpt>
      <trkpt lat="47.79653" lon="2.13478">
        <ele>124</ele>
        <time>2017-02-05T09:57:52.930Z</time>
      </trkpt>
      <trkpt lat="47.79653" lon="2.13478">
        <ele>124</ele>
        <time>2017-02-05T09:57:53.927Z</time>
      </trkpt>
      <trkpt lat="47.79667" lon="2.13485">
        <ele>123</ele>
        <time>2017-02-05T09:57:54.933Z</time>
      </trkpt>
      <trkpt lat="47.79667" lon="2.13485">
        <ele>123</ele>
        <time>2017-02-05T09:57:55.961Z</time>
      </trkpt>
      <trkpt lat="47.79682" lon="2.13493">
        <ele>123</ele>
        <time>2017-02-05T09:57:56.941Z</time>
      </trkpt>
      <trkpt lat="47.79682" lon="2.13493">
        <ele>123</ele>
        <time>2017-02-05T09:57:57.930Z</time>
      </trkpt>
      <trkpt lat="47.79697" lon="2.13503">
        <ele>122</ele>
        <time>2017-02-05T09:57:58.931Z</time>
      </trkpt>
      <trkpt lat="47.79705" lon="2.13508">
        <ele>121</ele>
        <time>2017-02-05T09:57:59.931Z</time>
      </trkpt>
      <trkpt lat="47.79714" lon="2.13513">
        <ele>121</ele>
        <time>2017-02-05T09:58:00.932Z</time>
      </trkpt>
      <trkpt lat="47.79714" lon="2.13513">
        <ele>121</ele>
        <time>2017-02-05T09:58:01.928Z</time>
      </trkpt>
      <trkpt lat="47.79732" lon="2.13523">
        <ele>120</ele>
        <time>2017-02-05T09:58:02.943Z</time>
      </trkpt>
      <trkpt lat="47.79732" lon="2.13523">
        <ele>120</ele>
        <time>2017-02-05T09:58:03.925Z</time>
      </trkpt>
      <trkpt lat="47.79751" lon="2.13534">
        <ele>119</ele>
        <time>2017-02-05T09:58:04.931Z</time>
      </trkpt>
      <trkpt lat="47.79751" lon="2.13534">
        <ele>119</ele>
        <time>2017-02-05T09:58:05.944Z</time>
      </trkpt>
      <trkpt lat="47.79771" lon="2.13545">
        <ele>118</ele>
        <time>2017-02-05T09:58:06.933Z</time>
      </trkpt>
      <trkpt lat="47.79771" lon="2.13545">
        <ele>118</ele>
        <time>2017-02-05T09:58:07.948Z</time>
      </trkpt>
      <trkpt lat="47.79793" lon="2.13556">
        <ele>118</ele>
        <time>2017-02-05T09:58:08.950Z</time>
      </trkpt>
      <trkpt lat="47.79793" lon="2.13556">
        <ele>118</ele>
        <time>2017-02-05T09:58:09.960Z</time>
      </trkpt>
      <trkpt lat="47.79815" lon="2.13565">
        <ele>117</ele>
        <time>2017-02-05T09:58:10.930Z</time>
      </trkpt>
      <trkpt lat="47.79815" lon="2.13565">
        <ele>117</ele>
        <time>2017-02-05T09:58:11.931Z</time>
      </trkpt>
      <trkpt lat="47.79838" lon="2.13564">
        <ele>116</ele>
        <time>2017-02-05T09:58:12.934Z</time>
      </trkpt>
      <trkpt lat="47.79838" lon="2.13564">
        <ele>116</ele>
        <time>2017-02-05T09:58:13.928Z</time>
      </trkpt>
      <trkpt lat="47.7986" lon="2.13555">
        <ele>115</ele>
        <time>2017-02-05T09:58:14.931Z</time>
      </trkpt>
      <trkpt lat="47.7986" lon="2.13555">
        <ele>115</ele>
        <time>2017-02-05T09:58:15.929Z</time>
      </trkpt>
      <trkpt lat="47.79882" lon="2.13541">
        <ele>113</ele>
        <time>2017-02-05T09:58:16.936Z</time>
      </trkpt>
      <trkpt lat="47.79882" lon="2.13541">
        <ele>113</ele>
        <time>2017-02-05T09:58:17.929Z</time>
      </trkpt>
      <trkpt lat="47.79905" lon="2.13525">
        <ele>112</ele>
        <time>2017-02-05T09:58:18.933Z</time>
      </trkpt>
      <trkpt lat="47.79905" lon="2.13525">
        <ele>112</ele>
        <time>2017-02-05T09:58:19.928Z</time>
      </trkpt>
      <trkpt lat="47.79928" lon="2.13513">
        <ele>112</ele>
        <time>2017-02-05T09:58:20.930Z</time>
      </trkpt>
      <trkpt lat="47.79928" lon="2.13513">
        <ele>112</ele>
        <time>2017-02-05T09:58:21.929Z</time>
      </trkpt>
      <trkpt lat="47.7995" lon="2.13504">
        <ele>111</ele>
        <time>2017-02-05T09:58:22.930Z</time>
      </trkpt>
      <trkpt lat="47.7995" lon="2.13504">
        <ele>111</ele>
        <time>2017-02-05T09:58:23.927Z</time>
      </trkpt>
      <trkpt lat="47.79973" lon="2.13499">
        <ele>110</ele>
        <time>2017-02-05T09:58:24.932Z</time>
      </trkpt>
      <trkpt lat="47.79984" lon="2.13498">
        <ele>109</ele>
        <time>2017-02-05T09:58:25.931Z</time>
      </trkpt>
      <trkpt lat="47.79984" lon="2.13498">
        <ele>109</ele>
        <time>2017-02-05T09:58:26.929Z</time>
      </trkpt>
      <trkpt lat="47.80005" lon="2.13498">
        <ele>108</ele>
        <time>2017-02-05T09:58:27.931Z</time>
      </trkpt>
      <trkpt lat="47.80005" lon="2.13498">
        <ele>108</ele>
        <time>2017-02-05T09:58:28.928Z</time>
      </trkpt>
      <trkpt lat="47.80026" lon="2.13499">
        <ele>107</ele>
        <time>2017-02-05T09:58:29.931Z</time>
      </trkpt>
      <trkpt lat="47.80036" lon="2.135">
        <ele>106</ele>
        <time>2017-02-05T09:58:30.934Z</time>
      </trkpt>
      <trkpt lat="47.80036" lon="2.135">
        <ele>106</ele>
        <time>2017-02-05T09:58:31.927Z</time>
      </trkpt>
      <trkpt lat="47.80052" lon="2.13502">
        <ele>104</ele>
        <time>2017-02-05T09:58:32.931Z</time>
      </trkpt>
      <trkpt lat="47.80052" lon="2.13502">
        <ele>104</ele>
        <time>2017-02-05T09:58:33.929Z</time>
      </trkpt>
      <trkpt lat="47.80063" lon="2.13503">
        <ele>104</ele>
        <time>2017-02-05T09:58:34.931Z</time>
      </trkpt>
      <trkpt lat="47.80063" lon="2.13503">
        <ele>104</ele>
        <time>2017-02-05T09:58:35.938Z</time>
      </trkpt>
      <trkpt lat="47.80073" lon="2.13508">
        <ele>104</ele>
        <time>2017-02-05T09:58:36.934Z</time>
      </trkpt>
      <trkpt lat="47.80073" lon="2.13508">
        <ele>104</ele>
        <time>2017-02-05T09:58:37.928Z</time>
      </trkpt>
      <trkpt lat="47.8008" lon="2.13521">
        <ele>106</ele>
        <time>2017-02-05T09:58:38.931Z</time>
      </trkpt>
      <trkpt lat="47.8008" lon="2.13521">
        <ele>106</ele>
        <time>2017-02-05T09:58:39.929Z</time>
      </trkpt>
      <trkpt lat="47.80083" lon="2.13538">
        <ele>106</ele>
        <time>2017-02-05T09:58:40.930Z</time>
      </trkpt>
      <trkpt lat="47.80083" lon="2.13538">
        <ele>106</ele>
        <time>2017-02-05T09:58:41.928Z</time>
      </trkpt>
      <trkpt lat="47.80083" lon="2.13556">
        <ele>107</ele>
        <time>2017-02-05T09:58:42.954Z</time>
      </trkpt>
      <trkpt lat="47.80083" lon="2.13556">
        <ele>107</ele>
        <time>2017-02-05T09:58:43.936Z</time>
      </trkpt>
      <trkpt lat="47.80083" lon="2.13574">
        <ele>108</ele>
        <time>2017-02-05T09:58:44.931Z</time>
      </trkpt>
      <trkpt lat="47.80083" lon="2.13574">
        <ele>108</ele>
        <time>2017-02-05T09:58:45.929Z</time>
      </trkpt>
      <trkpt lat="47.80083" lon="2.13593">
        <ele>107</ele>
        <time>2017-02-05T09:58:46.932Z</time>
      </trkpt>
      <trkpt lat="47.80083" lon="2.13593">
        <ele>107</ele>
        <time>2017-02-05T09:58:47.927Z</time>
      </trkpt>
      <trkpt lat="47.80083" lon="2.13612">
        <ele>107</ele>
        <time>2017-02-05T09:58:48.933Z</time>
      </trkpt>
      <trkpt lat="47.80083" lon="2.13612">
        <ele>107</ele>
        <time>2017-02-05T09:58:49.928Z</time>
      </trkpt>
      <trkpt lat="47.80083" lon="2.13629">
        <ele>107</ele>
        <time>2017-02-05T09:58:50.932Z</time>
      </trkpt>
      <trkpt lat="47.80083" lon="2.13629">
        <ele>107</ele>
        <time>2017-02-05T09:58:51.925Z</time>
      </trkpt>
      <trkpt lat="47.80082" lon="2.13645">
        <ele>107</ele>
        <time>2017-02-05T09:58:52.930Z</time>
      </trkpt>
      <trkpt lat="47.80082" lon="2.13653">
        <ele>107</ele>
        <time>2017-02-05T09:58:53.932Z</time>
      </trkpt>
      <trkpt lat="47.8008" lon="2.13662">
        <ele>107</ele>
        <time>2017-02-05T09:58:54.933Z</time>
      </trkpt>
      <trkpt lat="47.8008" lon="2.13662">
        <ele>107</ele>
        <time>2017-02-05T09:58:55.926Z</time>
      </trkpt>
      <trkpt lat="47.80079" lon="2.13679">
        <ele>107</ele>
        <time>2017-02-05T09:58:56.931Z</time>
      </trkpt>
      <trkpt lat="47.80079" lon="2.13679">
        <ele>107</ele>
        <time>2017-02-05T09:58:57.929Z</time>
      </trkpt>
      <trkpt lat="47.80078" lon="2.13697">
        <ele>107</ele>
        <time>2017-02-05T09:58:58.931Z</time>
      </trkpt>
      <trkpt lat="47.80078" lon="2.13697">
        <ele>107</ele>
        <time>2017-02-05T09:58:59.926Z</time>
      </trkpt>
      <trkpt lat="47.80076" lon="2.13717">
        <ele>107</ele>
        <time>2017-02-05T09:59:00.932Z</time>
      </trkpt>
      <trkpt lat="47.80076" lon="2.13717">
        <ele>107</ele>
        <time>2017-02-05T09:59:01.929Z</time>
      </trkpt>
      <trkpt lat="47.80074" lon="2.13738">
        <ele>107</ele>
        <time>2017-02-05T09:59:02.932Z</time>
      </trkpt>
      <trkpt lat="47.80073" lon="2.13748">
        <ele>106</ele>
        <time>2017-02-05T09:59:03.955Z</time>
      </trkpt>
      <trkpt lat="47.80073" lon="2.13757">
        <ele>106</ele>
        <time>2017-02-05T09:59:04.932Z</time>
      </trkpt>
      <trkpt lat="47.80073" lon="2.13757">
        <ele>106</ele>
        <time>2017-02-05T09:59:05.929Z</time>
      </trkpt>
      <trkpt lat="47.80071" lon="2.13777">
        <ele>107</ele>
        <time>2017-02-05T09:59:06.933Z</time>
      </trkpt>
      <trkpt lat="47.80071" lon="2.13777">
        <ele>107</ele>
        <time>2017-02-05T09:59:07.922Z</time>
      </trkpt>
      <trkpt lat="47.8007" lon="2.13796">
        <ele>106</ele>
        <time>2017-02-05T09:59:08.947Z</time>
      </trkpt>
      <trkpt lat="47.8007" lon="2.13805">
        <ele>106</ele>
        <time>2017-02-05T09:59:09.960Z</time>
      </trkpt>
      <trkpt lat="47.8007" lon="2.13805">
        <ele>106</ele>
        <time>2017-02-05T09:59:10.928Z</time>
      </trkpt>
      <trkpt lat="47.80069" lon="2.13825">
        <ele>106</ele>
        <time>2017-02-05T09:59:11.930Z</time>
      </trkpt>
      <trkpt lat="47.80069" lon="2.13834">
        <ele>106</ele>
        <time>2017-02-05T09:59:12.933Z</time>
      </trkpt>
      <trkpt lat="47.80069" lon="2.13834">
        <ele>106</ele>
        <time>2017-02-05T09:59:13.930Z</time>
      </trkpt>
      <trkpt lat="47.80069" lon="2.13854">
        <ele>105</ele>
        <time>2017-02-05T09:59:14.945Z</time>
      </trkpt>
      <trkpt lat="47.80069" lon="2.13854">
        <ele>105</ele>
        <time>2017-02-05T09:59:15.933Z</time>
      </trkpt>
      <trkpt lat="47.80069" lon="2.13872">
        <ele>105</ele>
        <time>2017-02-05T09:59:16.932Z</time>
      </trkpt>
      <trkpt lat="47.80069" lon="2.13881">
        <ele>105</ele>
        <time>2017-02-05T09:59:17.930Z</time>
      </trkpt>
      <trkpt lat="47.80069" lon="2.13881">
        <ele>105</ele>
        <time>2017-02-05T09:59:18.931Z</time>
      </trkpt>
      <trkpt lat="47.8007" lon="2.13899">
        <ele>105</ele>
        <time>2017-02-05T09:59:19.931Z</time>
      </trkpt>
      <trkpt lat="47.80072" lon="2.13908">
        <ele>106</ele>
        <time>2017-02-05T09:59:20.934Z</time>
      </trkpt>
      <trkpt lat="47.80072" lon="2.13908">
        <ele>106</ele>
        <time>2017-02-05T09:59:21.928Z</time>
      </trkpt>
      <trkpt lat="47.80078" lon="2.13923">
        <ele>106</ele>
        <time>2017-02-05T09:59:22.932Z</time>
      </trkpt>
      <trkpt lat="47.80078" lon="2.13923">
        <ele>106</ele>
        <time>2017-02-05T09:59:23.928Z</time>
      </trkpt>
      <trkpt lat="47.80087" lon="2.13936">
        <ele>106</ele>
        <time>2017-02-05T09:59:24.932Z</time>
      </trkpt>
      <trkpt lat="47.80087" lon="2.13936">
        <ele>106</ele>
        <time>2017-02-05T09:59:25.928Z</time>
      </trkpt>
      <trkpt lat="47.80097" lon="2.13947">
        <ele>106</ele>
        <time>2017-02-05T09:59:26.931Z</time>
      </trkpt>
      <trkpt lat="47.80097" lon="2.13947">
        <ele>106</ele>
        <time>2017-02-05T09:59:27.929Z</time>
      </trkpt>
      <trkpt lat="47.80108" lon="2.13959">
        <ele>106</ele>
        <time>2017-02-05T09:59:28.931Z</time>
      </trkpt>
      <trkpt lat="47.80113" lon="2.13964">
        <ele>106</ele>
        <time>2017-02-05T09:59:29.932Z</time>
      </trkpt>
      <trkpt lat="47.80118" lon="2.1397">
        <ele>106</ele>
        <time>2017-02-05T09:59:30.941Z</time>
      </trkpt>
      <trkpt lat="47.80118" lon="2.1397">
        <ele>106</ele>
        <time>2017-02-05T09:59:31.930Z</time>
      </trkpt>
      <trkpt lat="47.80128" lon="2.13983">
        <ele>106</ele>
        <time>2017-02-05T09:59:32.932Z</time>
      </trkpt>
      <trkpt lat="47.80128" lon="2.13983">
        <ele>106</ele>
        <time>2017-02-05T09:59:33.929Z</time>
      </trkpt>
      <trkpt lat="47.80137" lon="2.13997">
        <ele>106</ele>
        <time>2017-02-05T09:59:34.934Z</time>
      </trkpt>
      <trkpt lat="47.80137" lon="2.13997">
        <ele>106</ele>
        <time>2017-02-05T09:59:35.936Z</time>
      </trkpt>
      <trkpt lat="47.80145" lon="2.14012">
        <ele>106</ele>
        <time>2017-02-05T09:59:36.924Z</time>
      </trkpt>
      <trkpt lat="47.80148" lon="2.1402">
        <ele>106</ele>
        <time>2017-02-05T09:59:37.932Z</time>
      </trkpt>
      <trkpt lat="47.80152" lon="2.14029">
        <ele>106</ele>
        <time>2017-02-05T09:59:38.929Z</time>
      </trkpt>
      <trkpt lat="47.80152" lon="2.14029">
        <ele>106</ele>
        <time>2017-02-05T09:59:39.930Z</time>
      </trkpt>
      <trkpt lat="47.80158" lon="2.14047">
        <ele>106</ele>
        <time>2017-02-05T09:59:40.931Z</time>
      </trkpt>
      <trkpt lat="47.80161" lon="2.14056">
        <ele>106</ele>
        <time>2017-02-05T09:59:41.932Z</time>
      </trkpt>
      <trkpt lat="47.80163" lon="2.14065">
        <ele>106</ele>
        <time>2017-02-05T09:59:42.933Z</time>
      </trkpt>
      <trkpt lat="47.80163" lon="2.14065">
        <ele>106</ele>
        <time>2017-02-05T09:59:43.926Z</time>
      </trkpt>
      <trkpt lat="47.80168" lon="2.14082">
        <ele>106</ele>
        <time>2017-02-05T09:59:44.931Z</time>
      </trkpt>
      <trkpt lat="47.80168" lon="2.14082">
        <ele>106</ele>
        <time>2017-02-05T09:59:45.929Z</time>
      </trkpt>
      <trkpt lat="47.80171" lon="2.141">
        <ele>106</ele>
        <time>2017-02-05T09:59:46.924Z</time>
      </trkpt>
      <trkpt lat="47.80173" lon="2.14109">
        <ele>106</ele>
        <time>2017-02-05T09:59:47.930Z</time>
      </trkpt>
      <trkpt lat="47.80174" lon="2.14118">
        <ele>106</ele>
        <time>2017-02-05T09:59:48.932Z</time>
      </trkpt>
      <trkpt lat="47.80174" lon="2.14118">
        <ele>106</ele>
        <time>2017-02-05T09:59:49.928Z</time>
      </trkpt>
      <trkpt lat="47.80177" lon="2.14136">
        <ele>106</ele>
        <time>2017-02-05T09:59:50.932Z</time>
      </trkpt>
      <trkpt lat="47.80177" lon="2.14136">
        <ele>106</ele>
        <time>2017-02-05T09:59:51.928Z</time>
      </trkpt>
      <trkpt lat="47.80179" lon="2.14155">
        <ele>106</ele>
        <time>2017-02-05T09:59:52.931Z</time>
      </trkpt>
      <trkpt lat="47.8018" lon="2.14164">
        <ele>106</ele>
        <time>2017-02-05T09:59:53.931Z</time>
      </trkpt>
      <trkpt lat="47.80181" lon="2.14173">
        <ele>106</ele>
        <time>2017-02-05T09:59:54.933Z</time>
      </trkpt>
      <trkpt lat="47.80181" lon="2.14173">
        <ele>106</ele>
        <time>2017-02-05T09:59:55.930Z</time>
      </trkpt>
      <trkpt lat="47.80183" lon="2.1419">
        <ele>106</ele>
        <time>2017-02-05T09:59:56.942Z</time>
      </trkpt>
      <trkpt lat="47.80184" lon="2.14198">
        <ele>107</ele>
        <time>2017-02-05T09:59:57.932Z</time>
      </trkpt>
      <trkpt lat="47.80184" lon="2.14198">
        <ele>107</ele>
        <time>2017-02-05T09:59:58.928Z</time>
      </trkpt>
      <trkpt lat="47.80185" lon="2.14213">
        <ele>106</ele>
        <time>2017-02-05T09:59:59.931Z</time>
      </trkpt>
      <trkpt lat="47.80185" lon="2.1422">
        <ele>106</ele>
        <time>2017-02-05T10:00:00.932Z</time>
      </trkpt>
      <trkpt lat="47.80185" lon="2.1422">
        <ele>106</ele>
        <time>2017-02-05T10:00:01.929Z</time>
      </trkpt>
      <trkpt lat="47.80182" lon="2.14229">
        <ele>106</ele>
        <time>2017-02-05T10:00:02.932Z</time>
      </trkpt>
      <trkpt lat="47.80178" lon="2.14231">
        <ele>105</ele>
        <time>2017-02-05T10:00:03.932Z</time>
      </trkpt>
      <trkpt lat="47.80178" lon="2.14231">
        <ele>105</ele>
        <time>2017-02-05T10:00:04.927Z</time>
      </trkpt>
      <trkpt lat="47.80168" lon="2.14232">
        <ele>105</ele>
        <time>2017-02-05T10:00:05.932Z</time>
      </trkpt>
      <trkpt lat="47.80163" lon="2.14232">
        <ele>105</ele>
        <time>2017-02-05T10:00:06.935Z</time>
      </trkpt>
      <trkpt lat="47.80163" lon="2.14232">
        <ele>105</ele>
        <time>2017-02-05T10:00:07.947Z</time>
      </trkpt>
      <trkpt lat="47.80153" lon="2.14232">
        <ele>105</ele>
        <time>2017-02-05T10:00:08.932Z</time>
      </trkpt>
      <trkpt lat="47.80153" lon="2.14232">
        <ele>105</ele>
        <time>2017-02-05T10:00:09.938Z</time>
      </trkpt>
      <trkpt lat="47.80142" lon="2.14234">
        <ele>105</ele>
        <time>2017-02-05T10:00:10.932Z</time>
      </trkpt>
      <trkpt lat="47.80142" lon="2.14234">
        <ele>105</ele>
        <time>2017-02-05T10:00:11.925Z</time>
      </trkpt>
      <trkpt lat="47.8013" lon="2.14236">
        <ele>105</ele>
        <time>2017-02-05T10:00:12.935Z</time>
      </trkpt>
      <trkpt lat="47.8013" lon="2.14236">
        <ele>105</ele>
        <time>2017-02-05T10:00:13.943Z</time>
      </trkpt>
      <trkpt lat="47.8012" lon="2.14238">
        <ele>105</ele>
        <time>2017-02-05T10:00:14.932Z</time>
      </trkpt>
      <trkpt lat="47.8012" lon="2.14238">
        <ele>105</ele>
        <time>2017-02-05T10:00:15.929Z</time>
      </trkpt>
      <trkpt lat="47.80109" lon="2.1424">
        <ele>106</ele>
        <time>2017-02-05T10:00:16.929Z</time>
      </trkpt>
      <trkpt lat="47.80109" lon="2.1424">
        <ele>106</ele>
        <time>2017-02-05T10:00:17.929Z</time>
      </trkpt>
      <trkpt lat="47.80099" lon="2.14242">
        <ele>105</ele>
        <time>2017-02-05T10:00:18.933Z</time>
      </trkpt>
      <trkpt lat="47.80099" lon="2.14242">
        <ele>105</ele>
        <time>2017-02-05T10:00:19.929Z</time>
      </trkpt>
      <trkpt lat="47.80089" lon="2.14242">
        <ele>106</ele>
        <time>2017-02-05T10:00:20.934Z</time>
      </trkpt>
      <trkpt lat="47.80089" lon="2.14242">
        <ele>106</ele>
        <time>2017-02-05T10:00:21.928Z</time>
      </trkpt>
      <trkpt lat="47.80081" lon="2.14243">
        <ele>106</ele>
        <time>2017-02-05T10:00:22.933Z</time>
      </trkpt>
      <trkpt lat="47.80081" lon="2.14243">
        <ele>106</ele>
        <time>2017-02-05T10:00:23.927Z</time>
      </trkpt>
      <trkpt lat="47.80075" lon="2.14244">
        <ele>105</ele>
        <time>2017-02-05T10:00:24.934Z</time>
      </trkpt>
      <trkpt lat="47.80075" lon="2.14244">
        <ele>105</ele>
        <time>2017-02-05T10:00:25.929Z</time>
      </trkpt>
      <trkpt lat="47.8007" lon="2.14245">
        <ele>105</ele>
        <time>2017-02-05T10:00:26.933Z</time>
      </trkpt>
      <trkpt lat="47.8007" lon="2.14245">
        <ele>105</ele>
        <time>2017-02-05T10:00:27.928Z</time>
      </trkpt>
      <trkpt lat="47.80069" lon="2.14245">
        <ele>105</ele>
        <time>2017-02-05T10:00:28.931Z</time>
      </trkpt>
      <trkpt lat="47.80069" lon="2.14245">
        <ele>105</ele>
        <time>2017-02-05T10:00:29.928Z</time>
      </trkpt>
      <trkpt lat="47.80069" lon="2.14245">
        <ele>105</ele>
        <time>2017-02-05T10:00:30.933Z</time>
      </trkpt>
    </trkseg>
  </trk>
</gpx>